<?xml version='1.0' encoding='UTF-8'?><gpx version="1.1" creator="JPX - https://github.com/jenetics/jpx" xmlns="http://www.topografix.com/GPX/1/1"><trk><trkseg><trkpt lat="45.5076267" lon="10.4634079"><ele>182.0</ele><time>2026-03-29T06:53:53.672Z</time></trkpt><trkpt lat="45.5076547" lon="10.4634971"><ele>182.0</ele><time>2026-03-29T06:54:12.673Z</time></trkpt><trkpt lat="45.5076892" lon="10.4635739"><ele>182.0</ele><time>2026-03-29T06:54:17.69Z</time></trkpt><trkpt lat="45.5077527" lon="10.4635574"><ele>182.0</ele><time>2026-03-29T06:55:53.704Z</time></trkpt><trkpt lat="45.5078239" lon="10.4635533"><ele>182.0</ele><time>2026-03-29T06:56:27.704Z</time></trkpt><trkpt lat="45.5078936" lon="10.4635502"><ele>182.0</ele><time>2026-03-29T06:57:21.7Z</time></trkpt><trkpt lat="45.5079932" lon="10.463539"><ele>182.0</ele><time>2026-03-29T06:58:37.7Z</time></trkpt><trkpt lat="45.5081083" lon="10.46353"><ele>183.0</ele><time>2026-03-29T06:59:44.694Z</time></trkpt><trkpt lat="45.5082214" lon="10.4635185"><ele>184.0</ele><time>2026-03-29T06:59:54.705Z</time></trkpt><trkpt lat="45.5083049" lon="10.4635204"><ele>185.0</ele><time>2026-03-29T06:59:56.693Z</time></trkpt><trkpt lat="45.508363" lon="10.4635648"><ele>186.0</ele><time>2026-03-29T07:00:01.689Z</time></trkpt><trkpt lat="45.5084559" lon="10.4636352"><ele>187.0</ele><time>2026-03-29T07:00:16.704Z</time></trkpt><trkpt lat="45.508528" lon="10.4636351"><ele>188.0</ele><time>2026-03-29T07:00:17.699Z</time></trkpt><trkpt lat="45.5086325" lon="10.4636043"><ele>187.5</ele><time>2026-03-29T07:00:18.702Z</time></trkpt><trkpt lat="45.5087469" lon="10.4635658"><ele>187.0</ele><time>2026-03-29T07:00:19.692Z</time></trkpt><trkpt lat="45.5088668" lon="10.4635191"><ele>186.5</ele><time>2026-03-29T07:00:20.687Z</time></trkpt><trkpt lat="45.5089961" lon="10.4634769"><ele>186.0</ele><time>2026-03-29T07:00:21.692Z</time></trkpt><trkpt lat="45.5091288" lon="10.4634425"><ele>186.0</ele><time>2026-03-29T07:00:22.698Z</time></trkpt><trkpt lat="45.509267" lon="10.4633925"><ele>186.0</ele><time>2026-03-29T07:00:23.694Z</time></trkpt><trkpt lat="45.5094047" lon="10.4633434"><ele>186.0</ele><time>2026-03-29T07:00:24.697Z</time></trkpt><trkpt lat="45.509554" lon="10.4632901"><ele>186.0</ele><time>2026-03-29T07:00:25.692Z</time></trkpt><trkpt lat="45.5097074" lon="10.4632398"><ele>186.66666666666666</ele><time>2026-03-29T07:00:26.694Z</time></trkpt><trkpt lat="45.5098545" lon="10.4631931"><ele>187.33333333333331</ele><time>2026-03-29T07:00:27.691Z</time></trkpt><trkpt lat="45.5100072" lon="10.4631369"><ele>188.0</ele><time>2026-03-29T07:00:28.708Z</time></trkpt><trkpt lat="45.5101649" lon="10.463083"><ele>188.0</ele><time>2026-03-29T07:00:29.7Z</time></trkpt><trkpt lat="45.5103093" lon="10.4630313"><ele>188.0</ele><time>2026-03-29T07:00:30.7Z</time></trkpt><trkpt lat="45.510475" lon="10.4629696"><ele>188.0</ele><time>2026-03-29T07:00:31.69Z</time></trkpt><trkpt lat="45.5106355" lon="10.4629074"><ele>188.0</ele><time>2026-03-29T07:00:32.694Z</time></trkpt><trkpt lat="45.5108141" lon="10.462856"><ele>188.0</ele><time>2026-03-29T07:00:33.695Z</time></trkpt><trkpt lat="45.5109885" lon="10.4627982"><ele>188.0</ele><time>2026-03-29T07:00:34.698Z</time></trkpt><trkpt lat="45.5111572" lon="10.4627401"><ele>188.33333333333331</ele><time>2026-03-29T07:00:35.694Z</time></trkpt><trkpt lat="45.5113246" lon="10.462677"><ele>188.66666666666666</ele><time>2026-03-29T07:00:36.698Z</time></trkpt><trkpt lat="45.5115027" lon="10.4626192"><ele>189.0</ele><time>2026-03-29T07:00:37.7Z</time></trkpt><trkpt lat="45.5116783" lon="10.4625544"><ele>189.0</ele><time>2026-03-29T07:00:38.696Z</time></trkpt><trkpt lat="45.5118631" lon="10.4624954"><ele>189.0</ele><time>2026-03-29T07:00:39.713Z</time></trkpt><trkpt lat="45.5120316" lon="10.4624414"><ele>189.0</ele><time>2026-03-29T07:00:40.7Z</time></trkpt><trkpt lat="45.5122066" lon="10.4624015"><ele>189.66666666666666</ele><time>2026-03-29T07:00:41.706Z</time></trkpt><trkpt lat="45.5123836" lon="10.4623781"><ele>190.33333333333331</ele><time>2026-03-29T07:00:42.695Z</time></trkpt><trkpt lat="45.5125586" lon="10.4623642"><ele>191.0</ele><time>2026-03-29T07:00:43.703Z</time></trkpt><trkpt lat="45.5127382" lon="10.462346"><ele>191.66666666666666</ele><time>2026-03-29T07:00:44.704Z</time></trkpt><trkpt lat="45.5129252" lon="10.4623405"><ele>192.33333333333331</ele><time>2026-03-29T07:00:45.702Z</time></trkpt><trkpt lat="45.5131083" lon="10.4623302"><ele>193.0</ele><time>2026-03-29T07:00:46.709Z</time></trkpt><trkpt lat="45.5132737" lon="10.4623299"><ele>193.0</ele><time>2026-03-29T07:00:47.699Z</time></trkpt><trkpt lat="45.5134251" lon="10.4623185"><ele>193.0</ele><time>2026-03-29T07:00:49.782Z</time></trkpt><trkpt lat="45.5135753" lon="10.4623065"><ele>193.0</ele><time>2026-03-29T07:00:50.779Z</time></trkpt><trkpt lat="45.5137126" lon="10.4622972"><ele>193.0</ele><time>2026-03-29T07:00:51.777Z</time></trkpt><trkpt lat="45.5138375" lon="10.4622915"><ele>193.2</ele><time>2026-03-29T07:00:52.778Z</time></trkpt><trkpt lat="45.5139554" lon="10.4622894"><ele>193.4</ele><time>2026-03-29T07:00:53.776Z</time></trkpt><trkpt lat="45.514064" lon="10.4622833"><ele>193.6</ele><time>2026-03-29T07:00:54.768Z</time></trkpt><trkpt lat="45.5141561" lon="10.4622745"><ele>193.79999999999998</ele><time>2026-03-29T07:00:55.777Z</time></trkpt><trkpt lat="45.5142781" lon="10.4622646"><ele>194.0</ele><time>2026-03-29T07:00:57.793Z</time></trkpt><trkpt lat="45.5143483" lon="10.4623267"><ele>194.00000000000003</ele><time>2026-03-29T07:00:59.805Z</time></trkpt><trkpt lat="45.5143687" lon="10.4624895"><ele>194.0</ele><time>2026-03-29T07:01:01.756Z</time></trkpt><trkpt lat="45.5143609" lon="10.4625861"><ele>194.0</ele><time>2026-03-29T07:01:02.769Z</time></trkpt><trkpt lat="45.5143575" lon="10.4626924"><ele>194.0</ele><time>2026-03-29T07:01:03.752Z</time></trkpt><trkpt lat="45.5143389" lon="10.462816"><ele>194.00000000000003</ele><time>2026-03-29T07:01:04.755Z</time></trkpt><trkpt lat="45.514339" lon="10.4629498"><ele>194.0</ele><time>2026-03-29T07:01:05.77Z</time></trkpt><trkpt lat="45.5143433" lon="10.4630988"><ele>194.0</ele><time>2026-03-29T07:01:06.766Z</time></trkpt><trkpt lat="45.5143413" lon="10.4632637"><ele>194.0</ele><time>2026-03-29T07:01:07.783Z</time></trkpt><trkpt lat="45.5143359" lon="10.463437"><ele>194.0</ele><time>2026-03-29T07:01:08.774Z</time></trkpt><trkpt lat="45.5143173" lon="10.4635677"><ele>194.0</ele><time>2026-03-29T07:01:09.772Z</time></trkpt><trkpt lat="45.5143047" lon="10.463727"><ele>194.0</ele><time>2026-03-29T07:01:10.775Z</time></trkpt><trkpt lat="45.5142975" lon="10.4638665"><ele>193.79999999999998</ele><time>2026-03-29T07:01:11.773Z</time></trkpt><trkpt lat="45.5142891" lon="10.4640043"><ele>193.6</ele><time>2026-03-29T07:01:12.782Z</time></trkpt><trkpt lat="45.5142864" lon="10.464121"><ele>193.4</ele><time>2026-03-29T07:01:13.774Z</time></trkpt><trkpt lat="45.5142818" lon="10.464248"><ele>193.2</ele><time>2026-03-29T07:01:14.784Z</time></trkpt><trkpt lat="45.5142762" lon="10.4643854"><ele>193.0</ele><time>2026-03-29T07:01:15.764Z</time></trkpt><trkpt lat="45.5142679" lon="10.4645331"><ele>193.0</ele><time>2026-03-29T07:01:16.768Z</time></trkpt><trkpt lat="45.5142639" lon="10.4646874"><ele>193.0</ele><time>2026-03-29T07:01:17.781Z</time></trkpt><trkpt lat="45.5142607" lon="10.4648658"><ele>193.0</ele><time>2026-03-29T07:01:18.777Z</time></trkpt><trkpt lat="45.5142558" lon="10.4650495"><ele>193.0</ele><time>2026-03-29T07:01:19.773Z</time></trkpt><trkpt lat="45.5142458" lon="10.4652146"><ele>193.0</ele><time>2026-03-29T07:01:20.777Z</time></trkpt><trkpt lat="45.5142399" lon="10.4653739"><ele>193.0</ele><time>2026-03-29T07:01:21.785Z</time></trkpt><trkpt lat="45.5142348" lon="10.4655315"><ele>193.0</ele><time>2026-03-29T07:01:22.776Z</time></trkpt><trkpt lat="45.5142269" lon="10.4656927"><ele>193.0</ele><time>2026-03-29T07:01:23.794Z</time></trkpt><trkpt lat="45.5142132" lon="10.4658643"><ele>193.5</ele><time>2026-03-29T07:01:24.768Z</time></trkpt><trkpt lat="45.5142056" lon="10.4660522"><ele>194.0</ele><time>2026-03-29T07:01:25.774Z</time></trkpt><trkpt lat="45.514199" lon="10.4662473"><ele>194.5</ele><time>2026-03-29T07:01:26.785Z</time></trkpt><trkpt lat="45.5141934" lon="10.4664222"><ele>195.0</ele><time>2026-03-29T07:01:27.767Z</time></trkpt><trkpt lat="45.5141863" lon="10.4665719"><ele>195.2</ele><time>2026-03-29T07:01:28.786Z</time></trkpt><trkpt lat="45.5141769" lon="10.4667231"><ele>195.4</ele><time>2026-03-29T07:01:29.78Z</time></trkpt><trkpt lat="45.5141639" lon="10.4668769"><ele>195.60000000000002</ele><time>2026-03-29T07:01:30.82Z</time></trkpt><trkpt lat="45.5141553" lon="10.4670379"><ele>195.8</ele><time>2026-03-29T07:01:31.776Z</time></trkpt><trkpt lat="45.5141491" lon="10.4671866"><ele>196.0</ele><time>2026-03-29T07:01:32.778Z</time></trkpt><trkpt lat="45.5141454" lon="10.4673195"><ele>196.60000000000002</ele><time>2026-03-29T07:01:33.784Z</time></trkpt><trkpt lat="45.5141377" lon="10.467457"><ele>197.2</ele><time>2026-03-29T07:01:34.775Z</time></trkpt><trkpt lat="45.5141326" lon="10.4676111"><ele>197.8</ele><time>2026-03-29T07:01:35.78Z</time></trkpt><trkpt lat="45.5141307" lon="10.4677623"><ele>198.39999999999998</ele><time>2026-03-29T07:01:36.773Z</time></trkpt><trkpt lat="45.5141282" lon="10.4679372"><ele>199.0</ele><time>2026-03-29T07:01:37.777Z</time></trkpt><trkpt lat="45.5141226" lon="10.4681119"><ele>199.2</ele><time>2026-03-29T07:01:38.779Z</time></trkpt><trkpt lat="45.5141187" lon="10.4682717"><ele>199.39999999999998</ele><time>2026-03-29T07:01:39.781Z</time></trkpt><trkpt lat="45.5141155" lon="10.4684425"><ele>199.6</ele><time>2026-03-29T07:01:40.781Z</time></trkpt><trkpt lat="45.5141087" lon="10.4685988"><ele>199.8</ele><time>2026-03-29T07:01:41.767Z</time></trkpt><trkpt lat="45.5141051" lon="10.468736"><ele>200.0</ele><time>2026-03-29T07:01:42.783Z</time></trkpt><trkpt lat="45.5141008" lon="10.4688457"><ele>200.00000000000003</ele><time>2026-03-29T07:01:43.781Z</time></trkpt><trkpt lat="45.5140996" lon="10.4689603"><ele>200.0</ele><time>2026-03-29T07:01:44.768Z</time></trkpt><trkpt lat="45.5140973" lon="10.4690653"><ele>200.0</ele><time>2026-03-29T07:01:45.776Z</time></trkpt><trkpt lat="45.5140893" lon="10.4691551"><ele>200.0</ele><time>2026-03-29T07:01:46.773Z</time></trkpt><trkpt lat="45.5141713" lon="10.4692367"><ele>200.00000000000003</ele><time>2026-03-29T07:01:50.792Z</time></trkpt><trkpt lat="45.5142502" lon="10.4692714"><ele>200.0</ele><time>2026-03-29T07:01:52.772Z</time></trkpt><trkpt lat="45.5143137" lon="10.4692666"><ele>200.00000000000003</ele><time>2026-03-29T07:01:56.789Z</time></trkpt><trkpt lat="45.5143767" lon="10.4692665"><ele>200.0</ele><time>2026-03-29T07:02:35.792Z</time></trkpt><trkpt lat="45.5144663" lon="10.4692459"><ele>200.0</ele><time>2026-03-29T07:03:07.76Z</time></trkpt><trkpt lat="45.5145377" lon="10.4692623"><ele>200.0</ele><time>2026-03-29T07:03:08.758Z</time></trkpt><trkpt lat="45.5146321" lon="10.4692778"><ele>200.00000000000003</ele><time>2026-03-29T07:03:09.764Z</time></trkpt><trkpt lat="45.514759" lon="10.4692796"><ele>200.0</ele><time>2026-03-29T07:03:10.762Z</time></trkpt><trkpt lat="45.5148888" lon="10.4693011"><ele>200.0</ele><time>2026-03-29T07:03:11.773Z</time></trkpt><trkpt lat="45.5150154" lon="10.4693104"><ele>200.0</ele><time>2026-03-29T07:03:12.782Z</time></trkpt><trkpt lat="45.5151428" lon="10.4693006"><ele>200.0</ele><time>2026-03-29T07:03:13.782Z</time></trkpt><trkpt lat="45.5152605" lon="10.4693121"><ele>200.0</ele><time>2026-03-29T07:03:14.8Z</time></trkpt><trkpt lat="45.5153731" lon="10.4693334"><ele>200.4</ele><time>2026-03-29T07:03:15.778Z</time></trkpt><trkpt lat="45.5154728" lon="10.4693482"><ele>200.8</ele><time>2026-03-29T07:03:16.784Z</time></trkpt><trkpt lat="45.5155808" lon="10.4693499"><ele>201.2</ele><time>2026-03-29T07:03:17.784Z</time></trkpt><trkpt lat="45.5156919" lon="10.4693525"><ele>201.6</ele><time>2026-03-29T07:03:18.777Z</time></trkpt><trkpt lat="45.5158056" lon="10.4693603"><ele>202.0</ele><time>2026-03-29T07:03:19.794Z</time></trkpt><trkpt lat="45.5159207" lon="10.4693806"><ele>202.0</ele><time>2026-03-29T07:03:20.779Z</time></trkpt><trkpt lat="45.5160447" lon="10.4693957"><ele>202.0</ele><time>2026-03-29T07:03:21.781Z</time></trkpt><trkpt lat="45.5161636" lon="10.4694094"><ele>202.0</ele><time>2026-03-29T07:03:22.78Z</time></trkpt><trkpt lat="45.51627" lon="10.4694273"><ele>202.0</ele><time>2026-03-29T07:03:23.776Z</time></trkpt><trkpt lat="45.516381" lon="10.4694381"><ele>202.6</ele><time>2026-03-29T07:03:24.798Z</time></trkpt><trkpt lat="45.5164844" lon="10.4694472"><ele>203.2</ele><time>2026-03-29T07:03:25.778Z</time></trkpt><trkpt lat="45.5165848" lon="10.4694402"><ele>203.8</ele><time>2026-03-29T07:03:26.779Z</time></trkpt><trkpt lat="45.5166909" lon="10.4694326"><ele>204.4</ele><time>2026-03-29T07:03:27.786Z</time></trkpt><trkpt lat="45.516805" lon="10.4694323"><ele>205.0</ele><time>2026-03-29T07:03:28.784Z</time></trkpt><trkpt lat="45.5169174" lon="10.4694362"><ele>205.0</ele><time>2026-03-29T07:03:29.787Z</time></trkpt><trkpt lat="45.5170195" lon="10.4694358"><ele>205.0</ele><time>2026-03-29T07:03:30.781Z</time></trkpt><trkpt lat="45.5171084" lon="10.4694252"><ele>205.0</ele><time>2026-03-29T07:03:31.784Z</time></trkpt><trkpt lat="45.5171864" lon="10.4694227"><ele>205.0</ele><time>2026-03-29T07:03:32.773Z</time></trkpt><trkpt lat="45.5173443" lon="10.4694734"><ele>205.0</ele><time>2026-03-29T07:03:35.677Z</time></trkpt><trkpt lat="45.5173481" lon="10.4695632"><ele>205.4</ele><time>2026-03-29T07:03:36.695Z</time></trkpt><trkpt lat="45.5173325" lon="10.4696854"><ele>205.8</ele><time>2026-03-29T07:03:37.683Z</time></trkpt><trkpt lat="45.5172966" lon="10.4698086"><ele>206.2</ele><time>2026-03-29T07:03:38.684Z</time></trkpt><trkpt lat="45.5172505" lon="10.4699344"><ele>206.6</ele><time>2026-03-29T07:03:39.685Z</time></trkpt><trkpt lat="45.5172077" lon="10.4700758"><ele>207.0</ele><time>2026-03-29T07:03:40.69Z</time></trkpt><trkpt lat="45.5171684" lon="10.4702241"><ele>207.0</ele><time>2026-03-29T07:03:41.686Z</time></trkpt><trkpt lat="45.5171261" lon="10.4703794"><ele>207.0</ele><time>2026-03-29T07:03:42.69Z</time></trkpt><trkpt lat="45.5171" lon="10.4705332"><ele>207.0</ele><time>2026-03-29T07:03:43.681Z</time></trkpt><trkpt lat="45.5170666" lon="10.4706721"><ele>207.0</ele><time>2026-03-29T07:03:44.691Z</time></trkpt><trkpt lat="45.5170262" lon="10.4708154"><ele>207.0</ele><time>2026-03-29T07:03:45.692Z</time></trkpt><trkpt lat="45.5169598" lon="10.4709525"><ele>207.25</ele><time>2026-03-29T07:03:46.69Z</time></trkpt><trkpt lat="45.5168726" lon="10.4710835"><ele>207.5</ele><time>2026-03-29T07:03:47.697Z</time></trkpt><trkpt lat="45.516776" lon="10.4711954"><ele>207.75</ele><time>2026-03-29T07:03:48.679Z</time></trkpt><trkpt lat="45.5166936" lon="10.4712911"><ele>208.0</ele><time>2026-03-29T07:03:49.687Z</time></trkpt><trkpt lat="45.5166266" lon="10.4713877"><ele>208.60000000000002</ele><time>2026-03-29T07:03:50.691Z</time></trkpt><trkpt lat="45.5165663" lon="10.4714955"><ele>209.20000000000002</ele><time>2026-03-29T07:03:51.675Z</time></trkpt><trkpt lat="45.5165104" lon="10.4716193"><ele>209.8</ele><time>2026-03-29T07:03:52.691Z</time></trkpt><trkpt lat="45.5164601" lon="10.4717626"><ele>210.4</ele><time>2026-03-29T07:03:53.694Z</time></trkpt><trkpt lat="45.5164116" lon="10.4719039"><ele>211.0</ele><time>2026-03-29T07:03:54.689Z</time></trkpt><trkpt lat="45.5163802" lon="10.4720453"><ele>211.8</ele><time>2026-03-29T07:03:55.694Z</time></trkpt><trkpt lat="45.5163564" lon="10.4722054"><ele>212.60000000000002</ele><time>2026-03-29T07:03:56.673Z</time></trkpt><trkpt lat="45.5163402" lon="10.4723731"><ele>213.4</ele><time>2026-03-29T07:03:57.693Z</time></trkpt><trkpt lat="45.516334" lon="10.4725313"><ele>214.2</ele><time>2026-03-29T07:03:58.684Z</time></trkpt><trkpt lat="45.5163259" lon="10.4726561"><ele>215.0</ele><time>2026-03-29T07:03:59.684Z</time></trkpt><trkpt lat="45.516314" lon="10.4727634"><ele>215.0</ele><time>2026-03-29T07:04:00.696Z</time></trkpt><trkpt lat="45.5162676" lon="10.4728882"><ele>215.0</ele><time>2026-03-29T07:04:02.692Z</time></trkpt><trkpt lat="45.5162452" lon="10.4729971"><ele>215.0</ele><time>2026-03-29T07:04:05.691Z</time></trkpt><trkpt lat="45.5162706" lon="10.4730848"><ele>215.0</ele><time>2026-03-29T07:04:07.679Z</time></trkpt><trkpt lat="45.5163872" lon="10.4731971"><ele>215.0</ele><time>2026-03-29T07:04:09.681Z</time></trkpt><trkpt lat="45.5164783" lon="10.4732578"><ele>216.25</ele><time>2026-03-29T07:04:10.671Z</time></trkpt><trkpt lat="45.5165821" lon="10.4733047"><ele>217.5</ele><time>2026-03-29T07:04:11.682Z</time></trkpt><trkpt lat="45.5167166" lon="10.4733348"><ele>218.75</ele><time>2026-03-29T07:04:12.669Z</time></trkpt><trkpt lat="45.516862" lon="10.4733613"><ele>220.0</ele><time>2026-03-29T07:04:13.674Z</time></trkpt><trkpt lat="45.5170364" lon="10.4733579"><ele>220.0</ele><time>2026-03-29T07:04:14.672Z</time></trkpt><trkpt lat="45.5172364" lon="10.4733206"><ele>220.0</ele><time>2026-03-29T07:04:15.665Z</time></trkpt><trkpt lat="45.5173864" lon="10.4732948"><ele>220.0</ele><time>2026-03-29T07:04:16.666Z</time></trkpt><trkpt lat="45.5175603" lon="10.4732659"><ele>220.0</ele><time>2026-03-29T07:04:17.674Z</time></trkpt><trkpt lat="45.5177244" lon="10.473213"><ele>220.0</ele><time>2026-03-29T07:04:18.674Z</time></trkpt><trkpt lat="45.517887" lon="10.4731495"><ele>220.0</ele><time>2026-03-29T07:04:19.669Z</time></trkpt><trkpt lat="45.5180239" lon="10.4730982"><ele>219.33333333333331</ele><time>2026-03-29T07:04:20.672Z</time></trkpt><trkpt lat="45.518152" lon="10.4730178"><ele>218.66666666666669</ele><time>2026-03-29T07:04:21.677Z</time></trkpt><trkpt lat="45.5182938" lon="10.4728958"><ele>218.0</ele><time>2026-03-29T07:04:22.678Z</time></trkpt><trkpt lat="45.5184175" lon="10.4727547"><ele>218.0</ele><time>2026-03-29T07:04:23.682Z</time></trkpt><trkpt lat="45.518553" lon="10.4726301"><ele>218.0</ele><time>2026-03-29T07:04:24.679Z</time></trkpt><trkpt lat="45.5186954" lon="10.4724897"><ele>218.0</ele><time>2026-03-29T07:04:25.694Z</time></trkpt><trkpt lat="45.5188428" lon="10.4723728"><ele>218.66666666666669</ele><time>2026-03-29T07:04:26.68Z</time></trkpt><trkpt lat="45.5189827" lon="10.4722566"><ele>219.33333333333331</ele><time>2026-03-29T07:04:27.683Z</time></trkpt><trkpt lat="45.5191176" lon="10.4721484"><ele>220.0</ele><time>2026-03-29T07:04:28.684Z</time></trkpt><trkpt lat="45.5192465" lon="10.4720303"><ele>219.75</ele><time>2026-03-29T07:04:29.688Z</time></trkpt><trkpt lat="45.5193746" lon="10.471924"><ele>219.5</ele><time>2026-03-29T07:04:30.69Z</time></trkpt><trkpt lat="45.5195056" lon="10.4718257"><ele>219.25</ele><time>2026-03-29T07:04:31.686Z</time></trkpt><trkpt lat="45.5196309" lon="10.4717356"><ele>219.0</ele><time>2026-03-29T07:04:32.701Z</time></trkpt><trkpt lat="45.5197398" lon="10.4716387"><ele>219.0</ele><time>2026-03-29T07:04:33.697Z</time></trkpt><trkpt lat="45.5198242" lon="10.4715504"><ele>219.0</ele><time>2026-03-29T07:04:34.692Z</time></trkpt><trkpt lat="45.5199327" lon="10.4714618"><ele>219.0</ele><time>2026-03-29T07:04:35.712Z</time></trkpt><trkpt lat="45.5200458" lon="10.4713932"><ele>219.0</ele><time>2026-03-29T07:04:36.69Z</time></trkpt><trkpt lat="45.5201533" lon="10.4713518"><ele>219.0</ele><time>2026-03-29T07:04:37.691Z</time></trkpt><trkpt lat="45.5202592" lon="10.4713056"><ele>218.99999999999997</ele><time>2026-03-29T07:04:38.694Z</time></trkpt><trkpt lat="45.520353" lon="10.4712771"><ele>218.99999999999997</ele><time>2026-03-29T07:04:39.695Z</time></trkpt><trkpt lat="45.5204276" lon="10.4712594"><ele>219.0</ele><time>2026-03-29T07:04:40.689Z</time></trkpt><trkpt lat="45.520541" lon="10.4712125"><ele>219.0</ele><time>2026-03-29T07:04:42.684Z</time></trkpt><trkpt lat="45.5206151" lon="10.4712072"><ele>219.2</ele><time>2026-03-29T07:04:44.688Z</time></trkpt><trkpt lat="45.5206775" lon="10.4712936"><ele>219.39999999999998</ele><time>2026-03-29T07:04:46.707Z</time></trkpt><trkpt lat="45.5206822" lon="10.4713919"><ele>219.6</ele><time>2026-03-29T07:04:47.693Z</time></trkpt><trkpt lat="45.5206858" lon="10.471514"><ele>219.8</ele><time>2026-03-29T07:04:48.692Z</time></trkpt><trkpt lat="45.5206846" lon="10.4716777"><ele>220.0</ele><time>2026-03-29T07:04:49.694Z</time></trkpt><trkpt lat="45.5206781" lon="10.4718716"><ele>220.0</ele><time>2026-03-29T07:04:50.689Z</time></trkpt><trkpt lat="45.5206765" lon="10.4720734"><ele>220.0</ele><time>2026-03-29T07:04:51.693Z</time></trkpt><trkpt lat="45.5206748" lon="10.4722633"><ele>220.0</ele><time>2026-03-29T07:04:52.684Z</time></trkpt><trkpt lat="45.5206754" lon="10.472449"><ele>220.0</ele><time>2026-03-29T07:04:53.686Z</time></trkpt><trkpt lat="45.520662" lon="10.4726254"><ele>221.5</ele><time>2026-03-29T07:04:54.681Z</time></trkpt><trkpt lat="45.5206252" lon="10.4728018"><ele>223.0</ele><time>2026-03-29T07:04:55.679Z</time></trkpt><trkpt lat="45.5205754" lon="10.472995"><ele>224.5</ele><time>2026-03-29T07:04:56.682Z</time></trkpt><trkpt lat="45.5205061" lon="10.4732162"><ele>226.0</ele><time>2026-03-29T07:04:57.675Z</time></trkpt><trkpt lat="45.5204075" lon="10.4734132"><ele>229.33333333333331</ele><time>2026-03-29T07:04:58.665Z</time></trkpt><trkpt lat="45.5203346" lon="10.4736327"><ele>232.66666666666669</ele><time>2026-03-29T07:04:59.676Z</time></trkpt><trkpt lat="45.5202817" lon="10.4738575"><ele>236.0</ele><time>2026-03-29T07:05:00.666Z</time></trkpt><trkpt lat="45.5202277" lon="10.474097"><ele>237.0</ele><time>2026-03-29T07:05:01.67Z</time></trkpt><trkpt lat="45.5201745" lon="10.4743224"><ele>238.0</ele><time>2026-03-29T07:05:02.664Z</time></trkpt><trkpt lat="45.5201302" lon="10.4745596"><ele>239.0</ele><time>2026-03-29T07:05:03.668Z</time></trkpt><trkpt lat="45.5201024" lon="10.4748115"><ele>239.0</ele><time>2026-03-29T07:05:04.662Z</time></trkpt><trkpt lat="45.5200748" lon="10.4750747"><ele>239.0</ele><time>2026-03-29T07:05:05.662Z</time></trkpt><trkpt lat="45.5200547" lon="10.4753406"><ele>239.0</ele><time>2026-03-29T07:05:06.685Z</time></trkpt><trkpt lat="45.5200207" lon="10.475596"><ele>239.0</ele><time>2026-03-29T07:05:07.666Z</time></trkpt><trkpt lat="45.5199669" lon="10.4758602"><ele>239.0</ele><time>2026-03-29T07:05:08.674Z</time></trkpt><trkpt lat="45.5199443" lon="10.4761208"><ele>239.0</ele><time>2026-03-29T07:05:09.669Z</time></trkpt><trkpt lat="45.5199095" lon="10.4763685"><ele>238.66666666666669</ele><time>2026-03-29T07:05:10.67Z</time></trkpt><trkpt lat="45.5198711" lon="10.4766153"><ele>238.33333333333331</ele><time>2026-03-29T07:05:11.676Z</time></trkpt><trkpt lat="45.5198334" lon="10.4768679"><ele>238.0</ele><time>2026-03-29T07:05:12.674Z</time></trkpt><trkpt lat="45.5197955" lon="10.4771185"><ele>240.33333333333331</ele><time>2026-03-29T07:05:13.677Z</time></trkpt><trkpt lat="45.5197364" lon="10.4773407"><ele>242.66666666666669</ele><time>2026-03-29T07:05:14.693Z</time></trkpt><trkpt lat="45.5197026" lon="10.477569"><ele>245.0</ele><time>2026-03-29T07:05:15.695Z</time></trkpt><trkpt lat="45.5196688" lon="10.4777944"><ele>246.66666666666669</ele><time>2026-03-29T07:05:17.757Z</time></trkpt><trkpt lat="45.519662" lon="10.4780318"><ele>248.33333333333331</ele><time>2026-03-29T07:05:18.756Z</time></trkpt><trkpt lat="45.5196765" lon="10.4782751"><ele>250.0</ele><time>2026-03-29T07:05:19.732Z</time></trkpt><trkpt lat="45.5196951" lon="10.4784954"><ele>250.0</ele><time>2026-03-29T07:05:20.73Z</time></trkpt><trkpt lat="45.5197128" lon="10.4786951"><ele>250.0</ele><time>2026-03-29T07:05:21.743Z</time></trkpt><trkpt lat="45.5196994" lon="10.4788515"><ele>250.0</ele><time>2026-03-29T07:05:22.728Z</time></trkpt><trkpt lat="45.5196628" lon="10.4789879"><ele>250.0</ele><time>2026-03-29T07:05:23.756Z</time></trkpt><trkpt lat="45.5196063" lon="10.4791172"><ele>250.25</ele><time>2026-03-29T07:05:24.754Z</time></trkpt><trkpt lat="45.5195361" lon="10.4792272"><ele>250.5</ele><time>2026-03-29T07:05:25.735Z</time></trkpt><trkpt lat="45.5194546" lon="10.4793215"><ele>250.75</ele><time>2026-03-29T07:05:26.743Z</time></trkpt><trkpt lat="45.5194304" lon="10.4794505"><ele>251.0</ele><time>2026-03-29T07:05:27.74Z</time></trkpt><trkpt lat="45.5194559" lon="10.4796768"><ele>251.0</ele><time>2026-03-29T07:05:28.737Z</time></trkpt><trkpt lat="45.5194136" lon="10.4798432"><ele>251.0</ele><time>2026-03-29T07:05:29.767Z</time></trkpt><trkpt lat="45.5193466" lon="10.479999"><ele>251.0</ele><time>2026-03-29T07:05:30.761Z</time></trkpt><trkpt lat="45.5192792" lon="10.4801451"><ele>251.0</ele><time>2026-03-29T07:05:31.765Z</time></trkpt><trkpt lat="45.5192274" lon="10.4803037"><ele>250.25</ele><time>2026-03-29T07:05:32.764Z</time></trkpt><trkpt lat="45.5191949" lon="10.4804543"><ele>249.5</ele><time>2026-03-29T07:05:33.746Z</time></trkpt><trkpt lat="45.5191712" lon="10.4806071"><ele>248.75</ele><time>2026-03-29T07:05:34.747Z</time></trkpt><trkpt lat="45.5191563" lon="10.4807861"><ele>248.0</ele><time>2026-03-29T07:05:35.741Z</time></trkpt><trkpt lat="45.5191384" lon="10.4809589"><ele>248.0</ele><time>2026-03-29T07:05:36.74Z</time></trkpt><trkpt lat="45.5191251" lon="10.4811202"><ele>248.0</ele><time>2026-03-29T07:05:37.784Z</time></trkpt><trkpt lat="45.5191303" lon="10.481257"><ele>248.0</ele><time>2026-03-29T07:05:38.766Z</time></trkpt><trkpt lat="45.5191372" lon="10.4814077"><ele>248.0</ele><time>2026-03-29T07:05:39.769Z</time></trkpt><trkpt lat="45.5191705" lon="10.4815587"><ele>248.0</ele><time>2026-03-29T07:05:40.744Z</time></trkpt><trkpt lat="45.5192235" lon="10.4817102"><ele>246.25</ele><time>2026-03-29T07:05:41.75Z</time></trkpt><trkpt lat="45.5192952" lon="10.4818872"><ele>244.5</ele><time>2026-03-29T07:05:42.749Z</time></trkpt><trkpt lat="45.519377" lon="10.4820645"><ele>242.75</ele><time>2026-03-29T07:05:43.745Z</time></trkpt><trkpt lat="45.5194657" lon="10.4822404"><ele>241.0</ele><time>2026-03-29T07:05:44.777Z</time></trkpt><trkpt lat="45.5195541" lon="10.4824192"><ele>240.75</ele><time>2026-03-29T07:05:45.772Z</time></trkpt><trkpt lat="45.519641" lon="10.4825873"><ele>240.5</ele><time>2026-03-29T07:05:46.775Z</time></trkpt><trkpt lat="45.5197202" lon="10.4827435"><ele>240.25</ele><time>2026-03-29T07:05:47.781Z</time></trkpt><trkpt lat="45.5197995" lon="10.482901"><ele>240.0</ele><time>2026-03-29T07:05:48.773Z</time></trkpt><trkpt lat="45.5198826" lon="10.483058"><ele>240.0</ele><time>2026-03-29T07:05:49.778Z</time></trkpt><trkpt lat="45.5199763" lon="10.4832083"><ele>240.0</ele><time>2026-03-29T07:05:50.776Z</time></trkpt><trkpt lat="45.5200807" lon="10.4833654"><ele>240.0</ele><time>2026-03-29T07:05:51.75Z</time></trkpt><trkpt lat="45.5201943" lon="10.4835136"><ele>240.0</ele><time>2026-03-29T07:05:52.745Z</time></trkpt><trkpt lat="45.520311" lon="10.4836623"><ele>240.66666666666669</ele><time>2026-03-29T07:05:53.748Z</time></trkpt><trkpt lat="45.5204333" lon="10.4838128"><ele>241.33333333333334</ele><time>2026-03-29T07:05:54.746Z</time></trkpt><trkpt lat="45.5205515" lon="10.4839566"><ele>242.0</ele><time>2026-03-29T07:05:55.772Z</time></trkpt><trkpt lat="45.5206673" lon="10.4841107"><ele>242.0</ele><time>2026-03-29T07:05:56.769Z</time></trkpt><trkpt lat="45.5207821" lon="10.4842473"><ele>242.0</ele><time>2026-03-29T07:05:57.765Z</time></trkpt><trkpt lat="45.5208922" lon="10.4843908"><ele>242.0</ele><time>2026-03-29T07:05:58.765Z</time></trkpt><trkpt lat="45.5209983" lon="10.4845228"><ele>242.0</ele><time>2026-03-29T07:05:59.764Z</time></trkpt><trkpt lat="45.5211063" lon="10.4846564"><ele>242.0</ele><time>2026-03-29T07:06:00.759Z</time></trkpt><trkpt lat="45.5212109" lon="10.4847931"><ele>242.0</ele><time>2026-03-29T07:06:01.762Z</time></trkpt><trkpt lat="45.5212994" lon="10.4849258"><ele>242.0</ele><time>2026-03-29T07:06:02.757Z</time></trkpt><trkpt lat="45.5213788" lon="10.4850623"><ele>242.0</ele><time>2026-03-29T07:06:03.736Z</time></trkpt><trkpt lat="45.5214415" lon="10.4852053"><ele>242.0</ele><time>2026-03-29T07:06:04.741Z</time></trkpt><trkpt lat="45.5214809" lon="10.4853639"><ele>242.0</ele><time>2026-03-29T07:06:05.742Z</time></trkpt><trkpt lat="45.5215126" lon="10.4855339"><ele>242.0</ele><time>2026-03-29T07:06:06.748Z</time></trkpt><trkpt lat="45.5215308" lon="10.4857122"><ele>242.0</ele><time>2026-03-29T07:06:07.771Z</time></trkpt><trkpt lat="45.5215392" lon="10.4858991"><ele>239.75</ele><time>2026-03-29T07:06:08.804Z</time></trkpt><trkpt lat="45.5215551" lon="10.4860719"><ele>237.5</ele><time>2026-03-29T07:06:09.768Z</time></trkpt><trkpt lat="45.5215414" lon="10.4862516"><ele>235.25</ele><time>2026-03-29T07:06:10.773Z</time></trkpt><trkpt lat="45.5215293" lon="10.4864295"><ele>233.0</ele><time>2026-03-29T07:06:11.765Z</time></trkpt><trkpt lat="45.5215026" lon="10.4866124"><ele>231.75</ele><time>2026-03-29T07:06:12.75Z</time></trkpt><trkpt lat="45.521465" lon="10.4868016"><ele>230.5</ele><time>2026-03-29T07:06:13.752Z</time></trkpt><trkpt lat="45.5214169" lon="10.4869933"><ele>229.25</ele><time>2026-03-29T07:06:14.755Z</time></trkpt><trkpt lat="45.5213657" lon="10.4871878"><ele>228.0</ele><time>2026-03-29T07:06:15.753Z</time></trkpt><trkpt lat="45.5213161" lon="10.4873869"><ele>227.0</ele><time>2026-03-29T07:06:16.78Z</time></trkpt><trkpt lat="45.5212691" lon="10.487584"><ele>226.0</ele><time>2026-03-29T07:06:17.785Z</time></trkpt><trkpt lat="45.5212112" lon="10.4877771"><ele>225.0</ele><time>2026-03-29T07:06:18.777Z</time></trkpt><trkpt lat="45.5211535" lon="10.4879753"><ele>224.0</ele><time>2026-03-29T07:06:19.784Z</time></trkpt><trkpt lat="45.521097" lon="10.4881617"><ele>223.39999999999998</ele><time>2026-03-29T07:06:20.768Z</time></trkpt><trkpt lat="45.521049" lon="10.4883354"><ele>222.79999999999998</ele><time>2026-03-29T07:06:21.778Z</time></trkpt><trkpt lat="45.5210109" lon="10.4884892"><ele>222.20000000000002</ele><time>2026-03-29T07:06:22.77Z</time></trkpt><trkpt lat="45.5209774" lon="10.4886255"><ele>221.60000000000002</ele><time>2026-03-29T07:06:23.775Z</time></trkpt><trkpt lat="45.5209491" lon="10.4887512"><ele>221.0</ele><time>2026-03-29T07:06:24.773Z</time></trkpt><trkpt lat="45.520926" lon="10.4888622"><ele>220.83333333333334</ele><time>2026-03-29T07:06:25.778Z</time></trkpt><trkpt lat="45.5209061" lon="10.4889613"><ele>220.66666666666669</ele><time>2026-03-29T07:06:26.771Z</time></trkpt><trkpt lat="45.5208744" lon="10.489111"><ele>220.5</ele><time>2026-03-29T07:06:28.766Z</time></trkpt><trkpt lat="45.5208956" lon="10.4892196"><ele>220.33333333333331</ele><time>2026-03-29T07:06:30.787Z</time></trkpt><trkpt lat="45.520936" lon="10.4892936"><ele>220.16666666666666</ele><time>2026-03-29T07:06:34.788Z</time></trkpt><trkpt lat="45.520895" lon="10.489216"><ele>220.0</ele><time>2026-03-29T07:06:36.789Z</time></trkpt><trkpt lat="45.5210025" lon="10.4892537"><ele>220.0</ele><time>2026-03-29T07:06:41.793Z</time></trkpt><trkpt lat="45.5210946" lon="10.4893514"><ele>220.0</ele><time>2026-03-29T07:06:43.774Z</time></trkpt><trkpt lat="45.5211501" lon="10.4894069"><ele>220.0</ele><time>2026-03-29T07:06:44.778Z</time></trkpt><trkpt lat="45.5212281" lon="10.4894835"><ele>220.0</ele><time>2026-03-29T07:06:45.772Z</time></trkpt><trkpt lat="45.5213101" lon="10.489573"><ele>220.0</ele><time>2026-03-29T07:06:46.762Z</time></trkpt><trkpt lat="45.5213802" lon="10.4896626"><ele>219.4</ele><time>2026-03-29T07:06:47.754Z</time></trkpt><trkpt lat="45.5214478" lon="10.489731"><ele>218.8</ele><time>2026-03-29T07:06:48.754Z</time></trkpt><trkpt lat="45.5215184" lon="10.4897884"><ele>218.2</ele><time>2026-03-29T07:06:49.759Z</time></trkpt><trkpt lat="45.5215903" lon="10.4898456"><ele>217.6</ele><time>2026-03-29T07:06:50.77Z</time></trkpt><trkpt lat="45.5216669" lon="10.4898851"><ele>217.0</ele><time>2026-03-29T07:06:51.774Z</time></trkpt><trkpt lat="45.5218171" lon="10.4900231"><ele>216.99999999999997</ele><time>2026-03-29T07:06:52.691Z</time></trkpt><trkpt lat="45.5218997" lon="10.4900523"><ele>217.0</ele><time>2026-03-29T07:06:53.689Z</time></trkpt><trkpt lat="45.5219746" lon="10.4900903"><ele>217.0</ele><time>2026-03-29T07:06:54.691Z</time></trkpt><trkpt lat="45.5220507" lon="10.4901295"><ele>217.0</ele><time>2026-03-29T07:06:55.688Z</time></trkpt><trkpt lat="45.5221272" lon="10.4901901"><ele>216.99999999999997</ele><time>2026-03-29T07:06:56.694Z</time></trkpt><trkpt lat="45.5221992" lon="10.4902552"><ele>217.0</ele><time>2026-03-29T07:06:57.693Z</time></trkpt><trkpt lat="45.5222686" lon="10.4903245"><ele>216.99999999999997</ele><time>2026-03-29T07:06:58.68Z</time></trkpt><trkpt lat="45.5223399" lon="10.4903719"><ele>217.0</ele><time>2026-03-29T07:06:59.69Z</time></trkpt><trkpt lat="45.5224183" lon="10.4904"><ele>217.0</ele><time>2026-03-29T07:07:00.689Z</time></trkpt><trkpt lat="45.5225034" lon="10.490397"><ele>217.0</ele><time>2026-03-29T07:07:01.689Z</time></trkpt><trkpt lat="45.5225809" lon="10.4904057"><ele>216.99999999999997</ele><time>2026-03-29T07:07:02.696Z</time></trkpt><trkpt lat="45.5226875" lon="10.4904407"><ele>217.0</ele><time>2026-03-29T07:07:04.685Z</time></trkpt><trkpt lat="45.5227573" lon="10.4904789"><ele>217.0</ele><time>2026-03-29T07:07:06.689Z</time></trkpt><trkpt lat="45.5228336" lon="10.4904546"><ele>217.0</ele><time>2026-03-29T07:07:09.714Z</time></trkpt><trkpt lat="45.5228995" lon="10.4903115"><ele>217.0</ele><time>2026-03-29T07:07:11.669Z</time></trkpt><trkpt lat="45.5229242" lon="10.4902014"><ele>217.0</ele><time>2026-03-29T07:07:12.666Z</time></trkpt><trkpt lat="45.5229475" lon="10.4900736"><ele>217.0</ele><time>2026-03-29T07:07:13.679Z</time></trkpt><trkpt lat="45.5229776" lon="10.4899329"><ele>218.6</ele><time>2026-03-29T07:07:14.678Z</time></trkpt><trkpt lat="45.5230107" lon="10.4897965"><ele>220.2</ele><time>2026-03-29T07:07:15.693Z</time></trkpt><trkpt lat="45.5230525" lon="10.4896614"><ele>221.8</ele><time>2026-03-29T07:07:16.681Z</time></trkpt><trkpt lat="45.5230977" lon="10.4895199"><ele>223.4</ele><time>2026-03-29T07:07:17.68Z</time></trkpt><trkpt lat="45.5231463" lon="10.4893708"><ele>225.0</ele><time>2026-03-29T07:07:18.675Z</time></trkpt><trkpt lat="45.5231853" lon="10.4892194"><ele>225.6</ele><time>2026-03-29T07:07:19.68Z</time></trkpt><trkpt lat="45.523221" lon="10.4890753"><ele>226.2</ele><time>2026-03-29T07:07:20.68Z</time></trkpt><trkpt lat="45.5232619" lon="10.4889351"><ele>226.8</ele><time>2026-03-29T07:07:21.678Z</time></trkpt><trkpt lat="45.523299" lon="10.4888229"><ele>227.4</ele><time>2026-03-29T07:07:22.667Z</time></trkpt><trkpt lat="45.5233295" lon="10.4887368"><ele>228.0</ele><time>2026-03-29T07:07:23.686Z</time></trkpt><trkpt lat="45.5233888" lon="10.4886095"><ele>228.0</ele><time>2026-03-29T07:07:25.683Z</time></trkpt><trkpt lat="45.5234522" lon="10.4885703"><ele>228.0</ele><time>2026-03-29T07:07:26.68Z</time></trkpt><trkpt lat="45.5235275" lon="10.4885377"><ele>228.0</ele><time>2026-03-29T07:07:27.679Z</time></trkpt><trkpt lat="45.5236227" lon="10.4884962"><ele>228.0</ele><time>2026-03-29T07:07:28.68Z</time></trkpt><trkpt lat="45.5237188" lon="10.4884543"><ele>228.0</ele><time>2026-03-29T07:07:29.684Z</time></trkpt><trkpt lat="45.5238237" lon="10.488425"><ele>229.2</ele><time>2026-03-29T07:07:30.681Z</time></trkpt><trkpt lat="45.523939" lon="10.488412"><ele>230.4</ele><time>2026-03-29T07:07:31.692Z</time></trkpt><trkpt lat="45.5240547" lon="10.4883958"><ele>231.59999999999997</ele><time>2026-03-29T07:07:32.685Z</time></trkpt><trkpt lat="45.5241652" lon="10.4883869"><ele>232.79999999999998</ele><time>2026-03-29T07:07:33.682Z</time></trkpt><trkpt lat="45.5242635" lon="10.4883777"><ele>234.0</ele><time>2026-03-29T07:07:34.681Z</time></trkpt><trkpt lat="45.5243522" lon="10.4883663"><ele>234.0</ele><time>2026-03-29T07:07:35.675Z</time></trkpt><trkpt lat="45.5244272" lon="10.4883697"><ele>234.0</ele><time>2026-03-29T07:07:36.667Z</time></trkpt><trkpt lat="45.52449" lon="10.4883953"><ele>234.0</ele><time>2026-03-29T07:07:37.681Z</time></trkpt><trkpt lat="45.5245559" lon="10.4884455"><ele>234.0</ele><time>2026-03-29T07:07:38.668Z</time></trkpt><trkpt lat="45.5246096" lon="10.4885207"><ele>234.0</ele><time>2026-03-29T07:07:39.69Z</time></trkpt><trkpt lat="45.5246763" lon="10.4885785"><ele>234.0</ele><time>2026-03-29T07:07:40.704Z</time></trkpt><trkpt lat="45.5247687" lon="10.4886219"><ele>234.39999999999998</ele><time>2026-03-29T07:07:41.681Z</time></trkpt><trkpt lat="45.5248763" lon="10.4886639"><ele>234.79999999999998</ele><time>2026-03-29T07:07:42.693Z</time></trkpt><trkpt lat="45.5249826" lon="10.4887"><ele>235.20000000000002</ele><time>2026-03-29T07:07:43.686Z</time></trkpt><trkpt lat="45.5250784" lon="10.488729"><ele>235.60000000000002</ele><time>2026-03-29T07:07:44.677Z</time></trkpt><trkpt lat="45.5251645" lon="10.4887418"><ele>236.0</ele><time>2026-03-29T07:07:45.687Z</time></trkpt><trkpt lat="45.525259" lon="10.4887607"><ele>236.8</ele><time>2026-03-29T07:07:46.681Z</time></trkpt><trkpt lat="45.5253497" lon="10.48879"><ele>237.60000000000002</ele><time>2026-03-29T07:07:47.692Z</time></trkpt><trkpt lat="45.5254484" lon="10.4888085"><ele>238.4</ele><time>2026-03-29T07:07:48.685Z</time></trkpt><trkpt lat="45.5255511" lon="10.4888267"><ele>239.2</ele><time>2026-03-29T07:07:49.688Z</time></trkpt><trkpt lat="45.5256528" lon="10.4888373"><ele>240.0</ele><time>2026-03-29T07:07:50.687Z</time></trkpt><trkpt lat="45.5257426" lon="10.4888533"><ele>240.0</ele><time>2026-03-29T07:07:51.686Z</time></trkpt><trkpt lat="45.525834" lon="10.4888721"><ele>240.0</ele><time>2026-03-29T07:07:52.684Z</time></trkpt><trkpt lat="45.525924" lon="10.4888896"><ele>240.0</ele><time>2026-03-29T07:07:53.69Z</time></trkpt><trkpt lat="45.5260215" lon="10.4888913"><ele>240.0</ele><time>2026-03-29T07:07:54.685Z</time></trkpt><trkpt lat="45.526112" lon="10.4888754"><ele>240.0</ele><time>2026-03-29T07:07:55.686Z</time></trkpt><trkpt lat="45.5262128" lon="10.4888536"><ele>240.16666666666666</ele><time>2026-03-29T07:07:56.685Z</time></trkpt><trkpt lat="45.5263027" lon="10.4888355"><ele>240.33333333333331</ele><time>2026-03-29T07:07:57.681Z</time></trkpt><trkpt lat="45.526387" lon="10.4888214"><ele>240.5</ele><time>2026-03-29T07:07:58.689Z</time></trkpt><trkpt lat="45.5264653" lon="10.4888128"><ele>240.66666666666666</ele><time>2026-03-29T07:07:59.683Z</time></trkpt><trkpt lat="45.5265381" lon="10.4887968"><ele>240.83333333333331</ele><time>2026-03-29T07:08:00.675Z</time></trkpt><trkpt lat="45.5266042" lon="10.4888024"><ele>241.0</ele><time>2026-03-29T07:08:01.68Z</time></trkpt><trkpt lat="45.5266811" lon="10.4888027"><ele>240.99999999999997</ele><time>2026-03-29T07:08:02.686Z</time></trkpt><trkpt lat="45.5267645" lon="10.4888076"><ele>241.0</ele><time>2026-03-29T07:08:03.688Z</time></trkpt><trkpt lat="45.5268394" lon="10.4888134"><ele>241.0</ele><time>2026-03-29T07:08:04.684Z</time></trkpt><trkpt lat="45.5269053" lon="10.4888217"><ele>241.0</ele><time>2026-03-29T07:08:05.683Z</time></trkpt><trkpt lat="45.5269733" lon="10.4888536"><ele>240.99999999999997</ele><time>2026-03-29T07:08:06.679Z</time></trkpt><trkpt lat="45.5270433" lon="10.4889136"><ele>241.0</ele><time>2026-03-29T07:08:07.683Z</time></trkpt><trkpt lat="45.5271093" lon="10.4889774"><ele>241.4</ele><time>2026-03-29T07:08:08.681Z</time></trkpt><trkpt lat="45.5271775" lon="10.4890477"><ele>241.8</ele><time>2026-03-29T07:08:09.681Z</time></trkpt><trkpt lat="45.5272551" lon="10.4891178"><ele>242.20000000000002</ele><time>2026-03-29T07:08:10.679Z</time></trkpt><trkpt lat="45.5273333" lon="10.4891706"><ele>242.60000000000002</ele><time>2026-03-29T07:08:11.693Z</time></trkpt><trkpt lat="45.5274216" lon="10.4892066"><ele>243.0</ele><time>2026-03-29T07:08:12.661Z</time></trkpt><trkpt lat="45.5275245" lon="10.489212"><ele>243.0</ele><time>2026-03-29T07:08:13.668Z</time></trkpt><trkpt lat="45.5276249" lon="10.4891921"><ele>243.0</ele><time>2026-03-29T07:08:14.672Z</time></trkpt><trkpt lat="45.5277275" lon="10.4891561"><ele>243.0</ele><time>2026-03-29T07:08:15.674Z</time></trkpt><trkpt lat="45.5278362" lon="10.4891194"><ele>243.0</ele><time>2026-03-29T07:08:16.673Z</time></trkpt><trkpt lat="45.5279311" lon="10.4890926"><ele>243.0</ele><time>2026-03-29T07:08:17.679Z</time></trkpt><trkpt lat="45.5280134" lon="10.4890755"><ele>244.2</ele><time>2026-03-29T07:08:18.677Z</time></trkpt><trkpt lat="45.5280922" lon="10.4890705"><ele>245.4</ele><time>2026-03-29T07:08:19.678Z</time></trkpt><trkpt lat="45.5281656" lon="10.4890891"><ele>246.59999999999997</ele><time>2026-03-29T07:08:20.671Z</time></trkpt><trkpt lat="45.5282643" lon="10.4891891"><ele>247.79999999999998</ele><time>2026-03-29T07:08:22.675Z</time></trkpt><trkpt lat="45.5283126" lon="10.4893382"><ele>249.0</ele><time>2026-03-29T07:08:24.676Z</time></trkpt><trkpt lat="45.5282985" lon="10.4894298"><ele>249.0</ele><time>2026-03-29T07:08:25.679Z</time></trkpt><trkpt lat="45.5282829" lon="10.4895241"><ele>248.99999999999997</ele><time>2026-03-29T07:08:26.684Z</time></trkpt><trkpt lat="45.5282708" lon="10.4896829"><ele>248.99999999999997</ele><time>2026-03-29T07:08:28.665Z</time></trkpt><trkpt lat="45.5283618" lon="10.4897672"><ele>249.0</ele><time>2026-03-29T07:08:30.656Z</time></trkpt><trkpt lat="45.5284305" lon="10.4897913"><ele>249.0</ele><time>2026-03-29T07:08:31.657Z</time></trkpt><trkpt lat="45.5285302" lon="10.4898167"><ele>249.66666666666666</ele><time>2026-03-29T07:08:32.656Z</time></trkpt><trkpt lat="45.5286204" lon="10.4898504"><ele>250.33333333333331</ele><time>2026-03-29T07:08:33.655Z</time></trkpt><trkpt lat="45.5286948" lon="10.4898875"><ele>251.0</ele><time>2026-03-29T07:08:34.658Z</time></trkpt><trkpt lat="45.5287692" lon="10.4899284"><ele>251.66666666666666</ele><time>2026-03-29T07:08:35.656Z</time></trkpt><trkpt lat="45.5288755" lon="10.4899862"><ele>252.33333333333331</ele><time>2026-03-29T07:08:37.662Z</time></trkpt><trkpt lat="45.5289374" lon="10.4900302"><ele>253.0</ele><time>2026-03-29T07:08:39.672Z</time></trkpt><trkpt lat="45.5290168" lon="10.4900596"><ele>253.49999999999997</ele><time>2026-03-29T07:08:42.693Z</time></trkpt><trkpt lat="45.529078" lon="10.490094"><ele>254.0</ele><time>2026-03-29T07:08:46.679Z</time></trkpt><trkpt lat="45.5291505" lon="10.4901318"><ele>254.5</ele><time>2026-03-29T07:08:49.682Z</time></trkpt><trkpt lat="45.5292425" lon="10.4901227"><ele>255.0</ele><time>2026-03-29T07:08:52.681Z</time></trkpt><trkpt lat="45.52931" lon="10.4900428"><ele>255.49999999999997</ele><time>2026-03-29T07:08:54.685Z</time></trkpt><trkpt lat="45.5293723" lon="10.4899722"><ele>256.0</ele><time>2026-03-29T07:08:56.684Z</time></trkpt><trkpt lat="45.529477" lon="10.4899882"><ele>256.40000000000003</ele><time>2026-03-29T07:08:58.677Z</time></trkpt><trkpt lat="45.5295633" lon="10.4900136"><ele>256.8</ele><time>2026-03-29T07:08:59.682Z</time></trkpt><trkpt lat="45.5296499" lon="10.4900505"><ele>257.20000000000005</ele><time>2026-03-29T07:09:00.676Z</time></trkpt><trkpt lat="45.5297334" lon="10.4901029"><ele>257.6</ele><time>2026-03-29T07:09:01.674Z</time></trkpt><trkpt lat="45.5298162" lon="10.4901736"><ele>258.0</ele><time>2026-03-29T07:09:02.683Z</time></trkpt><trkpt lat="45.5298951" lon="10.4902338"><ele>258.0</ele><time>2026-03-29T07:09:03.683Z</time></trkpt><trkpt lat="45.5299619" lon="10.490294"><ele>258.0</ele><time>2026-03-29T07:09:04.695Z</time></trkpt><trkpt lat="45.5300124" lon="10.4903502"><ele>258.0</ele><time>2026-03-29T07:09:05.681Z</time></trkpt><trkpt lat="45.5300783" lon="10.4904345"><ele>258.0</ele><time>2026-03-29T07:09:07.687Z</time></trkpt><trkpt lat="45.5301676" lon="10.4905201"><ele>258.0</ele><time>2026-03-29T07:09:09.688Z</time></trkpt><trkpt lat="45.5302537" lon="10.4906232"><ele>257.71428571428567</ele><time>2026-03-29T07:09:11.688Z</time></trkpt><trkpt lat="45.5303044" lon="10.4906789"><ele>257.42857142857144</ele><time>2026-03-29T07:09:12.684Z</time></trkpt><trkpt lat="45.530356" lon="10.490745"><ele>257.1428571428571</ele><time>2026-03-29T07:09:13.696Z</time></trkpt><trkpt lat="45.5303962" lon="10.4908296"><ele>256.85714285714283</ele><time>2026-03-29T07:09:14.674Z</time></trkpt><trkpt lat="45.5304253" lon="10.4909322"><ele>256.57142857142856</ele><time>2026-03-29T07:09:15.693Z</time></trkpt><trkpt lat="45.5304548" lon="10.4910179"><ele>256.2857142857143</ele><time>2026-03-29T07:09:16.688Z</time></trkpt><trkpt lat="45.530496" lon="10.4911077"><ele>256.0</ele><time>2026-03-29T07:09:17.685Z</time></trkpt><trkpt lat="45.5305388" lon="10.4911946"><ele>255.83333333333331</ele><time>2026-03-29T07:09:18.683Z</time></trkpt><trkpt lat="45.5305835" lon="10.4912765"><ele>255.66666666666666</ele><time>2026-03-29T07:09:19.683Z</time></trkpt><trkpt lat="45.5306388" lon="10.4913583"><ele>255.5</ele><time>2026-03-29T07:09:20.681Z</time></trkpt><trkpt lat="45.53069" lon="10.4914486"><ele>255.33333333333331</ele><time>2026-03-29T07:09:21.681Z</time></trkpt><trkpt lat="45.5307385" lon="10.4915361"><ele>255.16666666666666</ele><time>2026-03-29T07:09:22.677Z</time></trkpt><trkpt lat="45.5307787" lon="10.4916127"><ele>255.0</ele><time>2026-03-29T07:09:23.681Z</time></trkpt><trkpt lat="45.5308231" lon="10.491698"><ele>255.0</ele><time>2026-03-29T07:09:24.677Z</time></trkpt><trkpt lat="45.5308686" lon="10.4917905"><ele>255.00000000000003</ele><time>2026-03-29T07:09:25.678Z</time></trkpt><trkpt lat="45.5309141" lon="10.4918797"><ele>255.0</ele><time>2026-03-29T07:09:26.682Z</time></trkpt><trkpt lat="45.5309398" lon="10.491984"><ele>255.0</ele><time>2026-03-29T07:09:27.685Z</time></trkpt><trkpt lat="45.5309685" lon="10.4920785"><ele>255.00000000000003</ele><time>2026-03-29T07:09:28.684Z</time></trkpt><trkpt lat="45.5309899" lon="10.4921649"><ele>255.0</ele><time>2026-03-29T07:09:29.689Z</time></trkpt><trkpt lat="45.531007" lon="10.4922528"><ele>255.0</ele><time>2026-03-29T07:09:30.674Z</time></trkpt><trkpt lat="45.531007" lon="10.4923539"><ele>255.66666666666666</ele><time>2026-03-29T07:09:31.679Z</time></trkpt><trkpt lat="45.5310204" lon="10.4924565"><ele>256.3333333333333</ele><time>2026-03-29T07:09:32.671Z</time></trkpt><trkpt lat="45.53105" lon="10.4925676"><ele>257.0</ele><time>2026-03-29T07:09:33.673Z</time></trkpt><trkpt lat="45.5310963" lon="10.4926713"><ele>257.66666666666663</ele><time>2026-03-29T07:09:34.675Z</time></trkpt><trkpt lat="45.5311614" lon="10.4927744"><ele>258.3333333333333</ele><time>2026-03-29T07:09:35.662Z</time></trkpt><trkpt lat="45.5312305" lon="10.4928637"><ele>259.0</ele><time>2026-03-29T07:09:36.666Z</time></trkpt><trkpt lat="45.5313135" lon="10.4929284"><ele>256.2</ele><time>2026-03-29T07:09:37.672Z</time></trkpt><trkpt lat="45.5313892" lon="10.4930056"><ele>253.39999999999998</ele><time>2026-03-29T07:09:38.677Z</time></trkpt><trkpt lat="45.5314741" lon="10.493078"><ele>250.6</ele><time>2026-03-29T07:09:39.674Z</time></trkpt><trkpt lat="45.5315553" lon="10.4931453"><ele>247.8</ele><time>2026-03-29T07:09:40.682Z</time></trkpt><trkpt lat="45.5316397" lon="10.4932095"><ele>245.0</ele><time>2026-03-29T07:09:41.67Z</time></trkpt><trkpt lat="45.531724" lon="10.4932684"><ele>245.00000000000003</ele><time>2026-03-29T07:09:42.666Z</time></trkpt><trkpt lat="45.53181" lon="10.4933151"><ele>245.0</ele><time>2026-03-29T07:09:43.665Z</time></trkpt><trkpt lat="45.5318977" lon="10.4933704"><ele>245.0</ele><time>2026-03-29T07:09:44.675Z</time></trkpt><trkpt lat="45.5319772" lon="10.493426"><ele>245.0</ele><time>2026-03-29T07:09:45.656Z</time></trkpt><trkpt lat="45.5320543" lon="10.4934706"><ele>245.00000000000003</ele><time>2026-03-29T07:09:46.661Z</time></trkpt><trkpt lat="45.532131" lon="10.4935043"><ele>245.0</ele><time>2026-03-29T07:09:47.66Z</time></trkpt><trkpt lat="45.5322123" lon="10.4935376"><ele>245.00000000000003</ele><time>2026-03-29T07:09:48.657Z</time></trkpt><trkpt lat="45.5323022" lon="10.493575"><ele>245.0</ele><time>2026-03-29T07:09:49.661Z</time></trkpt><trkpt lat="45.5323758" lon="10.4936255"><ele>245.0</ele><time>2026-03-29T07:09:50.66Z</time></trkpt><trkpt lat="45.5324392" lon="10.493714"><ele>245.0</ele><time>2026-03-29T07:09:51.669Z</time></trkpt><trkpt lat="45.532487" lon="10.493798"><ele>245.00000000000003</ele><time>2026-03-29T07:09:52.668Z</time></trkpt><trkpt lat="45.5325479" lon="10.4938857"><ele>245.0</ele><time>2026-03-29T07:09:53.671Z</time></trkpt><trkpt lat="45.5326182" lon="10.4939703"><ele>245.00000000000003</ele><time>2026-03-29T07:09:54.666Z</time></trkpt><trkpt lat="45.5327105" lon="10.4940272"><ele>245.0</ele><time>2026-03-29T07:09:55.672Z</time></trkpt><trkpt lat="45.5328" lon="10.49407"><ele>245.0</ele><time>2026-03-29T07:09:56.672Z</time></trkpt><trkpt lat="45.5328713" lon="10.4940954"><ele>245.0</ele><time>2026-03-29T07:09:57.672Z</time></trkpt><trkpt lat="45.5329464" lon="10.4941172"><ele>245.00000000000003</ele><time>2026-03-29T07:09:58.671Z</time></trkpt><trkpt lat="45.5330354" lon="10.494116"><ele>245.0</ele><time>2026-03-29T07:09:59.676Z</time></trkpt><trkpt lat="45.533128" lon="10.4940982"><ele>244.83333333333334</ele><time>2026-03-29T07:10:00.67Z</time></trkpt><trkpt lat="45.5332126" lon="10.494079"><ele>244.66666666666669</ele><time>2026-03-29T07:10:01.669Z</time></trkpt><trkpt lat="45.5332769" lon="10.4940807"><ele>244.5</ele><time>2026-03-29T07:10:02.662Z</time></trkpt><trkpt lat="45.5333665" lon="10.4941892"><ele>244.33333333333331</ele><time>2026-03-29T07:10:04.67Z</time></trkpt><trkpt lat="45.5334104" lon="10.4942801"><ele>244.16666666666666</ele><time>2026-03-29T07:10:05.67Z</time></trkpt><trkpt lat="45.5334731" lon="10.4943636"><ele>244.0</ele><time>2026-03-29T07:10:06.669Z</time></trkpt><trkpt lat="45.5335536" lon="10.4944496"><ele>244.0</ele><time>2026-03-29T07:10:07.676Z</time></trkpt><trkpt lat="45.5336502" lon="10.4944958"><ele>243.99999999999997</ele><time>2026-03-29T07:10:08.678Z</time></trkpt><trkpt lat="45.5337542" lon="10.4945366"><ele>243.99999999999997</ele><time>2026-03-29T07:10:09.677Z</time></trkpt><trkpt lat="45.533855" lon="10.4945507"><ele>244.0</ele><time>2026-03-29T07:10:10.685Z</time></trkpt><trkpt lat="45.5339601" lon="10.49456"><ele>244.0</ele><time>2026-03-29T07:10:11.687Z</time></trkpt><trkpt lat="45.5340544" lon="10.4945871"><ele>242.66666666666666</ele><time>2026-03-29T07:10:12.682Z</time></trkpt><trkpt lat="45.5341512" lon="10.4946221"><ele>241.33333333333331</ele><time>2026-03-29T07:10:13.693Z</time></trkpt><trkpt lat="45.5342381" lon="10.4946565"><ele>240.0</ele><time>2026-03-29T07:10:14.684Z</time></trkpt><trkpt lat="45.5343115" lon="10.4946947"><ele>238.66666666666669</ele><time>2026-03-29T07:10:15.701Z</time></trkpt><trkpt lat="45.53438" lon="10.4947375"><ele>237.33333333333334</ele><time>2026-03-29T07:10:16.683Z</time></trkpt><trkpt lat="45.5344553" lon="10.494766"><ele>236.0</ele><time>2026-03-29T07:10:17.681Z</time></trkpt><trkpt lat="45.5345201" lon="10.4947859"><ele>235.83333333333334</ele><time>2026-03-29T07:10:18.678Z</time></trkpt><trkpt lat="45.5345937" lon="10.4948003"><ele>235.66666666666669</ele><time>2026-03-29T07:10:19.679Z</time></trkpt><trkpt lat="45.534665" lon="10.4948327"><ele>235.5</ele><time>2026-03-29T07:10:20.677Z</time></trkpt><trkpt lat="45.5347435" lon="10.4948821"><ele>235.33333333333331</ele><time>2026-03-29T07:10:21.678Z</time></trkpt><trkpt lat="45.5348286" lon="10.4949342"><ele>235.16666666666666</ele><time>2026-03-29T07:10:22.681Z</time></trkpt><trkpt lat="45.5349191" lon="10.494986"><ele>235.0</ele><time>2026-03-29T07:10:23.683Z</time></trkpt><trkpt lat="45.5350073" lon="10.4950378"><ele>235.0</ele><time>2026-03-29T07:10:24.68Z</time></trkpt><trkpt lat="45.5351102" lon="10.4950802"><ele>235.0</ele><time>2026-03-29T07:10:25.682Z</time></trkpt><trkpt lat="45.5352241" lon="10.4951125"><ele>235.0</ele><time>2026-03-29T07:10:26.685Z</time></trkpt><trkpt lat="45.5353297" lon="10.4951196"><ele>235.0</ele><time>2026-03-29T07:10:27.683Z</time></trkpt><trkpt lat="45.5354287" lon="10.4951308"><ele>235.0</ele><time>2026-03-29T07:10:28.686Z</time></trkpt><trkpt lat="45.5355126" lon="10.4951402"><ele>234.8</ele><time>2026-03-29T07:10:29.686Z</time></trkpt><trkpt lat="45.5355965" lon="10.4951481"><ele>234.6</ele><time>2026-03-29T07:10:30.69Z</time></trkpt><trkpt lat="45.5356856" lon="10.4951762"><ele>234.39999999999998</ele><time>2026-03-29T07:10:31.68Z</time></trkpt><trkpt lat="45.5357758" lon="10.4952349"><ele>234.2</ele><time>2026-03-29T07:10:32.697Z</time></trkpt><trkpt lat="45.5358737" lon="10.4953222"><ele>234.0</ele><time>2026-03-29T07:10:33.681Z</time></trkpt><trkpt lat="45.5359662" lon="10.4954248"><ele>234.79999999999998</ele><time>2026-03-29T07:10:34.679Z</time></trkpt><trkpt lat="45.5360637" lon="10.495525"><ele>235.59999999999997</ele><time>2026-03-29T07:10:35.676Z</time></trkpt><trkpt lat="45.5361599" lon="10.4956293"><ele>236.4</ele><time>2026-03-29T07:10:36.675Z</time></trkpt><trkpt lat="45.5362398" lon="10.4957065"><ele>237.2</ele><time>2026-03-29T07:10:37.676Z</time></trkpt><trkpt lat="45.5363089" lon="10.4957778"><ele>238.0</ele><time>2026-03-29T07:10:38.678Z</time></trkpt><trkpt lat="45.5363658" lon="10.4958481"><ele>237.99999999999997</ele><time>2026-03-29T07:10:39.671Z</time></trkpt><trkpt lat="45.5364096" lon="10.4959401"><ele>238.0</ele><time>2026-03-29T07:10:40.673Z</time></trkpt><trkpt lat="45.5364497" lon="10.4960547"><ele>238.0</ele><time>2026-03-29T07:10:41.676Z</time></trkpt><trkpt lat="45.5365021" lon="10.4961509"><ele>238.0</ele><time>2026-03-29T07:10:42.67Z</time></trkpt><trkpt lat="45.5365573" lon="10.4962192"><ele>237.99999999999997</ele><time>2026-03-29T07:10:43.673Z</time></trkpt><trkpt lat="45.5366243" lon="10.4962673"><ele>238.0</ele><time>2026-03-29T07:10:44.673Z</time></trkpt><trkpt lat="45.5367014" lon="10.4963128"><ele>237.49999999999997</ele><time>2026-03-29T07:10:45.67Z</time></trkpt><trkpt lat="45.53678" lon="10.4963342"><ele>237.0</ele><time>2026-03-29T07:10:46.718Z</time></trkpt><trkpt lat="45.5368532" lon="10.4963475"><ele>236.5</ele><time>2026-03-29T07:10:47.676Z</time></trkpt><trkpt lat="45.5369867" lon="10.4963589"><ele>236.0</ele><time>2026-03-29T07:10:49.677Z</time></trkpt><trkpt lat="45.5370562" lon="10.4963978"><ele>235.49999999999997</ele><time>2026-03-29T07:10:50.673Z</time></trkpt><trkpt lat="45.5371404" lon="10.4964304"><ele>235.0</ele><time>2026-03-29T07:10:51.673Z</time></trkpt><trkpt lat="45.5372492" lon="10.4964619"><ele>235.0</ele><time>2026-03-29T07:10:52.668Z</time></trkpt><trkpt lat="45.5373873" lon="10.4964528"><ele>235.0</ele><time>2026-03-29T07:10:53.68Z</time></trkpt><trkpt lat="45.5375352" lon="10.4964078"><ele>235.0</ele><time>2026-03-29T07:10:54.671Z</time></trkpt><trkpt lat="45.5376797" lon="10.4963504"><ele>235.0</ele><time>2026-03-29T07:10:55.685Z</time></trkpt><trkpt lat="45.5378328" lon="10.4962968"><ele>234.75</ele><time>2026-03-29T07:10:56.683Z</time></trkpt><trkpt lat="45.537954" lon="10.4962616"><ele>234.5</ele><time>2026-03-29T07:10:57.685Z</time></trkpt><trkpt lat="45.5380674" lon="10.4962233"><ele>234.25</ele><time>2026-03-29T07:10:58.688Z</time></trkpt><trkpt lat="45.5381794" lon="10.4961872"><ele>234.0</ele><time>2026-03-29T07:10:59.686Z</time></trkpt><trkpt lat="45.5382852" lon="10.4961514"><ele>234.75</ele><time>2026-03-29T07:11:00.69Z</time></trkpt><trkpt lat="45.5383983" lon="10.4961271"><ele>235.5</ele><time>2026-03-29T07:11:01.691Z</time></trkpt><trkpt lat="45.5385058" lon="10.4961212"><ele>236.25</ele><time>2026-03-29T07:11:02.692Z</time></trkpt><trkpt lat="45.53862" lon="10.4961026"><ele>237.0</ele><time>2026-03-29T07:11:03.684Z</time></trkpt><trkpt lat="45.5387491" lon="10.4960953"><ele>237.0</ele><time>2026-03-29T07:11:04.696Z</time></trkpt><trkpt lat="45.5388725" lon="10.4960793"><ele>237.0</ele><time>2026-03-29T07:11:05.688Z</time></trkpt><trkpt lat="45.5390015" lon="10.4960756"><ele>237.0</ele><time>2026-03-29T07:11:06.692Z</time></trkpt><trkpt lat="45.5391271" lon="10.4960637"><ele>237.0</ele><time>2026-03-29T07:11:07.687Z</time></trkpt><trkpt lat="45.5392584" lon="10.4960415"><ele>237.0</ele><time>2026-03-29T07:11:08.69Z</time></trkpt><trkpt lat="45.5393958" lon="10.4960094"><ele>237.0</ele><time>2026-03-29T07:11:09.686Z</time></trkpt><trkpt lat="45.539545" lon="10.4959573"><ele>237.0</ele><time>2026-03-29T07:11:10.681Z</time></trkpt><trkpt lat="45.53969" lon="10.4958689"><ele>238.0</ele><time>2026-03-29T07:11:11.699Z</time></trkpt><trkpt lat="45.5398048" lon="10.495803"><ele>239.0</ele><time>2026-03-29T07:11:12.686Z</time></trkpt><trkpt lat="45.539919" lon="10.4957505"><ele>240.0</ele><time>2026-03-29T07:11:13.689Z</time></trkpt><trkpt lat="45.5400156" lon="10.495706"><ele>241.0</ele><time>2026-03-29T07:11:14.688Z</time></trkpt><trkpt lat="45.5401268" lon="10.4956719"><ele>241.0</ele><time>2026-03-29T07:11:15.694Z</time></trkpt><trkpt lat="45.5402385" lon="10.4956761"><ele>241.0</ele><time>2026-03-29T07:11:16.696Z</time></trkpt><trkpt lat="45.5403526" lon="10.4956857"><ele>241.0</ele><time>2026-03-29T07:11:17.691Z</time></trkpt><trkpt lat="45.5404764" lon="10.4957025"><ele>241.0</ele><time>2026-03-29T07:11:18.693Z</time></trkpt><trkpt lat="45.5406021" lon="10.4957183"><ele>241.25</ele><time>2026-03-29T07:11:19.691Z</time></trkpt><trkpt lat="45.5407423" lon="10.4957324"><ele>241.5</ele><time>2026-03-29T07:11:20.687Z</time></trkpt><trkpt lat="45.5408904" lon="10.4957376"><ele>241.75</ele><time>2026-03-29T07:11:21.7Z</time></trkpt><trkpt lat="45.5410298" lon="10.4957592"><ele>242.0</ele><time>2026-03-29T07:11:22.689Z</time></trkpt><trkpt lat="45.5411494" lon="10.4957715"><ele>242.0</ele><time>2026-03-29T07:11:23.689Z</time></trkpt><trkpt lat="45.5412642" lon="10.4957794"><ele>242.0</ele><time>2026-03-29T07:11:24.688Z</time></trkpt><trkpt lat="45.541356" lon="10.4957919"><ele>242.0</ele><time>2026-03-29T07:11:25.689Z</time></trkpt><trkpt lat="45.5414416" lon="10.4958194"><ele>242.0</ele><time>2026-03-29T07:11:26.681Z</time></trkpt><trkpt lat="45.5415432" lon="10.4958506"><ele>242.0</ele><time>2026-03-29T07:11:27.673Z</time></trkpt><trkpt lat="45.5416253" lon="10.4958852"><ele>242.00000000000003</ele><time>2026-03-29T07:11:28.673Z</time></trkpt><trkpt lat="45.5416993" lon="10.4959334"><ele>242.0</ele><time>2026-03-29T07:11:29.671Z</time></trkpt><trkpt lat="45.5417732" lon="10.4960011"><ele>242.0</ele><time>2026-03-29T07:11:30.678Z</time></trkpt><trkpt lat="45.541831" lon="10.4961134"><ele>242.0</ele><time>2026-03-29T07:11:31.676Z</time></trkpt><trkpt lat="45.5418677" lon="10.4962359"><ele>242.00000000000003</ele><time>2026-03-29T07:11:32.682Z</time></trkpt><trkpt lat="45.5419182" lon="10.4963359"><ele>242.0</ele><time>2026-03-29T07:11:33.677Z</time></trkpt><trkpt lat="45.541997" lon="10.4964342"><ele>241.25</ele><time>2026-03-29T07:11:34.687Z</time></trkpt><trkpt lat="45.5421179" lon="10.4964837"><ele>240.5</ele><time>2026-03-29T07:11:35.673Z</time></trkpt><trkpt lat="45.542234" lon="10.4965327"><ele>239.75</ele><time>2026-03-29T07:11:36.671Z</time></trkpt><trkpt lat="45.5423809" lon="10.4965631"><ele>239.0</ele><time>2026-03-29T07:11:37.676Z</time></trkpt><trkpt lat="45.5425347" lon="10.4965876"><ele>239.0</ele><time>2026-03-29T07:11:38.68Z</time></trkpt><trkpt lat="45.542692" lon="10.4966009"><ele>239.0</ele><time>2026-03-29T07:11:39.682Z</time></trkpt><trkpt lat="45.5428506" lon="10.4966148"><ele>239.0</ele><time>2026-03-29T07:11:40.684Z</time></trkpt><trkpt lat="45.5430122" lon="10.4966027"><ele>240.25</ele><time>2026-03-29T07:11:41.689Z</time></trkpt><trkpt lat="45.5431664" lon="10.4966008"><ele>241.5</ele><time>2026-03-29T07:11:42.686Z</time></trkpt><trkpt lat="45.5433049" lon="10.4966035"><ele>242.75</ele><time>2026-03-29T07:11:43.69Z</time></trkpt><trkpt lat="45.5434312" lon="10.4966052"><ele>244.0</ele><time>2026-03-29T07:11:44.69Z</time></trkpt><trkpt lat="45.543568" lon="10.4966111"><ele>244.0</ele><time>2026-03-29T07:11:45.687Z</time></trkpt><trkpt lat="45.5437075" lon="10.4966269"><ele>244.0</ele><time>2026-03-29T07:11:46.691Z</time></trkpt><trkpt lat="45.5438697" lon="10.4966515"><ele>244.0</ele><time>2026-03-29T07:11:47.708Z</time></trkpt><trkpt lat="45.5440237" lon="10.4966639"><ele>243.66666666666666</ele><time>2026-03-29T07:11:48.686Z</time></trkpt><trkpt lat="45.5441841" lon="10.4967036"><ele>243.33333333333331</ele><time>2026-03-29T07:11:49.692Z</time></trkpt><trkpt lat="45.5443322" lon="10.496767"><ele>243.0</ele><time>2026-03-29T07:11:50.683Z</time></trkpt><trkpt lat="45.5444796" lon="10.4968218"><ele>245.25</ele><time>2026-03-29T07:11:51.683Z</time></trkpt><trkpt lat="45.5446076" lon="10.4968692"><ele>247.5</ele><time>2026-03-29T07:11:52.685Z</time></trkpt><trkpt lat="45.5447414" lon="10.4969126"><ele>249.75</ele><time>2026-03-29T07:11:53.689Z</time></trkpt><trkpt lat="45.5448581" lon="10.4969623"><ele>252.0</ele><time>2026-03-29T07:11:54.687Z</time></trkpt><trkpt lat="45.5450056" lon="10.4970066"><ele>252.0</ele><time>2026-03-29T07:11:55.693Z</time></trkpt><trkpt lat="45.5451523" lon="10.4970765"><ele>252.0</ele><time>2026-03-29T07:11:56.682Z</time></trkpt><trkpt lat="45.5453031" lon="10.4971411"><ele>252.0</ele><time>2026-03-29T07:11:57.686Z</time></trkpt><trkpt lat="45.5454351" lon="10.4972415"><ele>252.6</ele><time>2026-03-29T07:11:58.68Z</time></trkpt><trkpt lat="45.5455355" lon="10.4973422"><ele>253.2</ele><time>2026-03-29T07:11:59.678Z</time></trkpt><trkpt lat="45.5456153" lon="10.497442"><ele>253.8</ele><time>2026-03-29T07:12:00.675Z</time></trkpt><trkpt lat="45.5456829" lon="10.4975439"><ele>254.4</ele><time>2026-03-29T07:12:01.667Z</time></trkpt><trkpt lat="45.5457402" lon="10.4976541"><ele>255.0</ele><time>2026-03-29T07:12:02.668Z</time></trkpt><trkpt lat="45.5457829" lon="10.4977737"><ele>255.0</ele><time>2026-03-29T07:12:03.666Z</time></trkpt><trkpt lat="45.5458304" lon="10.4978649"><ele>255.0</ele><time>2026-03-29T07:12:04.67Z</time></trkpt><trkpt lat="45.545889" lon="10.4979486"><ele>255.0</ele><time>2026-03-29T07:12:05.668Z</time></trkpt><trkpt lat="45.545941" lon="10.4980153"><ele>255.0</ele><time>2026-03-29T07:12:06.671Z</time></trkpt><trkpt lat="45.5459839" lon="10.4980811"><ele>255.0</ele><time>2026-03-29T07:12:07.673Z</time></trkpt><trkpt lat="45.5460555" lon="10.4981795"><ele>255.0</ele><time>2026-03-29T07:12:09.676Z</time></trkpt><trkpt lat="45.5461114" lon="10.4982222"><ele>255.0</ele><time>2026-03-29T07:12:12.69Z</time></trkpt><trkpt lat="45.5461697" lon="10.4981868"><ele>255.0</ele><time>2026-03-29T07:12:15.69Z</time></trkpt><trkpt lat="45.546186" lon="10.4980891"><ele>255.0</ele><time>2026-03-29T07:12:17.69Z</time></trkpt><trkpt lat="45.546156" lon="10.4980041"><ele>255.0</ele><time>2026-03-29T07:12:18.703Z</time></trkpt><trkpt lat="45.5461136" lon="10.4979023"><ele>255.0</ele><time>2026-03-29T07:12:19.671Z</time></trkpt><trkpt lat="45.5460671" lon="10.4977789"><ele>255.0</ele><time>2026-03-29T07:12:20.669Z</time></trkpt><trkpt lat="45.5460188" lon="10.4976488"><ele>255.0</ele><time>2026-03-29T07:12:21.664Z</time></trkpt><trkpt lat="45.5459599" lon="10.4974992"><ele>255.0</ele><time>2026-03-29T07:12:22.662Z</time></trkpt><trkpt lat="45.5459032" lon="10.4973346"><ele>255.0</ele><time>2026-03-29T07:12:23.666Z</time></trkpt><trkpt lat="45.5458472" lon="10.4971747"><ele>255.0</ele><time>2026-03-29T07:12:24.67Z</time></trkpt><trkpt lat="45.5457856" lon="10.4970306"><ele>255.33333333333334</ele><time>2026-03-29T07:12:25.672Z</time></trkpt><trkpt lat="45.5457447" lon="10.4968939"><ele>255.66666666666669</ele><time>2026-03-29T07:12:26.669Z</time></trkpt><trkpt lat="45.5456926" lon="10.4967879"><ele>256.0</ele><time>2026-03-29T07:12:27.673Z</time></trkpt><trkpt lat="45.5456553" lon="10.4966841"><ele>256.33333333333337</ele><time>2026-03-29T07:12:28.674Z</time></trkpt><trkpt lat="45.5456333" lon="10.4965932"><ele>256.6666666666667</ele><time>2026-03-29T07:12:29.668Z</time></trkpt><trkpt lat="45.5456276" lon="10.4964922"><ele>257.0</ele><time>2026-03-29T07:12:31.684Z</time></trkpt><trkpt lat="45.5456822" lon="10.4963898"><ele>257.0</ele><time>2026-03-29T07:12:35.69Z</time></trkpt><trkpt lat="45.5458168" lon="10.4963856"><ele>257.0</ele><time>2026-03-29T07:12:37.68Z</time></trkpt><trkpt lat="45.5459054" lon="10.4963904"><ele>257.0</ele><time>2026-03-29T07:12:38.674Z</time></trkpt><trkpt lat="45.5460166" lon="10.4964113"><ele>257.0</ele><time>2026-03-29T07:12:39.673Z</time></trkpt><trkpt lat="45.5461323" lon="10.496422"><ele>257.33333333333337</ele><time>2026-03-29T07:12:40.686Z</time></trkpt><trkpt lat="45.5462466" lon="10.4964262"><ele>257.6666666666667</ele><time>2026-03-29T07:12:41.687Z</time></trkpt><trkpt lat="45.5463408" lon="10.4964252"><ele>258.0</ele><time>2026-03-29T07:12:42.683Z</time></trkpt><trkpt lat="45.5464226" lon="10.496428"><ele>258.3333333333333</ele><time>2026-03-29T07:12:43.695Z</time></trkpt><trkpt lat="45.5465016" lon="10.4964064"><ele>258.66666666666663</ele><time>2026-03-29T07:12:44.673Z</time></trkpt><trkpt lat="45.5465631" lon="10.4963785"><ele>259.0</ele><time>2026-03-29T07:12:45.671Z</time></trkpt><trkpt lat="45.5466283" lon="10.4963424"><ele>259.0</ele><time>2026-03-29T07:12:46.663Z</time></trkpt><trkpt lat="45.5466929" lon="10.4962756"><ele>259.0</ele><time>2026-03-29T07:12:47.678Z</time></trkpt><trkpt lat="45.5467593" lon="10.4961719"><ele>259.0</ele><time>2026-03-29T07:12:48.678Z</time></trkpt><trkpt lat="45.5467975" lon="10.4960521"><ele>259.0</ele><time>2026-03-29T07:12:49.703Z</time></trkpt><trkpt lat="45.5468451" lon="10.4959405"><ele>259.0</ele><time>2026-03-29T07:12:50.699Z</time></trkpt><trkpt lat="45.5468805" lon="10.4958207"><ele>258.5</ele><time>2026-03-29T07:12:51.692Z</time></trkpt><trkpt lat="45.5469232" lon="10.4957056"><ele>258.0</ele><time>2026-03-29T07:12:52.69Z</time></trkpt><trkpt lat="45.5469504" lon="10.4955958"><ele>257.5</ele><time>2026-03-29T07:12:53.691Z</time></trkpt><trkpt lat="45.5469489" lon="10.4954912"><ele>257.0</ele><time>2026-03-29T07:12:54.69Z</time></trkpt><trkpt lat="45.5469245" lon="10.4953201"><ele>256.5</ele><time>2026-03-29T07:12:56.684Z</time></trkpt><trkpt lat="45.5468822" lon="10.4952422"><ele>256.0</ele><time>2026-03-29T07:12:57.699Z</time></trkpt><trkpt lat="45.546824" lon="10.4951553"><ele>255.60000000000002</ele><time>2026-03-29T07:12:58.686Z</time></trkpt><trkpt lat="45.546757" lon="10.4950643"><ele>255.20000000000002</ele><time>2026-03-29T07:12:59.702Z</time></trkpt><trkpt lat="45.546678" lon="10.4949529"><ele>254.79999999999998</ele><time>2026-03-29T07:13:00.701Z</time></trkpt><trkpt lat="45.5466142" lon="10.4948355"><ele>254.39999999999998</ele><time>2026-03-29T07:13:02.77Z</time></trkpt><trkpt lat="45.5465634" lon="10.4947208"><ele>254.0</ele><time>2026-03-29T07:13:03.768Z</time></trkpt><trkpt lat="45.5465263" lon="10.4946075"><ele>253.0</ele><time>2026-03-29T07:13:04.745Z</time></trkpt><trkpt lat="45.5465115" lon="10.4945073"><ele>252.0</ele><time>2026-03-29T07:13:05.75Z</time></trkpt><trkpt lat="45.5465174" lon="10.4943965"><ele>251.0</ele><time>2026-03-29T07:13:06.749Z</time></trkpt><trkpt lat="45.5466082" lon="10.4940836"><ele>250.0</ele><time>2026-03-29T07:13:07.678Z</time></trkpt><trkpt lat="45.5466618" lon="10.4939389"><ele>250.0</ele><time>2026-03-29T07:13:08.689Z</time></trkpt><trkpt lat="45.5467076" lon="10.4937964"><ele>250.0</ele><time>2026-03-29T07:13:09.693Z</time></trkpt><trkpt lat="45.5467426" lon="10.4936576"><ele>250.0</ele><time>2026-03-29T07:13:10.691Z</time></trkpt><trkpt lat="45.5467922" lon="10.4935115"><ele>250.0</ele><time>2026-03-29T07:13:11.69Z</time></trkpt><trkpt lat="45.5468507" lon="10.4933597"><ele>250.0</ele><time>2026-03-29T07:13:12.684Z</time></trkpt><trkpt lat="45.5469277" lon="10.4932071"><ele>250.0</ele><time>2026-03-29T07:13:13.687Z</time></trkpt><trkpt lat="45.5470088" lon="10.4930816"><ele>250.0</ele><time>2026-03-29T07:13:14.683Z</time></trkpt><trkpt lat="45.5470888" lon="10.4929763"><ele>250.0</ele><time>2026-03-29T07:13:15.69Z</time></trkpt><trkpt lat="45.5471552" lon="10.4928879"><ele>250.0</ele><time>2026-03-29T07:13:16.69Z</time></trkpt><trkpt lat="45.5472168" lon="10.4927992"><ele>250.0</ele><time>2026-03-29T07:13:17.69Z</time></trkpt><trkpt lat="45.547268" lon="10.4926844"><ele>250.2</ele><time>2026-03-29T07:13:18.689Z</time></trkpt><trkpt lat="45.5473048" lon="10.4925571"><ele>250.4</ele><time>2026-03-29T07:13:19.692Z</time></trkpt><trkpt lat="45.5473439" lon="10.492404"><ele>250.60000000000002</ele><time>2026-03-29T07:13:20.706Z</time></trkpt><trkpt lat="45.5473805" lon="10.4922556"><ele>250.8</ele><time>2026-03-29T07:13:21.689Z</time></trkpt><trkpt lat="45.5474095" lon="10.492138"><ele>251.0</ele><time>2026-03-29T07:13:22.678Z</time></trkpt><trkpt lat="45.5474424" lon="10.492032"><ele>251.00000000000003</ele><time>2026-03-29T07:13:23.685Z</time></trkpt><trkpt lat="45.5474666" lon="10.4919211"><ele>251.0</ele><time>2026-03-29T07:13:24.681Z</time></trkpt><trkpt lat="45.547476" lon="10.4918198"><ele>251.0</ele><time>2026-03-29T07:13:25.696Z</time></trkpt><trkpt lat="45.5474851" lon="10.4917185"><ele>251.0</ele><time>2026-03-29T07:13:26.681Z</time></trkpt><trkpt lat="45.5475066" lon="10.4916039"><ele>251.00000000000003</ele><time>2026-03-29T07:13:27.689Z</time></trkpt><trkpt lat="45.5475401" lon="10.4914902"><ele>251.0</ele><time>2026-03-29T07:13:28.683Z</time></trkpt><trkpt lat="45.5475825" lon="10.4913921"><ele>251.0</ele><time>2026-03-29T07:13:29.688Z</time></trkpt><trkpt lat="45.5476295" lon="10.4912927"><ele>251.00000000000003</ele><time>2026-03-29T07:13:30.688Z</time></trkpt><trkpt lat="45.5476921" lon="10.4911918"><ele>251.00000000000003</ele><time>2026-03-29T07:13:31.691Z</time></trkpt><trkpt lat="45.5477647" lon="10.4910902"><ele>251.0</ele><time>2026-03-29T07:13:32.694Z</time></trkpt><trkpt lat="45.5478324" lon="10.4909854"><ele>251.0</ele><time>2026-03-29T07:13:33.69Z</time></trkpt><trkpt lat="45.5478932" lon="10.490901"><ele>250.8</ele><time>2026-03-29T07:13:34.699Z</time></trkpt><trkpt lat="45.5479522" lon="10.4908184"><ele>250.60000000000002</ele><time>2026-03-29T07:13:35.694Z</time></trkpt><trkpt lat="45.5480099" lon="10.4907177"><ele>250.4</ele><time>2026-03-29T07:13:36.687Z</time></trkpt><trkpt lat="45.548063" lon="10.4905941"><ele>250.2</ele><time>2026-03-29T07:13:37.687Z</time></trkpt><trkpt lat="45.5480885" lon="10.4904668"><ele>250.0</ele><time>2026-03-29T07:13:38.692Z</time></trkpt><trkpt lat="45.5481073" lon="10.490346"><ele>249.99999999999997</ele><time>2026-03-29T07:13:39.693Z</time></trkpt><trkpt lat="45.5481345" lon="10.4902257"><ele>250.0</ele><time>2026-03-29T07:13:40.692Z</time></trkpt><trkpt lat="45.5481721" lon="10.4901074"><ele>250.0</ele><time>2026-03-29T07:13:41.692Z</time></trkpt><trkpt lat="45.5481963" lon="10.4899986"><ele>250.0</ele><time>2026-03-29T07:13:42.7Z</time></trkpt><trkpt lat="45.5482236" lon="10.4898918"><ele>249.99999999999997</ele><time>2026-03-29T07:13:43.691Z</time></trkpt><trkpt lat="45.5482584" lon="10.489795"><ele>250.0</ele><time>2026-03-29T07:13:44.688Z</time></trkpt><trkpt lat="45.5482926" lon="10.4897047"><ele>250.0</ele><time>2026-03-29T07:13:45.692Z</time></trkpt><trkpt lat="45.5483379" lon="10.4896078"><ele>250.0</ele><time>2026-03-29T07:13:46.691Z</time></trkpt><trkpt lat="45.548394" lon="10.4895349"><ele>250.0</ele><time>2026-03-29T07:13:47.7Z</time></trkpt><trkpt lat="45.5484615" lon="10.4894538"><ele>250.0</ele><time>2026-03-29T07:13:48.693Z</time></trkpt><trkpt lat="45.5485552" lon="10.4893641"><ele>250.0</ele><time>2026-03-29T07:13:49.694Z</time></trkpt><trkpt lat="45.5486489" lon="10.4892795"><ele>250.0</ele><time>2026-03-29T07:13:50.688Z</time></trkpt><trkpt lat="45.5487345" lon="10.4891985"><ele>250.0</ele><time>2026-03-29T07:13:51.706Z</time></trkpt><trkpt lat="45.5487962" lon="10.4891079"><ele>250.0</ele><time>2026-03-29T07:13:52.678Z</time></trkpt><trkpt lat="45.5488418" lon="10.4889908"><ele>250.0</ele><time>2026-03-29T07:13:53.69Z</time></trkpt><trkpt lat="45.5488784" lon="10.4888512"><ele>250.0</ele><time>2026-03-29T07:13:54.687Z</time></trkpt><trkpt lat="45.5489205" lon="10.4887052"><ele>249.75</ele><time>2026-03-29T07:13:55.689Z</time></trkpt><trkpt lat="45.5489628" lon="10.4885487"><ele>249.5</ele><time>2026-03-29T07:13:56.689Z</time></trkpt><trkpt lat="45.5489961" lon="10.4883913"><ele>249.25</ele><time>2026-03-29T07:13:57.685Z</time></trkpt><trkpt lat="45.5490264" lon="10.4882243"><ele>249.0</ele><time>2026-03-29T07:13:58.697Z</time></trkpt><trkpt lat="45.5490521" lon="10.4880533"><ele>249.0</ele><time>2026-03-29T07:13:59.69Z</time></trkpt><trkpt lat="45.5490673" lon="10.4878934"><ele>248.99999999999997</ele><time>2026-03-29T07:14:00.691Z</time></trkpt><trkpt lat="45.5490778" lon="10.4877463"><ele>248.99999999999997</ele><time>2026-03-29T07:14:01.692Z</time></trkpt><trkpt lat="45.5490873" lon="10.487629"><ele>249.0</ele><time>2026-03-29T07:14:02.69Z</time></trkpt><trkpt lat="45.5491046" lon="10.4875239"><ele>249.0</ele><time>2026-03-29T07:14:03.695Z</time></trkpt><trkpt lat="45.5491183" lon="10.4874109"><ele>249.0</ele><time>2026-03-29T07:14:04.691Z</time></trkpt><trkpt lat="45.5491291" lon="10.487279"><ele>249.0</ele><time>2026-03-29T07:14:05.699Z</time></trkpt><trkpt lat="45.5491447" lon="10.4871647"><ele>249.0</ele><time>2026-03-29T07:14:06.69Z</time></trkpt><trkpt lat="45.5491601" lon="10.4870595"><ele>249.0</ele><time>2026-03-29T07:14:07.692Z</time></trkpt><trkpt lat="45.5491773" lon="10.4869526"><ele>249.0</ele><time>2026-03-29T07:14:08.691Z</time></trkpt><trkpt lat="45.5491995" lon="10.4868502"><ele>249.0</ele><time>2026-03-29T07:14:09.692Z</time></trkpt><trkpt lat="45.5492292" lon="10.4867631"><ele>249.16666666666666</ele><time>2026-03-29T07:14:10.696Z</time></trkpt><trkpt lat="45.5492651" lon="10.4866651"><ele>249.33333333333331</ele><time>2026-03-29T07:14:11.689Z</time></trkpt><trkpt lat="45.5492994" lon="10.4865651"><ele>249.5</ele><time>2026-03-29T07:14:12.698Z</time></trkpt><trkpt lat="45.5493504" lon="10.4864849"><ele>249.66666666666666</ele><time>2026-03-29T07:14:13.688Z</time></trkpt><trkpt lat="45.5494135" lon="10.486414"><ele>249.83333333333331</ele><time>2026-03-29T07:14:14.69Z</time></trkpt><trkpt lat="45.5494735" lon="10.4863453"><ele>250.0</ele><time>2026-03-29T07:14:15.687Z</time></trkpt><trkpt lat="45.5495299" lon="10.4862905"><ele>249.75</ele><time>2026-03-29T07:14:16.679Z</time></trkpt><trkpt lat="45.5496206" lon="10.4861894"><ele>249.5</ele><time>2026-03-29T07:14:18.684Z</time></trkpt><trkpt lat="45.5496553" lon="10.4860505"><ele>249.25</ele><time>2026-03-29T07:14:20.669Z</time></trkpt><trkpt lat="45.5495701" lon="10.4858823"><ele>249.0</ele><time>2026-03-29T07:14:22.692Z</time></trkpt><trkpt lat="45.549495" lon="10.4857766"><ele>250.39999999999998</ele><time>2026-03-29T07:14:23.678Z</time></trkpt><trkpt lat="45.5494079" lon="10.4856712"><ele>251.79999999999998</ele><time>2026-03-29T07:14:24.682Z</time></trkpt><trkpt lat="45.5493358" lon="10.4855853"><ele>253.20000000000002</ele><time>2026-03-29T07:14:25.678Z</time></trkpt><trkpt lat="45.5492768" lon="10.4854821"><ele>254.60000000000002</ele><time>2026-03-29T07:14:27.671Z</time></trkpt><trkpt lat="45.5492954" lon="10.4853855"><ele>256.0</ele><time>2026-03-29T07:14:29.672Z</time></trkpt><trkpt lat="45.5493843" lon="10.4852208"><ele>255.33333333333331</ele><time>2026-03-29T07:14:31.681Z</time></trkpt><trkpt lat="45.5494307" lon="10.485152"><ele>254.66666666666666</ele><time>2026-03-29T07:14:32.679Z</time></trkpt><trkpt lat="45.5494815" lon="10.485094"><ele>254.0</ele><time>2026-03-29T07:14:33.679Z</time></trkpt><trkpt lat="45.5495712" lon="10.4849906"><ele>253.33333333333331</ele><time>2026-03-29T07:14:35.68Z</time></trkpt><trkpt lat="45.5496291" lon="10.4849329"><ele>252.66666666666666</ele><time>2026-03-29T07:14:36.68Z</time></trkpt><trkpt lat="45.5496963" lon="10.4848694"><ele>252.0</ele><time>2026-03-29T07:14:37.686Z</time></trkpt><trkpt lat="45.5497871" lon="10.4847967"><ele>252.0</ele><time>2026-03-29T07:14:38.674Z</time></trkpt><trkpt lat="45.5498769" lon="10.484699"><ele>252.0</ele><time>2026-03-29T07:14:39.684Z</time></trkpt><trkpt lat="45.5499682" lon="10.4845871"><ele>252.0</ele><time>2026-03-29T07:14:40.68Z</time></trkpt><trkpt lat="45.5500708" lon="10.4844697"><ele>252.0</ele><time>2026-03-29T07:14:41.681Z</time></trkpt><trkpt lat="45.5501844" lon="10.4843617"><ele>253.25</ele><time>2026-03-29T07:14:42.672Z</time></trkpt><trkpt lat="45.5503038" lon="10.4842665"><ele>254.5</ele><time>2026-03-29T07:14:43.674Z</time></trkpt><trkpt lat="45.5504317" lon="10.4841913"><ele>255.75</ele><time>2026-03-29T07:14:44.685Z</time></trkpt><trkpt lat="45.5505431" lon="10.4841299"><ele>257.0</ele><time>2026-03-29T07:14:45.677Z</time></trkpt><trkpt lat="45.5506399" lon="10.4840792"><ele>257.0</ele><time>2026-03-29T07:14:46.689Z</time></trkpt><trkpt lat="45.5507279" lon="10.4840502"><ele>257.0</ele><time>2026-03-29T07:14:47.683Z</time></trkpt><trkpt lat="45.550813" lon="10.4840395"><ele>257.0</ele><time>2026-03-29T07:14:48.678Z</time></trkpt><trkpt lat="45.5509093" lon="10.4840712"><ele>257.0</ele><time>2026-03-29T07:14:49.684Z</time></trkpt><trkpt lat="45.5510273" lon="10.4841518"><ele>257.0</ele><time>2026-03-29T07:14:50.677Z</time></trkpt><trkpt lat="45.5511511" lon="10.4842389"><ele>259.0</ele><time>2026-03-29T07:14:51.684Z</time></trkpt><trkpt lat="45.5512879" lon="10.484321"><ele>261.0</ele><time>2026-03-29T07:14:52.681Z</time></trkpt><trkpt lat="45.5514326" lon="10.4843753"><ele>263.0</ele><time>2026-03-29T07:14:53.699Z</time></trkpt><trkpt lat="45.5515658" lon="10.4844188"><ele>265.0</ele><time>2026-03-29T07:14:54.684Z</time></trkpt><trkpt lat="45.5516964" lon="10.4844603"><ele>265.0</ele><time>2026-03-29T07:14:55.689Z</time></trkpt><trkpt lat="45.5518322" lon="10.4845255"><ele>265.0</ele><time>2026-03-29T07:14:56.679Z</time></trkpt><trkpt lat="45.5519562" lon="10.4845941"><ele>265.0</ele><time>2026-03-29T07:14:57.682Z</time></trkpt><trkpt lat="45.5520593" lon="10.4846779"><ele>265.0</ele><time>2026-03-29T07:14:58.683Z</time></trkpt><trkpt lat="45.5521704" lon="10.4847507"><ele>264.4</ele><time>2026-03-29T07:14:59.683Z</time></trkpt><trkpt lat="45.5522691" lon="10.4848026"><ele>263.8</ele><time>2026-03-29T07:15:00.678Z</time></trkpt><trkpt lat="45.5523644" lon="10.4848589"><ele>263.2</ele><time>2026-03-29T07:15:01.666Z</time></trkpt><trkpt lat="45.5524499" lon="10.4849137"><ele>262.6</ele><time>2026-03-29T07:15:02.654Z</time></trkpt><trkpt lat="45.5525295" lon="10.4849583"><ele>262.0</ele><time>2026-03-29T07:15:03.646Z</time></trkpt><trkpt lat="45.5525929" lon="10.4849922"><ele>262.0</ele><time>2026-03-29T07:15:04.644Z</time></trkpt><trkpt lat="45.5526683" lon="10.4850103"><ele>262.0</ele><time>2026-03-29T07:15:06.648Z</time></trkpt><trkpt lat="45.5527283" lon="10.4849593"><ele>262.0</ele><time>2026-03-29T07:15:09.67Z</time></trkpt><trkpt lat="45.5527717" lon="10.484863"><ele>262.0</ele><time>2026-03-29T07:15:13.672Z</time></trkpt><trkpt lat="45.5527738" lon="10.4847346"><ele>262.0</ele><time>2026-03-29T07:15:16.667Z</time></trkpt><trkpt lat="45.5527027" lon="10.4846605"><ele>262.0</ele><time>2026-03-29T07:15:18.651Z</time></trkpt><trkpt lat="45.5526207" lon="10.4846525"><ele>262.0</ele><time>2026-03-29T07:15:19.653Z</time></trkpt><trkpt lat="45.5525413" lon="10.4846334"><ele>262.0</ele><time>2026-03-29T07:15:20.649Z</time></trkpt><trkpt lat="45.5524598" lon="10.4846128"><ele>262.0</ele><time>2026-03-29T07:15:21.654Z</time></trkpt><trkpt lat="45.5523801" lon="10.4845724"><ele>262.0</ele><time>2026-03-29T07:15:22.649Z</time></trkpt><trkpt lat="45.5523085" lon="10.4845436"><ele>262.0</ele><time>2026-03-29T07:15:23.645Z</time></trkpt><trkpt lat="45.5522383" lon="10.4844949"><ele>262.0</ele><time>2026-03-29T07:15:24.683Z</time></trkpt><trkpt lat="45.55217" lon="10.484434"><ele>262.5</ele><time>2026-03-29T07:15:25.645Z</time></trkpt><trkpt lat="45.5521092" lon="10.4843479"><ele>263.0</ele><time>2026-03-29T07:15:26.658Z</time></trkpt><trkpt lat="45.5520391" lon="10.4842506"><ele>263.5</ele><time>2026-03-29T07:15:27.649Z</time></trkpt><trkpt lat="45.5519826" lon="10.4841505"><ele>264.0</ele><time>2026-03-29T07:15:28.649Z</time></trkpt><trkpt lat="45.5519283" lon="10.4840684"><ele>264.5</ele><time>2026-03-29T07:15:29.647Z</time></trkpt><trkpt lat="45.5518784" lon="10.4839807"><ele>265.0</ele><time>2026-03-29T07:15:30.649Z</time></trkpt><trkpt lat="45.5518342" lon="10.4839097"><ele>265.0</ele><time>2026-03-29T07:15:31.647Z</time></trkpt><trkpt lat="45.5517919" lon="10.4838405"><ele>265.0</ele><time>2026-03-29T07:15:32.644Z</time></trkpt><trkpt lat="45.5517386" lon="10.4837761"><ele>265.0</ele><time>2026-03-29T07:15:33.641Z</time></trkpt><trkpt lat="45.5516969" lon="10.4836789"><ele>265.0</ele><time>2026-03-29T07:15:34.641Z</time></trkpt><trkpt lat="45.5516535" lon="10.4835737"><ele>265.0</ele><time>2026-03-29T07:15:35.65Z</time></trkpt><trkpt lat="45.5516081" lon="10.4834594"><ele>265.0</ele><time>2026-03-29T07:15:36.657Z</time></trkpt><trkpt lat="45.5515747" lon="10.4833597"><ele>266.2</ele><time>2026-03-29T07:15:37.66Z</time></trkpt><trkpt lat="45.5515442" lon="10.4832594"><ele>267.4</ele><time>2026-03-29T07:15:38.66Z</time></trkpt><trkpt lat="45.5515047" lon="10.4831504"><ele>268.6</ele><time>2026-03-29T07:15:39.658Z</time></trkpt><trkpt lat="45.5514549" lon="10.4830209"><ele>269.8</ele><time>2026-03-29T07:15:40.662Z</time></trkpt><trkpt lat="45.5514016" lon="10.4828871"><ele>271.0</ele><time>2026-03-29T07:15:41.673Z</time></trkpt><trkpt lat="45.5513636" lon="10.4827499"><ele>271.40000000000003</ele><time>2026-03-29T07:15:42.668Z</time></trkpt><trkpt lat="45.5513345" lon="10.4826318"><ele>271.8</ele><time>2026-03-29T07:15:43.669Z</time></trkpt><trkpt lat="45.5512944" lon="10.4825334"><ele>272.20000000000005</ele><time>2026-03-29T07:15:44.666Z</time></trkpt><trkpt lat="45.5512453" lon="10.4824333"><ele>272.6</ele><time>2026-03-29T07:15:45.663Z</time></trkpt><trkpt lat="45.5511877" lon="10.4823218"><ele>273.0</ele><time>2026-03-29T07:15:46.673Z</time></trkpt><trkpt lat="45.5511194" lon="10.4821964"><ele>272.4</ele><time>2026-03-29T07:15:47.669Z</time></trkpt><trkpt lat="45.5510443" lon="10.4820812"><ele>271.8</ele><time>2026-03-29T07:15:48.669Z</time></trkpt><trkpt lat="45.550965" lon="10.4819725"><ele>271.2</ele><time>2026-03-29T07:15:49.674Z</time></trkpt><trkpt lat="45.550878" lon="10.4818807"><ele>270.6</ele><time>2026-03-29T07:15:50.673Z</time></trkpt><trkpt lat="45.5507835" lon="10.4817915"><ele>270.0</ele><time>2026-03-29T07:15:51.668Z</time></trkpt><trkpt lat="45.5506941" lon="10.4817101"><ele>270.0</ele><time>2026-03-29T07:15:52.668Z</time></trkpt><trkpt lat="45.5506049" lon="10.4816339"><ele>270.0</ele><time>2026-03-29T07:15:53.668Z</time></trkpt><trkpt lat="45.5505218" lon="10.4815638"><ele>270.0</ele><time>2026-03-29T07:15:54.689Z</time></trkpt><trkpt lat="45.5504348" lon="10.4814892"><ele>270.0</ele><time>2026-03-29T07:15:55.667Z</time></trkpt><trkpt lat="45.5503381" lon="10.4813941"><ele>270.0</ele><time>2026-03-29T07:15:56.677Z</time></trkpt><trkpt lat="45.5502396" lon="10.4812899"><ele>270.0</ele><time>2026-03-29T07:15:57.67Z</time></trkpt><trkpt lat="45.5501419" lon="10.4811876"><ele>270.0</ele><time>2026-03-29T07:15:58.668Z</time></trkpt><trkpt lat="45.5500264" lon="10.4810895"><ele>270.0</ele><time>2026-03-29T07:15:59.688Z</time></trkpt><trkpt lat="45.5499144" lon="10.4810041"><ele>270.0</ele><time>2026-03-29T07:16:01.745Z</time></trkpt><trkpt lat="45.5497988" lon="10.4809373"><ele>270.0</ele><time>2026-03-29T07:16:02.759Z</time></trkpt><trkpt lat="45.5495703" lon="10.4808539"><ele>270.0</ele><time>2026-03-29T07:16:03.664Z</time></trkpt><trkpt lat="45.549472" lon="10.4808095"><ele>270.0</ele><time>2026-03-29T07:16:04.671Z</time></trkpt><trkpt lat="45.5493695" lon="10.4807676"><ele>270.0</ele><time>2026-03-29T07:16:05.66Z</time></trkpt><trkpt lat="45.5492776" lon="10.4807276"><ele>270.2</ele><time>2026-03-29T07:16:06.659Z</time></trkpt><trkpt lat="45.5491978" lon="10.4807008"><ele>270.4</ele><time>2026-03-29T07:16:07.663Z</time></trkpt><trkpt lat="45.549073" lon="10.4806478"><ele>270.6</ele><time>2026-03-29T07:16:09.67Z</time></trkpt><trkpt lat="45.5489764" lon="10.4805929"><ele>270.8</ele><time>2026-03-29T07:16:11.666Z</time></trkpt><trkpt lat="45.548949" lon="10.4804488"><ele>271.0</ele><time>2026-03-29T07:16:13.663Z</time></trkpt><trkpt lat="45.5489569" lon="10.4803403"><ele>271.0</ele><time>2026-03-29T07:16:14.674Z</time></trkpt><trkpt lat="45.548949" lon="10.4802129"><ele>271.0</ele><time>2026-03-29T07:16:15.665Z</time></trkpt><trkpt lat="45.548919" lon="10.4800905"><ele>271.0</ele><time>2026-03-29T07:16:16.659Z</time></trkpt><trkpt lat="45.5488695" lon="10.4799797"><ele>271.0</ele><time>2026-03-29T07:16:17.662Z</time></trkpt><trkpt lat="45.5488052" lon="10.4798745"><ele>271.0</ele><time>2026-03-29T07:16:18.66Z</time></trkpt><trkpt lat="45.5487377" lon="10.4797626"><ele>270.0</ele><time>2026-03-29T07:16:19.663Z</time></trkpt><trkpt lat="45.5486717" lon="10.4796282"><ele>269.0</ele><time>2026-03-29T07:16:20.655Z</time></trkpt><trkpt lat="45.5486015" lon="10.4794801"><ele>268.0</ele><time>2026-03-29T07:16:21.658Z</time></trkpt><trkpt lat="45.548528" lon="10.4793017"><ele>267.0</ele><time>2026-03-29T07:16:22.653Z</time></trkpt><trkpt lat="45.5484717" lon="10.479107"><ele>267.0</ele><time>2026-03-29T07:16:23.662Z</time></trkpt><trkpt lat="45.5484393" lon="10.4789214"><ele>267.0</ele><time>2026-03-29T07:16:24.671Z</time></trkpt><trkpt lat="45.5483999" lon="10.4787672"><ele>267.0</ele><time>2026-03-29T07:16:25.684Z</time></trkpt><trkpt lat="45.548356" lon="10.4785814"><ele>267.0</ele><time>2026-03-29T07:16:26.667Z</time></trkpt><trkpt lat="45.5482844" lon="10.478414"><ele>267.25</ele><time>2026-03-29T07:16:27.677Z</time></trkpt><trkpt lat="45.5482191" lon="10.4782657"><ele>267.5</ele><time>2026-03-29T07:16:28.666Z</time></trkpt><trkpt lat="45.54813" lon="10.4781118"><ele>267.75</ele><time>2026-03-29T07:16:29.671Z</time></trkpt><trkpt lat="45.5480515" lon="10.477964"><ele>268.0</ele><time>2026-03-29T07:16:30.672Z</time></trkpt><trkpt lat="45.5479697" lon="10.4777983"><ele>269.0</ele><time>2026-03-29T07:16:31.668Z</time></trkpt><trkpt lat="45.5478841" lon="10.4776128"><ele>270.0</ele><time>2026-03-29T07:16:32.669Z</time></trkpt><trkpt lat="45.5478155" lon="10.4774322"><ele>271.0</ele><time>2026-03-29T07:16:33.671Z</time></trkpt><trkpt lat="45.5477408" lon="10.4772376"><ele>273.5</ele><time>2026-03-29T07:16:34.668Z</time></trkpt><trkpt lat="45.5476744" lon="10.4770566"><ele>276.0</ele><time>2026-03-29T07:16:35.673Z</time></trkpt><trkpt lat="45.5476249" lon="10.4768902"><ele>278.5</ele><time>2026-03-29T07:16:36.665Z</time></trkpt><trkpt lat="45.5475894" lon="10.4767461"><ele>281.0</ele><time>2026-03-29T07:16:37.654Z</time></trkpt><trkpt lat="45.5475356" lon="10.4766298"><ele>281.0</ele><time>2026-03-29T07:16:38.657Z</time></trkpt><trkpt lat="45.5474729" lon="10.4765345"><ele>281.0</ele><time>2026-03-29T07:16:39.655Z</time></trkpt><trkpt lat="45.5474026" lon="10.4764627"><ele>281.0</ele><time>2026-03-29T07:16:40.657Z</time></trkpt><trkpt lat="45.5473238" lon="10.4763812"><ele>281.0</ele><time>2026-03-29T07:16:41.653Z</time></trkpt><trkpt lat="45.5472501" lon="10.4762837"><ele>281.0</ele><time>2026-03-29T07:16:42.656Z</time></trkpt><trkpt lat="45.5471734" lon="10.4761604"><ele>282.25</ele><time>2026-03-29T07:16:43.644Z</time></trkpt><trkpt lat="45.5470933" lon="10.4760221"><ele>283.5</ele><time>2026-03-29T07:16:44.642Z</time></trkpt><trkpt lat="45.5470128" lon="10.4758824"><ele>284.75</ele><time>2026-03-29T07:16:45.636Z</time></trkpt><trkpt lat="45.5469476" lon="10.4757415"><ele>286.0</ele><time>2026-03-29T07:16:46.651Z</time></trkpt><trkpt lat="45.5468961" lon="10.4755948"><ele>285.8</ele><time>2026-03-29T07:16:47.653Z</time></trkpt><trkpt lat="45.5468408" lon="10.4754565"><ele>285.6</ele><time>2026-03-29T07:16:48.651Z</time></trkpt><trkpt lat="45.5467778" lon="10.4753282"><ele>285.4</ele><time>2026-03-29T07:16:49.642Z</time></trkpt><trkpt lat="45.5467062" lon="10.4752027"><ele>285.2</ele><time>2026-03-29T07:16:50.633Z</time></trkpt><trkpt lat="45.5466325" lon="10.4750971"><ele>285.0</ele><time>2026-03-29T07:16:51.633Z</time></trkpt><trkpt lat="45.546535" lon="10.4750184"><ele>285.0</ele><time>2026-03-29T07:16:52.631Z</time></trkpt><trkpt lat="45.5464487" lon="10.4749453"><ele>285.0</ele><time>2026-03-29T07:16:53.623Z</time></trkpt><trkpt lat="45.5463973" lon="10.4748738"><ele>285.0</ele><time>2026-03-29T07:16:54.631Z</time></trkpt><trkpt lat="45.5463188" lon="10.4747397"><ele>285.0</ele><time>2026-03-29T07:16:56.662Z</time></trkpt><trkpt lat="45.5462518" lon="10.4746637"><ele>285.0</ele><time>2026-03-29T07:16:58.645Z</time></trkpt><trkpt lat="45.5461896" lon="10.4745485"><ele>284.75</ele><time>2026-03-29T07:17:01.657Z</time></trkpt><trkpt lat="45.5462016" lon="10.4743846"><ele>284.5</ele><time>2026-03-29T07:17:03.649Z</time></trkpt><trkpt lat="45.5462448" lon="10.4742602"><ele>284.25</ele><time>2026-03-29T07:17:04.653Z</time></trkpt><trkpt lat="45.5462964" lon="10.474113"><ele>284.0</ele><time>2026-03-29T07:17:05.649Z</time></trkpt><trkpt lat="45.5463636" lon="10.4739477"><ele>284.0</ele><time>2026-03-29T07:17:06.65Z</time></trkpt><trkpt lat="45.5464359" lon="10.4737773"><ele>284.0</ele><time>2026-03-29T07:17:07.652Z</time></trkpt><trkpt lat="45.5465137" lon="10.4736104"><ele>284.0</ele><time>2026-03-29T07:17:08.651Z</time></trkpt><trkpt lat="45.5465827" lon="10.4734583"><ele>284.0</ele><time>2026-03-29T07:17:09.659Z</time></trkpt><trkpt lat="45.5466479" lon="10.4733301"><ele>282.5</ele><time>2026-03-29T07:17:10.658Z</time></trkpt><trkpt lat="45.546707" lon="10.4732069"><ele>281.0</ele><time>2026-03-29T07:17:11.661Z</time></trkpt><trkpt lat="45.5467516" lon="10.4731016"><ele>279.5</ele><time>2026-03-29T07:17:12.663Z</time></trkpt><trkpt lat="45.5468035" lon="10.4729982"><ele>278.0</ele><time>2026-03-29T07:17:13.663Z</time></trkpt><trkpt lat="45.5468402" lon="10.4728975"><ele>276.5</ele><time>2026-03-29T07:17:14.663Z</time></trkpt><trkpt lat="45.5468772" lon="10.4728092"><ele>275.0</ele><time>2026-03-29T07:17:15.666Z</time></trkpt><trkpt lat="45.5469018" lon="10.4727223"><ele>274.33333333333337</ele><time>2026-03-29T07:17:16.665Z</time></trkpt><trkpt lat="45.5469351" lon="10.472644"><ele>273.6666666666667</ele><time>2026-03-29T07:17:17.667Z</time></trkpt><trkpt lat="45.5469848" lon="10.4725768"><ele>273.0</ele><time>2026-03-29T07:17:18.665Z</time></trkpt><trkpt lat="45.5470422" lon="10.4725129"><ele>272.3333333333333</ele><time>2026-03-29T07:17:19.669Z</time></trkpt><trkpt lat="45.5471029" lon="10.4724509"><ele>271.66666666666663</ele><time>2026-03-29T07:17:20.677Z</time></trkpt><trkpt lat="45.5471615" lon="10.4724037"><ele>271.0</ele><time>2026-03-29T07:17:21.673Z</time></trkpt><trkpt lat="45.5472729" lon="10.4723643"><ele>271.0</ele><time>2026-03-29T07:17:23.676Z</time></trkpt><trkpt lat="45.5473947" lon="10.472452"><ele>271.0</ele><time>2026-03-29T07:17:25.68Z</time></trkpt><trkpt lat="45.5474681" lon="10.4725113"><ele>271.0</ele><time>2026-03-29T07:17:26.674Z</time></trkpt><trkpt lat="45.5475488" lon="10.4725765"><ele>271.0</ele><time>2026-03-29T07:17:27.694Z</time></trkpt><trkpt lat="45.5476358" lon="10.4726369"><ele>271.0</ele><time>2026-03-29T07:17:28.676Z</time></trkpt><trkpt lat="45.5477249" lon="10.4726955"><ele>271.0</ele><time>2026-03-29T07:17:29.678Z</time></trkpt><trkpt lat="45.5478099" lon="10.472748"><ele>271.0</ele><time>2026-03-29T07:17:30.682Z</time></trkpt><trkpt lat="45.5478912" lon="10.4728054"><ele>271.0</ele><time>2026-03-29T07:17:31.673Z</time></trkpt><trkpt lat="45.5479702" lon="10.4728545"><ele>271.0</ele><time>2026-03-29T07:17:32.675Z</time></trkpt><trkpt lat="45.548049" lon="10.4729104"><ele>271.0</ele><time>2026-03-29T07:17:33.666Z</time></trkpt><trkpt lat="45.5481225" lon="10.4729512"><ele>271.0</ele><time>2026-03-29T07:17:34.665Z</time></trkpt><trkpt lat="45.5481839" lon="10.4729915"><ele>273.2</ele><time>2026-03-29T07:17:35.665Z</time></trkpt><trkpt lat="45.5482514" lon="10.4730326"><ele>275.40000000000003</ele><time>2026-03-29T07:17:36.662Z</time></trkpt><trkpt lat="45.548338" lon="10.4730952"><ele>277.6</ele><time>2026-03-29T07:17:37.667Z</time></trkpt><trkpt lat="45.548435" lon="10.4731705"><ele>279.8</ele><time>2026-03-29T07:17:38.669Z</time></trkpt><trkpt lat="45.5485424" lon="10.4732597"><ele>282.0</ele><time>2026-03-29T07:17:39.669Z</time></trkpt><trkpt lat="45.5486487" lon="10.4733478"><ele>282.0</ele><time>2026-03-29T07:17:40.669Z</time></trkpt><trkpt lat="45.5487598" lon="10.4734432"><ele>282.0</ele><time>2026-03-29T07:17:41.67Z</time></trkpt><trkpt lat="45.5488629" lon="10.4735383"><ele>282.0</ele><time>2026-03-29T07:17:42.666Z</time></trkpt><trkpt lat="45.548965" lon="10.4736257"><ele>282.0</ele><time>2026-03-29T07:17:43.672Z</time></trkpt><trkpt lat="45.5490635" lon="10.473705"><ele>284.0</ele><time>2026-03-29T07:17:44.666Z</time></trkpt><trkpt lat="45.5491553" lon="10.4737808"><ele>286.0</ele><time>2026-03-29T07:17:45.669Z</time></trkpt><trkpt lat="45.5492553" lon="10.4738684"><ele>288.0</ele><time>2026-03-29T07:17:46.665Z</time></trkpt><trkpt lat="45.5493576" lon="10.47397"><ele>290.0</ele><time>2026-03-29T07:17:47.669Z</time></trkpt><trkpt lat="45.5494592" lon="10.4740805"><ele>289.0</ele><time>2026-03-29T07:17:48.666Z</time></trkpt><trkpt lat="45.5495488" lon="10.4742007"><ele>288.0</ele><time>2026-03-29T07:17:49.679Z</time></trkpt><trkpt lat="45.5496407" lon="10.4743331"><ele>287.0</ele><time>2026-03-29T07:17:50.672Z</time></trkpt><trkpt lat="45.5497374" lon="10.4744595"><ele>286.0</ele><time>2026-03-29T07:17:51.663Z</time></trkpt><trkpt lat="45.549854" lon="10.4745588"><ele>288.5</ele><time>2026-03-29T07:17:52.67Z</time></trkpt><trkpt lat="45.5499822" lon="10.4746656"><ele>291.0</ele><time>2026-03-29T07:17:53.668Z</time></trkpt><trkpt lat="45.5500918" lon="10.4747582"><ele>293.5</ele><time>2026-03-29T07:17:54.675Z</time></trkpt><trkpt lat="45.5501932" lon="10.4748534"><ele>296.0</ele><time>2026-03-29T07:17:55.663Z</time></trkpt><trkpt lat="45.5503177" lon="10.4749561"><ele>296.5</ele><time>2026-03-29T07:17:56.661Z</time></trkpt><trkpt lat="45.5504252" lon="10.4750606"><ele>297.0</ele><time>2026-03-29T07:17:57.667Z</time></trkpt><trkpt lat="45.550534" lon="10.4752031"><ele>297.5</ele><time>2026-03-29T07:17:58.686Z</time></trkpt><trkpt lat="45.550634" lon="10.4753503"><ele>298.0</ele><time>2026-03-29T07:17:59.666Z</time></trkpt><trkpt lat="45.5507468" lon="10.4754901"><ele>298.0</ele><time>2026-03-29T07:18:00.678Z</time></trkpt><trkpt lat="45.5508611" lon="10.4756486"><ele>298.0</ele><time>2026-03-29T07:18:01.671Z</time></trkpt><trkpt lat="45.5509732" lon="10.4757695"><ele>298.0</ele><time>2026-03-29T07:18:02.665Z</time></trkpt><trkpt lat="45.5510885" lon="10.4758819"><ele>298.0</ele><time>2026-03-29T07:18:03.651Z</time></trkpt><trkpt lat="45.5512184" lon="10.4759822"><ele>296.66666666666663</ele><time>2026-03-29T07:18:04.652Z</time></trkpt><trkpt lat="45.5513779" lon="10.4760651"><ele>295.3333333333333</ele><time>2026-03-29T07:18:05.656Z</time></trkpt><trkpt lat="45.5515239" lon="10.4761563"><ele>294.0</ele><time>2026-03-29T07:18:06.662Z</time></trkpt><trkpt lat="45.5516613" lon="10.4762625"><ele>295.5</ele><time>2026-03-29T07:18:07.661Z</time></trkpt><trkpt lat="45.5517928" lon="10.4763482"><ele>297.0</ele><time>2026-03-29T07:18:08.67Z</time></trkpt><trkpt lat="45.5519274" lon="10.4764628"><ele>298.5</ele><time>2026-03-29T07:18:09.67Z</time></trkpt><trkpt lat="45.5520469" lon="10.4765759"><ele>300.0</ele><time>2026-03-29T07:18:10.67Z</time></trkpt><trkpt lat="45.552157" lon="10.47668"><ele>300.0</ele><time>2026-03-29T07:18:11.675Z</time></trkpt><trkpt lat="45.5522757" lon="10.4767771"><ele>300.0</ele><time>2026-03-29T07:18:12.674Z</time></trkpt><trkpt lat="45.5523926" lon="10.4768991"><ele>300.0</ele><time>2026-03-29T07:18:13.681Z</time></trkpt><trkpt lat="45.5525041" lon="10.4770388"><ele>300.0</ele><time>2026-03-29T07:18:14.669Z</time></trkpt><trkpt lat="45.5526345" lon="10.4771749"><ele>301.25</ele><time>2026-03-29T07:18:15.665Z</time></trkpt><trkpt lat="45.5527503" lon="10.4772989"><ele>302.5</ele><time>2026-03-29T07:18:16.663Z</time></trkpt><trkpt lat="45.5528752" lon="10.4774138"><ele>303.75</ele><time>2026-03-29T07:18:17.661Z</time></trkpt><trkpt lat="45.5529968" lon="10.4775311"><ele>305.0</ele><time>2026-03-29T07:18:18.669Z</time></trkpt><trkpt lat="45.5530994" lon="10.4776457"><ele>305.0</ele><time>2026-03-29T07:18:19.666Z</time></trkpt><trkpt lat="45.5532046" lon="10.4777729"><ele>305.0</ele><time>2026-03-29T07:18:20.665Z</time></trkpt><trkpt lat="45.5533163" lon="10.4778929"><ele>305.0</ele><time>2026-03-29T07:18:21.676Z</time></trkpt><trkpt lat="45.5534231" lon="10.4780432"><ele>305.0</ele><time>2026-03-29T07:18:22.667Z</time></trkpt><trkpt lat="45.5534867" lon="10.4781846"><ele>305.25</ele><time>2026-03-29T07:18:23.67Z</time></trkpt><trkpt lat="45.553559" lon="10.4783389"><ele>305.5</ele><time>2026-03-29T07:18:24.668Z</time></trkpt><trkpt lat="45.553626" lon="10.4784636"><ele>305.75</ele><time>2026-03-29T07:18:25.66Z</time></trkpt><trkpt lat="45.5536927" lon="10.4786019"><ele>306.0</ele><time>2026-03-29T07:18:26.666Z</time></trkpt><trkpt lat="45.553758" lon="10.4787297"><ele>307.40000000000003</ele><time>2026-03-29T07:18:27.658Z</time></trkpt><trkpt lat="45.5538098" lon="10.4788574"><ele>308.8</ele><time>2026-03-29T07:18:28.659Z</time></trkpt><trkpt lat="45.5538561" lon="10.4789755"><ele>310.20000000000005</ele><time>2026-03-29T07:18:29.679Z</time></trkpt><trkpt lat="45.553893" lon="10.4790965"><ele>311.6</ele><time>2026-03-29T07:18:30.653Z</time></trkpt><trkpt lat="45.5539176" lon="10.4792355"><ele>313.0</ele><time>2026-03-29T07:18:31.663Z</time></trkpt><trkpt lat="45.5539385" lon="10.4793944"><ele>313.0</ele><time>2026-03-29T07:18:32.649Z</time></trkpt><trkpt lat="45.5539476" lon="10.4795736"><ele>313.0</ele><time>2026-03-29T07:18:33.653Z</time></trkpt><trkpt lat="45.5539656" lon="10.4797796"><ele>313.0</ele><time>2026-03-29T07:18:34.654Z</time></trkpt><trkpt lat="45.5539988" lon="10.4799951"><ele>313.0</ele><time>2026-03-29T07:18:35.646Z</time></trkpt><trkpt lat="45.5540548" lon="10.4801977"><ele>314.0</ele><time>2026-03-29T07:18:36.651Z</time></trkpt><trkpt lat="45.5541169" lon="10.4803741"><ele>315.0</ele><time>2026-03-29T07:18:37.653Z</time></trkpt><trkpt lat="45.5541788" lon="10.4805264"><ele>316.0</ele><time>2026-03-29T07:18:38.657Z</time></trkpt><trkpt lat="45.5542274" lon="10.4806702"><ele>317.0</ele><time>2026-03-29T07:18:39.653Z</time></trkpt><trkpt lat="45.5542739" lon="10.4808054"><ele>317.6666666666667</ele><time>2026-03-29T07:18:40.653Z</time></trkpt><trkpt lat="45.5543028" lon="10.4809243"><ele>318.33333333333337</ele><time>2026-03-29T07:18:41.655Z</time></trkpt><trkpt lat="45.5543027" lon="10.481027"><ele>319.0</ele><time>2026-03-29T07:18:42.663Z</time></trkpt><trkpt lat="45.5543279" lon="10.4811812"><ele>319.6666666666667</ele><time>2026-03-29T07:18:44.66Z</time></trkpt><trkpt lat="45.5543663" lon="10.4812599"><ele>320.3333333333333</ele><time>2026-03-29T07:18:45.646Z</time></trkpt><trkpt lat="45.5544203" lon="10.4813402"><ele>321.0</ele><time>2026-03-29T07:18:46.64Z</time></trkpt><trkpt lat="45.5544912" lon="10.4814196"><ele>320.75</ele><time>2026-03-29T07:18:47.643Z</time></trkpt><trkpt lat="45.5545924" lon="10.4815124"><ele>320.5</ele><time>2026-03-29T07:18:48.636Z</time></trkpt><trkpt lat="45.5547194" lon="10.4816112"><ele>320.25</ele><time>2026-03-29T07:18:49.655Z</time></trkpt><trkpt lat="45.5548431" lon="10.4816985"><ele>320.0</ele><time>2026-03-29T07:18:50.653Z</time></trkpt><trkpt lat="45.554945" lon="10.4817833"><ele>320.0</ele><time>2026-03-29T07:18:51.651Z</time></trkpt><trkpt lat="45.5550433" lon="10.4818936"><ele>320.0</ele><time>2026-03-29T07:18:52.651Z</time></trkpt><trkpt lat="45.555134" lon="10.4820044"><ele>320.0</ele><time>2026-03-29T07:18:53.647Z</time></trkpt><trkpt lat="45.5552187" lon="10.4821027"><ele>320.0</ele><time>2026-03-29T07:18:54.653Z</time></trkpt><trkpt lat="45.5553187" lon="10.48221"><ele>321.25</ele><time>2026-03-29T07:18:55.649Z</time></trkpt><trkpt lat="45.5554365" lon="10.4822992"><ele>322.5</ele><time>2026-03-29T07:18:56.649Z</time></trkpt><trkpt lat="45.5555603" lon="10.4823865"><ele>323.75</ele><time>2026-03-29T07:18:57.649Z</time></trkpt><trkpt lat="45.5556931" lon="10.4824411"><ele>325.0</ele><time>2026-03-29T07:18:58.648Z</time></trkpt><trkpt lat="45.5558232" lon="10.482492"><ele>325.0</ele><time>2026-03-29T07:18:59.661Z</time></trkpt><trkpt lat="45.5559361" lon="10.4825708"><ele>325.0</ele><time>2026-03-29T07:19:00.668Z</time></trkpt><trkpt lat="45.5560711" lon="10.4826483"><ele>325.0</ele><time>2026-03-29T07:19:01.651Z</time></trkpt><trkpt lat="45.5561995" lon="10.4827139"><ele>325.0</ele><time>2026-03-29T07:19:02.661Z</time></trkpt><trkpt lat="45.5563333" lon="10.4827924"><ele>326.0</ele><time>2026-03-29T07:19:03.658Z</time></trkpt><trkpt lat="45.5564488" lon="10.4828518"><ele>327.0</ele><time>2026-03-29T07:19:04.658Z</time></trkpt><trkpt lat="45.5565519" lon="10.4829235"><ele>328.0</ele><time>2026-03-29T07:19:05.659Z</time></trkpt><trkpt lat="45.556664" lon="10.4829886"><ele>329.0</ele><time>2026-03-29T07:19:06.668Z</time></trkpt><trkpt lat="45.5567806" lon="10.4830334"><ele>329.75</ele><time>2026-03-29T07:19:07.66Z</time></trkpt><trkpt lat="45.5569151" lon="10.4830669"><ele>330.5</ele><time>2026-03-29T07:19:08.666Z</time></trkpt><trkpt lat="45.5570421" lon="10.4830867"><ele>331.25</ele><time>2026-03-29T07:19:09.667Z</time></trkpt><trkpt lat="45.5571592" lon="10.483109"><ele>332.0</ele><time>2026-03-29T07:19:10.67Z</time></trkpt><trkpt lat="45.5572704" lon="10.4831249"><ele>332.0</ele><time>2026-03-29T07:19:11.674Z</time></trkpt><trkpt lat="45.5573819" lon="10.4831428"><ele>332.0</ele><time>2026-03-29T07:19:12.664Z</time></trkpt><trkpt lat="45.5575106" lon="10.4831504"><ele>332.0</ele><time>2026-03-29T07:19:13.662Z</time></trkpt><trkpt lat="45.5576513" lon="10.4831504"><ele>332.0</ele><time>2026-03-29T07:19:14.669Z</time></trkpt><trkpt lat="45.557794" lon="10.4831631"><ele>331.5</ele><time>2026-03-29T07:19:15.666Z</time></trkpt><trkpt lat="45.5579353" lon="10.4831875"><ele>331.0</ele><time>2026-03-29T07:19:16.669Z</time></trkpt><trkpt lat="45.5580751" lon="10.483216"><ele>330.5</ele><time>2026-03-29T07:19:17.664Z</time></trkpt><trkpt lat="45.5581835" lon="10.4832289"><ele>330.0</ele><time>2026-03-29T07:19:18.67Z</time></trkpt><trkpt lat="45.5583124" lon="10.4832507"><ele>330.0</ele><time>2026-03-29T07:19:19.669Z</time></trkpt><trkpt lat="45.5584495" lon="10.4832714"><ele>330.0</ele><time>2026-03-29T07:19:20.673Z</time></trkpt><trkpt lat="45.5585845" lon="10.4832968"><ele>330.0</ele><time>2026-03-29T07:19:21.67Z</time></trkpt><trkpt lat="45.558717" lon="10.4833123"><ele>330.0</ele><time>2026-03-29T07:19:22.667Z</time></trkpt><trkpt lat="45.558853" lon="10.483333"><ele>329.75</ele><time>2026-03-29T07:19:23.668Z</time></trkpt><trkpt lat="45.5589904" lon="10.4833637"><ele>329.5</ele><time>2026-03-29T07:19:24.672Z</time></trkpt><trkpt lat="45.5591231" lon="10.4833927"><ele>329.25</ele><time>2026-03-29T07:19:25.668Z</time></trkpt><trkpt lat="45.5592536" lon="10.4834063"><ele>329.0</ele><time>2026-03-29T07:19:26.673Z</time></trkpt><trkpt lat="45.5593832" lon="10.4834281"><ele>329.0</ele><time>2026-03-29T07:19:27.672Z</time></trkpt><trkpt lat="45.5595102" lon="10.4834431"><ele>329.0</ele><time>2026-03-29T07:19:28.668Z</time></trkpt><trkpt lat="45.5596355" lon="10.4834723"><ele>329.0</ele><time>2026-03-29T07:19:29.684Z</time></trkpt><trkpt lat="45.5597596" lon="10.4834907"><ele>329.0</ele><time>2026-03-29T07:19:30.667Z</time></trkpt><trkpt lat="45.5598882" lon="10.483512"><ele>328.25</ele><time>2026-03-29T07:19:31.692Z</time></trkpt><trkpt lat="45.5600217" lon="10.4835125"><ele>327.5</ele><time>2026-03-29T07:19:32.672Z</time></trkpt><trkpt lat="45.5601549" lon="10.4834924"><ele>326.75</ele><time>2026-03-29T07:19:33.665Z</time></trkpt><trkpt lat="45.5602835" lon="10.4834613"><ele>326.0</ele><time>2026-03-29T07:19:34.649Z</time></trkpt><trkpt lat="45.5604281" lon="10.483411"><ele>325.5</ele><time>2026-03-29T07:19:35.66Z</time></trkpt><trkpt lat="45.5605721" lon="10.4833352"><ele>325.0</ele><time>2026-03-29T07:19:36.665Z</time></trkpt><trkpt lat="45.5606937" lon="10.4832723"><ele>324.5</ele><time>2026-03-29T07:19:37.671Z</time></trkpt><trkpt lat="45.5607937" lon="10.483203"><ele>324.0</ele><time>2026-03-29T07:19:38.67Z</time></trkpt><trkpt lat="45.5609042" lon="10.4831288"><ele>324.0</ele><time>2026-03-29T07:19:39.675Z</time></trkpt><trkpt lat="45.5609907" lon="10.4830618"><ele>324.0</ele><time>2026-03-29T07:19:40.668Z</time></trkpt><trkpt lat="45.5610721" lon="10.4830012"><ele>324.0</ele><time>2026-03-29T07:19:41.673Z</time></trkpt><trkpt lat="45.5611442" lon="10.4829552"><ele>324.0</ele><time>2026-03-29T07:19:42.669Z</time></trkpt><trkpt lat="45.5612101" lon="10.4829322"><ele>324.0</ele><time>2026-03-29T07:19:43.672Z</time></trkpt><trkpt lat="45.5612737" lon="10.4829202"><ele>324.0</ele><time>2026-03-29T07:19:44.662Z</time></trkpt><trkpt lat="45.5613534" lon="10.482854"><ele>324.0</ele><time>2026-03-29T07:19:46.658Z</time></trkpt><trkpt lat="45.5613525" lon="10.4827199"><ele>324.0</ele><time>2026-03-29T07:19:48.663Z</time></trkpt><trkpt lat="45.5612719" lon="10.4825298"><ele>324.0</ele><time>2026-03-29T07:19:50.657Z</time></trkpt><trkpt lat="45.5612117" lon="10.4823874"><ele>324.0</ele><time>2026-03-29T07:19:51.664Z</time></trkpt><trkpt lat="45.5611381" lon="10.4822124"><ele>323.6666666666667</ele><time>2026-03-29T07:19:52.656Z</time></trkpt><trkpt lat="45.5610599" lon="10.4820208"><ele>323.33333333333337</ele><time>2026-03-29T07:19:53.656Z</time></trkpt><trkpt lat="45.5609893" lon="10.4818284"><ele>323.0</ele><time>2026-03-29T07:19:54.665Z</time></trkpt><trkpt lat="45.5609" lon="10.4816559"><ele>323.0</ele><time>2026-03-29T07:19:55.66Z</time></trkpt><trkpt lat="45.5608215" lon="10.4815181"><ele>323.0</ele><time>2026-03-29T07:19:56.66Z</time></trkpt><trkpt lat="45.5607385" lon="10.4813774"><ele>323.0</ele><time>2026-03-29T07:19:57.651Z</time></trkpt><trkpt lat="45.5606288" lon="10.48127"><ele>323.0</ele><time>2026-03-29T07:19:58.651Z</time></trkpt><trkpt lat="45.5604962" lon="10.4811813"><ele>326.5</ele><time>2026-03-29T07:19:59.654Z</time></trkpt><trkpt lat="45.5603625" lon="10.4811145"><ele>330.0</ele><time>2026-03-29T07:20:00.656Z</time></trkpt><trkpt lat="45.5602181" lon="10.4810396"><ele>333.5</ele><time>2026-03-29T07:20:01.656Z</time></trkpt><trkpt lat="45.5601008" lon="10.4809714"><ele>337.0</ele><time>2026-03-29T07:20:02.69Z</time></trkpt><trkpt lat="45.5599982" lon="10.4809211"><ele>337.0</ele><time>2026-03-29T07:20:03.65Z</time></trkpt><trkpt lat="45.559899" lon="10.4808841"><ele>337.0</ele><time>2026-03-29T07:20:04.652Z</time></trkpt><trkpt lat="45.5598222" lon="10.4808068"><ele>337.0</ele><time>2026-03-29T07:20:05.645Z</time></trkpt><trkpt lat="45.5597398" lon="10.4807036"><ele>337.0</ele><time>2026-03-29T07:20:06.639Z</time></trkpt><trkpt lat="45.5596986" lon="10.4805454"><ele>337.0</ele><time>2026-03-29T07:20:07.64Z</time></trkpt><trkpt lat="45.5596662" lon="10.4803934"><ele>338.8</ele><time>2026-03-29T07:20:08.646Z</time></trkpt><trkpt lat="45.5596554" lon="10.4802367"><ele>340.6</ele><time>2026-03-29T07:20:09.639Z</time></trkpt><trkpt lat="45.5596495" lon="10.4800775"><ele>342.40000000000003</ele><time>2026-03-29T07:20:10.633Z</time></trkpt><trkpt lat="45.5596453" lon="10.4799166"><ele>344.20000000000005</ele><time>2026-03-29T07:20:11.634Z</time></trkpt><trkpt lat="45.5596405" lon="10.479762"><ele>346.0</ele><time>2026-03-29T07:20:12.634Z</time></trkpt><trkpt lat="45.5596451" lon="10.4796004"><ele>345.0</ele><time>2026-03-29T07:20:13.637Z</time></trkpt><trkpt lat="45.5596624" lon="10.4794382"><ele>344.0</ele><time>2026-03-29T07:20:14.64Z</time></trkpt><trkpt lat="45.5597009" lon="10.4792847"><ele>343.0</ele><time>2026-03-29T07:20:15.636Z</time></trkpt><trkpt lat="45.5597615" lon="10.4791162"><ele>342.0</ele><time>2026-03-29T07:20:16.652Z</time></trkpt><trkpt lat="45.5598171" lon="10.4789451"><ele>341.0</ele><time>2026-03-29T07:20:17.647Z</time></trkpt><trkpt lat="45.5598797" lon="10.4787441"><ele>340.0</ele><time>2026-03-29T07:20:18.649Z</time></trkpt><trkpt lat="45.5599268" lon="10.4785542"><ele>339.0</ele><time>2026-03-29T07:20:19.65Z</time></trkpt><trkpt lat="45.5599783" lon="10.4783652"><ele>338.0</ele><time>2026-03-29T07:20:20.647Z</time></trkpt><trkpt lat="45.5600027" lon="10.4781708"><ele>338.0</ele><time>2026-03-29T07:20:21.646Z</time></trkpt><trkpt lat="45.5600253" lon="10.477978"><ele>338.0</ele><time>2026-03-29T07:20:22.645Z</time></trkpt><trkpt lat="45.5600348" lon="10.4777863"><ele>338.0</ele><time>2026-03-29T07:20:23.635Z</time></trkpt><trkpt lat="45.560024" lon="10.4776005"><ele>338.0</ele><time>2026-03-29T07:20:24.646Z</time></trkpt><trkpt lat="45.5600187" lon="10.4774191"><ele>337.5</ele><time>2026-03-29T07:20:25.639Z</time></trkpt><trkpt lat="45.5600067" lon="10.4772518"><ele>337.0</ele><time>2026-03-29T07:20:26.638Z</time></trkpt><trkpt lat="45.5600003" lon="10.4770877"><ele>336.5</ele><time>2026-03-29T07:20:27.633Z</time></trkpt><trkpt lat="45.5599908" lon="10.4769308"><ele>336.0</ele><time>2026-03-29T07:20:28.634Z</time></trkpt><trkpt lat="45.5599882" lon="10.4767778"><ele>334.6</ele><time>2026-03-29T07:20:29.632Z</time></trkpt><trkpt lat="45.5600026" lon="10.4766439"><ele>333.20000000000005</ele><time>2026-03-29T07:20:30.638Z</time></trkpt><trkpt lat="45.5600371" lon="10.4765241"><ele>331.79999999999995</ele><time>2026-03-29T07:20:31.636Z</time></trkpt><trkpt lat="45.5600864" lon="10.4764076"><ele>330.4</ele><time>2026-03-29T07:20:32.653Z</time></trkpt><trkpt lat="45.5601382" lon="10.476284"><ele>329.0</ele><time>2026-03-29T07:20:33.634Z</time></trkpt><trkpt lat="45.5602014" lon="10.4761598"><ele>327.2</ele><time>2026-03-29T07:20:34.645Z</time></trkpt><trkpt lat="45.5602739" lon="10.4760359"><ele>325.4</ele><time>2026-03-29T07:20:35.64Z</time></trkpt><trkpt lat="45.5603427" lon="10.4759228"><ele>323.6</ele><time>2026-03-29T07:20:36.638Z</time></trkpt><trkpt lat="45.560401" lon="10.4758202"><ele>321.8</ele><time>2026-03-29T07:20:37.642Z</time></trkpt><trkpt lat="45.5604462" lon="10.4757275"><ele>320.0</ele><time>2026-03-29T07:20:38.642Z</time></trkpt><trkpt lat="45.5604849" lon="10.475656"><ele>320.0</ele><time>2026-03-29T07:20:39.645Z</time></trkpt><trkpt lat="45.5605539" lon="10.4755738"><ele>320.0</ele><time>2026-03-29T07:20:41.656Z</time></trkpt><trkpt lat="45.5606377" lon="10.4756218"><ele>320.0</ele><time>2026-03-29T07:20:43.64Z</time></trkpt><trkpt lat="45.5607345" lon="10.4757443"><ele>320.0</ele><time>2026-03-29T07:20:45.636Z</time></trkpt><trkpt lat="45.560801" lon="10.4757852"><ele>320.0</ele><time>2026-03-29T07:20:46.638Z</time></trkpt><trkpt lat="45.5608924" lon="10.475821"><ele>320.0</ele><time>2026-03-29T07:20:47.641Z</time></trkpt><trkpt lat="45.5610029" lon="10.4758551"><ele>320.0</ele><time>2026-03-29T07:20:48.628Z</time></trkpt><trkpt lat="45.5611167" lon="10.4759066"><ele>320.0</ele><time>2026-03-29T07:20:49.633Z</time></trkpt><trkpt lat="45.5612302" lon="10.4759733"><ele>320.0</ele><time>2026-03-29T07:20:50.625Z</time></trkpt><trkpt lat="45.5613353" lon="10.476037"><ele>319.6</ele><time>2026-03-29T07:20:51.636Z</time></trkpt><trkpt lat="45.5614335" lon="10.4760958"><ele>319.2</ele><time>2026-03-29T07:20:52.638Z</time></trkpt><trkpt lat="45.5615272" lon="10.4761525"><ele>318.8</ele><time>2026-03-29T07:20:53.635Z</time></trkpt><trkpt lat="45.5616132" lon="10.476234"><ele>318.4</ele><time>2026-03-29T07:20:54.633Z</time></trkpt><trkpt lat="45.5616932" lon="10.476337"><ele>318.0</ele><time>2026-03-29T07:20:55.638Z</time></trkpt><trkpt lat="45.5617643" lon="10.4764691"><ele>321.8</ele><time>2026-03-29T07:20:56.632Z</time></trkpt><trkpt lat="45.5618287" lon="10.4765981"><ele>325.6</ele><time>2026-03-29T07:20:57.63Z</time></trkpt><trkpt lat="45.5619008" lon="10.4766975"><ele>329.40000000000003</ele><time>2026-03-29T07:20:58.627Z</time></trkpt><trkpt lat="45.5619933" lon="10.4767694"><ele>333.20000000000005</ele><time>2026-03-29T07:20:59.632Z</time></trkpt><trkpt lat="45.5620869" lon="10.4768293"><ele>337.0</ele><time>2026-03-29T07:21:00.634Z</time></trkpt><trkpt lat="45.5621792" lon="10.4768892"><ele>337.6</ele><time>2026-03-29T07:21:01.631Z</time></trkpt><trkpt lat="45.5622638" lon="10.4769335"><ele>338.20000000000005</ele><time>2026-03-29T07:21:02.642Z</time></trkpt><trkpt lat="45.562348" lon="10.4769516"><ele>338.8</ele><time>2026-03-29T07:21:03.654Z</time></trkpt><trkpt lat="45.5624263" lon="10.4769381"><ele>339.4</ele><time>2026-03-29T07:21:04.63Z</time></trkpt><trkpt lat="45.5625186" lon="10.4768925"><ele>340.0</ele><time>2026-03-29T07:21:05.636Z</time></trkpt><trkpt lat="45.5626118" lon="10.4768462"><ele>340.0</ele><time>2026-03-29T07:21:06.631Z</time></trkpt><trkpt lat="45.5627019" lon="10.4767493"><ele>340.0</ele><time>2026-03-29T07:21:07.617Z</time></trkpt><trkpt lat="45.562784" lon="10.4766129"><ele>340.0</ele><time>2026-03-29T07:21:08.635Z</time></trkpt><trkpt lat="45.5628914" lon="10.4764879"><ele>340.0</ele><time>2026-03-29T07:21:09.649Z</time></trkpt><trkpt lat="45.5629965" lon="10.4763618"><ele>339.0</ele><time>2026-03-29T07:21:10.65Z</time></trkpt><trkpt lat="45.5630982" lon="10.4762466"><ele>338.0</ele><time>2026-03-29T07:21:11.651Z</time></trkpt><trkpt lat="45.5631952" lon="10.4761639"><ele>337.0</ele><time>2026-03-29T07:21:12.649Z</time></trkpt><trkpt lat="45.5632758" lon="10.4760834"><ele>336.0</ele><time>2026-03-29T07:21:13.66Z</time></trkpt><trkpt lat="45.5633635" lon="10.4760115"><ele>335.0</ele><time>2026-03-29T07:21:14.658Z</time></trkpt><trkpt lat="45.5634556" lon="10.4759432"><ele>335.0</ele><time>2026-03-29T07:21:15.66Z</time></trkpt><trkpt lat="45.5635481" lon="10.4758667"><ele>335.0</ele><time>2026-03-29T07:21:16.658Z</time></trkpt><trkpt lat="45.5636391" lon="10.4757943"><ele>335.0</ele><time>2026-03-29T07:21:17.661Z</time></trkpt><trkpt lat="45.5637286" lon="10.4757259"><ele>335.0</ele><time>2026-03-29T07:21:18.658Z</time></trkpt><trkpt lat="45.5637989" lon="10.4756672"><ele>335.0</ele><time>2026-03-29T07:21:19.658Z</time></trkpt><trkpt lat="45.5638566" lon="10.4756125"><ele>335.0</ele><time>2026-03-29T07:21:20.664Z</time></trkpt><trkpt lat="45.5639485" lon="10.4755042"><ele>335.0</ele><time>2026-03-29T07:21:22.66Z</time></trkpt><trkpt lat="45.5640222" lon="10.4754515"><ele>335.0</ele><time>2026-03-29T07:21:24.665Z</time></trkpt><trkpt lat="45.5641237" lon="10.47551"><ele>335.0</ele><time>2026-03-29T07:21:26.661Z</time></trkpt><trkpt lat="45.5641852" lon="10.4755911"><ele>335.0</ele><time>2026-03-29T07:21:27.668Z</time></trkpt><trkpt lat="45.5642305" lon="10.4757202"><ele>335.0</ele><time>2026-03-29T07:21:28.663Z</time></trkpt><trkpt lat="45.5642781" lon="10.4758681"><ele>335.0</ele><time>2026-03-29T07:21:29.661Z</time></trkpt><trkpt lat="45.5643258" lon="10.4760104"><ele>335.0</ele><time>2026-03-29T07:21:30.651Z</time></trkpt><trkpt lat="45.564379" lon="10.476126"><ele>335.0</ele><time>2026-03-29T07:21:31.649Z</time></trkpt><trkpt lat="45.5644229" lon="10.4762313"><ele>335.0</ele><time>2026-03-29T07:21:32.647Z</time></trkpt><trkpt lat="45.5644695" lon="10.4763195"><ele>334.4</ele><time>2026-03-29T07:21:33.654Z</time></trkpt><trkpt lat="45.5645119" lon="10.4764227"><ele>333.8</ele><time>2026-03-29T07:21:34.674Z</time></trkpt><trkpt lat="45.5645542" lon="10.4765442"><ele>333.20000000000005</ele><time>2026-03-29T07:21:35.656Z</time></trkpt><trkpt lat="45.5645914" lon="10.4766666"><ele>332.6</ele><time>2026-03-29T07:21:36.661Z</time></trkpt><trkpt lat="45.5646334" lon="10.4767782"><ele>332.0</ele><time>2026-03-29T07:21:37.651Z</time></trkpt><trkpt lat="45.5646696" lon="10.4768964"><ele>332.0</ele><time>2026-03-29T07:21:38.659Z</time></trkpt><trkpt lat="45.5646955" lon="10.4770214"><ele>332.0</ele><time>2026-03-29T07:21:39.657Z</time></trkpt><trkpt lat="45.5647088" lon="10.4771601"><ele>332.0</ele><time>2026-03-29T07:21:40.652Z</time></trkpt><trkpt lat="45.5647215" lon="10.4772991"><ele>332.0</ele><time>2026-03-29T07:21:41.654Z</time></trkpt><trkpt lat="45.5647371" lon="10.4774246"><ele>332.0</ele><time>2026-03-29T07:21:42.643Z</time></trkpt><trkpt lat="45.5647445" lon="10.4776027"><ele>332.8</ele><time>2026-03-29T07:21:44.645Z</time></trkpt><trkpt lat="45.5647245" lon="10.4777242"><ele>333.6</ele><time>2026-03-29T07:21:46.64Z</time></trkpt><trkpt lat="45.5646469" lon="10.4778325"><ele>334.40000000000003</ele><time>2026-03-29T07:21:48.638Z</time></trkpt><trkpt lat="45.5645713" lon="10.47788"><ele>335.20000000000005</ele><time>2026-03-29T07:21:49.638Z</time></trkpt><trkpt lat="45.5644598" lon="10.4779522"><ele>336.0</ele><time>2026-03-29T07:21:50.637Z</time></trkpt><trkpt lat="45.5643804" lon="10.4780361"><ele>337.0</ele><time>2026-03-29T07:21:51.637Z</time></trkpt><trkpt lat="45.5642937" lon="10.4781386"><ele>338.0</ele><time>2026-03-29T07:21:52.631Z</time></trkpt><trkpt lat="45.5642318" lon="10.4782417"><ele>339.0</ele><time>2026-03-29T07:21:53.634Z</time></trkpt><trkpt lat="45.5641974" lon="10.4783367"><ele>340.0</ele><time>2026-03-29T07:21:54.633Z</time></trkpt><trkpt lat="45.5641904" lon="10.4784378"><ele>341.0</ele><time>2026-03-29T07:21:55.627Z</time></trkpt><trkpt lat="45.5641998" lon="10.4785327"><ele>342.0</ele><time>2026-03-29T07:21:56.643Z</time></trkpt><trkpt lat="45.5642478" lon="10.4786289"><ele>342.0</ele><time>2026-03-29T07:21:57.632Z</time></trkpt><trkpt lat="45.5643419" lon="10.4787281"><ele>342.0</ele><time>2026-03-29T07:21:58.647Z</time></trkpt><trkpt lat="45.5644739" lon="10.4788032"><ele>342.0</ele><time>2026-03-29T07:21:59.643Z</time></trkpt><trkpt lat="45.564611" lon="10.4788796"><ele>342.0</ele><time>2026-03-29T07:22:00.643Z</time></trkpt><trkpt lat="45.5647541" lon="10.4789479"><ele>342.40000000000003</ele><time>2026-03-29T07:22:01.651Z</time></trkpt><trkpt lat="45.5648737" lon="10.4790092"><ele>342.8</ele><time>2026-03-29T07:22:02.641Z</time></trkpt><trkpt lat="45.5649764" lon="10.4790588"><ele>343.2</ele><time>2026-03-29T07:22:03.655Z</time></trkpt><trkpt lat="45.5650616" lon="10.4790822"><ele>343.6</ele><time>2026-03-29T07:22:04.643Z</time></trkpt><trkpt lat="45.5651591" lon="10.4790803"><ele>344.0</ele><time>2026-03-29T07:22:05.658Z</time></trkpt><trkpt lat="45.565258" lon="10.4790779"><ele>344.0</ele><time>2026-03-29T07:22:06.642Z</time></trkpt><trkpt lat="45.5653598" lon="10.4790793"><ele>344.0</ele><time>2026-03-29T07:22:07.645Z</time></trkpt><trkpt lat="45.5654708" lon="10.479079"><ele>344.0</ele><time>2026-03-29T07:22:08.641Z</time></trkpt><trkpt lat="45.565587" lon="10.4790668"><ele>344.0</ele><time>2026-03-29T07:22:09.643Z</time></trkpt><trkpt lat="45.5656921" lon="10.4790478"><ele>344.0</ele><time>2026-03-29T07:22:10.645Z</time></trkpt><trkpt lat="45.5657869" lon="10.4790224"><ele>344.4</ele><time>2026-03-29T07:22:11.644Z</time></trkpt><trkpt lat="45.5658881" lon="10.4790058"><ele>344.79999999999995</ele><time>2026-03-29T07:22:12.653Z</time></trkpt><trkpt lat="45.5659941" lon="10.4789764"><ele>345.20000000000005</ele><time>2026-03-29T07:22:13.648Z</time></trkpt><trkpt lat="45.5661061" lon="10.478948"><ele>345.6</ele><time>2026-03-29T07:22:14.65Z</time></trkpt><trkpt lat="45.566215" lon="10.4788978"><ele>346.0</ele><time>2026-03-29T07:22:15.656Z</time></trkpt><trkpt lat="45.5663112" lon="10.4788355"><ele>345.6</ele><time>2026-03-29T07:22:16.659Z</time></trkpt><trkpt lat="45.566395" lon="10.4787863"><ele>345.20000000000005</ele><time>2026-03-29T07:22:17.653Z</time></trkpt><trkpt lat="45.5664781" lon="10.4787324"><ele>344.79999999999995</ele><time>2026-03-29T07:22:18.653Z</time></trkpt><trkpt lat="45.5665669" lon="10.4787182"><ele>344.4</ele><time>2026-03-29T07:22:19.655Z</time></trkpt><trkpt lat="45.5666554" lon="10.4787184"><ele>344.0</ele><time>2026-03-29T07:22:20.651Z</time></trkpt><trkpt lat="45.566754" lon="10.478721"><ele>344.0</ele><time>2026-03-29T07:22:21.654Z</time></trkpt><trkpt lat="45.5668376" lon="10.478726"><ele>344.0</ele><time>2026-03-29T07:22:22.656Z</time></trkpt><trkpt lat="45.5669235" lon="10.4787285"><ele>344.0</ele><time>2026-03-29T07:22:23.673Z</time></trkpt><trkpt lat="45.5670176" lon="10.4787193"><ele>344.0</ele><time>2026-03-29T07:22:24.673Z</time></trkpt><trkpt lat="45.567123" lon="10.4786942"><ele>344.0</ele><time>2026-03-29T07:22:25.666Z</time></trkpt><trkpt lat="45.5672037" lon="10.4786544"><ele>344.6666666666667</ele><time>2026-03-29T07:22:26.66Z</time></trkpt><trkpt lat="45.5672909" lon="10.4786299"><ele>345.33333333333337</ele><time>2026-03-29T07:22:27.642Z</time></trkpt><trkpt lat="45.5673748" lon="10.4786178"><ele>346.0</ele><time>2026-03-29T07:22:28.642Z</time></trkpt><trkpt lat="45.5674506" lon="10.478617"><ele>346.6666666666667</ele><time>2026-03-29T07:22:29.644Z</time></trkpt><trkpt lat="45.5675148" lon="10.4786163"><ele>347.3333333333333</ele><time>2026-03-29T07:22:30.646Z</time></trkpt><trkpt lat="45.5676433" lon="10.4786009"><ele>348.0</ele><time>2026-03-29T07:22:32.65Z</time></trkpt><trkpt lat="45.5677174" lon="10.4786039"><ele>348.0</ele><time>2026-03-29T07:22:33.646Z</time></trkpt><trkpt lat="45.5678036" lon="10.4786124"><ele>348.0</ele><time>2026-03-29T07:22:34.648Z</time></trkpt><trkpt lat="45.5678969" lon="10.4786444"><ele>348.0</ele><time>2026-03-29T07:22:35.648Z</time></trkpt><trkpt lat="45.5679894" lon="10.4786559"><ele>348.0</ele><time>2026-03-29T07:22:36.667Z</time></trkpt><trkpt lat="45.5680719" lon="10.4786674"><ele>348.0</ele><time>2026-03-29T07:22:37.65Z</time></trkpt><trkpt lat="45.5681532" lon="10.4786825"><ele>348.0</ele><time>2026-03-29T07:22:38.654Z</time></trkpt><trkpt lat="45.5682345" lon="10.4786963"><ele>348.5</ele><time>2026-03-29T07:22:39.651Z</time></trkpt><trkpt lat="45.5683122" lon="10.4786978"><ele>349.0</ele><time>2026-03-29T07:22:40.651Z</time></trkpt><trkpt lat="45.5683892" lon="10.4787065"><ele>349.5</ele><time>2026-03-29T07:22:41.652Z</time></trkpt><trkpt lat="45.5684565" lon="10.4787258"><ele>350.0</ele><time>2026-03-29T07:22:42.65Z</time></trkpt><trkpt lat="45.5685196" lon="10.4787387"><ele>350.5</ele><time>2026-03-29T07:22:43.651Z</time></trkpt><trkpt lat="45.5685903" lon="10.4787355"><ele>351.0</ele><time>2026-03-29T07:22:44.659Z</time></trkpt><trkpt lat="45.5686949" lon="10.4787155"><ele>351.1666666666667</ele><time>2026-03-29T07:22:46.663Z</time></trkpt><trkpt lat="45.5687597" lon="10.4787133"><ele>351.3333333333333</ele><time>2026-03-29T07:22:48.666Z</time></trkpt><trkpt lat="45.5688373" lon="10.478781"><ele>351.5</ele><time>2026-03-29T07:22:53.669Z</time></trkpt><trkpt lat="45.5688777" lon="10.4788984"><ele>351.66666666666663</ele><time>2026-03-29T07:22:55.675Z</time></trkpt><trkpt lat="45.5688885" lon="10.4790291"><ele>351.8333333333333</ele><time>2026-03-29T07:22:57.662Z</time></trkpt><trkpt lat="45.5689109" lon="10.4791482"><ele>352.0</ele><time>2026-03-29T07:22:59.663Z</time></trkpt><trkpt lat="45.5689364" lon="10.4792998"><ele>352.0</ele><time>2026-03-29T07:23:01.648Z</time></trkpt><trkpt lat="45.5689707" lon="10.4794374"><ele>352.0</ele><time>2026-03-29T07:23:03.65Z</time></trkpt><trkpt lat="45.5690261" lon="10.4795347"><ele>352.0</ele><time>2026-03-29T07:23:05.655Z</time></trkpt><trkpt lat="45.569111" lon="10.4795999"><ele>352.0</ele><time>2026-03-29T07:23:07.663Z</time></trkpt><trkpt lat="45.5692123" lon="10.4796351"><ele>352.0</ele><time>2026-03-29T07:23:09.652Z</time></trkpt><trkpt lat="45.569281" lon="10.4797072"><ele>350.5</ele><time>2026-03-29T07:23:11.65Z</time></trkpt><trkpt lat="45.5693425" lon="10.4798053"><ele>349.0</ele><time>2026-03-29T07:23:13.652Z</time></trkpt><trkpt lat="45.5693999" lon="10.4799339"><ele>347.5</ele><time>2026-03-29T07:23:15.66Z</time></trkpt><trkpt lat="45.5694433" lon="10.4800036"><ele>346.0</ele><time>2026-03-29T07:23:16.648Z</time></trkpt><trkpt lat="45.5695128" lon="10.4801291"><ele>344.5</ele><time>2026-03-29T07:23:18.649Z</time></trkpt><trkpt lat="45.5695647" lon="10.4801808"><ele>343.0</ele><time>2026-03-29T07:23:19.653Z</time></trkpt><trkpt lat="45.5696219" lon="10.4802244"><ele>342.4</ele><time>2026-03-29T07:23:20.652Z</time></trkpt><trkpt lat="45.5697427" lon="10.4803027"><ele>341.79999999999995</ele><time>2026-03-29T07:23:22.653Z</time></trkpt><trkpt lat="45.5698023" lon="10.4803452"><ele>341.2</ele><time>2026-03-29T07:23:23.653Z</time></trkpt><trkpt lat="45.5698664" lon="10.4803796"><ele>340.6</ele><time>2026-03-29T07:23:24.652Z</time></trkpt><trkpt lat="45.5699841" lon="10.4804452"><ele>340.0</ele><time>2026-03-29T07:23:26.653Z</time></trkpt><trkpt lat="45.5700944" lon="10.480466"><ele>337.16666666666663</ele><time>2026-03-29T07:23:28.652Z</time></trkpt><trkpt lat="45.5701597" lon="10.4804823"><ele>334.3333333333333</ele><time>2026-03-29T07:23:29.648Z</time></trkpt><trkpt lat="45.5702229" lon="10.4805017"><ele>331.5</ele><time>2026-03-29T07:23:30.644Z</time></trkpt><trkpt lat="45.5702872" lon="10.4805199"><ele>328.6666666666667</ele><time>2026-03-29T07:23:31.647Z</time></trkpt><trkpt lat="45.5704009" lon="10.4805286"><ele>325.83333333333337</ele><time>2026-03-29T07:23:33.651Z</time></trkpt><trkpt lat="45.5704924" lon="10.4805383"><ele>323.0</ele><time>2026-03-29T07:23:35.642Z</time></trkpt><trkpt lat="45.5705962" lon="10.4805917"><ele>322.4</ele><time>2026-03-29T07:23:37.637Z</time></trkpt><trkpt lat="45.570711" lon="10.4806453"><ele>321.79999999999995</ele><time>2026-03-29T07:23:39.634Z</time></trkpt><trkpt lat="45.5707678" lon="10.4806845"><ele>321.2</ele><time>2026-03-29T07:23:40.638Z</time></trkpt><trkpt lat="45.5708572" lon="10.480781"><ele>320.6</ele><time>2026-03-29T07:23:42.635Z</time></trkpt><trkpt lat="45.5709332" lon="10.4809004"><ele>320.0</ele><time>2026-03-29T07:23:44.638Z</time></trkpt><trkpt lat="45.5710045" lon="10.4809712"><ele>320.0</ele><time>2026-03-29T07:23:46.64Z</time></trkpt><trkpt lat="45.5710738" lon="10.4810447"><ele>320.0</ele><time>2026-03-29T07:23:49.654Z</time></trkpt><trkpt lat="45.571079" lon="10.4811367"><ele>320.0</ele><time>2026-03-29T07:23:51.66Z</time></trkpt><trkpt lat="45.5710027" lon="10.4812534"><ele>320.0</ele><time>2026-03-29T07:23:53.639Z</time></trkpt><trkpt lat="45.5709439" lon="10.4812981"><ele>320.0</ele><time>2026-03-29T07:23:54.638Z</time></trkpt><trkpt lat="45.5708721" lon="10.4813258"><ele>320.0</ele><time>2026-03-29T07:23:55.637Z</time></trkpt><trkpt lat="45.5707922" lon="10.4813653"><ele>317.83333333333337</ele><time>2026-03-29T07:23:56.648Z</time></trkpt><trkpt lat="45.5707075" lon="10.4813959"><ele>315.6666666666667</ele><time>2026-03-29T07:23:57.645Z</time></trkpt><trkpt lat="45.5706457" lon="10.481453"><ele>313.5</ele><time>2026-03-29T07:23:58.655Z</time></trkpt><trkpt lat="45.5705888" lon="10.4815266"><ele>311.3333333333333</ele><time>2026-03-29T07:23:59.642Z</time></trkpt><trkpt lat="45.5705565" lon="10.4816347"><ele>309.16666666666663</ele><time>2026-03-29T07:24:00.65Z</time></trkpt><trkpt lat="45.5705422" lon="10.4817701"><ele>307.0</ele><time>2026-03-29T07:24:01.643Z</time></trkpt><trkpt lat="45.5705249" lon="10.4819017"><ele>307.0</ele><time>2026-03-29T07:24:02.641Z</time></trkpt><trkpt lat="45.5705234" lon="10.4820212"><ele>307.0</ele><time>2026-03-29T07:24:03.65Z</time></trkpt><trkpt lat="45.5705267" lon="10.4821215"><ele>307.0</ele><time>2026-03-29T07:24:04.647Z</time></trkpt><trkpt lat="45.5705221" lon="10.4822745"><ele>307.0</ele><time>2026-03-29T07:24:06.637Z</time></trkpt><trkpt lat="45.570536" lon="10.4823807"><ele>307.0</ele><time>2026-03-29T07:24:29.689Z</time></trkpt><trkpt lat="45.5706309" lon="10.4824454"><ele>307.0</ele><time>2026-03-29T07:24:32.669Z</time></trkpt><trkpt lat="45.5707482" lon="10.482461"><ele>306.6</ele><time>2026-03-29T07:24:34.651Z</time></trkpt><trkpt lat="45.5708351" lon="10.482475"><ele>306.2</ele><time>2026-03-29T07:24:35.653Z</time></trkpt><trkpt lat="45.5709402" lon="10.4824922"><ele>305.8</ele><time>2026-03-29T07:24:36.684Z</time></trkpt><trkpt lat="45.5710564" lon="10.4825093"><ele>305.4</ele><time>2026-03-29T07:24:38.745Z</time></trkpt><trkpt lat="45.5711858" lon="10.4825222"><ele>305.0</ele><time>2026-03-29T07:24:39.747Z</time></trkpt><trkpt lat="45.5713281" lon="10.4825318"><ele>303.75</ele><time>2026-03-29T07:24:40.788Z</time></trkpt><trkpt lat="45.5714646" lon="10.4825395"><ele>302.5</ele><time>2026-03-29T07:24:41.749Z</time></trkpt><trkpt lat="45.5716077" lon="10.4825503"><ele>301.25</ele><time>2026-03-29T07:24:42.757Z</time></trkpt><trkpt lat="45.5717391" lon="10.4825546"><ele>300.0</ele><time>2026-03-29T07:24:43.751Z</time></trkpt><trkpt lat="45.5718612" lon="10.4825559"><ele>300.0</ele><time>2026-03-29T07:24:44.75Z</time></trkpt><trkpt lat="45.5719631" lon="10.4825547"><ele>300.0</ele><time>2026-03-29T07:24:45.742Z</time></trkpt><trkpt lat="45.5720548" lon="10.4825521"><ele>300.0</ele><time>2026-03-29T07:24:46.738Z</time></trkpt><trkpt lat="45.572133" lon="10.4825471"><ele>300.0</ele><time>2026-03-29T07:24:47.738Z</time></trkpt><trkpt lat="45.5722121" lon="10.4825421"><ele>300.0</ele><time>2026-03-29T07:24:48.741Z</time></trkpt><trkpt lat="45.5722812" lon="10.4825345"><ele>300.0</ele><time>2026-03-29T07:24:49.733Z</time></trkpt><trkpt lat="45.5723443" lon="10.4825331"><ele>299.6</ele><time>2026-03-29T07:24:50.734Z</time></trkpt><trkpt lat="45.5724339" lon="10.4825432"><ele>299.2</ele><time>2026-03-29T07:24:52.736Z</time></trkpt><trkpt lat="45.5725181" lon="10.4825563"><ele>298.8</ele><time>2026-03-29T07:24:54.739Z</time></trkpt><trkpt lat="45.572598" lon="10.4825548"><ele>298.4</ele><time>2026-03-29T07:24:56.745Z</time></trkpt><trkpt lat="45.5727307" lon="10.4825738"><ele>298.0</ele><time>2026-03-29T07:24:58.737Z</time></trkpt><trkpt lat="45.5728052" lon="10.4825815"><ele>297.1428571428571</ele><time>2026-03-29T07:24:59.727Z</time></trkpt><trkpt lat="45.5728815" lon="10.4825874"><ele>296.2857142857143</ele><time>2026-03-29T07:25:00.732Z</time></trkpt><trkpt lat="45.5729539" lon="10.4825886"><ele>295.42857142857144</ele><time>2026-03-29T07:25:01.75Z</time></trkpt><trkpt lat="45.5730207" lon="10.482588"><ele>294.57142857142856</ele><time>2026-03-29T07:25:02.75Z</time></trkpt><trkpt lat="45.5730989" lon="10.4825891"><ele>293.7142857142857</ele><time>2026-03-29T07:25:03.742Z</time></trkpt><trkpt lat="45.5731684" lon="10.4825934"><ele>292.85714285714283</ele><time>2026-03-29T07:25:04.756Z</time></trkpt><trkpt lat="45.5732447" lon="10.4826014"><ele>292.0</ele><time>2026-03-29T07:25:05.748Z</time></trkpt><trkpt lat="45.5733393" lon="10.4826084"><ele>292.0</ele><time>2026-03-29T07:25:06.742Z</time></trkpt><trkpt lat="45.5734477" lon="10.4826106"><ele>292.0</ele><time>2026-03-29T07:25:07.744Z</time></trkpt><trkpt lat="45.5735685" lon="10.4826178"><ele>292.0</ele><time>2026-03-29T07:25:08.745Z</time></trkpt><trkpt lat="45.5737104" lon="10.4826242"><ele>292.0</ele><time>2026-03-29T07:25:09.75Z</time></trkpt><trkpt lat="45.5738528" lon="10.4826323"><ele>290.66666666666663</ele><time>2026-03-29T07:25:10.769Z</time></trkpt><trkpt lat="45.574004" lon="10.482639"><ele>289.3333333333333</ele><time>2026-03-29T07:25:11.759Z</time></trkpt><trkpt lat="45.5741576" lon="10.4826486"><ele>288.0</ele><time>2026-03-29T07:25:12.758Z</time></trkpt><trkpt lat="45.5743135" lon="10.4826562"><ele>288.0</ele><time>2026-03-29T07:25:13.758Z</time></trkpt><trkpt lat="45.5744666" lon="10.4826625"><ele>288.0</ele><time>2026-03-29T07:25:14.759Z</time></trkpt><trkpt lat="45.5746052" lon="10.4826666"><ele>288.0</ele><time>2026-03-29T07:25:15.758Z</time></trkpt><trkpt lat="45.5747424" lon="10.4826695"><ele>288.0</ele><time>2026-03-29T07:25:16.754Z</time></trkpt><trkpt lat="45.5748783" lon="10.4826686"><ele>288.5</ele><time>2026-03-29T07:25:17.755Z</time></trkpt><trkpt lat="45.5750129" lon="10.4826565"><ele>289.0</ele><time>2026-03-29T07:25:18.749Z</time></trkpt><trkpt lat="45.5751602" lon="10.4826325"><ele>289.5</ele><time>2026-03-29T07:25:19.759Z</time></trkpt><trkpt lat="45.5753122" lon="10.4825998"><ele>290.0</ele><time>2026-03-29T07:25:20.753Z</time></trkpt><trkpt lat="45.5754525" lon="10.4825699"><ele>289.0</ele><time>2026-03-29T07:25:21.754Z</time></trkpt><trkpt lat="45.5755847" lon="10.4825443"><ele>288.0</ele><time>2026-03-29T07:25:22.76Z</time></trkpt><trkpt lat="45.5757021" lon="10.4825183"><ele>287.0</ele><time>2026-03-29T07:25:23.76Z</time></trkpt><trkpt lat="45.5758245" lon="10.4824905"><ele>286.0</ele><time>2026-03-29T07:25:24.754Z</time></trkpt><trkpt lat="45.5759592" lon="10.4824582"><ele>286.0</ele><time>2026-03-29T07:25:25.759Z</time></trkpt><trkpt lat="45.5761027" lon="10.4824288"><ele>286.0</ele><time>2026-03-29T07:25:26.75Z</time></trkpt><trkpt lat="45.5762578" lon="10.4824093"><ele>286.0</ele><time>2026-03-29T07:25:27.757Z</time></trkpt><trkpt lat="45.5764168" lon="10.4823942"><ele>285.5</ele><time>2026-03-29T07:25:28.757Z</time></trkpt><trkpt lat="45.5765674" lon="10.4823756"><ele>285.0</ele><time>2026-03-29T07:25:29.757Z</time></trkpt><trkpt lat="45.5767124" lon="10.4823546"><ele>284.5</ele><time>2026-03-29T07:25:30.765Z</time></trkpt><trkpt lat="45.5768512" lon="10.4823365"><ele>284.0</ele><time>2026-03-29T07:25:31.761Z</time></trkpt><trkpt lat="45.576992" lon="10.4823185"><ele>283.5</ele><time>2026-03-29T07:25:32.756Z</time></trkpt><trkpt lat="45.5771358" lon="10.4823024"><ele>283.0</ele><time>2026-03-29T07:25:33.756Z</time></trkpt><trkpt lat="45.577269" lon="10.482293"><ele>282.5</ele><time>2026-03-29T07:25:34.757Z</time></trkpt><trkpt lat="45.5773907" lon="10.4822875"><ele>282.0</ele><time>2026-03-29T07:25:35.765Z</time></trkpt><trkpt lat="45.5775214" lon="10.4822813"><ele>282.0</ele><time>2026-03-29T07:25:36.76Z</time></trkpt><trkpt lat="45.5776591" lon="10.4822765"><ele>282.0</ele><time>2026-03-29T07:25:37.756Z</time></trkpt><trkpt lat="45.5778038" lon="10.4822746"><ele>282.0</ele><time>2026-03-29T07:25:38.757Z</time></trkpt><trkpt lat="45.5779546" lon="10.4822722"><ele>282.0</ele><time>2026-03-29T07:25:39.758Z</time></trkpt><trkpt lat="45.5781124" lon="10.4822705"><ele>280.6666666666667</ele><time>2026-03-29T07:25:40.762Z</time></trkpt><trkpt lat="45.5782779" lon="10.4822699"><ele>279.33333333333337</ele><time>2026-03-29T07:25:41.776Z</time></trkpt><trkpt lat="45.5784461" lon="10.4822688"><ele>278.0</ele><time>2026-03-29T07:25:42.762Z</time></trkpt><trkpt lat="45.5786144" lon="10.4822675"><ele>277.0</ele><time>2026-03-29T07:25:43.771Z</time></trkpt><trkpt lat="45.5787847" lon="10.482266"><ele>276.0</ele><time>2026-03-29T07:25:44.757Z</time></trkpt><trkpt lat="45.5789489" lon="10.4822687"><ele>275.0</ele><time>2026-03-29T07:25:45.753Z</time></trkpt><trkpt lat="45.5791107" lon="10.4822794"><ele>275.0</ele><time>2026-03-29T07:25:46.756Z</time></trkpt><trkpt lat="45.5792709" lon="10.4822989"><ele>275.0</ele><time>2026-03-29T07:25:47.753Z</time></trkpt><trkpt lat="45.5794326" lon="10.4823324"><ele>275.0</ele><time>2026-03-29T07:25:48.755Z</time></trkpt><trkpt lat="45.5795963" lon="10.4823784"><ele>274.0</ele><time>2026-03-29T07:25:49.768Z</time></trkpt><trkpt lat="45.5797665" lon="10.4824346"><ele>273.0</ele><time>2026-03-29T07:25:50.762Z</time></trkpt><trkpt lat="45.5799401" lon="10.4825027"><ele>272.0</ele><time>2026-03-29T07:25:51.768Z</time></trkpt><trkpt lat="45.5801162" lon="10.482578"><ele>272.0</ele><time>2026-03-29T07:25:52.766Z</time></trkpt><trkpt lat="45.5802743" lon="10.4826524"><ele>272.0</ele><time>2026-03-29T07:25:53.762Z</time></trkpt><trkpt lat="45.5804222" lon="10.4827241"><ele>272.0</ele><time>2026-03-29T07:25:54.761Z</time></trkpt><trkpt lat="45.5805765" lon="10.482795"><ele>272.0</ele><time>2026-03-29T07:25:55.767Z</time></trkpt><trkpt lat="45.5807258" lon="10.4828628"><ele>272.0</ele><time>2026-03-29T07:25:56.765Z</time></trkpt><trkpt lat="45.5808676" lon="10.4829258"><ele>272.0</ele><time>2026-03-29T07:25:57.769Z</time></trkpt><trkpt lat="45.5809922" lon="10.4829816"><ele>272.0</ele><time>2026-03-29T07:25:58.767Z</time></trkpt><trkpt lat="45.5810987" lon="10.4830292"><ele>272.1666666666667</ele><time>2026-03-29T07:25:59.764Z</time></trkpt><trkpt lat="45.5811917" lon="10.4830739"><ele>272.33333333333337</ele><time>2026-03-29T07:26:00.756Z</time></trkpt><trkpt lat="45.5812631" lon="10.4831076"><ele>272.5</ele><time>2026-03-29T07:26:01.757Z</time></trkpt><trkpt lat="45.5813642" lon="10.4831515"><ele>272.6666666666667</ele><time>2026-03-29T07:26:03.758Z</time></trkpt><trkpt lat="45.5814338" lon="10.483134"><ele>272.8333333333333</ele><time>2026-03-29T07:26:09.751Z</time></trkpt><trkpt lat="45.5814729" lon="10.4830249"><ele>273.0</ele><time>2026-03-29T07:26:11.771Z</time></trkpt><trkpt lat="45.5814975" lon="10.4829254"><ele>273.0</ele><time>2026-03-29T07:26:12.751Z</time></trkpt><trkpt lat="45.5815267" lon="10.4828073"><ele>273.0</ele><time>2026-03-29T07:26:13.743Z</time></trkpt><trkpt lat="45.5815583" lon="10.4826514"><ele>273.0</ele><time>2026-03-29T07:26:14.727Z</time></trkpt><trkpt lat="45.5816106" lon="10.4824492"><ele>273.0</ele><time>2026-03-29T07:26:15.725Z</time></trkpt><trkpt lat="45.5816701" lon="10.4822451"><ele>273.0</ele><time>2026-03-29T07:26:16.749Z</time></trkpt><trkpt lat="45.5817408" lon="10.4820261"><ele>273.0</ele><time>2026-03-29T07:26:17.754Z</time></trkpt><trkpt lat="45.5818092" lon="10.4818001"><ele>273.0</ele><time>2026-03-29T07:26:18.757Z</time></trkpt><trkpt lat="45.581879" lon="10.4815649"><ele>273.0</ele><time>2026-03-29T07:26:19.756Z</time></trkpt><trkpt lat="45.5819513" lon="10.481325"><ele>273.0</ele><time>2026-03-29T07:26:20.752Z</time></trkpt><trkpt lat="45.5820234" lon="10.481084"><ele>273.0</ele><time>2026-03-29T07:26:21.762Z</time></trkpt><trkpt lat="45.5820982" lon="10.4808417"><ele>274.3333333333333</ele><time>2026-03-29T07:26:22.75Z</time></trkpt><trkpt lat="45.5821741" lon="10.4806044"><ele>275.66666666666663</ele><time>2026-03-29T07:26:23.746Z</time></trkpt><trkpt lat="45.582245" lon="10.4803868"><ele>277.0</ele><time>2026-03-29T07:26:24.754Z</time></trkpt><trkpt lat="45.5823105" lon="10.4801778"><ele>277.0</ele><time>2026-03-29T07:26:25.755Z</time></trkpt><trkpt lat="45.5823636" lon="10.4799682"><ele>277.0</ele><time>2026-03-29T07:26:26.744Z</time></trkpt><trkpt lat="45.5824023" lon="10.4797666"><ele>277.0</ele><time>2026-03-29T07:26:27.762Z</time></trkpt><trkpt lat="45.5824201" lon="10.4795759"><ele>277.0</ele><time>2026-03-29T07:26:28.724Z</time></trkpt><trkpt lat="45.5824096" lon="10.4793891"><ele>277.0</ele><time>2026-03-29T07:26:29.73Z</time></trkpt><trkpt lat="45.5823739" lon="10.4791997"><ele>277.0</ele><time>2026-03-29T07:26:30.731Z</time></trkpt><trkpt lat="45.5823314" lon="10.4789986"><ele>277.0</ele><time>2026-03-29T07:26:31.738Z</time></trkpt><trkpt lat="45.5822819" lon="10.4787845"><ele>277.0</ele><time>2026-03-29T07:26:32.753Z</time></trkpt><trkpt lat="45.5822208" lon="10.4785782"><ele>278.66666666666663</ele><time>2026-03-29T07:26:33.743Z</time></trkpt><trkpt lat="45.582149" lon="10.4783846"><ele>280.3333333333333</ele><time>2026-03-29T07:26:34.743Z</time></trkpt><trkpt lat="45.5820653" lon="10.4781994"><ele>282.0</ele><time>2026-03-29T07:26:35.716Z</time></trkpt><trkpt lat="45.5819688" lon="10.4780213"><ele>280.25</ele><time>2026-03-29T07:26:36.708Z</time></trkpt><trkpt lat="45.5818618" lon="10.4778736"><ele>278.5</ele><time>2026-03-29T07:26:37.709Z</time></trkpt><trkpt lat="45.581757" lon="10.4777523"><ele>276.75</ele><time>2026-03-29T07:26:38.711Z</time></trkpt><trkpt lat="45.5816513" lon="10.4776504"><ele>275.0</ele><time>2026-03-29T07:26:39.731Z</time></trkpt><trkpt lat="45.5815452" lon="10.4775525"><ele>275.0</ele><time>2026-03-29T07:26:40.736Z</time></trkpt><trkpt lat="45.581448" lon="10.4774708"><ele>275.0</ele><time>2026-03-29T07:26:41.74Z</time></trkpt><trkpt lat="45.5813569" lon="10.4773802"><ele>275.0</ele><time>2026-03-29T07:26:42.746Z</time></trkpt><trkpt lat="45.5812812" lon="10.4772684"><ele>275.0</ele><time>2026-03-29T07:26:43.758Z</time></trkpt><trkpt lat="45.5812352" lon="10.4771414"><ele>275.0</ele><time>2026-03-29T07:26:44.726Z</time></trkpt><trkpt lat="45.5812146" lon="10.4770006"><ele>274.5</ele><time>2026-03-29T07:26:45.734Z</time></trkpt><trkpt lat="45.5812074" lon="10.4768423"><ele>274.0</ele><time>2026-03-29T07:26:46.726Z</time></trkpt><trkpt lat="45.5812014" lon="10.4766577"><ele>273.5</ele><time>2026-03-29T07:26:47.723Z</time></trkpt><trkpt lat="45.5811766" lon="10.4764575"><ele>273.0</ele><time>2026-03-29T07:26:48.743Z</time></trkpt><trkpt lat="45.5811692" lon="10.4762651"><ele>271.0</ele><time>2026-03-29T07:26:49.746Z</time></trkpt><trkpt lat="45.5811128" lon="10.4758996"><ele>269.0</ele><time>2026-03-29T07:26:50.661Z</time></trkpt><trkpt lat="45.5811174" lon="10.4757191"><ele>267.0</ele><time>2026-03-29T07:26:51.663Z</time></trkpt><trkpt lat="45.5811371" lon="10.47553"><ele>267.0</ele><time>2026-03-29T07:26:52.661Z</time></trkpt><trkpt lat="45.5811657" lon="10.4753272"><ele>267.0</ele><time>2026-03-29T07:26:53.665Z</time></trkpt><trkpt lat="45.5812038" lon="10.4751101"><ele>267.0</ele><time>2026-03-29T07:26:54.659Z</time></trkpt><trkpt lat="45.5812298" lon="10.4749288"><ele>267.0</ele><time>2026-03-29T07:26:55.67Z</time></trkpt><trkpt lat="45.5812682" lon="10.4747531"><ele>267.0</ele><time>2026-03-29T07:26:56.66Z</time></trkpt><trkpt lat="45.5813168" lon="10.4745725"><ele>267.0</ele><time>2026-03-29T07:26:57.657Z</time></trkpt><trkpt lat="45.5813035" lon="10.4744207"><ele>267.0</ele><time>2026-03-29T07:26:58.654Z</time></trkpt><trkpt lat="45.5813131" lon="10.4742372"><ele>267.0</ele><time>2026-03-29T07:26:59.651Z</time></trkpt><trkpt lat="45.5813245" lon="10.4740687"><ele>267.0</ele><time>2026-03-29T07:27:00.655Z</time></trkpt><trkpt lat="45.5813131" lon="10.4739037"><ele>267.0</ele><time>2026-03-29T07:27:01.66Z</time></trkpt><trkpt lat="45.5813189" lon="10.4737414"><ele>267.0</ele><time>2026-03-29T07:27:02.661Z</time></trkpt><trkpt lat="45.5813368" lon="10.4735807"><ele>267.0</ele><time>2026-03-29T07:27:03.657Z</time></trkpt><trkpt lat="45.5813768" lon="10.4734209"><ele>265.5</ele><time>2026-03-29T07:27:04.66Z</time></trkpt><trkpt lat="45.5814398" lon="10.4732553"><ele>264.0</ele><time>2026-03-29T07:27:05.659Z</time></trkpt><trkpt lat="45.5815226" lon="10.4731046"><ele>262.5</ele><time>2026-03-29T07:27:06.664Z</time></trkpt><trkpt lat="45.581601" lon="10.4729699"><ele>261.0</ele><time>2026-03-29T07:27:07.669Z</time></trkpt><trkpt lat="45.5816998" lon="10.4728493"><ele>261.5</ele><time>2026-03-29T07:27:08.664Z</time></trkpt><trkpt lat="45.5818083" lon="10.4727429"><ele>262.0</ele><time>2026-03-29T07:27:09.671Z</time></trkpt><trkpt lat="45.5819281" lon="10.4726397"><ele>262.5</ele><time>2026-03-29T07:27:10.67Z</time></trkpt><trkpt lat="45.5820503" lon="10.4725356"><ele>263.0</ele><time>2026-03-29T07:27:11.669Z</time></trkpt><trkpt lat="45.5821781" lon="10.4724354"><ele>263.0</ele><time>2026-03-29T07:27:12.667Z</time></trkpt><trkpt lat="45.5823092" lon="10.4723264"><ele>263.0</ele><time>2026-03-29T07:27:13.673Z</time></trkpt><trkpt lat="45.5824403" lon="10.4722222"><ele>263.0</ele><time>2026-03-29T07:27:14.689Z</time></trkpt><trkpt lat="45.5825702" lon="10.4721204"><ele>261.0</ele><time>2026-03-29T07:27:15.672Z</time></trkpt><trkpt lat="45.5826909" lon="10.47201"><ele>259.0</ele><time>2026-03-29T07:27:16.68Z</time></trkpt><trkpt lat="45.5828227" lon="10.4718693"><ele>257.0</ele><time>2026-03-29T07:27:17.658Z</time></trkpt><trkpt lat="45.5829386" lon="10.4717087"><ele>257.75</ele><time>2026-03-29T07:27:18.659Z</time></trkpt><trkpt lat="45.5830416" lon="10.4715606"><ele>258.5</ele><time>2026-03-29T07:27:19.663Z</time></trkpt><trkpt lat="45.5831288" lon="10.4713924"><ele>259.25</ele><time>2026-03-29T07:27:20.663Z</time></trkpt><trkpt lat="45.5831935" lon="10.4712238"><ele>260.0</ele><time>2026-03-29T07:27:21.661Z</time></trkpt><trkpt lat="45.583279" lon="10.4710934"><ele>260.0</ele><time>2026-03-29T07:27:22.664Z</time></trkpt><trkpt lat="45.5833599" lon="10.4709677"><ele>260.0</ele><time>2026-03-29T07:27:23.657Z</time></trkpt><trkpt lat="45.5834471" lon="10.4708551"><ele>260.0</ele><time>2026-03-29T07:27:24.668Z</time></trkpt><trkpt lat="45.583522" lon="10.4707355"><ele>260.0</ele><time>2026-03-29T07:27:25.671Z</time></trkpt><trkpt lat="45.5835857" lon="10.4706278"><ele>260.0</ele><time>2026-03-29T07:27:26.667Z</time></trkpt><trkpt lat="45.5836654" lon="10.4705209"><ele>259.25</ele><time>2026-03-29T07:27:27.669Z</time></trkpt><trkpt lat="45.5837742" lon="10.4704244"><ele>258.5</ele><time>2026-03-29T07:27:28.658Z</time></trkpt><trkpt lat="45.583897" lon="10.4703334"><ele>257.75</ele><time>2026-03-29T07:27:29.669Z</time></trkpt><trkpt lat="45.5840325" lon="10.4702496"><ele>257.0</ele><time>2026-03-29T07:27:30.669Z</time></trkpt><trkpt lat="45.5841689" lon="10.470146"><ele>257.0</ele><time>2026-03-29T07:27:31.669Z</time></trkpt><trkpt lat="45.5842969" lon="10.4700483"><ele>257.0</ele><time>2026-03-29T07:27:32.666Z</time></trkpt><trkpt lat="45.5844374" lon="10.469955"><ele>257.0</ele><time>2026-03-29T07:27:33.668Z</time></trkpt><trkpt lat="45.5845754" lon="10.4698578"><ele>257.25</ele><time>2026-03-29T07:27:34.666Z</time></trkpt><trkpt lat="45.5846993" lon="10.4697473"><ele>257.5</ele><time>2026-03-29T07:27:35.676Z</time></trkpt><trkpt lat="45.584814" lon="10.4696226"><ele>257.75</ele><time>2026-03-29T07:27:36.666Z</time></trkpt><trkpt lat="45.5849232" lon="10.4694833"><ele>258.0</ele><time>2026-03-29T07:27:37.658Z</time></trkpt><trkpt lat="45.5850252" lon="10.4693411"><ele>257.0</ele><time>2026-03-29T07:27:38.66Z</time></trkpt><trkpt lat="45.5851294" lon="10.4691907"><ele>256.0</ele><time>2026-03-29T07:27:39.661Z</time></trkpt><trkpt lat="45.5852391" lon="10.4690377"><ele>255.0</ele><time>2026-03-29T07:27:40.665Z</time></trkpt><trkpt lat="45.585323" lon="10.4688475"><ele>252.66666666666669</ele><time>2026-03-29T07:27:41.664Z</time></trkpt><trkpt lat="45.5854018" lon="10.4686422"><ele>250.33333333333334</ele><time>2026-03-29T07:27:42.663Z</time></trkpt><trkpt lat="45.5854787" lon="10.4684278"><ele>248.0</ele><time>2026-03-29T07:27:43.672Z</time></trkpt><trkpt lat="45.5855754" lon="10.4682118"><ele>248.0</ele><time>2026-03-29T07:27:44.663Z</time></trkpt><trkpt lat="45.5856563" lon="10.4680048"><ele>248.0</ele><time>2026-03-29T07:27:45.685Z</time></trkpt><trkpt lat="45.5857537" lon="10.4678044"><ele>248.0</ele><time>2026-03-29T07:27:46.668Z</time></trkpt><trkpt lat="45.5858349" lon="10.4676228"><ele>248.0</ele><time>2026-03-29T07:27:47.666Z</time></trkpt><trkpt lat="45.5859183" lon="10.4674261"><ele>248.0</ele><time>2026-03-29T07:27:48.665Z</time></trkpt><trkpt lat="45.586004" lon="10.4672503"><ele>248.0</ele><time>2026-03-29T07:27:49.666Z</time></trkpt><trkpt lat="45.5861117" lon="10.4670862"><ele>250.33333333333334</ele><time>2026-03-29T07:27:50.66Z</time></trkpt><trkpt lat="45.5862404" lon="10.4669165"><ele>252.66666666666669</ele><time>2026-03-29T07:27:51.665Z</time></trkpt><trkpt lat="45.5863642" lon="10.4667423"><ele>255.0</ele><time>2026-03-29T07:27:52.672Z</time></trkpt><trkpt lat="45.5864934" lon="10.4665645"><ele>255.0</ele><time>2026-03-29T07:27:53.669Z</time></trkpt><trkpt lat="45.5866095" lon="10.4664139"><ele>255.0</ele><time>2026-03-29T07:27:54.671Z</time></trkpt><trkpt lat="45.5867288" lon="10.4662744"><ele>255.0</ele><time>2026-03-29T07:27:55.666Z</time></trkpt><trkpt lat="45.5868256" lon="10.4661297"><ele>255.75</ele><time>2026-03-29T07:27:56.668Z</time></trkpt><trkpt lat="45.5869333" lon="10.4659812"><ele>256.5</ele><time>2026-03-29T07:27:57.677Z</time></trkpt><trkpt lat="45.5870373" lon="10.4658325"><ele>257.25</ele><time>2026-03-29T07:27:58.67Z</time></trkpt><trkpt lat="45.587137" lon="10.4657012"><ele>258.0</ele><time>2026-03-29T07:27:59.679Z</time></trkpt><trkpt lat="45.5872365" lon="10.4655657"><ele>258.75</ele><time>2026-03-29T07:28:00.669Z</time></trkpt><trkpt lat="45.5873405" lon="10.4654336"><ele>259.5</ele><time>2026-03-29T07:28:01.676Z</time></trkpt><trkpt lat="45.587435" lon="10.4653076"><ele>260.25</ele><time>2026-03-29T07:28:02.667Z</time></trkpt><trkpt lat="45.5875156" lon="10.4651878"><ele>261.0</ele><time>2026-03-29T07:28:03.66Z</time></trkpt><trkpt lat="45.5875678" lon="10.4651005"><ele>261.0</ele><time>2026-03-29T07:28:04.667Z</time></trkpt><trkpt lat="45.5876396" lon="10.4650161"><ele>261.0</ele><time>2026-03-29T07:28:05.667Z</time></trkpt><trkpt lat="45.5877079" lon="10.4649147"><ele>261.0</ele><time>2026-03-29T07:28:06.673Z</time></trkpt><trkpt lat="45.5877789" lon="10.4648209"><ele>261.0</ele><time>2026-03-29T07:28:07.664Z</time></trkpt><trkpt lat="45.5878331" lon="10.4647556"><ele>261.0</ele><time>2026-03-29T07:28:08.66Z</time></trkpt><trkpt lat="45.5879246" lon="10.4646618"><ele>261.6666666666667</ele><time>2026-03-29T07:28:10.665Z</time></trkpt><trkpt lat="45.5880219" lon="10.4645553"><ele>262.3333333333333</ele><time>2026-03-29T07:28:12.674Z</time></trkpt><trkpt lat="45.5880833" lon="10.4644675"><ele>263.0</ele><time>2026-03-29T07:28:14.68Z</time></trkpt><trkpt lat="45.5881403" lon="10.4643946"><ele>263.66666666666663</ele><time>2026-03-29T07:28:16.698Z</time></trkpt><trkpt lat="45.5881577" lon="10.4643002"><ele>264.3333333333333</ele><time>2026-03-29T07:28:28.654Z</time></trkpt><trkpt lat="45.5880848" lon="10.464366"><ele>265.0</ele><time>2026-03-29T07:28:31.653Z</time></trkpt><trkpt lat="45.5880331" lon="10.4644437"><ele>265.0</ele><time>2026-03-29T07:28:32.674Z</time></trkpt><trkpt lat="45.5879805" lon="10.4645175"><ele>265.0</ele><time>2026-03-29T07:28:33.666Z</time></trkpt><trkpt lat="45.5879206" lon="10.464593"><ele>265.0</ele><time>2026-03-29T07:28:34.674Z</time></trkpt><trkpt lat="45.5878563" lon="10.4646812"><ele>265.0</ele><time>2026-03-29T07:28:36.673Z</time></trkpt><trkpt lat="45.5878216" lon="10.464783"><ele>265.0</ele><time>2026-03-29T07:28:39.685Z</time></trkpt><trkpt lat="45.5878055" lon="10.4649087"><ele>265.0</ele><time>2026-03-29T07:28:42.678Z</time></trkpt><trkpt lat="45.5878741" lon="10.4650479"><ele>265.16666666666663</ele><time>2026-03-29T07:28:44.687Z</time></trkpt><trkpt lat="45.5879325" lon="10.4651456"><ele>265.3333333333333</ele><time>2026-03-29T07:28:45.664Z</time></trkpt><trkpt lat="45.5879995" lon="10.4652435"><ele>265.5</ele><time>2026-03-29T07:28:46.665Z</time></trkpt><trkpt lat="45.5880485" lon="10.4653188"><ele>265.6666666666667</ele><time>2026-03-29T07:28:47.679Z</time></trkpt><trkpt lat="45.588116" lon="10.4654094"><ele>265.83333333333337</ele><time>2026-03-29T07:28:49.67Z</time></trkpt><trkpt lat="45.5881325" lon="10.4655149"><ele>266.0</ele><time>2026-03-29T07:28:59.671Z</time></trkpt><trkpt lat="45.5880753" lon="10.4656751"><ele>266.5</ele><time>2026-03-29T07:29:01.669Z</time></trkpt><trkpt lat="45.5880154" lon="10.4658112"><ele>267.0</ele><time>2026-03-29T07:29:02.662Z</time></trkpt><trkpt lat="45.5879322" lon="10.465951"><ele>267.5</ele><time>2026-03-29T07:29:03.667Z</time></trkpt><trkpt lat="45.5878615" lon="10.4660966"><ele>268.0</ele><time>2026-03-29T07:29:04.666Z</time></trkpt><trkpt lat="45.5877853" lon="10.4662498"><ele>266.75</ele><time>2026-03-29T07:29:05.68Z</time></trkpt><trkpt lat="45.5877048" lon="10.4663939"><ele>265.5</ele><time>2026-03-29T07:29:06.669Z</time></trkpt><trkpt lat="45.5876386" lon="10.4665315"><ele>264.25</ele><time>2026-03-29T07:29:07.67Z</time></trkpt><trkpt lat="45.5875764" lon="10.4666517"><ele>263.0</ele><time>2026-03-29T07:29:08.668Z</time></trkpt><trkpt lat="45.5875248" lon="10.4667735"><ele>263.0</ele><time>2026-03-29T07:29:09.662Z</time></trkpt><trkpt lat="45.5874886" lon="10.4669133"><ele>263.0</ele><time>2026-03-29T07:29:10.66Z</time></trkpt><trkpt lat="45.5874728" lon="10.4670627"><ele>263.0</ele><time>2026-03-29T07:29:11.662Z</time></trkpt><trkpt lat="45.587461" lon="10.4672016"><ele>263.0</ele><time>2026-03-29T07:29:12.665Z</time></trkpt><trkpt lat="45.5874566" lon="10.467307"><ele>263.0</ele><time>2026-03-29T07:29:13.666Z</time></trkpt><trkpt lat="45.58747" lon="10.4674193"><ele>263.4</ele><time>2026-03-29T07:29:14.664Z</time></trkpt><trkpt lat="45.5874928" lon="10.4675372"><ele>263.8</ele><time>2026-03-29T07:29:15.668Z</time></trkpt><trkpt lat="45.5875263" lon="10.4676658"><ele>264.2</ele><time>2026-03-29T07:29:16.664Z</time></trkpt><trkpt lat="45.5875721" lon="10.4677963"><ele>264.6</ele><time>2026-03-29T07:29:17.661Z</time></trkpt><trkpt lat="45.5876318" lon="10.4679165"><ele>265.0</ele><time>2026-03-29T07:29:18.678Z</time></trkpt><trkpt lat="45.5877028" lon="10.4680172"><ele>265.0</ele><time>2026-03-29T07:29:19.655Z</time></trkpt><trkpt lat="45.5877862" lon="10.4681099"><ele>265.0</ele><time>2026-03-29T07:29:20.663Z</time></trkpt><trkpt lat="45.5878762" lon="10.4681747"><ele>265.0</ele><time>2026-03-29T07:29:21.655Z</time></trkpt><trkpt lat="45.5879574" lon="10.4682159"><ele>265.0</ele><time>2026-03-29T07:29:22.65Z</time></trkpt><trkpt lat="45.5880247" lon="10.4682487"><ele>265.0</ele><time>2026-03-29T07:29:23.651Z</time></trkpt><trkpt lat="45.5880853" lon="10.4683104"><ele>265.0</ele><time>2026-03-29T07:29:24.656Z</time></trkpt><trkpt lat="45.5881362" lon="10.4683936"><ele>265.0</ele><time>2026-03-29T07:29:25.652Z</time></trkpt><trkpt lat="45.5881794" lon="10.4684815"><ele>265.0</ele><time>2026-03-29T07:29:26.663Z</time></trkpt><trkpt lat="45.5882182" lon="10.4685959"><ele>265.0</ele><time>2026-03-29T07:29:27.66Z</time></trkpt><trkpt lat="45.5882657" lon="10.4687371"><ele>265.0</ele><time>2026-03-29T07:29:28.656Z</time></trkpt><trkpt lat="45.5883215" lon="10.4688881"><ele>265.0</ele><time>2026-03-29T07:29:29.66Z</time></trkpt><trkpt lat="45.5883745" lon="10.4690288"><ele>263.8</ele><time>2026-03-29T07:29:30.647Z</time></trkpt><trkpt lat="45.5884141" lon="10.4691705"><ele>262.6</ele><time>2026-03-29T07:29:31.67Z</time></trkpt><trkpt lat="45.5884476" lon="10.4693178"><ele>261.4</ele><time>2026-03-29T07:29:32.664Z</time></trkpt><trkpt lat="45.588478" lon="10.4694694"><ele>260.2</ele><time>2026-03-29T07:29:33.662Z</time></trkpt><trkpt lat="45.588516" lon="10.4696211"><ele>259.0</ele><time>2026-03-29T07:29:34.66Z</time></trkpt><trkpt lat="45.5885583" lon="10.4697468"><ele>258.66666666666663</ele><time>2026-03-29T07:29:35.656Z</time></trkpt><trkpt lat="45.5886003" lon="10.4698619"><ele>258.3333333333333</ele><time>2026-03-29T07:29:36.656Z</time></trkpt><trkpt lat="45.5886347" lon="10.4699549"><ele>258.0</ele><time>2026-03-29T07:29:37.658Z</time></trkpt><trkpt lat="45.5886875" lon="10.470108"><ele>257.6666666666667</ele><time>2026-03-29T07:29:39.674Z</time></trkpt><trkpt lat="45.5886982" lon="10.4702063"><ele>257.33333333333337</ele><time>2026-03-29T07:29:40.666Z</time></trkpt><trkpt lat="45.5887035" lon="10.4703078"><ele>257.0</ele><time>2026-03-29T07:29:41.67Z</time></trkpt><trkpt lat="45.5887076" lon="10.470426"><ele>258.0</ele><time>2026-03-29T07:29:42.665Z</time></trkpt><trkpt lat="45.5887191" lon="10.4705435"><ele>259.0</ele><time>2026-03-29T07:29:43.664Z</time></trkpt><trkpt lat="45.5887431" lon="10.470654"><ele>260.0</ele><time>2026-03-29T07:29:44.662Z</time></trkpt><trkpt lat="45.5887666" lon="10.4707477"><ele>261.0</ele><time>2026-03-29T07:29:45.664Z</time></trkpt><trkpt lat="45.5887798" lon="10.4709257"><ele>262.0</ele><time>2026-03-29T07:29:47.665Z</time></trkpt><trkpt lat="45.5887855" lon="10.4710508"><ele>263.0</ele><time>2026-03-29T07:29:48.662Z</time></trkpt><trkpt lat="45.5887796" lon="10.4712057"><ele>263.25</ele><time>2026-03-29T07:29:49.674Z</time></trkpt><trkpt lat="45.5887775" lon="10.4713551"><ele>263.5</ele><time>2026-03-29T07:29:50.662Z</time></trkpt><trkpt lat="45.5887779" lon="10.4715201"><ele>263.75</ele><time>2026-03-29T07:29:51.673Z</time></trkpt><trkpt lat="45.5887611" lon="10.4716893"><ele>264.0</ele><time>2026-03-29T07:29:52.662Z</time></trkpt><trkpt lat="45.588755" lon="10.4718648"><ele>264.0</ele><time>2026-03-29T07:29:53.661Z</time></trkpt><trkpt lat="45.5887646" lon="10.4720573"><ele>264.0</ele><time>2026-03-29T07:29:54.663Z</time></trkpt><trkpt lat="45.5887803" lon="10.4722404"><ele>264.0</ele><time>2026-03-29T07:29:55.662Z</time></trkpt><trkpt lat="45.5888034" lon="10.4724317"><ele>264.0</ele><time>2026-03-29T07:29:56.659Z</time></trkpt><trkpt lat="45.5888286" lon="10.4726136"><ele>264.4</ele><time>2026-03-29T07:29:57.669Z</time></trkpt><trkpt lat="45.5888529" lon="10.4727861"><ele>264.79999999999995</ele><time>2026-03-29T07:29:58.661Z</time></trkpt><trkpt lat="45.5888847" lon="10.4729487"><ele>265.20000000000005</ele><time>2026-03-29T07:29:59.658Z</time></trkpt><trkpt lat="45.5889152" lon="10.4730941"><ele>265.6</ele><time>2026-03-29T07:30:00.655Z</time></trkpt><trkpt lat="45.5889424" lon="10.47323"><ele>266.0</ele><time>2026-03-29T07:30:01.66Z</time></trkpt><trkpt lat="45.5889646" lon="10.4733773"><ele>266.0</ele><time>2026-03-29T07:30:02.656Z</time></trkpt><trkpt lat="45.5889834" lon="10.4735168"><ele>266.0</ele><time>2026-03-29T07:30:03.651Z</time></trkpt><trkpt lat="45.5889966" lon="10.4736531"><ele>266.0</ele><time>2026-03-29T07:30:04.653Z</time></trkpt><trkpt lat="45.5889889" lon="10.4737967"><ele>266.0</ele><time>2026-03-29T07:30:05.647Z</time></trkpt><trkpt lat="45.5889718" lon="10.473942"><ele>266.0</ele><time>2026-03-29T07:30:06.666Z</time></trkpt><trkpt lat="45.588949" lon="10.4741086"><ele>266.0</ele><time>2026-03-29T07:30:07.655Z</time></trkpt><trkpt lat="45.5889302" lon="10.4742694"><ele>266.0</ele><time>2026-03-29T07:30:08.658Z</time></trkpt><trkpt lat="45.5889101" lon="10.4744268"><ele>266.0</ele><time>2026-03-29T07:30:09.658Z</time></trkpt><trkpt lat="45.5888983" lon="10.4745711"><ele>266.0</ele><time>2026-03-29T07:30:10.659Z</time></trkpt><trkpt lat="45.5888863" lon="10.4747192"><ele>266.0</ele><time>2026-03-29T07:30:11.659Z</time></trkpt><trkpt lat="45.5888865" lon="10.4748719"><ele>265.8</ele><time>2026-03-29T07:30:12.66Z</time></trkpt><trkpt lat="45.5889022" lon="10.4750164"><ele>265.6</ele><time>2026-03-29T07:30:13.655Z</time></trkpt><trkpt lat="45.5889134" lon="10.4751321"><ele>265.4</ele><time>2026-03-29T07:30:14.652Z</time></trkpt><trkpt lat="45.5889269" lon="10.4752537"><ele>265.2</ele><time>2026-03-29T07:30:15.659Z</time></trkpt><trkpt lat="45.5889241" lon="10.4753786"><ele>265.0</ele><time>2026-03-29T07:30:16.662Z</time></trkpt><trkpt lat="45.5889029" lon="10.4755127"><ele>265.0</ele><time>2026-03-29T07:30:17.657Z</time></trkpt><trkpt lat="45.5888618" lon="10.4756449"><ele>265.0</ele><time>2026-03-29T07:30:18.658Z</time></trkpt><trkpt lat="45.5888348" lon="10.4757516"><ele>265.0</ele><time>2026-03-29T07:30:19.663Z</time></trkpt><trkpt lat="45.5888192" lon="10.4758396"><ele>265.0</ele><time>2026-03-29T07:30:20.682Z</time></trkpt><trkpt lat="45.5888167" lon="10.4759312"><ele>265.0</ele><time>2026-03-29T07:30:21.661Z</time></trkpt><trkpt lat="45.5888332" lon="10.4760498"><ele>265.0</ele><time>2026-03-29T07:30:22.664Z</time></trkpt><trkpt lat="45.5888624" lon="10.476185"><ele>265.25</ele><time>2026-03-29T07:30:23.666Z</time></trkpt><trkpt lat="45.5889098" lon="10.476351"><ele>265.5</ele><time>2026-03-29T07:30:24.668Z</time></trkpt><trkpt lat="45.5889433" lon="10.476511"><ele>265.75</ele><time>2026-03-29T07:30:25.666Z</time></trkpt><trkpt lat="45.5889636" lon="10.4766768"><ele>266.0</ele><time>2026-03-29T07:30:26.662Z</time></trkpt><trkpt lat="45.5889782" lon="10.4768521"><ele>266.0</ele><time>2026-03-29T07:30:27.665Z</time></trkpt><trkpt lat="45.5889843" lon="10.4770205"><ele>266.0</ele><time>2026-03-29T07:30:28.668Z</time></trkpt><trkpt lat="45.5889999" lon="10.4771752"><ele>266.0</ele><time>2026-03-29T07:30:29.667Z</time></trkpt><trkpt lat="45.5890112" lon="10.4773289"><ele>266.0</ele><time>2026-03-29T07:30:30.664Z</time></trkpt><trkpt lat="45.5890098" lon="10.4774655"><ele>266.0</ele><time>2026-03-29T07:30:31.665Z</time></trkpt><trkpt lat="45.5890164" lon="10.4775874"><ele>267.0</ele><time>2026-03-29T07:30:32.664Z</time></trkpt><trkpt lat="45.5890191" lon="10.4777136"><ele>268.0</ele><time>2026-03-29T07:30:33.668Z</time></trkpt><trkpt lat="45.5890221" lon="10.4778458"><ele>269.0</ele><time>2026-03-29T07:30:34.663Z</time></trkpt><trkpt lat="45.5890141" lon="10.4779379"><ele>270.0</ele><time>2026-03-29T07:30:35.671Z</time></trkpt><trkpt lat="45.5890265" lon="10.4780685"><ele>271.0</ele><time>2026-03-29T07:30:37.666Z</time></trkpt><trkpt lat="45.5890695" lon="10.478145"><ele>272.0</ele><time>2026-03-29T07:30:39.68Z</time></trkpt><trkpt lat="45.5891877" lon="10.4781804"><ele>272.75</ele><time>2026-03-29T07:30:41.651Z</time></trkpt><trkpt lat="45.589287" lon="10.4781814"><ele>273.5</ele><time>2026-03-29T07:30:42.677Z</time></trkpt><trkpt lat="45.5894142" lon="10.4782103"><ele>274.25</ele><time>2026-03-29T07:30:43.664Z</time></trkpt><trkpt lat="45.5895443" lon="10.4782571"><ele>275.0</ele><time>2026-03-29T07:30:44.668Z</time></trkpt><trkpt lat="45.5896706" lon="10.4783349"><ele>275.5</ele><time>2026-03-29T07:30:45.668Z</time></trkpt><trkpt lat="45.5898008" lon="10.4784151"><ele>276.0</ele><time>2026-03-29T07:30:46.659Z</time></trkpt><trkpt lat="45.5899237" lon="10.4785126"><ele>276.5</ele><time>2026-03-29T07:30:47.662Z</time></trkpt><trkpt lat="45.5900445" lon="10.4786119"><ele>277.0</ele><time>2026-03-29T07:30:48.664Z</time></trkpt><trkpt lat="45.590133" lon="10.4787011"><ele>277.5</ele><time>2026-03-29T07:30:49.668Z</time></trkpt><trkpt lat="45.5902324" lon="10.478798"><ele>278.0</ele><time>2026-03-29T07:30:50.667Z</time></trkpt><trkpt lat="45.5903506" lon="10.4788807"><ele>278.5</ele><time>2026-03-29T07:30:51.685Z</time></trkpt><trkpt lat="45.5904707" lon="10.4789529"><ele>279.0</ele><time>2026-03-29T07:30:52.668Z</time></trkpt><trkpt lat="45.5905794" lon="10.4790138"><ele>279.5</ele><time>2026-03-29T07:30:53.667Z</time></trkpt><trkpt lat="45.5907247" lon="10.4790992"><ele>280.0</ele><time>2026-03-29T07:30:54.666Z</time></trkpt><trkpt lat="45.5908481" lon="10.4791806"><ele>280.5</ele><time>2026-03-29T07:30:55.668Z</time></trkpt><trkpt lat="45.5909473" lon="10.4792591"><ele>281.0</ele><time>2026-03-29T07:30:56.664Z</time></trkpt><trkpt lat="45.5910478" lon="10.4793234"><ele>281.0</ele><time>2026-03-29T07:30:57.664Z</time></trkpt><trkpt lat="45.5911559" lon="10.4793805"><ele>281.0</ele><time>2026-03-29T07:30:58.658Z</time></trkpt><trkpt lat="45.5912368" lon="10.479429"><ele>281.0</ele><time>2026-03-29T07:30:59.658Z</time></trkpt><trkpt lat="45.5913564" lon="10.4794354"><ele>281.0</ele><time>2026-03-29T07:31:00.659Z</time></trkpt><trkpt lat="45.5914931" lon="10.4794625"><ele>281.25</ele><time>2026-03-29T07:31:01.657Z</time></trkpt><trkpt lat="45.5916258" lon="10.4795169"><ele>281.5</ele><time>2026-03-29T07:31:02.651Z</time></trkpt><trkpt lat="45.5917592" lon="10.4795413"><ele>281.75</ele><time>2026-03-29T07:31:03.65Z</time></trkpt><trkpt lat="45.5918998" lon="10.4795854"><ele>282.0</ele><time>2026-03-29T07:31:04.649Z</time></trkpt><trkpt lat="45.5920119" lon="10.4796265"><ele>284.0</ele><time>2026-03-29T07:31:05.647Z</time></trkpt><trkpt lat="45.5921273" lon="10.4796775"><ele>286.0</ele><time>2026-03-29T07:31:06.645Z</time></trkpt><trkpt lat="45.5922426" lon="10.4797444"><ele>288.0</ele><time>2026-03-29T07:31:07.647Z</time></trkpt><trkpt lat="45.5923393" lon="10.4798173"><ele>290.0</ele><time>2026-03-29T07:31:08.645Z</time></trkpt><trkpt lat="45.5924366" lon="10.4798953"><ele>290.0</ele><time>2026-03-29T07:31:09.648Z</time></trkpt><trkpt lat="45.5925102" lon="10.4799711"><ele>290.0</ele><time>2026-03-29T07:31:10.649Z</time></trkpt><trkpt lat="45.5926067" lon="10.480028"><ele>290.0</ele><time>2026-03-29T07:31:11.65Z</time></trkpt><trkpt lat="45.5927085" lon="10.4800648"><ele>290.0</ele><time>2026-03-29T07:31:12.649Z</time></trkpt><trkpt lat="45.5928076" lon="10.4800784"><ele>290.0</ele><time>2026-03-29T07:31:13.655Z</time></trkpt><trkpt lat="45.5929005" lon="10.4800905"><ele>290.2</ele><time>2026-03-29T07:31:14.656Z</time></trkpt><trkpt lat="45.593002" lon="10.4801027"><ele>290.4</ele><time>2026-03-29T07:31:15.66Z</time></trkpt><trkpt lat="45.5930971" lon="10.4801018"><ele>290.6</ele><time>2026-03-29T07:31:16.653Z</time></trkpt><trkpt lat="45.5931873" lon="10.4800882"><ele>290.8</ele><time>2026-03-29T07:31:17.657Z</time></trkpt><trkpt lat="45.5932879" lon="10.4800611"><ele>291.0</ele><time>2026-03-29T07:31:18.655Z</time></trkpt><trkpt lat="45.5933855" lon="10.4800204"><ele>291.0</ele><time>2026-03-29T07:31:19.657Z</time></trkpt><trkpt lat="45.5934795" lon="10.4799645"><ele>291.0</ele><time>2026-03-29T07:31:20.653Z</time></trkpt><trkpt lat="45.5935495" lon="10.4799129"><ele>291.0</ele><time>2026-03-29T07:31:21.652Z</time></trkpt><trkpt lat="45.5936249" lon="10.4798767"><ele>291.0</ele><time>2026-03-29T07:31:22.666Z</time></trkpt><trkpt lat="45.5937091" lon="10.4798659"><ele>291.0</ele><time>2026-03-29T07:31:23.647Z</time></trkpt><trkpt lat="45.5938075" lon="10.4798875"><ele>291.0</ele><time>2026-03-29T07:31:24.642Z</time></trkpt><trkpt lat="45.5939024" lon="10.4799323"><ele>291.5</ele><time>2026-03-29T07:31:25.646Z</time></trkpt><trkpt lat="45.5939991" lon="10.4799618"><ele>292.0</ele><time>2026-03-29T07:31:26.646Z</time></trkpt><trkpt lat="45.5940846" lon="10.4799856"><ele>292.5</ele><time>2026-03-29T07:31:27.658Z</time></trkpt><trkpt lat="45.5941638" lon="10.4800056"><ele>293.0</ele><time>2026-03-29T07:31:28.649Z</time></trkpt><trkpt lat="45.5942312" lon="10.4800254"><ele>293.5</ele><time>2026-03-29T07:31:29.648Z</time></trkpt><trkpt lat="45.5943062" lon="10.4800266"><ele>294.0</ele><time>2026-03-29T07:31:31.634Z</time></trkpt><trkpt lat="45.594393" lon="10.4799172"><ele>294.0</ele><time>2026-03-29T07:31:34.643Z</time></trkpt><trkpt lat="45.5944322" lon="10.4798087"><ele>294.0</ele><time>2026-03-29T07:31:35.64Z</time></trkpt><trkpt lat="45.5944741" lon="10.4796595"><ele>294.0</ele><time>2026-03-29T07:31:36.64Z</time></trkpt><trkpt lat="45.5945123" lon="10.4794949"><ele>294.0</ele><time>2026-03-29T07:31:37.638Z</time></trkpt><trkpt lat="45.5945495" lon="10.479337"><ele>294.0</ele><time>2026-03-29T07:31:38.629Z</time></trkpt><trkpt lat="45.5945586" lon="10.4791758"><ele>297.5</ele><time>2026-03-29T07:31:39.642Z</time></trkpt><trkpt lat="45.5945521" lon="10.4790275"><ele>301.0</ele><time>2026-03-29T07:31:40.635Z</time></trkpt><trkpt lat="45.5945316" lon="10.478865"><ele>304.5</ele><time>2026-03-29T07:31:41.633Z</time></trkpt><trkpt lat="45.5944706" lon="10.4787202"><ele>308.0</ele><time>2026-03-29T07:31:42.641Z</time></trkpt><trkpt lat="45.5944118" lon="10.4785626"><ele>308.0</ele><time>2026-03-29T07:31:43.629Z</time></trkpt><trkpt lat="45.5943233" lon="10.478414"><ele>308.0</ele><time>2026-03-29T07:31:44.633Z</time></trkpt><trkpt lat="45.5942406" lon="10.4782576"><ele>308.0</ele><time>2026-03-29T07:31:45.623Z</time></trkpt><trkpt lat="45.5941586" lon="10.47812"><ele>308.0</ele><time>2026-03-29T07:31:46.624Z</time></trkpt><trkpt lat="45.5940873" lon="10.4779981"><ele>311.25</ele><time>2026-03-29T07:31:47.626Z</time></trkpt><trkpt lat="45.5939992" lon="10.4778893"><ele>314.5</ele><time>2026-03-29T07:31:48.631Z</time></trkpt><trkpt lat="45.5939175" lon="10.4777703"><ele>317.75</ele><time>2026-03-29T07:31:49.638Z</time></trkpt><trkpt lat="45.5938362" lon="10.4776329"><ele>321.0</ele><time>2026-03-29T07:31:50.634Z</time></trkpt><trkpt lat="45.5937746" lon="10.4774933"><ele>321.0</ele><time>2026-03-29T07:31:51.634Z</time></trkpt><trkpt lat="45.5937149" lon="10.4773799"><ele>321.0</ele><time>2026-03-29T07:31:52.649Z</time></trkpt><trkpt lat="45.5936483" lon="10.4772653"><ele>321.0</ele><time>2026-03-29T07:31:53.66Z</time></trkpt><trkpt lat="45.5935851" lon="10.4771284"><ele>321.0</ele><time>2026-03-29T07:31:54.64Z</time></trkpt><trkpt lat="45.5935125" lon="10.4769855"><ele>321.0</ele><time>2026-03-29T07:31:55.651Z</time></trkpt><trkpt lat="45.5934555" lon="10.4768229"><ele>322.25</ele><time>2026-03-29T07:31:56.643Z</time></trkpt><trkpt lat="45.5934147" lon="10.4766467"><ele>323.5</ele><time>2026-03-29T07:31:57.644Z</time></trkpt><trkpt lat="45.5933703" lon="10.4764461"><ele>324.75</ele><time>2026-03-29T07:31:58.644Z</time></trkpt><trkpt lat="45.5933038" lon="10.4762444"><ele>326.0</ele><time>2026-03-29T07:31:59.645Z</time></trkpt><trkpt lat="45.5932534" lon="10.4760323"><ele>326.0</ele><time>2026-03-29T07:32:00.645Z</time></trkpt><trkpt lat="45.5932395" lon="10.4758274"><ele>326.0</ele><time>2026-03-29T07:32:01.658Z</time></trkpt><trkpt lat="45.59322" lon="10.4756412"><ele>326.0</ele><time>2026-03-29T07:32:02.65Z</time></trkpt><trkpt lat="45.5931942" lon="10.4754625"><ele>326.0</ele><time>2026-03-29T07:32:03.645Z</time></trkpt><trkpt lat="45.5931719" lon="10.475276"><ele>327.25</ele><time>2026-03-29T07:32:04.649Z</time></trkpt><trkpt lat="45.5931438" lon="10.4750701"><ele>328.5</ele><time>2026-03-29T07:32:05.644Z</time></trkpt><trkpt lat="45.5931025" lon="10.4748551"><ele>329.75</ele><time>2026-03-29T07:32:06.642Z</time></trkpt><trkpt lat="45.5930942" lon="10.4746577"><ele>331.0</ele><time>2026-03-29T07:32:07.642Z</time></trkpt><trkpt lat="45.5930758" lon="10.4744661"><ele>331.8</ele><time>2026-03-29T07:32:08.638Z</time></trkpt><trkpt lat="45.5930671" lon="10.4743146"><ele>332.6</ele><time>2026-03-29T07:32:09.641Z</time></trkpt><trkpt lat="45.5930407" lon="10.4741873"><ele>333.4</ele><time>2026-03-29T07:32:10.627Z</time></trkpt><trkpt lat="45.5930487" lon="10.4740474"><ele>334.2</ele><time>2026-03-29T07:32:11.623Z</time></trkpt><trkpt lat="45.5930727" lon="10.4738676"><ele>335.0</ele><time>2026-03-29T07:32:13.634Z</time></trkpt><trkpt lat="45.5930448" lon="10.4736654"><ele>335.0</ele><time>2026-03-29T07:32:15.632Z</time></trkpt><trkpt lat="45.5930097" lon="10.4735422"><ele>335.0</ele><time>2026-03-29T07:32:16.633Z</time></trkpt><trkpt lat="45.5929778" lon="10.4733814"><ele>335.0</ele><time>2026-03-29T07:32:17.663Z</time></trkpt><trkpt lat="45.5929464" lon="10.4732498"><ele>335.0</ele><time>2026-03-29T07:32:18.657Z</time></trkpt><trkpt lat="45.5929106" lon="10.4731085"><ele>335.0</ele><time>2026-03-29T07:32:19.66Z</time></trkpt><trkpt lat="45.5928845" lon="10.4729862"><ele>334.5</ele><time>2026-03-29T07:32:20.652Z</time></trkpt><trkpt lat="45.5928541" lon="10.4728773"><ele>334.0</ele><time>2026-03-29T07:32:21.648Z</time></trkpt><trkpt lat="45.5928404" lon="10.4727735"><ele>333.5</ele><time>2026-03-29T07:32:22.647Z</time></trkpt><trkpt lat="45.5928281" lon="10.472672"><ele>333.0</ele><time>2026-03-29T07:32:23.648Z</time></trkpt><trkpt lat="45.5927886" lon="10.4725466"><ele>332.5</ele><time>2026-03-29T07:32:24.665Z</time></trkpt><trkpt lat="45.5927383" lon="10.4724166"><ele>332.0</ele><time>2026-03-29T07:32:25.653Z</time></trkpt><trkpt lat="45.5926847" lon="10.4722753"><ele>329.20000000000005</ele><time>2026-03-29T07:32:26.652Z</time></trkpt><trkpt lat="45.5926236" lon="10.4721308"><ele>326.40000000000003</ele><time>2026-03-29T07:32:27.662Z</time></trkpt><trkpt lat="45.5925736" lon="10.4720015"><ele>323.6</ele><time>2026-03-29T07:32:28.653Z</time></trkpt><trkpt lat="45.5925383" lon="10.4719023"><ele>320.8</ele><time>2026-03-29T07:32:29.656Z</time></trkpt><trkpt lat="45.5925029" lon="10.4718234"><ele>318.0</ele><time>2026-03-29T07:32:30.657Z</time></trkpt><trkpt lat="45.5924387" lon="10.4716421"><ele>318.0</ele><time>2026-03-29T07:32:32.652Z</time></trkpt><trkpt lat="45.5924031" lon="10.4715214"><ele>318.0</ele><time>2026-03-29T07:32:33.649Z</time></trkpt><trkpt lat="45.5923546" lon="10.4713896"><ele>318.0</ele><time>2026-03-29T07:32:34.649Z</time></trkpt><trkpt lat="45.5922915" lon="10.4712542"><ele>318.0</ele><time>2026-03-29T07:32:35.649Z</time></trkpt><trkpt lat="45.5922325" lon="10.4711108"><ele>318.0</ele><time>2026-03-29T07:32:36.651Z</time></trkpt><trkpt lat="45.5921706" lon="10.4709542"><ele>318.75</ele><time>2026-03-29T07:32:37.652Z</time></trkpt><trkpt lat="45.5921177" lon="10.4708002"><ele>319.5</ele><time>2026-03-29T07:32:38.651Z</time></trkpt><trkpt lat="45.5920625" lon="10.4706454"><ele>320.25</ele><time>2026-03-29T07:32:39.663Z</time></trkpt><trkpt lat="45.5920253" lon="10.4704837"><ele>321.0</ele><time>2026-03-29T07:32:40.656Z</time></trkpt><trkpt lat="45.5919963" lon="10.4703233"><ele>318.6</ele><time>2026-03-29T07:32:42.73Z</time></trkpt><trkpt lat="45.5919776" lon="10.4701755"><ele>316.20000000000005</ele><time>2026-03-29T07:32:43.738Z</time></trkpt><trkpt lat="45.5919714" lon="10.4700374"><ele>313.79999999999995</ele><time>2026-03-29T07:32:44.724Z</time></trkpt><trkpt lat="45.5919679" lon="10.4698877"><ele>311.4</ele><time>2026-03-29T07:32:45.729Z</time></trkpt><trkpt lat="45.5919664" lon="10.4697532"><ele>309.0</ele><time>2026-03-29T07:32:46.729Z</time></trkpt><trkpt lat="45.5919626" lon="10.4696193"><ele>308.8333333333333</ele><time>2026-03-29T07:32:47.723Z</time></trkpt><trkpt lat="45.5919534" lon="10.4694948"><ele>308.6666666666667</ele><time>2026-03-29T07:32:48.748Z</time></trkpt><trkpt lat="45.5919282" lon="10.4693875"><ele>308.5</ele><time>2026-03-29T07:32:49.74Z</time></trkpt><trkpt lat="45.5918903" lon="10.4693085"><ele>308.33333333333337</ele><time>2026-03-29T07:32:50.722Z</time></trkpt><trkpt lat="45.5917869" lon="10.4692219"><ele>308.1666666666667</ele><time>2026-03-29T07:32:52.716Z</time></trkpt><trkpt lat="45.5916934" lon="10.4692053"><ele>308.0</ele><time>2026-03-29T07:32:53.721Z</time></trkpt><trkpt lat="45.5916085" lon="10.4692248"><ele>308.0</ele><time>2026-03-29T07:32:54.734Z</time></trkpt><trkpt lat="45.5915396" lon="10.4692725"><ele>308.0</ele><time>2026-03-29T07:32:55.754Z</time></trkpt><trkpt lat="45.5913925" lon="10.4695888"><ele>308.0</ele><time>2026-03-29T07:32:57.629Z</time></trkpt><trkpt lat="45.5913268" lon="10.469628"><ele>308.0</ele><time>2026-03-29T07:32:58.625Z</time></trkpt><trkpt lat="45.5912089" lon="10.4695934"><ele>306.0</ele><time>2026-03-29T07:33:00.625Z</time></trkpt><trkpt lat="45.5911458" lon="10.4695289"><ele>304.0</ele><time>2026-03-29T07:33:01.644Z</time></trkpt><trkpt lat="45.5911006" lon="10.4693976"><ele>302.0</ele><time>2026-03-29T07:33:02.626Z</time></trkpt><trkpt lat="45.5910629" lon="10.4692145"><ele>300.0</ele><time>2026-03-29T07:33:03.638Z</time></trkpt><trkpt lat="45.5909841" lon="10.4690161"><ele>300.0</ele><time>2026-03-29T07:33:04.636Z</time></trkpt><trkpt lat="45.590923" lon="10.4688465"><ele>300.0</ele><time>2026-03-29T07:33:05.639Z</time></trkpt><trkpt lat="45.5908578" lon="10.4686632"><ele>300.0</ele><time>2026-03-29T07:33:06.642Z</time></trkpt><trkpt lat="45.5907955" lon="10.4684592"><ele>300.0</ele><time>2026-03-29T07:33:07.649Z</time></trkpt><trkpt lat="45.5907258" lon="10.4682184"><ele>299.0</ele><time>2026-03-29T07:33:08.646Z</time></trkpt><trkpt lat="45.5907006" lon="10.4680067"><ele>298.0</ele><time>2026-03-29T07:33:09.644Z</time></trkpt><trkpt lat="45.590686" lon="10.4678243"><ele>297.0</ele><time>2026-03-29T07:33:10.652Z</time></trkpt><trkpt lat="45.5906411" lon="10.4676601"><ele>296.0</ele><time>2026-03-29T07:33:11.653Z</time></trkpt><trkpt lat="45.5906037" lon="10.4674692"><ele>295.25</ele><time>2026-03-29T07:33:12.654Z</time></trkpt><trkpt lat="45.5905709" lon="10.4672944"><ele>294.5</ele><time>2026-03-29T07:33:13.655Z</time></trkpt><trkpt lat="45.59053" lon="10.4671214"><ele>293.75</ele><time>2026-03-29T07:33:14.657Z</time></trkpt><trkpt lat="45.5904881" lon="10.4669457"><ele>293.0</ele><time>2026-03-29T07:33:15.659Z</time></trkpt><trkpt lat="45.5904545" lon="10.4667657"><ele>291.5</ele><time>2026-03-29T07:33:16.664Z</time></trkpt><trkpt lat="45.5904178" lon="10.466569"><ele>290.0</ele><time>2026-03-29T07:33:17.66Z</time></trkpt><trkpt lat="45.5903914" lon="10.4663716"><ele>288.5</ele><time>2026-03-29T07:33:18.659Z</time></trkpt><trkpt lat="45.5903578" lon="10.4661826"><ele>287.0</ele><time>2026-03-29T07:33:19.671Z</time></trkpt><trkpt lat="45.5903203" lon="10.4660167"><ele>285.25</ele><time>2026-03-29T07:33:20.656Z</time></trkpt><trkpt lat="45.5902683" lon="10.4658468"><ele>283.5</ele><time>2026-03-29T07:33:21.653Z</time></trkpt><trkpt lat="45.5901964" lon="10.4656765"><ele>281.75</ele><time>2026-03-29T07:33:22.654Z</time></trkpt><trkpt lat="45.5900936" lon="10.4655301"><ele>280.0</ele><time>2026-03-29T07:33:23.662Z</time></trkpt><trkpt lat="45.5899938" lon="10.465396"><ele>279.0</ele><time>2026-03-29T07:33:24.659Z</time></trkpt><trkpt lat="45.589945" lon="10.4652746"><ele>278.0</ele><time>2026-03-29T07:33:25.661Z</time></trkpt><trkpt lat="45.5898741" lon="10.465164"><ele>277.0</ele><time>2026-03-29T07:33:26.679Z</time></trkpt><trkpt lat="45.5898058" lon="10.4650515"><ele>276.0</ele><time>2026-03-29T07:33:27.654Z</time></trkpt><trkpt lat="45.5896973" lon="10.4649479"><ele>275.0</ele><time>2026-03-29T07:33:28.675Z</time></trkpt><trkpt lat="45.5895927" lon="10.4648796"><ele>275.0</ele><time>2026-03-29T07:33:29.662Z</time></trkpt><trkpt lat="45.5894885" lon="10.4648326"><ele>275.0</ele><time>2026-03-29T07:33:30.661Z</time></trkpt><trkpt lat="45.5893791" lon="10.4647834"><ele>275.0</ele><time>2026-03-29T07:33:31.66Z</time></trkpt><trkpt lat="45.5892581" lon="10.4647514"><ele>275.0</ele><time>2026-03-29T07:33:32.654Z</time></trkpt><trkpt lat="45.5891348" lon="10.464741"><ele>275.0</ele><time>2026-03-29T07:33:33.658Z</time></trkpt><trkpt lat="45.5890087" lon="10.4647599"><ele>275.0</ele><time>2026-03-29T07:33:34.663Z</time></trkpt><trkpt lat="45.5888909" lon="10.4647864"><ele>275.0</ele><time>2026-03-29T07:33:35.654Z</time></trkpt><trkpt lat="45.5887824" lon="10.4648102"><ele>275.0</ele><time>2026-03-29T07:33:36.658Z</time></trkpt><trkpt lat="45.5886897" lon="10.4648351"><ele>273.5</ele><time>2026-03-29T07:33:37.66Z</time></trkpt><trkpt lat="45.5886062" lon="10.4648639"><ele>272.0</ele><time>2026-03-29T07:33:38.662Z</time></trkpt><trkpt lat="45.588529" lon="10.4648668"><ele>270.5</ele><time>2026-03-29T07:33:39.663Z</time></trkpt><trkpt lat="45.5884592" lon="10.4648186"><ele>269.0</ele><time>2026-03-29T07:33:40.656Z</time></trkpt><trkpt lat="45.588404" lon="10.4647291"><ele>267.5</ele><time>2026-03-29T07:33:41.653Z</time></trkpt><trkpt lat="45.588352" lon="10.4646103"><ele>266.0</ele><time>2026-03-29T07:33:42.656Z</time></trkpt><trkpt lat="45.588315" lon="10.4644715"><ele>265.8</ele><time>2026-03-29T07:33:43.657Z</time></trkpt><trkpt lat="45.5882854" lon="10.4643226"><ele>265.6</ele><time>2026-03-29T07:33:44.65Z</time></trkpt><trkpt lat="45.5882594" lon="10.4641637"><ele>265.4</ele><time>2026-03-29T07:33:45.659Z</time></trkpt><trkpt lat="45.5882348" lon="10.4640227"><ele>265.2</ele><time>2026-03-29T07:33:46.657Z</time></trkpt><trkpt lat="45.5882205" lon="10.4638857"><ele>265.0</ele><time>2026-03-29T07:33:47.656Z</time></trkpt><trkpt lat="45.5881965" lon="10.4637293"><ele>264.75</ele><time>2026-03-29T07:33:48.653Z</time></trkpt><trkpt lat="45.5881695" lon="10.4635662"><ele>264.5</ele><time>2026-03-29T07:33:49.654Z</time></trkpt><trkpt lat="45.5881314" lon="10.4633937"><ele>264.25</ele><time>2026-03-29T07:33:50.651Z</time></trkpt><trkpt lat="45.5881029" lon="10.4632229"><ele>264.0</ele><time>2026-03-29T07:33:51.648Z</time></trkpt><trkpt lat="45.5880977" lon="10.463058"><ele>264.25</ele><time>2026-03-29T07:33:52.638Z</time></trkpt><trkpt lat="45.5881158" lon="10.4629117"><ele>264.5</ele><time>2026-03-29T07:33:53.634Z</time></trkpt><trkpt lat="45.588162" lon="10.4627558"><ele>264.75</ele><time>2026-03-29T07:33:54.642Z</time></trkpt><trkpt lat="45.5882197" lon="10.4626009"><ele>265.0</ele><time>2026-03-29T07:33:55.648Z</time></trkpt><trkpt lat="45.5882877" lon="10.4624438"><ele>265.0</ele><time>2026-03-29T07:33:56.644Z</time></trkpt><trkpt lat="45.5883586" lon="10.4622861"><ele>265.0</ele><time>2026-03-29T07:33:57.674Z</time></trkpt><trkpt lat="45.5884305" lon="10.462122"><ele>265.0</ele><time>2026-03-29T07:33:58.65Z</time></trkpt><trkpt lat="45.5884962" lon="10.461939"><ele>265.0</ele><time>2026-03-29T07:33:59.656Z</time></trkpt><trkpt lat="45.588559" lon="10.4617402"><ele>265.25</ele><time>2026-03-29T07:34:00.654Z</time></trkpt><trkpt lat="45.5885996" lon="10.4615508"><ele>265.5</ele><time>2026-03-29T07:34:01.658Z</time></trkpt><trkpt lat="45.5886512" lon="10.4613559"><ele>265.75</ele><time>2026-03-29T07:34:02.66Z</time></trkpt><trkpt lat="45.5886594" lon="10.4611569"><ele>266.0</ele><time>2026-03-29T07:34:03.662Z</time></trkpt><trkpt lat="45.5886844" lon="10.4609471"><ele>265.5</ele><time>2026-03-29T07:34:04.66Z</time></trkpt><trkpt lat="45.5886734" lon="10.4607807"><ele>265.0</ele><time>2026-03-29T07:34:05.669Z</time></trkpt><trkpt lat="45.5886622" lon="10.4606029"><ele>264.5</ele><time>2026-03-29T07:34:06.661Z</time></trkpt><trkpt lat="45.5886655" lon="10.4604118"><ele>264.0</ele><time>2026-03-29T07:34:07.662Z</time></trkpt><trkpt lat="45.5886605" lon="10.4602113"><ele>263.5</ele><time>2026-03-29T07:34:08.664Z</time></trkpt><trkpt lat="45.5886678" lon="10.4600078"><ele>263.0</ele><time>2026-03-29T07:34:09.664Z</time></trkpt><trkpt lat="45.5886681" lon="10.4598051"><ele>262.5</ele><time>2026-03-29T07:34:10.661Z</time></trkpt><trkpt lat="45.5886571" lon="10.4596009"><ele>262.0</ele><time>2026-03-29T07:34:11.657Z</time></trkpt><trkpt lat="45.5886498" lon="10.4594111"><ele>261.5</ele><time>2026-03-29T07:34:12.661Z</time></trkpt><trkpt lat="45.5886497" lon="10.4592225"><ele>261.0</ele><time>2026-03-29T07:34:13.663Z</time></trkpt><trkpt lat="45.5886739" lon="10.4590308"><ele>260.5</ele><time>2026-03-29T07:34:14.654Z</time></trkpt><trkpt lat="45.5887296" lon="10.4588451"><ele>260.0</ele><time>2026-03-29T07:34:15.664Z</time></trkpt><trkpt lat="45.588813" lon="10.4586408"><ele>259.0</ele><time>2026-03-29T07:34:16.66Z</time></trkpt><trkpt lat="45.5889181" lon="10.4584501"><ele>258.0</ele><time>2026-03-29T07:34:17.661Z</time></trkpt><trkpt lat="45.5890138" lon="10.458247"><ele>257.0</ele><time>2026-03-29T07:34:18.662Z</time></trkpt><trkpt lat="45.5891046" lon="10.4580618"><ele>259.6666666666667</ele><time>2026-03-29T07:34:19.662Z</time></trkpt><trkpt lat="45.5891883" lon="10.4578507"><ele>262.3333333333333</ele><time>2026-03-29T07:34:20.654Z</time></trkpt><trkpt lat="45.5893035" lon="10.4576716"><ele>265.0</ele><time>2026-03-29T07:34:21.655Z</time></trkpt><trkpt lat="45.5894063" lon="10.4574814"><ele>265.0</ele><time>2026-03-29T07:34:22.657Z</time></trkpt><trkpt lat="45.5895037" lon="10.4572811"><ele>265.0</ele><time>2026-03-29T07:34:23.654Z</time></trkpt><trkpt lat="45.5896187" lon="10.4571021"><ele>265.0</ele><time>2026-03-29T07:34:24.66Z</time></trkpt><trkpt lat="45.5896834" lon="10.4569383"><ele>259.75</ele><time>2026-03-29T07:34:25.655Z</time></trkpt><trkpt lat="45.5897563" lon="10.456742"><ele>254.5</ele><time>2026-03-29T07:34:26.651Z</time></trkpt><trkpt lat="45.5898576" lon="10.4565772"><ele>249.25</ele><time>2026-03-29T07:34:27.649Z</time></trkpt><trkpt lat="45.5899159" lon="10.4564283"><ele>244.0</ele><time>2026-03-29T07:34:28.685Z</time></trkpt><trkpt lat="45.5899377" lon="10.456297"><ele>243.2</ele><time>2026-03-29T07:34:29.652Z</time></trkpt><trkpt lat="45.5899334" lon="10.4561442"><ele>242.39999999999998</ele><time>2026-03-29T07:34:30.654Z</time></trkpt><trkpt lat="45.5899534" lon="10.4560178"><ele>241.6</ele><time>2026-03-29T07:34:31.658Z</time></trkpt><trkpt lat="45.5899854" lon="10.4558921"><ele>240.8</ele><time>2026-03-29T07:34:32.649Z</time></trkpt><trkpt lat="45.5899766" lon="10.4557424"><ele>240.0</ele><time>2026-03-29T07:34:33.664Z</time></trkpt><trkpt lat="45.5899326" lon="10.4555899"><ele>237.6</ele><time>2026-03-29T07:34:34.65Z</time></trkpt><trkpt lat="45.589878" lon="10.4554504"><ele>235.2</ele><time>2026-03-29T07:34:35.646Z</time></trkpt><trkpt lat="45.5898199" lon="10.4553285"><ele>232.8</ele><time>2026-03-29T07:34:36.649Z</time></trkpt><trkpt lat="45.5897543" lon="10.4552094"><ele>230.4</ele><time>2026-03-29T07:34:37.648Z</time></trkpt><trkpt lat="45.5896867" lon="10.4551009"><ele>228.0</ele><time>2026-03-29T07:34:38.651Z</time></trkpt><trkpt lat="45.5896185" lon="10.4550065"><ele>228.0</ele><time>2026-03-29T07:34:39.651Z</time></trkpt><trkpt lat="45.5895696" lon="10.4549008"><ele>228.0</ele><time>2026-03-29T07:34:40.642Z</time></trkpt><trkpt lat="45.589541" lon="10.4547907"><ele>228.0</ele><time>2026-03-29T07:34:41.64Z</time></trkpt><trkpt lat="45.5895466" lon="10.4546735"><ele>228.0</ele><time>2026-03-29T07:34:42.638Z</time></trkpt><trkpt lat="45.5895783" lon="10.4545612"><ele>228.0</ele><time>2026-03-29T07:34:43.639Z</time></trkpt><trkpt lat="45.5896153" lon="10.454439"><ele>228.0</ele><time>2026-03-29T07:34:44.65Z</time></trkpt><trkpt lat="45.5896553" lon="10.4543086"><ele>227.33333333333334</ele><time>2026-03-29T07:34:45.651Z</time></trkpt><trkpt lat="45.5896772" lon="10.4541927"><ele>226.66666666666669</ele><time>2026-03-29T07:34:46.655Z</time></trkpt><trkpt lat="45.5896837" lon="10.4540903"><ele>226.0</ele><time>2026-03-29T07:34:47.649Z</time></trkpt><trkpt lat="45.5896681" lon="10.453987"><ele>225.33333333333334</ele><time>2026-03-29T07:34:48.657Z</time></trkpt><trkpt lat="45.5896119" lon="10.4538836"><ele>224.66666666666669</ele><time>2026-03-29T07:34:49.665Z</time></trkpt><trkpt lat="45.5895213" lon="10.453787"><ele>224.0</ele><time>2026-03-29T07:34:50.653Z</time></trkpt><trkpt lat="45.5894309" lon="10.4536882"><ele>224.0</ele><time>2026-03-29T07:34:51.664Z</time></trkpt><trkpt lat="45.5893134" lon="10.4535869"><ele>224.0</ele><time>2026-03-29T07:34:52.652Z</time></trkpt><trkpt lat="45.5891961" lon="10.4534706"><ele>224.0</ele><time>2026-03-29T07:34:53.648Z</time></trkpt><trkpt lat="45.5891085" lon="10.453365"><ele>224.0</ele><time>2026-03-29T07:34:54.648Z</time></trkpt><trkpt lat="45.5890239" lon="10.4532615"><ele>224.0</ele><time>2026-03-29T07:34:55.644Z</time></trkpt><trkpt lat="45.5889511" lon="10.4531364"><ele>223.99999999999997</ele><time>2026-03-29T07:34:56.655Z</time></trkpt><trkpt lat="45.588885" lon="10.452993"><ele>223.99999999999997</ele><time>2026-03-29T07:34:57.64Z</time></trkpt><trkpt lat="45.5888672" lon="10.452842"><ele>224.0</ele><time>2026-03-29T07:34:58.657Z</time></trkpt><trkpt lat="45.5888694" lon="10.4526931"><ele>224.0</ele><time>2026-03-29T07:34:59.632Z</time></trkpt><trkpt lat="45.5889101" lon="10.4525451"><ele>223.0</ele><time>2026-03-29T07:35:00.636Z</time></trkpt><trkpt lat="45.5889572" lon="10.4524049"><ele>221.99999999999997</ele><time>2026-03-29T07:35:01.641Z</time></trkpt><trkpt lat="45.589017" lon="10.4522854"><ele>220.99999999999997</ele><time>2026-03-29T07:35:02.651Z</time></trkpt><trkpt lat="45.5890667" lon="10.4521771"><ele>220.0</ele><time>2026-03-29T07:35:03.66Z</time></trkpt><trkpt lat="45.5890925" lon="10.4520596"><ele>219.0</ele><time>2026-03-29T07:35:04.655Z</time></trkpt><trkpt lat="45.5890879" lon="10.4519301"><ele>219.0</ele><time>2026-03-29T07:35:05.646Z</time></trkpt><trkpt lat="45.5890487" lon="10.451796"><ele>219.0</ele><time>2026-03-29T07:35:06.647Z</time></trkpt><trkpt lat="45.5889627" lon="10.4516473"><ele>219.0</ele><time>2026-03-29T07:35:07.636Z</time></trkpt><trkpt lat="45.5888703" lon="10.4515042"><ele>219.0</ele><time>2026-03-29T07:35:08.663Z</time></trkpt><trkpt lat="45.5887802" lon="10.4513476"><ele>221.66666666666669</ele><time>2026-03-29T07:35:09.643Z</time></trkpt><trkpt lat="45.5886719" lon="10.4511864"><ele>224.33333333333334</ele><time>2026-03-29T07:35:10.647Z</time></trkpt><trkpt lat="45.5885636" lon="10.4510014"><ele>227.0</ele><time>2026-03-29T07:35:11.653Z</time></trkpt><trkpt lat="45.5884569" lon="10.4508348"><ele>227.0</ele><time>2026-03-29T07:35:12.657Z</time></trkpt><trkpt lat="45.5883391" lon="10.4506628"><ele>227.0</ele><time>2026-03-29T07:35:13.659Z</time></trkpt><trkpt lat="45.5882477" lon="10.4504874"><ele>227.0</ele><time>2026-03-29T07:35:15.738Z</time></trkpt><trkpt lat="45.5881623" lon="10.4503246"><ele>224.75</ele><time>2026-03-29T07:35:16.735Z</time></trkpt><trkpt lat="45.5880769" lon="10.4501629"><ele>222.5</ele><time>2026-03-29T07:35:17.731Z</time></trkpt><trkpt lat="45.5879879" lon="10.4499973"><ele>220.25</ele><time>2026-03-29T07:35:18.734Z</time></trkpt><trkpt lat="45.5878892" lon="10.4498388"><ele>218.0</ele><time>2026-03-29T07:35:19.739Z</time></trkpt><trkpt lat="45.5877946" lon="10.4496902"><ele>218.2</ele><time>2026-03-29T07:35:20.732Z</time></trkpt><trkpt lat="45.5877073" lon="10.4495565"><ele>218.4</ele><time>2026-03-29T07:35:21.737Z</time></trkpt><trkpt lat="45.5876275" lon="10.4494402"><ele>218.59999999999997</ele><time>2026-03-29T07:35:22.732Z</time></trkpt><trkpt lat="45.5875639" lon="10.4493382"><ele>218.79999999999998</ele><time>2026-03-29T07:35:23.731Z</time></trkpt><trkpt lat="45.587514" lon="10.4492507"><ele>219.0</ele><time>2026-03-29T07:35:24.73Z</time></trkpt><trkpt lat="45.5874752" lon="10.4491739"><ele>219.0</ele><time>2026-03-29T07:35:25.726Z</time></trkpt><trkpt lat="45.5874445" lon="10.4490126"><ele>219.0</ele><time>2026-03-29T07:35:27.72Z</time></trkpt><trkpt lat="45.5873739" lon="10.448887"><ele>219.0</ele><time>2026-03-29T07:35:29.741Z</time></trkpt><trkpt lat="45.5872957" lon="10.448813"><ele>219.0</ele><time>2026-03-29T07:35:30.718Z</time></trkpt><trkpt lat="45.5871548" lon="10.4488602"><ele>219.0</ele><time>2026-03-29T07:35:31.665Z</time></trkpt><trkpt lat="45.5870682" lon="10.4489133"><ele>218.99999999999997</ele><time>2026-03-29T07:35:32.652Z</time></trkpt><trkpt lat="45.5869821" lon="10.4489236"><ele>218.99999999999997</ele><time>2026-03-29T07:35:33.651Z</time></trkpt><trkpt lat="45.5868889" lon="10.4489053"><ele>219.0</ele><time>2026-03-29T07:35:34.639Z</time></trkpt><trkpt lat="45.586802" lon="10.4488342"><ele>219.0</ele><time>2026-03-29T07:35:35.641Z</time></trkpt><trkpt lat="45.5867216" lon="10.4487257"><ele>218.25</ele><time>2026-03-29T07:35:36.636Z</time></trkpt><trkpt lat="45.5866607" lon="10.4485721"><ele>217.5</ele><time>2026-03-29T07:35:37.643Z</time></trkpt><trkpt lat="45.5866126" lon="10.4483984"><ele>216.75</ele><time>2026-03-29T07:35:38.646Z</time></trkpt><trkpt lat="45.5865717" lon="10.448218"><ele>216.0</ele><time>2026-03-29T07:35:39.643Z</time></trkpt><trkpt lat="45.5865387" lon="10.4480245"><ele>214.66666666666669</ele><time>2026-03-29T07:35:40.643Z</time></trkpt><trkpt lat="45.5865103" lon="10.4478127"><ele>213.33333333333334</ele><time>2026-03-29T07:35:41.649Z</time></trkpt><trkpt lat="45.5864848" lon="10.4475846"><ele>212.0</ele><time>2026-03-29T07:35:42.648Z</time></trkpt><trkpt lat="45.5864699" lon="10.4473753"><ele>212.0</ele><time>2026-03-29T07:35:43.654Z</time></trkpt><trkpt lat="45.5864593" lon="10.4471778"><ele>212.0</ele><time>2026-03-29T07:35:44.651Z</time></trkpt><trkpt lat="45.5864432" lon="10.4469939"><ele>212.0</ele><time>2026-03-29T07:35:45.656Z</time></trkpt><trkpt lat="45.5864268" lon="10.4468364"><ele>212.0</ele><time>2026-03-29T07:35:46.652Z</time></trkpt><trkpt lat="45.586378" lon="10.4466734"><ele>211.75</ele><time>2026-03-29T07:35:47.651Z</time></trkpt><trkpt lat="45.5863118" lon="10.4464872"><ele>211.5</ele><time>2026-03-29T07:35:48.652Z</time></trkpt><trkpt lat="45.5862141" lon="10.4463046"><ele>211.25</ele><time>2026-03-29T07:35:49.652Z</time></trkpt><trkpt lat="45.5861527" lon="10.4461305"><ele>211.0</ele><time>2026-03-29T07:35:50.65Z</time></trkpt><trkpt lat="45.5860992" lon="10.4459548"><ele>210.25</ele><time>2026-03-29T07:35:51.649Z</time></trkpt><trkpt lat="45.5860339" lon="10.4458001"><ele>209.5</ele><time>2026-03-29T07:35:52.646Z</time></trkpt><trkpt lat="45.5859765" lon="10.4456483"><ele>208.75</ele><time>2026-03-29T07:35:53.648Z</time></trkpt><trkpt lat="45.5859073" lon="10.4454842"><ele>208.0</ele><time>2026-03-29T07:35:54.646Z</time></trkpt><trkpt lat="45.5858546" lon="10.4453459"><ele>208.0</ele><time>2026-03-29T07:35:55.648Z</time></trkpt><trkpt lat="45.5858209" lon="10.4452191"><ele>208.0</ele><time>2026-03-29T07:35:56.643Z</time></trkpt><trkpt lat="45.5857783" lon="10.4450936"><ele>208.0</ele><time>2026-03-29T07:35:57.648Z</time></trkpt><trkpt lat="45.5857362" lon="10.4449601"><ele>208.0</ele><time>2026-03-29T07:35:58.651Z</time></trkpt><trkpt lat="45.5856912" lon="10.4448179"><ele>208.0</ele><time>2026-03-29T07:35:59.65Z</time></trkpt><trkpt lat="45.585647" lon="10.4446659"><ele>207.75</ele><time>2026-03-29T07:36:00.673Z</time></trkpt><trkpt lat="45.5855962" lon="10.4445173"><ele>207.5</ele><time>2026-03-29T07:36:01.651Z</time></trkpt><trkpt lat="45.5855431" lon="10.4443568"><ele>207.25</ele><time>2026-03-29T07:36:02.649Z</time></trkpt><trkpt lat="45.5854899" lon="10.4441957"><ele>207.0</ele><time>2026-03-29T07:36:03.651Z</time></trkpt><trkpt lat="45.5854435" lon="10.4440346"><ele>207.0</ele><time>2026-03-29T07:36:04.654Z</time></trkpt><trkpt lat="45.585395" lon="10.4438702"><ele>207.0</ele><time>2026-03-29T07:36:05.65Z</time></trkpt><trkpt lat="45.5853475" lon="10.4437088"><ele>207.0</ele><time>2026-03-29T07:36:06.656Z</time></trkpt><trkpt lat="45.5853065" lon="10.4435458"><ele>207.0</ele><time>2026-03-29T07:36:07.655Z</time></trkpt><trkpt lat="45.5852642" lon="10.4433831"><ele>206.8</ele><time>2026-03-29T07:36:08.649Z</time></trkpt><trkpt lat="45.5852279" lon="10.4432221"><ele>206.6</ele><time>2026-03-29T07:36:09.65Z</time></trkpt><trkpt lat="45.5851998" lon="10.443069"><ele>206.4</ele><time>2026-03-29T07:36:10.645Z</time></trkpt><trkpt lat="45.5851708" lon="10.4429175"><ele>206.20000000000002</ele><time>2026-03-29T07:36:11.646Z</time></trkpt><trkpt lat="45.5851446" lon="10.4427651"><ele>206.0</ele><time>2026-03-29T07:36:12.648Z</time></trkpt><trkpt lat="45.5851086" lon="10.4426235"><ele>206.00000000000003</ele><time>2026-03-29T07:36:13.651Z</time></trkpt><trkpt lat="45.5850646" lon="10.4424977"><ele>206.0</ele><time>2026-03-29T07:36:14.65Z</time></trkpt><trkpt lat="45.5850149" lon="10.4423938"><ele>206.0</ele><time>2026-03-29T07:36:15.665Z</time></trkpt><trkpt lat="45.5849746" lon="10.4422832"><ele>206.0</ele><time>2026-03-29T07:36:16.658Z</time></trkpt><trkpt lat="45.584933" lon="10.4421733"><ele>206.00000000000003</ele><time>2026-03-29T07:36:17.658Z</time></trkpt><trkpt lat="45.5848953" lon="10.4420856"><ele>206.0</ele><time>2026-03-29T07:36:18.653Z</time></trkpt><trkpt lat="45.5848402" lon="10.4419528"><ele>205.83333333333334</ele><time>2026-03-29T07:36:20.654Z</time></trkpt><trkpt lat="45.5847972" lon="10.4418102"><ele>205.66666666666669</ele><time>2026-03-29T07:36:22.657Z</time></trkpt><trkpt lat="45.5847525" lon="10.441724"><ele>205.5</ele><time>2026-03-29T07:36:23.656Z</time></trkpt><trkpt lat="45.5846966" lon="10.4416598"><ele>205.33333333333331</ele><time>2026-03-29T07:36:24.654Z</time></trkpt><trkpt lat="45.5846281" lon="10.4416368"><ele>205.16666666666666</ele><time>2026-03-29T07:36:25.666Z</time></trkpt><trkpt lat="45.5845618" lon="10.4416658"><ele>205.0</ele><time>2026-03-29T07:36:26.643Z</time></trkpt><trkpt lat="45.5844793" lon="10.4416822"><ele>205.0</ele><time>2026-03-29T07:36:27.649Z</time></trkpt><trkpt lat="45.5843813" lon="10.4416752"><ele>205.0</ele><time>2026-03-29T07:36:28.645Z</time></trkpt><trkpt lat="45.5842765" lon="10.4416442"><ele>205.0</ele><time>2026-03-29T07:36:29.651Z</time></trkpt><trkpt lat="45.5841701" lon="10.4416002"><ele>205.0</ele><time>2026-03-29T07:36:30.658Z</time></trkpt><trkpt lat="45.5840529" lon="10.4415553"><ele>205.0</ele><time>2026-03-29T07:36:31.682Z</time></trkpt><trkpt lat="45.5839286" lon="10.4415038"><ele>205.0</ele><time>2026-03-29T07:36:32.659Z</time></trkpt><trkpt lat="45.5838042" lon="10.4414532"><ele>205.0</ele><time>2026-03-29T07:36:33.665Z</time></trkpt><trkpt lat="45.5836886" lon="10.4414157"><ele>205.0</ele><time>2026-03-29T07:36:34.656Z</time></trkpt><trkpt lat="45.5835844" lon="10.4413716"><ele>205.0</ele><time>2026-03-29T07:36:35.659Z</time></trkpt><trkpt lat="45.5834888" lon="10.4413428"><ele>205.0</ele><time>2026-03-29T07:36:36.653Z</time></trkpt><trkpt lat="45.5833937" lon="10.4413047"><ele>205.0</ele><time>2026-03-29T07:36:37.66Z</time></trkpt><trkpt lat="45.5833011" lon="10.4412589"><ele>205.0</ele><time>2026-03-29T07:36:38.661Z</time></trkpt><trkpt lat="45.5832067" lon="10.4412021"><ele>205.0</ele><time>2026-03-29T07:36:39.661Z</time></trkpt><trkpt lat="45.5831075" lon="10.4411544"><ele>205.0</ele><time>2026-03-29T07:36:40.666Z</time></trkpt><trkpt lat="45.5829902" lon="10.4410974"><ele>205.0</ele><time>2026-03-29T07:36:41.665Z</time></trkpt><trkpt lat="45.5828678" lon="10.4410531"><ele>205.0</ele><time>2026-03-29T07:36:42.663Z</time></trkpt><trkpt lat="45.5827494" lon="10.441014"><ele>205.0</ele><time>2026-03-29T07:36:43.657Z</time></trkpt><trkpt lat="45.5826395" lon="10.4409751"><ele>205.0</ele><time>2026-03-29T07:36:44.658Z</time></trkpt><trkpt lat="45.5825495" lon="10.4409409"><ele>204.83333333333331</ele><time>2026-03-29T07:36:45.649Z</time></trkpt><trkpt lat="45.5824767" lon="10.4409115"><ele>204.66666666666666</ele><time>2026-03-29T07:36:46.652Z</time></trkpt><trkpt lat="45.5824036" lon="10.440883"><ele>204.5</ele><time>2026-03-29T07:36:47.66Z</time></trkpt><trkpt lat="45.5823411" lon="10.4408532"><ele>204.33333333333331</ele><time>2026-03-29T07:36:48.659Z</time></trkpt><trkpt lat="45.5822368" lon="10.4408078"><ele>204.16666666666666</ele><time>2026-03-29T07:36:50.653Z</time></trkpt><trkpt lat="45.5821825" lon="10.4407592"><ele>204.0</ele><time>2026-03-29T07:36:52.672Z</time></trkpt><trkpt lat="45.582186" lon="10.440853"><ele>204.0</ele><time>2026-03-29T07:37:14.66Z</time></trkpt><trkpt lat="45.582318" lon="10.4409271"><ele>204.0</ele><time>2026-03-29T07:37:16.654Z</time></trkpt><trkpt lat="45.5824342" lon="10.4409672"><ele>204.0</ele><time>2026-03-29T07:37:17.652Z</time></trkpt><trkpt lat="45.5825636" lon="10.4410094"><ele>204.0</ele><time>2026-03-29T07:37:18.65Z</time></trkpt><trkpt lat="45.5826815" lon="10.4410462"><ele>204.0</ele><time>2026-03-29T07:37:19.643Z</time></trkpt><trkpt lat="45.5827766" lon="10.44108"><ele>204.0</ele><time>2026-03-29T07:37:20.633Z</time></trkpt><trkpt lat="45.5828461" lon="10.4410985"><ele>204.0</ele><time>2026-03-29T07:37:21.639Z</time></trkpt><trkpt lat="45.5829213" lon="10.4411341"><ele>204.0</ele><time>2026-03-29T07:37:23.643Z</time></trkpt><trkpt lat="45.5829892" lon="10.4411591"><ele>204.0</ele><time>2026-03-29T07:37:35.668Z</time></trkpt><trkpt lat="45.583034" lon="10.4412362"><ele>204.0</ele><time>2026-03-29T07:37:37.662Z</time></trkpt><trkpt lat="45.5830112" lon="10.4414025"><ele>204.25</ele><time>2026-03-29T07:37:39.669Z</time></trkpt><trkpt lat="45.5829516" lon="10.4415148"><ele>204.5</ele><time>2026-03-29T07:37:40.661Z</time></trkpt><trkpt lat="45.5828544" lon="10.4416426"><ele>204.75</ele><time>2026-03-29T07:37:41.651Z</time></trkpt><trkpt lat="45.5827433" lon="10.4417848"><ele>205.0</ele><time>2026-03-29T07:37:42.652Z</time></trkpt><trkpt lat="45.5826217" lon="10.4419427"><ele>205.0</ele><time>2026-03-29T07:37:43.651Z</time></trkpt><trkpt lat="45.582481" lon="10.4420928"><ele>205.0</ele><time>2026-03-29T07:37:44.654Z</time></trkpt><trkpt lat="45.582365" lon="10.4422442"><ele>205.0</ele><time>2026-03-29T07:37:45.652Z</time></trkpt><trkpt lat="45.5822507" lon="10.4424278"><ele>204.75</ele><time>2026-03-29T07:37:46.661Z</time></trkpt><trkpt lat="45.5821663" lon="10.4426062"><ele>204.5</ele><time>2026-03-29T07:37:48.74Z</time></trkpt><trkpt lat="45.5820844" lon="10.442784"><ele>204.25</ele><time>2026-03-29T07:37:49.745Z</time></trkpt><trkpt lat="45.582009" lon="10.442944"><ele>204.0</ele><time>2026-03-29T07:37:50.737Z</time></trkpt><trkpt lat="45.5819305" lon="10.4431082"><ele>203.5</ele><time>2026-03-29T07:37:51.747Z</time></trkpt><trkpt lat="45.5818387" lon="10.4432506"><ele>203.0</ele><time>2026-03-29T07:37:52.739Z</time></trkpt><trkpt lat="45.5817379" lon="10.4433821"><ele>202.5</ele><time>2026-03-29T07:37:53.723Z</time></trkpt><trkpt lat="45.5816294" lon="10.44351"><ele>202.0</ele><time>2026-03-29T07:37:54.72Z</time></trkpt><trkpt lat="45.5815103" lon="10.4436309"><ele>202.0</ele><time>2026-03-29T07:37:55.722Z</time></trkpt><trkpt lat="45.5813893" lon="10.4437436"><ele>202.0</ele><time>2026-03-29T07:37:56.72Z</time></trkpt><trkpt lat="45.5812557" lon="10.4438531"><ele>202.0</ele><time>2026-03-29T07:37:57.735Z</time></trkpt><trkpt lat="45.5811075" lon="10.4439602"><ele>202.0</ele><time>2026-03-29T07:37:58.728Z</time></trkpt><trkpt lat="45.5807275" lon="10.4441429"><ele>202.0</ele><time>2026-03-29T07:37:59.647Z</time></trkpt><trkpt lat="45.5805794" lon="10.4441864"><ele>202.0</ele><time>2026-03-29T07:38:00.654Z</time></trkpt><trkpt lat="45.5804138" lon="10.4442267"><ele>202.0</ele><time>2026-03-29T07:38:01.659Z</time></trkpt><trkpt lat="45.5802298" lon="10.4442812"><ele>202.0</ele><time>2026-03-29T07:38:02.654Z</time></trkpt><trkpt lat="45.5800735" lon="10.4443152"><ele>201.75</ele><time>2026-03-29T07:38:03.658Z</time></trkpt><trkpt lat="45.579938" lon="10.4443627"><ele>201.5</ele><time>2026-03-29T07:38:04.674Z</time></trkpt><trkpt lat="45.5798067" lon="10.4444134"><ele>201.25</ele><time>2026-03-29T07:38:05.658Z</time></trkpt><trkpt lat="45.5796741" lon="10.4444641"><ele>201.0</ele><time>2026-03-29T07:38:06.666Z</time></trkpt><trkpt lat="45.5795468" lon="10.4445149"><ele>201.20000000000002</ele><time>2026-03-29T07:38:07.653Z</time></trkpt><trkpt lat="45.5794479" lon="10.4445549"><ele>201.4</ele><time>2026-03-29T07:38:08.655Z</time></trkpt><trkpt lat="45.5793434" lon="10.4445822"><ele>201.6</ele><time>2026-03-29T07:38:09.665Z</time></trkpt><trkpt lat="45.5792462" lon="10.44462"><ele>201.8</ele><time>2026-03-29T07:38:10.656Z</time></trkpt><trkpt lat="45.5791447" lon="10.4446633"><ele>202.0</ele><time>2026-03-29T07:38:11.66Z</time></trkpt><trkpt lat="45.5790617" lon="10.4447077"><ele>202.2</ele><time>2026-03-29T07:38:12.648Z</time></trkpt><trkpt lat="45.5789713" lon="10.4447662"><ele>202.39999999999998</ele><time>2026-03-29T07:38:13.65Z</time></trkpt><trkpt lat="45.5788813" lon="10.4448351"><ele>202.60000000000002</ele><time>2026-03-29T07:38:14.652Z</time></trkpt><trkpt lat="45.5787971" lon="10.4449008"><ele>202.8</ele><time>2026-03-29T07:38:15.651Z</time></trkpt><trkpt lat="45.5787176" lon="10.4449539"><ele>203.0</ele><time>2026-03-29T07:38:16.653Z</time></trkpt><trkpt lat="45.5786432" lon="10.4449955"><ele>203.0</ele><time>2026-03-29T07:38:17.65Z</time></trkpt><trkpt lat="45.5785776" lon="10.4450341"><ele>203.0</ele><time>2026-03-29T07:38:18.663Z</time></trkpt><trkpt lat="45.5784695" lon="10.4451069"><ele>203.0</ele><time>2026-03-29T07:38:20.651Z</time></trkpt><trkpt lat="45.5783538" lon="10.4451497"><ele>203.0</ele><time>2026-03-29T07:38:22.655Z</time></trkpt><trkpt lat="45.578287" lon="10.445158"><ele>203.0</ele><time>2026-03-29T07:38:23.652Z</time></trkpt><trkpt lat="45.5781728" lon="10.4451631"><ele>203.0</ele><time>2026-03-29T07:38:25.652Z</time></trkpt><trkpt lat="45.5780795" lon="10.4451567"><ele>203.0</ele><time>2026-03-29T07:38:27.652Z</time></trkpt><trkpt lat="45.5779951" lon="10.4451029"><ele>203.0</ele><time>2026-03-29T07:38:29.655Z</time></trkpt><trkpt lat="45.5779112" lon="10.4450462"><ele>203.0</ele><time>2026-03-29T07:38:31.664Z</time></trkpt><trkpt lat="45.5778627" lon="10.4451647"><ele>203.0</ele><time>2026-03-29T07:38:33.659Z</time></trkpt><trkpt lat="45.5778592" lon="10.4453232"><ele>203.0</ele><time>2026-03-29T07:38:35.669Z</time></trkpt><trkpt lat="45.5778518" lon="10.4454248"><ele>203.0</ele><time>2026-03-29T07:38:37.665Z</time></trkpt><trkpt lat="45.5777848" lon="10.4453805"><ele>203.0</ele><time>2026-03-29T07:38:39.667Z</time></trkpt><trkpt lat="45.5776962" lon="10.4452681"><ele>203.0</ele><time>2026-03-29T07:38:41.65Z</time></trkpt><trkpt lat="45.5776601" lon="10.4451417"><ele>203.0</ele><time>2026-03-29T07:38:43.661Z</time></trkpt><trkpt lat="45.5777086" lon="10.4450313"><ele>202.83333333333334</ele><time>2026-03-29T07:38:45.661Z</time></trkpt><trkpt lat="45.5777652" lon="10.4449011"><ele>202.66666666666669</ele><time>2026-03-29T07:38:47.665Z</time></trkpt><trkpt lat="45.5777467" lon="10.4448012"><ele>202.5</ele><time>2026-03-29T07:43:41.675Z</time></trkpt><trkpt lat="45.5777878" lon="10.4447084"><ele>202.33333333333331</ele><time>2026-03-29T07:43:45.671Z</time></trkpt><trkpt lat="45.5778508" lon="10.4446393"><ele>202.16666666666666</ele><time>2026-03-29T07:43:49.678Z</time></trkpt><trkpt lat="45.5778453" lon="10.4444951"><ele>202.0</ele><time>2026-03-29T07:43:51.68Z</time></trkpt><trkpt lat="45.5778149" lon="10.4443645"><ele>202.0</ele><time>2026-03-29T07:43:52.655Z</time></trkpt><trkpt lat="45.5777719" lon="10.4442322"><ele>202.0</ele><time>2026-03-29T07:43:53.666Z</time></trkpt><trkpt lat="45.5777285" lon="10.4440783"><ele>202.0</ele><time>2026-03-29T07:43:54.665Z</time></trkpt><trkpt lat="45.5776815" lon="10.44391"><ele>202.0</ele><time>2026-03-29T07:43:55.664Z</time></trkpt><trkpt lat="45.5776298" lon="10.4437343"><ele>201.25</ele><time>2026-03-29T07:43:56.671Z</time></trkpt><trkpt lat="45.5775813" lon="10.4435518"><ele>200.5</ele><time>2026-03-29T07:43:57.666Z</time></trkpt><trkpt lat="45.5775233" lon="10.4433724"><ele>199.75</ele><time>2026-03-29T07:43:58.667Z</time></trkpt><trkpt lat="45.577471" lon="10.4432066"><ele>199.0</ele><time>2026-03-29T07:43:59.665Z</time></trkpt><trkpt lat="45.5774211" lon="10.4430589"><ele>198.66666666666666</ele><time>2026-03-29T07:44:00.67Z</time></trkpt><trkpt lat="45.5773817" lon="10.4429267"><ele>198.33333333333331</ele><time>2026-03-29T07:44:01.667Z</time></trkpt><trkpt lat="45.5773394" lon="10.4428114"><ele>198.0</ele><time>2026-03-29T07:44:02.668Z</time></trkpt><trkpt lat="45.5772985" lon="10.4427179"><ele>197.66666666666669</ele><time>2026-03-29T07:44:03.671Z</time></trkpt><trkpt lat="45.5772596" lon="10.4426448"><ele>197.33333333333334</ele><time>2026-03-29T07:44:04.666Z</time></trkpt><trkpt lat="45.5771771" lon="10.4425294"><ele>197.0</ele><time>2026-03-29T07:44:06.693Z</time></trkpt><trkpt lat="45.5771088" lon="10.4424366"><ele>197.0</ele><time>2026-03-29T07:44:08.683Z</time></trkpt><trkpt lat="45.577062" lon="10.4422885"><ele>197.0</ele><time>2026-03-29T07:44:10.675Z</time></trkpt><trkpt lat="45.5770118" lon="10.4421952"><ele>197.0</ele><time>2026-03-29T07:44:12.67Z</time></trkpt><trkpt lat="45.5769168" lon="10.4421982"><ele>197.0</ele><time>2026-03-29T07:44:14.694Z</time></trkpt><trkpt lat="45.576825" lon="10.4423465"><ele>197.0</ele><time>2026-03-29T07:44:16.679Z</time></trkpt><trkpt lat="45.5767795" lon="10.4424422"><ele>197.39999999999998</ele><time>2026-03-29T07:44:17.669Z</time></trkpt><trkpt lat="45.5767175" lon="10.4425254"><ele>197.79999999999998</ele><time>2026-03-29T07:44:18.667Z</time></trkpt><trkpt lat="45.5766289" lon="10.442606"><ele>198.2</ele><time>2026-03-29T07:44:19.664Z</time></trkpt><trkpt lat="45.5765377" lon="10.4427021"><ele>198.6</ele><time>2026-03-29T07:44:20.664Z</time></trkpt><trkpt lat="45.5764454" lon="10.4427863"><ele>199.0</ele><time>2026-03-29T07:44:21.66Z</time></trkpt><trkpt lat="45.5763677" lon="10.4428594"><ele>198.99999999999997</ele><time>2026-03-29T07:44:22.669Z</time></trkpt><trkpt lat="45.5763015" lon="10.4429163"><ele>199.0</ele><time>2026-03-29T07:44:23.667Z</time></trkpt><trkpt lat="45.5762288" lon="10.4429551"><ele>199.0</ele><time>2026-03-29T07:44:24.667Z</time></trkpt><trkpt lat="45.5761544" lon="10.4430026"><ele>199.0</ele><time>2026-03-29T07:44:25.656Z</time></trkpt><trkpt lat="45.5761001" lon="10.4430709"><ele>198.99999999999997</ele><time>2026-03-29T07:44:26.666Z</time></trkpt><trkpt lat="45.5760731" lon="10.4431586"><ele>199.0</ele><time>2026-03-29T07:44:27.669Z</time></trkpt><trkpt lat="45.5760628" lon="10.4432668"><ele>199.6</ele><time>2026-03-29T07:44:28.67Z</time></trkpt><trkpt lat="45.576062" lon="10.4433932"><ele>200.2</ele><time>2026-03-29T07:44:29.675Z</time></trkpt><trkpt lat="45.576059" lon="10.4435347"><ele>200.79999999999998</ele><time>2026-03-29T07:44:30.673Z</time></trkpt><trkpt lat="45.5760406" lon="10.4436847"><ele>201.39999999999998</ele><time>2026-03-29T07:44:31.666Z</time></trkpt><trkpt lat="45.5759941" lon="10.4438401"><ele>202.0</ele><time>2026-03-29T07:44:32.659Z</time></trkpt><trkpt lat="45.5759389" lon="10.4439948"><ele>202.0</ele><time>2026-03-29T07:44:33.668Z</time></trkpt><trkpt lat="45.5758654" lon="10.4441589"><ele>202.0</ele><time>2026-03-29T07:44:34.67Z</time></trkpt><trkpt lat="45.5758038" lon="10.4443012"><ele>202.0</ele><time>2026-03-29T07:44:35.664Z</time></trkpt><trkpt lat="45.5757544" lon="10.4444343"><ele>202.0</ele><time>2026-03-29T07:44:36.662Z</time></trkpt><trkpt lat="45.5757165" lon="10.4445478"><ele>202.0</ele><time>2026-03-29T07:44:37.656Z</time></trkpt><trkpt lat="45.5756926" lon="10.4446561"><ele>202.0</ele><time>2026-03-29T07:44:38.666Z</time></trkpt><trkpt lat="45.5756608" lon="10.4447645"><ele>202.0</ele><time>2026-03-29T07:44:39.664Z</time></trkpt><trkpt lat="45.5756119" lon="10.4448828"><ele>202.0</ele><time>2026-03-29T07:44:40.663Z</time></trkpt><trkpt lat="45.5755457" lon="10.4450241"><ele>202.0</ele><time>2026-03-29T07:44:41.665Z</time></trkpt><trkpt lat="45.5754709" lon="10.4451761"><ele>202.0</ele><time>2026-03-29T07:44:42.668Z</time></trkpt><trkpt lat="45.5753819" lon="10.4453402"><ele>203.33333333333331</ele><time>2026-03-29T07:44:43.667Z</time></trkpt><trkpt lat="45.5752905" lon="10.4455096"><ele>204.66666666666669</ele><time>2026-03-29T07:44:44.671Z</time></trkpt><trkpt lat="45.5752001" lon="10.4456922"><ele>206.0</ele><time>2026-03-29T07:44:45.693Z</time></trkpt><trkpt lat="45.5751031" lon="10.4458772"><ele>206.0</ele><time>2026-03-29T07:44:46.676Z</time></trkpt><trkpt lat="45.5750113" lon="10.4460365"><ele>206.0</ele><time>2026-03-29T07:44:47.675Z</time></trkpt><trkpt lat="45.5749159" lon="10.4461929"><ele>206.0</ele><time>2026-03-29T07:44:48.672Z</time></trkpt><trkpt lat="45.5748104" lon="10.4463524"><ele>206.0</ele><time>2026-03-29T07:44:49.679Z</time></trkpt><trkpt lat="45.5746862" lon="10.4465053"><ele>207.0</ele><time>2026-03-29T07:44:50.67Z</time></trkpt><trkpt lat="45.5745796" lon="10.4466613"><ele>208.0</ele><time>2026-03-29T07:44:51.673Z</time></trkpt><trkpt lat="45.5744714" lon="10.4468212"><ele>209.0</ele><time>2026-03-29T07:44:52.674Z</time></trkpt><trkpt lat="45.5743642" lon="10.4469857"><ele>210.33333333333334</ele><time>2026-03-29T07:44:53.674Z</time></trkpt><trkpt lat="45.5742436" lon="10.4471608"><ele>211.66666666666669</ele><time>2026-03-29T07:44:54.674Z</time></trkpt><trkpt lat="45.5741238" lon="10.4473228"><ele>213.0</ele><time>2026-03-29T07:44:55.67Z</time></trkpt><trkpt lat="45.5740089" lon="10.4474817"><ele>213.0</ele><time>2026-03-29T07:44:56.669Z</time></trkpt><trkpt lat="45.5738916" lon="10.4476407"><ele>213.0</ele><time>2026-03-29T07:44:57.664Z</time></trkpt><trkpt lat="45.5737885" lon="10.447796"><ele>213.0</ele><time>2026-03-29T07:44:58.66Z</time></trkpt><trkpt lat="45.5736879" lon="10.4479684"><ele>215.33333333333331</ele><time>2026-03-29T07:44:59.661Z</time></trkpt><trkpt lat="45.5736008" lon="10.4481697"><ele>217.66666666666666</ele><time>2026-03-29T07:45:00.655Z</time></trkpt><trkpt lat="45.5735277" lon="10.4483689"><ele>220.0</ele><time>2026-03-29T07:45:01.65Z</time></trkpt><trkpt lat="45.5734609" lon="10.4485792"><ele>220.66666666666666</ele><time>2026-03-29T07:45:02.653Z</time></trkpt><trkpt lat="45.5733954" lon="10.4488168"><ele>221.33333333333331</ele><time>2026-03-29T07:45:03.648Z</time></trkpt><trkpt lat="45.5733332" lon="10.4490635"><ele>222.0</ele><time>2026-03-29T07:45:04.648Z</time></trkpt><trkpt lat="45.5732874" lon="10.4492683"><ele>222.0</ele><time>2026-03-29T07:45:05.637Z</time></trkpt><trkpt lat="45.5732419" lon="10.4494577"><ele>222.0</ele><time>2026-03-29T07:45:06.64Z</time></trkpt><trkpt lat="45.5731909" lon="10.4496478"><ele>222.0</ele><time>2026-03-29T07:45:07.644Z</time></trkpt><trkpt lat="45.5731213" lon="10.4498515"><ele>222.0</ele><time>2026-03-29T07:45:08.648Z</time></trkpt><trkpt lat="45.5730229" lon="10.4500371"><ele>222.0</ele><time>2026-03-29T07:45:09.644Z</time></trkpt><trkpt lat="45.5728969" lon="10.4502177"><ele>222.0</ele><time>2026-03-29T07:45:10.648Z</time></trkpt><trkpt lat="45.5727553" lon="10.4503723"><ele>222.0</ele><time>2026-03-29T07:45:11.652Z</time></trkpt><trkpt lat="45.5726234" lon="10.4505405"><ele>222.66666666666669</ele><time>2026-03-29T07:45:12.651Z</time></trkpt><trkpt lat="45.5724787" lon="10.4506971"><ele>223.33333333333334</ele><time>2026-03-29T07:45:13.661Z</time></trkpt><trkpt lat="45.572346" lon="10.4508678"><ele>224.0</ele><time>2026-03-29T07:45:14.666Z</time></trkpt><trkpt lat="45.5721958" lon="10.4510476"><ele>224.0</ele><time>2026-03-29T07:45:15.661Z</time></trkpt><trkpt lat="45.572059" lon="10.4512204"><ele>224.0</ele><time>2026-03-29T07:45:16.681Z</time></trkpt><trkpt lat="45.5719387" lon="10.4513891"><ele>224.0</ele><time>2026-03-29T07:45:17.662Z</time></trkpt><trkpt lat="45.5718222" lon="10.4515719"><ele>224.33333333333334</ele><time>2026-03-29T07:45:18.662Z</time></trkpt><trkpt lat="45.5717019" lon="10.4517693"><ele>224.66666666666669</ele><time>2026-03-29T07:45:19.667Z</time></trkpt><trkpt lat="45.5715721" lon="10.451971"><ele>225.0</ele><time>2026-03-29T07:45:20.658Z</time></trkpt><trkpt lat="45.5714549" lon="10.4521795"><ele>225.0</ele><time>2026-03-29T07:45:21.662Z</time></trkpt><trkpt lat="45.5713318" lon="10.4523847"><ele>225.0</ele><time>2026-03-29T07:45:22.66Z</time></trkpt><trkpt lat="45.5712154" lon="10.4525886"><ele>225.0</ele><time>2026-03-29T07:45:23.662Z</time></trkpt><trkpt lat="45.5710871" lon="10.4527808"><ele>225.33333333333331</ele><time>2026-03-29T07:45:24.662Z</time></trkpt><trkpt lat="45.5709696" lon="10.4529718"><ele>225.66666666666666</ele><time>2026-03-29T07:45:25.658Z</time></trkpt><trkpt lat="45.57083" lon="10.4531458"><ele>226.0</ele><time>2026-03-29T07:45:26.66Z</time></trkpt><trkpt lat="45.5706866" lon="10.453314"><ele>226.0</ele><time>2026-03-29T07:45:27.658Z</time></trkpt><trkpt lat="45.5705436" lon="10.4534809"><ele>226.0</ele><time>2026-03-29T07:45:28.659Z</time></trkpt><trkpt lat="45.5703942" lon="10.4536171"><ele>226.0</ele><time>2026-03-29T07:45:29.657Z</time></trkpt><trkpt lat="45.5702467" lon="10.4537513"><ele>227.33333333333331</ele><time>2026-03-29T07:45:30.667Z</time></trkpt><trkpt lat="45.5701098" lon="10.4538986"><ele>228.66666666666669</ele><time>2026-03-29T07:45:31.666Z</time></trkpt><trkpt lat="45.5699571" lon="10.4540599"><ele>230.0</ele><time>2026-03-29T07:45:32.665Z</time></trkpt><trkpt lat="45.5697898" lon="10.4542278"><ele>230.0</ele><time>2026-03-29T07:45:33.663Z</time></trkpt><trkpt lat="45.5696327" lon="10.4543827"><ele>230.0</ele><time>2026-03-29T07:45:34.668Z</time></trkpt><trkpt lat="45.5694748" lon="10.4545398"><ele>230.0</ele><time>2026-03-29T07:45:35.659Z</time></trkpt><trkpt lat="45.5693209" lon="10.4547018"><ele>231.66666666666669</ele><time>2026-03-29T07:45:36.66Z</time></trkpt><trkpt lat="45.5691613" lon="10.4548486"><ele>233.33333333333331</ele><time>2026-03-29T07:45:37.661Z</time></trkpt><trkpt lat="45.5690162" lon="10.4549865"><ele>235.0</ele><time>2026-03-29T07:45:38.661Z</time></trkpt><trkpt lat="45.568876" lon="10.4551332"><ele>235.0</ele><time>2026-03-29T07:45:39.662Z</time></trkpt><trkpt lat="45.5687232" lon="10.4552652"><ele>235.0</ele><time>2026-03-29T07:45:40.667Z</time></trkpt><trkpt lat="45.5685889" lon="10.4553858"><ele>235.0</ele><time>2026-03-29T07:45:41.662Z</time></trkpt><trkpt lat="45.5684494" lon="10.4554967"><ele>235.66666666666666</ele><time>2026-03-29T07:45:42.664Z</time></trkpt><trkpt lat="45.5683031" lon="10.4556347"><ele>236.33333333333331</ele><time>2026-03-29T07:45:43.66Z</time></trkpt><trkpt lat="45.5681582" lon="10.4557927"><ele>237.0</ele><time>2026-03-29T07:45:44.656Z</time></trkpt><trkpt lat="45.5680138" lon="10.4559666"><ele>237.0</ele><time>2026-03-29T07:45:45.656Z</time></trkpt><trkpt lat="45.5678802" lon="10.4561604"><ele>237.0</ele><time>2026-03-29T07:45:46.669Z</time></trkpt><trkpt lat="45.5677465" lon="10.4563604"><ele>237.0</ele><time>2026-03-29T07:45:47.681Z</time></trkpt><trkpt lat="45.5676147" lon="10.4565662"><ele>237.33333333333331</ele><time>2026-03-29T07:45:48.666Z</time></trkpt><trkpt lat="45.5674885" lon="10.456769"><ele>237.66666666666666</ele><time>2026-03-29T07:45:49.669Z</time></trkpt><trkpt lat="45.5673739" lon="10.4569455"><ele>238.0</ele><time>2026-03-29T07:45:50.658Z</time></trkpt><trkpt lat="45.5672791" lon="10.4571358"><ele>238.33333333333331</ele><time>2026-03-29T07:45:51.658Z</time></trkpt><trkpt lat="45.567161" lon="10.457332"><ele>238.66666666666669</ele><time>2026-03-29T07:45:52.658Z</time></trkpt><trkpt lat="45.5670329" lon="10.4575071"><ele>239.0</ele><time>2026-03-29T07:45:53.658Z</time></trkpt><trkpt lat="45.5669285" lon="10.457658"><ele>238.25</ele><time>2026-03-29T07:45:54.655Z</time></trkpt><trkpt lat="45.5668156" lon="10.4578177"><ele>237.5</ele><time>2026-03-29T07:45:55.66Z</time></trkpt><trkpt lat="45.5667165" lon="10.4579463"><ele>236.75</ele><time>2026-03-29T07:45:56.666Z</time></trkpt><trkpt lat="45.5666252" lon="10.4580807"><ele>236.0</ele><time>2026-03-29T07:45:57.657Z</time></trkpt><trkpt lat="45.5665476" lon="10.4581926"><ele>236.00000000000003</ele><time>2026-03-29T07:45:58.665Z</time></trkpt><trkpt lat="45.5664706" lon="10.4583118"><ele>236.0</ele><time>2026-03-29T07:45:59.648Z</time></trkpt><trkpt lat="45.5664128" lon="10.4584045"><ele>236.0</ele><time>2026-03-29T07:46:00.654Z</time></trkpt><trkpt lat="45.5663641" lon="10.4584828"><ele>236.0</ele><time>2026-03-29T07:46:01.654Z</time></trkpt><trkpt lat="45.5663115" lon="10.4585626"><ele>236.00000000000003</ele><time>2026-03-29T07:46:02.658Z</time></trkpt><trkpt lat="45.5662531" lon="10.4586069"><ele>236.0</ele><time>2026-03-29T07:46:03.65Z</time></trkpt><trkpt lat="45.5661809" lon="10.4586439"><ele>236.60000000000002</ele><time>2026-03-29T07:46:05.659Z</time></trkpt><trkpt lat="45.5661035" lon="10.458688"><ele>237.20000000000002</ele><time>2026-03-29T07:46:07.661Z</time></trkpt><trkpt lat="45.5659753" lon="10.4586775"><ele>237.79999999999998</ele><time>2026-03-29T07:46:09.654Z</time></trkpt><trkpt lat="45.5658958" lon="10.4586494"><ele>238.39999999999998</ele><time>2026-03-29T07:46:10.648Z</time></trkpt><trkpt lat="45.5658157" lon="10.4586073"><ele>239.0</ele><time>2026-03-29T07:46:11.66Z</time></trkpt><trkpt lat="45.5657345" lon="10.4585716"><ele>239.0</ele><time>2026-03-29T07:46:12.661Z</time></trkpt><trkpt lat="45.565646" lon="10.4585344"><ele>238.99999999999997</ele><time>2026-03-29T07:46:13.655Z</time></trkpt><trkpt lat="45.5655571" lon="10.458494"><ele>238.99999999999997</ele><time>2026-03-29T07:46:14.663Z</time></trkpt><trkpt lat="45.5654613" lon="10.458451"><ele>239.0</ele><time>2026-03-29T07:46:15.677Z</time></trkpt><trkpt lat="45.565349" lon="10.4584278"><ele>239.0</ele><time>2026-03-29T07:46:17.748Z</time></trkpt><trkpt lat="45.5651416" lon="10.458412"><ele>238.75</ele><time>2026-03-29T07:46:18.666Z</time></trkpt><trkpt lat="45.5650445" lon="10.458383"><ele>238.5</ele><time>2026-03-29T07:46:19.639Z</time></trkpt><trkpt lat="45.5649434" lon="10.4583135"><ele>238.25</ele><time>2026-03-29T07:46:20.646Z</time></trkpt><trkpt lat="45.5648321" lon="10.4582392"><ele>238.0</ele><time>2026-03-29T07:46:21.64Z</time></trkpt><trkpt lat="45.5647101" lon="10.4581522"><ele>238.0</ele><time>2026-03-29T07:46:22.651Z</time></trkpt><trkpt lat="45.5645825" lon="10.4580659"><ele>238.0</ele><time>2026-03-29T07:46:23.655Z</time></trkpt><trkpt lat="45.5644599" lon="10.4579886"><ele>238.0</ele><time>2026-03-29T07:46:24.656Z</time></trkpt><trkpt lat="45.5643264" lon="10.4579253"><ele>238.0</ele><time>2026-03-29T07:46:25.659Z</time></trkpt><trkpt lat="45.5641949" lon="10.4578593"><ele>237.5</ele><time>2026-03-29T07:46:26.652Z</time></trkpt><trkpt lat="45.564064" lon="10.4577847"><ele>237.0</ele><time>2026-03-29T07:46:27.662Z</time></trkpt><trkpt lat="45.5639389" lon="10.4577179"><ele>236.5</ele><time>2026-03-29T07:46:28.662Z</time></trkpt><trkpt lat="45.563812" lon="10.4576522"><ele>236.0</ele><time>2026-03-29T07:46:29.661Z</time></trkpt><trkpt lat="45.5636948" lon="10.4575945"><ele>236.00000000000003</ele><time>2026-03-29T07:46:30.662Z</time></trkpt><trkpt lat="45.5635947" lon="10.4575436"><ele>236.0</ele><time>2026-03-29T07:46:31.649Z</time></trkpt><trkpt lat="45.5635071" lon="10.457503"><ele>236.0</ele><time>2026-03-29T07:46:32.648Z</time></trkpt><trkpt lat="45.5634411" lon="10.4574959"><ele>236.0</ele><time>2026-03-29T07:46:33.65Z</time></trkpt><trkpt lat="45.5633735" lon="10.4574928"><ele>236.00000000000003</ele><time>2026-03-29T07:46:34.64Z</time></trkpt><trkpt lat="45.5632909" lon="10.4575566"><ele>236.0</ele><time>2026-03-29T07:46:36.645Z</time></trkpt><trkpt lat="45.5632608" lon="10.4576369"><ele>236.0</ele><time>2026-03-29T07:46:37.651Z</time></trkpt><trkpt lat="45.5632411" lon="10.4577595"><ele>236.00000000000003</ele><time>2026-03-29T07:46:38.645Z</time></trkpt><trkpt lat="45.5632284" lon="10.457905"><ele>236.00000000000003</ele><time>2026-03-29T07:46:39.643Z</time></trkpt><trkpt lat="45.5632262" lon="10.4580549"><ele>236.0</ele><time>2026-03-29T07:46:40.644Z</time></trkpt><trkpt lat="45.5632279" lon="10.4581815"><ele>236.0</ele><time>2026-03-29T07:46:41.647Z</time></trkpt><trkpt lat="45.5632252" lon="10.4582951"><ele>236.50000000000003</ele><time>2026-03-29T07:46:42.645Z</time></trkpt><trkpt lat="45.5632216" lon="10.4584006"><ele>237.0</ele><time>2026-03-29T07:46:43.662Z</time></trkpt><trkpt lat="45.5631975" lon="10.4585003"><ele>237.5</ele><time>2026-03-29T07:46:44.652Z</time></trkpt><trkpt lat="45.5631659" lon="10.4586018"><ele>238.0</ele><time>2026-03-29T07:46:45.648Z</time></trkpt><trkpt lat="45.563141" lon="10.4587256"><ele>238.50000000000003</ele><time>2026-03-29T07:46:46.645Z</time></trkpt><trkpt lat="45.563114" lon="10.4588788"><ele>239.0</ele><time>2026-03-29T07:46:47.644Z</time></trkpt><trkpt lat="45.5630813" lon="10.4590547"><ele>239.5</ele><time>2026-03-29T07:46:48.651Z</time></trkpt><trkpt lat="45.5630418" lon="10.4592297"><ele>240.0</ele><time>2026-03-29T07:46:49.671Z</time></trkpt><trkpt lat="45.5629989" lon="10.4593935"><ele>240.5</ele><time>2026-03-29T07:46:50.654Z</time></trkpt><trkpt lat="45.5629485" lon="10.4595517"><ele>241.0</ele><time>2026-03-29T07:46:51.653Z</time></trkpt><trkpt lat="45.5629033" lon="10.4596919"><ele>241.16666666666666</ele><time>2026-03-29T07:46:52.651Z</time></trkpt><trkpt lat="45.5628682" lon="10.459811"><ele>241.33333333333331</ele><time>2026-03-29T07:46:53.652Z</time></trkpt><trkpt lat="45.5628389" lon="10.4599038"><ele>241.5</ele><time>2026-03-29T07:46:54.645Z</time></trkpt><trkpt lat="45.5628053" lon="10.4600359"><ele>241.66666666666669</ele><time>2026-03-29T07:46:56.651Z</time></trkpt><trkpt lat="45.5626979" lon="10.4600289"><ele>241.83333333333334</ele><time>2026-03-29T07:46:59.655Z</time></trkpt><trkpt lat="45.5626283" lon="10.4599809"><ele>242.0</ele><time>2026-03-29T07:47:00.644Z</time></trkpt><trkpt lat="45.5625506" lon="10.4599397"><ele>242.0</ele><time>2026-03-29T07:47:01.65Z</time></trkpt><trkpt lat="45.5624641" lon="10.4599101"><ele>242.0</ele><time>2026-03-29T07:47:02.651Z</time></trkpt><trkpt lat="45.562372" lon="10.4598759"><ele>242.0</ele><time>2026-03-29T07:47:03.648Z</time></trkpt><trkpt lat="45.5622636" lon="10.459835"><ele>242.0</ele><time>2026-03-29T07:47:04.65Z</time></trkpt><trkpt lat="45.5621321" lon="10.4597926"><ele>242.0</ele><time>2026-03-29T07:47:05.648Z</time></trkpt><trkpt lat="45.5620038" lon="10.4597426"><ele>241.5</ele><time>2026-03-29T07:47:06.647Z</time></trkpt><trkpt lat="45.5618766" lon="10.4596874"><ele>241.0</ele><time>2026-03-29T07:47:07.654Z</time></trkpt><trkpt lat="45.5617391" lon="10.4596404"><ele>240.5</ele><time>2026-03-29T07:47:08.658Z</time></trkpt><trkpt lat="45.5616145" lon="10.4595827"><ele>240.0</ele><time>2026-03-29T07:47:09.661Z</time></trkpt><trkpt lat="45.5614933" lon="10.4595181"><ele>239.5</ele><time>2026-03-29T07:47:10.658Z</time></trkpt><trkpt lat="45.5613699" lon="10.4594607"><ele>239.0</ele><time>2026-03-29T07:47:11.662Z</time></trkpt><trkpt lat="45.5612428" lon="10.4594124"><ele>238.5</ele><time>2026-03-29T07:47:12.663Z</time></trkpt><trkpt lat="45.5611061" lon="10.4593798"><ele>238.0</ele><time>2026-03-29T07:47:13.665Z</time></trkpt><trkpt lat="45.5609553" lon="10.4593568"><ele>237.0</ele><time>2026-03-29T07:47:14.663Z</time></trkpt><trkpt lat="45.5608021" lon="10.459348"><ele>236.0</ele><time>2026-03-29T07:47:15.669Z</time></trkpt><trkpt lat="45.5606684" lon="10.4593454"><ele>235.0</ele><time>2026-03-29T07:47:16.662Z</time></trkpt><trkpt lat="45.5605362" lon="10.4593317"><ele>234.0</ele><time>2026-03-29T07:47:17.665Z</time></trkpt><trkpt lat="45.5604132" lon="10.4593148"><ele>233.6</ele><time>2026-03-29T07:47:18.662Z</time></trkpt><trkpt lat="45.5602774" lon="10.4593007"><ele>233.2</ele><time>2026-03-29T07:47:19.662Z</time></trkpt><trkpt lat="45.5601485" lon="10.4592747"><ele>232.79999999999998</ele><time>2026-03-29T07:47:20.681Z</time></trkpt><trkpt lat="45.5600619" lon="10.4592603"><ele>232.39999999999998</ele><time>2026-03-29T07:47:21.656Z</time></trkpt><trkpt lat="45.5599926" lon="10.4592365"><ele>232.0</ele><time>2026-03-29T07:47:22.664Z</time></trkpt><trkpt lat="45.55993" lon="10.4591665"><ele>232.0</ele><time>2026-03-29T07:47:23.652Z</time></trkpt><trkpt lat="45.5598684" lon="10.4590738"><ele>232.0</ele><time>2026-03-29T07:47:24.658Z</time></trkpt><trkpt lat="45.5598184" lon="10.4589483"><ele>232.0</ele><time>2026-03-29T07:47:25.647Z</time></trkpt><trkpt lat="45.5597795" lon="10.4588006"><ele>232.0</ele><time>2026-03-29T07:47:26.65Z</time></trkpt><trkpt lat="45.5597773" lon="10.4586237"><ele>232.0</ele><time>2026-03-29T07:47:27.644Z</time></trkpt><trkpt lat="45.559795" lon="10.4584303"><ele>231.33333333333331</ele><time>2026-03-29T07:47:28.647Z</time></trkpt><trkpt lat="45.5598163" lon="10.458218"><ele>230.66666666666669</ele><time>2026-03-29T07:47:29.648Z</time></trkpt><trkpt lat="45.5598324" lon="10.4579666"><ele>230.0</ele><time>2026-03-29T07:47:30.655Z</time></trkpt><trkpt lat="45.5598629" lon="10.4577369"><ele>230.0</ele><time>2026-03-29T07:47:31.658Z</time></trkpt><trkpt lat="45.5598892" lon="10.4575164"><ele>230.0</ele><time>2026-03-29T07:47:32.656Z</time></trkpt><trkpt lat="45.559898" lon="10.4573061"><ele>230.0</ele><time>2026-03-29T07:47:33.653Z</time></trkpt><trkpt lat="45.5599203" lon="10.4571199"><ele>230.0</ele><time>2026-03-29T07:47:34.652Z</time></trkpt><trkpt lat="45.5599349" lon="10.4569488"><ele>230.0</ele><time>2026-03-29T07:47:35.651Z</time></trkpt><trkpt lat="45.5599595" lon="10.456812"><ele>230.0</ele><time>2026-03-29T07:47:36.649Z</time></trkpt><trkpt lat="45.5599683" lon="10.4566579"><ele>230.0</ele><time>2026-03-29T07:47:37.642Z</time></trkpt><trkpt lat="45.5599668" lon="10.456521"><ele>230.0</ele><time>2026-03-29T07:47:38.653Z</time></trkpt><trkpt lat="45.5599975" lon="10.4563495"><ele>230.0</ele><time>2026-03-29T07:47:39.65Z</time></trkpt><trkpt lat="45.5600049" lon="10.4561672"><ele>230.0</ele><time>2026-03-29T07:47:40.654Z</time></trkpt><trkpt lat="45.5600137" lon="10.4559866"><ele>230.0</ele><time>2026-03-29T07:47:41.654Z</time></trkpt><trkpt lat="45.5600277" lon="10.4558146"><ele>230.0</ele><time>2026-03-29T07:47:42.659Z</time></trkpt><trkpt lat="45.5600414" lon="10.4556483"><ele>230.0</ele><time>2026-03-29T07:47:43.653Z</time></trkpt><trkpt lat="45.5600498" lon="10.4555117"><ele>230.00000000000003</ele><time>2026-03-29T07:47:44.663Z</time></trkpt><trkpt lat="45.5600583" lon="10.4553929"><ele>230.0</ele><time>2026-03-29T07:47:45.659Z</time></trkpt><trkpt lat="45.5600634" lon="10.4552763"><ele>230.0</ele><time>2026-03-29T07:47:46.658Z</time></trkpt><trkpt lat="45.5600636" lon="10.455171"><ele>230.0</ele><time>2026-03-29T07:47:47.653Z</time></trkpt><trkpt lat="45.5600636" lon="10.4550167"><ele>230.00000000000003</ele><time>2026-03-29T07:47:49.647Z</time></trkpt><trkpt lat="45.5599858" lon="10.4549328"><ele>230.0</ele><time>2026-03-29T07:47:51.673Z</time></trkpt><trkpt lat="45.5598973" lon="10.4549366"><ele>230.0</ele><time>2026-03-29T07:47:52.649Z</time></trkpt><trkpt lat="45.5597927" lon="10.454964"><ele>230.0</ele><time>2026-03-29T07:47:53.647Z</time></trkpt><trkpt lat="45.5596679" lon="10.4549924"><ele>230.0</ele><time>2026-03-29T07:47:54.648Z</time></trkpt><trkpt lat="45.5595523" lon="10.4550147"><ele>230.0</ele><time>2026-03-29T07:47:55.653Z</time></trkpt><trkpt lat="45.5594306" lon="10.4550361"><ele>229.25</ele><time>2026-03-29T07:47:56.649Z</time></trkpt><trkpt lat="45.5592966" lon="10.4550633"><ele>228.5</ele><time>2026-03-29T07:47:57.655Z</time></trkpt><trkpt lat="45.559153" lon="10.4550692"><ele>227.75</ele><time>2026-03-29T07:47:58.651Z</time></trkpt><trkpt lat="45.5590141" lon="10.4550643"><ele>227.0</ele><time>2026-03-29T07:47:59.651Z</time></trkpt><trkpt lat="45.5588545" lon="10.4550751"><ele>226.0</ele><time>2026-03-29T07:48:00.653Z</time></trkpt><trkpt lat="45.5587007" lon="10.4550818"><ele>225.0</ele><time>2026-03-29T07:48:01.651Z</time></trkpt><trkpt lat="45.5585621" lon="10.4551105"><ele>224.0</ele><time>2026-03-29T07:48:02.662Z</time></trkpt><trkpt lat="45.558434" lon="10.455141"><ele>223.0</ele><time>2026-03-29T07:48:03.654Z</time></trkpt><trkpt lat="45.5583055" lon="10.4551829"><ele>223.0</ele><time>2026-03-29T07:48:04.653Z</time></trkpt><trkpt lat="45.5581836" lon="10.4552302"><ele>223.0</ele><time>2026-03-29T07:48:05.652Z</time></trkpt><trkpt lat="45.5580646" lon="10.4552562"><ele>223.0</ele><time>2026-03-29T07:48:06.65Z</time></trkpt><trkpt lat="45.5579606" lon="10.455285"><ele>223.0</ele><time>2026-03-29T07:48:07.651Z</time></trkpt><trkpt lat="45.5578572" lon="10.4553176"><ele>224.0</ele><time>2026-03-29T07:48:08.653Z</time></trkpt><trkpt lat="45.5577835" lon="10.4553841"><ele>225.0</ele><time>2026-03-29T07:48:09.655Z</time></trkpt><trkpt lat="45.5577309" lon="10.4554738"><ele>226.0</ele><time>2026-03-29T07:48:10.646Z</time></trkpt><trkpt lat="45.5576898" lon="10.4556049"><ele>227.0</ele><time>2026-03-29T07:48:11.648Z</time></trkpt><trkpt lat="45.5576669" lon="10.4557462"><ele>228.0</ele><time>2026-03-29T07:48:12.661Z</time></trkpt><trkpt lat="45.55767" lon="10.4558987"><ele>228.0</ele><time>2026-03-29T07:48:13.651Z</time></trkpt><trkpt lat="45.5576739" lon="10.4560502"><ele>228.0</ele><time>2026-03-29T07:48:14.661Z</time></trkpt><trkpt lat="45.5576736" lon="10.4562052"><ele>228.0</ele><time>2026-03-29T07:48:15.646Z</time></trkpt><trkpt lat="45.5576489" lon="10.4563487"><ele>228.0</ele><time>2026-03-29T07:48:16.648Z</time></trkpt><trkpt lat="45.5576107" lon="10.4564683"><ele>228.0</ele><time>2026-03-29T07:48:17.641Z</time></trkpt><trkpt lat="45.557567" lon="10.4565707"><ele>228.60000000000002</ele><time>2026-03-29T07:48:18.65Z</time></trkpt><trkpt lat="45.5575126" lon="10.4566552"><ele>229.20000000000002</ele><time>2026-03-29T07:48:19.65Z</time></trkpt><trkpt lat="45.5574517" lon="10.4567284"><ele>229.8</ele><time>2026-03-29T07:48:20.644Z</time></trkpt><trkpt lat="45.5573798" lon="10.4567897"><ele>230.4</ele><time>2026-03-29T07:48:21.658Z</time></trkpt><trkpt lat="45.557279" lon="10.4568617"><ele>231.0</ele><time>2026-03-29T07:48:22.689Z</time></trkpt><trkpt lat="45.5571697" lon="10.4569425"><ele>231.0</ele><time>2026-03-29T07:48:23.675Z</time></trkpt><trkpt lat="45.5570586" lon="10.4570406"><ele>231.0</ele><time>2026-03-29T07:48:24.683Z</time></trkpt><trkpt lat="45.5569673" lon="10.4571464"><ele>231.0</ele><time>2026-03-29T07:48:26.732Z</time></trkpt><trkpt lat="45.5568787" lon="10.4572415"><ele>231.0</ele><time>2026-03-29T07:48:27.728Z</time></trkpt><trkpt lat="45.5567938" lon="10.4573449"><ele>233.25</ele><time>2026-03-29T07:48:28.737Z</time></trkpt><trkpt lat="45.5566823" lon="10.4574163"><ele>235.5</ele><time>2026-03-29T07:48:29.723Z</time></trkpt><trkpt lat="45.5565631" lon="10.4574765"><ele>237.75</ele><time>2026-03-29T07:48:30.72Z</time></trkpt><trkpt lat="45.5564389" lon="10.4575514"><ele>240.0</ele><time>2026-03-29T07:48:31.721Z</time></trkpt><trkpt lat="45.5563153" lon="10.4576457"><ele>240.0</ele><time>2026-03-29T07:48:32.721Z</time></trkpt><trkpt lat="45.5562115" lon="10.4577435"><ele>240.0</ele><time>2026-03-29T07:48:33.728Z</time></trkpt><trkpt lat="45.5561228" lon="10.4578392"><ele>240.0</ele><time>2026-03-29T07:48:34.722Z</time></trkpt><trkpt lat="45.5560496" lon="10.4579489"><ele>240.0</ele><time>2026-03-29T07:48:35.74Z</time></trkpt><trkpt lat="45.5559989" lon="10.4580637"><ele>240.0</ele><time>2026-03-29T07:48:36.718Z</time></trkpt><trkpt lat="45.5559483" lon="10.4581824"><ele>241.4</ele><time>2026-03-29T07:48:37.72Z</time></trkpt><trkpt lat="45.5558919" lon="10.4582806"><ele>242.8</ele><time>2026-03-29T07:48:38.712Z</time></trkpt><trkpt lat="45.5558252" lon="10.4583503"><ele>244.2</ele><time>2026-03-29T07:48:39.713Z</time></trkpt><trkpt lat="45.5557408" lon="10.4584078"><ele>245.6</ele><time>2026-03-29T07:48:40.739Z</time></trkpt><trkpt lat="45.5556474" lon="10.4584529"><ele>247.0</ele><time>2026-03-29T07:48:41.741Z</time></trkpt><trkpt lat="45.5555393" lon="10.4585047"><ele>247.0</ele><time>2026-03-29T07:48:42.727Z</time></trkpt><trkpt lat="45.5554266" lon="10.4585977"><ele>247.0</ele><time>2026-03-29T07:48:43.724Z</time></trkpt><trkpt lat="45.5553103" lon="10.4586637"><ele>247.0</ele><time>2026-03-29T07:48:44.727Z</time></trkpt><trkpt lat="45.5551814" lon="10.4587335"><ele>247.0</ele><time>2026-03-29T07:48:45.725Z</time></trkpt><trkpt lat="45.55506" lon="10.4587912"><ele>248.5</ele><time>2026-03-29T07:48:46.745Z</time></trkpt><trkpt lat="45.5549436" lon="10.4588401"><ele>250.0</ele><time>2026-03-29T07:48:47.741Z</time></trkpt><trkpt lat="45.5548321" lon="10.4588884"><ele>251.5</ele><time>2026-03-29T07:48:48.737Z</time></trkpt><trkpt lat="45.5547286" lon="10.4589416"><ele>253.0</ele><time>2026-03-29T07:48:49.737Z</time></trkpt><trkpt lat="45.5546273" lon="10.4590044"><ele>251.49999999999997</ele><time>2026-03-29T07:48:50.735Z</time></trkpt><trkpt lat="45.5545346" lon="10.4590796"><ele>250.0</ele><time>2026-03-29T07:48:51.714Z</time></trkpt><trkpt lat="45.5544674" lon="10.4591646"><ele>248.5</ele><time>2026-03-29T07:48:52.731Z</time></trkpt><trkpt lat="45.5544259" lon="10.4592499"><ele>247.0</ele><time>2026-03-29T07:48:53.713Z</time></trkpt><trkpt lat="45.5543875" lon="10.4593443"><ele>245.49999999999997</ele><time>2026-03-29T07:48:55.724Z</time></trkpt><trkpt lat="45.5543064" lon="10.4593816"><ele>244.0</ele><time>2026-03-29T07:49:00.745Z</time></trkpt><trkpt lat="45.5541982" lon="10.4594507"><ele>244.0</ele><time>2026-03-29T07:49:02.736Z</time></trkpt><trkpt lat="45.554134" lon="10.4595128"><ele>243.99999999999997</ele><time>2026-03-29T07:49:03.714Z</time></trkpt><trkpt lat="45.5540256" lon="10.4596299"><ele>243.99999999999997</ele><time>2026-03-29T07:49:05.715Z</time></trkpt><trkpt lat="45.5539248" lon="10.4597471"><ele>244.0</ele><time>2026-03-29T07:49:06.717Z</time></trkpt><trkpt lat="45.5538635" lon="10.4598478"><ele>244.0</ele><time>2026-03-29T07:49:07.726Z</time></trkpt><trkpt lat="45.5538049" lon="10.4599607"><ele>244.0</ele><time>2026-03-29T07:49:08.727Z</time></trkpt><trkpt lat="45.5537418" lon="10.460078"><ele>243.99999999999997</ele><time>2026-03-29T07:49:09.71Z</time></trkpt><trkpt lat="45.5536839" lon="10.4602111"><ele>243.99999999999997</ele><time>2026-03-29T07:49:10.726Z</time></trkpt><trkpt lat="45.553626" lon="10.460348"><ele>244.0</ele><time>2026-03-29T07:49:11.711Z</time></trkpt><trkpt lat="45.5535632" lon="10.460479"><ele>244.0</ele><time>2026-03-29T07:49:12.71Z</time></trkpt><trkpt lat="45.5534994" lon="10.4606001"><ele>244.0</ele><time>2026-03-29T07:49:13.728Z</time></trkpt><trkpt lat="45.5534423" lon="10.4606927"><ele>243.99999999999997</ele><time>2026-03-29T07:49:14.731Z</time></trkpt><trkpt lat="45.5533875" lon="10.4607761"><ele>243.99999999999997</ele><time>2026-03-29T07:49:15.729Z</time></trkpt><trkpt lat="45.5533209" lon="10.4608601"><ele>244.0</ele><time>2026-03-29T07:49:16.735Z</time></trkpt><trkpt lat="45.5531944" lon="10.4609256"><ele>244.0</ele><time>2026-03-29T07:49:18.714Z</time></trkpt><trkpt lat="45.5531181" lon="10.4609868"><ele>244.0</ele><time>2026-03-29T07:49:19.725Z</time></trkpt><trkpt lat="45.5530459" lon="10.4610028"><ele>243.99999999999997</ele><time>2026-03-29T07:49:20.714Z</time></trkpt><trkpt lat="45.5529354" lon="10.4610268"><ele>243.99999999999997</ele><time>2026-03-29T07:49:22.722Z</time></trkpt><trkpt lat="45.552876" lon="10.4612601"><ele>244.0</ele><time>2026-03-29T07:49:25.647Z</time></trkpt><trkpt lat="45.5528855" lon="10.4613512"><ele>244.0</ele><time>2026-03-29T07:49:26.649Z</time></trkpt><trkpt lat="45.5528877" lon="10.461503"><ele>244.0</ele><time>2026-03-29T07:49:28.647Z</time></trkpt><trkpt lat="45.5528181" lon="10.4615758"><ele>243.99999999999997</ele><time>2026-03-29T07:49:30.654Z</time></trkpt><trkpt lat="45.5526967" lon="10.4615927"><ele>243.99999999999997</ele><time>2026-03-29T07:49:32.655Z</time></trkpt><trkpt lat="45.552609" lon="10.4615869"><ele>244.0</ele><time>2026-03-29T07:49:33.658Z</time></trkpt><trkpt lat="45.5525169" lon="10.4615869"><ele>244.0</ele><time>2026-03-29T07:49:34.654Z</time></trkpt><trkpt lat="45.5524398" lon="10.4615831"><ele>243.99999999999997</ele><time>2026-03-29T07:49:35.652Z</time></trkpt><trkpt lat="45.5523774" lon="10.4615655"><ele>244.0</ele><time>2026-03-29T07:49:36.654Z</time></trkpt><trkpt lat="45.5523157" lon="10.4615303"><ele>244.0</ele><time>2026-03-29T07:49:37.641Z</time></trkpt><trkpt lat="45.552218" lon="10.4614076"><ele>244.0</ele><time>2026-03-29T07:49:39.646Z</time></trkpt><trkpt lat="45.552153" lon="10.4613486"><ele>243.99999999999997</ele><time>2026-03-29T07:49:40.642Z</time></trkpt><trkpt lat="45.5520752" lon="10.4613057"><ele>244.0</ele><time>2026-03-29T07:49:41.644Z</time></trkpt><trkpt lat="45.5520009" lon="10.4612766"><ele>243.66666666666666</ele><time>2026-03-29T07:49:42.643Z</time></trkpt><trkpt lat="45.5519443" lon="10.4612094"><ele>243.33333333333331</ele><time>2026-03-29T07:49:43.631Z</time></trkpt><trkpt lat="45.5518899" lon="10.4611248"><ele>243.0</ele><time>2026-03-29T07:49:44.639Z</time></trkpt><trkpt lat="45.5518444" lon="10.4610432"><ele>242.66666666666669</ele><time>2026-03-29T07:49:45.635Z</time></trkpt><trkpt lat="45.5517922" lon="10.4609691"><ele>242.33333333333334</ele><time>2026-03-29T07:49:46.624Z</time></trkpt><trkpt lat="45.5517168" lon="10.460946"><ele>242.0</ele><time>2026-03-29T07:49:47.631Z</time></trkpt><trkpt lat="45.5516355" lon="10.4609215"><ele>242.0</ele><time>2026-03-29T07:49:48.627Z</time></trkpt><trkpt lat="45.551554" lon="10.4608998"><ele>242.0</ele><time>2026-03-29T07:49:49.626Z</time></trkpt><trkpt lat="45.5514579" lon="10.4609242"><ele>242.0</ele><time>2026-03-29T07:49:50.625Z</time></trkpt><trkpt lat="45.5513417" lon="10.4609567"><ele>242.0</ele><time>2026-03-29T07:49:51.628Z</time></trkpt><trkpt lat="45.5512186" lon="10.4609958"><ele>242.0</ele><time>2026-03-29T07:49:52.623Z</time></trkpt><trkpt lat="45.5511079" lon="10.4610271"><ele>241.83333333333334</ele><time>2026-03-29T07:49:53.634Z</time></trkpt><trkpt lat="45.5510127" lon="10.4610637"><ele>241.66666666666669</ele><time>2026-03-29T07:49:54.662Z</time></trkpt><trkpt lat="45.5509286" lon="10.4610751"><ele>241.5</ele><time>2026-03-29T07:49:55.64Z</time></trkpt><trkpt lat="45.5508537" lon="10.4610634"><ele>241.33333333333331</ele><time>2026-03-29T07:49:56.638Z</time></trkpt><trkpt lat="45.5507872" lon="10.4610191"><ele>241.16666666666666</ele><time>2026-03-29T07:49:57.647Z</time></trkpt><trkpt lat="45.5507381" lon="10.4609395"><ele>241.0</ele><time>2026-03-29T07:49:58.641Z</time></trkpt><trkpt lat="45.5507138" lon="10.4608271"><ele>241.0</ele><time>2026-03-29T07:49:59.636Z</time></trkpt><trkpt lat="45.5507105" lon="10.460698"><ele>241.00000000000003</ele><time>2026-03-29T07:50:00.63Z</time></trkpt><trkpt lat="45.550712" lon="10.4605569"><ele>241.00000000000003</ele><time>2026-03-29T07:50:01.638Z</time></trkpt><trkpt lat="45.5507127" lon="10.4604244"><ele>241.0</ele><time>2026-03-29T07:50:02.634Z</time></trkpt><trkpt lat="45.5507101" lon="10.4603214"><ele>241.0</ele><time>2026-03-29T07:50:03.627Z</time></trkpt><trkpt lat="45.5506343" lon="10.4602038"><ele>240.60000000000002</ele><time>2026-03-29T07:50:05.641Z</time></trkpt><trkpt lat="45.5505687" lon="10.4601836"><ele>240.20000000000002</ele><time>2026-03-29T07:50:06.654Z</time></trkpt><trkpt lat="45.5504725" lon="10.4601951"><ele>239.79999999999998</ele><time>2026-03-29T07:50:07.655Z</time></trkpt><trkpt lat="45.5503612" lon="10.4602216"><ele>239.39999999999998</ele><time>2026-03-29T07:50:08.636Z</time></trkpt><trkpt lat="45.5502334" lon="10.4602661"><ele>239.0</ele><time>2026-03-29T07:50:09.649Z</time></trkpt><trkpt lat="45.5501052" lon="10.4602961"><ele>239.0</ele><time>2026-03-29T07:50:10.649Z</time></trkpt><trkpt lat="45.5499827" lon="10.4603175"><ele>238.99999999999997</ele><time>2026-03-29T07:50:11.646Z</time></trkpt><trkpt lat="45.5498768" lon="10.4603436"><ele>238.99999999999997</ele><time>2026-03-29T07:50:12.659Z</time></trkpt><trkpt lat="45.5497751" lon="10.4603627"><ele>239.0</ele><time>2026-03-29T07:50:13.652Z</time></trkpt><trkpt lat="45.5496838" lon="10.4603786"><ele>239.0</ele><time>2026-03-29T07:50:14.645Z</time></trkpt><trkpt lat="45.5496166" lon="10.4603965"><ele>239.83333333333334</ele><time>2026-03-29T07:50:15.641Z</time></trkpt><trkpt lat="45.5495171" lon="10.4603983"><ele>240.66666666666669</ele><time>2026-03-29T07:50:17.635Z</time></trkpt><trkpt lat="45.5494472" lon="10.4603799"><ele>241.5</ele><time>2026-03-29T07:50:19.636Z</time></trkpt><trkpt lat="45.5494003" lon="10.4603141"><ele>242.33333333333331</ele><time>2026-03-29T07:50:20.64Z</time></trkpt><trkpt lat="45.5493598" lon="10.460215"><ele>243.16666666666666</ele><time>2026-03-29T07:50:21.639Z</time></trkpt><trkpt lat="45.5493142" lon="10.4600864"><ele>244.0</ele><time>2026-03-29T07:50:22.639Z</time></trkpt><trkpt lat="45.549252" lon="10.4599653"><ele>244.0</ele><time>2026-03-29T07:50:23.641Z</time></trkpt><trkpt lat="45.5491722" lon="10.459854"><ele>244.0</ele><time>2026-03-29T07:50:24.645Z</time></trkpt><trkpt lat="45.5490823" lon="10.4597382"><ele>244.0</ele><time>2026-03-29T07:50:25.663Z</time></trkpt><trkpt lat="45.5489765" lon="10.4596291"><ele>244.0</ele><time>2026-03-29T07:50:26.649Z</time></trkpt><trkpt lat="45.5488828" lon="10.459531"><ele>243.79999999999998</ele><time>2026-03-29T07:50:27.642Z</time></trkpt><trkpt lat="45.5487865" lon="10.4594497"><ele>243.59999999999997</ele><time>2026-03-29T07:50:28.651Z</time></trkpt><trkpt lat="45.548706" lon="10.4593908"><ele>243.4</ele><time>2026-03-29T07:50:29.649Z</time></trkpt><trkpt lat="45.5486345" lon="10.45933"><ele>243.2</ele><time>2026-03-29T07:50:30.643Z</time></trkpt><trkpt lat="45.5485636" lon="10.4592572"><ele>243.0</ele><time>2026-03-29T07:50:31.644Z</time></trkpt><trkpt lat="45.5484914" lon="10.4591802"><ele>243.33333333333334</ele><time>2026-03-29T07:50:32.646Z</time></trkpt><trkpt lat="45.5484338" lon="10.4591085"><ele>243.66666666666669</ele><time>2026-03-29T07:50:33.639Z</time></trkpt><trkpt lat="45.5483788" lon="10.459056"><ele>244.0</ele><time>2026-03-29T07:50:34.651Z</time></trkpt><trkpt lat="45.5482529" lon="10.4590549"><ele>244.33333333333334</ele><time>2026-03-29T07:50:36.652Z</time></trkpt><trkpt lat="45.5481973" lon="10.4591264"><ele>244.66666666666669</ele><time>2026-03-29T07:50:37.654Z</time></trkpt><trkpt lat="45.5481521" lon="10.4592106"><ele>245.0</ele><time>2026-03-29T07:50:38.655Z</time></trkpt><trkpt lat="45.5481356" lon="10.459311"><ele>245.0</ele><time>2026-03-29T07:50:39.643Z</time></trkpt><trkpt lat="45.5481447" lon="10.4594345"><ele>245.0</ele><time>2026-03-29T07:50:40.662Z</time></trkpt><trkpt lat="45.5481738" lon="10.4595739"><ele>245.0</ele><time>2026-03-29T07:50:41.653Z</time></trkpt><trkpt lat="45.5482067" lon="10.4597204"><ele>245.0</ele><time>2026-03-29T07:50:42.657Z</time></trkpt><trkpt lat="45.5482235" lon="10.4598882"><ele>245.0</ele><time>2026-03-29T07:50:43.649Z</time></trkpt><trkpt lat="45.548218" lon="10.4600675"><ele>245.0</ele><time>2026-03-29T07:50:44.653Z</time></trkpt><trkpt lat="45.5481763" lon="10.4602471"><ele>245.0</ele><time>2026-03-29T07:50:45.656Z</time></trkpt><trkpt lat="45.5480994" lon="10.460437"><ele>245.0</ele><time>2026-03-29T07:50:46.649Z</time></trkpt><trkpt lat="45.548014" lon="10.4606316"><ele>245.0</ele><time>2026-03-29T07:50:47.646Z</time></trkpt><trkpt lat="45.5479434" lon="10.4608391"><ele>245.66666666666669</ele><time>2026-03-29T07:50:48.648Z</time></trkpt><trkpt lat="45.5478762" lon="10.461055"><ele>246.33333333333331</ele><time>2026-03-29T07:50:49.646Z</time></trkpt><trkpt lat="45.5478342" lon="10.4612754"><ele>247.0</ele><time>2026-03-29T07:50:50.646Z</time></trkpt><trkpt lat="45.5477808" lon="10.4615098"><ele>247.0</ele><time>2026-03-29T07:50:51.648Z</time></trkpt><trkpt lat="45.5477502" lon="10.4617115"><ele>247.0</ele><time>2026-03-29T07:50:52.645Z</time></trkpt><trkpt lat="45.5477325" lon="10.4619019"><ele>247.0</ele><time>2026-03-29T07:50:53.649Z</time></trkpt><trkpt lat="45.5477269" lon="10.4620923"><ele>247.0</ele><time>2026-03-29T07:50:54.65Z</time></trkpt><trkpt lat="45.5477116" lon="10.462283"><ele>247.75</ele><time>2026-03-29T07:50:55.656Z</time></trkpt><trkpt lat="45.547696" lon="10.4624874"><ele>248.5</ele><time>2026-03-29T07:50:56.674Z</time></trkpt><trkpt lat="45.5476741" lon="10.4626997"><ele>249.25</ele><time>2026-03-29T07:50:57.657Z</time></trkpt><trkpt lat="45.5476459" lon="10.4629017"><ele>250.0</ele><time>2026-03-29T07:50:58.662Z</time></trkpt><trkpt lat="45.5476076" lon="10.4630956"><ele>251.0</ele><time>2026-03-29T07:50:59.656Z</time></trkpt><trkpt lat="45.547577" lon="10.4632836"><ele>252.0</ele><time>2026-03-29T07:51:00.655Z</time></trkpt><trkpt lat="45.5475633" lon="10.4634866"><ele>253.0</ele><time>2026-03-29T07:51:01.652Z</time></trkpt><trkpt lat="45.5475515" lon="10.4636832"><ele>254.0</ele><time>2026-03-29T07:51:02.654Z</time></trkpt><trkpt lat="45.5475504" lon="10.4638937"><ele>254.75</ele><time>2026-03-29T07:51:03.646Z</time></trkpt><trkpt lat="45.5475314" lon="10.4640921"><ele>255.5</ele><time>2026-03-29T07:51:04.646Z</time></trkpt><trkpt lat="45.5475168" lon="10.4642638"><ele>256.25</ele><time>2026-03-29T07:51:05.636Z</time></trkpt><trkpt lat="45.5474802" lon="10.4644056"><ele>257.0</ele><time>2026-03-29T07:51:06.644Z</time></trkpt><trkpt lat="45.5474696" lon="10.4645461"><ele>256.83333333333337</ele><time>2026-03-29T07:51:07.647Z</time></trkpt><trkpt lat="45.5474663" lon="10.4646507"><ele>256.6666666666667</ele><time>2026-03-29T07:51:08.643Z</time></trkpt><trkpt lat="45.54743" lon="10.4647888"><ele>256.5</ele><time>2026-03-29T07:51:10.635Z</time></trkpt><trkpt lat="45.5473424" lon="10.4648328"><ele>256.3333333333333</ele><time>2026-03-29T07:51:12.641Z</time></trkpt><trkpt lat="45.5472785" lon="10.4648278"><ele>256.16666666666663</ele><time>2026-03-29T07:51:13.636Z</time></trkpt><trkpt lat="45.5471971" lon="10.4648076"><ele>256.0</ele><time>2026-03-29T07:51:14.638Z</time></trkpt><trkpt lat="45.5470975" lon="10.4647742"><ele>255.5</ele><time>2026-03-29T07:51:15.629Z</time></trkpt><trkpt lat="45.5469854" lon="10.4647462"><ele>255.0</ele><time>2026-03-29T07:51:16.635Z</time></trkpt><trkpt lat="45.5468627" lon="10.4647324"><ele>254.5</ele><time>2026-03-29T07:51:17.632Z</time></trkpt><trkpt lat="45.5467477" lon="10.4647355"><ele>254.0</ele><time>2026-03-29T07:51:18.627Z</time></trkpt><trkpt lat="45.5466279" lon="10.464731"><ele>254.0</ele><time>2026-03-29T07:51:19.641Z</time></trkpt><trkpt lat="45.5465145" lon="10.464718"><ele>254.0</ele><time>2026-03-29T07:51:20.633Z</time></trkpt><trkpt lat="45.546405" lon="10.4647037"><ele>254.0</ele><time>2026-03-29T07:51:21.633Z</time></trkpt><trkpt lat="45.5462867" lon="10.4646654"><ele>254.0</ele><time>2026-03-29T07:51:22.636Z</time></trkpt><trkpt lat="45.5461619" lon="10.464604"><ele>253.75</ele><time>2026-03-29T07:51:23.636Z</time></trkpt><trkpt lat="45.5460353" lon="10.4645492"><ele>253.5</ele><time>2026-03-29T07:51:24.64Z</time></trkpt><trkpt lat="45.5459037" lon="10.4644919"><ele>253.25</ele><time>2026-03-29T07:51:25.644Z</time></trkpt><trkpt lat="45.5457752" lon="10.4644351"><ele>253.0</ele><time>2026-03-29T07:51:26.657Z</time></trkpt><trkpt lat="45.5456392" lon="10.4643919"><ele>253.0</ele><time>2026-03-29T07:51:27.678Z</time></trkpt><trkpt lat="45.5455053" lon="10.4643517"><ele>253.0</ele><time>2026-03-29T07:51:29.737Z</time></trkpt><trkpt lat="45.5453782" lon="10.4643141"><ele>253.0</ele><time>2026-03-29T07:51:30.742Z</time></trkpt><trkpt lat="45.5452595" lon="10.4642748"><ele>253.0</ele><time>2026-03-29T07:51:31.746Z</time></trkpt><trkpt lat="45.5451454" lon="10.4642358"><ele>252.8</ele><time>2026-03-29T07:51:32.744Z</time></trkpt><trkpt lat="45.5450353" lon="10.4641919"><ele>252.60000000000002</ele><time>2026-03-29T07:51:33.743Z</time></trkpt><trkpt lat="45.5449336" lon="10.4641538"><ele>252.39999999999998</ele><time>2026-03-29T07:51:34.745Z</time></trkpt><trkpt lat="45.5448241" lon="10.4641147"><ele>252.2</ele><time>2026-03-29T07:51:35.741Z</time></trkpt><trkpt lat="45.5447107" lon="10.4640749"><ele>252.0</ele><time>2026-03-29T07:51:36.744Z</time></trkpt><trkpt lat="45.5445981" lon="10.4640389"><ele>252.0</ele><time>2026-03-29T07:51:37.741Z</time></trkpt><trkpt lat="45.5444871" lon="10.4640033"><ele>252.0</ele><time>2026-03-29T07:51:38.739Z</time></trkpt><trkpt lat="45.5443821" lon="10.4639681"><ele>252.0</ele><time>2026-03-29T07:51:39.741Z</time></trkpt><trkpt lat="45.5442792" lon="10.4639449"><ele>252.0</ele><time>2026-03-29T07:51:40.737Z</time></trkpt><trkpt lat="45.5441862" lon="10.4639179"><ele>252.0</ele><time>2026-03-29T07:51:41.745Z</time></trkpt><trkpt lat="45.544013" lon="10.4638675"><ele>252.0</ele><time>2026-03-29T07:51:42.657Z</time></trkpt><trkpt lat="45.5439348" lon="10.4638442"><ele>252.0</ele><time>2026-03-29T07:51:43.653Z</time></trkpt><trkpt lat="45.5438633" lon="10.4638356"><ele>252.0</ele><time>2026-03-29T07:51:44.655Z</time></trkpt><trkpt lat="45.5437635" lon="10.4638365"><ele>252.0</ele><time>2026-03-29T07:51:46.653Z</time></trkpt><trkpt lat="45.5436926" lon="10.4638487"><ele>252.0</ele><time>2026-03-29T07:51:48.648Z</time></trkpt><trkpt lat="45.5436292" lon="10.4637663"><ele>252.0</ele><time>2026-03-29T07:51:50.662Z</time></trkpt><trkpt lat="45.5435989" lon="10.4635684"><ele>252.25</ele><time>2026-03-29T07:51:52.649Z</time></trkpt><trkpt lat="45.5435853" lon="10.4634108"><ele>252.5</ele><time>2026-03-29T07:51:53.647Z</time></trkpt><trkpt lat="45.5435626" lon="10.4632453"><ele>252.75</ele><time>2026-03-29T07:51:54.643Z</time></trkpt><trkpt lat="45.5435448" lon="10.4630755"><ele>253.0</ele><time>2026-03-29T07:51:55.65Z</time></trkpt><trkpt lat="45.5435171" lon="10.4629198"><ele>253.0</ele><time>2026-03-29T07:51:56.646Z</time></trkpt><trkpt lat="45.5434766" lon="10.4627729"><ele>253.0</ele><time>2026-03-29T07:51:57.662Z</time></trkpt><trkpt lat="45.5434323" lon="10.4626198"><ele>253.0</ele><time>2026-03-29T07:51:58.67Z</time></trkpt><trkpt lat="45.5434088" lon="10.462467"><ele>253.0</ele><time>2026-03-29T07:51:59.657Z</time></trkpt><trkpt lat="45.5433927" lon="10.4623305"><ele>253.0</ele><time>2026-03-29T07:52:00.661Z</time></trkpt><trkpt lat="45.5433745" lon="10.4621946"><ele>253.2</ele><time>2026-03-29T07:52:01.657Z</time></trkpt><trkpt lat="45.5433654" lon="10.4620419"><ele>253.4</ele><time>2026-03-29T07:52:02.656Z</time></trkpt><trkpt lat="45.5433662" lon="10.4618783"><ele>253.59999999999997</ele><time>2026-03-29T07:52:03.647Z</time></trkpt><trkpt lat="45.5433646" lon="10.4617357"><ele>253.79999999999998</ele><time>2026-03-29T07:52:04.641Z</time></trkpt><trkpt lat="45.5433539" lon="10.4616108"><ele>254.0</ele><time>2026-03-29T07:52:05.65Z</time></trkpt><trkpt lat="45.5433366" lon="10.4614915"><ele>254.0</ele><time>2026-03-29T07:52:06.644Z</time></trkpt><trkpt lat="45.5432881" lon="10.4613575"><ele>253.99999999999997</ele><time>2026-03-29T07:52:07.653Z</time></trkpt><trkpt lat="45.5432371" lon="10.4612114"><ele>253.99999999999997</ele><time>2026-03-29T07:52:08.648Z</time></trkpt><trkpt lat="45.543193" lon="10.4610644"><ele>254.0</ele><time>2026-03-29T07:52:09.647Z</time></trkpt><trkpt lat="45.5431561" lon="10.4609309"><ele>254.0</ele><time>2026-03-29T07:52:10.655Z</time></trkpt><trkpt lat="45.5431338" lon="10.4608241"><ele>254.2</ele><time>2026-03-29T07:52:11.654Z</time></trkpt><trkpt lat="45.5431057" lon="10.4607354"><ele>254.39999999999998</ele><time>2026-03-29T07:52:12.669Z</time></trkpt><trkpt lat="45.5430867" lon="10.4605908"><ele>254.6</ele><time>2026-03-29T07:52:14.649Z</time></trkpt><trkpt lat="45.5431247" lon="10.4604355"><ele>254.8</ele><time>2026-03-29T07:52:16.653Z</time></trkpt><trkpt lat="45.543166" lon="10.4602528"><ele>255.0</ele><time>2026-03-29T07:52:18.655Z</time></trkpt><trkpt lat="45.5431526" lon="10.4601069"><ele>255.2</ele><time>2026-03-29T07:52:19.637Z</time></trkpt><trkpt lat="45.5431182" lon="10.4599473"><ele>255.4</ele><time>2026-03-29T07:52:20.638Z</time></trkpt><trkpt lat="45.5430686" lon="10.4598042"><ele>255.60000000000002</ele><time>2026-03-29T07:52:21.633Z</time></trkpt><trkpt lat="45.543018" lon="10.4596587"><ele>255.8</ele><time>2026-03-29T07:52:22.628Z</time></trkpt><trkpt lat="45.5429674" lon="10.4595286"><ele>256.0</ele><time>2026-03-29T07:52:23.623Z</time></trkpt><trkpt lat="45.5429271" lon="10.4594103"><ele>256.16666666666663</ele><time>2026-03-29T07:52:24.627Z</time></trkpt><trkpt lat="45.5429054" lon="10.4592984"><ele>256.3333333333333</ele><time>2026-03-29T07:52:25.63Z</time></trkpt><trkpt lat="45.5428782" lon="10.4591893"><ele>256.5</ele><time>2026-03-29T07:52:26.638Z</time></trkpt><trkpt lat="45.5428667" lon="10.4590944"><ele>256.6666666666667</ele><time>2026-03-29T07:52:27.644Z</time></trkpt><trkpt lat="45.5428749" lon="10.4589241"><ele>256.83333333333337</ele><time>2026-03-29T07:52:29.661Z</time></trkpt><trkpt lat="45.5428887" lon="10.458801"><ele>257.0</ele><time>2026-03-29T07:52:31.641Z</time></trkpt><trkpt lat="45.5429319" lon="10.458726"><ele>256.5</ele><time>2026-03-29T07:52:33.64Z</time></trkpt><trkpt lat="45.5430552" lon="10.4587311"><ele>256.0</ele><time>2026-03-29T07:52:35.646Z</time></trkpt><trkpt lat="45.5431272" lon="10.4587688"><ele>255.5</ele><time>2026-03-29T07:52:36.648Z</time></trkpt><trkpt lat="45.5431971" lon="10.458796"><ele>255.0</ele><time>2026-03-29T07:52:37.651Z</time></trkpt><trkpt lat="45.5432625" lon="10.4588241"><ele>254.50000000000003</ele><time>2026-03-29T07:52:38.653Z</time></trkpt><trkpt lat="45.5433433" lon="10.4587894"><ele>254.0</ele><time>2026-03-29T07:52:40.648Z</time></trkpt><trkpt lat="45.5433683" lon="10.458646"><ele>253.39999999999998</ele><time>2026-03-29T07:52:42.64Z</time></trkpt><trkpt lat="45.5433549" lon="10.458537"><ele>252.79999999999998</ele><time>2026-03-29T07:52:43.64Z</time></trkpt><trkpt lat="45.543328" lon="10.4583931"><ele>252.20000000000002</ele><time>2026-03-29T07:52:44.645Z</time></trkpt><trkpt lat="45.5433077" lon="10.4582419"><ele>251.60000000000002</ele><time>2026-03-29T07:52:45.64Z</time></trkpt><trkpt lat="45.5433068" lon="10.4581032"><ele>251.0</ele><time>2026-03-29T07:52:46.637Z</time></trkpt><trkpt lat="45.5432849" lon="10.4579886"><ele>250.60000000000002</ele><time>2026-03-29T07:52:47.639Z</time></trkpt><trkpt lat="45.5432692" lon="10.4578546"><ele>250.20000000000002</ele><time>2026-03-29T07:52:49.634Z</time></trkpt><trkpt lat="45.5432578" lon="10.4577522"><ele>249.79999999999998</ele><time>2026-03-29T07:52:51.644Z</time></trkpt><trkpt lat="45.5432681" lon="10.4575784"><ele>249.39999999999998</ele><time>2026-03-29T07:52:53.644Z</time></trkpt><trkpt lat="45.5432772" lon="10.4574872"><ele>249.0</ele><time>2026-03-29T07:52:54.639Z</time></trkpt><trkpt lat="45.5433138" lon="10.4573325"><ele>249.0</ele><time>2026-03-29T07:52:56.653Z</time></trkpt><trkpt lat="45.5433311" lon="10.4572449"><ele>249.0</ele><time>2026-03-29T07:52:57.645Z</time></trkpt><trkpt lat="45.5433622" lon="10.4571386"><ele>249.0</ele><time>2026-03-29T07:52:58.65Z</time></trkpt><trkpt lat="45.5433889" lon="10.4570349"><ele>249.0</ele><time>2026-03-29T07:52:59.648Z</time></trkpt><trkpt lat="45.5434176" lon="10.4569283"><ele>249.0</ele><time>2026-03-29T07:53:00.664Z</time></trkpt><trkpt lat="45.5434607" lon="10.456813"><ele>249.0</ele><time>2026-03-29T07:53:01.651Z</time></trkpt><trkpt lat="45.5435055" lon="10.4566938"><ele>248.6</ele><time>2026-03-29T07:53:02.653Z</time></trkpt><trkpt lat="45.5435478" lon="10.4565751"><ele>248.2</ele><time>2026-03-29T07:53:03.64Z</time></trkpt><trkpt lat="45.5435879" lon="10.456432"><ele>247.79999999999998</ele><time>2026-03-29T07:53:04.64Z</time></trkpt><trkpt lat="45.5436089" lon="10.4562762"><ele>247.39999999999998</ele><time>2026-03-29T07:53:05.633Z</time></trkpt><trkpt lat="45.5436289" lon="10.4561136"><ele>247.0</ele><time>2026-03-29T07:53:06.638Z</time></trkpt><trkpt lat="45.5436283" lon="10.455951"><ele>247.0</ele><time>2026-03-29T07:53:07.635Z</time></trkpt><trkpt lat="45.5436222" lon="10.4558072"><ele>247.0</ele><time>2026-03-29T07:53:08.639Z</time></trkpt><trkpt lat="45.5436091" lon="10.455672"><ele>247.0</ele><time>2026-03-29T07:53:09.644Z</time></trkpt><trkpt lat="45.5436053" lon="10.4555304"><ele>247.0</ele><time>2026-03-29T07:53:10.646Z</time></trkpt><trkpt lat="45.5436027" lon="10.4553944"><ele>247.0</ele><time>2026-03-29T07:53:11.639Z</time></trkpt><trkpt lat="45.5436135" lon="10.4552629"><ele>246.49999999999997</ele><time>2026-03-29T07:53:12.642Z</time></trkpt><trkpt lat="45.5436225" lon="10.4551334"><ele>246.0</ele><time>2026-03-29T07:53:13.646Z</time></trkpt><trkpt lat="45.5436362" lon="10.4550177"><ele>245.5</ele><time>2026-03-29T07:53:14.643Z</time></trkpt><trkpt lat="45.5436363" lon="10.4549183"><ele>245.0</ele><time>2026-03-29T07:53:15.654Z</time></trkpt><trkpt lat="45.5436317" lon="10.4548214"><ele>244.49999999999997</ele><time>2026-03-29T07:53:16.648Z</time></trkpt><trkpt lat="45.5436494" lon="10.454707"><ele>244.0</ele><time>2026-03-29T07:53:17.646Z</time></trkpt><trkpt lat="45.5436667" lon="10.4545965"><ele>243.33333333333331</ele><time>2026-03-29T07:53:18.65Z</time></trkpt><trkpt lat="45.5436729" lon="10.4544938"><ele>242.66666666666666</ele><time>2026-03-29T07:53:19.648Z</time></trkpt><trkpt lat="45.543663" lon="10.4543903"><ele>242.0</ele><time>2026-03-29T07:53:20.644Z</time></trkpt><trkpt lat="45.5436424" lon="10.454266"><ele>241.33333333333331</ele><time>2026-03-29T07:53:21.641Z</time></trkpt><trkpt lat="45.5436093" lon="10.4541372"><ele>240.66666666666666</ele><time>2026-03-29T07:53:22.652Z</time></trkpt><trkpt lat="45.543579" lon="10.4540182"><ele>240.0</ele><time>2026-03-29T07:53:23.65Z</time></trkpt><trkpt lat="45.5435524" lon="10.4539149"><ele>240.0</ele><time>2026-03-29T07:53:24.639Z</time></trkpt><trkpt lat="45.5435369" lon="10.4538193"><ele>240.0</ele><time>2026-03-29T07:53:25.646Z</time></trkpt><trkpt lat="45.543533" lon="10.4536665"><ele>240.0</ele><time>2026-03-29T07:53:27.646Z</time></trkpt><trkpt lat="45.543518" lon="10.453551"><ele>240.0</ele><time>2026-03-29T07:53:39.647Z</time></trkpt><trkpt lat="45.5434362" lon="10.4534711"><ele>240.0</ele><time>2026-03-29T07:53:41.647Z</time></trkpt><trkpt lat="45.5433689" lon="10.4534116"><ele>240.0</ele><time>2026-03-29T07:53:42.639Z</time></trkpt><trkpt lat="45.543276" lon="10.4533154"><ele>240.0</ele><time>2026-03-29T07:53:43.631Z</time></trkpt><trkpt lat="45.5431945" lon="10.4532048"><ele>240.0</ele><time>2026-03-29T07:53:44.626Z</time></trkpt><trkpt lat="45.5431145" lon="10.4530583"><ele>240.0</ele><time>2026-03-29T07:53:45.623Z</time></trkpt><trkpt lat="45.5430499" lon="10.4528979"><ele>240.0</ele><time>2026-03-29T07:53:46.628Z</time></trkpt><trkpt lat="45.5430022" lon="10.4527556"><ele>240.0</ele><time>2026-03-29T07:53:47.63Z</time></trkpt><trkpt lat="45.5429707" lon="10.4526325"><ele>240.0</ele><time>2026-03-29T07:53:48.625Z</time></trkpt><trkpt lat="45.5429518" lon="10.45252"><ele>240.0</ele><time>2026-03-29T07:53:49.631Z</time></trkpt><trkpt lat="45.5429645" lon="10.4524232"><ele>240.0</ele><time>2026-03-29T07:53:50.63Z</time></trkpt><trkpt lat="45.5429978" lon="10.452228"><ele>240.0</ele><time>2026-03-29T07:53:52.636Z</time></trkpt><trkpt lat="45.54305" lon="10.4521344"><ele>239.33333333333334</ele><time>2026-03-29T07:53:53.639Z</time></trkpt><trkpt lat="45.543107" lon="10.4520478"><ele>238.66666666666669</ele><time>2026-03-29T07:53:54.636Z</time></trkpt><trkpt lat="45.5431756" lon="10.4519727"><ele>238.0</ele><time>2026-03-29T07:53:55.64Z</time></trkpt><trkpt lat="45.5432272" lon="10.4519053"><ele>237.33333333333334</ele><time>2026-03-29T07:53:56.641Z</time></trkpt><trkpt lat="45.543266" lon="10.4518282"><ele>236.66666666666669</ele><time>2026-03-29T07:53:57.642Z</time></trkpt><trkpt lat="45.5432985" lon="10.4516406"><ele>236.0</ele><time>2026-03-29T07:53:59.653Z</time></trkpt><trkpt lat="45.543283" lon="10.4515043"><ele>236.0</ele><time>2026-03-29T07:54:00.636Z</time></trkpt><trkpt lat="45.5432559" lon="10.4513308"><ele>236.00000000000003</ele><time>2026-03-29T07:54:01.645Z</time></trkpt><trkpt lat="45.5432243" lon="10.4511702"><ele>236.00000000000003</ele><time>2026-03-29T07:54:02.68Z</time></trkpt><trkpt lat="45.5432044" lon="10.4510169"><ele>236.0</ele><time>2026-03-29T07:54:03.641Z</time></trkpt><trkpt lat="45.5431927" lon="10.4508827"><ele>236.0</ele><time>2026-03-29T07:54:04.655Z</time></trkpt><trkpt lat="45.5431799" lon="10.4507717"><ele>236.00000000000003</ele><time>2026-03-29T07:54:05.643Z</time></trkpt><trkpt lat="45.5431724" lon="10.4506762"><ele>236.0</ele><time>2026-03-29T07:54:06.648Z</time></trkpt><trkpt lat="45.5431711" lon="10.4505644"><ele>236.0</ele><time>2026-03-29T07:54:07.647Z</time></trkpt><trkpt lat="45.5431825" lon="10.4504311"><ele>236.0</ele><time>2026-03-29T07:54:08.647Z</time></trkpt><trkpt lat="45.5431821" lon="10.4503086"><ele>236.00000000000003</ele><time>2026-03-29T07:54:09.646Z</time></trkpt><trkpt lat="45.5431952" lon="10.4502181"><ele>236.0</ele><time>2026-03-29T07:54:10.647Z</time></trkpt><trkpt lat="45.5432128" lon="10.4501299"><ele>236.00000000000003</ele><time>2026-03-29T07:54:11.65Z</time></trkpt><trkpt lat="45.5432339" lon="10.4500279"><ele>236.0</ele><time>2026-03-29T07:54:12.645Z</time></trkpt><trkpt lat="45.5432592" lon="10.449914"><ele>236.0</ele><time>2026-03-29T07:54:13.647Z</time></trkpt><trkpt lat="45.5432683" lon="10.4498053"><ele>236.0</ele><time>2026-03-29T07:54:14.64Z</time></trkpt><trkpt lat="45.5432784" lon="10.449712"><ele>236.00000000000003</ele><time>2026-03-29T07:54:15.639Z</time></trkpt><trkpt lat="45.5433114" lon="10.4495639"><ele>236.0</ele><time>2026-03-29T07:54:17.643Z</time></trkpt><trkpt lat="45.5433397" lon="10.449394"><ele>235.66666666666669</ele><time>2026-03-29T07:54:19.644Z</time></trkpt><trkpt lat="45.5433574" lon="10.4492916"><ele>235.33333333333334</ele><time>2026-03-29T07:54:20.64Z</time></trkpt><trkpt lat="45.5433952" lon="10.4492043"><ele>235.0</ele><time>2026-03-29T07:54:21.638Z</time></trkpt><trkpt lat="45.543431" lon="10.4490963"><ele>234.66666666666669</ele><time>2026-03-29T07:54:22.64Z</time></trkpt><trkpt lat="45.5434638" lon="10.4490037"><ele>234.33333333333334</ele><time>2026-03-29T07:54:23.638Z</time></trkpt><trkpt lat="45.5434983" lon="10.4489114"><ele>234.0</ele><time>2026-03-29T07:54:24.634Z</time></trkpt><trkpt lat="45.5435669" lon="10.4487842"><ele>233.39999999999998</ele><time>2026-03-29T07:54:26.63Z</time></trkpt><trkpt lat="45.5435687" lon="10.4486445"><ele>232.79999999999998</ele><time>2026-03-29T07:54:28.637Z</time></trkpt><trkpt lat="45.5435244" lon="10.4485451"><ele>232.20000000000002</ele><time>2026-03-29T07:54:29.639Z</time></trkpt><trkpt lat="45.5434654" lon="10.4484449"><ele>231.60000000000002</ele><time>2026-03-29T07:54:30.633Z</time></trkpt><trkpt lat="45.5433731" lon="10.4483225"><ele>231.0</ele><time>2026-03-29T07:54:31.634Z</time></trkpt><trkpt lat="45.5432894" lon="10.4481919"><ele>231.0</ele><time>2026-03-29T07:54:32.631Z</time></trkpt><trkpt lat="45.5432122" lon="10.4480775"><ele>231.00000000000003</ele><time>2026-03-29T07:54:33.652Z</time></trkpt><trkpt lat="45.5431375" lon="10.4479763"><ele>231.00000000000003</ele><time>2026-03-29T07:54:34.635Z</time></trkpt><trkpt lat="45.5430621" lon="10.4479163"><ele>231.0</ele><time>2026-03-29T07:54:35.631Z</time></trkpt><trkpt lat="45.5429968" lon="10.4478669"><ele>231.0</ele><time>2026-03-29T07:54:36.64Z</time></trkpt><trkpt lat="45.5428905" lon="10.4477976"><ele>230.33333333333334</ele><time>2026-03-29T07:54:38.649Z</time></trkpt><trkpt lat="45.5428614" lon="10.4476901"><ele>229.66666666666669</ele><time>2026-03-29T07:54:40.645Z</time></trkpt><trkpt lat="45.5428512" lon="10.4475815"><ele>229.0</ele><time>2026-03-29T07:54:42.654Z</time></trkpt><trkpt lat="45.5428961" lon="10.4474539"><ele>228.33333333333334</ele><time>2026-03-29T07:54:44.653Z</time></trkpt><trkpt lat="45.5429363" lon="10.4473732"><ele>227.66666666666669</ele><time>2026-03-29T07:54:45.651Z</time></trkpt><trkpt lat="45.542995" lon="10.4472901"><ele>227.0</ele><time>2026-03-29T07:54:46.667Z</time></trkpt><trkpt lat="45.543061" lon="10.4472179"><ele>227.00000000000003</ele><time>2026-03-29T07:54:47.66Z</time></trkpt><trkpt lat="45.5431159" lon="10.4471524"><ele>227.0</ele><time>2026-03-29T07:54:48.667Z</time></trkpt><trkpt lat="45.543193" lon="10.447065"><ele>227.0</ele><time>2026-03-29T07:54:50.672Z</time></trkpt><trkpt lat="45.5432641" lon="10.4470011"><ele>227.0</ele><time>2026-03-29T07:54:52.677Z</time></trkpt><trkpt lat="45.5433576" lon="10.4469166"><ele>227.00000000000003</ele><time>2026-03-29T07:54:54.68Z</time></trkpt><trkpt lat="45.5434113" lon="10.4468476"><ele>227.0</ele><time>2026-03-29T07:54:55.661Z</time></trkpt><trkpt lat="45.543462" lon="10.4467588"><ele>227.00000000000003</ele><time>2026-03-29T07:54:56.657Z</time></trkpt><trkpt lat="45.5435183" lon="10.4466631"><ele>227.0</ele><time>2026-03-29T07:54:57.668Z</time></trkpt><trkpt lat="45.5435694" lon="10.4465629"><ele>227.0</ele><time>2026-03-29T07:54:58.674Z</time></trkpt><trkpt lat="45.543612" lon="10.4464806"><ele>227.0</ele><time>2026-03-29T07:54:59.673Z</time></trkpt><trkpt lat="45.5436578" lon="10.4463938"><ele>227.00000000000003</ele><time>2026-03-29T07:55:01.679Z</time></trkpt><trkpt lat="45.5436485" lon="10.4462629"><ele>227.0</ele><time>2026-03-29T07:55:04.686Z</time></trkpt><trkpt lat="45.5435903" lon="10.4460806"><ele>227.5</ele><time>2026-03-29T07:55:06.689Z</time></trkpt><trkpt lat="45.5435227" lon="10.4459395"><ele>228.0</ele><time>2026-03-29T07:55:07.671Z</time></trkpt><trkpt lat="45.5434352" lon="10.4457744"><ele>228.5</ele><time>2026-03-29T07:55:08.664Z</time></trkpt><trkpt lat="45.5433456" lon="10.4455835"><ele>229.0</ele><time>2026-03-29T07:55:09.66Z</time></trkpt><trkpt lat="45.5432602" lon="10.4453873"><ele>229.66666666666666</ele><time>2026-03-29T07:55:10.669Z</time></trkpt><trkpt lat="45.5431614" lon="10.4451679"><ele>230.33333333333331</ele><time>2026-03-29T07:55:11.67Z</time></trkpt><trkpt lat="45.5431141" lon="10.4449794"><ele>231.0</ele><time>2026-03-29T07:55:12.672Z</time></trkpt><trkpt lat="45.5430459" lon="10.4448018"><ele>229.75</ele><time>2026-03-29T07:55:13.667Z</time></trkpt><trkpt lat="45.5429555" lon="10.4446164"><ele>228.5</ele><time>2026-03-29T07:55:15.742Z</time></trkpt><trkpt lat="45.5428787" lon="10.4444463"><ele>227.25</ele><time>2026-03-29T07:55:16.749Z</time></trkpt><trkpt lat="45.5428056" lon="10.4442839"><ele>226.0</ele><time>2026-03-29T07:55:17.748Z</time></trkpt><trkpt lat="45.542709" lon="10.4441195"><ele>226.0</ele><time>2026-03-29T07:55:18.738Z</time></trkpt><trkpt lat="45.5426186" lon="10.4439725"><ele>226.0</ele><time>2026-03-29T07:55:19.744Z</time></trkpt><trkpt lat="45.5425236" lon="10.4438493"><ele>226.0</ele><time>2026-03-29T07:55:20.73Z</time></trkpt><trkpt lat="45.542425" lon="10.4437452"><ele>226.0</ele><time>2026-03-29T07:55:21.722Z</time></trkpt><trkpt lat="45.5423203" lon="10.4436608"><ele>224.0</ele><time>2026-03-29T07:55:22.729Z</time></trkpt><trkpt lat="45.5422163" lon="10.4436035"><ele>222.00000000000003</ele><time>2026-03-29T07:55:23.719Z</time></trkpt><trkpt lat="45.5421163" lon="10.4435599"><ele>220.00000000000003</ele><time>2026-03-29T07:55:24.748Z</time></trkpt><trkpt lat="45.5420255" lon="10.4435252"><ele>218.0</ele><time>2026-03-29T07:55:25.742Z</time></trkpt><trkpt lat="45.5419497" lon="10.4434983"><ele>216.0</ele><time>2026-03-29T07:55:26.743Z</time></trkpt><trkpt lat="45.5418842" lon="10.4434727"><ele>216.0</ele><time>2026-03-29T07:55:27.733Z</time></trkpt><trkpt lat="45.5417959" lon="10.4434381"><ele>216.0</ele><time>2026-03-29T07:55:29.731Z</time></trkpt><trkpt lat="45.541742" lon="10.4435338"><ele>216.0</ele><time>2026-03-29T07:55:32.758Z</time></trkpt><trkpt lat="45.5417343" lon="10.4438333"><ele>216.0</ele><time>2026-03-29T07:55:34.657Z</time></trkpt><trkpt lat="45.5416972" lon="10.4439943"><ele>217.75</ele><time>2026-03-29T07:55:35.661Z</time></trkpt><trkpt lat="45.5416441" lon="10.4441667"><ele>219.5</ele><time>2026-03-29T07:55:36.634Z</time></trkpt><trkpt lat="45.5415912" lon="10.4443571"><ele>221.25</ele><time>2026-03-29T07:55:37.65Z</time></trkpt><trkpt lat="45.5415497" lon="10.4445464"><ele>223.0</ele><time>2026-03-29T07:55:38.638Z</time></trkpt><trkpt lat="45.5414875" lon="10.4447111"><ele>223.4</ele><time>2026-03-29T07:55:39.644Z</time></trkpt><trkpt lat="45.5414562" lon="10.4448602"><ele>223.8</ele><time>2026-03-29T07:55:40.641Z</time></trkpt><trkpt lat="45.5414057" lon="10.4449893"><ele>224.2</ele><time>2026-03-29T07:55:41.648Z</time></trkpt><trkpt lat="45.541381" lon="10.4450997"><ele>224.6</ele><time>2026-03-29T07:55:42.65Z</time></trkpt><trkpt lat="45.5413413" lon="10.4452116"><ele>225.0</ele><time>2026-03-29T07:55:43.645Z</time></trkpt><trkpt lat="45.541284" lon="10.4453824"><ele>224.8</ele><time>2026-03-29T07:55:45.648Z</time></trkpt><trkpt lat="45.5412658" lon="10.4454723"><ele>224.6</ele><time>2026-03-29T07:55:46.651Z</time></trkpt><trkpt lat="45.5412201" lon="10.4456316"><ele>224.39999999999998</ele><time>2026-03-29T07:55:48.649Z</time></trkpt><trkpt lat="45.5411508" lon="10.4457659"><ele>224.2</ele><time>2026-03-29T07:55:50.638Z</time></trkpt><trkpt lat="45.541027" lon="10.445847"><ele>224.0</ele><time>2026-03-29T07:55:52.642Z</time></trkpt><trkpt lat="45.5409349" lon="10.4458294"><ele>224.0</ele><time>2026-03-29T07:55:53.633Z</time></trkpt><trkpt lat="45.540818" lon="10.4457788"><ele>224.0</ele><time>2026-03-29T07:55:54.639Z</time></trkpt><trkpt lat="45.5406845" lon="10.4457182"><ele>224.0</ele><time>2026-03-29T07:55:55.638Z</time></trkpt><trkpt lat="45.5405469" lon="10.4456614"><ele>224.0</ele><time>2026-03-29T07:55:56.646Z</time></trkpt><trkpt lat="45.5403985" lon="10.4456045"><ele>223.5</ele><time>2026-03-29T07:55:57.644Z</time></trkpt><trkpt lat="45.5402573" lon="10.4455429"><ele>223.0</ele><time>2026-03-29T07:55:58.644Z</time></trkpt><trkpt lat="45.5401439" lon="10.4454985"><ele>222.5</ele><time>2026-03-29T07:55:59.653Z</time></trkpt><trkpt lat="45.54003" lon="10.4454653"><ele>222.0</ele><time>2026-03-29T07:56:00.655Z</time></trkpt><trkpt lat="45.539952" lon="10.4454213"><ele>221.8</ele><time>2026-03-29T07:56:01.649Z</time></trkpt><trkpt lat="45.5398453" lon="10.4453768"><ele>221.6</ele><time>2026-03-29T07:56:02.651Z</time></trkpt><trkpt lat="45.5397131" lon="10.4453428"><ele>221.40000000000003</ele><time>2026-03-29T07:56:03.652Z</time></trkpt><trkpt lat="45.5396162" lon="10.4453039"><ele>221.20000000000002</ele><time>2026-03-29T07:56:04.651Z</time></trkpt><trkpt lat="45.5395186" lon="10.4452671"><ele>221.0</ele><time>2026-03-29T07:56:05.656Z</time></trkpt><trkpt lat="45.5394129" lon="10.4452337"><ele>220.60000000000002</ele><time>2026-03-29T07:56:06.668Z</time></trkpt><trkpt lat="45.5393035" lon="10.445196"><ele>220.20000000000002</ele><time>2026-03-29T07:56:07.646Z</time></trkpt><trkpt lat="45.5392015" lon="10.4451671"><ele>219.79999999999998</ele><time>2026-03-29T07:56:08.647Z</time></trkpt><trkpt lat="45.5391225" lon="10.4451448"><ele>219.39999999999998</ele><time>2026-03-29T07:56:09.653Z</time></trkpt><trkpt lat="45.539059" lon="10.4451293"><ele>219.0</ele><time>2026-03-29T07:56:10.649Z</time></trkpt><trkpt lat="45.5389594" lon="10.4450634"><ele>219.0</ele><time>2026-03-29T07:56:12.655Z</time></trkpt><trkpt lat="45.5389102" lon="10.4450062"><ele>218.99999999999997</ele><time>2026-03-29T07:56:13.647Z</time></trkpt><trkpt lat="45.5387883" lon="10.4449569"><ele>218.99999999999997</ele><time>2026-03-29T07:56:15.639Z</time></trkpt><trkpt lat="45.5386983" lon="10.4449605"><ele>219.0</ele><time>2026-03-29T07:56:16.64Z</time></trkpt><trkpt lat="45.5385939" lon="10.4449509"><ele>219.0</ele><time>2026-03-29T07:56:17.641Z</time></trkpt><trkpt lat="45.5384803" lon="10.4449147"><ele>219.5</ele><time>2026-03-29T07:56:18.644Z</time></trkpt><trkpt lat="45.5383565" lon="10.4448788"><ele>220.0</ele><time>2026-03-29T07:56:19.64Z</time></trkpt><trkpt lat="45.5382372" lon="10.4448394"><ele>220.5</ele><time>2026-03-29T07:56:20.653Z</time></trkpt><trkpt lat="45.5381114" lon="10.4447923"><ele>221.0</ele><time>2026-03-29T07:56:21.645Z</time></trkpt><trkpt lat="45.5379811" lon="10.4447415"><ele>221.33333333333334</ele><time>2026-03-29T07:56:22.64Z</time></trkpt><trkpt lat="45.5378227" lon="10.4446896"><ele>221.66666666666669</ele><time>2026-03-29T07:56:23.645Z</time></trkpt><trkpt lat="45.5376693" lon="10.4446178"><ele>222.0</ele><time>2026-03-29T07:56:24.645Z</time></trkpt><trkpt lat="45.5374918" lon="10.4445636"><ele>221.0</ele><time>2026-03-29T07:56:25.64Z</time></trkpt><trkpt lat="45.5373376" lon="10.4445178"><ele>220.0</ele><time>2026-03-29T07:56:26.653Z</time></trkpt><trkpt lat="45.5372032" lon="10.4444638"><ele>219.0</ele><time>2026-03-29T07:56:27.649Z</time></trkpt><trkpt lat="45.5370743" lon="10.4444095"><ele>218.0</ele><time>2026-03-29T07:56:28.643Z</time></trkpt><trkpt lat="45.5369246" lon="10.4443616"><ele>217.5</ele><time>2026-03-29T07:56:29.647Z</time></trkpt><trkpt lat="45.5367955" lon="10.4443466"><ele>217.0</ele><time>2026-03-29T07:56:30.643Z</time></trkpt><trkpt lat="45.5366478" lon="10.444332"><ele>216.5</ele><time>2026-03-29T07:56:31.656Z</time></trkpt><trkpt lat="45.536511" lon="10.4443333"><ele>216.0</ele><time>2026-03-29T07:56:32.661Z</time></trkpt><trkpt lat="45.5363985" lon="10.4443406"><ele>216.0</ele><time>2026-03-29T07:56:33.655Z</time></trkpt><trkpt lat="45.5362696" lon="10.4443494"><ele>216.0</ele><time>2026-03-29T07:56:34.654Z</time></trkpt><trkpt lat="45.5361207" lon="10.4443585"><ele>216.0</ele><time>2026-03-29T07:56:35.65Z</time></trkpt><trkpt lat="45.5359665" lon="10.4443713"><ele>216.0</ele><time>2026-03-29T07:56:36.645Z</time></trkpt><trkpt lat="45.5358106" lon="10.4443902"><ele>215.0</ele><time>2026-03-29T07:56:37.665Z</time></trkpt><trkpt lat="45.5356727" lon="10.444406"><ele>214.0</ele><time>2026-03-29T07:56:38.651Z</time></trkpt><trkpt lat="45.5355517" lon="10.444412"><ele>213.0</ele><time>2026-03-29T07:56:39.653Z</time></trkpt><trkpt lat="45.5354485" lon="10.4444086"><ele>212.0</ele><time>2026-03-29T07:56:40.66Z</time></trkpt><trkpt lat="45.5353196" lon="10.4443989"><ele>211.75</ele><time>2026-03-29T07:56:41.646Z</time></trkpt><trkpt lat="45.535174" lon="10.4443807"><ele>211.5</ele><time>2026-03-29T07:56:42.641Z</time></trkpt><trkpt lat="45.535039" lon="10.4443349"><ele>211.25</ele><time>2026-03-29T07:56:43.641Z</time></trkpt><trkpt lat="45.5349061" lon="10.4442728"><ele>211.0</ele><time>2026-03-29T07:56:44.639Z</time></trkpt><trkpt lat="45.5347761" lon="10.4441995"><ele>211.0</ele><time>2026-03-29T07:56:45.648Z</time></trkpt><trkpt lat="45.5346493" lon="10.4441075"><ele>211.0</ele><time>2026-03-29T07:56:46.658Z</time></trkpt><trkpt lat="45.5345139" lon="10.4440338"><ele>211.0</ele><time>2026-03-29T07:56:47.65Z</time></trkpt><trkpt lat="45.5343782" lon="10.4439814"><ele>211.0</ele><time>2026-03-29T07:56:48.653Z</time></trkpt><trkpt lat="45.5342381" lon="10.443936"><ele>211.0</ele><time>2026-03-29T07:56:49.657Z</time></trkpt><trkpt lat="45.5340792" lon="10.443912"><ele>211.0</ele><time>2026-03-29T07:56:50.649Z</time></trkpt><trkpt lat="45.5339266" lon="10.4439165"><ele>211.0</ele><time>2026-03-29T07:56:51.642Z</time></trkpt><trkpt lat="45.5337642" lon="10.4439096"><ele>210.66666666666666</ele><time>2026-03-29T07:56:52.654Z</time></trkpt><trkpt lat="45.5336113" lon="10.4439103"><ele>210.33333333333331</ele><time>2026-03-29T07:56:53.651Z</time></trkpt><trkpt lat="45.5334471" lon="10.4438965"><ele>210.0</ele><time>2026-03-29T07:56:54.653Z</time></trkpt><trkpt lat="45.5332938" lon="10.4438847"><ele>210.0</ele><time>2026-03-29T07:56:55.65Z</time></trkpt><trkpt lat="45.5331489" lon="10.443879"><ele>210.0</ele><time>2026-03-29T07:56:56.651Z</time></trkpt><trkpt lat="45.5329912" lon="10.4438681"><ele>210.0</ele><time>2026-03-29T07:56:57.654Z</time></trkpt><trkpt lat="45.5328224" lon="10.4438721"><ele>210.25</ele><time>2026-03-29T07:56:58.663Z</time></trkpt><trkpt lat="45.5326799" lon="10.4438723"><ele>210.5</ele><time>2026-03-29T07:56:59.653Z</time></trkpt><trkpt lat="45.5325286" lon="10.4438642"><ele>210.75</ele><time>2026-03-29T07:57:00.65Z</time></trkpt><trkpt lat="45.5323841" lon="10.4438449"><ele>211.0</ele><time>2026-03-29T07:57:01.659Z</time></trkpt><trkpt lat="45.5322484" lon="10.4438162"><ele>210.5</ele><time>2026-03-29T07:57:02.659Z</time></trkpt><trkpt lat="45.5321235" lon="10.4437854"><ele>210.0</ele><time>2026-03-29T07:57:03.655Z</time></trkpt><trkpt lat="45.5320072" lon="10.4437547"><ele>209.5</ele><time>2026-03-29T07:57:04.665Z</time></trkpt><trkpt lat="45.5318922" lon="10.4437298"><ele>209.0</ele><time>2026-03-29T07:57:05.658Z</time></trkpt><trkpt lat="45.5317613" lon="10.4437152"><ele>209.0</ele><time>2026-03-29T07:57:06.656Z</time></trkpt><trkpt lat="45.5316326" lon="10.4436896"><ele>209.0</ele><time>2026-03-29T07:57:07.655Z</time></trkpt><trkpt lat="45.5314923" lon="10.4436604"><ele>209.0</ele><time>2026-03-29T07:57:08.675Z</time></trkpt><trkpt lat="45.5313779" lon="10.4436266"><ele>209.0</ele><time>2026-03-29T07:57:09.653Z</time></trkpt><trkpt lat="45.531279" lon="10.4436051"><ele>209.00000000000003</ele><time>2026-03-29T07:57:10.661Z</time></trkpt><trkpt lat="45.5311986" lon="10.4435799"><ele>209.0</ele><time>2026-03-29T07:57:11.653Z</time></trkpt><trkpt lat="45.5310865" lon="10.4435412"><ele>209.0</ele><time>2026-03-29T07:57:13.665Z</time></trkpt><trkpt lat="45.5309999" lon="10.4435176"><ele>209.0</ele><time>2026-03-29T07:57:15.665Z</time></trkpt><trkpt lat="45.5309364" lon="10.4434941"><ele>209.00000000000003</ele><time>2026-03-29T07:57:17.662Z</time></trkpt><trkpt lat="45.5308647" lon="10.4434142"><ele>209.0</ele><time>2026-03-29T07:57:19.669Z</time></trkpt><trkpt lat="45.5307644" lon="10.4432858"><ele>209.0</ele><time>2026-03-29T07:57:21.665Z</time></trkpt><trkpt lat="45.5307213" lon="10.4432059"><ele>209.0</ele><time>2026-03-29T07:57:22.665Z</time></trkpt><trkpt lat="45.5306626" lon="10.4431326"><ele>209.0</ele><time>2026-03-29T07:57:23.651Z</time></trkpt><trkpt lat="45.5305897" lon="10.4430967"><ele>209.0</ele><time>2026-03-29T07:57:24.668Z</time></trkpt><trkpt lat="45.5304693" lon="10.4431454"><ele>209.0</ele><time>2026-03-29T07:57:26.654Z</time></trkpt><trkpt lat="45.5304089" lon="10.4433015"><ele>209.00000000000003</ele><time>2026-03-29T07:57:28.659Z</time></trkpt><trkpt lat="45.5304098" lon="10.443394"><ele>209.0</ele><time>2026-03-29T07:57:29.654Z</time></trkpt><trkpt lat="45.5304438" lon="10.4434833"><ele>209.0</ele><time>2026-03-29T07:57:30.653Z</time></trkpt><trkpt lat="45.5304971" lon="10.443575"><ele>209.0</ele><time>2026-03-29T07:57:31.655Z</time></trkpt><trkpt lat="45.5305377" lon="10.4436872"><ele>209.00000000000003</ele><time>2026-03-29T07:57:32.658Z</time></trkpt><trkpt lat="45.5305669" lon="10.4438171"><ele>209.0</ele><time>2026-03-29T07:57:33.654Z</time></trkpt><trkpt lat="45.5305798" lon="10.4439691"><ele>209.0</ele><time>2026-03-29T07:57:34.673Z</time></trkpt><trkpt lat="45.5305712" lon="10.4441303"><ele>209.0</ele><time>2026-03-29T07:57:35.646Z</time></trkpt><trkpt lat="45.530544" lon="10.4442976"><ele>209.0</ele><time>2026-03-29T07:57:36.654Z</time></trkpt><trkpt lat="45.5305052" lon="10.4444704"><ele>209.0</ele><time>2026-03-29T07:57:37.661Z</time></trkpt><trkpt lat="45.5304657" lon="10.4446489"><ele>209.0</ele><time>2026-03-29T07:57:38.664Z</time></trkpt><trkpt lat="45.5304284" lon="10.4448257"><ele>209.0</ele><time>2026-03-29T07:57:40.744Z</time></trkpt><trkpt lat="45.5303912" lon="10.4450151"><ele>209.0</ele><time>2026-03-29T07:57:41.738Z</time></trkpt><trkpt lat="45.5303536" lon="10.4452167"><ele>209.0</ele><time>2026-03-29T07:57:42.738Z</time></trkpt><trkpt lat="45.5303127" lon="10.4454182"><ele>210.0</ele><time>2026-03-29T07:57:43.733Z</time></trkpt><trkpt lat="45.5302744" lon="10.4456194"><ele>211.0</ele><time>2026-03-29T07:57:44.731Z</time></trkpt><trkpt lat="45.530237" lon="10.4458225"><ele>212.0</ele><time>2026-03-29T07:57:45.73Z</time></trkpt><trkpt lat="45.5301991" lon="10.4460131"><ele>213.0</ele><time>2026-03-29T07:57:46.736Z</time></trkpt><trkpt lat="45.5301577" lon="10.4461938"><ele>212.75</ele><time>2026-03-29T07:57:47.728Z</time></trkpt><trkpt lat="45.5301154" lon="10.4463681"><ele>212.5</ele><time>2026-03-29T07:57:48.727Z</time></trkpt><trkpt lat="45.5300733" lon="10.4465361"><ele>212.25</ele><time>2026-03-29T07:57:49.725Z</time></trkpt><trkpt lat="45.5300333" lon="10.4466825"><ele>212.0</ele><time>2026-03-29T07:57:50.723Z</time></trkpt><trkpt lat="45.5299929" lon="10.4468183"><ele>212.0</ele><time>2026-03-29T07:57:51.725Z</time></trkpt><trkpt lat="45.5299401" lon="10.4469465"><ele>212.0</ele><time>2026-03-29T07:57:52.739Z</time></trkpt><trkpt lat="45.5298695" lon="10.4470692"><ele>212.0</ele><time>2026-03-29T07:57:53.736Z</time></trkpt><trkpt lat="45.5297859" lon="10.4471825"><ele>212.0</ele><time>2026-03-29T07:57:54.725Z</time></trkpt><trkpt lat="45.5296847" lon="10.4472964"><ele>211.5</ele><time>2026-03-29T07:57:55.721Z</time></trkpt><trkpt lat="45.529577" lon="10.447397"><ele>211.0</ele><time>2026-03-29T07:57:56.717Z</time></trkpt><trkpt lat="45.5294702" lon="10.4474888"><ele>210.5</ele><time>2026-03-29T07:57:57.718Z</time></trkpt><trkpt lat="45.5293602" lon="10.447581"><ele>210.0</ele><time>2026-03-29T07:57:58.731Z</time></trkpt><trkpt lat="45.5292482" lon="10.4476724"><ele>209.25</ele><time>2026-03-29T07:57:59.735Z</time></trkpt><trkpt lat="45.529131" lon="10.4477734"><ele>208.5</ele><time>2026-03-29T07:58:00.736Z</time></trkpt><trkpt lat="45.5290123" lon="10.4478819"><ele>207.75</ele><time>2026-03-29T07:58:01.728Z</time></trkpt><trkpt lat="45.5289006" lon="10.4480038"><ele>207.0</ele><time>2026-03-29T07:58:02.734Z</time></trkpt><trkpt lat="45.5287766" lon="10.4481659"><ele>207.25</ele><time>2026-03-29T07:58:03.728Z</time></trkpt><trkpt lat="45.5286936" lon="10.4483209"><ele>207.5</ele><time>2026-03-29T07:58:04.715Z</time></trkpt><trkpt lat="45.5286226" lon="10.4484949"><ele>207.75</ele><time>2026-03-29T07:58:05.714Z</time></trkpt><trkpt lat="45.5285749" lon="10.4486834"><ele>208.0</ele><time>2026-03-29T07:58:06.713Z</time></trkpt><trkpt lat="45.5285512" lon="10.448881"><ele>208.0</ele><time>2026-03-29T07:58:07.715Z</time></trkpt><trkpt lat="45.5285373" lon="10.4490896"><ele>208.0</ele><time>2026-03-29T07:58:08.727Z</time></trkpt><trkpt lat="45.5285393" lon="10.4492936"><ele>208.0</ele><time>2026-03-29T07:58:09.729Z</time></trkpt><trkpt lat="45.5285464" lon="10.4494759"><ele>208.0</ele><time>2026-03-29T07:58:10.77Z</time></trkpt><trkpt lat="45.5285488" lon="10.4496431"><ele>208.25</ele><time>2026-03-29T07:58:11.723Z</time></trkpt><trkpt lat="45.5285462" lon="10.4498153"><ele>208.5</ele><time>2026-03-29T07:58:12.737Z</time></trkpt><trkpt lat="45.5285367" lon="10.4500029"><ele>208.75</ele><time>2026-03-29T07:58:13.725Z</time></trkpt><trkpt lat="45.5285254" lon="10.4501596"><ele>209.0</ele><time>2026-03-29T07:58:14.738Z</time></trkpt><trkpt lat="45.5285005" lon="10.4503248"><ele>208.75</ele><time>2026-03-29T07:58:15.736Z</time></trkpt><trkpt lat="45.5284607" lon="10.4505015"><ele>208.5</ele><time>2026-03-29T07:58:16.714Z</time></trkpt><trkpt lat="45.5284067" lon="10.4506788"><ele>208.25</ele><time>2026-03-29T07:58:17.719Z</time></trkpt><trkpt lat="45.5283367" lon="10.4508481"><ele>208.0</ele><time>2026-03-29T07:58:18.714Z</time></trkpt><trkpt lat="45.5282543" lon="10.4510064"><ele>208.0</ele><time>2026-03-29T07:58:19.721Z</time></trkpt><trkpt lat="45.5281522" lon="10.4511496"><ele>208.0</ele><time>2026-03-29T07:58:20.736Z</time></trkpt><trkpt lat="45.5280472" lon="10.4512816"><ele>208.0</ele><time>2026-03-29T07:58:21.739Z</time></trkpt><trkpt lat="45.5279412" lon="10.4514132"><ele>208.0</ele><time>2026-03-29T07:58:22.729Z</time></trkpt><trkpt lat="45.5278323" lon="10.4515515"><ele>208.0</ele><time>2026-03-29T07:58:23.736Z</time></trkpt><trkpt lat="45.5277102" lon="10.4516969"><ele>208.0</ele><time>2026-03-29T07:58:24.725Z</time></trkpt><trkpt lat="45.5276014" lon="10.4518459"><ele>208.0</ele><time>2026-03-29T07:58:25.726Z</time></trkpt><trkpt lat="45.5274985" lon="10.4520021"><ele>207.5</ele><time>2026-03-29T07:58:26.735Z</time></trkpt><trkpt lat="45.5274104" lon="10.4521653"><ele>207.0</ele><time>2026-03-29T07:58:27.735Z</time></trkpt><trkpt lat="45.527327" lon="10.4523348"><ele>206.5</ele><time>2026-03-29T07:58:28.741Z</time></trkpt><trkpt lat="45.5272542" lon="10.4524868"><ele>206.0</ele><time>2026-03-29T07:58:29.727Z</time></trkpt><trkpt lat="45.5271909" lon="10.4526182"><ele>206.0</ele><time>2026-03-29T07:58:30.728Z</time></trkpt><trkpt lat="45.527136" lon="10.452733"><ele>206.0</ele><time>2026-03-29T07:58:31.731Z</time></trkpt><trkpt lat="45.52709" lon="10.4528382"><ele>206.0</ele><time>2026-03-29T07:58:32.722Z</time></trkpt><trkpt lat="45.5270403" lon="10.4529456"><ele>206.0</ele><time>2026-03-29T07:58:33.724Z</time></trkpt><trkpt lat="45.5269895" lon="10.4530435"><ele>206.0</ele><time>2026-03-29T07:58:34.725Z</time></trkpt><trkpt lat="45.5269287" lon="10.4531601"><ele>206.0</ele><time>2026-03-29T07:58:35.718Z</time></trkpt><trkpt lat="45.5268626" lon="10.4532867"><ele>206.0</ele><time>2026-03-29T07:58:36.733Z</time></trkpt><trkpt lat="45.526786" lon="10.4534226"><ele>206.0</ele><time>2026-03-29T07:58:37.732Z</time></trkpt><trkpt lat="45.526707" lon="10.45355"><ele>206.0</ele><time>2026-03-29T07:58:38.727Z</time></trkpt><trkpt lat="45.5266316" lon="10.4536648"><ele>206.0</ele><time>2026-03-29T07:58:39.742Z</time></trkpt><trkpt lat="45.5265625" lon="10.4537684"><ele>206.0</ele><time>2026-03-29T07:58:40.752Z</time></trkpt><trkpt lat="45.526498" lon="10.4538709"><ele>206.0</ele><time>2026-03-29T07:58:41.729Z</time></trkpt><trkpt lat="45.5264332" lon="10.4539883"><ele>206.0</ele><time>2026-03-29T07:58:42.736Z</time></trkpt><trkpt lat="45.5263777" lon="10.4541026"><ele>206.0</ele><time>2026-03-29T07:58:43.709Z</time></trkpt><trkpt lat="45.526336" lon="10.4542246"><ele>205.75</ele><time>2026-03-29T07:58:44.716Z</time></trkpt><trkpt lat="45.5262943" lon="10.4543473"><ele>205.5</ele><time>2026-03-29T07:58:45.705Z</time></trkpt><trkpt lat="45.5262476" lon="10.4544853"><ele>205.25</ele><time>2026-03-29T07:58:46.708Z</time></trkpt><trkpt lat="45.5261906" lon="10.4546368"><ele>205.0</ele><time>2026-03-29T07:58:47.726Z</time></trkpt><trkpt lat="45.5261265" lon="10.4548148"><ele>205.0</ele><time>2026-03-29T07:58:48.734Z</time></trkpt><trkpt lat="45.5260628" lon="10.4549819"><ele>205.0</ele><time>2026-03-29T07:58:49.732Z</time></trkpt><trkpt lat="45.5260039" lon="10.4551469"><ele>205.0</ele><time>2026-03-29T07:58:50.732Z</time></trkpt><trkpt lat="45.5260029" lon="10.4553184"><ele>205.0</ele><time>2026-03-29T07:58:51.748Z</time></trkpt><trkpt lat="45.52596" lon="10.4554943"><ele>205.0</ele><time>2026-03-29T07:58:52.734Z</time></trkpt><trkpt lat="45.5259082" lon="10.4556625"><ele>205.0</ele><time>2026-03-29T07:58:53.739Z</time></trkpt><trkpt lat="45.5258537" lon="10.4558176"><ele>205.0</ele><time>2026-03-29T07:58:54.733Z</time></trkpt><trkpt lat="45.5258037" lon="10.4559599"><ele>205.0</ele><time>2026-03-29T07:58:55.73Z</time></trkpt><trkpt lat="45.5257549" lon="10.456099"><ele>205.0</ele><time>2026-03-29T07:58:56.738Z</time></trkpt><trkpt lat="45.5257038" lon="10.4562404"><ele>205.0</ele><time>2026-03-29T07:58:57.732Z</time></trkpt><trkpt lat="45.5256329" lon="10.4564118"><ele>205.0</ele><time>2026-03-29T07:58:58.746Z</time></trkpt><trkpt lat="45.5255599" lon="10.4565602"><ele>205.0</ele><time>2026-03-29T07:58:59.731Z</time></trkpt><trkpt lat="45.5254832" lon="10.4567113"><ele>205.0</ele><time>2026-03-29T07:59:00.731Z</time></trkpt><trkpt lat="45.5254072" lon="10.4568578"><ele>205.0</ele><time>2026-03-29T07:59:01.735Z</time></trkpt><trkpt lat="45.5253217" lon="10.4570078"><ele>205.0</ele><time>2026-03-29T07:59:02.724Z</time></trkpt><trkpt lat="45.5252441" lon="10.4571514"><ele>205.0</ele><time>2026-03-29T07:59:03.723Z</time></trkpt><trkpt lat="45.5251677" lon="10.4572939"><ele>204.5</ele><time>2026-03-29T07:59:04.725Z</time></trkpt><trkpt lat="45.5250951" lon="10.4574379"><ele>204.0</ele><time>2026-03-29T07:59:05.725Z</time></trkpt><trkpt lat="45.5250186" lon="10.457593"><ele>203.5</ele><time>2026-03-29T07:59:06.724Z</time></trkpt><trkpt lat="45.5249389" lon="10.4577557"><ele>203.0</ele><time>2026-03-29T07:59:07.731Z</time></trkpt><trkpt lat="45.5248631" lon="10.4579086"><ele>203.0</ele><time>2026-03-29T07:59:08.732Z</time></trkpt><trkpt lat="45.5247917" lon="10.4580637"><ele>203.0</ele><time>2026-03-29T07:59:09.719Z</time></trkpt><trkpt lat="45.5247231" lon="10.4582166"><ele>203.0</ele><time>2026-03-29T07:59:10.721Z</time></trkpt><trkpt lat="45.5246591" lon="10.4583684"><ele>203.0</ele><time>2026-03-29T07:59:11.751Z</time></trkpt><trkpt lat="45.5245965" lon="10.4585221"><ele>202.5</ele><time>2026-03-29T07:59:12.732Z</time></trkpt><trkpt lat="45.5245323" lon="10.4586804"><ele>202.0</ele><time>2026-03-29T07:59:13.73Z</time></trkpt><trkpt lat="45.5244641" lon="10.4588432"><ele>201.5</ele><time>2026-03-29T07:59:14.729Z</time></trkpt><trkpt lat="45.5243945" lon="10.4590093"><ele>201.0</ele><time>2026-03-29T07:59:15.725Z</time></trkpt><trkpt lat="45.5243293" lon="10.4591573"><ele>201.0</ele><time>2026-03-29T07:59:16.731Z</time></trkpt><trkpt lat="45.5242709" lon="10.4592785"><ele>201.0</ele><time>2026-03-29T07:59:17.719Z</time></trkpt><trkpt lat="45.5242027" lon="10.4593887"><ele>201.0</ele><time>2026-03-29T07:59:18.723Z</time></trkpt><trkpt lat="45.5241421" lon="10.4594717"><ele>201.0</ele><time>2026-03-29T07:59:19.742Z</time></trkpt><trkpt lat="45.5240856" lon="10.4595456"><ele>201.0</ele><time>2026-03-29T07:59:20.721Z</time></trkpt><trkpt lat="45.5240188" lon="10.4596211"><ele>201.0</ele><time>2026-03-29T07:59:21.712Z</time></trkpt><trkpt lat="45.5239296" lon="10.4596935"><ele>201.0</ele><time>2026-03-29T07:59:22.726Z</time></trkpt><trkpt lat="45.5238408" lon="10.4597378"><ele>201.0</ele><time>2026-03-29T07:59:23.723Z</time></trkpt><trkpt lat="45.5237434" lon="10.4597727"><ele>201.0</ele><time>2026-03-29T07:59:24.74Z</time></trkpt><trkpt lat="45.5236534" lon="10.459789"><ele>201.0</ele><time>2026-03-29T07:59:25.734Z</time></trkpt><trkpt lat="45.5235693" lon="10.459792"><ele>201.0</ele><time>2026-03-29T07:59:26.711Z</time></trkpt><trkpt lat="45.5235058" lon="10.4597917"><ele>201.0</ele><time>2026-03-29T07:59:27.708Z</time></trkpt><trkpt lat="45.5234289" lon="10.4597971"><ele>201.0</ele><time>2026-03-29T07:59:29.712Z</time></trkpt><trkpt lat="45.5235142" lon="10.4598275"><ele>201.0</ele><time>2026-03-29T07:59:42.754Z</time></trkpt><trkpt lat="45.5236488" lon="10.4597898"><ele>201.0</ele><time>2026-03-29T07:59:44.716Z</time></trkpt><trkpt lat="45.5237674" lon="10.4597477"><ele>201.0</ele><time>2026-03-29T07:59:45.712Z</time></trkpt><trkpt lat="45.5238967" lon="10.4596779"><ele>201.0</ele><time>2026-03-29T07:59:46.706Z</time></trkpt><trkpt lat="45.52402" lon="10.4595828"><ele>201.0</ele><time>2026-03-29T07:59:47.722Z</time></trkpt><trkpt lat="45.5241345" lon="10.4594633"><ele>201.0</ele><time>2026-03-29T07:59:48.727Z</time></trkpt><trkpt lat="45.5242349" lon="10.4593165"><ele>201.0</ele><time>2026-03-29T07:59:49.722Z</time></trkpt><trkpt lat="45.5243305" lon="10.4591381"><ele>201.0</ele><time>2026-03-29T07:59:50.714Z</time></trkpt><trkpt lat="45.5244144" lon="10.4589597"><ele>201.0</ele><time>2026-03-29T07:59:51.71Z</time></trkpt><trkpt lat="45.5244882" lon="10.4587915"><ele>201.0</ele><time>2026-03-29T07:59:52.711Z</time></trkpt><trkpt lat="45.5245575" lon="10.4586336"><ele>201.5</ele><time>2026-03-29T07:59:53.718Z</time></trkpt><trkpt lat="45.5246305" lon="10.4584659"><ele>202.0</ele><time>2026-03-29T07:59:54.716Z</time></trkpt><trkpt lat="45.5247032" lon="10.4582993"><ele>202.5</ele><time>2026-03-29T07:59:55.716Z</time></trkpt><trkpt lat="45.5247757" lon="10.4581321"><ele>203.0</ele><time>2026-03-29T07:59:56.695Z</time></trkpt><trkpt lat="45.5248313" lon="10.4579951"><ele>203.0</ele><time>2026-03-29T07:59:57.697Z</time></trkpt><trkpt lat="45.5249045" lon="10.4578386"><ele>203.0</ele><time>2026-03-29T07:59:58.693Z</time></trkpt><trkpt lat="45.5249729" lon="10.4577089"><ele>203.0</ele><time>2026-03-29T07:59:59.693Z</time></trkpt><trkpt lat="45.5250238" lon="10.4576122"><ele>203.0</ele><time>2026-03-29T08:00:00.685Z</time></trkpt><trkpt lat="45.5250509" lon="10.4575239"><ele>203.0</ele><time>2026-03-29T08:00:01.691Z</time></trkpt><trkpt lat="45.5250707" lon="10.457317"><ele>203.0</ele><time>2026-03-29T08:00:03.598Z</time></trkpt><trkpt lat="45.5249696" lon="10.4572859"><ele>203.0</ele><time>2026-03-29T08:00:04.589Z</time></trkpt><trkpt lat="45.524859" lon="10.457277"><ele>203.0</ele><time>2026-03-29T08:00:05.592Z</time></trkpt><trkpt lat="45.5247219" lon="10.4573007"><ele>203.0</ele><time>2026-03-29T08:00:06.593Z</time></trkpt><trkpt lat="45.524597" lon="10.4573085"><ele>202.5</ele><time>2026-03-29T08:00:07.601Z</time></trkpt><trkpt lat="45.5244653" lon="10.457296"><ele>202.0</ele><time>2026-03-29T08:00:08.613Z</time></trkpt><trkpt lat="45.5243347" lon="10.457287"><ele>201.5</ele><time>2026-03-29T08:00:09.611Z</time></trkpt><trkpt lat="45.5242109" lon="10.4572661"><ele>201.0</ele><time>2026-03-29T08:00:10.614Z</time></trkpt><trkpt lat="45.5240776" lon="10.4572492"><ele>201.0</ele><time>2026-03-29T08:00:11.613Z</time></trkpt><trkpt lat="45.5239363" lon="10.4572293"><ele>201.0</ele><time>2026-03-29T08:00:12.624Z</time></trkpt><trkpt lat="45.5237721" lon="10.4572103"><ele>201.0</ele><time>2026-03-29T08:00:13.622Z</time></trkpt><trkpt lat="45.5236243" lon="10.4571712"><ele>200.0</ele><time>2026-03-29T08:00:14.626Z</time></trkpt><trkpt lat="45.5234727" lon="10.4571044"><ele>199.0</ele><time>2026-03-29T08:00:15.622Z</time></trkpt><trkpt lat="45.5233035" lon="10.457063"><ele>198.0</ele><time>2026-03-29T08:00:16.63Z</time></trkpt><trkpt lat="45.5231348" lon="10.4570141"><ele>198.0</ele><time>2026-03-29T08:00:17.608Z</time></trkpt><trkpt lat="45.5229538" lon="10.4569492"><ele>198.0</ele><time>2026-03-29T08:00:18.614Z</time></trkpt><trkpt lat="45.5227789" lon="10.4568785"><ele>198.0</ele><time>2026-03-29T08:00:19.622Z</time></trkpt><trkpt lat="45.5226195" lon="10.4568159"><ele>197.33333333333331</ele><time>2026-03-29T08:00:20.62Z</time></trkpt><trkpt lat="45.5224787" lon="10.4567546"><ele>196.66666666666666</ele><time>2026-03-29T08:00:21.623Z</time></trkpt><trkpt lat="45.5223194" lon="10.4566849"><ele>196.0</ele><time>2026-03-29T08:00:22.628Z</time></trkpt><trkpt lat="45.5221663" lon="10.45662"><ele>195.33333333333331</ele><time>2026-03-29T08:00:23.626Z</time></trkpt><trkpt lat="45.5220085" lon="10.4565651"><ele>194.66666666666669</ele><time>2026-03-29T08:00:24.641Z</time></trkpt><trkpt lat="45.521849" lon="10.4565153"><ele>194.0</ele><time>2026-03-29T08:00:25.63Z</time></trkpt><trkpt lat="45.521695" lon="10.4564681"><ele>194.0</ele><time>2026-03-29T08:00:26.632Z</time></trkpt><trkpt lat="45.5215385" lon="10.4564247"><ele>194.0</ele><time>2026-03-29T08:00:27.633Z</time></trkpt><trkpt lat="45.5214086" lon="10.4563842"><ele>194.0</ele><time>2026-03-29T08:00:28.633Z</time></trkpt><trkpt lat="45.5212571" lon="10.4563329"><ele>194.0</ele><time>2026-03-29T08:00:29.634Z</time></trkpt><trkpt lat="45.5211056" lon="10.4562474"><ele>193.66666666666669</ele><time>2026-03-29T08:00:30.622Z</time></trkpt><trkpt lat="45.5209436" lon="10.456129"><ele>193.33333333333331</ele><time>2026-03-29T08:00:31.64Z</time></trkpt><trkpt lat="45.5207878" lon="10.4560263"><ele>193.0</ele><time>2026-03-29T08:00:32.63Z</time></trkpt><trkpt lat="45.5206249" lon="10.4559383"><ele>193.0</ele><time>2026-03-29T08:00:33.641Z</time></trkpt><trkpt lat="45.5204747" lon="10.4558262"><ele>193.0</ele><time>2026-03-29T08:00:34.634Z</time></trkpt><trkpt lat="45.520318" lon="10.4557344"><ele>193.0</ele><time>2026-03-29T08:00:35.623Z</time></trkpt><trkpt lat="45.5202164" lon="10.455652"><ele>192.75</ele><time>2026-03-29T08:00:36.629Z</time></trkpt><trkpt lat="45.5201001" lon="10.4555682"><ele>192.5</ele><time>2026-03-29T08:00:37.619Z</time></trkpt><trkpt lat="45.5199797" lon="10.4554941"><ele>192.25</ele><time>2026-03-29T08:00:38.64Z</time></trkpt><trkpt lat="45.5198307" lon="10.4553927"><ele>192.0</ele><time>2026-03-29T08:00:39.635Z</time></trkpt><trkpt lat="45.5196825" lon="10.4553051"><ele>191.33333333333334</ele><time>2026-03-29T08:00:40.629Z</time></trkpt><trkpt lat="45.5195182" lon="10.4552236"><ele>190.66666666666669</ele><time>2026-03-29T08:00:41.623Z</time></trkpt><trkpt lat="45.519362" lon="10.4551574"><ele>190.0</ele><time>2026-03-29T08:00:42.625Z</time></trkpt><trkpt lat="45.519211" lon="10.4551001"><ele>190.0</ele><time>2026-03-29T08:00:43.621Z</time></trkpt><trkpt lat="45.5190733" lon="10.4550177"><ele>190.0</ele><time>2026-03-29T08:00:44.635Z</time></trkpt><trkpt lat="45.5189397" lon="10.4549622"><ele>190.0</ele><time>2026-03-29T08:00:45.623Z</time></trkpt><trkpt lat="45.5188237" lon="10.4548958"><ele>190.0</ele><time>2026-03-29T08:00:46.615Z</time></trkpt><trkpt lat="45.5187016" lon="10.4548495"><ele>190.0</ele><time>2026-03-29T08:00:47.616Z</time></trkpt><trkpt lat="45.5185955" lon="10.4548243"><ele>190.0</ele><time>2026-03-29T08:00:48.623Z</time></trkpt><trkpt lat="45.5185048" lon="10.4547956"><ele>190.0</ele><time>2026-03-29T08:00:49.617Z</time></trkpt><trkpt lat="45.5184211" lon="10.4547525"><ele>190.0</ele><time>2026-03-29T08:00:50.634Z</time></trkpt><trkpt lat="45.5183248" lon="10.4546562"><ele>190.0</ele><time>2026-03-29T08:00:51.625Z</time></trkpt><trkpt lat="45.5182564" lon="10.4545066"><ele>190.0</ele><time>2026-03-29T08:00:52.624Z</time></trkpt><trkpt lat="45.5181827" lon="10.454358"><ele>190.0</ele><time>2026-03-29T08:00:53.62Z</time></trkpt><trkpt lat="45.5180802" lon="10.4541974"><ele>190.0</ele><time>2026-03-29T08:00:54.639Z</time></trkpt><trkpt lat="45.5179554" lon="10.4540549"><ele>190.0</ele><time>2026-03-29T08:00:55.631Z</time></trkpt><trkpt lat="45.5178473" lon="10.4539212"><ele>189.5</ele><time>2026-03-29T08:00:56.622Z</time></trkpt><trkpt lat="45.5177581" lon="10.4537983"><ele>189.0</ele><time>2026-03-29T08:00:57.623Z</time></trkpt><trkpt lat="45.5176986" lon="10.4536625"><ele>188.5</ele><time>2026-03-29T08:00:58.63Z</time></trkpt><trkpt lat="45.5176565" lon="10.4535173"><ele>188.0</ele><time>2026-03-29T08:00:59.631Z</time></trkpt><trkpt lat="45.5176493" lon="10.4533572"><ele>188.0</ele><time>2026-03-29T08:01:00.624Z</time></trkpt><trkpt lat="45.5176415" lon="10.4531679"><ele>188.0</ele><time>2026-03-29T08:01:01.633Z</time></trkpt><trkpt lat="45.5176526" lon="10.4529803"><ele>188.0</ele><time>2026-03-29T08:01:02.634Z</time></trkpt><trkpt lat="45.5176575" lon="10.4528008"><ele>188.0</ele><time>2026-03-29T08:01:03.63Z</time></trkpt><trkpt lat="45.5176526" lon="10.4526261"><ele>188.0</ele><time>2026-03-29T08:01:04.626Z</time></trkpt><trkpt lat="45.5176302" lon="10.452483"><ele>188.0</ele><time>2026-03-29T08:01:05.629Z</time></trkpt><trkpt lat="45.5176039" lon="10.4523414"><ele>188.0</ele><time>2026-03-29T08:01:06.619Z</time></trkpt><trkpt lat="45.5176008" lon="10.4521783"><ele>188.0</ele><time>2026-03-29T08:01:07.618Z</time></trkpt><trkpt lat="45.5175973" lon="10.4519937"><ele>188.0</ele><time>2026-03-29T08:01:08.615Z</time></trkpt><trkpt lat="45.5175936" lon="10.4517654"><ele>188.0</ele><time>2026-03-29T08:01:09.624Z</time></trkpt><trkpt lat="45.5176084" lon="10.4515347"><ele>188.0</ele><time>2026-03-29T08:01:10.629Z</time></trkpt><trkpt lat="45.5176235" lon="10.4513373"><ele>188.0</ele><time>2026-03-29T08:01:11.627Z</time></trkpt><trkpt lat="45.517625" lon="10.4511774"><ele>188.0</ele><time>2026-03-29T08:01:12.629Z</time></trkpt><trkpt lat="45.5175945" lon="10.4509736"><ele>188.0</ele><time>2026-03-29T08:01:13.619Z</time></trkpt><trkpt lat="45.517572" lon="10.4507753"><ele>188.0</ele><time>2026-03-29T08:01:14.627Z</time></trkpt><trkpt lat="45.5175455" lon="10.4505825"><ele>188.0</ele><time>2026-03-29T08:01:15.641Z</time></trkpt><trkpt lat="45.5175108" lon="10.4504056"><ele>188.0</ele><time>2026-03-29T08:01:16.632Z</time></trkpt><trkpt lat="45.517474" lon="10.4502241"><ele>188.0</ele><time>2026-03-29T08:01:17.637Z</time></trkpt><trkpt lat="45.5174299" lon="10.4500499"><ele>188.0</ele><time>2026-03-29T08:01:18.637Z</time></trkpt><trkpt lat="45.5173794" lon="10.4498878"><ele>188.0</ele><time>2026-03-29T08:01:19.641Z</time></trkpt><trkpt lat="45.5173176" lon="10.4497096"><ele>188.0</ele><time>2026-03-29T08:01:20.634Z</time></trkpt><trkpt lat="45.5172651" lon="10.449538"><ele>188.0</ele><time>2026-03-29T08:01:21.641Z</time></trkpt><trkpt lat="45.5171999" lon="10.4493551"><ele>188.0</ele><time>2026-03-29T08:01:22.629Z</time></trkpt><trkpt lat="45.5171091" lon="10.4491965"><ele>188.0</ele><time>2026-03-29T08:01:23.635Z</time></trkpt><trkpt lat="45.5170519" lon="10.4490283"><ele>188.0</ele><time>2026-03-29T08:01:24.637Z</time></trkpt><trkpt lat="45.5170023" lon="10.4488515"><ele>187.60000000000002</ele><time>2026-03-29T08:01:25.633Z</time></trkpt><trkpt lat="45.5169582" lon="10.4487138"><ele>187.20000000000002</ele><time>2026-03-29T08:01:26.636Z</time></trkpt><trkpt lat="45.5169191" lon="10.4485954"><ele>186.8</ele><time>2026-03-29T08:01:27.627Z</time></trkpt><trkpt lat="45.5168618" lon="10.448476"><ele>186.4</ele><time>2026-03-29T08:01:28.651Z</time></trkpt><trkpt lat="45.5167801" lon="10.4483762"><ele>186.0</ele><time>2026-03-29T08:01:29.632Z</time></trkpt><trkpt lat="45.516681" lon="10.448277"><ele>186.0</ele><time>2026-03-29T08:01:30.629Z</time></trkpt><trkpt lat="45.5165668" lon="10.4481882"><ele>186.0</ele><time>2026-03-29T08:01:31.625Z</time></trkpt><trkpt lat="45.5164336" lon="10.4481065"><ele>186.0</ele><time>2026-03-29T08:01:32.637Z</time></trkpt><trkpt lat="45.5162876" lon="10.4480319"><ele>186.0</ele><time>2026-03-29T08:01:33.641Z</time></trkpt><trkpt lat="45.5161539" lon="10.4479601"><ele>185.4</ele><time>2026-03-29T08:01:34.637Z</time></trkpt><trkpt lat="45.516041" lon="10.4479108"><ele>184.8</ele><time>2026-03-29T08:01:35.639Z</time></trkpt><trkpt lat="45.5159483" lon="10.4478576"><ele>184.20000000000002</ele><time>2026-03-29T08:01:36.634Z</time></trkpt><trkpt lat="45.5158759" lon="10.4478156"><ele>183.60000000000002</ele><time>2026-03-29T08:01:37.63Z</time></trkpt><trkpt lat="45.5158096" lon="10.4477773"><ele>183.0</ele><time>2026-03-29T08:01:38.637Z</time></trkpt><trkpt lat="45.5156663" lon="10.4476873"><ele>183.0</ele><time>2026-03-29T08:01:40.631Z</time></trkpt><trkpt lat="45.5155643" lon="10.4476218"><ele>183.0</ele><time>2026-03-29T08:01:41.619Z</time></trkpt><trkpt lat="45.5154552" lon="10.4475479"><ele>183.0</ele><time>2026-03-29T08:01:42.622Z</time></trkpt><trkpt lat="45.5153385" lon="10.4474773"><ele>183.0</ele><time>2026-03-29T08:01:43.63Z</time></trkpt><trkpt lat="45.5152206" lon="10.4474169"><ele>182.83333333333334</ele><time>2026-03-29T08:01:44.636Z</time></trkpt><trkpt lat="45.5151185" lon="10.4473571"><ele>182.66666666666666</ele><time>2026-03-29T08:01:45.626Z</time></trkpt><trkpt lat="45.5150334" lon="10.4473046"><ele>182.5</ele><time>2026-03-29T08:01:46.638Z</time></trkpt><trkpt lat="45.5149642" lon="10.4472691"><ele>182.33333333333331</ele><time>2026-03-29T08:01:47.636Z</time></trkpt><trkpt lat="45.5148956" lon="10.4472172"><ele>182.16666666666666</ele><time>2026-03-29T08:01:49.634Z</time></trkpt><trkpt lat="45.514913" lon="10.4471087"><ele>182.0</ele><time>2026-03-29T08:01:51.648Z</time></trkpt><trkpt lat="45.5149831" lon="10.4469342"><ele>181.83333333333331</ele><time>2026-03-29T08:01:53.637Z</time></trkpt><trkpt lat="45.5150269" lon="10.4468152"><ele>181.66666666666666</ele><time>2026-03-29T08:01:54.647Z</time></trkpt><trkpt lat="45.5150677" lon="10.4467046"><ele>181.5</ele><time>2026-03-29T08:01:55.637Z</time></trkpt><trkpt lat="45.5150901" lon="10.4466094"><ele>181.33333333333334</ele><time>2026-03-29T08:01:56.639Z</time></trkpt><trkpt lat="45.5151149" lon="10.4465145"><ele>181.16666666666669</ele><time>2026-03-29T08:01:57.641Z</time></trkpt><trkpt lat="45.5151458" lon="10.4464106"><ele>181.0</ele><time>2026-03-29T08:01:58.638Z</time></trkpt><trkpt lat="45.5151731" lon="10.4463149"><ele>181.16666666666669</ele><time>2026-03-29T08:01:59.649Z</time></trkpt><trkpt lat="45.5152088" lon="10.4462059"><ele>181.33333333333334</ele><time>2026-03-29T08:02:00.635Z</time></trkpt><trkpt lat="45.5152457" lon="10.446077"><ele>181.5</ele><time>2026-03-29T08:02:01.642Z</time></trkpt><trkpt lat="45.5152918" lon="10.445957"><ele>181.66666666666666</ele><time>2026-03-29T08:02:02.634Z</time></trkpt><trkpt lat="45.5153226" lon="10.4458483"><ele>181.83333333333331</ele><time>2026-03-29T08:02:03.633Z</time></trkpt><trkpt lat="45.5153525" lon="10.4457617"><ele>182.0</ele><time>2026-03-29T08:02:04.636Z</time></trkpt><trkpt lat="45.5153786" lon="10.4456664"><ele>182.0</ele><time>2026-03-29T08:02:05.63Z</time></trkpt><trkpt lat="45.5154122" lon="10.4455558"><ele>182.0</ele><time>2026-03-29T08:02:06.633Z</time></trkpt><trkpt lat="45.5154413" lon="10.4454042"><ele>182.0</ele><time>2026-03-29T08:02:07.631Z</time></trkpt><trkpt lat="45.5154766" lon="10.4452369"><ele>182.0</ele><time>2026-03-29T08:02:08.631Z</time></trkpt><trkpt lat="45.5155207" lon="10.4450625"><ele>182.0</ele><time>2026-03-29T08:02:09.636Z</time></trkpt><trkpt lat="45.5155643" lon="10.4448878"><ele>182.0</ele><time>2026-03-29T08:02:10.637Z</time></trkpt><trkpt lat="45.5156051" lon="10.4447039"><ele>182.0</ele><time>2026-03-29T08:02:11.637Z</time></trkpt><trkpt lat="45.5156423" lon="10.4445292"><ele>182.0</ele><time>2026-03-29T08:02:12.636Z</time></trkpt><trkpt lat="45.5156742" lon="10.444361"><ele>182.0</ele><time>2026-03-29T08:02:13.635Z</time></trkpt><trkpt lat="45.515699" lon="10.4442085"><ele>182.0</ele><time>2026-03-29T08:02:14.64Z</time></trkpt><trkpt lat="45.5157288" lon="10.4440583"><ele>182.0</ele><time>2026-03-29T08:02:15.642Z</time></trkpt><trkpt lat="45.5157621" lon="10.4439207"><ele>182.0</ele><time>2026-03-29T08:02:16.63Z</time></trkpt><trkpt lat="45.5157982" lon="10.4438151"><ele>182.0</ele><time>2026-03-29T08:02:17.646Z</time></trkpt><trkpt lat="45.5158383" lon="10.4437274"><ele>182.0</ele><time>2026-03-29T08:02:18.642Z</time></trkpt><trkpt lat="45.515908" lon="10.4435779"><ele>182.0</ele><time>2026-03-29T08:02:20.63Z</time></trkpt><trkpt lat="45.5159488" lon="10.4434897"><ele>182.0</ele><time>2026-03-29T08:02:21.642Z</time></trkpt><trkpt lat="45.5159931" lon="10.4433845"><ele>182.0</ele><time>2026-03-29T08:02:22.644Z</time></trkpt><trkpt lat="45.516044" lon="10.4432534"><ele>182.0</ele><time>2026-03-29T08:02:23.644Z</time></trkpt><trkpt lat="45.5160833" lon="10.443107"><ele>182.0</ele><time>2026-03-29T08:02:24.653Z</time></trkpt><trkpt lat="45.5161127" lon="10.4429511"><ele>182.0</ele><time>2026-03-29T08:02:25.638Z</time></trkpt><trkpt lat="45.5161419" lon="10.4428099"><ele>182.0</ele><time>2026-03-29T08:02:26.641Z</time></trkpt><trkpt lat="45.5161647" lon="10.4426956"><ele>182.0</ele><time>2026-03-29T08:02:27.641Z</time></trkpt><trkpt lat="45.5161955" lon="10.4425764"><ele>182.0</ele><time>2026-03-29T08:02:28.639Z</time></trkpt><trkpt lat="45.5162149" lon="10.4424392"><ele>182.0</ele><time>2026-03-29T08:02:29.649Z</time></trkpt><trkpt lat="45.5162284" lon="10.442267"><ele>182.25</ele><time>2026-03-29T08:02:30.628Z</time></trkpt><trkpt lat="45.5162379" lon="10.4420662"><ele>182.5</ele><time>2026-03-29T08:02:31.634Z</time></trkpt><trkpt lat="45.5162503" lon="10.4418725"><ele>182.75</ele><time>2026-03-29T08:02:32.627Z</time></trkpt><trkpt lat="45.5162652" lon="10.4416681"><ele>183.0</ele><time>2026-03-29T08:02:33.629Z</time></trkpt><trkpt lat="45.5162961" lon="10.4415088"><ele>183.0</ele><time>2026-03-29T08:02:34.628Z</time></trkpt><trkpt lat="45.5163179" lon="10.4413421"><ele>183.0</ele><time>2026-03-29T08:02:35.628Z</time></trkpt><trkpt lat="45.5163512" lon="10.4412121"><ele>183.0</ele><time>2026-03-29T08:02:36.625Z</time></trkpt><trkpt lat="45.5163791" lon="10.4411003"><ele>183.0</ele><time>2026-03-29T08:02:37.634Z</time></trkpt><trkpt lat="45.5164114" lon="10.4409517"><ele>183.0</ele><time>2026-03-29T08:02:39.618Z</time></trkpt><trkpt lat="45.5163878" lon="10.4407977"><ele>182.83333333333334</ele><time>2026-03-29T08:02:41.627Z</time></trkpt><trkpt lat="45.5163372" lon="10.4407243"><ele>182.66666666666666</ele><time>2026-03-29T08:02:42.63Z</time></trkpt><trkpt lat="45.5162808" lon="10.4406632"><ele>182.5</ele><time>2026-03-29T08:02:43.617Z</time></trkpt><trkpt lat="45.5161995" lon="10.4405936"><ele>182.33333333333331</ele><time>2026-03-29T08:02:44.62Z</time></trkpt><trkpt lat="45.5161379" lon="10.4405114"><ele>182.16666666666666</ele><time>2026-03-29T08:02:45.628Z</time></trkpt><trkpt lat="45.5161039" lon="10.4404112"><ele>182.0</ele><time>2026-03-29T08:02:46.614Z</time></trkpt><trkpt lat="45.5160767" lon="10.440288"><ele>181.5</ele><time>2026-03-29T08:02:47.63Z</time></trkpt><trkpt lat="45.5160702" lon="10.4401498"><ele>181.0</ele><time>2026-03-29T08:02:48.652Z</time></trkpt><trkpt lat="45.5161037" lon="10.439996"><ele>180.5</ele><time>2026-03-29T08:02:49.631Z</time></trkpt><trkpt lat="45.5161447" lon="10.4398328"><ele>180.0</ele><time>2026-03-29T08:02:50.641Z</time></trkpt><trkpt lat="45.5162034" lon="10.4396753"><ele>181.2</ele><time>2026-03-29T08:02:51.629Z</time></trkpt><trkpt lat="45.5162611" lon="10.4395369"><ele>182.4</ele><time>2026-03-29T08:02:52.627Z</time></trkpt><trkpt lat="45.5163148" lon="10.4394191"><ele>183.60000000000002</ele><time>2026-03-29T08:02:53.63Z</time></trkpt><trkpt lat="45.5163764" lon="10.439323"><ele>184.8</ele><time>2026-03-29T08:02:54.626Z</time></trkpt><trkpt lat="45.5164293" lon="10.4392372"><ele>186.0</ele><time>2026-03-29T08:02:55.63Z</time></trkpt><trkpt lat="45.5164859" lon="10.4391555"><ele>186.0</ele><time>2026-03-29T08:02:56.626Z</time></trkpt><trkpt lat="45.5165486" lon="10.4390523"><ele>186.0</ele><time>2026-03-29T08:02:57.628Z</time></trkpt><trkpt lat="45.5166152" lon="10.4389497"><ele>186.0</ele><time>2026-03-29T08:02:58.626Z</time></trkpt><trkpt lat="45.5166662" lon="10.4388499"><ele>186.0</ele><time>2026-03-29T08:02:59.63Z</time></trkpt><trkpt lat="45.516703" lon="10.4387545"><ele>186.0</ele><time>2026-03-29T08:03:00.63Z</time></trkpt><trkpt lat="45.5167394" lon="10.4386144"><ele>186.8</ele><time>2026-03-29T08:03:02.631Z</time></trkpt><trkpt lat="45.5168436" lon="10.4385823"><ele>187.60000000000002</ele><time>2026-03-29T08:03:06.638Z</time></trkpt><trkpt lat="45.5169392" lon="10.438613"><ele>188.4</ele><time>2026-03-29T08:03:07.622Z</time></trkpt><trkpt lat="45.5170402" lon="10.4386287"><ele>189.2</ele><time>2026-03-29T08:03:08.622Z</time></trkpt><trkpt lat="45.5171413" lon="10.4386446"><ele>190.0</ele><time>2026-03-29T08:03:09.622Z</time></trkpt><trkpt lat="45.5172408" lon="10.4386223"><ele>190.2</ele><time>2026-03-29T08:03:10.621Z</time></trkpt><trkpt lat="45.5173414" lon="10.4386028"><ele>190.4</ele><time>2026-03-29T08:03:11.625Z</time></trkpt><trkpt lat="45.5174503" lon="10.4385711"><ele>190.60000000000002</ele><time>2026-03-29T08:03:12.619Z</time></trkpt><trkpt lat="45.5175431" lon="10.4385191"><ele>190.8</ele><time>2026-03-29T08:03:13.628Z</time></trkpt><trkpt lat="45.5176263" lon="10.4384775"><ele>191.0</ele><time>2026-03-29T08:03:14.621Z</time></trkpt><trkpt lat="45.5177034" lon="10.438435"><ele>191.0</ele><time>2026-03-29T08:03:15.624Z</time></trkpt><trkpt lat="45.5177671" lon="10.4384028"><ele>191.0</ele><time>2026-03-29T08:03:16.615Z</time></trkpt><trkpt lat="45.5178555" lon="10.4383463"><ele>191.0</ele><time>2026-03-29T08:03:18.631Z</time></trkpt><trkpt lat="45.5179322" lon="10.4382488"><ele>191.0</ele><time>2026-03-29T08:03:20.633Z</time></trkpt><trkpt lat="45.517993" lon="10.4381578"><ele>191.0</ele><time>2026-03-29T08:03:22.62Z</time></trkpt><trkpt lat="45.5180446" lon="10.4380793"><ele>191.0</ele><time>2026-03-29T08:03:24.621Z</time></trkpt><trkpt lat="45.518119" lon="10.4380112"><ele>191.0</ele><time>2026-03-29T08:03:27.622Z</time></trkpt><trkpt lat="45.5182005" lon="10.4379824"><ele>191.0</ele><time>2026-03-29T08:03:31.612Z</time></trkpt><trkpt lat="45.5182709" lon="10.4379446"><ele>191.0</ele><time>2026-03-29T08:03:34.613Z</time></trkpt><trkpt lat="45.5183391" lon="10.4378775"><ele>191.0</ele><time>2026-03-29T08:03:37.617Z</time></trkpt><trkpt lat="45.5184044" lon="10.4378275"><ele>191.0</ele><time>2026-03-29T08:03:40.623Z</time></trkpt><trkpt lat="45.518448" lon="10.437751"><ele>191.0</ele><time>2026-03-29T08:03:43.631Z</time></trkpt><trkpt lat="45.5185006" lon="10.4376531"><ele>191.0</ele><time>2026-03-29T08:03:48.647Z</time></trkpt><trkpt lat="45.5185724" lon="10.4376078"><ele>191.0</ele><time>2026-03-29T08:03:52.654Z</time></trkpt><trkpt lat="45.5186602" lon="10.4375361"><ele>191.0</ele><time>2026-03-29T08:03:55.638Z</time></trkpt><trkpt lat="45.5187475" lon="10.4374728"><ele>191.0</ele><time>2026-03-29T08:03:56.636Z</time></trkpt><trkpt lat="45.5188305" lon="10.4374051"><ele>191.0</ele><time>2026-03-29T08:03:57.65Z</time></trkpt><trkpt lat="45.5188909" lon="10.4373613"><ele>191.0</ele><time>2026-03-29T08:03:58.637Z</time></trkpt><trkpt lat="45.5189773" lon="10.4372888"><ele>190.60000000000002</ele><time>2026-03-29T08:04:00.633Z</time></trkpt><trkpt lat="45.5190572" lon="10.4372141"><ele>190.2</ele><time>2026-03-29T08:04:02.645Z</time></trkpt><trkpt lat="45.5191553" lon="10.4371297"><ele>189.8</ele><time>2026-03-29T08:04:04.645Z</time></trkpt><trkpt lat="45.5192655" lon="10.4370459"><ele>189.39999999999998</ele><time>2026-03-29T08:04:06.627Z</time></trkpt><trkpt lat="45.5193314" lon="10.4369865"><ele>189.0</ele><time>2026-03-29T08:04:07.655Z</time></trkpt><trkpt lat="45.5194181" lon="10.4369125"><ele>188.79999999999998</ele><time>2026-03-29T08:04:08.634Z</time></trkpt><trkpt lat="45.5195212" lon="10.4368281"><ele>188.6</ele><time>2026-03-29T08:04:09.652Z</time></trkpt><trkpt lat="45.5196263" lon="10.4367372"><ele>188.4</ele><time>2026-03-29T08:04:10.649Z</time></trkpt><trkpt lat="45.5197191" lon="10.4366615"><ele>188.2</ele><time>2026-03-29T08:04:11.641Z</time></trkpt><trkpt lat="45.5197929" lon="10.4366114"><ele>188.0</ele><time>2026-03-29T08:04:12.644Z</time></trkpt><trkpt lat="45.5198646" lon="10.4366054"><ele>188.33333333333331</ele><time>2026-03-29T08:04:13.634Z</time></trkpt><trkpt lat="45.5199473" lon="10.4366234"><ele>188.66666666666666</ele><time>2026-03-29T08:04:14.641Z</time></trkpt><trkpt lat="45.5200093" lon="10.4366629"><ele>189.0</ele><time>2026-03-29T08:04:15.639Z</time></trkpt><trkpt lat="45.5200945" lon="10.4366715"><ele>189.33333333333334</ele><time>2026-03-29T08:04:17.643Z</time></trkpt><trkpt lat="45.520152" lon="10.4365606"><ele>189.66666666666669</ele><time>2026-03-29T08:04:19.631Z</time></trkpt><trkpt lat="45.5201847" lon="10.4364348"><ele>190.0</ele><time>2026-03-29T08:04:20.645Z</time></trkpt><trkpt lat="45.5202143" lon="10.4362565"><ele>190.0</ele><time>2026-03-29T08:04:21.638Z</time></trkpt><trkpt lat="45.5202575" lon="10.4360712"><ele>190.0</ele><time>2026-03-29T08:04:22.645Z</time></trkpt><trkpt lat="45.5203006" lon="10.4358997"><ele>190.0</ele><time>2026-03-29T08:04:23.64Z</time></trkpt><trkpt lat="45.5203423" lon="10.4357601"><ele>190.0</ele><time>2026-03-29T08:04:24.634Z</time></trkpt><trkpt lat="45.5203833" lon="10.4356237"><ele>190.6</ele><time>2026-03-29T08:04:25.645Z</time></trkpt><trkpt lat="45.5204345" lon="10.435499"><ele>191.2</ele><time>2026-03-29T08:04:26.634Z</time></trkpt><trkpt lat="45.5204863" lon="10.4353898"><ele>191.8</ele><time>2026-03-29T08:04:27.644Z</time></trkpt><trkpt lat="45.5205568" lon="10.4353076"><ele>192.4</ele><time>2026-03-29T08:04:28.639Z</time></trkpt><trkpt lat="45.5206411" lon="10.4352341"><ele>193.0</ele><time>2026-03-29T08:04:29.644Z</time></trkpt><trkpt lat="45.520751" lon="10.4351663"><ele>193.5</ele><time>2026-03-29T08:04:30.645Z</time></trkpt><trkpt lat="45.5208716" lon="10.4350931"><ele>194.0</ele><time>2026-03-29T08:04:31.643Z</time></trkpt><trkpt lat="45.5209804" lon="10.435012"><ele>194.5</ele><time>2026-03-29T08:04:32.647Z</time></trkpt><trkpt lat="45.5210698" lon="10.4349156"><ele>195.0</ele><time>2026-03-29T08:04:33.631Z</time></trkpt><trkpt lat="45.5211484" lon="10.4348186"><ele>195.0</ele><time>2026-03-29T08:04:34.637Z</time></trkpt><trkpt lat="45.5212038" lon="10.4347362"><ele>195.0</ele><time>2026-03-29T08:04:35.636Z</time></trkpt><trkpt lat="45.5212832" lon="10.4346037"><ele>195.0</ele><time>2026-03-29T08:04:37.639Z</time></trkpt><trkpt lat="45.5213447" lon="10.4345284"><ele>195.0</ele><time>2026-03-29T08:04:39.634Z</time></trkpt><trkpt lat="45.5214198" lon="10.434454"><ele>195.0</ele><time>2026-03-29T08:04:41.633Z</time></trkpt><trkpt lat="45.5214739" lon="10.4343912"><ele>195.0</ele><time>2026-03-29T08:04:43.643Z</time></trkpt><trkpt lat="45.5215336" lon="10.4343067"><ele>195.2</ele><time>2026-03-29T08:04:45.648Z</time></trkpt><trkpt lat="45.521583" lon="10.4342441"><ele>195.4</ele><time>2026-03-29T08:04:46.634Z</time></trkpt><trkpt lat="45.5216287" lon="10.4341711"><ele>195.60000000000002</ele><time>2026-03-29T08:04:47.642Z</time></trkpt><trkpt lat="45.5217096" lon="10.4340977"><ele>195.8</ele><time>2026-03-29T08:04:48.641Z</time></trkpt><trkpt lat="45.5218017" lon="10.4340176"><ele>196.0</ele><time>2026-03-29T08:04:49.634Z</time></trkpt><trkpt lat="45.5219055" lon="10.4339378"><ele>195.99999999999997</ele><time>2026-03-29T08:04:51.727Z</time></trkpt><trkpt lat="45.5219938" lon="10.433873"><ele>196.0</ele><time>2026-03-29T08:04:52.718Z</time></trkpt><trkpt lat="45.5220881" lon="10.4338206"><ele>196.0</ele><time>2026-03-29T08:04:53.717Z</time></trkpt><trkpt lat="45.5221581" lon="10.4337697"><ele>196.0</ele><time>2026-03-29T08:04:54.706Z</time></trkpt><trkpt lat="45.5221949" lon="10.4336962"><ele>195.99999999999997</ele><time>2026-03-29T08:04:55.698Z</time></trkpt><trkpt lat="45.5222114" lon="10.433599"><ele>196.0</ele><time>2026-03-29T08:04:56.696Z</time></trkpt><trkpt lat="45.5221949" lon="10.4334839"><ele>196.0</ele><time>2026-03-29T08:04:57.701Z</time></trkpt><trkpt lat="45.5222017" lon="10.4332747"><ele>196.0</ele><time>2026-03-29T08:04:58.617Z</time></trkpt><trkpt lat="45.5221501" lon="10.4331081"><ele>196.0</ele><time>2026-03-29T08:04:59.641Z</time></trkpt><trkpt lat="45.5221009" lon="10.4329678"><ele>196.0</ele><time>2026-03-29T08:05:00.626Z</time></trkpt><trkpt lat="45.5220641" lon="10.4328498"><ele>195.4</ele><time>2026-03-29T08:05:01.62Z</time></trkpt><trkpt lat="45.5220363" lon="10.4327553"><ele>194.8</ele><time>2026-03-29T08:05:02.62Z</time></trkpt><trkpt lat="45.5220037" lon="10.4326242"><ele>194.20000000000002</ele><time>2026-03-29T08:05:04.627Z</time></trkpt><trkpt lat="45.5219532" lon="10.4325241"><ele>193.60000000000002</ele><time>2026-03-29T08:05:10.631Z</time></trkpt><trkpt lat="45.5218449" lon="10.4324971"><ele>193.0</ele><time>2026-03-29T08:05:12.623Z</time></trkpt><trkpt lat="45.5217282" lon="10.432522"><ele>193.0</ele><time>2026-03-29T08:05:13.625Z</time></trkpt><trkpt lat="45.521581" lon="10.4325487"><ele>193.0</ele><time>2026-03-29T08:05:14.624Z</time></trkpt><trkpt lat="45.5214299" lon="10.4325709"><ele>193.0</ele><time>2026-03-29T08:05:15.624Z</time></trkpt><trkpt lat="45.5212823" lon="10.4325884"><ele>193.0</ele><time>2026-03-29T08:05:16.627Z</time></trkpt><trkpt lat="45.521119" lon="10.4325881"><ele>192.66666666666666</ele><time>2026-03-29T08:05:17.622Z</time></trkpt><trkpt lat="45.5209487" lon="10.4325569"><ele>192.33333333333331</ele><time>2026-03-29T08:05:18.622Z</time></trkpt><trkpt lat="45.5207692" lon="10.4325025"><ele>192.0</ele><time>2026-03-29T08:05:19.616Z</time></trkpt><trkpt lat="45.5205878" lon="10.4324235"><ele>192.0</ele><time>2026-03-29T08:05:20.615Z</time></trkpt><trkpt lat="45.5204143" lon="10.432347"><ele>192.0</ele><time>2026-03-29T08:05:21.629Z</time></trkpt><trkpt lat="45.5202484" lon="10.4322571"><ele>192.0</ele><time>2026-03-29T08:05:22.637Z</time></trkpt><trkpt lat="45.5200743" lon="10.4321628"><ele>192.0</ele><time>2026-03-29T08:05:23.635Z</time></trkpt><trkpt lat="45.5199081" lon="10.4320873"><ele>192.0</ele><time>2026-03-29T08:05:24.641Z</time></trkpt><trkpt lat="45.5197275" lon="10.4320059"><ele>192.0</ele><time>2026-03-29T08:05:25.633Z</time></trkpt><trkpt lat="45.5195556" lon="10.4319611"><ele>192.0</ele><time>2026-03-29T08:05:26.631Z</time></trkpt><trkpt lat="45.5193846" lon="10.4319244"><ele>192.0</ele><time>2026-03-29T08:05:27.63Z</time></trkpt><trkpt lat="45.5191955" lon="10.4319018"><ele>192.0</ele><time>2026-03-29T08:05:28.63Z</time></trkpt><trkpt lat="45.5190297" lon="10.4318845"><ele>192.0</ele><time>2026-03-29T08:05:29.636Z</time></trkpt><trkpt lat="45.5188608" lon="10.4318827"><ele>192.0</ele><time>2026-03-29T08:05:30.632Z</time></trkpt><trkpt lat="45.5186834" lon="10.4318864"><ele>192.0</ele><time>2026-03-29T08:05:31.637Z</time></trkpt><trkpt lat="45.5185013" lon="10.4318614"><ele>192.0</ele><time>2026-03-29T08:05:32.637Z</time></trkpt><trkpt lat="45.5183257" lon="10.4318541"><ele>192.0</ele><time>2026-03-29T08:05:33.628Z</time></trkpt><trkpt lat="45.5181608" lon="10.4318447"><ele>192.0</ele><time>2026-03-29T08:05:34.631Z</time></trkpt><trkpt lat="45.5179841" lon="10.4318247"><ele>192.33333333333331</ele><time>2026-03-29T08:05:35.633Z</time></trkpt><trkpt lat="45.5178054" lon="10.4318227"><ele>192.66666666666666</ele><time>2026-03-29T08:05:36.632Z</time></trkpt><trkpt lat="45.5176279" lon="10.4318148"><ele>193.0</ele><time>2026-03-29T08:05:37.635Z</time></trkpt><trkpt lat="45.517465" lon="10.4317974"><ele>193.0</ele><time>2026-03-29T08:05:38.631Z</time></trkpt><trkpt lat="45.5173124" lon="10.4317907"><ele>193.0</ele><time>2026-03-29T08:05:39.634Z</time></trkpt><trkpt lat="45.5171528" lon="10.4317841"><ele>193.0</ele><time>2026-03-29T08:05:40.632Z</time></trkpt><trkpt lat="45.5170079" lon="10.431781"><ele>192.0</ele><time>2026-03-29T08:05:41.63Z</time></trkpt><trkpt lat="45.5168418" lon="10.4317332"><ele>191.0</ele><time>2026-03-29T08:05:42.627Z</time></trkpt><trkpt lat="45.5166669" lon="10.4316633"><ele>190.0</ele><time>2026-03-29T08:05:43.626Z</time></trkpt><trkpt lat="45.5164986" lon="10.4315668"><ele>190.0</ele><time>2026-03-29T08:05:44.63Z</time></trkpt><trkpt lat="45.5163213" lon="10.4314452"><ele>190.0</ele><time>2026-03-29T08:05:45.634Z</time></trkpt><trkpt lat="45.5161286" lon="10.4313075"><ele>190.0</ele><time>2026-03-29T08:05:46.633Z</time></trkpt><trkpt lat="45.5159654" lon="10.4312051"><ele>188.33333333333334</ele><time>2026-03-29T08:05:47.636Z</time></trkpt><trkpt lat="45.5158358" lon="10.4311283"><ele>186.66666666666666</ele><time>2026-03-29T08:05:48.642Z</time></trkpt><trkpt lat="45.5156844" lon="10.4310321"><ele>185.0</ele><time>2026-03-29T08:05:49.635Z</time></trkpt><trkpt lat="45.5155338" lon="10.4309154"><ele>184.66666666666666</ele><time>2026-03-29T08:05:50.631Z</time></trkpt><trkpt lat="45.515402" lon="10.4307739"><ele>184.33333333333334</ele><time>2026-03-29T08:05:51.639Z</time></trkpt><trkpt lat="45.5152644" lon="10.4306228"><ele>184.0</ele><time>2026-03-29T08:05:52.638Z</time></trkpt><trkpt lat="45.5151475" lon="10.4304686"><ele>184.0</ele><time>2026-03-29T08:05:53.645Z</time></trkpt><trkpt lat="45.5150142" lon="10.4303145"><ele>184.0</ele><time>2026-03-29T08:05:54.643Z</time></trkpt><trkpt lat="45.5148676" lon="10.4301769"><ele>184.0</ele><time>2026-03-29T08:05:55.636Z</time></trkpt><trkpt lat="45.5146955" lon="10.4300397"><ele>183.33333333333334</ele><time>2026-03-29T08:05:56.632Z</time></trkpt><trkpt lat="45.5145383" lon="10.4299086"><ele>182.66666666666666</ele><time>2026-03-29T08:05:57.633Z</time></trkpt><trkpt lat="45.5143504" lon="10.4297996"><ele>182.0</ele><time>2026-03-29T08:05:58.632Z</time></trkpt><trkpt lat="45.514172" lon="10.4297103"><ele>181.66666666666666</ele><time>2026-03-29T08:05:59.633Z</time></trkpt><trkpt lat="45.51398" lon="10.4296212"><ele>181.33333333333334</ele><time>2026-03-29T08:06:00.63Z</time></trkpt><trkpt lat="45.5137932" lon="10.4295253"><ele>181.0</ele><time>2026-03-29T08:06:01.635Z</time></trkpt><trkpt lat="45.5136181" lon="10.4294191"><ele>182.0</ele><time>2026-03-29T08:06:02.628Z</time></trkpt><trkpt lat="45.5134328" lon="10.4293281"><ele>183.0</ele><time>2026-03-29T08:06:03.621Z</time></trkpt><trkpt lat="45.5132557" lon="10.4292419"><ele>184.0</ele><time>2026-03-29T08:06:04.629Z</time></trkpt><trkpt lat="45.513084" lon="10.4291559"><ele>184.0</ele><time>2026-03-29T08:06:05.629Z</time></trkpt><trkpt lat="45.5129317" lon="10.4290807"><ele>184.0</ele><time>2026-03-29T08:06:06.629Z</time></trkpt><trkpt lat="45.5127749" lon="10.429015"><ele>184.0</ele><time>2026-03-29T08:06:07.621Z</time></trkpt><trkpt lat="45.5126125" lon="10.428918"><ele>184.0</ele><time>2026-03-29T08:06:08.628Z</time></trkpt><trkpt lat="45.5124732" lon="10.4288432"><ele>184.0</ele><time>2026-03-29T08:06:09.627Z</time></trkpt><trkpt lat="45.5123342" lon="10.4287489"><ele>184.0</ele><time>2026-03-29T08:06:10.63Z</time></trkpt><trkpt lat="45.5122006" lon="10.428669"><ele>184.0</ele><time>2026-03-29T08:06:11.637Z</time></trkpt><trkpt lat="45.5120633" lon="10.428604"><ele>183.39999999999998</ele><time>2026-03-29T08:06:12.631Z</time></trkpt><trkpt lat="45.5119493" lon="10.4285543"><ele>182.8</ele><time>2026-03-29T08:06:13.633Z</time></trkpt><trkpt lat="45.5118395" lon="10.4284945"><ele>182.2</ele><time>2026-03-29T08:06:14.638Z</time></trkpt><trkpt lat="45.511758" lon="10.4284404"><ele>181.60000000000002</ele><time>2026-03-29T08:06:15.624Z</time></trkpt><trkpt lat="45.5116595" lon="10.4283492"><ele>181.0</ele><time>2026-03-29T08:06:17.631Z</time></trkpt><trkpt lat="45.5115901" lon="10.4282204"><ele>181.0</ele><time>2026-03-29T08:06:19.631Z</time></trkpt><trkpt lat="45.5116316" lon="10.4280976"><ele>181.0</ele><time>2026-03-29T08:06:25.64Z</time></trkpt><trkpt lat="45.5116595" lon="10.4279997"><ele>181.0</ele><time>2026-03-29T08:06:26.626Z</time></trkpt><trkpt lat="45.5117025" lon="10.4278813"><ele>181.0</ele><time>2026-03-29T08:06:27.624Z</time></trkpt><trkpt lat="45.5117603" lon="10.427756"><ele>181.0</ele><time>2026-03-29T08:06:28.617Z</time></trkpt><trkpt lat="45.51182" lon="10.427602"><ele>180.5</ele><time>2026-03-29T08:06:29.626Z</time></trkpt><trkpt lat="45.5118993" lon="10.4274254"><ele>180.0</ele><time>2026-03-29T08:06:30.608Z</time></trkpt><trkpt lat="45.5119728" lon="10.4272694"><ele>179.5</ele><time>2026-03-29T08:06:31.61Z</time></trkpt><trkpt lat="45.512045" lon="10.4271216"><ele>179.0</ele><time>2026-03-29T08:06:32.612Z</time></trkpt><trkpt lat="45.5121007" lon="10.4269748"><ele>180.5</ele><time>2026-03-29T08:06:33.613Z</time></trkpt><trkpt lat="45.5121441" lon="10.4268458"><ele>182.0</ele><time>2026-03-29T08:06:34.61Z</time></trkpt><trkpt lat="45.5121485" lon="10.4266841"><ele>183.5</ele><time>2026-03-29T08:06:35.609Z</time></trkpt><trkpt lat="45.5121392" lon="10.4265232"><ele>185.0</ele><time>2026-03-29T08:06:36.62Z</time></trkpt><trkpt lat="45.512113" lon="10.4263481"><ele>185.2</ele><time>2026-03-29T08:06:37.624Z</time></trkpt><trkpt lat="45.5120833" lon="10.426198"><ele>185.4</ele><time>2026-03-29T08:06:38.618Z</time></trkpt><trkpt lat="45.5120597" lon="10.4260728"><ele>185.60000000000002</ele><time>2026-03-29T08:06:39.637Z</time></trkpt><trkpt lat="45.5120323" lon="10.4259503"><ele>185.8</ele><time>2026-03-29T08:06:40.62Z</time></trkpt><trkpt lat="45.5120059" lon="10.4258385"><ele>186.0</ele><time>2026-03-29T08:06:41.623Z</time></trkpt><trkpt lat="45.5119925" lon="10.4257222"><ele>185.20000000000002</ele><time>2026-03-29T08:06:42.629Z</time></trkpt><trkpt lat="45.5119818" lon="10.4255997"><ele>184.4</ele><time>2026-03-29T08:06:43.645Z</time></trkpt><trkpt lat="45.5119707" lon="10.4254736"><ele>183.6</ele><time>2026-03-29T08:06:44.652Z</time></trkpt><trkpt lat="45.5119555" lon="10.4253425"><ele>182.8</ele><time>2026-03-29T08:06:45.628Z</time></trkpt><trkpt lat="45.5119328" lon="10.4251992"><ele>182.0</ele><time>2026-03-29T08:06:46.628Z</time></trkpt><trkpt lat="45.5119079" lon="10.4250659"><ele>182.0</ele><time>2026-03-29T08:06:47.633Z</time></trkpt><trkpt lat="45.5118903" lon="10.4249534"><ele>182.0</ele><time>2026-03-29T08:06:48.625Z</time></trkpt><trkpt lat="45.5118765" lon="10.424858"><ele>182.0</ele><time>2026-03-29T08:06:49.628Z</time></trkpt><trkpt lat="45.5118426" lon="10.4247134"><ele>182.0</ele><time>2026-03-29T08:06:51.636Z</time></trkpt><trkpt lat="45.5117576" lon="10.4247094"><ele>182.0</ele><time>2026-03-29T08:06:53.647Z</time></trkpt><trkpt lat="45.511711" lon="10.4247758"><ele>182.0</ele><time>2026-03-29T08:06:54.638Z</time></trkpt><trkpt lat="45.5116678" lon="10.4248648"><ele>182.0</ele><time>2026-03-29T08:06:55.634Z</time></trkpt><trkpt lat="45.5116194" lon="10.424975"><ele>182.0</ele><time>2026-03-29T08:06:56.631Z</time></trkpt><trkpt lat="45.5115574" lon="10.4250964"><ele>182.0</ele><time>2026-03-29T08:06:57.623Z</time></trkpt><trkpt lat="45.5114861" lon="10.4252218"><ele>182.0</ele><time>2026-03-29T08:06:58.632Z</time></trkpt><trkpt lat="45.5114194" lon="10.4253413"><ele>182.0</ele><time>2026-03-29T08:06:59.636Z</time></trkpt><trkpt lat="45.5113553" lon="10.4254439"><ele>181.66666666666666</ele><time>2026-03-29T08:07:00.629Z</time></trkpt><trkpt lat="45.5112959" lon="10.4255414"><ele>181.33333333333331</ele><time>2026-03-29T08:07:01.642Z</time></trkpt><trkpt lat="45.5112319" lon="10.4256258"><ele>181.0</ele><time>2026-03-29T08:07:02.638Z</time></trkpt><trkpt lat="45.511163" lon="10.4256938"><ele>180.66666666666666</ele><time>2026-03-29T08:07:03.634Z</time></trkpt><trkpt lat="45.5110947" lon="10.4257595"><ele>180.33333333333334</ele><time>2026-03-29T08:07:04.627Z</time></trkpt><trkpt lat="45.5110312" lon="10.4258375"><ele>180.0</ele><time>2026-03-29T08:07:05.628Z</time></trkpt><trkpt lat="45.5109766" lon="10.4259041"><ele>179.16666666666666</ele><time>2026-03-29T08:07:06.629Z</time></trkpt><trkpt lat="45.5109156" lon="10.4259769"><ele>178.33333333333334</ele><time>2026-03-29T08:07:07.632Z</time></trkpt><trkpt lat="45.510849" lon="10.4260598"><ele>177.5</ele><time>2026-03-29T08:07:08.633Z</time></trkpt><trkpt lat="45.5107733" lon="10.4261526"><ele>176.66666666666669</ele><time>2026-03-29T08:07:09.632Z</time></trkpt><trkpt lat="45.510702" lon="10.4262449"><ele>175.83333333333334</ele><time>2026-03-29T08:07:10.643Z</time></trkpt><trkpt lat="45.5106307" lon="10.4263066"><ele>175.0</ele><time>2026-03-29T08:07:11.643Z</time></trkpt><trkpt lat="45.5105598" lon="10.4263358"><ele>175.0</ele><time>2026-03-29T08:07:12.632Z</time></trkpt><trkpt lat="45.5104773" lon="10.4263353"><ele>175.0</ele><time>2026-03-29T08:07:13.643Z</time></trkpt><trkpt lat="45.5103982" lon="10.4262978"><ele>175.0</ele><time>2026-03-29T08:07:14.627Z</time></trkpt><trkpt lat="45.5103119" lon="10.4262324"><ele>175.0</ele><time>2026-03-29T08:07:15.63Z</time></trkpt><trkpt lat="45.5102114" lon="10.4261632"><ele>175.0</ele><time>2026-03-29T08:07:16.63Z</time></trkpt><trkpt lat="45.5100954" lon="10.4261014"><ele>174.25</ele><time>2026-03-29T08:07:17.625Z</time></trkpt><trkpt lat="45.5099806" lon="10.4260378"><ele>173.5</ele><time>2026-03-29T08:07:18.633Z</time></trkpt><trkpt lat="45.5098603" lon="10.4259754"><ele>172.75</ele><time>2026-03-29T08:07:19.629Z</time></trkpt><trkpt lat="45.5097396" lon="10.4259204"><ele>172.0</ele><time>2026-03-29T08:07:20.64Z</time></trkpt><trkpt lat="45.5096179" lon="10.4258651"><ele>172.0</ele><time>2026-03-29T08:07:21.637Z</time></trkpt><trkpt lat="45.5095096" lon="10.4258078"><ele>172.0</ele><time>2026-03-29T08:07:22.64Z</time></trkpt><trkpt lat="45.5093993" lon="10.4257569"><ele>172.0</ele><time>2026-03-29T08:07:23.64Z</time></trkpt><trkpt lat="45.50929" lon="10.4257057"><ele>172.0</ele><time>2026-03-29T08:07:25.726Z</time></trkpt><trkpt lat="45.5091905" lon="10.4256585"><ele>172.0</ele><time>2026-03-29T08:07:26.737Z</time></trkpt><trkpt lat="45.5090927" lon="10.4256127"><ele>172.0</ele><time>2026-03-29T08:07:27.717Z</time></trkpt><trkpt lat="45.5090046" lon="10.4255702"><ele>172.0</ele><time>2026-03-29T08:07:28.726Z</time></trkpt><trkpt lat="45.5089303" lon="10.4255332"><ele>172.0</ele><time>2026-03-29T08:07:29.72Z</time></trkpt><trkpt lat="45.5088643" lon="10.4255008"><ele>172.0</ele><time>2026-03-29T08:07:30.713Z</time></trkpt><trkpt lat="45.508774" lon="10.4254287"><ele>172.0</ele><time>2026-03-29T08:07:32.713Z</time></trkpt><trkpt lat="45.5087382" lon="10.4253293"><ele>171.2</ele><time>2026-03-29T08:07:34.72Z</time></trkpt><trkpt lat="45.5086148" lon="10.4252648"><ele>170.39999999999998</ele><time>2026-03-29T08:07:36.627Z</time></trkpt><trkpt lat="45.5085352" lon="10.4252594"><ele>169.60000000000002</ele><time>2026-03-29T08:07:37.623Z</time></trkpt><trkpt lat="45.5084469" lon="10.4251815"><ele>168.8</ele><time>2026-03-29T08:07:38.623Z</time></trkpt><trkpt lat="45.5083867" lon="10.4250774"><ele>168.0</ele><time>2026-03-29T08:07:39.633Z</time></trkpt><trkpt lat="45.5083118" lon="10.4249803"><ele>168.0</ele><time>2026-03-29T08:07:40.638Z</time></trkpt><trkpt lat="45.508225" lon="10.4248698"><ele>168.0</ele><time>2026-03-29T08:07:41.635Z</time></trkpt><trkpt lat="45.5081254" lon="10.4247397"><ele>168.0</ele><time>2026-03-29T08:07:42.631Z</time></trkpt><trkpt lat="45.5080086" lon="10.424612"><ele>168.0</ele><time>2026-03-29T08:07:43.63Z</time></trkpt><trkpt lat="45.5078896" lon="10.4244864"><ele>168.2</ele><time>2026-03-29T08:07:44.632Z</time></trkpt><trkpt lat="45.5077725" lon="10.4243816"><ele>168.4</ele><time>2026-03-29T08:07:45.629Z</time></trkpt><trkpt lat="45.5076994" lon="10.4243069"><ele>168.6</ele><time>2026-03-29T08:07:46.63Z</time></trkpt><trkpt lat="45.5076221" lon="10.4242248"><ele>168.79999999999998</ele><time>2026-03-29T08:07:47.634Z</time></trkpt><trkpt lat="45.507556" lon="10.424159"><ele>169.0</ele><time>2026-03-29T08:07:48.624Z</time></trkpt><trkpt lat="45.5075383" lon="10.4240648"><ele>169.0</ele><time>2026-03-29T08:07:53.628Z</time></trkpt><trkpt lat="45.5074982" lon="10.4239118"><ele>169.0</ele><time>2026-03-29T08:07:55.629Z</time></trkpt><trkpt lat="45.5074349" lon="10.4238153"><ele>169.0</ele><time>2026-03-29T08:07:56.646Z</time></trkpt><trkpt lat="45.5073664" lon="10.4237364"><ele>169.0</ele><time>2026-03-29T08:07:57.623Z</time></trkpt><trkpt lat="45.5072712" lon="10.4236563"><ele>169.0</ele><time>2026-03-29T08:07:58.609Z</time></trkpt><trkpt lat="45.5071223" lon="10.4235945"><ele>168.33333333333334</ele><time>2026-03-29T08:07:59.613Z</time></trkpt><trkpt lat="45.5069787" lon="10.4235587"><ele>167.66666666666666</ele><time>2026-03-29T08:08:00.625Z</time></trkpt><trkpt lat="45.5068159" lon="10.4235397"><ele>167.0</ele><time>2026-03-29T08:08:01.629Z</time></trkpt><trkpt lat="45.5066439" lon="10.4235107"><ele>167.0</ele><time>2026-03-29T08:08:02.628Z</time></trkpt><trkpt lat="45.5064923" lon="10.4235013"><ele>167.0</ele><time>2026-03-29T08:08:03.63Z</time></trkpt><trkpt lat="45.5063728" lon="10.4234784"><ele>167.0</ele><time>2026-03-29T08:08:04.625Z</time></trkpt><trkpt lat="45.5062469" lon="10.4234744"><ele>167.0</ele><time>2026-03-29T08:08:05.618Z</time></trkpt><trkpt lat="45.5061298" lon="10.4234727"><ele>167.0</ele><time>2026-03-29T08:08:06.628Z</time></trkpt><trkpt lat="45.5060184" lon="10.4234701"><ele>167.0</ele><time>2026-03-29T08:08:07.62Z</time></trkpt><trkpt lat="45.5059286" lon="10.4234577"><ele>167.0</ele><time>2026-03-29T08:08:08.629Z</time></trkpt><trkpt lat="45.5058016" lon="10.4234399"><ele>167.0</ele><time>2026-03-29T08:08:09.622Z</time></trkpt><trkpt lat="45.5057052" lon="10.4234057"><ele>167.0</ele><time>2026-03-29T08:08:10.624Z</time></trkpt><trkpt lat="45.5056124" lon="10.4233419"><ele>167.0</ele><time>2026-03-29T08:08:11.617Z</time></trkpt><trkpt lat="45.5055229" lon="10.4232597"><ele>167.0</ele><time>2026-03-29T08:08:12.618Z</time></trkpt><trkpt lat="45.5054304" lon="10.4231721"><ele>167.0</ele><time>2026-03-29T08:08:13.608Z</time></trkpt><trkpt lat="45.505334" lon="10.4230737"><ele>167.0</ele><time>2026-03-29T08:08:14.627Z</time></trkpt><trkpt lat="45.5052536" lon="10.4229884"><ele>167.0</ele><time>2026-03-29T08:08:15.628Z</time></trkpt><trkpt lat="45.5051698" lon="10.4229126"><ele>167.2</ele><time>2026-03-29T08:08:16.622Z</time></trkpt><trkpt lat="45.5050797" lon="10.4228457"><ele>167.39999999999998</ele><time>2026-03-29T08:08:17.618Z</time></trkpt><trkpt lat="45.50499" lon="10.4228009"><ele>167.60000000000002</ele><time>2026-03-29T08:08:18.629Z</time></trkpt><trkpt lat="45.5048724" lon="10.4227926"><ele>167.8</ele><time>2026-03-29T08:08:19.623Z</time></trkpt><trkpt lat="45.5047389" lon="10.4227928"><ele>168.0</ele><time>2026-03-29T08:08:20.637Z</time></trkpt><trkpt lat="45.5046018" lon="10.422798"><ele>168.0</ele><time>2026-03-29T08:08:21.628Z</time></trkpt><trkpt lat="45.5044781" lon="10.4227992"><ele>168.0</ele><time>2026-03-29T08:08:22.64Z</time></trkpt><trkpt lat="45.5043612" lon="10.4228079"><ele>168.0</ele><time>2026-03-29T08:08:23.628Z</time></trkpt><trkpt lat="45.5042541" lon="10.4228183"><ele>168.0</ele><time>2026-03-29T08:08:24.626Z</time></trkpt><trkpt lat="45.5041538" lon="10.4228186"><ele>168.0</ele><time>2026-03-29T08:08:25.62Z</time></trkpt><trkpt lat="45.5040466" lon="10.4228109"><ele>168.0</ele><time>2026-03-29T08:08:26.618Z</time></trkpt><trkpt lat="45.5039443" lon="10.4227841"><ele>168.0</ele><time>2026-03-29T08:08:27.628Z</time></trkpt><trkpt lat="45.5038541" lon="10.4227635"><ele>168.0</ele><time>2026-03-29T08:08:28.617Z</time></trkpt><trkpt lat="45.5037704" lon="10.4227532"><ele>168.0</ele><time>2026-03-29T08:08:29.618Z</time></trkpt><trkpt lat="45.503698" lon="10.4227506"><ele>168.0</ele><time>2026-03-29T08:08:30.614Z</time></trkpt><trkpt lat="45.5035982" lon="10.4227395"><ele>167.75</ele><time>2026-03-29T08:08:31.611Z</time></trkpt><trkpt lat="45.5035129" lon="10.4227547"><ele>167.5</ele><time>2026-03-29T08:08:32.604Z</time></trkpt><trkpt lat="45.5033965" lon="10.422797"><ele>167.25</ele><time>2026-03-29T08:08:33.601Z</time></trkpt><trkpt lat="45.503282" lon="10.422857"><ele>167.0</ele><time>2026-03-29T08:08:34.597Z</time></trkpt><trkpt lat="45.5031651" lon="10.4229494"><ele>166.75</ele><time>2026-03-29T08:08:35.598Z</time></trkpt><trkpt lat="45.5030422" lon="10.4230349"><ele>166.5</ele><time>2026-03-29T08:08:36.606Z</time></trkpt><trkpt lat="45.5029159" lon="10.4231453"><ele>166.25</ele><time>2026-03-29T08:08:37.609Z</time></trkpt><trkpt lat="45.502773" lon="10.4232496"><ele>166.0</ele><time>2026-03-29T08:08:38.612Z</time></trkpt><trkpt lat="45.5026245" lon="10.4233426"><ele>165.5</ele><time>2026-03-29T08:08:39.622Z</time></trkpt><trkpt lat="45.5025255" lon="10.4234463"><ele>165.0</ele><time>2026-03-29T08:08:40.623Z</time></trkpt><trkpt lat="45.5024144" lon="10.4235379"><ele>164.5</ele><time>2026-03-29T08:08:41.625Z</time></trkpt><trkpt lat="45.5023128" lon="10.423608"><ele>164.0</ele><time>2026-03-29T08:08:42.632Z</time></trkpt><trkpt lat="45.5021954" lon="10.4236278"><ele>164.0</ele><time>2026-03-29T08:08:43.626Z</time></trkpt><trkpt lat="45.5020882" lon="10.4236358"><ele>164.0</ele><time>2026-03-29T08:08:44.625Z</time></trkpt><trkpt lat="45.5019975" lon="10.423629"><ele>164.0</ele><time>2026-03-29T08:08:45.63Z</time></trkpt><trkpt lat="45.5019203" lon="10.4236012"><ele>164.0</ele><time>2026-03-29T08:08:46.628Z</time></trkpt><trkpt lat="45.5017855" lon="10.4235701"><ele>164.0</ele><time>2026-03-29T08:08:48.623Z</time></trkpt><trkpt lat="45.5016946" lon="10.4235751"><ele>163.5</ele><time>2026-03-29T08:08:49.626Z</time></trkpt><trkpt lat="45.5015865" lon="10.4235992"><ele>163.0</ele><time>2026-03-29T08:08:50.631Z</time></trkpt><trkpt lat="45.5014784" lon="10.4236173"><ele>162.5</ele><time>2026-03-29T08:08:51.632Z</time></trkpt><trkpt lat="45.5013506" lon="10.4236376"><ele>162.0</ele><time>2026-03-29T08:08:52.636Z</time></trkpt><trkpt lat="45.5012087" lon="10.4236598"><ele>161.66666666666666</ele><time>2026-03-29T08:08:53.627Z</time></trkpt><trkpt lat="45.501062" lon="10.4236796"><ele>161.33333333333331</ele><time>2026-03-29T08:08:54.627Z</time></trkpt><trkpt lat="45.5008688" lon="10.4237022"><ele>161.0</ele><time>2026-03-29T08:08:55.623Z</time></trkpt><trkpt lat="45.5007099" lon="10.4237031"><ele>161.0</ele><time>2026-03-29T08:08:56.621Z</time></trkpt><trkpt lat="45.5005766" lon="10.4236957"><ele>161.0</ele><time>2026-03-29T08:08:57.623Z</time></trkpt><trkpt lat="45.5004309" lon="10.4237069"><ele>161.0</ele><time>2026-03-29T08:08:58.632Z</time></trkpt><trkpt lat="45.5002975" lon="10.4237217"><ele>161.0</ele><time>2026-03-29T08:08:59.63Z</time></trkpt><trkpt lat="45.5001823" lon="10.4237482"><ele>160.75</ele><time>2026-03-29T08:09:00.633Z</time></trkpt><trkpt lat="45.5000491" lon="10.4237598"><ele>160.5</ele><time>2026-03-29T08:09:01.627Z</time></trkpt><trkpt lat="45.4999094" lon="10.4238075"><ele>160.25</ele><time>2026-03-29T08:09:02.63Z</time></trkpt><trkpt lat="45.4997975" lon="10.4238705"><ele>160.0</ele><time>2026-03-29T08:09:03.627Z</time></trkpt><trkpt lat="45.4996449" lon="10.4239832"><ele>159.66666666666669</ele><time>2026-03-29T08:09:04.631Z</time></trkpt><trkpt lat="45.4995057" lon="10.4241079"><ele>159.33333333333334</ele><time>2026-03-29T08:09:05.63Z</time></trkpt><trkpt lat="45.4993618" lon="10.4242102"><ele>159.0</ele><time>2026-03-29T08:09:06.633Z</time></trkpt><trkpt lat="45.4992244" lon="10.4243116"><ele>159.0</ele><time>2026-03-29T08:09:07.627Z</time></trkpt><trkpt lat="45.4990722" lon="10.4244057"><ele>159.0</ele><time>2026-03-29T08:09:08.639Z</time></trkpt><trkpt lat="45.4989249" lon="10.4245016"><ele>159.0</ele><time>2026-03-29T08:09:09.63Z</time></trkpt><trkpt lat="45.4987782" lon="10.4245854"><ele>159.0</ele><time>2026-03-29T08:09:10.63Z</time></trkpt><trkpt lat="45.4986339" lon="10.4246596"><ele>159.0</ele><time>2026-03-29T08:09:11.627Z</time></trkpt><trkpt lat="45.4984751" lon="10.4247426"><ele>159.0</ele><time>2026-03-29T08:09:12.626Z</time></trkpt><trkpt lat="45.4983308" lon="10.424833"><ele>159.0</ele><time>2026-03-29T08:09:13.633Z</time></trkpt><trkpt lat="45.498186" lon="10.4249391"><ele>159.0</ele><time>2026-03-29T08:09:14.624Z</time></trkpt><trkpt lat="45.4980343" lon="10.4250589"><ele>159.0</ele><time>2026-03-29T08:09:15.624Z</time></trkpt><trkpt lat="45.4978899" lon="10.4251675"><ele>158.33333333333334</ele><time>2026-03-29T08:09:16.619Z</time></trkpt><trkpt lat="45.4977464" lon="10.4252769"><ele>157.66666666666669</ele><time>2026-03-29T08:09:17.624Z</time></trkpt><trkpt lat="45.4975946" lon="10.4254031"><ele>157.0</ele><time>2026-03-29T08:09:18.63Z</time></trkpt><trkpt lat="45.497454" lon="10.425507"><ele>157.0</ele><time>2026-03-29T08:09:19.628Z</time></trkpt><trkpt lat="45.4973168" lon="10.4256227"><ele>157.0</ele><time>2026-03-29T08:09:20.637Z</time></trkpt><trkpt lat="45.4971847" lon="10.4257272"><ele>157.0</ele><time>2026-03-29T08:09:21.633Z</time></trkpt><trkpt lat="45.4970532" lon="10.4258637"><ele>157.33333333333334</ele><time>2026-03-29T08:09:22.638Z</time></trkpt><trkpt lat="45.4969189" lon="10.4259972"><ele>157.66666666666666</ele><time>2026-03-29T08:09:23.634Z</time></trkpt><trkpt lat="45.4967856" lon="10.4261596"><ele>158.0</ele><time>2026-03-29T08:09:24.633Z</time></trkpt><trkpt lat="45.4966534" lon="10.426311"><ele>157.66666666666666</ele><time>2026-03-29T08:09:25.633Z</time></trkpt><trkpt lat="45.4965062" lon="10.426482"><ele>157.33333333333334</ele><time>2026-03-29T08:09:26.643Z</time></trkpt><trkpt lat="45.4963649" lon="10.426644"><ele>157.0</ele><time>2026-03-29T08:09:27.638Z</time></trkpt><trkpt lat="45.4962347" lon="10.4267953"><ele>157.0</ele><time>2026-03-29T08:09:28.64Z</time></trkpt><trkpt lat="45.496107" lon="10.4269358"><ele>157.0</ele><time>2026-03-29T08:09:29.649Z</time></trkpt><trkpt lat="45.4959936" lon="10.4270765"><ele>157.0</ele><time>2026-03-29T08:09:30.634Z</time></trkpt><trkpt lat="45.4958617" lon="10.4272264"><ele>157.0</ele><time>2026-03-29T08:09:31.647Z</time></trkpt><trkpt lat="45.4957234" lon="10.427393"><ele>157.0</ele><time>2026-03-29T08:09:32.635Z</time></trkpt><trkpt lat="45.495589" lon="10.4275428"><ele>157.0</ele><time>2026-03-29T08:09:33.631Z</time></trkpt><trkpt lat="45.4954267" lon="10.4276774"><ele>156.66666666666669</ele><time>2026-03-29T08:09:34.637Z</time></trkpt><trkpt lat="45.4952683" lon="10.4278151"><ele>156.33333333333334</ele><time>2026-03-29T08:09:35.638Z</time></trkpt><trkpt lat="45.4951083" lon="10.4279593"><ele>156.0</ele><time>2026-03-29T08:09:36.633Z</time></trkpt><trkpt lat="45.494957" lon="10.4280815"><ele>155.66666666666666</ele><time>2026-03-29T08:09:37.634Z</time></trkpt><trkpt lat="45.4948236" lon="10.4282123"><ele>155.33333333333331</ele><time>2026-03-29T08:09:38.637Z</time></trkpt><trkpt lat="45.4946796" lon="10.4283416"><ele>155.0</ele><time>2026-03-29T08:09:39.656Z</time></trkpt><trkpt lat="45.4945282" lon="10.4284733"><ele>155.0</ele><time>2026-03-29T08:09:41.725Z</time></trkpt><trkpt lat="45.4943829" lon="10.4285995"><ele>155.0</ele><time>2026-03-29T08:09:42.725Z</time></trkpt><trkpt lat="45.4942505" lon="10.4287189"><ele>155.0</ele><time>2026-03-29T08:09:43.726Z</time></trkpt><trkpt lat="45.4941245" lon="10.4288349"><ele>155.25</ele><time>2026-03-29T08:09:44.725Z</time></trkpt><trkpt lat="45.4940072" lon="10.4289395"><ele>155.5</ele><time>2026-03-29T08:09:45.728Z</time></trkpt><trkpt lat="45.4938985" lon="10.4290383"><ele>155.75</ele><time>2026-03-29T08:09:46.721Z</time></trkpt><trkpt lat="45.493795" lon="10.4291347"><ele>156.0</ele><time>2026-03-29T08:09:47.725Z</time></trkpt><trkpt lat="45.4936961" lon="10.4292334"><ele>155.6</ele><time>2026-03-29T08:09:48.723Z</time></trkpt><trkpt lat="45.4936084" lon="10.4293203"><ele>155.2</ele><time>2026-03-29T08:09:49.721Z</time></trkpt><trkpt lat="45.4935281" lon="10.4293959"><ele>154.8</ele><time>2026-03-29T08:09:50.719Z</time></trkpt><trkpt lat="45.4934578" lon="10.4294633"><ele>154.4</ele><time>2026-03-29T08:09:51.719Z</time></trkpt><trkpt lat="45.4933656" lon="10.4295642"><ele>154.0</ele><time>2026-03-29T08:09:53.725Z</time></trkpt><trkpt lat="45.4933161" lon="10.4296301"><ele>154.0</ele><time>2026-03-29T08:09:54.728Z</time></trkpt><trkpt lat="45.4932344" lon="10.4297188"><ele>154.0</ele><time>2026-03-29T08:09:56.725Z</time></trkpt><trkpt lat="45.493085" lon="10.4297675"><ele>154.0</ele><time>2026-03-29T08:09:58.621Z</time></trkpt><trkpt lat="45.4929946" lon="10.4297005"><ele>154.0</ele><time>2026-03-29T08:09:59.618Z</time></trkpt><trkpt lat="45.4929104" lon="10.4295996"><ele>154.0</ele><time>2026-03-29T08:10:00.624Z</time></trkpt><trkpt lat="45.4928104" lon="10.4294981"><ele>154.0</ele><time>2026-03-29T08:10:01.644Z</time></trkpt><trkpt lat="45.4927049" lon="10.4294039"><ele>154.0</ele><time>2026-03-29T08:10:02.643Z</time></trkpt><trkpt lat="45.492597" lon="10.4293233"><ele>154.0</ele><time>2026-03-29T08:10:03.639Z</time></trkpt><trkpt lat="45.4924773" lon="10.4292698"><ele>154.0</ele><time>2026-03-29T08:10:04.637Z</time></trkpt><trkpt lat="45.4923493" lon="10.4292559"><ele>154.0</ele><time>2026-03-29T08:10:05.64Z</time></trkpt><trkpt lat="45.492212" lon="10.4292719"><ele>154.0</ele><time>2026-03-29T08:10:06.626Z</time></trkpt><trkpt lat="45.4920617" lon="10.4292894"><ele>154.0</ele><time>2026-03-29T08:10:07.635Z</time></trkpt><trkpt lat="45.4919187" lon="10.429285"><ele>153.75</ele><time>2026-03-29T08:10:08.634Z</time></trkpt><trkpt lat="45.4917771" lon="10.4292839"><ele>153.5</ele><time>2026-03-29T08:10:09.639Z</time></trkpt><trkpt lat="45.4916374" lon="10.4292748"><ele>153.25</ele><time>2026-03-29T08:10:10.636Z</time></trkpt><trkpt lat="45.4915253" lon="10.4292549"><ele>153.0</ele><time>2026-03-29T08:10:11.638Z</time></trkpt><trkpt lat="45.4914099" lon="10.429265"><ele>153.0</ele><time>2026-03-29T08:10:12.634Z</time></trkpt><trkpt lat="45.4913165" lon="10.4292333"><ele>153.0</ele><time>2026-03-29T08:10:13.637Z</time></trkpt><trkpt lat="45.4912326" lon="10.4292233"><ele>153.0</ele><time>2026-03-29T08:10:14.639Z</time></trkpt><trkpt lat="45.4911476" lon="10.4292112"><ele>153.0</ele><time>2026-03-29T08:10:15.633Z</time></trkpt><trkpt lat="45.4910607" lon="10.429193"><ele>153.0</ele><time>2026-03-29T08:10:16.648Z</time></trkpt><trkpt lat="45.490992" lon="10.4291906"><ele>153.0</ele><time>2026-03-29T08:10:17.629Z</time></trkpt><trkpt lat="45.4909234" lon="10.4292158"><ele>153.20000000000002</ele><time>2026-03-29T08:10:18.642Z</time></trkpt><trkpt lat="45.4908549" lon="10.4292957"><ele>153.4</ele><time>2026-03-29T08:10:19.64Z</time></trkpt><trkpt lat="45.4908125" lon="10.4294217"><ele>153.60000000000002</ele><time>2026-03-29T08:10:20.62Z</time></trkpt><trkpt lat="45.490777" lon="10.4295563"><ele>153.8</ele><time>2026-03-29T08:10:21.629Z</time></trkpt><trkpt lat="45.4907479" lon="10.4297149"><ele>154.0</ele><time>2026-03-29T08:10:22.632Z</time></trkpt><trkpt lat="45.4907261" lon="10.429892"><ele>154.0</ele><time>2026-03-29T08:10:23.625Z</time></trkpt><trkpt lat="45.490701" lon="10.4300893"><ele>154.0</ele><time>2026-03-29T08:10:24.633Z</time></trkpt><trkpt lat="45.490678" lon="10.4302943"><ele>154.0</ele><time>2026-03-29T08:10:25.631Z</time></trkpt><trkpt lat="45.4906538" lon="10.4304982"><ele>154.0</ele><time>2026-03-29T08:10:26.636Z</time></trkpt><trkpt lat="45.4906232" lon="10.4306885"><ele>153.6</ele><time>2026-03-29T08:10:27.631Z</time></trkpt><trkpt lat="45.4905884" lon="10.4308426"><ele>153.2</ele><time>2026-03-29T08:10:28.634Z</time></trkpt><trkpt lat="45.4905626" lon="10.4310072"><ele>152.79999999999998</ele><time>2026-03-29T08:10:29.633Z</time></trkpt><trkpt lat="45.4905438" lon="10.4311478"><ele>152.4</ele><time>2026-03-29T08:10:30.627Z</time></trkpt><trkpt lat="45.4905188" lon="10.4312695"><ele>152.0</ele><time>2026-03-29T08:10:31.637Z</time></trkpt><trkpt lat="45.4904804" lon="10.4313714"><ele>151.79999999999998</ele><time>2026-03-29T08:10:32.623Z</time></trkpt><trkpt lat="45.4904146" lon="10.431451"><ele>151.6</ele><time>2026-03-29T08:10:33.617Z</time></trkpt><trkpt lat="45.4903269" lon="10.4315139"><ele>151.39999999999998</ele><time>2026-03-29T08:10:34.627Z</time></trkpt><trkpt lat="45.490212" lon="10.4315446"><ele>151.2</ele><time>2026-03-29T08:10:35.627Z</time></trkpt><trkpt lat="45.4900765" lon="10.4315822"><ele>151.0</ele><time>2026-03-29T08:10:36.633Z</time></trkpt><trkpt lat="45.489932" lon="10.4316306"><ele>151.0</ele><time>2026-03-29T08:10:37.63Z</time></trkpt><trkpt lat="45.4897741" lon="10.431678"><ele>151.0</ele><time>2026-03-29T08:10:38.633Z</time></trkpt><trkpt lat="45.489609" lon="10.4317257"><ele>151.0</ele><time>2026-03-29T08:10:39.634Z</time></trkpt><trkpt lat="45.4894484" lon="10.4317565"><ele>150.66666666666669</ele><time>2026-03-29T08:10:40.632Z</time></trkpt><trkpt lat="45.4892799" lon="10.4317799"><ele>150.33333333333334</ele><time>2026-03-29T08:10:41.635Z</time></trkpt><trkpt lat="45.4891165" lon="10.4317932"><ele>150.0</ele><time>2026-03-29T08:10:42.636Z</time></trkpt><trkpt lat="45.4889577" lon="10.4318"><ele>150.0</ele><time>2026-03-29T08:10:43.637Z</time></trkpt><trkpt lat="45.488805" lon="10.4318344"><ele>150.0</ele><time>2026-03-29T08:10:44.635Z</time></trkpt><trkpt lat="45.4886552" lon="10.4318804"><ele>150.0</ele><time>2026-03-29T08:10:45.636Z</time></trkpt><trkpt lat="45.4884851" lon="10.4319317"><ele>150.0</ele><time>2026-03-29T08:10:46.637Z</time></trkpt><trkpt lat="45.4883146" lon="10.4320036"><ele>150.0</ele><time>2026-03-29T08:10:47.64Z</time></trkpt><trkpt lat="45.4881474" lon="10.4320885"><ele>150.0</ele><time>2026-03-29T08:10:48.637Z</time></trkpt><trkpt lat="45.4879749" lon="10.4321843"><ele>150.33333333333334</ele><time>2026-03-29T08:10:49.646Z</time></trkpt><trkpt lat="45.4878246" lon="10.432251"><ele>150.66666666666669</ele><time>2026-03-29T08:10:50.646Z</time></trkpt><trkpt lat="45.4876728" lon="10.4323237"><ele>151.0</ele><time>2026-03-29T08:10:51.638Z</time></trkpt><trkpt lat="45.4875291" lon="10.432385"><ele>151.0</ele><time>2026-03-29T08:10:52.645Z</time></trkpt><trkpt lat="45.4873904" lon="10.4324494"><ele>151.0</ele><time>2026-03-29T08:10:53.641Z</time></trkpt><trkpt lat="45.4872531" lon="10.4325175"><ele>151.0</ele><time>2026-03-29T08:10:54.637Z</time></trkpt><trkpt lat="45.487106" lon="10.4326002"><ele>151.0</ele><time>2026-03-29T08:10:55.633Z</time></trkpt><trkpt lat="45.4869345" lon="10.4326523"><ele>151.0</ele><time>2026-03-29T08:10:56.64Z</time></trkpt><trkpt lat="45.48678" lon="10.4327014"><ele>151.0</ele><time>2026-03-29T08:10:57.633Z</time></trkpt><trkpt lat="45.4866233" lon="10.4327558"><ele>151.0</ele><time>2026-03-29T08:10:58.63Z</time></trkpt><trkpt lat="45.486505" lon="10.4328022"><ele>151.0</ele><time>2026-03-29T08:10:59.633Z</time></trkpt><trkpt lat="45.4863603" lon="10.432849"><ele>150.5</ele><time>2026-03-29T08:11:00.632Z</time></trkpt><trkpt lat="45.4862218" lon="10.4328744"><ele>150.0</ele><time>2026-03-29T08:11:01.639Z</time></trkpt><trkpt lat="45.4860932" lon="10.4328913"><ele>149.5</ele><time>2026-03-29T08:11:02.652Z</time></trkpt><trkpt lat="45.4859564" lon="10.4328932"><ele>149.0</ele><time>2026-03-29T08:11:03.638Z</time></trkpt><trkpt lat="45.4858309" lon="10.4328474"><ele>149.0</ele><time>2026-03-29T08:11:04.645Z</time></trkpt><trkpt lat="45.4856913" lon="10.4327712"><ele>149.0</ele><time>2026-03-29T08:11:05.641Z</time></trkpt><trkpt lat="45.4855389" lon="10.4326655"><ele>149.0</ele><time>2026-03-29T08:11:06.634Z</time></trkpt><trkpt lat="45.4853995" lon="10.4325595"><ele>149.0</ele><time>2026-03-29T08:11:07.639Z</time></trkpt><trkpt lat="45.4852469" lon="10.4324601"><ele>149.0</ele><time>2026-03-29T08:11:08.642Z</time></trkpt><trkpt lat="45.4850923" lon="10.432358"><ele>149.0</ele><time>2026-03-29T08:11:09.641Z</time></trkpt><trkpt lat="45.4849438" lon="10.4322789"><ele>149.0</ele><time>2026-03-29T08:11:10.634Z</time></trkpt><trkpt lat="45.4847946" lon="10.4322241"><ele>149.0</ele><time>2026-03-29T08:11:11.639Z</time></trkpt><trkpt lat="45.4846323" lon="10.432171"><ele>149.0</ele><time>2026-03-29T08:11:12.637Z</time></trkpt><trkpt lat="45.4844632" lon="10.4321248"><ele>148.66666666666666</ele><time>2026-03-29T08:11:13.636Z</time></trkpt><trkpt lat="45.4842939" lon="10.4320645"><ele>148.33333333333334</ele><time>2026-03-29T08:11:14.634Z</time></trkpt><trkpt lat="45.4841128" lon="10.4320191"><ele>148.0</ele><time>2026-03-29T08:11:15.637Z</time></trkpt><trkpt lat="45.4839505" lon="10.4319519"><ele>148.0</ele><time>2026-03-29T08:11:16.631Z</time></trkpt><trkpt lat="45.4837944" lon="10.4318812"><ele>148.0</ele><time>2026-03-29T08:11:17.641Z</time></trkpt><trkpt lat="45.4836335" lon="10.4318156"><ele>148.0</ele><time>2026-03-29T08:11:18.636Z</time></trkpt><trkpt lat="45.4834659" lon="10.4317565"><ele>147.0</ele><time>2026-03-29T08:11:19.633Z</time></trkpt><trkpt lat="45.4832878" lon="10.4317054"><ele>146.0</ele><time>2026-03-29T08:11:20.631Z</time></trkpt><trkpt lat="45.483124" lon="10.4316502"><ele>145.0</ele><time>2026-03-29T08:11:21.633Z</time></trkpt><trkpt lat="45.4829552" lon="10.4315957"><ele>145.33333333333334</ele><time>2026-03-29T08:11:22.64Z</time></trkpt><trkpt lat="45.4827899" lon="10.4315467"><ele>145.66666666666666</ele><time>2026-03-29T08:11:23.643Z</time></trkpt><trkpt lat="45.4826254" lon="10.4314982"><ele>146.0</ele><time>2026-03-29T08:11:24.636Z</time></trkpt><trkpt lat="45.4824661" lon="10.4314568"><ele>146.0</ele><time>2026-03-29T08:11:25.637Z</time></trkpt><trkpt lat="45.4822937" lon="10.4314186"><ele>146.0</ele><time>2026-03-29T08:11:26.642Z</time></trkpt><trkpt lat="45.4821416" lon="10.4314012"><ele>146.0</ele><time>2026-03-29T08:11:27.635Z</time></trkpt><trkpt lat="45.4819769" lon="10.4313879"><ele>145.66666666666666</ele><time>2026-03-29T08:11:28.643Z</time></trkpt><trkpt lat="45.4817924" lon="10.43142"><ele>145.33333333333334</ele><time>2026-03-29T08:11:29.636Z</time></trkpt><trkpt lat="45.4816325" lon="10.4314396"><ele>145.0</ele><time>2026-03-29T08:11:30.636Z</time></trkpt><trkpt lat="45.481479" lon="10.43145"><ele>145.0</ele><time>2026-03-29T08:11:31.64Z</time></trkpt><trkpt lat="45.4813357" lon="10.4314778"><ele>145.0</ele><time>2026-03-29T08:11:32.634Z</time></trkpt><trkpt lat="45.4812084" lon="10.4315014"><ele>145.0</ele><time>2026-03-29T08:11:33.654Z</time></trkpt><trkpt lat="45.4810845" lon="10.4315078"><ele>145.0</ele><time>2026-03-29T08:11:34.628Z</time></trkpt><trkpt lat="45.4809675" lon="10.431501"><ele>145.0</ele><time>2026-03-29T08:11:35.633Z</time></trkpt><trkpt lat="45.4808354" lon="10.4314604"><ele>145.0</ele><time>2026-03-29T08:11:36.622Z</time></trkpt><trkpt lat="45.4807034" lon="10.4313869"><ele>145.0</ele><time>2026-03-29T08:11:37.626Z</time></trkpt><trkpt lat="45.4805724" lon="10.4313013"><ele>145.0</ele><time>2026-03-29T08:11:38.625Z</time></trkpt><trkpt lat="45.480451" lon="10.4312289"><ele>144.5</ele><time>2026-03-29T08:11:39.629Z</time></trkpt><trkpt lat="45.4803334" lon="10.4311516"><ele>144.0</ele><time>2026-03-29T08:11:40.629Z</time></trkpt><trkpt lat="45.4802258" lon="10.4310779"><ele>143.5</ele><time>2026-03-29T08:11:41.631Z</time></trkpt><trkpt lat="45.4801139" lon="10.4309985"><ele>143.0</ele><time>2026-03-29T08:11:42.632Z</time></trkpt><trkpt lat="45.4800021" lon="10.430899"><ele>143.0</ele><time>2026-03-29T08:11:43.636Z</time></trkpt><trkpt lat="45.4798841" lon="10.4308042"><ele>143.0</ele><time>2026-03-29T08:11:44.637Z</time></trkpt><trkpt lat="45.4797622" lon="10.4306947"><ele>143.0</ele><time>2026-03-29T08:11:45.633Z</time></trkpt><trkpt lat="45.4796157" lon="10.4306123"><ele>143.0</ele><time>2026-03-29T08:11:46.639Z</time></trkpt><trkpt lat="45.4794707" lon="10.4305362"><ele>142.66666666666666</ele><time>2026-03-29T08:11:47.638Z</time></trkpt><trkpt lat="45.4793015" lon="10.4304834"><ele>142.33333333333334</ele><time>2026-03-29T08:11:48.644Z</time></trkpt><trkpt lat="45.4791309" lon="10.4304341"><ele>142.0</ele><time>2026-03-29T08:11:49.638Z</time></trkpt><trkpt lat="45.4789742" lon="10.4303973"><ele>141.75</ele><time>2026-03-29T08:11:50.648Z</time></trkpt><trkpt lat="45.4788276" lon="10.4303479"><ele>141.5</ele><time>2026-03-29T08:11:51.64Z</time></trkpt><trkpt lat="45.4786795" lon="10.430306"><ele>141.25</ele><time>2026-03-29T08:11:52.64Z</time></trkpt><trkpt lat="45.4785458" lon="10.4302462"><ele>141.0</ele><time>2026-03-29T08:11:53.663Z</time></trkpt><trkpt lat="45.4784067" lon="10.430206"><ele>141.0</ele><time>2026-03-29T08:11:55.73Z</time></trkpt><trkpt lat="45.4782735" lon="10.4301666"><ele>141.0</ele><time>2026-03-29T08:11:56.728Z</time></trkpt><trkpt lat="45.4781391" lon="10.4301344"><ele>141.0</ele><time>2026-03-29T08:11:57.726Z</time></trkpt><trkpt lat="45.4780061" lon="10.4301028"><ele>141.0</ele><time>2026-03-29T08:11:58.726Z</time></trkpt><trkpt lat="45.4778769" lon="10.4300711"><ele>140.75</ele><time>2026-03-29T08:11:59.723Z</time></trkpt><trkpt lat="45.4777454" lon="10.4300391"><ele>140.5</ele><time>2026-03-29T08:12:00.737Z</time></trkpt><trkpt lat="45.4776278" lon="10.4300118"><ele>140.25</ele><time>2026-03-29T08:12:01.729Z</time></trkpt><trkpt lat="45.4775045" lon="10.429986"><ele>140.0</ele><time>2026-03-29T08:12:02.725Z</time></trkpt><trkpt lat="45.4773938" lon="10.4299671"><ele>140.0</ele><time>2026-03-29T08:12:03.719Z</time></trkpt><trkpt lat="45.4773071" lon="10.4299627"><ele>140.0</ele><time>2026-03-29T08:12:04.729Z</time></trkpt><trkpt lat="45.4772311" lon="10.42999"><ele>140.0</ele><time>2026-03-29T08:12:05.726Z</time></trkpt><trkpt lat="45.4771719" lon="10.4300504"><ele>140.0</ele><time>2026-03-29T08:12:06.708Z</time></trkpt><trkpt lat="45.4771234" lon="10.4301473"><ele>140.0</ele><time>2026-03-29T08:12:07.703Z</time></trkpt><trkpt lat="45.4770834" lon="10.4302726"><ele>140.0</ele><time>2026-03-29T08:12:08.711Z</time></trkpt><trkpt lat="45.477083" lon="10.4303919"><ele>139.8</ele><time>2026-03-29T08:12:09.709Z</time></trkpt><trkpt lat="45.4770508" lon="10.4305259"><ele>139.6</ele><time>2026-03-29T08:12:10.716Z</time></trkpt><trkpt lat="45.4770133" lon="10.4306453"><ele>139.4</ele><time>2026-03-29T08:12:11.712Z</time></trkpt><trkpt lat="45.4769729" lon="10.4307544"><ele>139.2</ele><time>2026-03-29T08:12:12.71Z</time></trkpt><trkpt lat="45.4769308" lon="10.4308695"><ele>139.0</ele><time>2026-03-29T08:12:13.696Z</time></trkpt><trkpt lat="45.4768627" lon="10.430939"><ele>139.0</ele><time>2026-03-29T08:12:14.71Z</time></trkpt><trkpt lat="45.476772" lon="10.4309713"><ele>139.0</ele><time>2026-03-29T08:12:15.697Z</time></trkpt><trkpt lat="45.4766677" lon="10.4309597"><ele>139.0</ele><time>2026-03-29T08:12:16.698Z</time></trkpt><trkpt lat="45.4765577" lon="10.4309175"><ele>139.0</ele><time>2026-03-29T08:12:17.725Z</time></trkpt><trkpt lat="45.4764306" lon="10.43086"><ele>139.0</ele><time>2026-03-29T08:12:18.723Z</time></trkpt><trkpt lat="45.4762917" lon="10.4307922"><ele>139.33333333333334</ele><time>2026-03-29T08:12:19.73Z</time></trkpt><trkpt lat="45.4761379" lon="10.4307173"><ele>139.66666666666666</ele><time>2026-03-29T08:12:20.724Z</time></trkpt><trkpt lat="45.4759814" lon="10.4306444"><ele>140.0</ele><time>2026-03-29T08:12:21.73Z</time></trkpt><trkpt lat="45.4758228" lon="10.4305702"><ele>140.0</ele><time>2026-03-29T08:12:22.729Z</time></trkpt><trkpt lat="45.4756646" lon="10.4304915"><ele>140.0</ele><time>2026-03-29T08:12:23.724Z</time></trkpt><trkpt lat="45.4755076" lon="10.4304062"><ele>140.0</ele><time>2026-03-29T08:12:24.73Z</time></trkpt><trkpt lat="45.4753514" lon="10.430316"><ele>139.66666666666666</ele><time>2026-03-29T08:12:25.731Z</time></trkpt><trkpt lat="45.4751955" lon="10.4302317"><ele>139.33333333333334</ele><time>2026-03-29T08:12:26.735Z</time></trkpt><trkpt lat="45.4750412" lon="10.4301529"><ele>139.0</ele><time>2026-03-29T08:12:27.727Z</time></trkpt><trkpt lat="45.4748883" lon="10.4300763"><ele>139.0</ele><time>2026-03-29T08:12:28.729Z</time></trkpt><trkpt lat="45.4747342" lon="10.4299981"><ele>139.0</ele><time>2026-03-29T08:12:29.725Z</time></trkpt><trkpt lat="45.474591" lon="10.4299258"><ele>139.0</ele><time>2026-03-29T08:12:30.728Z</time></trkpt><trkpt lat="45.474458" lon="10.4298604"><ele>138.75</ele><time>2026-03-29T08:12:31.73Z</time></trkpt><trkpt lat="45.474333" lon="10.4297981"><ele>138.5</ele><time>2026-03-29T08:12:32.729Z</time></trkpt><trkpt lat="45.4742108" lon="10.4297367"><ele>138.25</ele><time>2026-03-29T08:12:33.734Z</time></trkpt><trkpt lat="45.4740919" lon="10.4296775"><ele>138.0</ele><time>2026-03-29T08:12:34.731Z</time></trkpt><trkpt lat="45.4739861" lon="10.4296253"><ele>137.83333333333334</ele><time>2026-03-29T08:12:35.717Z</time></trkpt><trkpt lat="45.4739001" lon="10.4295837"><ele>137.66666666666666</ele><time>2026-03-29T08:12:36.721Z</time></trkpt><trkpt lat="45.4738286" lon="10.4295481"><ele>137.5</ele><time>2026-03-29T08:12:37.718Z</time></trkpt><trkpt lat="45.4737355" lon="10.4295038"><ele>137.33333333333331</ele><time>2026-03-29T08:12:39.712Z</time></trkpt><trkpt lat="45.4736736" lon="10.4294867"><ele>137.16666666666666</ele><time>2026-03-29T08:12:42.728Z</time></trkpt><trkpt lat="45.4735978" lon="10.4295552"><ele>137.0</ele><time>2026-03-29T08:12:45.729Z</time></trkpt><trkpt lat="45.4735796" lon="10.4297419"><ele>137.0</ele><time>2026-03-29T08:12:47.714Z</time></trkpt><trkpt lat="45.4735694" lon="10.4298781"><ele>137.0</ele><time>2026-03-29T08:12:48.703Z</time></trkpt><trkpt lat="45.473548" lon="10.4300431"><ele>137.0</ele><time>2026-03-29T08:12:49.712Z</time></trkpt><trkpt lat="45.4735211" lon="10.4302306"><ele>137.0</ele><time>2026-03-29T08:12:50.727Z</time></trkpt><trkpt lat="45.473491" lon="10.4304144"><ele>137.0</ele><time>2026-03-29T08:12:51.727Z</time></trkpt><trkpt lat="45.4734556" lon="10.4306046"><ele>137.0</ele><time>2026-03-29T08:12:52.735Z</time></trkpt><trkpt lat="45.473415" lon="10.4307986"><ele>137.0</ele><time>2026-03-29T08:12:53.731Z</time></trkpt><trkpt lat="45.473369" lon="10.4309979"><ele>137.0</ele><time>2026-03-29T08:12:54.733Z</time></trkpt><trkpt lat="45.473315" lon="10.431205"><ele>137.66666666666666</ele><time>2026-03-29T08:12:55.734Z</time></trkpt><trkpt lat="45.4732564" lon="10.4314173"><ele>138.33333333333334</ele><time>2026-03-29T08:12:56.732Z</time></trkpt><trkpt lat="45.4731979" lon="10.4316296"><ele>139.0</ele><time>2026-03-29T08:12:57.727Z</time></trkpt><trkpt lat="45.4731421" lon="10.4318263"><ele>139.0</ele><time>2026-03-29T08:12:58.743Z</time></trkpt><trkpt lat="45.4730925" lon="10.4320036"><ele>139.0</ele><time>2026-03-29T08:12:59.729Z</time></trkpt><trkpt lat="45.4730463" lon="10.43217"><ele>139.0</ele><time>2026-03-29T08:13:00.729Z</time></trkpt><trkpt lat="45.4729996" lon="10.4323404"><ele>139.0</ele><time>2026-03-29T08:13:01.729Z</time></trkpt><trkpt lat="45.4729511" lon="10.4325127"><ele>139.0</ele><time>2026-03-29T08:13:02.728Z</time></trkpt><trkpt lat="45.4729051" lon="10.4326827"><ele>139.0</ele><time>2026-03-29T08:13:03.731Z</time></trkpt><trkpt lat="45.4728625" lon="10.4328549"><ele>139.0</ele><time>2026-03-29T08:13:04.732Z</time></trkpt><trkpt lat="45.4728145" lon="10.4330307"><ele>139.0</ele><time>2026-03-29T08:13:05.738Z</time></trkpt><trkpt lat="45.4727683" lon="10.4331964"><ele>139.25</ele><time>2026-03-29T08:13:06.731Z</time></trkpt><trkpt lat="45.4727277" lon="10.4333479"><ele>139.5</ele><time>2026-03-29T08:13:07.744Z</time></trkpt><trkpt lat="45.4726873" lon="10.4334975"><ele>139.75</ele><time>2026-03-29T08:13:08.731Z</time></trkpt><trkpt lat="45.4726467" lon="10.4336471"><ele>140.0</ele><time>2026-03-29T08:13:09.733Z</time></trkpt><trkpt lat="45.4726053" lon="10.4337955"><ele>139.6</ele><time>2026-03-29T08:13:10.737Z</time></trkpt><trkpt lat="45.4725632" lon="10.4339472"><ele>139.2</ele><time>2026-03-29T08:13:11.733Z</time></trkpt><trkpt lat="45.4725266" lon="10.4340887"><ele>138.8</ele><time>2026-03-29T08:13:12.75Z</time></trkpt><trkpt lat="45.4724924" lon="10.4342204"><ele>138.4</ele><time>2026-03-29T08:13:13.734Z</time></trkpt><trkpt lat="45.4724594" lon="10.4343427"><ele>138.0</ele><time>2026-03-29T08:13:14.733Z</time></trkpt><trkpt lat="45.4724319" lon="10.4344581"><ele>138.0</ele><time>2026-03-29T08:13:15.735Z</time></trkpt><trkpt lat="45.4724067" lon="10.4345607"><ele>138.0</ele><time>2026-03-29T08:13:16.732Z</time></trkpt><trkpt lat="45.4723827" lon="10.4346541"><ele>138.0</ele><time>2026-03-29T08:13:17.733Z</time></trkpt><trkpt lat="45.4723516" lon="10.4347638"><ele>138.0</ele><time>2026-03-29T08:13:19.719Z</time></trkpt><trkpt lat="45.4723114" lon="10.4348768"><ele>138.0</ele><time>2026-03-29T08:13:25.73Z</time></trkpt><trkpt lat="45.4722469" lon="10.4349725"><ele>138.0</ele><time>2026-03-29T08:13:27.709Z</time></trkpt><trkpt lat="45.4722044" lon="10.4350601"><ele>138.0</ele><time>2026-03-29T08:13:28.718Z</time></trkpt><trkpt lat="45.4721731" lon="10.4351743"><ele>138.0</ele><time>2026-03-29T08:13:29.709Z</time></trkpt><trkpt lat="45.4721467" lon="10.4354581"><ele>138.0</ele><time>2026-03-29T08:13:30.622Z</time></trkpt><trkpt lat="45.47213" lon="10.4356411"><ele>138.0</ele><time>2026-03-29T08:13:31.633Z</time></trkpt><trkpt lat="45.4720891" lon="10.4358185"><ele>138.33333333333334</ele><time>2026-03-29T08:13:32.629Z</time></trkpt><trkpt lat="45.472028" lon="10.4359971"><ele>138.66666666666669</ele><time>2026-03-29T08:13:33.64Z</time></trkpt><trkpt lat="45.4719532" lon="10.4362014"><ele>139.0</ele><time>2026-03-29T08:13:34.641Z</time></trkpt><trkpt lat="45.4718925" lon="10.4364114"><ele>139.0</ele><time>2026-03-29T08:13:35.641Z</time></trkpt><trkpt lat="45.4718239" lon="10.4366131"><ele>139.0</ele><time>2026-03-29T08:13:36.65Z</time></trkpt><trkpt lat="45.4717515" lon="10.4368314"><ele>139.0</ele><time>2026-03-29T08:13:37.64Z</time></trkpt><trkpt lat="45.4716844" lon="10.4370309"><ele>138.66666666666669</ele><time>2026-03-29T08:13:38.641Z</time></trkpt><trkpt lat="45.4716255" lon="10.4372439"><ele>138.33333333333334</ele><time>2026-03-29T08:13:39.639Z</time></trkpt><trkpt lat="45.4715679" lon="10.4374666"><ele>138.0</ele><time>2026-03-29T08:13:40.638Z</time></trkpt><trkpt lat="45.4715098" lon="10.4376717"><ele>138.0</ele><time>2026-03-29T08:13:41.64Z</time></trkpt><trkpt lat="45.4714437" lon="10.4378926"><ele>138.0</ele><time>2026-03-29T08:13:42.641Z</time></trkpt><trkpt lat="45.4713811" lon="10.4381114"><ele>138.0</ele><time>2026-03-29T08:13:43.64Z</time></trkpt><trkpt lat="45.4713176" lon="10.438317"><ele>138.0</ele><time>2026-03-29T08:13:44.649Z</time></trkpt><trkpt lat="45.471264" lon="10.4385299"><ele>138.0</ele><time>2026-03-29T08:13:45.64Z</time></trkpt><trkpt lat="45.4712105" lon="10.4387262"><ele>138.0</ele><time>2026-03-29T08:13:46.639Z</time></trkpt><trkpt lat="45.4711646" lon="10.4389045"><ele>138.0</ele><time>2026-03-29T08:13:47.645Z</time></trkpt><trkpt lat="45.4711149" lon="10.4390885"><ele>138.0</ele><time>2026-03-29T08:13:48.638Z</time></trkpt><trkpt lat="45.4710657" lon="10.4392553"><ele>138.0</ele><time>2026-03-29T08:13:49.647Z</time></trkpt><trkpt lat="45.4710173" lon="10.4394352"><ele>138.0</ele><time>2026-03-29T08:13:50.639Z</time></trkpt><trkpt lat="45.4709887" lon="10.4395936"><ele>138.0</ele><time>2026-03-29T08:13:51.635Z</time></trkpt><trkpt lat="45.4709652" lon="10.4397284"><ele>138.16666666666666</ele><time>2026-03-29T08:13:52.641Z</time></trkpt><trkpt lat="45.4709634" lon="10.4398672"><ele>138.33333333333334</ele><time>2026-03-29T08:13:53.634Z</time></trkpt><trkpt lat="45.4709443" lon="10.4399629"><ele>138.5</ele><time>2026-03-29T08:13:54.634Z</time></trkpt><trkpt lat="45.4709434" lon="10.4400764"><ele>138.66666666666669</ele><time>2026-03-29T08:13:55.634Z</time></trkpt><trkpt lat="45.4709338" lon="10.440186"><ele>138.83333333333334</ele><time>2026-03-29T08:13:56.628Z</time></trkpt><trkpt lat="45.470902" lon="10.4402842"><ele>139.0</ele><time>2026-03-29T08:13:57.643Z</time></trkpt><trkpt lat="45.47085" lon="10.440367"><ele>139.0</ele><time>2026-03-29T08:13:58.635Z</time></trkpt><trkpt lat="45.4707842" lon="10.4404186"><ele>139.0</ele><time>2026-03-29T08:13:59.633Z</time></trkpt><trkpt lat="45.470707" lon="10.4404339"><ele>139.0</ele><time>2026-03-29T08:14:00.634Z</time></trkpt><trkpt lat="45.4706106" lon="10.4404237"><ele>139.0</ele><time>2026-03-29T08:14:01.628Z</time></trkpt><trkpt lat="45.4705077" lon="10.4403927"><ele>139.0</ele><time>2026-03-29T08:14:02.636Z</time></trkpt><trkpt lat="45.470387" lon="10.4403616"><ele>139.25</ele><time>2026-03-29T08:14:03.63Z</time></trkpt><trkpt lat="45.4702578" lon="10.4403495"><ele>139.5</ele><time>2026-03-29T08:14:04.629Z</time></trkpt><trkpt lat="45.4701332" lon="10.4403555"><ele>139.75</ele><time>2026-03-29T08:14:05.625Z</time></trkpt><trkpt lat="45.4699998" lon="10.440363"><ele>140.0</ele><time>2026-03-29T08:14:06.625Z</time></trkpt><trkpt lat="45.4698679" lon="10.4403867"><ele>140.0</ele><time>2026-03-29T08:14:07.633Z</time></trkpt><trkpt lat="45.4697312" lon="10.4404049"><ele>140.0</ele><time>2026-03-29T08:14:08.626Z</time></trkpt><trkpt lat="45.4695945" lon="10.4404319"><ele>140.0</ele><time>2026-03-29T08:14:09.641Z</time></trkpt><trkpt lat="45.4694501" lon="10.4404701"><ele>140.0</ele><time>2026-03-29T08:14:10.635Z</time></trkpt><trkpt lat="45.469322" lon="10.4405022"><ele>140.0</ele><time>2026-03-29T08:14:11.634Z</time></trkpt><trkpt lat="45.4691896" lon="10.4405306"><ele>140.0</ele><time>2026-03-29T08:14:12.635Z</time></trkpt><trkpt lat="45.4690836" lon="10.4405509"><ele>140.0</ele><time>2026-03-29T08:14:13.642Z</time></trkpt><trkpt lat="45.4689867" lon="10.4405723"><ele>140.0</ele><time>2026-03-29T08:14:14.638Z</time></trkpt><trkpt lat="45.4688787" lon="10.4405896"><ele>140.0</ele><time>2026-03-29T08:14:15.647Z</time></trkpt><trkpt lat="45.4687759" lon="10.4406077"><ele>140.0</ele><time>2026-03-29T08:14:16.642Z</time></trkpt><trkpt lat="45.4686741" lon="10.4406421"><ele>140.0</ele><time>2026-03-29T08:14:17.644Z</time></trkpt><trkpt lat="45.4685806" lon="10.4406593"><ele>140.0</ele><time>2026-03-29T08:14:18.642Z</time></trkpt><trkpt lat="45.4684911" lon="10.4406853"><ele>140.0</ele><time>2026-03-29T08:14:19.645Z</time></trkpt><trkpt lat="45.4684132" lon="10.4407048"><ele>140.0</ele><time>2026-03-29T08:14:20.639Z</time></trkpt><trkpt lat="45.4683466" lon="10.440707"><ele>140.0</ele><time>2026-03-29T08:14:21.642Z</time></trkpt><trkpt lat="45.4682761" lon="10.440689"><ele>140.0</ele><time>2026-03-29T08:14:22.636Z</time></trkpt><trkpt lat="45.4682055" lon="10.4406466"><ele>140.0</ele><time>2026-03-29T08:14:23.639Z</time></trkpt><trkpt lat="45.4681329" lon="10.4405997"><ele>140.0</ele><time>2026-03-29T08:14:24.628Z</time></trkpt><trkpt lat="45.4680482" lon="10.4405788"><ele>140.0</ele><time>2026-03-29T08:14:25.636Z</time></trkpt><trkpt lat="45.4679621" lon="10.4405794"><ele>140.0</ele><time>2026-03-29T08:14:26.631Z</time></trkpt><trkpt lat="45.4678647" lon="10.440586"><ele>140.0</ele><time>2026-03-29T08:14:27.638Z</time></trkpt><trkpt lat="45.4677537" lon="10.4406193"><ele>139.75</ele><time>2026-03-29T08:14:28.638Z</time></trkpt><trkpt lat="45.4676412" lon="10.4406436"><ele>139.5</ele><time>2026-03-29T08:14:29.632Z</time></trkpt><trkpt lat="45.467518" lon="10.4406685"><ele>139.25</ele><time>2026-03-29T08:14:30.642Z</time></trkpt><trkpt lat="45.467381" lon="10.4406943"><ele>139.0</ele><time>2026-03-29T08:14:31.642Z</time></trkpt><trkpt lat="45.4672328" lon="10.4407184"><ele>138.0</ele><time>2026-03-29T08:14:32.639Z</time></trkpt><trkpt lat="45.4670748" lon="10.4407421"><ele>137.0</ele><time>2026-03-29T08:14:33.646Z</time></trkpt><trkpt lat="45.4669178" lon="10.4407549"><ele>136.0</ele><time>2026-03-29T08:14:34.642Z</time></trkpt><trkpt lat="45.466764" lon="10.4407794"><ele>136.0</ele><time>2026-03-29T08:14:35.643Z</time></trkpt><trkpt lat="45.4666198" lon="10.4407991"><ele>136.0</ele><time>2026-03-29T08:14:36.638Z</time></trkpt><trkpt lat="45.466478" lon="10.4408236"><ele>136.0</ele><time>2026-03-29T08:14:37.644Z</time></trkpt><trkpt lat="45.4663256" lon="10.4408407"><ele>136.0</ele><time>2026-03-29T08:14:38.65Z</time></trkpt><trkpt lat="45.4661838" lon="10.4408789"><ele>135.66666666666669</ele><time>2026-03-29T08:14:39.641Z</time></trkpt><trkpt lat="45.4660354" lon="10.4409144"><ele>135.33333333333334</ele><time>2026-03-29T08:14:40.647Z</time></trkpt><trkpt lat="45.4658847" lon="10.4409655"><ele>135.0</ele><time>2026-03-29T08:14:41.644Z</time></trkpt><trkpt lat="45.4657336" lon="10.4410145"><ele>135.0</ele><time>2026-03-29T08:14:42.641Z</time></trkpt><trkpt lat="45.465587" lon="10.4410578"><ele>135.0</ele><time>2026-03-29T08:14:43.643Z</time></trkpt><trkpt lat="45.4654436" lon="10.4410943"><ele>135.0</ele><time>2026-03-29T08:14:44.648Z</time></trkpt><trkpt lat="45.4652935" lon="10.4411402"><ele>135.0</ele><time>2026-03-29T08:14:45.643Z</time></trkpt><trkpt lat="45.4651485" lon="10.4411804"><ele>134.75</ele><time>2026-03-29T08:14:46.641Z</time></trkpt><trkpt lat="45.4650185" lon="10.4412156"><ele>134.5</ele><time>2026-03-29T08:14:47.647Z</time></trkpt><trkpt lat="45.4649023" lon="10.4412514"><ele>134.25</ele><time>2026-03-29T08:14:48.643Z</time></trkpt><trkpt lat="45.4647789" lon="10.4412923"><ele>134.0</ele><time>2026-03-29T08:14:49.643Z</time></trkpt><trkpt lat="45.4646598" lon="10.4413359"><ele>134.5</ele><time>2026-03-29T08:14:50.64Z</time></trkpt><trkpt lat="45.4645343" lon="10.4413688"><ele>135.0</ele><time>2026-03-29T08:14:51.643Z</time></trkpt><trkpt lat="45.4644041" lon="10.4413944"><ele>135.5</ele><time>2026-03-29T08:14:52.644Z</time></trkpt><trkpt lat="45.4642598" lon="10.4414054"><ele>136.0</ele><time>2026-03-29T08:14:53.642Z</time></trkpt><trkpt lat="45.4640999" lon="10.4414042"><ele>136.0</ele><time>2026-03-29T08:14:54.639Z</time></trkpt><trkpt lat="45.4639293" lon="10.441408"><ele>136.0</ele><time>2026-03-29T08:14:55.641Z</time></trkpt><trkpt lat="45.4637641" lon="10.4414054"><ele>136.0</ele><time>2026-03-29T08:14:56.642Z</time></trkpt><trkpt lat="45.4636062" lon="10.4414146"><ele>135.66666666666669</ele><time>2026-03-29T08:14:57.642Z</time></trkpt><trkpt lat="45.4634402" lon="10.4414322"><ele>135.33333333333334</ele><time>2026-03-29T08:14:58.645Z</time></trkpt><trkpt lat="45.4632619" lon="10.4414566"><ele>135.0</ele><time>2026-03-29T08:14:59.639Z</time></trkpt><trkpt lat="45.4631036" lon="10.4414831"><ele>134.66666666666666</ele><time>2026-03-29T08:15:00.638Z</time></trkpt><trkpt lat="45.4629281" lon="10.4415191"><ele>134.33333333333331</ele><time>2026-03-29T08:15:01.634Z</time></trkpt><trkpt lat="45.4627388" lon="10.4415578"><ele>134.0</ele><time>2026-03-29T08:15:02.63Z</time></trkpt><trkpt lat="45.462558" lon="10.4415973"><ele>134.0</ele><time>2026-03-29T08:15:03.632Z</time></trkpt><trkpt lat="45.4623759" lon="10.4416538"><ele>134.0</ele><time>2026-03-29T08:15:04.629Z</time></trkpt><trkpt lat="45.4621979" lon="10.4417015"><ele>134.0</ele><time>2026-03-29T08:15:05.636Z</time></trkpt><trkpt lat="45.4620155" lon="10.4417431"><ele>134.0</ele><time>2026-03-29T08:15:06.63Z</time></trkpt><trkpt lat="45.4618346" lon="10.4417949"><ele>134.0</ele><time>2026-03-29T08:15:07.634Z</time></trkpt><trkpt lat="45.4616544" lon="10.441849"><ele>134.0</ele><time>2026-03-29T08:15:08.631Z</time></trkpt><trkpt lat="45.4614781" lon="10.4419014"><ele>134.0</ele><time>2026-03-29T08:15:09.638Z</time></trkpt><trkpt lat="45.4612992" lon="10.4419575"><ele>134.0</ele><time>2026-03-29T08:15:10.629Z</time></trkpt><trkpt lat="45.461119" lon="10.4420165"><ele>134.0</ele><time>2026-03-29T08:15:11.63Z</time></trkpt><trkpt lat="45.4609396" lon="10.4420716"><ele>133.66666666666666</ele><time>2026-03-29T08:15:12.634Z</time></trkpt><trkpt lat="45.4607722" lon="10.4421202"><ele>133.33333333333334</ele><time>2026-03-29T08:15:13.625Z</time></trkpt><trkpt lat="45.4606004" lon="10.4421821"><ele>133.0</ele><time>2026-03-29T08:15:14.636Z</time></trkpt><trkpt lat="45.4604193" lon="10.4422202"><ele>133.0</ele><time>2026-03-29T08:15:15.629Z</time></trkpt><trkpt lat="45.4602538" lon="10.442258"><ele>133.0</ele><time>2026-03-29T08:15:16.629Z</time></trkpt><trkpt lat="45.4600855" lon="10.4422981"><ele>133.0</ele><time>2026-03-29T08:15:17.631Z</time></trkpt><trkpt lat="45.4599213" lon="10.4423405"><ele>133.0</ele><time>2026-03-29T08:15:18.633Z</time></trkpt><trkpt lat="45.4597741" lon="10.4423808"><ele>133.0</ele><time>2026-03-29T08:15:19.631Z</time></trkpt><trkpt lat="45.4596267" lon="10.4424364"><ele>133.0</ele><time>2026-03-29T08:15:20.634Z</time></trkpt><trkpt lat="45.4594681" lon="10.4424909"><ele>132.5</ele><time>2026-03-29T08:15:21.632Z</time></trkpt><trkpt lat="45.4593055" lon="10.4425446"><ele>132.0</ele><time>2026-03-29T08:15:22.644Z</time></trkpt><trkpt lat="45.4591663" lon="10.4425899"><ele>131.5</ele><time>2026-03-29T08:15:23.638Z</time></trkpt><trkpt lat="45.4590499" lon="10.4426084"><ele>131.0</ele><time>2026-03-29T08:15:24.637Z</time></trkpt><trkpt lat="45.4589351" lon="10.4426536"><ele>131.0</ele><time>2026-03-29T08:15:25.638Z</time></trkpt><trkpt lat="45.4588334" lon="10.44268"><ele>131.0</ele><time>2026-03-29T08:15:26.633Z</time></trkpt><trkpt lat="45.4587541" lon="10.4426896"><ele>131.0</ele><time>2026-03-29T08:15:27.636Z</time></trkpt><trkpt lat="45.458666" lon="10.4427084"><ele>131.0</ele><time>2026-03-29T08:15:28.631Z</time></trkpt><trkpt lat="45.4585941" lon="10.4427276"><ele>131.0</ele><time>2026-03-29T08:15:29.64Z</time></trkpt><trkpt lat="45.4584822" lon="10.4427697"><ele>130.8</ele><time>2026-03-29T08:15:31.634Z</time></trkpt><trkpt lat="45.458418" lon="10.4428708"><ele>130.6</ele><time>2026-03-29T08:15:33.629Z</time></trkpt><trkpt lat="45.4584154" lon="10.443044"><ele>130.4</ele><time>2026-03-29T08:15:35.628Z</time></trkpt><trkpt lat="45.4583916" lon="10.4431725"><ele>130.2</ele><time>2026-03-29T08:15:37.628Z</time></trkpt><trkpt lat="45.4583209" lon="10.4432771"><ele>130.0</ele><time>2026-03-29T08:15:39.632Z</time></trkpt><trkpt lat="45.4582594" lon="10.4433203"><ele>130.0</ele><time>2026-03-29T08:15:40.637Z</time></trkpt><trkpt lat="45.4581841" lon="10.4433532"><ele>130.0</ele><time>2026-03-29T08:15:41.627Z</time></trkpt><trkpt lat="45.4580853" lon="10.4433775"><ele>130.0</ele><time>2026-03-29T08:15:42.636Z</time></trkpt><trkpt lat="45.4579684" lon="10.443398"><ele>130.0</ele><time>2026-03-29T08:15:43.625Z</time></trkpt><trkpt lat="45.4578406" lon="10.443415"><ele>130.0</ele><time>2026-03-29T08:15:44.632Z</time></trkpt><trkpt lat="45.4577105" lon="10.4434312"><ele>130.0</ele><time>2026-03-29T08:15:45.626Z</time></trkpt><trkpt lat="45.4575713" lon="10.4434379"><ele>130.0</ele><time>2026-03-29T08:15:46.631Z</time></trkpt><trkpt lat="45.457444" lon="10.443448"><ele>130.0</ele><time>2026-03-29T08:15:47.632Z</time></trkpt><trkpt lat="45.4573336" lon="10.4434715"><ele>130.0</ele><time>2026-03-29T08:15:48.631Z</time></trkpt><trkpt lat="45.4572358" lon="10.443508"><ele>130.0</ele><time>2026-03-29T08:15:49.639Z</time></trkpt><trkpt lat="45.4571399" lon="10.443544"><ele>130.0</ele><time>2026-03-29T08:15:50.633Z</time></trkpt><trkpt lat="45.4570359" lon="10.4435634"><ele>130.0</ele><time>2026-03-29T08:15:51.63Z</time></trkpt><trkpt lat="45.4569251" lon="10.4435658"><ele>130.0</ele><time>2026-03-29T08:15:52.625Z</time></trkpt><trkpt lat="45.4568078" lon="10.4435535"><ele>130.0</ele><time>2026-03-29T08:15:53.638Z</time></trkpt><trkpt lat="45.45668" lon="10.4435375"><ele>129.75</ele><time>2026-03-29T08:15:54.63Z</time></trkpt><trkpt lat="45.4565449" lon="10.4435126"><ele>129.5</ele><time>2026-03-29T08:15:55.631Z</time></trkpt><trkpt lat="45.4564077" lon="10.4434871"><ele>129.25</ele><time>2026-03-29T08:15:56.633Z</time></trkpt><trkpt lat="45.4562597" lon="10.4434672"><ele>129.0</ele><time>2026-03-29T08:15:57.634Z</time></trkpt><trkpt lat="45.4561316" lon="10.4434458"><ele>129.5</ele><time>2026-03-29T08:15:58.633Z</time></trkpt><trkpt lat="45.4560166" lon="10.4434237"><ele>130.0</ele><time>2026-03-29T08:15:59.633Z</time></trkpt><trkpt lat="45.4558945" lon="10.4433967"><ele>130.5</ele><time>2026-03-29T08:16:00.628Z</time></trkpt><trkpt lat="45.4557713" lon="10.4433644"><ele>131.0</ele><time>2026-03-29T08:16:01.643Z</time></trkpt><trkpt lat="45.4556505" lon="10.44335"><ele>131.0</ele><time>2026-03-29T08:16:02.633Z</time></trkpt><trkpt lat="45.4555025" lon="10.4433481"><ele>131.0</ele><time>2026-03-29T08:16:03.627Z</time></trkpt><trkpt lat="45.4553713" lon="10.4433609"><ele>131.0</ele><time>2026-03-29T08:16:04.626Z</time></trkpt><trkpt lat="45.4552427" lon="10.4433981"><ele>131.0</ele><time>2026-03-29T08:16:05.624Z</time></trkpt><trkpt lat="45.4551" lon="10.4434677"><ele>130.33333333333331</ele><time>2026-03-29T08:16:06.627Z</time></trkpt><trkpt lat="45.4549353" lon="10.4435634"><ele>129.66666666666666</ele><time>2026-03-29T08:16:07.632Z</time></trkpt><trkpt lat="45.4547987" lon="10.4436333"><ele>129.0</ele><time>2026-03-29T08:16:08.634Z</time></trkpt><trkpt lat="45.4546606" lon="10.443692"><ele>128.75</ele><time>2026-03-29T08:16:09.635Z</time></trkpt><trkpt lat="45.4545157" lon="10.4437606"><ele>128.5</ele><time>2026-03-29T08:16:10.641Z</time></trkpt><trkpt lat="45.4543742" lon="10.4438348"><ele>128.25</ele><time>2026-03-29T08:16:11.643Z</time></trkpt><trkpt lat="45.4542352" lon="10.4438864"><ele>128.0</ele><time>2026-03-29T08:16:12.632Z</time></trkpt><trkpt lat="45.4540764" lon="10.4439192"><ele>128.0</ele><time>2026-03-29T08:16:13.643Z</time></trkpt><trkpt lat="45.4539348" lon="10.4439297"><ele>128.0</ele><time>2026-03-29T08:16:14.625Z</time></trkpt><trkpt lat="45.4537826" lon="10.4439201"><ele>128.0</ele><time>2026-03-29T08:16:15.628Z</time></trkpt><trkpt lat="45.4536215" lon="10.4439288"><ele>128.0</ele><time>2026-03-29T08:16:16.632Z</time></trkpt><trkpt lat="45.4534739" lon="10.4439573"><ele>128.0</ele><time>2026-03-29T08:16:17.629Z</time></trkpt><trkpt lat="45.4533078" lon="10.443995"><ele>128.0</ele><time>2026-03-29T08:16:18.633Z</time></trkpt><trkpt lat="45.4531547" lon="10.4440319"><ele>128.0</ele><time>2026-03-29T08:16:19.63Z</time></trkpt><trkpt lat="45.4529992" lon="10.4440624"><ele>128.0</ele><time>2026-03-29T08:16:20.632Z</time></trkpt><trkpt lat="45.4528567" lon="10.4440938"><ele>128.0</ele><time>2026-03-29T08:16:21.635Z</time></trkpt><trkpt lat="45.4527104" lon="10.4441225"><ele>128.0</ele><time>2026-03-29T08:16:22.639Z</time></trkpt><trkpt lat="45.4525564" lon="10.4441375"><ele>127.75</ele><time>2026-03-29T08:16:23.636Z</time></trkpt><trkpt lat="45.4524138" lon="10.4441599"><ele>127.5</ele><time>2026-03-29T08:16:24.646Z</time></trkpt><trkpt lat="45.4522675" lon="10.4441968"><ele>127.25</ele><time>2026-03-29T08:16:25.643Z</time></trkpt><trkpt lat="45.4521183" lon="10.4442259"><ele>127.0</ele><time>2026-03-29T08:16:26.644Z</time></trkpt><trkpt lat="45.4519527" lon="10.4442663"><ele>127.0</ele><time>2026-03-29T08:16:27.646Z</time></trkpt><trkpt lat="45.4517978" lon="10.4443051"><ele>127.0</ele><time>2026-03-29T08:16:28.641Z</time></trkpt><trkpt lat="45.4516426" lon="10.4443291"><ele>127.0</ele><time>2026-03-29T08:16:29.649Z</time></trkpt><trkpt lat="45.4514765" lon="10.444363"><ele>127.0</ele><time>2026-03-29T08:16:30.646Z</time></trkpt><trkpt lat="45.4513107" lon="10.4444017"><ele>127.0</ele><time>2026-03-29T08:16:31.653Z</time></trkpt><trkpt lat="45.4511667" lon="10.4444095"><ele>127.0</ele><time>2026-03-29T08:16:32.644Z</time></trkpt><trkpt lat="45.4510252" lon="10.4444278"><ele>126.5</ele><time>2026-03-29T08:16:33.64Z</time></trkpt><trkpt lat="45.4509036" lon="10.4444492"><ele>126.0</ele><time>2026-03-29T08:16:34.646Z</time></trkpt><trkpt lat="45.4507427" lon="10.4444998"><ele>125.5</ele><time>2026-03-29T08:16:35.63Z</time></trkpt><trkpt lat="45.450587" lon="10.4445098"><ele>125.0</ele><time>2026-03-29T08:16:36.639Z</time></trkpt><trkpt lat="45.4504313" lon="10.4445395"><ele>124.66666666666666</ele><time>2026-03-29T08:16:37.636Z</time></trkpt><trkpt lat="45.4502574" lon="10.4445743"><ele>124.33333333333334</ele><time>2026-03-29T08:16:38.637Z</time></trkpt><trkpt lat="45.4500882" lon="10.4446086"><ele>124.0</ele><time>2026-03-29T08:16:39.637Z</time></trkpt><trkpt lat="45.4499397" lon="10.4446361"><ele>124.0</ele><time>2026-03-29T08:16:40.632Z</time></trkpt><trkpt lat="45.449786" lon="10.4446725"><ele>124.0</ele><time>2026-03-29T08:16:41.632Z</time></trkpt><trkpt lat="45.4496121" lon="10.4447057"><ele>124.0</ele><time>2026-03-29T08:16:42.652Z</time></trkpt><trkpt lat="45.4494445" lon="10.4447186"><ele>124.25</ele><time>2026-03-29T08:16:43.637Z</time></trkpt><trkpt lat="45.449273" lon="10.4447449"><ele>124.5</ele><time>2026-03-29T08:16:44.638Z</time></trkpt><trkpt lat="45.449135" lon="10.4447583"><ele>124.75</ele><time>2026-03-29T08:16:45.639Z</time></trkpt><trkpt lat="45.4489981" lon="10.4447684"><ele>125.0</ele><time>2026-03-29T08:16:46.629Z</time></trkpt><trkpt lat="45.4488466" lon="10.4447769"><ele>124.33333333333333</ele><time>2026-03-29T08:16:47.645Z</time></trkpt><trkpt lat="45.448701" lon="10.4448059"><ele>123.66666666666666</ele><time>2026-03-29T08:16:48.637Z</time></trkpt><trkpt lat="45.4485473" lon="10.4448246"><ele>123.0</ele><time>2026-03-29T08:16:49.633Z</time></trkpt><trkpt lat="45.4483807" lon="10.4448447"><ele>123.0</ele><time>2026-03-29T08:16:50.626Z</time></trkpt><trkpt lat="45.4482213" lon="10.4448737"><ele>123.0</ele><time>2026-03-29T08:16:51.63Z</time></trkpt><trkpt lat="45.4480418" lon="10.4449087"><ele>123.0</ele><time>2026-03-29T08:16:52.64Z</time></trkpt><trkpt lat="45.4478801" lon="10.4449562"><ele>122.33333333333334</ele><time>2026-03-29T08:16:53.64Z</time></trkpt><trkpt lat="45.4477073" lon="10.4449954"><ele>121.66666666666667</ele><time>2026-03-29T08:16:54.642Z</time></trkpt><trkpt lat="45.4475443" lon="10.4450209"><ele>121.0</ele><time>2026-03-29T08:16:55.637Z</time></trkpt><trkpt lat="45.4473897" lon="10.4450469"><ele>121.0</ele><time>2026-03-29T08:16:56.635Z</time></trkpt><trkpt lat="45.4472254" lon="10.4450762"><ele>121.0</ele><time>2026-03-29T08:16:57.635Z</time></trkpt><trkpt lat="45.4470636" lon="10.4451119"><ele>121.0</ele><time>2026-03-29T08:16:58.638Z</time></trkpt><trkpt lat="45.4469134" lon="10.4451352"><ele>121.0</ele><time>2026-03-29T08:16:59.633Z</time></trkpt><trkpt lat="45.4467786" lon="10.4451788"><ele>121.0</ele><time>2026-03-29T08:17:00.644Z</time></trkpt><trkpt lat="45.4466742" lon="10.445198"><ele>121.0</ele><time>2026-03-29T08:17:01.641Z</time></trkpt><trkpt lat="45.4465458" lon="10.4452095"><ele>121.0</ele><time>2026-03-29T08:17:02.646Z</time></trkpt><trkpt lat="45.4464216" lon="10.4452156"><ele>121.0</ele><time>2026-03-29T08:17:03.638Z</time></trkpt><trkpt lat="45.4462804" lon="10.4452275"><ele>121.0</ele><time>2026-03-29T08:17:04.636Z</time></trkpt><trkpt lat="45.4461174" lon="10.445218"><ele>121.0</ele><time>2026-03-29T08:17:05.635Z</time></trkpt><trkpt lat="45.445951" lon="10.4452001"><ele>121.0</ele><time>2026-03-29T08:17:06.637Z</time></trkpt><trkpt lat="45.4457788" lon="10.4451707"><ele>121.0</ele><time>2026-03-29T08:17:07.639Z</time></trkpt><trkpt lat="45.4455934" lon="10.4451734"><ele>121.0</ele><time>2026-03-29T08:17:08.633Z</time></trkpt><trkpt lat="45.4454139" lon="10.4451722"><ele>121.33333333333334</ele><time>2026-03-29T08:17:09.642Z</time></trkpt><trkpt lat="45.4452372" lon="10.4451726"><ele>121.66666666666666</ele><time>2026-03-29T08:17:10.632Z</time></trkpt><trkpt lat="45.4450514" lon="10.4451757"><ele>122.0</ele><time>2026-03-29T08:17:11.639Z</time></trkpt><trkpt lat="45.4448699" lon="10.4451769"><ele>122.0</ele><time>2026-03-29T08:17:12.649Z</time></trkpt><trkpt lat="45.4446761" lon="10.4451938"><ele>122.0</ele><time>2026-03-29T08:17:13.633Z</time></trkpt><trkpt lat="45.444497" lon="10.445199"><ele>122.0</ele><time>2026-03-29T08:17:14.647Z</time></trkpt><trkpt lat="45.4443233" lon="10.445209"><ele>121.66666666666666</ele><time>2026-03-29T08:17:15.633Z</time></trkpt><trkpt lat="45.4441414" lon="10.4452036"><ele>121.33333333333334</ele><time>2026-03-29T08:17:16.638Z</time></trkpt><trkpt lat="45.4439608" lon="10.4451973"><ele>121.0</ele><time>2026-03-29T08:17:17.637Z</time></trkpt><trkpt lat="45.4437783" lon="10.4452014"><ele>121.0</ele><time>2026-03-29T08:17:18.641Z</time></trkpt><trkpt lat="45.4435895" lon="10.4451986"><ele>121.0</ele><time>2026-03-29T08:17:19.64Z</time></trkpt><trkpt lat="45.4434107" lon="10.445186"><ele>121.0</ele><time>2026-03-29T08:17:20.633Z</time></trkpt><trkpt lat="45.4432444" lon="10.4451841"><ele>121.0</ele><time>2026-03-29T08:17:21.651Z</time></trkpt><trkpt lat="45.4430658" lon="10.4451787"><ele>121.0</ele><time>2026-03-29T08:17:22.636Z</time></trkpt><trkpt lat="45.4428972" lon="10.4451737"><ele>121.0</ele><time>2026-03-29T08:17:23.642Z</time></trkpt><trkpt lat="45.4427361" lon="10.4451709"><ele>121.33333333333334</ele><time>2026-03-29T08:17:24.632Z</time></trkpt><trkpt lat="45.4425601" lon="10.4451655"><ele>121.66666666666666</ele><time>2026-03-29T08:17:25.634Z</time></trkpt><trkpt lat="45.4423819" lon="10.4451635"><ele>122.0</ele><time>2026-03-29T08:17:26.636Z</time></trkpt><trkpt lat="45.4422146" lon="10.4451415"><ele>121.66666666666666</ele><time>2026-03-29T08:17:27.639Z</time></trkpt><trkpt lat="45.4420273" lon="10.4451619"><ele>121.33333333333334</ele><time>2026-03-29T08:17:28.63Z</time></trkpt><trkpt lat="45.4418444" lon="10.4451852"><ele>121.0</ele><time>2026-03-29T08:17:29.644Z</time></trkpt><trkpt lat="45.4416537" lon="10.4451982"><ele>121.0</ele><time>2026-03-29T08:17:30.638Z</time></trkpt><trkpt lat="45.4414683" lon="10.4452077"><ele>121.0</ele><time>2026-03-29T08:17:31.64Z</time></trkpt><trkpt lat="45.4413186" lon="10.4451995"><ele>121.0</ele><time>2026-03-29T08:17:32.63Z</time></trkpt><trkpt lat="45.4411526" lon="10.4451957"><ele>120.66666666666667</ele><time>2026-03-29T08:17:33.642Z</time></trkpt><trkpt lat="45.4409907" lon="10.4451938"><ele>120.33333333333334</ele><time>2026-03-29T08:17:34.636Z</time></trkpt><trkpt lat="45.4408335" lon="10.4451954"><ele>120.0</ele><time>2026-03-29T08:17:35.639Z</time></trkpt><trkpt lat="45.4406732" lon="10.4451849"><ele>120.0</ele><time>2026-03-29T08:17:36.633Z</time></trkpt><trkpt lat="45.4405363" lon="10.445177"><ele>120.0</ele><time>2026-03-29T08:17:37.635Z</time></trkpt><trkpt lat="45.4404163" lon="10.4451745"><ele>120.0</ele><time>2026-03-29T08:17:38.632Z</time></trkpt><trkpt lat="45.4403086" lon="10.4451755"><ele>120.0</ele><time>2026-03-29T08:17:39.636Z</time></trkpt><trkpt lat="45.440203" lon="10.4451796"><ele>120.0</ele><time>2026-03-29T08:17:40.642Z</time></trkpt><trkpt lat="45.4401134" lon="10.4451775"><ele>120.0</ele><time>2026-03-29T08:17:41.637Z</time></trkpt><trkpt lat="45.4400311" lon="10.445169"><ele>120.0</ele><time>2026-03-29T08:17:42.644Z</time></trkpt><trkpt lat="45.4399084" lon="10.4451854"><ele>120.0</ele><time>2026-03-29T08:17:44.635Z</time></trkpt><trkpt lat="45.4398275" lon="10.4451821"><ele>120.0</ele><time>2026-03-29T08:17:46.635Z</time></trkpt><trkpt lat="45.4397252" lon="10.4451409"><ele>120.0</ele><time>2026-03-29T08:17:48.645Z</time></trkpt><trkpt lat="45.4396522" lon="10.445132"><ele>120.0</ele><time>2026-03-29T08:17:49.633Z</time></trkpt><trkpt lat="45.4395713" lon="10.4451402"><ele>120.0</ele><time>2026-03-29T08:17:50.644Z</time></trkpt><trkpt lat="45.4394605" lon="10.4451728"><ele>120.0</ele><time>2026-03-29T08:17:51.633Z</time></trkpt><trkpt lat="45.4393366" lon="10.4452085"><ele>120.0</ele><time>2026-03-29T08:17:52.643Z</time></trkpt><trkpt lat="45.4392233" lon="10.4452457"><ele>120.0</ele><time>2026-03-29T08:17:53.639Z</time></trkpt><trkpt lat="45.4391193" lon="10.4452865"><ele>120.0</ele><time>2026-03-29T08:17:54.635Z</time></trkpt><trkpt lat="45.439022" lon="10.4453232"><ele>120.0</ele><time>2026-03-29T08:17:55.636Z</time></trkpt><trkpt lat="45.4389221" lon="10.4453606"><ele>120.0</ele><time>2026-03-29T08:17:56.642Z</time></trkpt><trkpt lat="45.4388232" lon="10.4454033"><ele>120.0</ele><time>2026-03-29T08:17:57.629Z</time></trkpt><trkpt lat="45.4387212" lon="10.445435"><ele>119.8</ele><time>2026-03-29T08:17:58.637Z</time></trkpt><trkpt lat="45.4386183" lon="10.4454706"><ele>119.6</ele><time>2026-03-29T08:17:59.645Z</time></trkpt><trkpt lat="45.4385152" lon="10.4454996"><ele>119.4</ele><time>2026-03-29T08:18:00.642Z</time></trkpt><trkpt lat="45.438411" lon="10.4455203"><ele>119.2</ele><time>2026-03-29T08:18:01.657Z</time></trkpt><trkpt lat="45.4383002" lon="10.4455506"><ele>119.0</ele><time>2026-03-29T08:18:02.639Z</time></trkpt><trkpt lat="45.4381892" lon="10.4455834"><ele>119.0</ele><time>2026-03-29T08:18:03.639Z</time></trkpt><trkpt lat="45.4380744" lon="10.4456119"><ele>119.0</ele><time>2026-03-29T08:18:04.637Z</time></trkpt><trkpt lat="45.4379546" lon="10.4456415"><ele>119.0</ele><time>2026-03-29T08:18:05.641Z</time></trkpt><trkpt lat="45.4378391" lon="10.4456721"><ele>119.0</ele><time>2026-03-29T08:18:06.637Z</time></trkpt><trkpt lat="45.4377438" lon="10.4457012"><ele>119.25</ele><time>2026-03-29T08:18:07.636Z</time></trkpt><trkpt lat="45.4376313" lon="10.4457407"><ele>119.5</ele><time>2026-03-29T08:18:08.642Z</time></trkpt><trkpt lat="45.4375194" lon="10.4457795"><ele>119.75</ele><time>2026-03-29T08:18:09.646Z</time></trkpt><trkpt lat="45.4374094" lon="10.4458056"><ele>120.0</ele><time>2026-03-29T08:18:10.632Z</time></trkpt><trkpt lat="45.437297" lon="10.4458501"><ele>120.0</ele><time>2026-03-29T08:18:11.634Z</time></trkpt><trkpt lat="45.4372003" lon="10.4459152"><ele>120.0</ele><time>2026-03-29T08:18:12.642Z</time></trkpt><trkpt lat="45.4371115" lon="10.4459834"><ele>120.0</ele><time>2026-03-29T08:18:13.629Z</time></trkpt><trkpt lat="45.4370186" lon="10.4460932"><ele>120.0</ele><time>2026-03-29T08:18:14.653Z</time></trkpt><trkpt lat="45.4369156" lon="10.4462068"><ele>119.33333333333334</ele><time>2026-03-29T08:18:15.638Z</time></trkpt><trkpt lat="45.4368217" lon="10.4463597"><ele>118.66666666666667</ele><time>2026-03-29T08:18:16.636Z</time></trkpt><trkpt lat="45.4367127" lon="10.4465147"><ele>118.0</ele><time>2026-03-29T08:18:17.634Z</time></trkpt><trkpt lat="45.4366025" lon="10.4466918"><ele>118.0</ele><time>2026-03-29T08:18:18.638Z</time></trkpt><trkpt lat="45.4364742" lon="10.4468507"><ele>118.0</ele><time>2026-03-29T08:18:19.64Z</time></trkpt><trkpt lat="45.4363639" lon="10.4469994"><ele>118.0</ele><time>2026-03-29T08:18:20.642Z</time></trkpt><trkpt lat="45.4362541" lon="10.4471459"><ele>117.75</ele><time>2026-03-29T08:18:21.637Z</time></trkpt><trkpt lat="45.4361647" lon="10.4472931"><ele>117.5</ele><time>2026-03-29T08:18:22.64Z</time></trkpt><trkpt lat="45.4360625" lon="10.4474253"><ele>117.25</ele><time>2026-03-29T08:18:23.639Z</time></trkpt><trkpt lat="45.4359367" lon="10.4475786"><ele>117.0</ele><time>2026-03-29T08:18:24.641Z</time></trkpt><trkpt lat="45.4358186" lon="10.4477221"><ele>117.0</ele><time>2026-03-29T08:18:25.63Z</time></trkpt><trkpt lat="45.4356893" lon="10.4478873"><ele>117.0</ele><time>2026-03-29T08:18:26.64Z</time></trkpt><trkpt lat="45.435565" lon="10.4480261"><ele>117.0</ele><time>2026-03-29T08:18:27.633Z</time></trkpt><trkpt lat="45.4354383" lon="10.4481651"><ele>116.66666666666666</ele><time>2026-03-29T08:18:28.628Z</time></trkpt><trkpt lat="45.4353166" lon="10.4483048"><ele>116.33333333333333</ele><time>2026-03-29T08:18:29.638Z</time></trkpt><trkpt lat="45.4351952" lon="10.4484523"><ele>116.0</ele><time>2026-03-29T08:18:30.64Z</time></trkpt><trkpt lat="45.4350657" lon="10.4486326"><ele>116.33333333333333</ele><time>2026-03-29T08:18:31.639Z</time></trkpt><trkpt lat="45.4349335" lon="10.4488015"><ele>116.66666666666666</ele><time>2026-03-29T08:18:32.647Z</time></trkpt><trkpt lat="45.4348152" lon="10.4489593"><ele>117.0</ele><time>2026-03-29T08:18:33.64Z</time></trkpt><trkpt lat="45.4347031" lon="10.4491263"><ele>116.66666666666666</ele><time>2026-03-29T08:18:34.639Z</time></trkpt><trkpt lat="45.4345888" lon="10.449289"><ele>116.33333333333333</ele><time>2026-03-29T08:18:35.633Z</time></trkpt><trkpt lat="45.4344849" lon="10.44944"><ele>116.0</ele><time>2026-03-29T08:18:36.636Z</time></trkpt><trkpt lat="45.4343773" lon="10.4495985"><ele>116.25</ele><time>2026-03-29T08:18:37.634Z</time></trkpt><trkpt lat="45.4342734" lon="10.4497312"><ele>116.5</ele><time>2026-03-29T08:18:38.639Z</time></trkpt><trkpt lat="45.4341736" lon="10.4498726"><ele>116.75</ele><time>2026-03-29T08:18:39.64Z</time></trkpt><trkpt lat="45.4340665" lon="10.4500188"><ele>117.0</ele><time>2026-03-29T08:18:40.643Z</time></trkpt><trkpt lat="45.4339554" lon="10.4501588"><ele>117.0</ele><time>2026-03-29T08:18:41.638Z</time></trkpt><trkpt lat="45.4338318" lon="10.4503191"><ele>117.0</ele><time>2026-03-29T08:18:42.646Z</time></trkpt><trkpt lat="45.4337028" lon="10.4504919"><ele>117.0</ele><time>2026-03-29T08:18:43.646Z</time></trkpt><trkpt lat="45.433575" lon="10.4506541"><ele>117.0</ele><time>2026-03-29T08:18:44.642Z</time></trkpt><trkpt lat="45.433454" lon="10.4508069"><ele>117.0</ele><time>2026-03-29T08:18:45.65Z</time></trkpt><trkpt lat="45.4333529" lon="10.4509491"><ele>117.0</ele><time>2026-03-29T08:18:46.644Z</time></trkpt><trkpt lat="45.4332355" lon="10.4511214"><ele>117.0</ele><time>2026-03-29T08:18:47.648Z</time></trkpt><trkpt lat="45.4331088" lon="10.4512871"><ele>117.0</ele><time>2026-03-29T08:18:48.639Z</time></trkpt><trkpt lat="45.4329897" lon="10.4514426"><ele>117.0</ele><time>2026-03-29T08:18:49.638Z</time></trkpt><trkpt lat="45.4328733" lon="10.4515919"><ele>116.66666666666666</ele><time>2026-03-29T08:18:50.639Z</time></trkpt><trkpt lat="45.4327587" lon="10.4517492"><ele>116.33333333333333</ele><time>2026-03-29T08:18:51.633Z</time></trkpt><trkpt lat="45.4326463" lon="10.4519044"><ele>116.0</ele><time>2026-03-29T08:18:52.642Z</time></trkpt><trkpt lat="45.4325256" lon="10.4520628"><ele>116.0</ele><time>2026-03-29T08:18:53.635Z</time></trkpt><trkpt lat="45.4324153" lon="10.4522298"><ele>116.0</ele><time>2026-03-29T08:18:54.645Z</time></trkpt><trkpt lat="45.4323124" lon="10.4523732"><ele>116.0</ele><time>2026-03-29T08:18:55.642Z</time></trkpt><trkpt lat="45.4322138" lon="10.4525221"><ele>116.0</ele><time>2026-03-29T08:18:56.64Z</time></trkpt><trkpt lat="45.4321" lon="10.4526888"><ele>116.0</ele><time>2026-03-29T08:18:57.639Z</time></trkpt><trkpt lat="45.4319781" lon="10.4528811"><ele>116.0</ele><time>2026-03-29T08:18:58.64Z</time></trkpt><trkpt lat="45.431866" lon="10.4530652"><ele>116.0</ele><time>2026-03-29T08:18:59.637Z</time></trkpt><trkpt lat="45.431777" lon="10.4532256"><ele>116.0</ele><time>2026-03-29T08:19:00.65Z</time></trkpt><trkpt lat="45.4316896" lon="10.4533883"><ele>116.0</ele><time>2026-03-29T08:19:01.647Z</time></trkpt><trkpt lat="45.4315797" lon="10.4535481"><ele>116.0</ele><time>2026-03-29T08:19:02.642Z</time></trkpt><trkpt lat="45.4314662" lon="10.453689"><ele>116.0</ele><time>2026-03-29T08:19:03.642Z</time></trkpt><trkpt lat="45.431367" lon="10.4538447"><ele>116.0</ele><time>2026-03-29T08:19:04.643Z</time></trkpt><trkpt lat="45.4312692" lon="10.4540175"><ele>116.0</ele><time>2026-03-29T08:19:05.644Z</time></trkpt><trkpt lat="45.4311752" lon="10.4541586"><ele>116.0</ele><time>2026-03-29T08:19:06.634Z</time></trkpt><trkpt lat="45.4310687" lon="10.454308"><ele>116.0</ele><time>2026-03-29T08:19:07.64Z</time></trkpt><trkpt lat="45.4309669" lon="10.4544357"><ele>116.0</ele><time>2026-03-29T08:19:08.639Z</time></trkpt><trkpt lat="45.4308879" lon="10.454527"><ele>116.0</ele><time>2026-03-29T08:19:09.629Z</time></trkpt><trkpt lat="45.4308073" lon="10.4545959"><ele>116.0</ele><time>2026-03-29T08:19:10.642Z</time></trkpt><trkpt lat="45.4307018" lon="10.4546333"><ele>116.0</ele><time>2026-03-29T08:19:11.64Z</time></trkpt><trkpt lat="45.4306094" lon="10.4546872"><ele>116.0</ele><time>2026-03-29T08:19:12.631Z</time></trkpt><trkpt lat="45.4304985" lon="10.4547813"><ele>116.0</ele><time>2026-03-29T08:19:13.638Z</time></trkpt><trkpt lat="45.4303943" lon="10.4548896"><ele>116.0</ele><time>2026-03-29T08:19:14.635Z</time></trkpt><trkpt lat="45.4302843" lon="10.4550177"><ele>116.0</ele><time>2026-03-29T08:19:15.646Z</time></trkpt><trkpt lat="45.4301416" lon="10.455148"><ele>115.66666666666666</ele><time>2026-03-29T08:19:16.643Z</time></trkpt><trkpt lat="45.4300126" lon="10.4552801"><ele>115.33333333333334</ele><time>2026-03-29T08:19:17.642Z</time></trkpt><trkpt lat="45.4298906" lon="10.4554019"><ele>115.0</ele><time>2026-03-29T08:19:18.641Z</time></trkpt><trkpt lat="45.4297523" lon="10.4555327"><ele>115.0</ele><time>2026-03-29T08:19:19.634Z</time></trkpt><trkpt lat="45.4296282" lon="10.4556587"><ele>115.0</ele><time>2026-03-29T08:19:20.641Z</time></trkpt><trkpt lat="45.4295043" lon="10.4557795"><ele>115.0</ele><time>2026-03-29T08:19:21.638Z</time></trkpt><trkpt lat="45.4293694" lon="10.4559143"><ele>115.0</ele><time>2026-03-29T08:19:22.635Z</time></trkpt><trkpt lat="45.4292516" lon="10.4560363"><ele>115.0</ele><time>2026-03-29T08:19:23.639Z</time></trkpt><trkpt lat="45.4291136" lon="10.4561822"><ele>115.0</ele><time>2026-03-29T08:19:24.645Z</time></trkpt><trkpt lat="45.4289788" lon="10.4562998"><ele>115.0</ele><time>2026-03-29T08:19:25.639Z</time></trkpt><trkpt lat="45.4288584" lon="10.4564099"><ele>115.0</ele><time>2026-03-29T08:19:26.635Z</time></trkpt><trkpt lat="45.4287372" lon="10.4565092"><ele>115.0</ele><time>2026-03-29T08:19:27.634Z</time></trkpt><trkpt lat="45.4286308" lon="10.4565982"><ele>115.0</ele><time>2026-03-29T08:19:28.639Z</time></trkpt><trkpt lat="45.4285383" lon="10.4566777"><ele>115.0</ele><time>2026-03-29T08:19:29.641Z</time></trkpt><trkpt lat="45.4284536" lon="10.456762"><ele>115.0</ele><time>2026-03-29T08:19:30.633Z</time></trkpt><trkpt lat="45.4283812" lon="10.4568361"><ele>115.0</ele><time>2026-03-29T08:19:31.638Z</time></trkpt><trkpt lat="45.428323" lon="10.4568712"><ele>115.0</ele><time>2026-03-29T08:19:32.641Z</time></trkpt><trkpt lat="45.4282314" lon="10.4568919"><ele>115.0</ele><time>2026-03-29T08:19:33.631Z</time></trkpt><trkpt lat="45.4281232" lon="10.456873"><ele>115.0</ele><time>2026-03-29T08:19:34.635Z</time></trkpt><trkpt lat="45.4280239" lon="10.4568139"><ele>115.0</ele><time>2026-03-29T08:19:35.626Z</time></trkpt><trkpt lat="45.4279084" lon="10.4567331"><ele>115.0</ele><time>2026-03-29T08:19:36.637Z</time></trkpt><trkpt lat="45.4277721" lon="10.4566248"><ele>115.0</ele><time>2026-03-29T08:19:37.629Z</time></trkpt><trkpt lat="45.4276207" lon="10.4565044"><ele>115.0</ele><time>2026-03-29T08:19:38.633Z</time></trkpt><trkpt lat="45.4274651" lon="10.4564071"><ele>115.0</ele><time>2026-03-29T08:19:39.634Z</time></trkpt><trkpt lat="45.4273133" lon="10.4563007"><ele>115.0</ele><time>2026-03-29T08:19:40.631Z</time></trkpt><trkpt lat="45.4271712" lon="10.4562176"><ele>114.0</ele><time>2026-03-29T08:19:41.645Z</time></trkpt><trkpt lat="45.4270198" lon="10.4561184"><ele>113.0</ele><time>2026-03-29T08:19:42.637Z</time></trkpt><trkpt lat="45.42686" lon="10.4560289"><ele>112.0</ele><time>2026-03-29T08:19:43.622Z</time></trkpt><trkpt lat="45.4266898" lon="10.4559216"><ele>112.0</ele><time>2026-03-29T08:19:44.619Z</time></trkpt><trkpt lat="45.4265139" lon="10.4558095"><ele>112.0</ele><time>2026-03-29T08:19:45.621Z</time></trkpt><trkpt lat="45.4263523" lon="10.4556948"><ele>112.0</ele><time>2026-03-29T08:19:46.622Z</time></trkpt><trkpt lat="45.426184" lon="10.4555945"><ele>112.0</ele><time>2026-03-29T08:19:47.627Z</time></trkpt><trkpt lat="45.4260253" lon="10.4555047"><ele>112.0</ele><time>2026-03-29T08:19:48.627Z</time></trkpt><trkpt lat="45.4258666" lon="10.4553999"><ele>112.0</ele><time>2026-03-29T08:19:49.624Z</time></trkpt><trkpt lat="45.4257067" lon="10.4552985"><ele>112.0</ele><time>2026-03-29T08:19:50.623Z</time></trkpt><trkpt lat="45.4255638" lon="10.4552052"><ele>112.0</ele><time>2026-03-29T08:19:51.632Z</time></trkpt><trkpt lat="45.4254296" lon="10.4551245"><ele>112.0</ele><time>2026-03-29T08:19:52.626Z</time></trkpt><trkpt lat="45.425314" lon="10.4550453"><ele>112.0</ele><time>2026-03-29T08:19:53.627Z</time></trkpt><trkpt lat="45.4251993" lon="10.4549738"><ele>112.25</ele><time>2026-03-29T08:19:54.629Z</time></trkpt><trkpt lat="45.4250872" lon="10.4548972"><ele>112.5</ele><time>2026-03-29T08:19:55.628Z</time></trkpt><trkpt lat="45.4249714" lon="10.4548197"><ele>112.75</ele><time>2026-03-29T08:19:56.627Z</time></trkpt><trkpt lat="45.4248487" lon="10.4547431"><ele>113.0</ele><time>2026-03-29T08:19:57.63Z</time></trkpt><trkpt lat="45.4247227" lon="10.4546618"><ele>112.75</ele><time>2026-03-29T08:19:58.623Z</time></trkpt><trkpt lat="45.4245912" lon="10.4545862"><ele>112.5</ele><time>2026-03-29T08:19:59.629Z</time></trkpt><trkpt lat="45.4244766" lon="10.4545161"><ele>112.25</ele><time>2026-03-29T08:20:00.621Z</time></trkpt><trkpt lat="45.424368" lon="10.4544423"><ele>112.0</ele><time>2026-03-29T08:20:01.625Z</time></trkpt><trkpt lat="45.4242561" lon="10.4543709"><ele>112.0</ele><time>2026-03-29T08:20:02.629Z</time></trkpt><trkpt lat="45.4241391" lon="10.454303"><ele>112.0</ele><time>2026-03-29T08:20:03.628Z</time></trkpt><trkpt lat="45.42401" lon="10.4542475"><ele>112.0</ele><time>2026-03-29T08:20:04.626Z</time></trkpt><trkpt lat="45.4238729" lon="10.4541751"><ele>112.0</ele><time>2026-03-29T08:20:05.623Z</time></trkpt><trkpt lat="45.42372" lon="10.4540806"><ele>111.66666666666667</ele><time>2026-03-29T08:20:06.622Z</time></trkpt><trkpt lat="45.4235769" lon="10.4539887"><ele>111.33333333333334</ele><time>2026-03-29T08:20:07.62Z</time></trkpt><trkpt lat="45.4234177" lon="10.4538912"><ele>111.0</ele><time>2026-03-29T08:20:08.621Z</time></trkpt><trkpt lat="45.4232544" lon="10.4537918"><ele>110.66666666666666</ele><time>2026-03-29T08:20:09.618Z</time></trkpt><trkpt lat="45.4230964" lon="10.4536957"><ele>110.33333333333333</ele><time>2026-03-29T08:20:10.625Z</time></trkpt><trkpt lat="45.4229437" lon="10.453607"><ele>110.0</ele><time>2026-03-29T08:20:11.628Z</time></trkpt><trkpt lat="45.4227903" lon="10.4535129"><ele>110.0</ele><time>2026-03-29T08:20:12.627Z</time></trkpt><trkpt lat="45.4226422" lon="10.4534251"><ele>110.0</ele><time>2026-03-29T08:20:13.627Z</time></trkpt><trkpt lat="45.4225044" lon="10.4533224"><ele>110.0</ele><time>2026-03-29T08:20:14.629Z</time></trkpt><trkpt lat="45.4223704" lon="10.4532384"><ele>110.0</ele><time>2026-03-29T08:20:15.624Z</time></trkpt><trkpt lat="45.4222291" lon="10.4531451"><ele>110.0</ele><time>2026-03-29T08:20:16.63Z</time></trkpt><trkpt lat="45.4220814" lon="10.453066"><ele>110.0</ele><time>2026-03-29T08:20:17.624Z</time></trkpt><trkpt lat="45.4219207" lon="10.4529816"><ele>110.0</ele><time>2026-03-29T08:20:18.633Z</time></trkpt><trkpt lat="45.4217821" lon="10.4528854"><ele>110.0</ele><time>2026-03-29T08:20:19.625Z</time></trkpt><trkpt lat="45.4216424" lon="10.4527999"><ele>110.0</ele><time>2026-03-29T08:20:20.624Z</time></trkpt><trkpt lat="45.4214972" lon="10.4527099"><ele>110.0</ele><time>2026-03-29T08:20:21.626Z</time></trkpt><trkpt lat="45.4213545" lon="10.4526244"><ele>110.0</ele><time>2026-03-29T08:20:22.626Z</time></trkpt><trkpt lat="45.4212019" lon="10.452528"><ele>110.0</ele><time>2026-03-29T08:20:23.633Z</time></trkpt><trkpt lat="45.4210453" lon="10.4524334"><ele>109.33333333333333</ele><time>2026-03-29T08:20:24.633Z</time></trkpt><trkpt lat="45.4208817" lon="10.4523371"><ele>108.66666666666666</ele><time>2026-03-29T08:20:25.628Z</time></trkpt><trkpt lat="45.4207317" lon="10.4522362"><ele>108.0</ele><time>2026-03-29T08:20:26.622Z</time></trkpt><trkpt lat="45.4205973" lon="10.4521359"><ele>108.33333333333334</ele><time>2026-03-29T08:20:27.623Z</time></trkpt><trkpt lat="45.4204552" lon="10.4520378"><ele>108.66666666666667</ele><time>2026-03-29T08:20:28.623Z</time></trkpt><trkpt lat="45.4202954" lon="10.451942"><ele>109.0</ele><time>2026-03-29T08:20:29.631Z</time></trkpt><trkpt lat="45.4201248" lon="10.4518274"><ele>109.0</ele><time>2026-03-29T08:20:30.619Z</time></trkpt><trkpt lat="45.4199696" lon="10.4517294"><ele>109.0</ele><time>2026-03-29T08:20:31.628Z</time></trkpt><trkpt lat="45.4198074" lon="10.4516252"><ele>109.0</ele><time>2026-03-29T08:20:32.629Z</time></trkpt><trkpt lat="45.4196567" lon="10.4515339"><ele>108.33333333333334</ele><time>2026-03-29T08:20:33.624Z</time></trkpt><trkpt lat="45.4195041" lon="10.451435"><ele>107.66666666666666</ele><time>2026-03-29T08:20:34.63Z</time></trkpt><trkpt lat="45.4193528" lon="10.4513305"><ele>107.0</ele><time>2026-03-29T08:20:35.625Z</time></trkpt><trkpt lat="45.4191987" lon="10.4512319"><ele>106.66666666666666</ele><time>2026-03-29T08:20:36.626Z</time></trkpt><trkpt lat="45.4190504" lon="10.4511363"><ele>106.33333333333334</ele><time>2026-03-29T08:20:37.624Z</time></trkpt><trkpt lat="45.4188933" lon="10.4510287"><ele>106.0</ele><time>2026-03-29T08:20:38.619Z</time></trkpt><trkpt lat="45.4187461" lon="10.4509329"><ele>105.66666666666667</ele><time>2026-03-29T08:20:39.629Z</time></trkpt><trkpt lat="45.4185955" lon="10.4508467"><ele>105.33333333333334</ele><time>2026-03-29T08:20:40.622Z</time></trkpt><trkpt lat="45.4184339" lon="10.4507382"><ele>105.0</ele><time>2026-03-29T08:20:41.622Z</time></trkpt><trkpt lat="45.4182796" lon="10.4506308"><ele>105.0</ele><time>2026-03-29T08:20:42.618Z</time></trkpt><trkpt lat="45.4181193" lon="10.4505301"><ele>105.0</ele><time>2026-03-29T08:20:43.626Z</time></trkpt><trkpt lat="45.4179785" lon="10.4504385"><ele>105.0</ele><time>2026-03-29T08:20:44.62Z</time></trkpt><trkpt lat="45.4178393" lon="10.4503519"><ele>104.5</ele><time>2026-03-29T08:20:45.619Z</time></trkpt><trkpt lat="45.4176977" lon="10.4502709"><ele>104.0</ele><time>2026-03-29T08:20:46.619Z</time></trkpt><trkpt lat="45.4175565" lon="10.4501724"><ele>103.5</ele><time>2026-03-29T08:20:47.625Z</time></trkpt><trkpt lat="45.4174335" lon="10.4500975"><ele>103.0</ele><time>2026-03-29T08:20:48.617Z</time></trkpt><trkpt lat="45.4173278" lon="10.4500336"><ele>103.00000000000001</ele><time>2026-03-29T08:20:49.628Z</time></trkpt><trkpt lat="45.4172352" lon="10.4499721"><ele>103.0</ele><time>2026-03-29T08:20:50.616Z</time></trkpt><trkpt lat="45.4171743" lon="10.4499264"><ele>103.0</ele><time>2026-03-29T08:20:51.615Z</time></trkpt><trkpt lat="45.4171137" lon="10.4498834"><ele>103.0</ele><time>2026-03-29T08:20:52.619Z</time></trkpt><trkpt lat="45.4170301" lon="10.4498931"><ele>103.00000000000001</ele><time>2026-03-29T08:20:54.629Z</time></trkpt><trkpt lat="45.4169603" lon="10.4499286"><ele>103.0</ele><time>2026-03-29T08:20:55.613Z</time></trkpt><trkpt lat="45.4168877" lon="10.4499852"><ele>103.5</ele><time>2026-03-29T08:20:56.614Z</time></trkpt><trkpt lat="45.4168136" lon="10.4500929"><ele>104.0</ele><time>2026-03-29T08:20:57.617Z</time></trkpt><trkpt lat="45.4167477" lon="10.4502363"><ele>104.5</ele><time>2026-03-29T08:20:58.618Z</time></trkpt><trkpt lat="45.4166639" lon="10.4504006"><ele>105.0</ele><time>2026-03-29T08:20:59.617Z</time></trkpt><trkpt lat="45.4165673" lon="10.4505738"><ele>105.0</ele><time>2026-03-29T08:21:00.624Z</time></trkpt><trkpt lat="45.4164411" lon="10.4507778"><ele>105.0</ele><time>2026-03-29T08:21:01.626Z</time></trkpt><trkpt lat="45.4163426" lon="10.4509413"><ele>105.0</ele><time>2026-03-29T08:21:02.621Z</time></trkpt><trkpt lat="45.4162484" lon="10.4510991"><ele>105.25</ele><time>2026-03-29T08:21:03.635Z</time></trkpt><trkpt lat="45.4161378" lon="10.4512472"><ele>105.5</ele><time>2026-03-29T08:21:04.62Z</time></trkpt><trkpt lat="45.4160455" lon="10.4513892"><ele>105.75</ele><time>2026-03-29T08:21:05.621Z</time></trkpt><trkpt lat="45.4159492" lon="10.4515142"><ele>106.0</ele><time>2026-03-29T08:21:06.614Z</time></trkpt><trkpt lat="45.4158624" lon="10.4516614"><ele>105.5</ele><time>2026-03-29T08:21:07.614Z</time></trkpt><trkpt lat="45.4157958" lon="10.4517784"><ele>105.0</ele><time>2026-03-29T08:21:08.62Z</time></trkpt><trkpt lat="45.4157176" lon="10.4518968"><ele>104.5</ele><time>2026-03-29T08:21:09.621Z</time></trkpt><trkpt lat="45.4156319" lon="10.4520115"><ele>104.0</ele><time>2026-03-29T08:21:10.622Z</time></trkpt><trkpt lat="45.4155486" lon="10.4521416"><ele>103.75</ele><time>2026-03-29T08:21:11.618Z</time></trkpt><trkpt lat="45.4154688" lon="10.4522698"><ele>103.5</ele><time>2026-03-29T08:21:12.628Z</time></trkpt><trkpt lat="45.4153987" lon="10.4523894"><ele>103.25</ele><time>2026-03-29T08:21:13.624Z</time></trkpt><trkpt lat="45.4153216" lon="10.452521"><ele>103.0</ele><time>2026-03-29T08:21:14.623Z</time></trkpt><trkpt lat="45.4152411" lon="10.452651"><ele>103.0</ele><time>2026-03-29T08:21:15.617Z</time></trkpt><trkpt lat="45.4151555" lon="10.4527811"><ele>103.0</ele><time>2026-03-29T08:21:16.619Z</time></trkpt><trkpt lat="45.4150713" lon="10.4529227"><ele>103.0</ele><time>2026-03-29T08:21:17.618Z</time></trkpt><trkpt lat="45.4149813" lon="10.4530641"><ele>103.0</ele><time>2026-03-29T08:21:18.616Z</time></trkpt><trkpt lat="45.4149073" lon="10.4531851"><ele>103.60000000000001</ele><time>2026-03-29T08:21:19.62Z</time></trkpt><trkpt lat="45.4148488" lon="10.4532635"><ele>104.2</ele><time>2026-03-29T08:21:20.629Z</time></trkpt><trkpt lat="45.4147832" lon="10.4533522"><ele>104.8</ele><time>2026-03-29T08:21:22.622Z</time></trkpt><trkpt lat="45.414853" lon="10.453416"><ele>105.4</ele><time>2026-03-29T08:21:36.629Z</time></trkpt><trkpt lat="45.4149493" lon="10.4535055"><ele>106.0</ele><time>2026-03-29T08:21:38.612Z</time></trkpt><trkpt lat="45.4150246" lon="10.453574"><ele>106.0</ele><time>2026-03-29T08:21:39.607Z</time></trkpt><trkpt lat="45.4151546" lon="10.4536882"><ele>106.0</ele><time>2026-03-29T08:21:40.609Z</time></trkpt><trkpt lat="45.4152989" lon="10.4538075"><ele>106.0</ele><time>2026-03-29T08:21:41.617Z</time></trkpt><trkpt lat="45.4154568" lon="10.4539377"><ele>106.0</ele><time>2026-03-29T08:21:42.623Z</time></trkpt><trkpt lat="45.4155905" lon="10.4540478"><ele>106.0</ele><time>2026-03-29T08:21:43.614Z</time></trkpt><trkpt lat="45.4157064" lon="10.4541422"><ele>106.0</ele><time>2026-03-29T08:21:44.618Z</time></trkpt><trkpt lat="45.4157937" lon="10.4542304"><ele>106.0</ele><time>2026-03-29T08:21:45.619Z</time></trkpt><trkpt lat="45.4158779" lon="10.4543039"><ele>106.00000000000001</ele><time>2026-03-29T08:21:46.615Z</time></trkpt><trkpt lat="45.4159393" lon="10.4543741"><ele>106.0</ele><time>2026-03-29T08:21:47.613Z</time></trkpt><trkpt lat="45.4159957" lon="10.4544649"><ele>106.0</ele><time>2026-03-29T08:21:48.609Z</time></trkpt><trkpt lat="45.4160239" lon="10.4545599"><ele>106.0</ele><time>2026-03-29T08:21:49.622Z</time></trkpt><trkpt lat="45.4160225" lon="10.454682"><ele>106.00000000000001</ele><time>2026-03-29T08:21:50.632Z</time></trkpt><trkpt lat="45.4160094" lon="10.4548503"><ele>106.0</ele><time>2026-03-29T08:21:51.613Z</time></trkpt><trkpt lat="45.4159736" lon="10.455041"><ele>106.0</ele><time>2026-03-29T08:21:52.613Z</time></trkpt><trkpt lat="45.415939" lon="10.4552455"><ele>106.0</ele><time>2026-03-29T08:21:53.62Z</time></trkpt><trkpt lat="45.4158905" lon="10.4554769"><ele>106.0</ele><time>2026-03-29T08:21:54.615Z</time></trkpt><trkpt lat="45.4158485" lon="10.4557001"><ele>106.0</ele><time>2026-03-29T08:21:55.618Z</time></trkpt><trkpt lat="45.4158166" lon="10.4559361"><ele>106.0</ele><time>2026-03-29T08:21:56.618Z</time></trkpt><trkpt lat="45.4157746" lon="10.4561732"><ele>106.0</ele><time>2026-03-29T08:21:57.617Z</time></trkpt><trkpt lat="45.4157449" lon="10.4564065"><ele>106.0</ele><time>2026-03-29T08:21:58.617Z</time></trkpt><trkpt lat="45.4157109" lon="10.4566441"><ele>106.0</ele><time>2026-03-29T08:21:59.617Z</time></trkpt><trkpt lat="45.415677" lon="10.4568807"><ele>106.0</ele><time>2026-03-29T08:22:00.614Z</time></trkpt><trkpt lat="45.4156556" lon="10.4570744"><ele>105.75</ele><time>2026-03-29T08:22:01.626Z</time></trkpt><trkpt lat="45.4156312" lon="10.4572627"><ele>105.5</ele><time>2026-03-29T08:22:02.615Z</time></trkpt><trkpt lat="45.4156077" lon="10.4574337"><ele>105.25</ele><time>2026-03-29T08:22:03.62Z</time></trkpt><trkpt lat="45.4155867" lon="10.4576189"><ele>105.0</ele><time>2026-03-29T08:22:04.616Z</time></trkpt><trkpt lat="45.4155716" lon="10.4577994"><ele>104.5</ele><time>2026-03-29T08:22:05.617Z</time></trkpt><trkpt lat="45.415559" lon="10.4580002"><ele>104.0</ele><time>2026-03-29T08:22:06.617Z</time></trkpt><trkpt lat="45.4155452" lon="10.4582134"><ele>103.5</ele><time>2026-03-29T08:22:07.615Z</time></trkpt><trkpt lat="45.4155353" lon="10.4584354"><ele>103.0</ele><time>2026-03-29T08:22:08.626Z</time></trkpt><trkpt lat="45.4155323" lon="10.4586685"><ele>103.33333333333334</ele><time>2026-03-29T08:22:09.616Z</time></trkpt><trkpt lat="45.4155255" lon="10.4588975"><ele>103.66666666666666</ele><time>2026-03-29T08:22:10.62Z</time></trkpt><trkpt lat="45.4155185" lon="10.4591179"><ele>104.0</ele><time>2026-03-29T08:22:11.617Z</time></trkpt><trkpt lat="45.4155087" lon="10.4593455"><ele>104.0</ele><time>2026-03-29T08:22:12.617Z</time></trkpt><trkpt lat="45.4154948" lon="10.4595472"><ele>104.0</ele><time>2026-03-29T08:22:13.617Z</time></trkpt><trkpt lat="45.4154886" lon="10.4597582"><ele>104.0</ele><time>2026-03-29T08:22:14.624Z</time></trkpt><trkpt lat="45.4154817" lon="10.4599631"><ele>104.0</ele><time>2026-03-29T08:22:15.619Z</time></trkpt><trkpt lat="45.4154748" lon="10.4601747"><ele>104.0</ele><time>2026-03-29T08:22:16.614Z</time></trkpt><trkpt lat="45.415472" lon="10.4603884"><ele>104.0</ele><time>2026-03-29T08:22:17.618Z</time></trkpt><trkpt lat="45.4154675" lon="10.4606024"><ele>104.0</ele><time>2026-03-29T08:22:18.617Z</time></trkpt><trkpt lat="45.4154542" lon="10.460822"><ele>104.0</ele><time>2026-03-29T08:22:19.617Z</time></trkpt><trkpt lat="45.4154433" lon="10.461029"><ele>104.0</ele><time>2026-03-29T08:22:20.614Z</time></trkpt><trkpt lat="45.4154253" lon="10.4612312"><ele>104.0</ele><time>2026-03-29T08:22:21.625Z</time></trkpt><trkpt lat="45.415407" lon="10.4614251"><ele>104.0</ele><time>2026-03-29T08:22:22.62Z</time></trkpt><trkpt lat="45.4154028" lon="10.461611"><ele>104.0</ele><time>2026-03-29T08:22:23.617Z</time></trkpt><trkpt lat="45.4153999" lon="10.461822"><ele>104.0</ele><time>2026-03-29T08:22:24.616Z</time></trkpt><trkpt lat="45.4153988" lon="10.4620486"><ele>104.0</ele><time>2026-03-29T08:22:25.625Z</time></trkpt><trkpt lat="45.4153851" lon="10.4622751"><ele>104.0</ele><time>2026-03-29T08:22:26.621Z</time></trkpt><trkpt lat="45.4153663" lon="10.4624805"><ele>104.0</ele><time>2026-03-29T08:22:27.615Z</time></trkpt><trkpt lat="45.4153501" lon="10.4626593"><ele>104.0</ele><time>2026-03-29T08:22:28.614Z</time></trkpt><trkpt lat="45.4153528" lon="10.4628343"><ele>104.0</ele><time>2026-03-29T08:22:29.623Z</time></trkpt><trkpt lat="45.4153578" lon="10.463021"><ele>104.25</ele><time>2026-03-29T08:22:30.623Z</time></trkpt><trkpt lat="45.4153608" lon="10.4632347"><ele>104.5</ele><time>2026-03-29T08:22:31.62Z</time></trkpt><trkpt lat="45.4153845" lon="10.4634472"><ele>104.75</ele><time>2026-03-29T08:22:32.616Z</time></trkpt><trkpt lat="45.4154088" lon="10.4636393"><ele>105.0</ele><time>2026-03-29T08:22:33.618Z</time></trkpt><trkpt lat="45.4154049" lon="10.4638425"><ele>105.6</ele><time>2026-03-29T08:22:34.619Z</time></trkpt><trkpt lat="45.4154148" lon="10.464011"><ele>106.2</ele><time>2026-03-29T08:22:35.615Z</time></trkpt><trkpt lat="45.4154317" lon="10.4641508"><ele>106.80000000000001</ele><time>2026-03-29T08:22:36.618Z</time></trkpt><trkpt lat="45.415434" lon="10.4642855"><ele>107.4</ele><time>2026-03-29T08:22:37.619Z</time></trkpt><trkpt lat="45.4154404" lon="10.4644163"><ele>108.0</ele><time>2026-03-29T08:22:38.622Z</time></trkpt><trkpt lat="45.4154552" lon="10.4645376"><ele>108.2</ele><time>2026-03-29T08:22:39.623Z</time></trkpt><trkpt lat="45.415478" lon="10.4646647"><ele>108.4</ele><time>2026-03-29T08:22:40.62Z</time></trkpt><trkpt lat="45.4155031" lon="10.4647955"><ele>108.60000000000001</ele><time>2026-03-29T08:22:41.614Z</time></trkpt><trkpt lat="45.4155245" lon="10.4649493"><ele>108.80000000000001</ele><time>2026-03-29T08:22:42.618Z</time></trkpt><trkpt lat="45.4155407" lon="10.4651267"><ele>109.0</ele><time>2026-03-29T08:22:43.618Z</time></trkpt><trkpt lat="45.4155528" lon="10.4653159"><ele>108.33333333333334</ele><time>2026-03-29T08:22:44.625Z</time></trkpt><trkpt lat="45.4155548" lon="10.4655248"><ele>107.66666666666666</ele><time>2026-03-29T08:22:45.615Z</time></trkpt><trkpt lat="45.4155616" lon="10.4657415"><ele>107.0</ele><time>2026-03-29T08:22:46.621Z</time></trkpt><trkpt lat="45.4155701" lon="10.4659679"><ele>107.0</ele><time>2026-03-29T08:22:47.637Z</time></trkpt><trkpt lat="45.4155841" lon="10.4661873"><ele>107.0</ele><time>2026-03-29T08:22:48.628Z</time></trkpt><trkpt lat="45.4155929" lon="10.466391"><ele>107.0</ele><time>2026-03-29T08:22:49.622Z</time></trkpt><trkpt lat="45.4156118" lon="10.4665954"><ele>107.0</ele><time>2026-03-29T08:22:50.624Z</time></trkpt><trkpt lat="45.4156134" lon="10.4668022"><ele>107.0</ele><time>2026-03-29T08:22:51.62Z</time></trkpt><trkpt lat="45.4156142" lon="10.4670138"><ele>107.0</ele><time>2026-03-29T08:22:52.629Z</time></trkpt><trkpt lat="45.415608" lon="10.4672198"><ele>107.0</ele><time>2026-03-29T08:22:53.628Z</time></trkpt><trkpt lat="45.4155947" lon="10.4674298"><ele>107.0</ele><time>2026-03-29T08:22:54.619Z</time></trkpt><trkpt lat="45.4155755" lon="10.4676358"><ele>107.0</ele><time>2026-03-29T08:22:55.628Z</time></trkpt><trkpt lat="45.415551" lon="10.4678444"><ele>107.0</ele><time>2026-03-29T08:22:56.619Z</time></trkpt><trkpt lat="45.4155151" lon="10.4680395"><ele>107.0</ele><time>2026-03-29T08:22:57.619Z</time></trkpt><trkpt lat="45.415494" lon="10.468249"><ele>107.0</ele><time>2026-03-29T08:22:58.616Z</time></trkpt><trkpt lat="45.4154726" lon="10.4684418"><ele>107.0</ele><time>2026-03-29T08:22:59.624Z</time></trkpt><trkpt lat="45.4154449" lon="10.4686496"><ele>107.0</ele><time>2026-03-29T08:23:00.616Z</time></trkpt><trkpt lat="45.4154157" lon="10.4688653"><ele>107.0</ele><time>2026-03-29T08:23:01.625Z</time></trkpt><trkpt lat="45.4153968" lon="10.4690951"><ele>107.0</ele><time>2026-03-29T08:23:02.618Z</time></trkpt><trkpt lat="45.4153793" lon="10.4693158"><ele>107.0</ele><time>2026-03-29T08:23:03.62Z</time></trkpt><trkpt lat="45.4153464" lon="10.4695497"><ele>107.0</ele><time>2026-03-29T08:23:04.617Z</time></trkpt><trkpt lat="45.4153164" lon="10.4697621"><ele>107.25</ele><time>2026-03-29T08:23:05.621Z</time></trkpt><trkpt lat="45.415289" lon="10.4699648"><ele>107.5</ele><time>2026-03-29T08:23:06.617Z</time></trkpt><trkpt lat="45.4152729" lon="10.4701758"><ele>107.75</ele><time>2026-03-29T08:23:07.62Z</time></trkpt><trkpt lat="45.4152615" lon="10.4703923"><ele>108.0</ele><time>2026-03-29T08:23:08.617Z</time></trkpt><trkpt lat="45.4152402" lon="10.4706335"><ele>108.66666666666666</ele><time>2026-03-29T08:23:09.617Z</time></trkpt><trkpt lat="45.4152154" lon="10.4708673"><ele>109.33333333333333</ele><time>2026-03-29T08:23:10.619Z</time></trkpt><trkpt lat="45.4151979" lon="10.4710918"><ele>110.0</ele><time>2026-03-29T08:23:11.614Z</time></trkpt><trkpt lat="45.4151815" lon="10.4712859"><ele>110.33333333333333</ele><time>2026-03-29T08:23:12.614Z</time></trkpt><trkpt lat="45.4151658" lon="10.4715016"><ele>110.66666666666666</ele><time>2026-03-29T08:23:13.617Z</time></trkpt><trkpt lat="45.415147" lon="10.4717061"><ele>111.0</ele><time>2026-03-29T08:23:14.618Z</time></trkpt><trkpt lat="45.4151243" lon="10.4719413"><ele>111.0</ele><time>2026-03-29T08:23:15.617Z</time></trkpt><trkpt lat="45.4150891" lon="10.4721664"><ele>111.0</ele><time>2026-03-29T08:23:16.618Z</time></trkpt><trkpt lat="45.4150729" lon="10.4723761"><ele>111.0</ele><time>2026-03-29T08:23:17.622Z</time></trkpt><trkpt lat="45.415058" lon="10.4725751"><ele>111.0</ele><time>2026-03-29T08:23:18.616Z</time></trkpt><trkpt lat="45.4150301" lon="10.4727192"><ele>111.0</ele><time>2026-03-29T08:23:19.618Z</time></trkpt><trkpt lat="45.4150283" lon="10.4728312"><ele>111.0</ele><time>2026-03-29T08:23:20.616Z</time></trkpt><trkpt lat="45.4150211" lon="10.4729277"><ele>111.0</ele><time>2026-03-29T08:23:21.614Z</time></trkpt><trkpt lat="45.4150072" lon="10.4730764"><ele>111.0</ele><time>2026-03-29T08:23:23.622Z</time></trkpt><trkpt lat="45.4149665" lon="10.4731673"><ele>111.0</ele><time>2026-03-29T08:23:27.621Z</time></trkpt><trkpt lat="45.4150148" lon="10.4730769"><ele>111.0</ele><time>2026-03-29T08:23:36.626Z</time></trkpt><trkpt lat="45.4150346" lon="10.4728677"><ele>111.0</ele><time>2026-03-29T08:23:38.608Z</time></trkpt><trkpt lat="45.4150445" lon="10.4726798"><ele>111.0</ele><time>2026-03-29T08:23:39.609Z</time></trkpt><trkpt lat="45.415052" lon="10.4724993"><ele>111.0</ele><time>2026-03-29T08:23:40.613Z</time></trkpt><trkpt lat="45.4150624" lon="10.4723459"><ele>111.0</ele><time>2026-03-29T08:23:41.615Z</time></trkpt><trkpt lat="45.4150826" lon="10.4722072"><ele>111.0</ele><time>2026-03-29T08:23:42.607Z</time></trkpt><trkpt lat="45.4150904" lon="10.4721029"><ele>111.0</ele><time>2026-03-29T08:23:43.602Z</time></trkpt><trkpt lat="45.4151063" lon="10.4719903"><ele>111.0</ele><time>2026-03-29T08:23:45.617Z</time></trkpt><trkpt lat="45.4152234" lon="10.4719932"><ele>111.0</ele><time>2026-03-29T08:23:47.62Z</time></trkpt><trkpt lat="45.4153264" lon="10.472021"><ele>111.0</ele><time>2026-03-29T08:23:48.618Z</time></trkpt><trkpt lat="45.4154557" lon="10.4720549"><ele>111.0</ele><time>2026-03-29T08:23:49.616Z</time></trkpt><trkpt lat="45.415603" lon="10.4720651"><ele>111.0</ele><time>2026-03-29T08:23:50.613Z</time></trkpt><trkpt lat="45.4157552" lon="10.4720739"><ele>111.0</ele><time>2026-03-29T08:23:51.621Z</time></trkpt><trkpt lat="45.4159074" lon="10.4721064"><ele>111.0</ele><time>2026-03-29T08:23:52.623Z</time></trkpt><trkpt lat="45.4160681" lon="10.4721308"><ele>111.0</ele><time>2026-03-29T08:23:53.621Z</time></trkpt><trkpt lat="45.4162051" lon="10.47215"><ele>111.0</ele><time>2026-03-29T08:23:54.625Z</time></trkpt><trkpt lat="45.4163528" lon="10.4721723"><ele>111.0</ele><time>2026-03-29T08:23:55.624Z</time></trkpt><trkpt lat="45.4165035" lon="10.4721948"><ele>111.0</ele><time>2026-03-29T08:23:56.621Z</time></trkpt><trkpt lat="45.416654" lon="10.4721964"><ele>111.0</ele><time>2026-03-29T08:23:57.619Z</time></trkpt><trkpt lat="45.4168181" lon="10.4722114"><ele>111.0</ele><time>2026-03-29T08:23:58.618Z</time></trkpt><trkpt lat="45.4169681" lon="10.4722308"><ele>111.0</ele><time>2026-03-29T08:23:59.619Z</time></trkpt><trkpt lat="45.4171267" lon="10.4722532"><ele>111.0</ele><time>2026-03-29T08:24:00.612Z</time></trkpt><trkpt lat="45.417301" lon="10.4722846"><ele>111.0</ele><time>2026-03-29T08:24:01.613Z</time></trkpt><trkpt lat="45.4174638" lon="10.4723053"><ele>111.25</ele><time>2026-03-29T08:24:02.613Z</time></trkpt><trkpt lat="45.4176141" lon="10.4723149"><ele>111.5</ele><time>2026-03-29T08:24:03.613Z</time></trkpt><trkpt lat="45.4177628" lon="10.4723322"><ele>111.75</ele><time>2026-03-29T08:24:04.616Z</time></trkpt><trkpt lat="45.4178907" lon="10.4723564"><ele>112.0</ele><time>2026-03-29T08:24:05.618Z</time></trkpt><trkpt lat="45.4180448" lon="10.4723781"><ele>112.0</ele><time>2026-03-29T08:24:06.615Z</time></trkpt><trkpt lat="45.4181991" lon="10.4723942"><ele>112.0</ele><time>2026-03-29T08:24:07.624Z</time></trkpt><trkpt lat="45.4183394" lon="10.4724131"><ele>112.0</ele><time>2026-03-29T08:24:08.622Z</time></trkpt><trkpt lat="45.4184867" lon="10.4724274"><ele>112.0</ele><time>2026-03-29T08:24:09.623Z</time></trkpt><trkpt lat="45.4186273" lon="10.4724205"><ele>112.0</ele><time>2026-03-29T08:24:10.622Z</time></trkpt><trkpt lat="45.4187697" lon="10.4724391"><ele>112.0</ele><time>2026-03-29T08:24:11.611Z</time></trkpt><trkpt lat="45.4189095" lon="10.472448"><ele>112.0</ele><time>2026-03-29T08:24:12.619Z</time></trkpt><trkpt lat="45.4190358" lon="10.4724613"><ele>112.0</ele><time>2026-03-29T08:24:13.615Z</time></trkpt><trkpt lat="45.4191578" lon="10.4724859"><ele>111.83333333333334</ele><time>2026-03-29T08:24:14.618Z</time></trkpt><trkpt lat="45.4192563" lon="10.4724909"><ele>111.66666666666667</ele><time>2026-03-29T08:24:15.617Z</time></trkpt><trkpt lat="45.4193409" lon="10.4724975"><ele>111.5</ele><time>2026-03-29T08:24:16.617Z</time></trkpt><trkpt lat="45.4194109" lon="10.4725146"><ele>111.33333333333334</ele><time>2026-03-29T08:24:17.629Z</time></trkpt><trkpt lat="45.4195044" lon="10.4725422"><ele>111.16666666666667</ele><time>2026-03-29T08:24:19.615Z</time></trkpt><trkpt lat="45.4195257" lon="10.4726437"><ele>111.0</ele><time>2026-03-29T08:24:22.63Z</time></trkpt><trkpt lat="45.419486" lon="10.4728061"><ele>111.0</ele><time>2026-03-29T08:24:24.616Z</time></trkpt><trkpt lat="45.4194459" lon="10.4729188"><ele>111.0</ele><time>2026-03-29T08:24:25.625Z</time></trkpt><trkpt lat="45.4194082" lon="10.4730385"><ele>111.0</ele><time>2026-03-29T08:24:26.62Z</time></trkpt><trkpt lat="45.4193732" lon="10.4731525"><ele>111.0</ele><time>2026-03-29T08:24:27.615Z</time></trkpt><trkpt lat="45.4193426" lon="10.4732443"><ele>111.0</ele><time>2026-03-29T08:24:28.628Z</time></trkpt><trkpt lat="45.4193165" lon="10.4733408"><ele>111.0</ele><time>2026-03-29T08:24:29.62Z</time></trkpt><trkpt lat="45.4192921" lon="10.473449"><ele>111.0</ele><time>2026-03-29T08:24:30.617Z</time></trkpt><trkpt lat="45.4192569" lon="10.4735718"><ele>111.0</ele><time>2026-03-29T08:24:31.619Z</time></trkpt><trkpt lat="45.4192305" lon="10.4737264"><ele>111.0</ele><time>2026-03-29T08:24:32.614Z</time></trkpt><trkpt lat="45.4191967" lon="10.4738952"><ele>111.0</ele><time>2026-03-29T08:24:33.62Z</time></trkpt><trkpt lat="45.4191551" lon="10.4740688"><ele>111.0</ele><time>2026-03-29T08:24:34.62Z</time></trkpt><trkpt lat="45.419109" lon="10.4742421"><ele>111.0</ele><time>2026-03-29T08:24:35.619Z</time></trkpt><trkpt lat="45.4190627" lon="10.4744102"><ele>111.0</ele><time>2026-03-29T08:24:36.626Z</time></trkpt><trkpt lat="45.4190201" lon="10.474582"><ele>111.0</ele><time>2026-03-29T08:24:37.622Z</time></trkpt><trkpt lat="45.4189829" lon="10.474744"><ele>111.0</ele><time>2026-03-29T08:24:38.637Z</time></trkpt><trkpt lat="45.4189467" lon="10.4748977"><ele>111.0</ele><time>2026-03-29T08:24:39.623Z</time></trkpt><trkpt lat="45.4189173" lon="10.4750689"><ele>111.0</ele><time>2026-03-29T08:24:40.622Z</time></trkpt><trkpt lat="45.4188958" lon="10.4752297"><ele>111.0</ele><time>2026-03-29T08:24:41.626Z</time></trkpt><trkpt lat="45.4188823" lon="10.4753941"><ele>111.5</ele><time>2026-03-29T08:24:42.625Z</time></trkpt><trkpt lat="45.4188738" lon="10.4755571"><ele>112.0</ele><time>2026-03-29T08:24:43.626Z</time></trkpt><trkpt lat="45.4188683" lon="10.4757226"><ele>112.5</ele><time>2026-03-29T08:24:44.622Z</time></trkpt><trkpt lat="45.4188616" lon="10.4758835"><ele>113.0</ele><time>2026-03-29T08:24:45.629Z</time></trkpt><trkpt lat="45.4188533" lon="10.4760427"><ele>112.99999999999999</ele><time>2026-03-29T08:24:46.621Z</time></trkpt><trkpt lat="45.4188456" lon="10.4761751"><ele>113.0</ele><time>2026-03-29T08:24:47.621Z</time></trkpt><trkpt lat="45.418836" lon="10.4762876"><ele>113.0</ele><time>2026-03-29T08:24:48.632Z</time></trkpt><trkpt lat="45.4188198" lon="10.4763837"><ele>113.0</ele><time>2026-03-29T08:24:49.613Z</time></trkpt><trkpt lat="45.4187849" lon="10.4765"><ele>112.99999999999999</ele><time>2026-03-29T08:24:51.62Z</time></trkpt><trkpt lat="45.4187248" lon="10.4765761"><ele>113.0</ele><time>2026-03-29T08:24:53.628Z</time></trkpt><trkpt lat="45.418653" lon="10.4766534"><ele>113.33333333333333</ele><time>2026-03-29T08:25:03.626Z</time></trkpt><trkpt lat="45.4186243" lon="10.4767449"><ele>113.66666666666666</ele><time>2026-03-29T08:25:04.612Z</time></trkpt><trkpt lat="45.4186048" lon="10.4768411"><ele>114.0</ele><time>2026-03-29T08:25:05.62Z</time></trkpt><trkpt lat="45.4185957" lon="10.4769491"><ele>114.33333333333334</ele><time>2026-03-29T08:25:06.619Z</time></trkpt><trkpt lat="45.4185791" lon="10.477068"><ele>114.66666666666667</ele><time>2026-03-29T08:25:07.615Z</time></trkpt><trkpt lat="45.418536" lon="10.4771898"><ele>115.0</ele><time>2026-03-29T08:25:08.618Z</time></trkpt><trkpt lat="45.4184698" lon="10.4773365"><ele>116.25</ele><time>2026-03-29T08:25:09.642Z</time></trkpt><trkpt lat="45.4183927" lon="10.4774829"><ele>117.5</ele><time>2026-03-29T08:25:10.629Z</time></trkpt><trkpt lat="45.4183064" lon="10.4776256"><ele>118.75</ele><time>2026-03-29T08:25:11.632Z</time></trkpt><trkpt lat="45.418213" lon="10.4777691"><ele>120.0</ele><time>2026-03-29T08:25:12.627Z</time></trkpt><trkpt lat="45.4181259" lon="10.4778936"><ele>119.5</ele><time>2026-03-29T08:25:13.626Z</time></trkpt><trkpt lat="45.4180499" lon="10.4780248"><ele>119.0</ele><time>2026-03-29T08:25:14.624Z</time></trkpt><trkpt lat="45.4179902" lon="10.4781727"><ele>118.5</ele><time>2026-03-29T08:25:15.623Z</time></trkpt><trkpt lat="45.4179481" lon="10.4783577"><ele>118.0</ele><time>2026-03-29T08:25:16.622Z</time></trkpt><trkpt lat="45.4179062" lon="10.4785524"><ele>118.0</ele><time>2026-03-29T08:25:17.624Z</time></trkpt><trkpt lat="45.4178559" lon="10.478763"><ele>118.0</ele><time>2026-03-29T08:25:18.622Z</time></trkpt><trkpt lat="45.4177928" lon="10.4788998"><ele>118.0</ele><time>2026-03-29T08:25:19.625Z</time></trkpt><trkpt lat="45.4177505" lon="10.4790621"><ele>118.0</ele><time>2026-03-29T08:25:20.617Z</time></trkpt><trkpt lat="45.4177379" lon="10.4791748"><ele>118.80000000000001</ele><time>2026-03-29T08:25:21.62Z</time></trkpt><trkpt lat="45.4177417" lon="10.4793103"><ele>119.60000000000001</ele><time>2026-03-29T08:25:22.615Z</time></trkpt><trkpt lat="45.4177621" lon="10.4794593"><ele>120.39999999999999</ele><time>2026-03-29T08:25:23.609Z</time></trkpt><trkpt lat="45.4178252" lon="10.4795962"><ele>121.19999999999999</ele><time>2026-03-29T08:25:24.617Z</time></trkpt><trkpt lat="45.4179097" lon="10.479742"><ele>122.0</ele><time>2026-03-29T08:25:25.617Z</time></trkpt><trkpt lat="45.4179735" lon="10.4798976"><ele>123.25</ele><time>2026-03-29T08:25:26.621Z</time></trkpt><trkpt lat="45.4180343" lon="10.4800693"><ele>124.5</ele><time>2026-03-29T08:25:27.624Z</time></trkpt><trkpt lat="45.4180825" lon="10.4802482"><ele>125.75</ele><time>2026-03-29T08:25:28.622Z</time></trkpt><trkpt lat="45.4181345" lon="10.4804176"><ele>127.0</ele><time>2026-03-29T08:25:29.645Z</time></trkpt><trkpt lat="45.4181721" lon="10.4805699"><ele>127.0</ele><time>2026-03-29T08:25:30.623Z</time></trkpt><trkpt lat="45.4182248" lon="10.4807131"><ele>126.99999999999999</ele><time>2026-03-29T08:25:31.622Z</time></trkpt><trkpt lat="45.4182865" lon="10.480831"><ele>126.99999999999999</ele><time>2026-03-29T08:25:32.615Z</time></trkpt><trkpt lat="45.4183562" lon="10.4809328"><ele>127.0</ele><time>2026-03-29T08:25:33.615Z</time></trkpt><trkpt lat="45.418431" lon="10.4810085"><ele>127.0</ele><time>2026-03-29T08:25:34.61Z</time></trkpt><trkpt lat="45.4185206" lon="10.4810733"><ele>127.0</ele><time>2026-03-29T08:25:35.612Z</time></trkpt><trkpt lat="45.4186056" lon="10.4811353"><ele>126.99999999999999</ele><time>2026-03-29T08:25:36.612Z</time></trkpt><trkpt lat="45.4186794" lon="10.4811872"><ele>126.99999999999999</ele><time>2026-03-29T08:25:37.614Z</time></trkpt><trkpt lat="45.4187352" lon="10.4812464"><ele>127.0</ele><time>2026-03-29T08:25:38.614Z</time></trkpt><trkpt lat="45.4187959" lon="10.4814177"><ele>127.0</ele><time>2026-03-29T08:25:40.613Z</time></trkpt><trkpt lat="45.4187893" lon="10.4815209"><ele>126.50000000000001</ele><time>2026-03-29T08:25:41.616Z</time></trkpt><trkpt lat="45.4187585" lon="10.4816048"><ele>126.0</ele><time>2026-03-29T08:25:42.621Z</time></trkpt><trkpt lat="45.4187278" lon="10.4816838"><ele>125.5</ele><time>2026-03-29T08:25:43.622Z</time></trkpt><trkpt lat="45.4186613" lon="10.4818073"><ele>125.0</ele><time>2026-03-29T08:25:45.622Z</time></trkpt><trkpt lat="45.418615" lon="10.4819013"><ele>124.50000000000001</ele><time>2026-03-29T08:25:48.628Z</time></trkpt><trkpt lat="45.4186827" lon="10.4819721"><ele>124.0</ele><time>2026-03-29T08:25:50.63Z</time></trkpt><trkpt lat="45.4187311" lon="10.4820316"><ele>124.50000000000001</ele><time>2026-03-29T08:25:51.623Z</time></trkpt><trkpt lat="45.4187663" lon="10.4821076"><ele>125.0</ele><time>2026-03-29T08:25:52.611Z</time></trkpt><trkpt lat="45.4187961" lon="10.4822059"><ele>125.5</ele><time>2026-03-29T08:25:53.621Z</time></trkpt><trkpt lat="45.4188065" lon="10.482332"><ele>126.0</ele><time>2026-03-29T08:25:54.621Z</time></trkpt><trkpt lat="45.4188113" lon="10.482459"><ele>126.50000000000001</ele><time>2026-03-29T08:25:55.627Z</time></trkpt><trkpt lat="45.4188112" lon="10.4825772"><ele>127.0</ele><time>2026-03-29T08:25:56.628Z</time></trkpt><trkpt lat="45.418807" lon="10.4827017"><ele>127.00000000000001</ele><time>2026-03-29T08:25:57.625Z</time></trkpt><trkpt lat="45.4188116" lon="10.4828176"><ele>127.0</ele><time>2026-03-29T08:25:58.642Z</time></trkpt><trkpt lat="45.418811" lon="10.4829269"><ele>127.0</ele><time>2026-03-29T08:25:59.64Z</time></trkpt><trkpt lat="45.4188195" lon="10.4830343"><ele>127.0</ele><time>2026-03-29T08:26:00.619Z</time></trkpt><trkpt lat="45.4188496" lon="10.483128"><ele>127.00000000000001</ele><time>2026-03-29T08:26:01.628Z</time></trkpt><trkpt lat="45.4189112" lon="10.4832064"><ele>127.0</ele><time>2026-03-29T08:26:02.613Z</time></trkpt><trkpt lat="45.4190173" lon="10.48329"><ele>126.6</ele><time>2026-03-29T08:26:03.614Z</time></trkpt><trkpt lat="45.4191165" lon="10.4833477"><ele>126.19999999999999</ele><time>2026-03-29T08:26:04.615Z</time></trkpt><trkpt lat="45.4192056" lon="10.4834259"><ele>125.8</ele><time>2026-03-29T08:26:05.618Z</time></trkpt><trkpt lat="45.4192874" lon="10.4835142"><ele>125.4</ele><time>2026-03-29T08:26:06.61Z</time></trkpt><trkpt lat="45.4193472" lon="10.4836056"><ele>125.0</ele><time>2026-03-29T08:26:07.614Z</time></trkpt><trkpt lat="45.4193875" lon="10.4837057"><ele>125.6</ele><time>2026-03-29T08:26:08.623Z</time></trkpt><trkpt lat="45.419388" lon="10.4838848"><ele>126.2</ele><time>2026-03-29T08:26:10.616Z</time></trkpt><trkpt lat="45.4193581" lon="10.4839875"><ele>126.80000000000001</ele><time>2026-03-29T08:26:11.627Z</time></trkpt><trkpt lat="45.4193343" lon="10.4841316"><ele>127.4</ele><time>2026-03-29T08:26:12.626Z</time></trkpt><trkpt lat="45.4193197" lon="10.4842824"><ele>128.0</ele><time>2026-03-29T08:26:13.624Z</time></trkpt><trkpt lat="45.4193186" lon="10.4844304"><ele>128.0</ele><time>2026-03-29T08:26:14.623Z</time></trkpt><trkpt lat="45.4193313" lon="10.4845688"><ele>128.0</ele><time>2026-03-29T08:26:15.623Z</time></trkpt><trkpt lat="45.4193699" lon="10.484692"><ele>128.0</ele><time>2026-03-29T08:26:16.622Z</time></trkpt><trkpt lat="45.4194268" lon="10.484808"><ele>128.0</ele><time>2026-03-29T08:26:17.617Z</time></trkpt><trkpt lat="45.4195276" lon="10.4849225"><ele>128.0</ele><time>2026-03-29T08:26:18.624Z</time></trkpt><trkpt lat="45.4196533" lon="10.4850355"><ele>128.0</ele><time>2026-03-29T08:26:19.636Z</time></trkpt><trkpt lat="45.4197856" lon="10.4851468"><ele>128.0</ele><time>2026-03-29T08:26:20.621Z</time></trkpt><trkpt lat="45.4199267" lon="10.4852498"><ele>128.0</ele><time>2026-03-29T08:26:21.62Z</time></trkpt><trkpt lat="45.4200666" lon="10.4853188"><ele>128.0</ele><time>2026-03-29T08:26:22.623Z</time></trkpt><trkpt lat="45.4202204" lon="10.4853966"><ele>128.0</ele><time>2026-03-29T08:26:23.617Z</time></trkpt><trkpt lat="45.4203544" lon="10.4854345"><ele>128.0</ele><time>2026-03-29T08:26:24.618Z</time></trkpt><trkpt lat="45.4204889" lon="10.4854822"><ele>128.0</ele><time>2026-03-29T08:26:25.616Z</time></trkpt><trkpt lat="45.4206112" lon="10.4854814"><ele>130.75</ele><time>2026-03-29T08:26:26.615Z</time></trkpt><trkpt lat="45.4207561" lon="10.4854906"><ele>133.5</ele><time>2026-03-29T08:26:27.618Z</time></trkpt><trkpt lat="45.4208992" lon="10.4854634"><ele>136.25</ele><time>2026-03-29T08:26:28.623Z</time></trkpt><trkpt lat="45.4210297" lon="10.4854568"><ele>139.0</ele><time>2026-03-29T08:26:29.62Z</time></trkpt><trkpt lat="45.4211678" lon="10.4854361"><ele>139.25</ele><time>2026-03-29T08:26:30.619Z</time></trkpt><trkpt lat="45.4213043" lon="10.4854148"><ele>139.5</ele><time>2026-03-29T08:26:31.605Z</time></trkpt><trkpt lat="45.4214396" lon="10.4854716"><ele>139.75</ele><time>2026-03-29T08:26:32.606Z</time></trkpt><trkpt lat="45.4215854" lon="10.4855614"><ele>140.0</ele><time>2026-03-29T08:26:33.608Z</time></trkpt><trkpt lat="45.4216983" lon="10.4856188"><ele>140.0</ele><time>2026-03-29T08:26:34.611Z</time></trkpt><trkpt lat="45.421831" lon="10.4856735"><ele>140.0</ele><time>2026-03-29T08:26:35.61Z</time></trkpt><trkpt lat="45.421951" lon="10.4857024"><ele>140.0</ele><time>2026-03-29T08:26:36.621Z</time></trkpt><trkpt lat="45.4220501" lon="10.4857897"><ele>140.0</ele><time>2026-03-29T08:26:37.616Z</time></trkpt><trkpt lat="45.4221354" lon="10.4858692"><ele>140.4</ele><time>2026-03-29T08:26:38.625Z</time></trkpt><trkpt lat="45.4222227" lon="10.4859714"><ele>140.8</ele><time>2026-03-29T08:26:39.626Z</time></trkpt><trkpt lat="45.4223002" lon="10.4860814"><ele>141.2</ele><time>2026-03-29T08:26:40.618Z</time></trkpt><trkpt lat="45.4223668" lon="10.4862038"><ele>141.6</ele><time>2026-03-29T08:26:41.618Z</time></trkpt><trkpt lat="45.4224172" lon="10.4863448"><ele>142.0</ele><time>2026-03-29T08:26:42.611Z</time></trkpt><trkpt lat="45.4224547" lon="10.4865137"><ele>142.5</ele><time>2026-03-29T08:26:43.615Z</time></trkpt><trkpt lat="45.4224708" lon="10.4867"><ele>143.0</ele><time>2026-03-29T08:26:44.618Z</time></trkpt><trkpt lat="45.4224671" lon="10.4868938"><ele>143.5</ele><time>2026-03-29T08:26:45.613Z</time></trkpt><trkpt lat="45.4224389" lon="10.4870893"><ele>144.0</ele><time>2026-03-29T08:26:46.613Z</time></trkpt><trkpt lat="45.4224141" lon="10.4872966"><ele>144.75</ele><time>2026-03-29T08:26:47.615Z</time></trkpt><trkpt lat="45.422386" lon="10.4875121"><ele>145.5</ele><time>2026-03-29T08:26:48.622Z</time></trkpt><trkpt lat="45.4224058" lon="10.4877223"><ele>146.25</ele><time>2026-03-29T08:26:49.63Z</time></trkpt><trkpt lat="45.4224653" lon="10.4879096"><ele>147.0</ele><time>2026-03-29T08:26:50.617Z</time></trkpt><trkpt lat="45.4224925" lon="10.48809"><ele>147.75</ele><time>2026-03-29T08:26:51.617Z</time></trkpt><trkpt lat="45.4225604" lon="10.488247"><ele>148.5</ele><time>2026-03-29T08:26:52.613Z</time></trkpt><trkpt lat="45.4226494" lon="10.4883508"><ele>149.25</ele><time>2026-03-29T08:26:53.612Z</time></trkpt><trkpt lat="45.4227746" lon="10.4884375"><ele>150.0</ele><time>2026-03-29T08:26:54.608Z</time></trkpt><trkpt lat="45.4228987" lon="10.4885175"><ele>150.0</ele><time>2026-03-29T08:26:55.615Z</time></trkpt><trkpt lat="45.4230327" lon="10.4886254"><ele>150.0</ele><time>2026-03-29T08:26:56.611Z</time></trkpt><trkpt lat="45.4231896" lon="10.4887396"><ele>150.0</ele><time>2026-03-29T08:26:57.613Z</time></trkpt><trkpt lat="45.4233613" lon="10.4888782"><ele>151.0</ele><time>2026-03-29T08:26:58.62Z</time></trkpt><trkpt lat="45.4235037" lon="10.4889585"><ele>152.0</ele><time>2026-03-29T08:26:59.633Z</time></trkpt><trkpt lat="45.4236431" lon="10.489044"><ele>153.0</ele><time>2026-03-29T08:27:00.62Z</time></trkpt><trkpt lat="45.4237777" lon="10.4891498"><ele>153.0</ele><time>2026-03-29T08:27:01.618Z</time></trkpt><trkpt lat="45.4239057" lon="10.4892804"><ele>153.0</ele><time>2026-03-29T08:27:02.617Z</time></trkpt><trkpt lat="45.4240152" lon="10.4894408"><ele>153.0</ele><time>2026-03-29T08:27:03.609Z</time></trkpt><trkpt lat="45.4241261" lon="10.4896048"><ele>152.66666666666666</ele><time>2026-03-29T08:27:04.603Z</time></trkpt><trkpt lat="45.4242437" lon="10.4897834"><ele>152.33333333333331</ele><time>2026-03-29T08:27:05.611Z</time></trkpt><trkpt lat="45.4243696" lon="10.4899608"><ele>152.0</ele><time>2026-03-29T08:27:06.605Z</time></trkpt><trkpt lat="45.4244817" lon="10.4901323"><ele>152.0</ele><time>2026-03-29T08:27:07.612Z</time></trkpt><trkpt lat="45.4246069" lon="10.4902883"><ele>152.0</ele><time>2026-03-29T08:27:08.606Z</time></trkpt><trkpt lat="45.4247317" lon="10.4904488"><ele>152.0</ele><time>2026-03-29T08:27:09.605Z</time></trkpt><trkpt lat="45.4248676" lon="10.4905878"><ele>153.25</ele><time>2026-03-29T08:27:10.617Z</time></trkpt><trkpt lat="45.4249744" lon="10.4907269"><ele>154.5</ele><time>2026-03-29T08:27:11.602Z</time></trkpt><trkpt lat="45.4250433" lon="10.4908293"><ele>155.75</ele><time>2026-03-29T08:27:12.601Z</time></trkpt><trkpt lat="45.4251183" lon="10.4909492"><ele>157.0</ele><time>2026-03-29T08:27:13.603Z</time></trkpt><trkpt lat="45.4251738" lon="10.4910748"><ele>157.0</ele><time>2026-03-29T08:27:14.6Z</time></trkpt><trkpt lat="45.4251517" lon="10.4911748"><ele>157.0</ele><time>2026-03-29T08:27:15.61Z</time></trkpt><trkpt lat="45.425149" lon="10.4913397"><ele>157.0</ele><time>2026-03-29T08:27:16.614Z</time></trkpt><trkpt lat="45.4251418" lon="10.491503"><ele>157.0</ele><time>2026-03-29T08:27:17.615Z</time></trkpt><trkpt lat="45.4250759" lon="10.4916867"><ele>157.0</ele><time>2026-03-29T08:27:18.614Z</time></trkpt><trkpt lat="45.4250117" lon="10.4918441"><ele>156.2</ele><time>2026-03-29T08:27:19.608Z</time></trkpt><trkpt lat="45.4250023" lon="10.4920034"><ele>155.39999999999998</ele><time>2026-03-29T08:27:20.609Z</time></trkpt><trkpt lat="45.4250002" lon="10.4921863"><ele>154.60000000000002</ele><time>2026-03-29T08:27:21.604Z</time></trkpt><trkpt lat="45.4249901" lon="10.4923381"><ele>153.8</ele><time>2026-03-29T08:27:22.612Z</time></trkpt><trkpt lat="45.4249952" lon="10.4924712"><ele>153.0</ele><time>2026-03-29T08:27:23.606Z</time></trkpt><trkpt lat="45.4250029" lon="10.4926021"><ele>152.0</ele><time>2026-03-29T08:27:24.607Z</time></trkpt><trkpt lat="45.4250249" lon="10.4927376"><ele>151.0</ele><time>2026-03-29T08:27:25.608Z</time></trkpt><trkpt lat="45.4250652" lon="10.4928563"><ele>150.0</ele><time>2026-03-29T08:27:26.603Z</time></trkpt><trkpt lat="45.4251243" lon="10.4929652"><ele>149.0</ele><time>2026-03-29T08:27:27.621Z</time></trkpt><trkpt lat="45.425241" lon="10.4930354"><ele>148.0</ele><time>2026-03-29T08:27:28.612Z</time></trkpt><trkpt lat="45.4253788" lon="10.4931024"><ele>147.0</ele><time>2026-03-29T08:27:29.614Z</time></trkpt><trkpt lat="45.4255338" lon="10.4931802"><ele>146.0</ele><time>2026-03-29T08:27:30.616Z</time></trkpt><trkpt lat="45.4257439" lon="10.4932773"><ele>145.0</ele><time>2026-03-29T08:27:31.613Z</time></trkpt><trkpt lat="45.4259162" lon="10.4933625"><ele>145.0</ele><time>2026-03-29T08:27:32.621Z</time></trkpt><trkpt lat="45.4260762" lon="10.4934498"><ele>145.0</ele><time>2026-03-29T08:27:33.615Z</time></trkpt><trkpt lat="45.4262295" lon="10.4935222"><ele>145.0</ele><time>2026-03-29T08:27:34.613Z</time></trkpt><trkpt lat="45.4263463" lon="10.4936374"><ele>144.0</ele><time>2026-03-29T08:27:35.618Z</time></trkpt><trkpt lat="45.4264811" lon="10.4937501"><ele>143.0</ele><time>2026-03-29T08:27:36.612Z</time></trkpt><trkpt lat="45.4266055" lon="10.4938426"><ele>142.0</ele><time>2026-03-29T08:27:37.61Z</time></trkpt><trkpt lat="45.4267376" lon="10.4939601"><ele>142.0</ele><time>2026-03-29T08:27:38.619Z</time></trkpt><trkpt lat="45.426843" lon="10.4940406"><ele>142.0</ele><time>2026-03-29T08:27:39.613Z</time></trkpt><trkpt lat="45.4269243" lon="10.4940987"><ele>142.0</ele><time>2026-03-29T08:27:40.615Z</time></trkpt><trkpt lat="45.427" lon="10.4941355"><ele>142.0</ele><time>2026-03-29T08:27:41.622Z</time></trkpt><trkpt lat="45.4271008" lon="10.4941548"><ele>142.0</ele><time>2026-03-29T08:27:42.611Z</time></trkpt><trkpt lat="45.4271949" lon="10.4941623"><ele>142.75</ele><time>2026-03-29T08:27:43.606Z</time></trkpt><trkpt lat="45.427313" lon="10.4941416"><ele>143.5</ele><time>2026-03-29T08:27:44.609Z</time></trkpt><trkpt lat="45.4274587" lon="10.4941131"><ele>144.25</ele><time>2026-03-29T08:27:45.612Z</time></trkpt><trkpt lat="45.4275984" lon="10.4940824"><ele>145.0</ele><time>2026-03-29T08:27:46.625Z</time></trkpt><trkpt lat="45.4277715" lon="10.4940713"><ele>145.0</ele><time>2026-03-29T08:27:47.62Z</time></trkpt><trkpt lat="45.4279225" lon="10.4940507"><ele>145.0</ele><time>2026-03-29T08:27:48.627Z</time></trkpt><trkpt lat="45.4280834" lon="10.4940387"><ele>145.0</ele><time>2026-03-29T08:27:49.621Z</time></trkpt><trkpt lat="45.4282066" lon="10.4940459"><ele>145.0</ele><time>2026-03-29T08:27:50.61Z</time></trkpt><trkpt lat="45.4283395" lon="10.4940796"><ele>145.75</ele><time>2026-03-29T08:27:51.613Z</time></trkpt><trkpt lat="45.428473" lon="10.4941422"><ele>146.5</ele><time>2026-03-29T08:27:52.617Z</time></trkpt><trkpt lat="45.4285949" lon="10.4942443"><ele>147.25</ele><time>2026-03-29T08:27:53.62Z</time></trkpt><trkpt lat="45.4287255" lon="10.4943385"><ele>148.0</ele><time>2026-03-29T08:27:54.626Z</time></trkpt><trkpt lat="45.4288772" lon="10.4944342"><ele>148.66666666666669</ele><time>2026-03-29T08:27:55.622Z</time></trkpt><trkpt lat="45.429049" lon="10.4945328"><ele>149.33333333333334</ele><time>2026-03-29T08:27:56.627Z</time></trkpt><trkpt lat="45.4291873" lon="10.4946101"><ele>150.0</ele><time>2026-03-29T08:27:57.626Z</time></trkpt><trkpt lat="45.4293283" lon="10.4946736"><ele>148.5</ele><time>2026-03-29T08:27:58.627Z</time></trkpt><trkpt lat="45.4294421" lon="10.4947466"><ele>147.0</ele><time>2026-03-29T08:27:59.628Z</time></trkpt><trkpt lat="45.4295618" lon="10.4948596"><ele>145.5</ele><time>2026-03-29T08:28:00.63Z</time></trkpt><trkpt lat="45.4296931" lon="10.4949869"><ele>144.0</ele><time>2026-03-29T08:28:01.634Z</time></trkpt><trkpt lat="45.4298203" lon="10.4950915"><ele>145.5</ele><time>2026-03-29T08:28:02.631Z</time></trkpt><trkpt lat="45.4299384" lon="10.4952201"><ele>147.0</ele><time>2026-03-29T08:28:03.63Z</time></trkpt><trkpt lat="45.4300307" lon="10.4953123"><ele>148.5</ele><time>2026-03-29T08:28:04.629Z</time></trkpt><trkpt lat="45.4301129" lon="10.4954706"><ele>150.0</ele><time>2026-03-29T08:28:05.627Z</time></trkpt><trkpt lat="45.4302004" lon="10.495636"><ele>150.0</ele><time>2026-03-29T08:28:06.627Z</time></trkpt><trkpt lat="45.4302846" lon="10.4958199"><ele>150.0</ele><time>2026-03-29T08:28:07.626Z</time></trkpt><trkpt lat="45.4303506" lon="10.4960056"><ele>150.0</ele><time>2026-03-29T08:28:08.631Z</time></trkpt><trkpt lat="45.4304343" lon="10.4962404"><ele>152.0</ele><time>2026-03-29T08:28:09.617Z</time></trkpt><trkpt lat="45.4304804" lon="10.4963861"><ele>154.0</ele><time>2026-03-29T08:28:10.627Z</time></trkpt><trkpt lat="45.4305729" lon="10.4964943"><ele>156.0</ele><time>2026-03-29T08:28:11.619Z</time></trkpt><trkpt lat="45.4306893" lon="10.4966144"><ele>158.0</ele><time>2026-03-29T08:28:12.617Z</time></trkpt><trkpt lat="45.4307998" lon="10.4967523"><ele>158.0</ele><time>2026-03-29T08:28:13.617Z</time></trkpt><trkpt lat="45.4309115" lon="10.4968034"><ele>158.0</ele><time>2026-03-29T08:28:14.61Z</time></trkpt><trkpt lat="45.4310492" lon="10.4968701"><ele>158.0</ele><time>2026-03-29T08:28:15.61Z</time></trkpt><trkpt lat="45.4311534" lon="10.4969477"><ele>158.0</ele><time>2026-03-29T08:28:16.607Z</time></trkpt><trkpt lat="45.43122" lon="10.49701"><ele>157.6</ele><time>2026-03-29T08:28:17.613Z</time></trkpt><trkpt lat="45.4312753" lon="10.4970968"><ele>157.20000000000002</ele><time>2026-03-29T08:28:18.617Z</time></trkpt><trkpt lat="45.4313535" lon="10.4971768"><ele>156.8</ele><time>2026-03-29T08:28:19.612Z</time></trkpt><trkpt lat="45.4313979" lon="10.4972816"><ele>156.4</ele><time>2026-03-29T08:28:20.605Z</time></trkpt><trkpt lat="45.4314413" lon="10.4973927"><ele>156.0</ele><time>2026-03-29T08:28:21.588Z</time></trkpt><trkpt lat="45.4314841" lon="10.4975392"><ele>156.0</ele><time>2026-03-29T08:28:22.602Z</time></trkpt><trkpt lat="45.4315321" lon="10.4976933"><ele>156.0</ele><time>2026-03-29T08:28:23.612Z</time></trkpt><trkpt lat="45.4315844" lon="10.4978519"><ele>156.0</ele><time>2026-03-29T08:28:24.607Z</time></trkpt><trkpt lat="45.4316413" lon="10.4980246"><ele>156.0</ele><time>2026-03-29T08:28:25.622Z</time></trkpt><trkpt lat="45.4316924" lon="10.4981884"><ele>154.8</ele><time>2026-03-29T08:28:26.617Z</time></trkpt><trkpt lat="45.4317336" lon="10.4983302"><ele>153.6</ele><time>2026-03-29T08:28:27.615Z</time></trkpt><trkpt lat="45.4317598" lon="10.498464"><ele>152.4</ele><time>2026-03-29T08:28:28.626Z</time></trkpt><trkpt lat="45.4317772" lon="10.4986102"><ele>151.2</ele><time>2026-03-29T08:28:29.617Z</time></trkpt><trkpt lat="45.4317807" lon="10.4987655"><ele>150.0</ele><time>2026-03-29T08:28:30.624Z</time></trkpt><trkpt lat="45.4317697" lon="10.498918"><ele>150.0</ele><time>2026-03-29T08:28:31.612Z</time></trkpt><trkpt lat="45.4317487" lon="10.4990787"><ele>150.0</ele><time>2026-03-29T08:28:32.623Z</time></trkpt><trkpt lat="45.4317202" lon="10.4992403"><ele>150.0</ele><time>2026-03-29T08:28:33.614Z</time></trkpt><trkpt lat="45.4316903" lon="10.4994099"><ele>150.0</ele><time>2026-03-29T08:28:34.614Z</time></trkpt><trkpt lat="45.4316564" lon="10.4995786"><ele>150.0</ele><time>2026-03-29T08:28:35.617Z</time></trkpt><trkpt lat="45.4316212" lon="10.4997478"><ele>150.0</ele><time>2026-03-29T08:28:36.615Z</time></trkpt><trkpt lat="45.4315907" lon="10.4999093"><ele>150.0</ele><time>2026-03-29T08:28:37.615Z</time></trkpt><trkpt lat="45.4315558" lon="10.5000829"><ele>150.0</ele><time>2026-03-29T08:28:38.615Z</time></trkpt><trkpt lat="45.4315231" lon="10.500264"><ele>149.33333333333334</ele><time>2026-03-29T08:28:39.617Z</time></trkpt><trkpt lat="45.4314901" lon="10.5004606"><ele>148.66666666666669</ele><time>2026-03-29T08:28:40.618Z</time></trkpt><trkpt lat="45.4314572" lon="10.5006852"><ele>148.0</ele><time>2026-03-29T08:28:41.618Z</time></trkpt><trkpt lat="45.4314119" lon="10.5008879"><ele>148.0</ele><time>2026-03-29T08:28:42.624Z</time></trkpt><trkpt lat="45.431374" lon="10.5010711"><ele>148.0</ele><time>2026-03-29T08:28:43.628Z</time></trkpt><trkpt lat="45.4313316" lon="10.5012692"><ele>148.0</ele><time>2026-03-29T08:28:44.622Z</time></trkpt><trkpt lat="45.4313099" lon="10.5014519"><ele>148.0</ele><time>2026-03-29T08:28:45.632Z</time></trkpt><trkpt lat="45.4312908" lon="10.5015998"><ele>147.8</ele><time>2026-03-29T08:28:46.617Z</time></trkpt><trkpt lat="45.4312625" lon="10.501735"><ele>147.60000000000002</ele><time>2026-03-29T08:28:47.621Z</time></trkpt><trkpt lat="45.4312492" lon="10.5018279"><ele>147.39999999999998</ele><time>2026-03-29T08:28:48.621Z</time></trkpt><trkpt lat="45.4312043" lon="10.5019521"><ele>147.2</ele><time>2026-03-29T08:28:50.618Z</time></trkpt><trkpt lat="45.4311292" lon="10.5020192"><ele>147.0</ele><time>2026-03-29T08:28:52.631Z</time></trkpt><trkpt lat="45.4310198" lon="10.501961"><ele>147.0</ele><time>2026-03-29T08:28:54.632Z</time></trkpt><trkpt lat="45.4309397" lon="10.5018808"><ele>147.0</ele><time>2026-03-29T08:28:55.626Z</time></trkpt><trkpt lat="45.4308482" lon="10.5017798"><ele>147.0</ele><time>2026-03-29T08:28:56.62Z</time></trkpt><trkpt lat="45.43074" lon="10.5016557"><ele>147.0</ele><time>2026-03-29T08:28:57.617Z</time></trkpt><trkpt lat="45.4306182" lon="10.5015263"><ele>147.0</ele><time>2026-03-29T08:28:58.625Z</time></trkpt><trkpt lat="45.4304797" lon="10.501381"><ele>147.0</ele><time>2026-03-29T08:28:59.631Z</time></trkpt><trkpt lat="45.4303377" lon="10.501239"><ele>147.0</ele><time>2026-03-29T08:29:01.71Z</time></trkpt><trkpt lat="45.4302118" lon="10.5011137"><ele>146.6</ele><time>2026-03-29T08:29:02.708Z</time></trkpt><trkpt lat="45.4301026" lon="10.5010064"><ele>146.2</ele><time>2026-03-29T08:29:03.713Z</time></trkpt><trkpt lat="45.4300116" lon="10.5009182"><ele>145.8</ele><time>2026-03-29T08:29:04.706Z</time></trkpt><trkpt lat="45.4299328" lon="10.5008396"><ele>145.4</ele><time>2026-03-29T08:29:05.701Z</time></trkpt><trkpt lat="45.4298701" lon="10.5007761"><ele>145.0</ele><time>2026-03-29T08:29:06.698Z</time></trkpt><trkpt lat="45.4297296" lon="10.5007185"><ele>146.25</ele><time>2026-03-29T08:29:08.621Z</time></trkpt><trkpt lat="45.4296342" lon="10.500852"><ele>147.5</ele><time>2026-03-29T08:29:10.625Z</time></trkpt><trkpt lat="45.4295845" lon="10.5009806"><ele>148.75</ele><time>2026-03-29T08:29:11.612Z</time></trkpt><trkpt lat="45.4295188" lon="10.5011331"><ele>150.0</ele><time>2026-03-29T08:29:12.614Z</time></trkpt><trkpt lat="45.4294478" lon="10.5012763"><ele>150.25</ele><time>2026-03-29T08:29:13.604Z</time></trkpt><trkpt lat="45.4293676" lon="10.5014062"><ele>150.5</ele><time>2026-03-29T08:29:14.609Z</time></trkpt><trkpt lat="45.4292715" lon="10.5015413"><ele>150.75</ele><time>2026-03-29T08:29:15.606Z</time></trkpt><trkpt lat="45.4291723" lon="10.5016673"><ele>151.0</ele><time>2026-03-29T08:29:16.617Z</time></trkpt><trkpt lat="45.4290813" lon="10.5017682"><ele>151.0</ele><time>2026-03-29T08:29:17.608Z</time></trkpt><trkpt lat="45.4290111" lon="10.5018803"><ele>151.0</ele><time>2026-03-29T08:29:18.609Z</time></trkpt><trkpt lat="45.4289501" lon="10.5020088"><ele>151.0</ele><time>2026-03-29T08:29:19.606Z</time></trkpt><trkpt lat="45.4289025" lon="10.5021597"><ele>151.0</ele><time>2026-03-29T08:29:20.61Z</time></trkpt><trkpt lat="45.428861" lon="10.5023236"><ele>151.2</ele><time>2026-03-29T08:29:21.615Z</time></trkpt><trkpt lat="45.4288254" lon="10.5024881"><ele>151.39999999999998</ele><time>2026-03-29T08:29:22.609Z</time></trkpt><trkpt lat="45.428795" lon="10.5026219"><ele>151.6</ele><time>2026-03-29T08:29:23.611Z</time></trkpt><trkpt lat="45.4287617" lon="10.5027445"><ele>151.79999999999998</ele><time>2026-03-29T08:29:24.607Z</time></trkpt><trkpt lat="45.4287356" lon="10.5028421"><ele>152.0</ele><time>2026-03-29T08:29:25.617Z</time></trkpt><trkpt lat="45.4286989" lon="10.5029325"><ele>151.7142857142857</ele><time>2026-03-29T08:29:26.613Z</time></trkpt><trkpt lat="45.4286539" lon="10.5030084"><ele>151.42857142857144</ele><time>2026-03-29T08:29:27.613Z</time></trkpt><trkpt lat="45.4285966" lon="10.5030751"><ele>151.14285714285714</ele><time>2026-03-29T08:29:28.614Z</time></trkpt><trkpt lat="45.4285282" lon="10.5031301"><ele>150.85714285714283</ele><time>2026-03-29T08:29:29.621Z</time></trkpt><trkpt lat="45.4284606" lon="10.5031631"><ele>150.57142857142856</ele><time>2026-03-29T08:29:30.619Z</time></trkpt><trkpt lat="45.4283898" lon="10.503186"><ele>150.28571428571428</ele><time>2026-03-29T08:29:31.624Z</time></trkpt><trkpt lat="45.4283212" lon="10.5032149"><ele>150.0</ele><time>2026-03-29T08:29:32.621Z</time></trkpt><trkpt lat="45.4282555" lon="10.5032673"><ele>150.0</ele><time>2026-03-29T08:29:33.611Z</time></trkpt><trkpt lat="45.4281952" lon="10.5033462"><ele>150.0</ele><time>2026-03-29T08:29:34.618Z</time></trkpt><trkpt lat="45.4281343" lon="10.5034581"><ele>150.0</ele><time>2026-03-29T08:29:35.618Z</time></trkpt><trkpt lat="45.4280812" lon="10.5035944"><ele>150.0</ele><time>2026-03-29T08:29:36.619Z</time></trkpt><trkpt lat="45.4280306" lon="10.503719"><ele>150.0</ele><time>2026-03-29T08:29:37.61Z</time></trkpt><trkpt lat="45.4279667" lon="10.5038318"><ele>147.8</ele><time>2026-03-29T08:29:38.613Z</time></trkpt><trkpt lat="45.4279065" lon="10.5039361"><ele>145.6</ele><time>2026-03-29T08:29:39.608Z</time></trkpt><trkpt lat="45.4278325" lon="10.5040027"><ele>143.4</ele><time>2026-03-29T08:29:40.611Z</time></trkpt><trkpt lat="45.4277446" lon="10.5040606"><ele>141.2</ele><time>2026-03-29T08:29:41.617Z</time></trkpt><trkpt lat="45.4276417" lon="10.5041185"><ele>139.0</ele><time>2026-03-29T08:29:42.619Z</time></trkpt><trkpt lat="45.4275556" lon="10.5041836"><ele>139.0</ele><time>2026-03-29T08:29:43.6Z</time></trkpt><trkpt lat="45.4274747" lon="10.5042345"><ele>139.0</ele><time>2026-03-29T08:29:44.603Z</time></trkpt><trkpt lat="45.427394" lon="10.5042532"><ele>139.0</ele><time>2026-03-29T08:29:45.594Z</time></trkpt><trkpt lat="45.4273064" lon="10.5042588"><ele>139.0</ele><time>2026-03-29T08:29:46.592Z</time></trkpt><trkpt lat="45.4272109" lon="10.5042559"><ele>139.0</ele><time>2026-03-29T08:29:47.593Z</time></trkpt><trkpt lat="45.4271172" lon="10.5042456"><ele>139.0</ele><time>2026-03-29T08:29:48.594Z</time></trkpt><trkpt lat="45.4270262" lon="10.504217"><ele>139.16666666666669</ele><time>2026-03-29T08:29:49.589Z</time></trkpt><trkpt lat="45.4269219" lon="10.5042129"><ele>139.33333333333334</ele><time>2026-03-29T08:29:50.594Z</time></trkpt><trkpt lat="45.4268292" lon="10.5041941"><ele>139.5</ele><time>2026-03-29T08:29:51.584Z</time></trkpt><trkpt lat="45.4267381" lon="10.5041966"><ele>139.66666666666666</ele><time>2026-03-29T08:29:52.587Z</time></trkpt><trkpt lat="45.4266615" lon="10.5041905"><ele>139.83333333333331</ele><time>2026-03-29T08:29:53.592Z</time></trkpt><trkpt lat="45.4265802" lon="10.5042114"><ele>140.0</ele><time>2026-03-29T08:29:54.588Z</time></trkpt><trkpt lat="45.426492" lon="10.5042513"><ele>140.0</ele><time>2026-03-29T08:29:55.605Z</time></trkpt><trkpt lat="45.4263919" lon="10.5043131"><ele>140.0</ele><time>2026-03-29T08:29:56.598Z</time></trkpt><trkpt lat="45.4262921" lon="10.5043903"><ele>140.0</ele><time>2026-03-29T08:29:57.596Z</time></trkpt><trkpt lat="45.4262015" lon="10.5044876"><ele>140.0</ele><time>2026-03-29T08:29:58.599Z</time></trkpt><trkpt lat="45.4261099" lon="10.5045745"><ele>140.0</ele><time>2026-03-29T08:29:59.594Z</time></trkpt><trkpt lat="45.4260131" lon="10.5046684"><ele>138.16666666666666</ele><time>2026-03-29T08:30:00.596Z</time></trkpt><trkpt lat="45.4259233" lon="10.5047533"><ele>136.33333333333331</ele><time>2026-03-29T08:30:01.584Z</time></trkpt><trkpt lat="45.4258442" lon="10.5048086"><ele>134.5</ele><time>2026-03-29T08:30:02.589Z</time></trkpt><trkpt lat="45.4257735" lon="10.5048704"><ele>132.66666666666666</ele><time>2026-03-29T08:30:03.589Z</time></trkpt><trkpt lat="45.4257121" lon="10.5049155"><ele>130.83333333333334</ele><time>2026-03-29T08:30:04.583Z</time></trkpt><trkpt lat="45.4256319" lon="10.504971"><ele>129.0</ele><time>2026-03-29T08:30:06.583Z</time></trkpt><trkpt lat="45.4256726" lon="10.5050496"><ele>129.0</ele><time>2026-03-29T08:30:13.593Z</time></trkpt><trkpt lat="45.4257523" lon="10.5050285"><ele>129.0</ele><time>2026-03-29T08:30:15.599Z</time></trkpt><trkpt lat="45.4258207" lon="10.5049975"><ele>129.0</ele><time>2026-03-29T08:30:16.599Z</time></trkpt><trkpt lat="45.4258881" lon="10.5049723"><ele>129.0</ele><time>2026-03-29T08:30:17.591Z</time></trkpt><trkpt lat="45.4259641" lon="10.5049461"><ele>129.0</ele><time>2026-03-29T08:30:18.594Z</time></trkpt><trkpt lat="45.4260435" lon="10.5049234"><ele>129.0</ele><time>2026-03-29T08:30:19.591Z</time></trkpt><trkpt lat="45.4261195" lon="10.5049015"><ele>129.0</ele><time>2026-03-29T08:30:20.598Z</time></trkpt><trkpt lat="45.426193" lon="10.5048818"><ele>129.0</ele><time>2026-03-29T08:30:21.6Z</time></trkpt><trkpt lat="45.4262786" lon="10.5048508"><ele>129.0</ele><time>2026-03-29T08:30:22.591Z</time></trkpt><trkpt lat="45.4263495" lon="10.5048024"><ele>129.0</ele><time>2026-03-29T08:30:23.606Z</time></trkpt><trkpt lat="45.4264245" lon="10.5047532"><ele>129.0</ele><time>2026-03-29T08:30:24.593Z</time></trkpt><trkpt lat="45.4264959" lon="10.5047099"><ele>129.0</ele><time>2026-03-29T08:30:25.607Z</time></trkpt><trkpt lat="45.4265742" lon="10.5046848"><ele>128.8</ele><time>2026-03-29T08:30:26.594Z</time></trkpt><trkpt lat="45.4266674" lon="10.5046616"><ele>128.60000000000002</ele><time>2026-03-29T08:30:27.591Z</time></trkpt><trkpt lat="45.4267694" lon="10.5046467"><ele>128.4</ele><time>2026-03-29T08:30:28.596Z</time></trkpt><trkpt lat="45.4268857" lon="10.5046634"><ele>128.20000000000002</ele><time>2026-03-29T08:30:29.602Z</time></trkpt><trkpt lat="45.4270069" lon="10.5046827"><ele>128.0</ele><time>2026-03-29T08:30:30.592Z</time></trkpt><trkpt lat="45.427126" lon="10.5046943"><ele>128.4</ele><time>2026-03-29T08:30:31.606Z</time></trkpt><trkpt lat="45.4272368" lon="10.5047137"><ele>128.8</ele><time>2026-03-29T08:30:32.594Z</time></trkpt><trkpt lat="45.4273424" lon="10.5047284"><ele>129.2</ele><time>2026-03-29T08:30:33.592Z</time></trkpt><trkpt lat="45.4274489" lon="10.5047351"><ele>129.6</ele><time>2026-03-29T08:30:34.59Z</time></trkpt><trkpt lat="45.4275669" lon="10.5047593"><ele>130.0</ele><time>2026-03-29T08:30:35.594Z</time></trkpt><trkpt lat="45.4276957" lon="10.5048011"><ele>130.0</ele><time>2026-03-29T08:30:36.591Z</time></trkpt><trkpt lat="45.4278227" lon="10.504864"><ele>130.0</ele><time>2026-03-29T08:30:37.589Z</time></trkpt><trkpt lat="45.4279618" lon="10.5049198"><ele>130.0</ele><time>2026-03-29T08:30:38.59Z</time></trkpt><trkpt lat="45.4281057" lon="10.5049656"><ele>130.0</ele><time>2026-03-29T08:30:39.599Z</time></trkpt><trkpt lat="45.4282436" lon="10.5050503"><ele>131.33333333333334</ele><time>2026-03-29T08:30:40.6Z</time></trkpt><trkpt lat="45.4283818" lon="10.5051366"><ele>132.66666666666666</ele><time>2026-03-29T08:30:41.596Z</time></trkpt><trkpt lat="45.4285217" lon="10.5052138"><ele>134.0</ele><time>2026-03-29T08:30:42.615Z</time></trkpt><trkpt lat="45.4286672" lon="10.5052905"><ele>133.5</ele><time>2026-03-29T08:30:43.611Z</time></trkpt><trkpt lat="45.4288105" lon="10.5053564"><ele>133.0</ele><time>2026-03-29T08:30:44.604Z</time></trkpt><trkpt lat="45.4289435" lon="10.5054388"><ele>132.5</ele><time>2026-03-29T08:30:45.602Z</time></trkpt><trkpt lat="45.4290704" lon="10.5054981"><ele>132.0</ele><time>2026-03-29T08:30:46.616Z</time></trkpt><trkpt lat="45.4291989" lon="10.5055458"><ele>132.0</ele><time>2026-03-29T08:30:47.604Z</time></trkpt><trkpt lat="45.429339" lon="10.5056124"><ele>132.0</ele><time>2026-03-29T08:30:48.608Z</time></trkpt><trkpt lat="45.4294414" lon="10.5056619"><ele>132.0</ele><time>2026-03-29T08:30:49.607Z</time></trkpt><trkpt lat="45.4295632" lon="10.5057307"><ele>132.0</ele><time>2026-03-29T08:30:50.614Z</time></trkpt><trkpt lat="45.4296704" lon="10.5058146"><ele>133.5</ele><time>2026-03-29T08:30:51.604Z</time></trkpt><trkpt lat="45.4297695" lon="10.5058904"><ele>135.0</ele><time>2026-03-29T08:30:52.605Z</time></trkpt><trkpt lat="45.4298846" lon="10.5060044"><ele>136.5</ele><time>2026-03-29T08:30:53.6Z</time></trkpt><trkpt lat="45.4299995" lon="10.506107"><ele>138.0</ele><time>2026-03-29T08:30:54.603Z</time></trkpt><trkpt lat="45.4301267" lon="10.5061922"><ele>138.0</ele><time>2026-03-29T08:30:55.595Z</time></trkpt><trkpt lat="45.4302535" lon="10.5062404"><ele>138.0</ele><time>2026-03-29T08:30:56.596Z</time></trkpt><trkpt lat="45.4303892" lon="10.5062595"><ele>138.0</ele><time>2026-03-29T08:30:57.599Z</time></trkpt><trkpt lat="45.4305183" lon="10.5062897"><ele>138.0</ele><time>2026-03-29T08:30:58.605Z</time></trkpt><trkpt lat="45.4306438" lon="10.5062842"><ele>137.4</ele><time>2026-03-29T08:30:59.603Z</time></trkpt><trkpt lat="45.4307762" lon="10.5063078"><ele>136.8</ele><time>2026-03-29T08:31:00.617Z</time></trkpt><trkpt lat="45.4308893" lon="10.5062897"><ele>136.2</ele><time>2026-03-29T08:31:01.606Z</time></trkpt><trkpt lat="45.4309788" lon="10.5062996"><ele>135.6</ele><time>2026-03-29T08:31:02.61Z</time></trkpt><trkpt lat="45.4310704" lon="10.5063069"><ele>135.0</ele><time>2026-03-29T08:31:03.597Z</time></trkpt><trkpt lat="45.4311696" lon="10.5063188"><ele>135.0</ele><time>2026-03-29T08:31:04.601Z</time></trkpt><trkpt lat="45.4312724" lon="10.5063494"><ele>135.0</ele><time>2026-03-29T08:31:05.597Z</time></trkpt><trkpt lat="45.4313664" lon="10.5063718"><ele>135.0</ele><time>2026-03-29T08:31:06.604Z</time></trkpt><trkpt lat="45.4314571" lon="10.50639"><ele>135.0</ele><time>2026-03-29T08:31:07.602Z</time></trkpt><trkpt lat="45.4315457" lon="10.5064089"><ele>135.0</ele><time>2026-03-29T08:31:08.599Z</time></trkpt><trkpt lat="45.431633" lon="10.5064218"><ele>135.5</ele><time>2026-03-29T08:31:09.61Z</time></trkpt><trkpt lat="45.4317113" lon="10.506432"><ele>136.0</ele><time>2026-03-29T08:31:10.599Z</time></trkpt><trkpt lat="45.4317756" lon="10.5064368"><ele>136.5</ele><time>2026-03-29T08:31:11.595Z</time></trkpt><trkpt lat="45.4318857" lon="10.506439"><ele>137.0</ele><time>2026-03-29T08:31:13.599Z</time></trkpt><trkpt lat="45.4319437" lon="10.506485"><ele>137.5</ele><time>2026-03-29T08:31:15.602Z</time></trkpt><trkpt lat="45.4319322" lon="10.5065939"><ele>138.0</ele><time>2026-03-29T08:31:17.607Z</time></trkpt><trkpt lat="45.4319095" lon="10.5066934"><ele>138.0</ele><time>2026-03-29T08:31:18.602Z</time></trkpt><trkpt lat="45.4318595" lon="10.5067967"><ele>138.0</ele><time>2026-03-29T08:31:19.593Z</time></trkpt><trkpt lat="45.4317863" lon="10.5069185"><ele>138.0</ele><time>2026-03-29T08:31:20.596Z</time></trkpt><trkpt lat="45.4317036" lon="10.5070461"><ele>138.0</ele><time>2026-03-29T08:31:21.598Z</time></trkpt><trkpt lat="45.4316137" lon="10.5071751"><ele>138.75</ele><time>2026-03-29T08:31:22.597Z</time></trkpt><trkpt lat="45.4315153" lon="10.5072902"><ele>139.5</ele><time>2026-03-29T08:31:23.601Z</time></trkpt><trkpt lat="45.4313981" lon="10.5073749"><ele>140.25</ele><time>2026-03-29T08:31:24.596Z</time></trkpt><trkpt lat="45.4312697" lon="10.5074344"><ele>141.0</ele><time>2026-03-29T08:31:25.615Z</time></trkpt><trkpt lat="45.4311326" lon="10.5074845"><ele>139.25</ele><time>2026-03-29T08:31:26.606Z</time></trkpt><trkpt lat="45.4309924" lon="10.5075551"><ele>137.5</ele><time>2026-03-29T08:31:27.6Z</time></trkpt><trkpt lat="45.4308515" lon="10.5076618"><ele>135.75</ele><time>2026-03-29T08:31:28.599Z</time></trkpt><trkpt lat="45.4307384" lon="10.5077714"><ele>134.0</ele><time>2026-03-29T08:31:29.598Z</time></trkpt><trkpt lat="45.430622" lon="10.5078704"><ele>133.66666666666666</ele><time>2026-03-29T08:31:30.611Z</time></trkpt><trkpt lat="45.4305019" lon="10.5079898"><ele>133.33333333333334</ele><time>2026-03-29T08:31:31.613Z</time></trkpt><trkpt lat="45.4303834" lon="10.5081229"><ele>133.0</ele><time>2026-03-29T08:31:32.605Z</time></trkpt><trkpt lat="45.4302605" lon="10.5082673"><ele>131.75</ele><time>2026-03-29T08:31:33.607Z</time></trkpt><trkpt lat="45.4301561" lon="10.5083847"><ele>130.5</ele><time>2026-03-29T08:31:34.61Z</time></trkpt><trkpt lat="45.4300322" lon="10.5084933"><ele>129.25</ele><time>2026-03-29T08:31:35.606Z</time></trkpt><trkpt lat="45.4299117" lon="10.5086292"><ele>128.0</ele><time>2026-03-29T08:31:36.612Z</time></trkpt><trkpt lat="45.429792" lon="10.5087799"><ele>127.33333333333333</ele><time>2026-03-29T08:31:37.597Z</time></trkpt><trkpt lat="45.4296927" lon="10.5089551"><ele>126.66666666666666</ele><time>2026-03-29T08:31:38.603Z</time></trkpt><trkpt lat="45.4296045" lon="10.5091283"><ele>126.0</ele><time>2026-03-29T08:31:39.61Z</time></trkpt><trkpt lat="45.4295154" lon="10.5093116"><ele>125.75</ele><time>2026-03-29T08:31:40.603Z</time></trkpt><trkpt lat="45.4294337" lon="10.5095139"><ele>125.5</ele><time>2026-03-29T08:31:41.607Z</time></trkpt><trkpt lat="45.4293641" lon="10.5096779"><ele>125.25</ele><time>2026-03-29T08:31:42.602Z</time></trkpt><trkpt lat="45.4292958" lon="10.5098434"><ele>125.0</ele><time>2026-03-29T08:31:43.606Z</time></trkpt><trkpt lat="45.4292271" lon="10.5099873"><ele>124.75</ele><time>2026-03-29T08:31:44.606Z</time></trkpt><trkpt lat="45.4291595" lon="10.5101421"><ele>124.5</ele><time>2026-03-29T08:31:45.609Z</time></trkpt><trkpt lat="45.4290986" lon="10.5102756"><ele>124.25</ele><time>2026-03-29T08:31:46.602Z</time></trkpt><trkpt lat="45.4290182" lon="10.5104132"><ele>124.0</ele><time>2026-03-29T08:31:47.607Z</time></trkpt><trkpt lat="45.4289416" lon="10.5105583"><ele>123.83333333333334</ele><time>2026-03-29T08:31:48.614Z</time></trkpt><trkpt lat="45.4288835" lon="10.5106782"><ele>123.66666666666667</ele><time>2026-03-29T08:31:49.605Z</time></trkpt><trkpt lat="45.4288265" lon="10.5107923"><ele>123.5</ele><time>2026-03-29T08:31:50.614Z</time></trkpt><trkpt lat="45.4287752" lon="10.5109049"><ele>123.33333333333334</ele><time>2026-03-29T08:31:51.61Z</time></trkpt><trkpt lat="45.428736" lon="10.5110051"><ele>123.16666666666667</ele><time>2026-03-29T08:31:52.608Z</time></trkpt><trkpt lat="45.4287099" lon="10.5110987"><ele>123.0</ele><time>2026-03-29T08:31:53.604Z</time></trkpt><trkpt lat="45.4287021" lon="10.5111906"><ele>122.4</ele><time>2026-03-29T08:31:54.623Z</time></trkpt><trkpt lat="45.428733" lon="10.511368"><ele>121.80000000000001</ele><time>2026-03-29T08:31:56.605Z</time></trkpt><trkpt lat="45.4287729" lon="10.5114556"><ele>121.2</ele><time>2026-03-29T08:31:58.627Z</time></trkpt><trkpt lat="45.4287916" lon="10.5115833"><ele>120.6</ele><time>2026-03-29T08:32:01.62Z</time></trkpt><trkpt lat="45.4287738" lon="10.5116758"><ele>120.0</ele><time>2026-03-29T08:32:02.611Z</time></trkpt><trkpt lat="45.4287468" lon="10.5117977"><ele>120.0</ele><time>2026-03-29T08:32:03.612Z</time></trkpt><trkpt lat="45.428725" lon="10.5119337"><ele>120.0</ele><time>2026-03-29T08:32:04.623Z</time></trkpt><trkpt lat="45.4287015" lon="10.5120639"><ele>120.0</ele><time>2026-03-29T08:32:05.618Z</time></trkpt><trkpt lat="45.4286744" lon="10.5121905"><ele>120.0</ele><time>2026-03-29T08:32:06.618Z</time></trkpt><trkpt lat="45.4286529" lon="10.512322"><ele>120.0</ele><time>2026-03-29T08:32:07.612Z</time></trkpt><trkpt lat="45.4286254" lon="10.5124488"><ele>120.6</ele><time>2026-03-29T08:32:08.612Z</time></trkpt><trkpt lat="45.4285984" lon="10.5125871"><ele>121.2</ele><time>2026-03-29T08:32:09.616Z</time></trkpt><trkpt lat="45.4285689" lon="10.5127381"><ele>121.80000000000001</ele><time>2026-03-29T08:32:10.615Z</time></trkpt><trkpt lat="45.4285448" lon="10.5128957"><ele>122.4</ele><time>2026-03-29T08:32:11.618Z</time></trkpt><trkpt lat="45.4285223" lon="10.5130611"><ele>123.0</ele><time>2026-03-29T08:32:12.613Z</time></trkpt><trkpt lat="45.4284993" lon="10.5132232"><ele>123.0</ele><time>2026-03-29T08:32:14.688Z</time></trkpt><trkpt lat="45.4284786" lon="10.513366"><ele>123.00000000000001</ele><time>2026-03-29T08:32:15.696Z</time></trkpt><trkpt lat="45.4284596" lon="10.5134972"><ele>123.00000000000001</ele><time>2026-03-29T08:32:16.696Z</time></trkpt><trkpt lat="45.4284425" lon="10.5136287"><ele>123.0</ele><time>2026-03-29T08:32:17.7Z</time></trkpt><trkpt lat="45.4284261" lon="10.513758"><ele>123.0</ele><time>2026-03-29T08:32:18.702Z</time></trkpt><trkpt lat="45.4284106" lon="10.5138844"><ele>122.83333333333333</ele><time>2026-03-29T08:32:19.69Z</time></trkpt><trkpt lat="45.4283943" lon="10.5139938"><ele>122.66666666666666</ele><time>2026-03-29T08:32:20.701Z</time></trkpt><trkpt lat="45.4283761" lon="10.5140875"><ele>122.5</ele><time>2026-03-29T08:32:21.683Z</time></trkpt><trkpt lat="45.4283325" lon="10.5141988"><ele>122.33333333333333</ele><time>2026-03-29T08:32:23.698Z</time></trkpt><trkpt lat="45.4282703" lon="10.5142274"><ele>122.16666666666666</ele><time>2026-03-29T08:32:29.607Z</time></trkpt><trkpt lat="45.4282309" lon="10.5143105"><ele>122.0</ele><time>2026-03-29T08:32:31.618Z</time></trkpt><trkpt lat="45.4282675" lon="10.5144364"><ele>121.99999999999999</ele><time>2026-03-29T08:32:33.613Z</time></trkpt><trkpt lat="45.4283026" lon="10.5145139"><ele>122.0</ele><time>2026-03-29T08:32:34.609Z</time></trkpt><trkpt lat="45.4283258" lon="10.5146443"><ele>122.0</ele><time>2026-03-29T08:32:36.615Z</time></trkpt><trkpt lat="45.4282967" lon="10.5147739"><ele>122.0</ele><time>2026-03-29T08:32:38.614Z</time></trkpt><trkpt lat="45.4282608" lon="10.5149333"><ele>121.99999999999999</ele><time>2026-03-29T08:32:40.608Z</time></trkpt><trkpt lat="45.4282464" lon="10.5150311"><ele>122.0</ele><time>2026-03-29T08:32:41.603Z</time></trkpt><trkpt lat="45.4282334" lon="10.5151208"><ele>122.0</ele><time>2026-03-29T08:32:42.607Z</time></trkpt><trkpt lat="45.4282049" lon="10.515291"><ele>121.99999999999999</ele><time>2026-03-29T08:32:44.601Z</time></trkpt><trkpt lat="45.4281815" lon="10.5154522"><ele>121.99999999999999</ele><time>2026-03-29T08:32:46.604Z</time></trkpt><trkpt lat="45.4281679" lon="10.5155489"><ele>122.0</ele><time>2026-03-29T08:32:47.608Z</time></trkpt><trkpt lat="45.4281546" lon="10.5156625"><ele>122.0</ele><time>2026-03-29T08:32:48.604Z</time></trkpt><trkpt lat="45.4281488" lon="10.5157591"><ele>122.0</ele><time>2026-03-29T08:32:49.611Z</time></trkpt><trkpt lat="45.4281192" lon="10.5159173"><ele>121.99999999999999</ele><time>2026-03-29T08:32:51.607Z</time></trkpt><trkpt lat="45.4280528" lon="10.5160241"><ele>121.99999999999999</ele><time>2026-03-29T08:32:53.605Z</time></trkpt><trkpt lat="45.4279763" lon="10.5160718"><ele>122.0</ele><time>2026-03-29T08:32:55.625Z</time></trkpt><trkpt lat="45.4278726" lon="10.5160956"><ele>122.0</ele><time>2026-03-29T08:32:57.609Z</time></trkpt><trkpt lat="45.4278043" lon="10.5160853"><ele>121.99999999999999</ele><time>2026-03-29T08:32:58.604Z</time></trkpt><trkpt lat="45.4277296" lon="10.5160615"><ele>122.0</ele><time>2026-03-29T08:32:59.603Z</time></trkpt><trkpt lat="45.4276465" lon="10.5160257"><ele>122.0</ele><time>2026-03-29T08:33:00.602Z</time></trkpt><trkpt lat="45.4275677" lon="10.5159856"><ele>122.0</ele><time>2026-03-29T08:33:01.605Z</time></trkpt><trkpt lat="45.4274936" lon="10.515942"><ele>121.99999999999999</ele><time>2026-03-29T08:33:02.608Z</time></trkpt><trkpt lat="45.427437" lon="10.5158872"><ele>122.0</ele><time>2026-03-29T08:33:03.599Z</time></trkpt><trkpt lat="45.4273724" lon="10.5158275"><ele>121.99999999999999</ele><time>2026-03-29T08:33:04.613Z</time></trkpt><trkpt lat="45.4273066" lon="10.5157589"><ele>122.0</ele><time>2026-03-29T08:33:05.603Z</time></trkpt><trkpt lat="45.4272501" lon="10.5156762"><ele>122.0</ele><time>2026-03-29T08:33:06.607Z</time></trkpt><trkpt lat="45.4272019" lon="10.5155775"><ele>122.0</ele><time>2026-03-29T08:33:07.604Z</time></trkpt><trkpt lat="45.4271673" lon="10.5154859"><ele>121.99999999999999</ele><time>2026-03-29T08:33:08.603Z</time></trkpt><trkpt lat="45.4271252" lon="10.515405"><ele>122.0</ele><time>2026-03-29T08:33:09.614Z</time></trkpt><trkpt lat="45.4270745" lon="10.5153447"><ele>121.99999999999999</ele><time>2026-03-29T08:33:10.616Z</time></trkpt><trkpt lat="45.4270075" lon="10.5153137"><ele>122.0</ele><time>2026-03-29T08:33:11.607Z</time></trkpt><trkpt lat="45.4269323" lon="10.5153312"><ele>122.0</ele><time>2026-03-29T08:33:12.608Z</time></trkpt><trkpt lat="45.4268757" lon="10.5153921"><ele>122.0</ele><time>2026-03-29T08:33:13.611Z</time></trkpt><trkpt lat="45.4268269" lon="10.5154782"><ele>121.99999999999999</ele><time>2026-03-29T08:33:14.608Z</time></trkpt><trkpt lat="45.4267598" lon="10.515564"><ele>122.0</ele><time>2026-03-29T08:33:15.605Z</time></trkpt><trkpt lat="45.4266779" lon="10.5156249"><ele>122.0</ele><time>2026-03-29T08:33:16.604Z</time></trkpt><trkpt lat="45.426597" lon="10.5156602"><ele>121.99999999999999</ele><time>2026-03-29T08:33:17.604Z</time></trkpt><trkpt lat="45.4264989" lon="10.5156463"><ele>121.99999999999999</ele><time>2026-03-29T08:33:18.604Z</time></trkpt><trkpt lat="45.4263795" lon="10.515597"><ele>122.0</ele><time>2026-03-29T08:33:19.597Z</time></trkpt><trkpt lat="45.4262601" lon="10.5155117"><ele>122.0</ele><time>2026-03-29T08:33:20.606Z</time></trkpt><trkpt lat="45.4261494" lon="10.5154405"><ele>122.0</ele><time>2026-03-29T08:33:21.599Z</time></trkpt><trkpt lat="45.426055" lon="10.5153797"><ele>121.99999999999999</ele><time>2026-03-29T08:33:22.61Z</time></trkpt><trkpt lat="45.4259653" lon="10.5153198"><ele>121.99999999999999</ele><time>2026-03-29T08:33:23.607Z</time></trkpt><trkpt lat="45.4258926" lon="10.515265"><ele>122.0</ele><time>2026-03-29T08:33:24.605Z</time></trkpt><trkpt lat="45.4258247" lon="10.5152053"><ele>122.0</ele><time>2026-03-29T08:33:25.603Z</time></trkpt><trkpt lat="45.4257461" lon="10.515136"><ele>122.0</ele><time>2026-03-29T08:33:26.609Z</time></trkpt><trkpt lat="45.4256597" lon="10.5150703"><ele>122.0</ele><time>2026-03-29T08:33:27.609Z</time></trkpt><trkpt lat="45.4255691" lon="10.5150025"><ele>122.0</ele><time>2026-03-29T08:33:28.613Z</time></trkpt><trkpt lat="45.4254613" lon="10.5149261"><ele>122.0</ele><time>2026-03-29T08:33:29.596Z</time></trkpt><trkpt lat="45.4253404" lon="10.5148336"><ele>122.0</ele><time>2026-03-29T08:33:30.608Z</time></trkpt><trkpt lat="45.4252074" lon="10.5147299"><ele>122.0</ele><time>2026-03-29T08:33:31.603Z</time></trkpt><trkpt lat="45.4250913" lon="10.5146346"><ele>122.0</ele><time>2026-03-29T08:33:32.606Z</time></trkpt><trkpt lat="45.4249847" lon="10.5145585"><ele>122.0</ele><time>2026-03-29T08:33:33.609Z</time></trkpt><trkpt lat="45.4248857" lon="10.5144972"><ele>121.75</ele><time>2026-03-29T08:33:34.603Z</time></trkpt><trkpt lat="45.4247954" lon="10.5144125"><ele>121.5</ele><time>2026-03-29T08:33:35.613Z</time></trkpt><trkpt lat="45.4246783" lon="10.5143088"><ele>121.25</ele><time>2026-03-29T08:33:36.603Z</time></trkpt><trkpt lat="45.4245691" lon="10.5142125"><ele>121.0</ele><time>2026-03-29T08:33:37.612Z</time></trkpt><trkpt lat="45.4244553" lon="10.5141113"><ele>120.75</ele><time>2026-03-29T08:33:38.609Z</time></trkpt><trkpt lat="45.4243291" lon="10.5140154"><ele>120.5</ele><time>2026-03-29T08:33:39.608Z</time></trkpt><trkpt lat="45.4242087" lon="10.5139143"><ele>120.25</ele><time>2026-03-29T08:33:40.611Z</time></trkpt><trkpt lat="45.4240919" lon="10.5138136"><ele>120.0</ele><time>2026-03-29T08:33:41.608Z</time></trkpt><trkpt lat="45.4239826" lon="10.5137019"><ele>120.0</ele><time>2026-03-29T08:33:42.612Z</time></trkpt><trkpt lat="45.4238539" lon="10.5135651"><ele>120.0</ele><time>2026-03-29T08:33:43.607Z</time></trkpt><trkpt lat="45.4237375" lon="10.5134403"><ele>120.0</ele><time>2026-03-29T08:33:44.612Z</time></trkpt><trkpt lat="45.4235966" lon="10.5133166"><ele>120.0</ele><time>2026-03-29T08:33:45.611Z</time></trkpt><trkpt lat="45.4234647" lon="10.5131922"><ele>120.0</ele><time>2026-03-29T08:33:46.606Z</time></trkpt><trkpt lat="45.4233536" lon="10.5130737"><ele>120.0</ele><time>2026-03-29T08:33:47.604Z</time></trkpt><trkpt lat="45.4232458" lon="10.5129649"><ele>120.0</ele><time>2026-03-29T08:33:48.606Z</time></trkpt><trkpt lat="45.4231392" lon="10.5128706"><ele>119.75</ele><time>2026-03-29T08:33:49.606Z</time></trkpt><trkpt lat="45.4230418" lon="10.5127937"><ele>119.5</ele><time>2026-03-29T08:33:50.606Z</time></trkpt><trkpt lat="45.422923" lon="10.5127252"><ele>119.25</ele><time>2026-03-29T08:33:51.613Z</time></trkpt><trkpt lat="45.4228309" lon="10.5126731"><ele>119.0</ele><time>2026-03-29T08:33:52.615Z</time></trkpt><trkpt lat="45.4227182" lon="10.5126049"><ele>119.75</ele><time>2026-03-29T08:33:53.611Z</time></trkpt><trkpt lat="45.4226117" lon="10.5125355"><ele>120.5</ele><time>2026-03-29T08:33:54.612Z</time></trkpt><trkpt lat="45.4224909" lon="10.5124562"><ele>121.25</ele><time>2026-03-29T08:33:55.606Z</time></trkpt><trkpt lat="45.4223782" lon="10.5123564"><ele>122.0</ele><time>2026-03-29T08:33:56.606Z</time></trkpt><trkpt lat="45.4222763" lon="10.5122381"><ele>122.0</ele><time>2026-03-29T08:33:57.605Z</time></trkpt><trkpt lat="45.4221919" lon="10.5121007"><ele>122.0</ele><time>2026-03-29T08:33:58.604Z</time></trkpt><trkpt lat="45.4221126" lon="10.5119828"><ele>122.0</ele><time>2026-03-29T08:33:59.606Z</time></trkpt><trkpt lat="45.4220346" lon="10.5118621"><ele>122.0</ele><time>2026-03-29T08:34:00.605Z</time></trkpt><trkpt lat="45.4219704" lon="10.5117468"><ele>121.8</ele><time>2026-03-29T08:34:01.607Z</time></trkpt><trkpt lat="45.4219104" lon="10.5116187"><ele>121.6</ele><time>2026-03-29T08:34:02.61Z</time></trkpt><trkpt lat="45.4218752" lon="10.5114839"><ele>121.39999999999999</ele><time>2026-03-29T08:34:03.601Z</time></trkpt><trkpt lat="45.4218595" lon="10.5113382"><ele>121.19999999999999</ele><time>2026-03-29T08:34:04.602Z</time></trkpt><trkpt lat="45.4218666" lon="10.5111926"><ele>121.0</ele><time>2026-03-29T08:34:05.607Z</time></trkpt><trkpt lat="45.4218716" lon="10.5110649"><ele>120.83333333333334</ele><time>2026-03-29T08:34:06.603Z</time></trkpt><trkpt lat="45.4218573" lon="10.5109766"><ele>120.66666666666667</ele><time>2026-03-29T08:34:07.598Z</time></trkpt><trkpt lat="45.4217778" lon="10.5108684"><ele>120.5</ele><time>2026-03-29T08:34:09.609Z</time></trkpt><trkpt lat="45.4217187" lon="10.5108358"><ele>120.33333333333334</ele><time>2026-03-29T08:34:10.605Z</time></trkpt><trkpt lat="45.421606" lon="10.5107881"><ele>120.16666666666667</ele><time>2026-03-29T08:34:12.609Z</time></trkpt><trkpt lat="45.4215379" lon="10.5107393"><ele>120.0</ele><time>2026-03-29T08:34:13.598Z</time></trkpt><trkpt lat="45.4214574" lon="10.5106682"><ele>120.0</ele><time>2026-03-29T08:34:14.593Z</time></trkpt><trkpt lat="45.421369" lon="10.5105963"><ele>120.0</ele><time>2026-03-29T08:34:15.598Z</time></trkpt><trkpt lat="45.4212653" lon="10.5105425"><ele>120.0</ele><time>2026-03-29T08:34:16.6Z</time></trkpt><trkpt lat="45.4211572" lon="10.5105081"><ele>120.0</ele><time>2026-03-29T08:34:17.598Z</time></trkpt><trkpt lat="45.4210482" lon="10.5105184"><ele>120.0</ele><time>2026-03-29T08:34:18.597Z</time></trkpt><trkpt lat="45.4209375" lon="10.5105518"><ele>120.4</ele><time>2026-03-29T08:34:19.599Z</time></trkpt><trkpt lat="45.4208413" lon="10.5106128"><ele>120.8</ele><time>2026-03-29T08:34:20.597Z</time></trkpt><trkpt lat="45.4207522" lon="10.5106966"><ele>121.19999999999999</ele><time>2026-03-29T08:34:21.596Z</time></trkpt><trkpt lat="45.420669" lon="10.5107993"><ele>121.6</ele><time>2026-03-29T08:34:22.596Z</time></trkpt><trkpt lat="45.420608" lon="10.5109443"><ele>122.0</ele><time>2026-03-29T08:34:23.596Z</time></trkpt><trkpt lat="45.4205735" lon="10.5110984"><ele>121.8</ele><time>2026-03-29T08:34:24.597Z</time></trkpt><trkpt lat="45.4205558" lon="10.5112619"><ele>121.6</ele><time>2026-03-29T08:34:25.598Z</time></trkpt><trkpt lat="45.4205489" lon="10.51141"><ele>121.39999999999999</ele><time>2026-03-29T08:34:26.597Z</time></trkpt><trkpt lat="45.4205413" lon="10.5115374"><ele>121.19999999999999</ele><time>2026-03-29T08:34:27.593Z</time></trkpt><trkpt lat="45.4205204" lon="10.5116569"><ele>121.0</ele><time>2026-03-29T08:34:28.592Z</time></trkpt><trkpt lat="45.4204966" lon="10.5117403"><ele>121.00000000000001</ele><time>2026-03-29T08:34:29.588Z</time></trkpt><trkpt lat="45.4204506" lon="10.5118026"><ele>121.0</ele><time>2026-03-29T08:34:30.595Z</time></trkpt><trkpt lat="45.4203852" lon="10.5118322"><ele>121.0</ele><time>2026-03-29T08:34:31.588Z</time></trkpt><trkpt lat="45.4203066" lon="10.5118223"><ele>121.0</ele><time>2026-03-29T08:34:32.594Z</time></trkpt><trkpt lat="45.4202115" lon="10.5117748"><ele>121.00000000000001</ele><time>2026-03-29T08:34:33.594Z</time></trkpt><trkpt lat="45.4201276" lon="10.5117297"><ele>121.0</ele><time>2026-03-29T08:34:34.599Z</time></trkpt><trkpt lat="45.420068" lon="10.5116937"><ele>121.0</ele><time>2026-03-29T08:34:35.602Z</time></trkpt><trkpt lat="45.4199621" lon="10.5116254"><ele>121.0</ele><time>2026-03-29T08:34:37.602Z</time></trkpt><trkpt lat="45.4198805" lon="10.5115966"><ele>121.0</ele><time>2026-03-29T08:34:39.62Z</time></trkpt><trkpt lat="45.4198178" lon="10.5115764"><ele>121.0</ele><time>2026-03-29T08:34:58.624Z</time></trkpt><trkpt lat="45.4198439" lon="10.5116832"><ele>121.0</ele><time>2026-03-29T08:35:03.623Z</time></trkpt><trkpt lat="45.419972" lon="10.511743"><ele>121.0</ele><time>2026-03-29T08:35:05.603Z</time></trkpt><trkpt lat="45.4201047" lon="10.5117654"><ele>121.0</ele><time>2026-03-29T08:35:06.603Z</time></trkpt><trkpt lat="45.4202372" lon="10.5117736"><ele>121.0</ele><time>2026-03-29T08:35:07.614Z</time></trkpt><trkpt lat="45.4203626" lon="10.5117714"><ele>121.0</ele><time>2026-03-29T08:35:08.611Z</time></trkpt><trkpt lat="45.4204612" lon="10.5117581"><ele>121.00000000000001</ele><time>2026-03-29T08:35:09.606Z</time></trkpt><trkpt lat="45.4205485" lon="10.511742"><ele>121.0</ele><time>2026-03-29T08:35:10.618Z</time></trkpt><trkpt lat="45.4206227" lon="10.5117294"><ele>121.0</ele><time>2026-03-29T08:35:11.614Z</time></trkpt><trkpt lat="45.4206927" lon="10.5117427"><ele>121.0</ele><time>2026-03-29T08:35:12.608Z</time></trkpt><trkpt lat="45.4207694" lon="10.511793"><ele>121.00000000000001</ele><time>2026-03-29T08:35:13.61Z</time></trkpt><trkpt lat="45.4208306" lon="10.5118549"><ele>121.0</ele><time>2026-03-29T08:35:14.616Z</time></trkpt><trkpt lat="45.4208704" lon="10.5119528"><ele>121.00000000000001</ele><time>2026-03-29T08:35:15.612Z</time></trkpt><trkpt lat="45.4208897" lon="10.5120538"><ele>121.0</ele><time>2026-03-29T08:35:16.608Z</time></trkpt><trkpt lat="45.4209054" lon="10.5121566"><ele>121.0</ele><time>2026-03-29T08:35:17.609Z</time></trkpt><trkpt lat="45.4209007" lon="10.5122482"><ele>121.0</ele><time>2026-03-29T08:35:18.611Z</time></trkpt><trkpt lat="45.4208045" lon="10.5123222"><ele>121.00000000000001</ele><time>2026-03-29T08:35:20.61Z</time></trkpt><trkpt lat="45.4207221" lon="10.5123175"><ele>121.0</ele><time>2026-03-29T08:35:21.613Z</time></trkpt><trkpt lat="45.4206246" lon="10.5123368"><ele>121.0</ele><time>2026-03-29T08:35:22.609Z</time></trkpt><trkpt lat="45.4205109" lon="10.5123772"><ele>121.0</ele><time>2026-03-29T08:35:23.603Z</time></trkpt><trkpt lat="45.4203787" lon="10.5124374"><ele>121.0</ele><time>2026-03-29T08:35:24.608Z</time></trkpt><trkpt lat="45.4202343" lon="10.5125085"><ele>121.0</ele><time>2026-03-29T08:35:25.619Z</time></trkpt><trkpt lat="45.4200695" lon="10.5125668"><ele>121.0</ele><time>2026-03-29T08:35:26.615Z</time></trkpt><trkpt lat="45.419911" lon="10.5126268"><ele>121.0</ele><time>2026-03-29T08:35:27.611Z</time></trkpt><trkpt lat="45.4197458" lon="10.5126771"><ele>121.0</ele><time>2026-03-29T08:35:28.613Z</time></trkpt><trkpt lat="45.4195569" lon="10.5127281"><ele>121.33333333333334</ele><time>2026-03-29T08:35:29.614Z</time></trkpt><trkpt lat="45.4193729" lon="10.5127665"><ele>121.66666666666666</ele><time>2026-03-29T08:35:30.616Z</time></trkpt><trkpt lat="45.4191962" lon="10.512771"><ele>122.0</ele><time>2026-03-29T08:35:31.619Z</time></trkpt><trkpt lat="45.4190234" lon="10.5127742"><ele>122.0</ele><time>2026-03-29T08:35:32.617Z</time></trkpt><trkpt lat="45.4188818" lon="10.5127809"><ele>122.0</ele><time>2026-03-29T08:35:33.624Z</time></trkpt><trkpt lat="45.4187489" lon="10.5127869"><ele>122.0</ele><time>2026-03-29T08:35:34.618Z</time></trkpt><trkpt lat="45.4186134" lon="10.5127685"><ele>122.0</ele><time>2026-03-29T08:35:35.616Z</time></trkpt><trkpt lat="45.4184711" lon="10.5127701"><ele>120.75</ele><time>2026-03-29T08:35:36.612Z</time></trkpt><trkpt lat="45.4183235" lon="10.5127915"><ele>119.5</ele><time>2026-03-29T08:35:37.61Z</time></trkpt><trkpt lat="45.4181615" lon="10.5128179"><ele>118.25</ele><time>2026-03-29T08:35:38.617Z</time></trkpt><trkpt lat="45.4180257" lon="10.5128146"><ele>117.0</ele><time>2026-03-29T08:35:39.613Z</time></trkpt><trkpt lat="45.4178952" lon="10.5128284"><ele>116.5</ele><time>2026-03-29T08:35:40.622Z</time></trkpt><trkpt lat="45.4177712" lon="10.512828"><ele>116.0</ele><time>2026-03-29T08:35:41.617Z</time></trkpt><trkpt lat="45.4176398" lon="10.5128362"><ele>115.5</ele><time>2026-03-29T08:35:43.695Z</time></trkpt><trkpt lat="45.4175115" lon="10.5128438"><ele>115.0</ele><time>2026-03-29T08:35:44.693Z</time></trkpt><trkpt lat="45.417374" lon="10.5128535"><ele>115.0</ele><time>2026-03-29T08:35:45.698Z</time></trkpt><trkpt lat="45.4172315" lon="10.5128643"><ele>115.0</ele><time>2026-03-29T08:35:46.697Z</time></trkpt><trkpt lat="45.4170823" lon="10.5128776"><ele>115.0</ele><time>2026-03-29T08:35:47.699Z</time></trkpt><trkpt lat="45.4167774" lon="10.5129079"><ele>114.75</ele><time>2026-03-29T08:35:48.608Z</time></trkpt><trkpt lat="45.4166391" lon="10.5129251"><ele>114.5</ele><time>2026-03-29T08:35:49.611Z</time></trkpt><trkpt lat="45.4165052" lon="10.5129371"><ele>114.25</ele><time>2026-03-29T08:35:50.607Z</time></trkpt><trkpt lat="45.4163619" lon="10.5129463"><ele>114.0</ele><time>2026-03-29T08:35:51.608Z</time></trkpt><trkpt lat="45.416212" lon="10.5129537"><ele>114.5</ele><time>2026-03-29T08:35:52.61Z</time></trkpt><trkpt lat="45.4160755" lon="10.5129592"><ele>115.0</ele><time>2026-03-29T08:35:53.611Z</time></trkpt><trkpt lat="45.4159224" lon="10.5129781"><ele>115.5</ele><time>2026-03-29T08:35:54.603Z</time></trkpt><trkpt lat="45.4157824" lon="10.5129978"><ele>116.0</ele><time>2026-03-29T08:35:55.606Z</time></trkpt><trkpt lat="45.4156414" lon="10.5129945"><ele>116.0</ele><time>2026-03-29T08:35:56.608Z</time></trkpt><trkpt lat="45.4155119" lon="10.5129777"><ele>116.0</ele><time>2026-03-29T08:35:57.599Z</time></trkpt><trkpt lat="45.4153847" lon="10.5129622"><ele>116.0</ele><time>2026-03-29T08:35:58.612Z</time></trkpt><trkpt lat="45.4152738" lon="10.5129413"><ele>116.0</ele><time>2026-03-29T08:35:59.598Z</time></trkpt><trkpt lat="45.415179" lon="10.5128976"><ele>115.8</ele><time>2026-03-29T08:36:00.604Z</time></trkpt><trkpt lat="45.4150964" lon="10.5128716"><ele>115.6</ele><time>2026-03-29T08:36:01.601Z</time></trkpt><trkpt lat="45.4150252" lon="10.5128957"><ele>115.4</ele><time>2026-03-29T08:36:03.599Z</time></trkpt><trkpt lat="45.4149822" lon="10.513055"><ele>115.2</ele><time>2026-03-29T08:36:05.601Z</time></trkpt><trkpt lat="45.4149704" lon="10.5131763"><ele>115.0</ele><time>2026-03-29T08:36:06.602Z</time></trkpt><trkpt lat="45.4149593" lon="10.5133212"><ele>115.2</ele><time>2026-03-29T08:36:07.599Z</time></trkpt><trkpt lat="45.4149531" lon="10.5134883"><ele>115.4</ele><time>2026-03-29T08:36:08.595Z</time></trkpt><trkpt lat="45.4149515" lon="10.5136612"><ele>115.6</ele><time>2026-03-29T08:36:09.604Z</time></trkpt><trkpt lat="45.414954" lon="10.5137977"><ele>115.8</ele><time>2026-03-29T08:36:10.606Z</time></trkpt><trkpt lat="45.4149586" lon="10.5139021"><ele>116.0</ele><time>2026-03-29T08:36:11.603Z</time></trkpt><trkpt lat="45.414957" lon="10.513994"><ele>116.0</ele><time>2026-03-29T08:36:12.607Z</time></trkpt><trkpt lat="45.4148898" lon="10.514111"><ele>116.0</ele><time>2026-03-29T08:36:14.603Z</time></trkpt><trkpt lat="45.4148313" lon="10.5141453"><ele>116.0</ele><time>2026-03-29T08:36:15.608Z</time></trkpt><trkpt lat="45.4147455" lon="10.5141538"><ele>116.0</ele><time>2026-03-29T08:36:16.602Z</time></trkpt><trkpt lat="45.4146123" lon="10.5141262"><ele>116.0</ele><time>2026-03-29T08:36:17.597Z</time></trkpt><trkpt lat="45.4144708" lon="10.5141074"><ele>116.0</ele><time>2026-03-29T08:36:18.595Z</time></trkpt><trkpt lat="45.4143226" lon="10.5141124"><ele>116.0</ele><time>2026-03-29T08:36:19.605Z</time></trkpt><trkpt lat="45.4141806" lon="10.5141384"><ele>116.0</ele><time>2026-03-29T08:36:20.606Z</time></trkpt><trkpt lat="45.4140425" lon="10.5141941"><ele>116.0</ele><time>2026-03-29T08:36:21.61Z</time></trkpt><trkpt lat="45.4139099" lon="10.5142668"><ele>116.4</ele><time>2026-03-29T08:36:22.607Z</time></trkpt><trkpt lat="45.4137786" lon="10.5143288"><ele>116.8</ele><time>2026-03-29T08:36:23.614Z</time></trkpt><trkpt lat="45.4136633" lon="10.5143707"><ele>117.20000000000002</ele><time>2026-03-29T08:36:24.606Z</time></trkpt><trkpt lat="45.4135658" lon="10.5144058"><ele>117.60000000000001</ele><time>2026-03-29T08:36:25.607Z</time></trkpt><trkpt lat="45.4134941" lon="10.514455"><ele>118.0</ele><time>2026-03-29T08:36:26.603Z</time></trkpt><trkpt lat="45.4134276" lon="10.5145257"><ele>117.5</ele><time>2026-03-29T08:36:27.611Z</time></trkpt><trkpt lat="45.4133729" lon="10.5146254"><ele>117.0</ele><time>2026-03-29T08:36:28.611Z</time></trkpt><trkpt lat="45.4133286" lon="10.5147592"><ele>116.5</ele><time>2026-03-29T08:36:29.61Z</time></trkpt><trkpt lat="45.4132936" lon="10.5149362"><ele>116.0</ele><time>2026-03-29T08:36:30.606Z</time></trkpt><trkpt lat="45.4132583" lon="10.5151405"><ele>116.0</ele><time>2026-03-29T08:36:31.607Z</time></trkpt><trkpt lat="45.4132142" lon="10.5153516"><ele>116.0</ele><time>2026-03-29T08:36:32.606Z</time></trkpt><trkpt lat="45.4131568" lon="10.5155667"><ele>116.0</ele><time>2026-03-29T08:36:33.609Z</time></trkpt><trkpt lat="45.4130862" lon="10.5157798"><ele>116.0</ele><time>2026-03-29T08:36:34.605Z</time></trkpt><trkpt lat="45.4130191" lon="10.5159722"><ele>116.0</ele><time>2026-03-29T08:36:35.606Z</time></trkpt><trkpt lat="45.4129526" lon="10.5161728"><ele>116.0</ele><time>2026-03-29T08:36:36.608Z</time></trkpt><trkpt lat="45.4128593" lon="10.5163889"><ele>115.5</ele><time>2026-03-29T08:36:37.611Z</time></trkpt><trkpt lat="45.4127946" lon="10.5165859"><ele>115.0</ele><time>2026-03-29T08:36:38.607Z</time></trkpt><trkpt lat="45.4127226" lon="10.5167836"><ele>114.5</ele><time>2026-03-29T08:36:39.609Z</time></trkpt><trkpt lat="45.412657" lon="10.5169598"><ele>114.0</ele><time>2026-03-29T08:36:40.61Z</time></trkpt><trkpt lat="45.412609" lon="10.5171318"><ele>114.0</ele><time>2026-03-29T08:36:41.606Z</time></trkpt><trkpt lat="45.4125465" lon="10.5172951"><ele>114.0</ele><time>2026-03-29T08:36:42.61Z</time></trkpt><trkpt lat="45.4124752" lon="10.5174576"><ele>114.0</ele><time>2026-03-29T08:36:43.607Z</time></trkpt><trkpt lat="45.4123821" lon="10.517618"><ele>114.0</ele><time>2026-03-29T08:36:44.602Z</time></trkpt><trkpt lat="45.4122747" lon="10.5177617"><ele>114.0</ele><time>2026-03-29T08:36:45.602Z</time></trkpt><trkpt lat="45.4121733" lon="10.5178844"><ele>114.0</ele><time>2026-03-29T08:36:46.611Z</time></trkpt><trkpt lat="45.4120554" lon="10.5179947"><ele>114.0</ele><time>2026-03-29T08:36:47.609Z</time></trkpt><trkpt lat="45.4119308" lon="10.5181559"><ele>114.0</ele><time>2026-03-29T08:36:48.614Z</time></trkpt><trkpt lat="45.411832" lon="10.5182965"><ele>115.25</ele><time>2026-03-29T08:36:49.604Z</time></trkpt><trkpt lat="45.4117351" lon="10.5184799"><ele>116.5</ele><time>2026-03-29T08:36:50.611Z</time></trkpt><trkpt lat="45.4116527" lon="10.5186601"><ele>117.75</ele><time>2026-03-29T08:36:51.609Z</time></trkpt><trkpt lat="45.4115968" lon="10.5188075"><ele>119.0</ele><time>2026-03-29T08:36:52.611Z</time></trkpt><trkpt lat="45.4115239" lon="10.5189417"><ele>118.99999999999999</ele><time>2026-03-29T08:36:53.608Z</time></trkpt><trkpt lat="45.4114404" lon="10.5190698"><ele>119.0</ele><time>2026-03-29T08:36:54.609Z</time></trkpt><trkpt lat="45.4113872" lon="10.5191623"><ele>119.0</ele><time>2026-03-29T08:36:55.604Z</time></trkpt><trkpt lat="45.4113514" lon="10.5192477"><ele>119.0</ele><time>2026-03-29T08:36:56.598Z</time></trkpt><trkpt lat="45.4113353" lon="10.5193406"><ele>118.99999999999999</ele><time>2026-03-29T08:36:57.597Z</time></trkpt><trkpt lat="45.4113455" lon="10.5194512"><ele>119.0</ele><time>2026-03-29T08:36:59.599Z</time></trkpt><trkpt lat="45.4113991" lon="10.5195117"><ele>118.6</ele><time>2026-03-29T08:37:00.6Z</time></trkpt><trkpt lat="45.4114709" lon="10.5195977"><ele>118.2</ele><time>2026-03-29T08:37:01.601Z</time></trkpt><trkpt lat="45.4115321" lon="10.5197004"><ele>117.79999999999998</ele><time>2026-03-29T08:37:02.605Z</time></trkpt><trkpt lat="45.4115744" lon="10.5198337"><ele>117.39999999999999</ele><time>2026-03-29T08:37:03.611Z</time></trkpt><trkpt lat="45.4115954" lon="10.5200027"><ele>117.0</ele><time>2026-03-29T08:37:04.608Z</time></trkpt><trkpt lat="45.4115811" lon="10.5201887"><ele>117.0</ele><time>2026-03-29T08:37:05.605Z</time></trkpt><trkpt lat="45.4115688" lon="10.5203957"><ele>117.0</ele><time>2026-03-29T08:37:06.603Z</time></trkpt><trkpt lat="45.4115548" lon="10.520571"><ele>117.0</ele><time>2026-03-29T08:37:07.596Z</time></trkpt><trkpt lat="45.4115488" lon="10.5207184"><ele>117.0</ele><time>2026-03-29T08:37:08.599Z</time></trkpt><trkpt lat="45.4115579" lon="10.5208447"><ele>116.8</ele><time>2026-03-29T08:37:09.604Z</time></trkpt><trkpt lat="45.4115925" lon="10.5209503"><ele>116.6</ele><time>2026-03-29T08:37:10.605Z</time></trkpt><trkpt lat="45.4116435" lon="10.5210388"><ele>116.39999999999999</ele><time>2026-03-29T08:37:11.606Z</time></trkpt><trkpt lat="45.411737" lon="10.5211133"><ele>116.19999999999999</ele><time>2026-03-29T08:37:12.598Z</time></trkpt><trkpt lat="45.4118391" lon="10.5211692"><ele>116.0</ele><time>2026-03-29T08:37:13.601Z</time></trkpt><trkpt lat="45.4119487" lon="10.5212214"><ele>116.16666666666666</ele><time>2026-03-29T08:37:14.604Z</time></trkpt><trkpt lat="45.4120489" lon="10.5212655"><ele>116.33333333333333</ele><time>2026-03-29T08:37:15.605Z</time></trkpt><trkpt lat="45.4121221" lon="10.5213179"><ele>116.5</ele><time>2026-03-29T08:37:16.603Z</time></trkpt><trkpt lat="45.4121736" lon="10.5213914"><ele>116.66666666666666</ele><time>2026-03-29T08:37:17.617Z</time></trkpt><trkpt lat="45.4121944" lon="10.5215138"><ele>116.83333333333333</ele><time>2026-03-29T08:37:18.603Z</time></trkpt><trkpt lat="45.4122167" lon="10.5216524"><ele>117.0</ele><time>2026-03-29T08:37:19.599Z</time></trkpt><trkpt lat="45.4122033" lon="10.5217976"><ele>117.0</ele><time>2026-03-29T08:37:20.6Z</time></trkpt><trkpt lat="45.4121747" lon="10.5219399"><ele>117.0</ele><time>2026-03-29T08:37:21.602Z</time></trkpt><trkpt lat="45.4121345" lon="10.5220387"><ele>117.0</ele><time>2026-03-29T08:37:22.603Z</time></trkpt><trkpt lat="45.4120986" lon="10.5221289"><ele>117.0</ele><time>2026-03-29T08:37:23.603Z</time></trkpt><trkpt lat="45.4120026" lon="10.5222098"><ele>117.0</ele><time>2026-03-29T08:37:25.612Z</time></trkpt><trkpt lat="45.4119325" lon="10.5221883"><ele>117.0</ele><time>2026-03-29T08:37:26.605Z</time></trkpt><trkpt lat="45.4118464" lon="10.5221345"><ele>117.0</ele><time>2026-03-29T08:37:27.602Z</time></trkpt><trkpt lat="45.4117588" lon="10.52206"><ele>117.0</ele><time>2026-03-29T08:37:28.596Z</time></trkpt><trkpt lat="45.4116496" lon="10.5219963"><ele>117.0</ele><time>2026-03-29T08:37:29.597Z</time></trkpt><trkpt lat="45.4115239" lon="10.5219569"><ele>117.0</ele><time>2026-03-29T08:37:30.601Z</time></trkpt><trkpt lat="45.4113694" lon="10.5219367"><ele>117.33333333333334</ele><time>2026-03-29T08:37:31.6Z</time></trkpt><trkpt lat="45.4112107" lon="10.521943"><ele>117.66666666666667</ele><time>2026-03-29T08:37:32.604Z</time></trkpt><trkpt lat="45.4110358" lon="10.5219811"><ele>118.0</ele><time>2026-03-29T08:37:33.596Z</time></trkpt><trkpt lat="45.4108539" lon="10.5220167"><ele>117.66666666666667</ele><time>2026-03-29T08:37:34.592Z</time></trkpt><trkpt lat="45.4107149" lon="10.5220771"><ele>117.33333333333334</ele><time>2026-03-29T08:37:35.596Z</time></trkpt><trkpt lat="45.4105709" lon="10.5221445"><ele>117.0</ele><time>2026-03-29T08:37:36.598Z</time></trkpt><trkpt lat="45.4104192" lon="10.5222078"><ele>117.75</ele><time>2026-03-29T08:37:37.594Z</time></trkpt><trkpt lat="45.4102893" lon="10.5222619"><ele>118.5</ele><time>2026-03-29T08:37:38.597Z</time></trkpt><trkpt lat="45.4101527" lon="10.522308"><ele>119.25</ele><time>2026-03-29T08:37:39.596Z</time></trkpt><trkpt lat="45.4100079" lon="10.5223886"><ele>120.0</ele><time>2026-03-29T08:37:40.597Z</time></trkpt><trkpt lat="45.4098851" lon="10.5224478"><ele>120.0</ele><time>2026-03-29T08:37:41.599Z</time></trkpt><trkpt lat="45.4097305" lon="10.5225147"><ele>120.0</ele><time>2026-03-29T08:37:42.605Z</time></trkpt><trkpt lat="45.4095783" lon="10.5225781"><ele>120.0</ele><time>2026-03-29T08:37:43.601Z</time></trkpt><trkpt lat="45.4094536" lon="10.5226392"><ele>121.25</ele><time>2026-03-29T08:37:44.601Z</time></trkpt><trkpt lat="45.4093146" lon="10.5226974"><ele>122.5</ele><time>2026-03-29T08:37:45.609Z</time></trkpt><trkpt lat="45.4091822" lon="10.5227532"><ele>123.75</ele><time>2026-03-29T08:37:46.614Z</time></trkpt><trkpt lat="45.4090448" lon="10.5227905"><ele>125.0</ele><time>2026-03-29T08:37:47.609Z</time></trkpt><trkpt lat="45.4089318" lon="10.5228363"><ele>125.4</ele><time>2026-03-29T08:37:48.601Z</time></trkpt><trkpt lat="45.4088342" lon="10.5228995"><ele>125.8</ele><time>2026-03-29T08:37:49.603Z</time></trkpt><trkpt lat="45.4087412" lon="10.5229532"><ele>126.19999999999999</ele><time>2026-03-29T08:37:50.602Z</time></trkpt><trkpt lat="45.4086437" lon="10.5229947"><ele>126.6</ele><time>2026-03-29T08:37:51.597Z</time></trkpt><trkpt lat="45.4085506" lon="10.5230331"><ele>127.0</ele><time>2026-03-29T08:37:52.596Z</time></trkpt><trkpt lat="45.4084496" lon="10.5230588"><ele>127.00000000000001</ele><time>2026-03-29T08:37:53.6Z</time></trkpt><trkpt lat="45.4083467" lon="10.5230802"><ele>127.0</ele><time>2026-03-29T08:37:54.602Z</time></trkpt><trkpt lat="45.4082557" lon="10.5231095"><ele>127.0</ele><time>2026-03-29T08:37:55.599Z</time></trkpt><trkpt lat="45.4081733" lon="10.5231497"><ele>127.0</ele><time>2026-03-29T08:37:56.6Z</time></trkpt><trkpt lat="45.4081024" lon="10.5232031"><ele>127.00000000000001</ele><time>2026-03-29T08:37:57.602Z</time></trkpt><trkpt lat="45.4080337" lon="10.5232538"><ele>127.0</ele><time>2026-03-29T08:37:58.604Z</time></trkpt><trkpt lat="45.4079692" lon="10.523293"><ele>127.33333333333334</ele><time>2026-03-29T08:37:59.603Z</time></trkpt><trkpt lat="45.4079091" lon="10.52334"><ele>127.66666666666667</ele><time>2026-03-29T08:38:00.607Z</time></trkpt><trkpt lat="45.4078432" lon="10.523388"><ele>128.0</ele><time>2026-03-29T08:38:01.602Z</time></trkpt><trkpt lat="45.4077782" lon="10.5234427"><ele>128.33333333333334</ele><time>2026-03-29T08:38:02.609Z</time></trkpt><trkpt lat="45.4077169" lon="10.523509"><ele>128.66666666666666</ele><time>2026-03-29T08:38:03.603Z</time></trkpt><trkpt lat="45.40765" lon="10.5235726"><ele>129.0</ele><time>2026-03-29T08:38:04.611Z</time></trkpt><trkpt lat="45.4075766" lon="10.5236307"><ele>129.0</ele><time>2026-03-29T08:38:05.606Z</time></trkpt><trkpt lat="45.4074968" lon="10.5236926"><ele>129.0</ele><time>2026-03-29T08:38:06.598Z</time></trkpt><trkpt lat="45.4074238" lon="10.5237476"><ele>129.0</ele><time>2026-03-29T08:38:07.603Z</time></trkpt><trkpt lat="45.4073564" lon="10.523812"><ele>129.0</ele><time>2026-03-29T08:38:08.597Z</time></trkpt><trkpt lat="45.4072897" lon="10.5238849"><ele>129.0</ele><time>2026-03-29T08:38:09.605Z</time></trkpt><trkpt lat="45.4072177" lon="10.5239579"><ele>129.0</ele><time>2026-03-29T08:38:10.604Z</time></trkpt><trkpt lat="45.4071353" lon="10.5240204"><ele>130.0</ele><time>2026-03-29T08:38:11.598Z</time></trkpt><trkpt lat="45.4070463" lon="10.5240818"><ele>131.0</ele><time>2026-03-29T08:38:12.603Z</time></trkpt><trkpt lat="45.4069524" lon="10.5241503"><ele>132.0</ele><time>2026-03-29T08:38:13.594Z</time></trkpt><trkpt lat="45.4068522" lon="10.5242112"><ele>133.0</ele><time>2026-03-29T08:38:14.608Z</time></trkpt><trkpt lat="45.4067632" lon="10.5242673"><ele>134.0</ele><time>2026-03-29T08:38:15.606Z</time></trkpt><trkpt lat="45.4066712" lon="10.5243256"><ele>134.0</ele><time>2026-03-29T08:38:16.608Z</time></trkpt><trkpt lat="45.4065842" lon="10.5243862"><ele>134.0</ele><time>2026-03-29T08:38:17.614Z</time></trkpt><trkpt lat="45.4065026" lon="10.5244476"><ele>134.0</ele><time>2026-03-29T08:38:18.611Z</time></trkpt><trkpt lat="45.4064162" lon="10.5245136"><ele>134.0</ele><time>2026-03-29T08:38:19.617Z</time></trkpt><trkpt lat="45.4063427" lon="10.5245821"><ele>134.0</ele><time>2026-03-29T08:38:20.617Z</time></trkpt><trkpt lat="45.4062704" lon="10.5246533"><ele>133.2</ele><time>2026-03-29T08:38:21.608Z</time></trkpt><trkpt lat="45.4061958" lon="10.5247361"><ele>132.4</ele><time>2026-03-29T08:38:22.609Z</time></trkpt><trkpt lat="45.4061129" lon="10.5248356"><ele>131.6</ele><time>2026-03-29T08:38:23.606Z</time></trkpt><trkpt lat="45.4060289" lon="10.5249474"><ele>130.8</ele><time>2026-03-29T08:38:24.606Z</time></trkpt><trkpt lat="45.4059496" lon="10.5250816"><ele>130.0</ele><time>2026-03-29T08:38:25.602Z</time></trkpt><trkpt lat="45.4058612" lon="10.5252261"><ele>130.0</ele><time>2026-03-29T08:38:26.603Z</time></trkpt><trkpt lat="45.4057603" lon="10.5253674"><ele>130.0</ele><time>2026-03-29T08:38:27.61Z</time></trkpt><trkpt lat="45.4056592" lon="10.5254912"><ele>130.0</ele><time>2026-03-29T08:38:28.602Z</time></trkpt><trkpt lat="45.4055591" lon="10.5256172"><ele>130.0</ele><time>2026-03-29T08:38:29.61Z</time></trkpt><trkpt lat="45.4054676" lon="10.5257452"><ele>130.4</ele><time>2026-03-29T08:38:30.61Z</time></trkpt><trkpt lat="45.4053946" lon="10.5258565"><ele>130.8</ele><time>2026-03-29T08:38:31.61Z</time></trkpt><trkpt lat="45.4053293" lon="10.5259617"><ele>131.2</ele><time>2026-03-29T08:38:32.619Z</time></trkpt><trkpt lat="45.4052652" lon="10.5260678"><ele>131.6</ele><time>2026-03-29T08:38:33.61Z</time></trkpt><trkpt lat="45.4051853" lon="10.5261828"><ele>132.0</ele><time>2026-03-29T08:38:34.604Z</time></trkpt><trkpt lat="45.4050953" lon="10.5262944"><ele>132.0</ele><time>2026-03-29T08:38:35.602Z</time></trkpt><trkpt lat="45.4050043" lon="10.5264112"><ele>132.0</ele><time>2026-03-29T08:38:36.604Z</time></trkpt><trkpt lat="45.4049105" lon="10.5265338"><ele>132.0</ele><time>2026-03-29T08:38:37.606Z</time></trkpt><trkpt lat="45.404814" lon="10.5266657"><ele>132.0</ele><time>2026-03-29T08:38:38.6Z</time></trkpt><trkpt lat="45.4047127" lon="10.5267963"><ele>132.0</ele><time>2026-03-29T08:38:39.616Z</time></trkpt><trkpt lat="45.404615" lon="10.5269301"><ele>132.0</ele><time>2026-03-29T08:38:40.608Z</time></trkpt><trkpt lat="45.4045308" lon="10.5270472"><ele>132.0</ele><time>2026-03-29T08:38:41.612Z</time></trkpt><trkpt lat="45.4044432" lon="10.5271783"><ele>132.0</ele><time>2026-03-29T08:38:42.612Z</time></trkpt><trkpt lat="45.404351" lon="10.5273"><ele>132.25</ele><time>2026-03-29T08:38:43.609Z</time></trkpt><trkpt lat="45.4042648" lon="10.52741"><ele>132.5</ele><time>2026-03-29T08:38:44.611Z</time></trkpt><trkpt lat="45.4041621" lon="10.5275236"><ele>132.75</ele><time>2026-03-29T08:38:45.607Z</time></trkpt><trkpt lat="45.4040726" lon="10.527655"><ele>133.0</ele><time>2026-03-29T08:38:46.618Z</time></trkpt><trkpt lat="45.4039842" lon="10.5277425"><ele>133.0</ele><time>2026-03-29T08:38:47.612Z</time></trkpt><trkpt lat="45.4039046" lon="10.5277816"><ele>133.0</ele><time>2026-03-29T08:38:48.613Z</time></trkpt><trkpt lat="45.4038048" lon="10.527781"><ele>133.0</ele><time>2026-03-29T08:38:49.606Z</time></trkpt><trkpt lat="45.4036922" lon="10.5277626"><ele>133.0</ele><time>2026-03-29T08:38:50.615Z</time></trkpt><trkpt lat="45.4035727" lon="10.5277471"><ele>133.0</ele><time>2026-03-29T08:38:51.605Z</time></trkpt><trkpt lat="45.4034396" lon="10.5277497"><ele>133.4</ele><time>2026-03-29T08:38:52.614Z</time></trkpt><trkpt lat="45.4033207" lon="10.5277712"><ele>133.8</ele><time>2026-03-29T08:38:53.609Z</time></trkpt><trkpt lat="45.4032166" lon="10.5278092"><ele>134.2</ele><time>2026-03-29T08:38:54.615Z</time></trkpt><trkpt lat="45.4031183" lon="10.5278351"><ele>134.6</ele><time>2026-03-29T08:38:55.615Z</time></trkpt><trkpt lat="45.4030166" lon="10.5278514"><ele>135.0</ele><time>2026-03-29T08:38:56.612Z</time></trkpt><trkpt lat="45.4029104" lon="10.5278741"><ele>135.6</ele><time>2026-03-29T08:38:57.619Z</time></trkpt><trkpt lat="45.4028115" lon="10.5278936"><ele>136.2</ele><time>2026-03-29T08:38:58.608Z</time></trkpt><trkpt lat="45.4027074" lon="10.527934"><ele>136.8</ele><time>2026-03-29T08:38:59.605Z</time></trkpt><trkpt lat="45.4026037" lon="10.5280027"><ele>137.4</ele><time>2026-03-29T08:39:00.617Z</time></trkpt><trkpt lat="45.4024965" lon="10.5280981"><ele>138.0</ele><time>2026-03-29T08:39:01.604Z</time></trkpt><trkpt lat="45.4023891" lon="10.5282048"><ele>138.0</ele><time>2026-03-29T08:39:02.624Z</time></trkpt><trkpt lat="45.4022916" lon="10.528306"><ele>138.0</ele><time>2026-03-29T08:39:03.615Z</time></trkpt><trkpt lat="45.4022017" lon="10.5283965"><ele>138.0</ele><time>2026-03-29T08:39:04.618Z</time></trkpt><trkpt lat="45.4020973" lon="10.5284846"><ele>138.0</ele><time>2026-03-29T08:39:05.613Z</time></trkpt><trkpt lat="45.4019852" lon="10.5285812"><ele>138.0</ele><time>2026-03-29T08:39:06.615Z</time></trkpt><trkpt lat="45.4018737" lon="10.5286827"><ele>138.0</ele><time>2026-03-29T08:39:07.62Z</time></trkpt><trkpt lat="45.4017559" lon="10.5287779"><ele>138.0</ele><time>2026-03-29T08:39:08.613Z</time></trkpt><trkpt lat="45.4016354" lon="10.5288745"><ele>138.0</ele><time>2026-03-29T08:39:09.62Z</time></trkpt><trkpt lat="45.4015161" lon="10.5289778"><ele>137.75</ele><time>2026-03-29T08:39:10.617Z</time></trkpt><trkpt lat="45.4014083" lon="10.529077"><ele>137.5</ele><time>2026-03-29T08:39:11.61Z</time></trkpt><trkpt lat="45.4012955" lon="10.5291783"><ele>137.25</ele><time>2026-03-29T08:39:12.61Z</time></trkpt><trkpt lat="45.4011684" lon="10.5292831"><ele>137.0</ele><time>2026-03-29T08:39:13.619Z</time></trkpt><trkpt lat="45.4010422" lon="10.5293879"><ele>136.75</ele><time>2026-03-29T08:39:14.61Z</time></trkpt><trkpt lat="45.4009253" lon="10.5294967"><ele>136.5</ele><time>2026-03-29T08:39:15.61Z</time></trkpt><trkpt lat="45.4008167" lon="10.5295907"><ele>136.25</ele><time>2026-03-29T08:39:16.618Z</time></trkpt><trkpt lat="45.4006991" lon="10.5297006"><ele>136.0</ele><time>2026-03-29T08:39:17.619Z</time></trkpt><trkpt lat="45.4005774" lon="10.5298056"><ele>136.25</ele><time>2026-03-29T08:39:18.626Z</time></trkpt><trkpt lat="45.4004531" lon="10.5299144"><ele>136.5</ele><time>2026-03-29T08:39:19.635Z</time></trkpt><trkpt lat="45.4003293" lon="10.5300217"><ele>136.75</ele><time>2026-03-29T08:39:20.629Z</time></trkpt><trkpt lat="45.4002045" lon="10.5301261"><ele>137.0</ele><time>2026-03-29T08:39:21.63Z</time></trkpt><trkpt lat="45.4001086" lon="10.5302047"><ele>137.0</ele><time>2026-03-29T08:39:22.622Z</time></trkpt><trkpt lat="45.4000235" lon="10.5302907"><ele>137.0</ele><time>2026-03-29T08:39:23.621Z</time></trkpt><trkpt lat="45.3999072" lon="10.530378"><ele>137.0</ele><time>2026-03-29T08:39:24.618Z</time></trkpt><trkpt lat="45.3997991" lon="10.5304619"><ele>137.0</ele><time>2026-03-29T08:39:25.623Z</time></trkpt><trkpt lat="45.3997149" lon="10.5305613"><ele>135.6</ele><time>2026-03-29T08:39:26.615Z</time></trkpt><trkpt lat="45.3996221" lon="10.5306701"><ele>134.2</ele><time>2026-03-29T08:39:27.617Z</time></trkpt><trkpt lat="45.3995289" lon="10.5307756"><ele>132.8</ele><time>2026-03-29T08:39:28.607Z</time></trkpt><trkpt lat="45.3994504" lon="10.5308639"><ele>131.4</ele><time>2026-03-29T08:39:29.614Z</time></trkpt><trkpt lat="45.3993822" lon="10.5309488"><ele>130.0</ele><time>2026-03-29T08:39:30.622Z</time></trkpt><trkpt lat="45.3993083" lon="10.5310464"><ele>130.0</ele><time>2026-03-29T08:39:31.613Z</time></trkpt><trkpt lat="45.3992397" lon="10.5311559"><ele>130.0</ele><time>2026-03-29T08:39:32.615Z</time></trkpt><trkpt lat="45.3991743" lon="10.5312871"><ele>130.0</ele><time>2026-03-29T08:39:33.6Z</time></trkpt><trkpt lat="45.3991207" lon="10.5314265"><ele>130.0</ele><time>2026-03-29T08:39:34.602Z</time></trkpt><trkpt lat="45.3990518" lon="10.5315758"><ele>130.4</ele><time>2026-03-29T08:39:35.607Z</time></trkpt><trkpt lat="45.3989871" lon="10.5317185"><ele>130.8</ele><time>2026-03-29T08:39:36.605Z</time></trkpt><trkpt lat="45.3989252" lon="10.5318486"><ele>131.2</ele><time>2026-03-29T08:39:37.606Z</time></trkpt><trkpt lat="45.398858" lon="10.5319716"><ele>131.6</ele><time>2026-03-29T08:39:38.606Z</time></trkpt><trkpt lat="45.3987818" lon="10.5320758"><ele>132.0</ele><time>2026-03-29T08:39:39.609Z</time></trkpt><trkpt lat="45.3986944" lon="10.5321765"><ele>131.2</ele><time>2026-03-29T08:39:40.62Z</time></trkpt><trkpt lat="45.3986174" lon="10.532269"><ele>130.39999999999998</ele><time>2026-03-29T08:39:41.613Z</time></trkpt><trkpt lat="45.3985502" lon="10.5323541"><ele>129.60000000000002</ele><time>2026-03-29T08:39:42.617Z</time></trkpt><trkpt lat="45.3984811" lon="10.5324239"><ele>128.8</ele><time>2026-03-29T08:39:43.627Z</time></trkpt><trkpt lat="45.3984268" lon="10.5324922"><ele>128.0</ele><time>2026-03-29T08:39:44.625Z</time></trkpt><trkpt lat="45.3983392" lon="10.5325845"><ele>127.99999999999999</ele><time>2026-03-29T08:39:46.623Z</time></trkpt><trkpt lat="45.3982957" lon="10.5326945"><ele>128.0</ele><time>2026-03-29T08:39:48.623Z</time></trkpt><trkpt lat="45.3983202" lon="10.5328315"><ele>128.0</ele><time>2026-03-29T08:39:50.629Z</time></trkpt><trkpt lat="45.3983828" lon="10.5329636"><ele>128.0</ele><time>2026-03-29T08:39:52.628Z</time></trkpt><trkpt lat="45.3984281" lon="10.5330325"><ele>127.99999999999999</ele><time>2026-03-29T08:39:53.63Z</time></trkpt><trkpt lat="45.3984707" lon="10.533117"><ele>128.0</ele><time>2026-03-29T08:39:54.625Z</time></trkpt><trkpt lat="45.3985258" lon="10.5332156"><ele>128.0</ele><time>2026-03-29T08:39:55.631Z</time></trkpt><trkpt lat="45.3985768" lon="10.5333187"><ele>128.0</ele><time>2026-03-29T08:39:56.624Z</time></trkpt><trkpt lat="45.3986267" lon="10.533435"><ele>128.0</ele><time>2026-03-29T08:39:57.616Z</time></trkpt><trkpt lat="45.3986746" lon="10.5335648"><ele>128.0</ele><time>2026-03-29T08:39:58.614Z</time></trkpt><trkpt lat="45.3987185" lon="10.5337034"><ele>128.0</ele><time>2026-03-29T08:39:59.619Z</time></trkpt><trkpt lat="45.398761" lon="10.5338447"><ele>127.80000000000001</ele><time>2026-03-29T08:40:00.626Z</time></trkpt><trkpt lat="45.398814" lon="10.5339797"><ele>127.60000000000001</ele><time>2026-03-29T08:40:01.617Z</time></trkpt><trkpt lat="45.3988779" lon="10.5340886"><ele>127.39999999999999</ele><time>2026-03-29T08:40:02.625Z</time></trkpt><trkpt lat="45.3989689" lon="10.5341967"><ele>127.19999999999999</ele><time>2026-03-29T08:40:03.609Z</time></trkpt><trkpt lat="45.3990698" lon="10.5342957"><ele>127.0</ele><time>2026-03-29T08:40:04.61Z</time></trkpt><trkpt lat="45.399174" lon="10.5344041"><ele>127.0</ele><time>2026-03-29T08:40:05.614Z</time></trkpt><trkpt lat="45.3992608" lon="10.5345206"><ele>126.99999999999999</ele><time>2026-03-29T08:40:06.609Z</time></trkpt><trkpt lat="45.3993311" lon="10.5346395"><ele>126.99999999999999</ele><time>2026-03-29T08:40:07.618Z</time></trkpt><trkpt lat="45.3993826" lon="10.5347722"><ele>127.0</ele><time>2026-03-29T08:40:08.622Z</time></trkpt><trkpt lat="45.399428" lon="10.5349149"><ele>127.0</ele><time>2026-03-29T08:40:09.619Z</time></trkpt><trkpt lat="45.3994702" lon="10.5350634"><ele>127.8</ele><time>2026-03-29T08:40:10.638Z</time></trkpt><trkpt lat="45.399492" lon="10.5351985"><ele>128.6</ele><time>2026-03-29T08:40:11.62Z</time></trkpt><trkpt lat="45.399509" lon="10.5353429"><ele>129.39999999999998</ele><time>2026-03-29T08:40:12.618Z</time></trkpt><trkpt lat="45.3995188" lon="10.5355036"><ele>130.2</ele><time>2026-03-29T08:40:13.621Z</time></trkpt><trkpt lat="45.399514" lon="10.5356886"><ele>131.0</ele><time>2026-03-29T08:40:14.616Z</time></trkpt><trkpt lat="45.3995082" lon="10.535899"><ele>131.0</ele><time>2026-03-29T08:40:15.623Z</time></trkpt><trkpt lat="45.3994903" lon="10.5361231"><ele>131.0</ele><time>2026-03-29T08:40:16.622Z</time></trkpt><trkpt lat="45.399471" lon="10.536324"><ele>131.0</ele><time>2026-03-29T08:40:17.622Z</time></trkpt><trkpt lat="45.3994566" lon="10.5365069"><ele>131.0</ele><time>2026-03-29T08:40:18.626Z</time></trkpt><trkpt lat="45.3994289" lon="10.5367371"><ele>130.25</ele><time>2026-03-29T08:40:19.616Z</time></trkpt><trkpt lat="45.399416" lon="10.5369336"><ele>129.5</ele><time>2026-03-29T08:40:20.643Z</time></trkpt><trkpt lat="45.3993935" lon="10.537114"><ele>128.75</ele><time>2026-03-29T08:40:21.619Z</time></trkpt><trkpt lat="45.3993617" lon="10.5372754"><ele>128.0</ele><time>2026-03-29T08:40:22.625Z</time></trkpt><trkpt lat="45.3993398" lon="10.53742"><ele>127.0</ele><time>2026-03-29T08:40:23.622Z</time></trkpt><trkpt lat="45.3993133" lon="10.5375739"><ele>126.0</ele><time>2026-03-29T08:40:24.618Z</time></trkpt><trkpt lat="45.3992549" lon="10.537736"><ele>125.0</ele><time>2026-03-29T08:40:25.626Z</time></trkpt><trkpt lat="45.3992059" lon="10.53786"><ele>124.0</ele><time>2026-03-29T08:40:26.624Z</time></trkpt><trkpt lat="45.3991662" lon="10.5380293"><ele>123.4</ele><time>2026-03-29T08:40:27.627Z</time></trkpt><trkpt lat="45.3991334" lon="10.5381815"><ele>122.80000000000001</ele><time>2026-03-29T08:40:28.625Z</time></trkpt><trkpt lat="45.3991069" lon="10.5383336"><ele>122.19999999999999</ele><time>2026-03-29T08:40:30.708Z</time></trkpt><trkpt lat="45.3990871" lon="10.5384909"><ele>121.6</ele><time>2026-03-29T08:40:31.699Z</time></trkpt><trkpt lat="45.3990743" lon="10.5386501"><ele>121.0</ele><time>2026-03-29T08:40:32.694Z</time></trkpt><trkpt lat="45.3990706" lon="10.5387956"><ele>120.75</ele><time>2026-03-29T08:40:33.697Z</time></trkpt><trkpt lat="45.3990687" lon="10.538943"><ele>120.5</ele><time>2026-03-29T08:40:34.687Z</time></trkpt><trkpt lat="45.3990611" lon="10.5391013"><ele>120.25</ele><time>2026-03-29T08:40:35.699Z</time></trkpt><trkpt lat="45.3990466" lon="10.5392641"><ele>120.0</ele><time>2026-03-29T08:40:36.693Z</time></trkpt><trkpt lat="45.399033" lon="10.539438"><ele>119.0</ele><time>2026-03-29T08:40:37.688Z</time></trkpt><trkpt lat="45.3990168" lon="10.5395841"><ele>118.0</ele><time>2026-03-29T08:40:38.689Z</time></trkpt><trkpt lat="45.3989971" lon="10.5397329"><ele>117.0</ele><time>2026-03-29T08:40:39.687Z</time></trkpt><trkpt lat="45.3989675" lon="10.5398889"><ele>116.0</ele><time>2026-03-29T08:40:40.696Z</time></trkpt><trkpt lat="45.3989854" lon="10.540062"><ele>115.0</ele><time>2026-03-29T08:40:41.697Z</time></trkpt><trkpt lat="45.3989343" lon="10.5402245"><ele>114.25</ele><time>2026-03-29T08:40:42.697Z</time></trkpt><trkpt lat="45.3988823" lon="10.5403901"><ele>113.5</ele><time>2026-03-29T08:40:43.697Z</time></trkpt><trkpt lat="45.3988302" lon="10.5405485"><ele>112.75</ele><time>2026-03-29T08:40:44.699Z</time></trkpt><trkpt lat="45.3987777" lon="10.5407108"><ele>112.0</ele><time>2026-03-29T08:40:45.691Z</time></trkpt><trkpt lat="45.3987266" lon="10.5408629"><ele>112.16666666666667</ele><time>2026-03-29T08:40:46.696Z</time></trkpt><trkpt lat="45.3986813" lon="10.5409968"><ele>112.33333333333334</ele><time>2026-03-29T08:40:47.688Z</time></trkpt><trkpt lat="45.3986388" lon="10.5411186"><ele>112.5</ele><time>2026-03-29T08:40:48.686Z</time></trkpt><trkpt lat="45.3986112" lon="10.5412312"><ele>112.66666666666666</ele><time>2026-03-29T08:40:49.688Z</time></trkpt><trkpt lat="45.3986023" lon="10.5413417"><ele>112.83333333333333</ele><time>2026-03-29T08:40:50.69Z</time></trkpt><trkpt lat="45.3986067" lon="10.5414441"><ele>113.0</ele><time>2026-03-29T08:40:51.678Z</time></trkpt><trkpt lat="45.3986294" lon="10.5415481"><ele>112.99999999999999</ele><time>2026-03-29T08:40:52.692Z</time></trkpt><trkpt lat="45.3986711" lon="10.5416479"><ele>113.0</ele><time>2026-03-29T08:40:53.683Z</time></trkpt><trkpt lat="45.3987172" lon="10.5417415"><ele>113.0</ele><time>2026-03-29T08:40:54.699Z</time></trkpt><trkpt lat="45.3987549" lon="10.5418419"><ele>113.0</ele><time>2026-03-29T08:40:55.698Z</time></trkpt><trkpt lat="45.3987843" lon="10.5419345"><ele>112.99999999999999</ele><time>2026-03-29T08:40:56.69Z</time></trkpt><trkpt lat="45.3987999" lon="10.5420371"><ele>113.0</ele><time>2026-03-29T08:40:57.676Z</time></trkpt><trkpt lat="45.3987991" lon="10.5421536"><ele>112.60000000000001</ele><time>2026-03-29T08:40:58.675Z</time></trkpt><trkpt lat="45.398772" lon="10.5422697"><ele>112.20000000000002</ele><time>2026-03-29T08:40:59.686Z</time></trkpt><trkpt lat="45.3987274" lon="10.542402"><ele>111.8</ele><time>2026-03-29T08:41:00.692Z</time></trkpt><trkpt lat="45.3986734" lon="10.5425518"><ele>111.4</ele><time>2026-03-29T08:41:01.69Z</time></trkpt><trkpt lat="45.3986216" lon="10.5427174"><ele>111.0</ele><time>2026-03-29T08:41:02.7Z</time></trkpt><trkpt lat="45.3985778" lon="10.5428934"><ele>111.0</ele><time>2026-03-29T08:41:03.685Z</time></trkpt><trkpt lat="45.3985317" lon="10.5430773"><ele>111.0</ele><time>2026-03-29T08:41:04.681Z</time></trkpt><trkpt lat="45.3984804" lon="10.5432592"><ele>111.0</ele><time>2026-03-29T08:41:05.677Z</time></trkpt><trkpt lat="45.3984115" lon="10.5434521"><ele>111.0</ele><time>2026-03-29T08:41:06.679Z</time></trkpt><trkpt lat="45.3983517" lon="10.543605"><ele>111.4</ele><time>2026-03-29T08:41:07.702Z</time></trkpt><trkpt lat="45.3982975" lon="10.5437586"><ele>111.8</ele><time>2026-03-29T08:41:08.701Z</time></trkpt><trkpt lat="45.3982566" lon="10.5438935"><ele>112.20000000000002</ele><time>2026-03-29T08:41:09.703Z</time></trkpt><trkpt lat="45.3982209" lon="10.5439845"><ele>112.60000000000001</ele><time>2026-03-29T08:41:10.71Z</time></trkpt><trkpt lat="45.3981845" lon="10.5440949"><ele>113.0</ele><time>2026-03-29T08:41:11.697Z</time></trkpt><trkpt lat="45.3981416" lon="10.5442061"><ele>113.0</ele><time>2026-03-29T08:41:12.709Z</time></trkpt><trkpt lat="45.3980935" lon="10.5443191"><ele>113.00000000000001</ele><time>2026-03-29T08:41:13.695Z</time></trkpt><trkpt lat="45.3980364" lon="10.5444399"><ele>113.00000000000001</ele><time>2026-03-29T08:41:14.706Z</time></trkpt><trkpt lat="45.3979698" lon="10.5445678"><ele>113.0</ele><time>2026-03-29T08:41:15.705Z</time></trkpt><trkpt lat="45.3978954" lon="10.5447042"><ele>113.0</ele><time>2026-03-29T08:41:16.7Z</time></trkpt><trkpt lat="45.3978184" lon="10.5448521"><ele>113.0</ele><time>2026-03-29T08:41:17.711Z</time></trkpt><trkpt lat="45.3977504" lon="10.545004"><ele>113.0</ele><time>2026-03-29T08:41:18.697Z</time></trkpt><trkpt lat="45.3976906" lon="10.5451695"><ele>113.0</ele><time>2026-03-29T08:41:19.701Z</time></trkpt><trkpt lat="45.3976382" lon="10.5453439"><ele>113.0</ele><time>2026-03-29T08:41:20.708Z</time></trkpt><trkpt lat="45.3975936" lon="10.5455089"><ele>113.0</ele><time>2026-03-29T08:41:21.7Z</time></trkpt><trkpt lat="45.3975551" lon="10.5456601"><ele>113.0</ele><time>2026-03-29T08:41:22.709Z</time></trkpt><trkpt lat="45.3975365" lon="10.5458325"><ele>113.0</ele><time>2026-03-29T08:41:23.696Z</time></trkpt><trkpt lat="45.3975388" lon="10.5460083"><ele>113.0</ele><time>2026-03-29T08:41:24.683Z</time></trkpt><trkpt lat="45.3975575" lon="10.5461871"><ele>113.0</ele><time>2026-03-29T08:41:25.693Z</time></trkpt><trkpt lat="45.3975886" lon="10.5463641"><ele>113.0</ele><time>2026-03-29T08:41:26.687Z</time></trkpt><trkpt lat="45.3976338" lon="10.5465529"><ele>113.0</ele><time>2026-03-29T08:41:27.689Z</time></trkpt><trkpt lat="45.3976569" lon="10.5467401"><ele>113.0</ele><time>2026-03-29T08:41:28.684Z</time></trkpt><trkpt lat="45.3976444" lon="10.5469263"><ele>113.75</ele><time>2026-03-29T08:41:29.696Z</time></trkpt><trkpt lat="45.3976154" lon="10.5471146"><ele>114.5</ele><time>2026-03-29T08:41:30.699Z</time></trkpt><trkpt lat="45.3975703" lon="10.547316"><ele>115.25</ele><time>2026-03-29T08:41:31.694Z</time></trkpt><trkpt lat="45.3975189" lon="10.5475166"><ele>116.0</ele><time>2026-03-29T08:41:32.697Z</time></trkpt><trkpt lat="45.3974713" lon="10.5477211"><ele>116.25</ele><time>2026-03-29T08:41:33.692Z</time></trkpt><trkpt lat="45.3974354" lon="10.5479248"><ele>116.5</ele><time>2026-03-29T08:41:34.709Z</time></trkpt><trkpt lat="45.3974047" lon="10.5481342"><ele>116.75</ele><time>2026-03-29T08:41:35.703Z</time></trkpt><trkpt lat="45.3973753" lon="10.5483445"><ele>117.0</ele><time>2026-03-29T08:41:36.7Z</time></trkpt><trkpt lat="45.3973451" lon="10.5485589"><ele>118.0</ele><time>2026-03-29T08:41:37.709Z</time></trkpt><trkpt lat="45.397275" lon="10.5489582"><ele>119.0</ele><time>2026-03-29T08:41:38.616Z</time></trkpt><trkpt lat="45.3972605" lon="10.5491655"><ele>120.0</ele><time>2026-03-29T08:41:39.615Z</time></trkpt><trkpt lat="45.3972378" lon="10.5493559"><ele>120.5</ele><time>2026-03-29T08:41:40.616Z</time></trkpt><trkpt lat="45.397219" lon="10.5495508"><ele>121.0</ele><time>2026-03-29T08:41:41.621Z</time></trkpt><trkpt lat="45.3972014" lon="10.5497518"><ele>121.5</ele><time>2026-03-29T08:41:42.615Z</time></trkpt><trkpt lat="45.3971671" lon="10.5499712"><ele>122.0</ele><time>2026-03-29T08:41:43.618Z</time></trkpt><trkpt lat="45.3971397" lon="10.5501736"><ele>120.5</ele><time>2026-03-29T08:41:44.619Z</time></trkpt><trkpt lat="45.3971183" lon="10.5503709"><ele>119.0</ele><time>2026-03-29T08:41:45.617Z</time></trkpt><trkpt lat="45.3970906" lon="10.5505293"><ele>117.5</ele><time>2026-03-29T08:41:46.616Z</time></trkpt><trkpt lat="45.3970545" lon="10.5507062"><ele>116.0</ele><time>2026-03-29T08:41:47.613Z</time></trkpt><trkpt lat="45.3969816" lon="10.5509049"><ele>115.8</ele><time>2026-03-29T08:41:48.61Z</time></trkpt><trkpt lat="45.3969316" lon="10.5510465"><ele>115.6</ele><time>2026-03-29T08:41:49.608Z</time></trkpt><trkpt lat="45.3968837" lon="10.551172"><ele>115.4</ele><time>2026-03-29T08:41:50.606Z</time></trkpt><trkpt lat="45.3968576" lon="10.5512868"><ele>115.2</ele><time>2026-03-29T08:41:51.604Z</time></trkpt><trkpt lat="45.3968533" lon="10.551377"><ele>115.0</ele><time>2026-03-29T08:41:52.61Z</time></trkpt><trkpt lat="45.3968593" lon="10.551555"><ele>116.00000000000001</ele><time>2026-03-29T08:41:54.608Z</time></trkpt><trkpt lat="45.3968705" lon="10.5516743"><ele>117.0</ele><time>2026-03-29T08:41:56.612Z</time></trkpt><trkpt lat="45.3968128" lon="10.5517548"><ele>118.0</ele><time>2026-03-29T08:42:00.61Z</time></trkpt><trkpt lat="45.3967053" lon="10.5517124"><ele>119.0</ele><time>2026-03-29T08:42:02.606Z</time></trkpt><trkpt lat="45.3966245" lon="10.5516919"><ele>120.00000000000001</ele><time>2026-03-29T08:42:03.599Z</time></trkpt><trkpt lat="45.3965416" lon="10.5516768"><ele>121.0</ele><time>2026-03-29T08:42:04.593Z</time></trkpt><trkpt lat="45.3964449" lon="10.5516871"><ele>121.0</ele><time>2026-03-29T08:42:05.605Z</time></trkpt><trkpt lat="45.3963427" lon="10.5516965"><ele>121.0</ele><time>2026-03-29T08:42:06.597Z</time></trkpt><trkpt lat="45.3962316" lon="10.5517017"><ele>121.0</ele><time>2026-03-29T08:42:07.588Z</time></trkpt><trkpt lat="45.3961341" lon="10.5516975"><ele>121.0</ele><time>2026-03-29T08:42:08.599Z</time></trkpt><trkpt lat="45.3960499" lon="10.5517073"><ele>121.0</ele><time>2026-03-29T08:42:09.602Z</time></trkpt><trkpt lat="45.3959601" lon="10.551718"><ele>121.19999999999999</ele><time>2026-03-29T08:42:10.599Z</time></trkpt><trkpt lat="45.3958678" lon="10.5517328"><ele>121.39999999999999</ele><time>2026-03-29T08:42:11.609Z</time></trkpt><trkpt lat="45.3957853" lon="10.5517581"><ele>121.6</ele><time>2026-03-29T08:42:12.609Z</time></trkpt><trkpt lat="45.3957022" lon="10.5517806"><ele>121.8</ele><time>2026-03-29T08:42:13.606Z</time></trkpt><trkpt lat="45.3956118" lon="10.5518172"><ele>122.0</ele><time>2026-03-29T08:42:14.609Z</time></trkpt><trkpt lat="45.3955108" lon="10.5518349"><ele>122.25</ele><time>2026-03-29T08:42:15.601Z</time></trkpt><trkpt lat="45.3954023" lon="10.5518359"><ele>122.5</ele><time>2026-03-29T08:42:16.602Z</time></trkpt><trkpt lat="45.3952913" lon="10.5518142"><ele>122.75</ele><time>2026-03-29T08:42:17.601Z</time></trkpt><trkpt lat="45.3951783" lon="10.5517753"><ele>123.0</ele><time>2026-03-29T08:42:18.599Z</time></trkpt><trkpt lat="45.395069" lon="10.5517154"><ele>123.0</ele><time>2026-03-29T08:42:19.6Z</time></trkpt><trkpt lat="45.3949463" lon="10.5516498"><ele>123.0</ele><time>2026-03-29T08:42:20.601Z</time></trkpt><trkpt lat="45.394834" lon="10.5516049"><ele>123.0</ele><time>2026-03-29T08:42:21.601Z</time></trkpt><trkpt lat="45.3947167" lon="10.55157"><ele>123.0</ele><time>2026-03-29T08:42:22.594Z</time></trkpt><trkpt lat="45.3946096" lon="10.5515512"><ele>121.5</ele><time>2026-03-29T08:42:23.594Z</time></trkpt><trkpt lat="45.3944966" lon="10.5515466"><ele>120.0</ele><time>2026-03-29T08:42:24.597Z</time></trkpt><trkpt lat="45.3943773" lon="10.5515451"><ele>118.5</ele><time>2026-03-29T08:42:25.602Z</time></trkpt><trkpt lat="45.3942577" lon="10.5515695"><ele>117.0</ele><time>2026-03-29T08:42:26.604Z</time></trkpt><trkpt lat="45.3941439" lon="10.5516244"><ele>117.0</ele><time>2026-03-29T08:42:27.603Z</time></trkpt><trkpt lat="45.3940236" lon="10.5516711"><ele>117.0</ele><time>2026-03-29T08:42:28.608Z</time></trkpt><trkpt lat="45.393904" lon="10.5517073"><ele>117.0</ele><time>2026-03-29T08:42:29.604Z</time></trkpt><trkpt lat="45.3937911" lon="10.5517376"><ele>117.0</ele><time>2026-03-29T08:42:30.595Z</time></trkpt><trkpt lat="45.3936892" lon="10.5517697"><ele>116.0</ele><time>2026-03-29T08:42:31.601Z</time></trkpt><trkpt lat="45.3935991" lon="10.5517965"><ele>114.99999999999999</ele><time>2026-03-29T08:42:32.595Z</time></trkpt><trkpt lat="45.3935007" lon="10.5518181"><ele>113.99999999999999</ele><time>2026-03-29T08:42:33.603Z</time></trkpt><trkpt lat="45.393413" lon="10.5518762"><ele>113.0</ele><time>2026-03-29T08:42:34.597Z</time></trkpt><trkpt lat="45.3933307" lon="10.5519312"><ele>112.0</ele><time>2026-03-29T08:42:35.586Z</time></trkpt><trkpt lat="45.3932589" lon="10.5519812"><ele>112.00000000000001</ele><time>2026-03-29T08:42:36.595Z</time></trkpt><trkpt lat="45.3931894" lon="10.5519885"><ele>112.0</ele><time>2026-03-29T08:42:37.596Z</time></trkpt><trkpt lat="45.3931228" lon="10.5519723"><ele>112.0</ele><time>2026-03-29T08:42:38.596Z</time></trkpt><trkpt lat="45.3930577" lon="10.5519141"><ele>112.0</ele><time>2026-03-29T08:42:39.594Z</time></trkpt><trkpt lat="45.3929742" lon="10.5518345"><ele>112.00000000000001</ele><time>2026-03-29T08:42:40.6Z</time></trkpt><trkpt lat="45.3929055" lon="10.5517238"><ele>112.0</ele><time>2026-03-29T08:42:41.595Z</time></trkpt><trkpt lat="45.3928169" lon="10.5516418"><ele>111.33333333333334</ele><time>2026-03-29T08:42:42.592Z</time></trkpt><trkpt lat="45.3926817" lon="10.5515373"><ele>110.66666666666666</ele><time>2026-03-29T08:42:43.609Z</time></trkpt><trkpt lat="45.3925155" lon="10.5514354"><ele>110.0</ele><time>2026-03-29T08:42:44.598Z</time></trkpt><trkpt lat="45.392361" lon="10.5513444"><ele>110.0</ele><time>2026-03-29T08:42:45.611Z</time></trkpt><trkpt lat="45.3921879" lon="10.5512269"><ele>110.0</ele><time>2026-03-29T08:42:46.611Z</time></trkpt><trkpt lat="45.3920443" lon="10.5511601"><ele>110.0</ele><time>2026-03-29T08:42:47.611Z</time></trkpt><trkpt lat="45.3918886" lon="10.5510875"><ele>111.5</ele><time>2026-03-29T08:42:48.62Z</time></trkpt><trkpt lat="45.3917703" lon="10.5510474"><ele>113.0</ele><time>2026-03-29T08:42:49.613Z</time></trkpt><trkpt lat="45.3916247" lon="10.5510078"><ele>114.5</ele><time>2026-03-29T08:42:50.617Z</time></trkpt><trkpt lat="45.3914619" lon="10.5509667"><ele>116.0</ele><time>2026-03-29T08:42:51.619Z</time></trkpt><trkpt lat="45.3913149" lon="10.5509188"><ele>116.75</ele><time>2026-03-29T08:42:52.622Z</time></trkpt><trkpt lat="45.391166" lon="10.5508493"><ele>117.5</ele><time>2026-03-29T08:42:53.625Z</time></trkpt><trkpt lat="45.3910452" lon="10.5507917"><ele>118.25</ele><time>2026-03-29T08:42:54.635Z</time></trkpt><trkpt lat="45.3909396" lon="10.5507368"><ele>119.0</ele><time>2026-03-29T08:42:55.627Z</time></trkpt><trkpt lat="45.3908549" lon="10.5507104"><ele>118.99999999999999</ele><time>2026-03-29T08:42:56.634Z</time></trkpt><trkpt lat="45.3907831" lon="10.5506759"><ele>119.0</ele><time>2026-03-29T08:42:57.626Z</time></trkpt><trkpt lat="45.3907122" lon="10.5506357"><ele>119.0</ele><time>2026-03-29T08:42:58.625Z</time></trkpt><trkpt lat="45.3906533" lon="10.5505514"><ele>119.0</ele><time>2026-03-29T08:42:59.622Z</time></trkpt><trkpt lat="45.3906158" lon="10.5504659"><ele>118.99999999999999</ele><time>2026-03-29T08:43:00.622Z</time></trkpt><trkpt lat="45.3905965" lon="10.5503682"><ele>119.0</ele><time>2026-03-29T08:43:01.624Z</time></trkpt><trkpt lat="45.390573" lon="10.5502612"><ele>119.66666666666666</ele><time>2026-03-29T08:43:02.619Z</time></trkpt><trkpt lat="45.3905514" lon="10.5501378"><ele>120.33333333333333</ele><time>2026-03-29T08:43:03.623Z</time></trkpt><trkpt lat="45.3905288" lon="10.550001"><ele>121.0</ele><time>2026-03-29T08:43:04.627Z</time></trkpt><trkpt lat="45.3905058" lon="10.5498706"><ele>121.66666666666666</ele><time>2026-03-29T08:43:05.614Z</time></trkpt><trkpt lat="45.3904792" lon="10.5497588"><ele>122.33333333333333</ele><time>2026-03-29T08:43:06.624Z</time></trkpt><trkpt lat="45.390451" lon="10.5496723"><ele>123.0</ele><time>2026-03-29T08:43:07.607Z</time></trkpt><trkpt lat="45.3904243" lon="10.5495877"><ele>123.4</ele><time>2026-03-29T08:43:08.622Z</time></trkpt><trkpt lat="45.3903934" lon="10.5494293"><ele>123.80000000000001</ele><time>2026-03-29T08:43:10.617Z</time></trkpt><trkpt lat="45.3903663" lon="10.5492878"><ele>124.2</ele><time>2026-03-29T08:43:12.617Z</time></trkpt><trkpt lat="45.3903351" lon="10.5491384"><ele>124.6</ele><time>2026-03-29T08:43:14.623Z</time></trkpt><trkpt lat="45.3903132" lon="10.5490367"><ele>125.0</ele><time>2026-03-29T08:43:15.612Z</time></trkpt><trkpt lat="45.3902792" lon="10.5489347"><ele>125.0</ele><time>2026-03-29T08:43:16.619Z</time></trkpt><trkpt lat="45.3902382" lon="10.5488061"><ele>125.0</ele><time>2026-03-29T08:43:17.617Z</time></trkpt><trkpt lat="45.3901944" lon="10.5486672"><ele>125.0</ele><time>2026-03-29T08:43:18.619Z</time></trkpt><trkpt lat="45.390153" lon="10.5485086"><ele>125.0</ele><time>2026-03-29T08:43:19.616Z</time></trkpt><trkpt lat="45.3901067" lon="10.548334"><ele>123.75</ele><time>2026-03-29T08:43:20.628Z</time></trkpt><trkpt lat="45.3900575" lon="10.5481571"><ele>122.5</ele><time>2026-03-29T08:43:21.618Z</time></trkpt><trkpt lat="45.3900036" lon="10.5479694"><ele>121.25</ele><time>2026-03-29T08:43:22.617Z</time></trkpt><trkpt lat="45.389951" lon="10.5477772"><ele>120.0</ele><time>2026-03-29T08:43:23.619Z</time></trkpt><trkpt lat="45.3898878" lon="10.5475632"><ele>120.0</ele><time>2026-03-29T08:43:24.629Z</time></trkpt><trkpt lat="45.3898393" lon="10.5473765"><ele>120.0</ele><time>2026-03-29T08:43:25.625Z</time></trkpt><trkpt lat="45.3897655" lon="10.5471615"><ele>120.0</ele><time>2026-03-29T08:43:26.645Z</time></trkpt><trkpt lat="45.3896925" lon="10.5469576"><ele>119.66666666666666</ele><time>2026-03-29T08:43:27.626Z</time></trkpt><trkpt lat="45.3896196" lon="10.5467465"><ele>119.33333333333333</ele><time>2026-03-29T08:43:28.63Z</time></trkpt><trkpt lat="45.3895483" lon="10.5465527"><ele>119.0</ele><time>2026-03-29T08:43:29.641Z</time></trkpt><trkpt lat="45.3894898" lon="10.5463732"><ele>120.5</ele><time>2026-03-29T08:43:30.634Z</time></trkpt><trkpt lat="45.3894389" lon="10.5461945"><ele>122.0</ele><time>2026-03-29T08:43:31.642Z</time></trkpt><trkpt lat="45.3893687" lon="10.5459935"><ele>123.5</ele><time>2026-03-29T08:43:32.63Z</time></trkpt><trkpt lat="45.3893089" lon="10.5458137"><ele>125.0</ele><time>2026-03-29T08:43:33.626Z</time></trkpt><trkpt lat="45.3892453" lon="10.5456433"><ele>125.0</ele><time>2026-03-29T08:43:34.636Z</time></trkpt><trkpt lat="45.3891769" lon="10.5455155"><ele>125.0</ele><time>2026-03-29T08:43:35.622Z</time></trkpt><trkpt lat="45.389118" lon="10.5453859"><ele>125.0</ele><time>2026-03-29T08:43:36.632Z</time></trkpt><trkpt lat="45.3890851" lon="10.5452799"><ele>125.0</ele><time>2026-03-29T08:43:37.618Z</time></trkpt><trkpt lat="45.3890396" lon="10.545181"><ele>125.0</ele><time>2026-03-29T08:43:38.624Z</time></trkpt><trkpt lat="45.3890029" lon="10.5450727"><ele>125.4</ele><time>2026-03-29T08:43:40.621Z</time></trkpt><trkpt lat="45.3889421" lon="10.5450286"><ele>125.8</ele><time>2026-03-29T08:43:42.617Z</time></trkpt><trkpt lat="45.3888373" lon="10.5450846"><ele>126.19999999999999</ele><time>2026-03-29T08:43:44.627Z</time></trkpt><trkpt lat="45.3887854" lon="10.5451481"><ele>126.6</ele><time>2026-03-29T08:43:45.626Z</time></trkpt><trkpt lat="45.3887296" lon="10.5452457"><ele>127.0</ele><time>2026-03-29T08:43:46.625Z</time></trkpt><trkpt lat="45.3886591" lon="10.545374"><ele>126.0</ele><time>2026-03-29T08:43:47.622Z</time></trkpt><trkpt lat="45.3885684" lon="10.5455165"><ele>125.0</ele><time>2026-03-29T08:43:48.63Z</time></trkpt><trkpt lat="45.3884629" lon="10.5456718"><ele>124.0</ele><time>2026-03-29T08:43:49.631Z</time></trkpt><trkpt lat="45.3883528" lon="10.5458271"><ele>123.0</ele><time>2026-03-29T08:43:50.629Z</time></trkpt><trkpt lat="45.388232" lon="10.545976"><ele>123.0</ele><time>2026-03-29T08:43:51.621Z</time></trkpt><trkpt lat="45.3880991" lon="10.5461199"><ele>123.0</ele><time>2026-03-29T08:43:52.626Z</time></trkpt><trkpt lat="45.3879568" lon="10.5462304"><ele>123.0</ele><time>2026-03-29T08:43:53.63Z</time></trkpt><trkpt lat="45.3878438" lon="10.5463299"><ele>123.25</ele><time>2026-03-29T08:43:54.63Z</time></trkpt><trkpt lat="45.3877338" lon="10.5464454"><ele>123.5</ele><time>2026-03-29T08:43:55.634Z</time></trkpt><trkpt lat="45.3876107" lon="10.5465707"><ele>123.75</ele><time>2026-03-29T08:43:56.628Z</time></trkpt><trkpt lat="45.3875182" lon="10.5466836"><ele>124.0</ele><time>2026-03-29T08:43:57.635Z</time></trkpt><trkpt lat="45.3874063" lon="10.5468025"><ele>124.0</ele><time>2026-03-29T08:43:59.713Z</time></trkpt><trkpt lat="45.3872856" lon="10.5469164"><ele>124.0</ele><time>2026-03-29T08:44:00.712Z</time></trkpt><trkpt lat="45.387069" lon="10.5471398"><ele>124.0</ele><time>2026-03-29T08:44:01.657Z</time></trkpt><trkpt lat="45.3869558" lon="10.5472487"><ele>124.25</ele><time>2026-03-29T08:44:02.627Z</time></trkpt><trkpt lat="45.3868391" lon="10.547367"><ele>124.5</ele><time>2026-03-29T08:44:03.621Z</time></trkpt><trkpt lat="45.3867231" lon="10.5474908"><ele>124.75</ele><time>2026-03-29T08:44:04.618Z</time></trkpt><trkpt lat="45.3866144" lon="10.5476047"><ele>125.0</ele><time>2026-03-29T08:44:05.623Z</time></trkpt><trkpt lat="45.3865072" lon="10.5477154"><ele>125.0</ele><time>2026-03-29T08:44:06.626Z</time></trkpt><trkpt lat="45.3864145" lon="10.5478235"><ele>125.0</ele><time>2026-03-29T08:44:07.62Z</time></trkpt><trkpt lat="45.3863135" lon="10.547932"><ele>125.0</ele><time>2026-03-29T08:44:08.629Z</time></trkpt><trkpt lat="45.3861953" lon="10.5480443"><ele>125.0</ele><time>2026-03-29T08:44:09.62Z</time></trkpt><trkpt lat="45.3860792" lon="10.548155"><ele>125.0</ele><time>2026-03-29T08:44:10.616Z</time></trkpt><trkpt lat="45.3859614" lon="10.5482528"><ele>125.0</ele><time>2026-03-29T08:44:11.617Z</time></trkpt><trkpt lat="45.3858492" lon="10.548327"><ele>125.0</ele><time>2026-03-29T08:44:12.611Z</time></trkpt><trkpt lat="45.385754" lon="10.5483898"><ele>125.0</ele><time>2026-03-29T08:44:13.635Z</time></trkpt><trkpt lat="45.3856608" lon="10.5484543"><ele>125.0</ele><time>2026-03-29T08:44:14.612Z</time></trkpt><trkpt lat="45.38558" lon="10.5485252"><ele>125.0</ele><time>2026-03-29T08:44:15.617Z</time></trkpt><trkpt lat="45.3854925" lon="10.5486785"><ele>125.0</ele><time>2026-03-29T08:44:16.621Z</time></trkpt><trkpt lat="45.3853921" lon="10.5488364"><ele>125.0</ele><time>2026-03-29T08:44:17.615Z</time></trkpt><trkpt lat="45.3853052" lon="10.548989"><ele>126.0</ele><time>2026-03-29T08:44:18.625Z</time></trkpt><trkpt lat="45.3851992" lon="10.5491438"><ele>127.0</ele><time>2026-03-29T08:44:19.62Z</time></trkpt><trkpt lat="45.3850912" lon="10.5492832"><ele>128.0</ele><time>2026-03-29T08:44:20.615Z</time></trkpt><trkpt lat="45.384999" lon="10.5494042"><ele>129.0</ele><time>2026-03-29T08:44:21.617Z</time></trkpt><trkpt lat="45.3849038" lon="10.5495155"><ele>129.75</ele><time>2026-03-29T08:44:22.615Z</time></trkpt><trkpt lat="45.3848044" lon="10.549612"><ele>130.5</ele><time>2026-03-29T08:44:23.616Z</time></trkpt><trkpt lat="45.3847056" lon="10.5497059"><ele>131.25</ele><time>2026-03-29T08:44:24.611Z</time></trkpt><trkpt lat="45.3845909" lon="10.5497832"><ele>132.0</ele><time>2026-03-29T08:44:25.619Z</time></trkpt><trkpt lat="45.3844744" lon="10.5498308"><ele>132.5</ele><time>2026-03-29T08:44:26.619Z</time></trkpt><trkpt lat="45.3843631" lon="10.5498876"><ele>133.0</ele><time>2026-03-29T08:44:27.616Z</time></trkpt><trkpt lat="45.3842438" lon="10.5499404"><ele>133.5</ele><time>2026-03-29T08:44:28.621Z</time></trkpt><trkpt lat="45.3841164" lon="10.5499961"><ele>134.0</ele><time>2026-03-29T08:44:29.623Z</time></trkpt><trkpt lat="45.3839851" lon="10.5500433"><ele>134.0</ele><time>2026-03-29T08:44:30.624Z</time></trkpt><trkpt lat="45.383857" lon="10.5500936"><ele>134.0</ele><time>2026-03-29T08:44:31.625Z</time></trkpt><trkpt lat="45.3837389" lon="10.550156"><ele>134.0</ele><time>2026-03-29T08:44:32.625Z</time></trkpt><trkpt lat="45.3836339" lon="10.550228"><ele>134.0</ele><time>2026-03-29T08:44:33.623Z</time></trkpt><trkpt lat="45.3835542" lon="10.5502925"><ele>132.75</ele><time>2026-03-29T08:44:34.626Z</time></trkpt><trkpt lat="45.3834622" lon="10.550377"><ele>131.5</ele><time>2026-03-29T08:44:35.621Z</time></trkpt><trkpt lat="45.3833477" lon="10.5504547"><ele>130.25</ele><time>2026-03-29T08:44:36.619Z</time></trkpt><trkpt lat="45.3832413" lon="10.5505334"><ele>129.0</ele><time>2026-03-29T08:44:37.626Z</time></trkpt><trkpt lat="45.3831561" lon="10.5506138"><ele>129.0</ele><time>2026-03-29T08:44:38.617Z</time></trkpt><trkpt lat="45.3830882" lon="10.5506811"><ele>129.0</ele><time>2026-03-29T08:44:39.624Z</time></trkpt><trkpt lat="45.3830203" lon="10.5507516"><ele>129.0</ele><time>2026-03-29T08:44:40.618Z</time></trkpt><trkpt lat="45.3829509" lon="10.5508223"><ele>129.0</ele><time>2026-03-29T08:44:41.623Z</time></trkpt><trkpt lat="45.3828601" lon="10.5508968"><ele>129.0</ele><time>2026-03-29T08:44:42.61Z</time></trkpt><trkpt lat="45.3827689" lon="10.5509659"><ele>128.66666666666666</ele><time>2026-03-29T08:44:43.623Z</time></trkpt><trkpt lat="45.3826829" lon="10.5510197"><ele>128.33333333333334</ele><time>2026-03-29T08:44:44.626Z</time></trkpt><trkpt lat="45.3826048" lon="10.5510564"><ele>128.0</ele><time>2026-03-29T08:44:45.625Z</time></trkpt><trkpt lat="45.382523" lon="10.5510917"><ele>127.66666666666667</ele><time>2026-03-29T08:44:46.632Z</time></trkpt><trkpt lat="45.3824383" lon="10.55114"><ele>127.33333333333334</ele><time>2026-03-29T08:44:47.627Z</time></trkpt><trkpt lat="45.3823466" lon="10.551179"><ele>127.0</ele><time>2026-03-29T08:44:48.629Z</time></trkpt><trkpt lat="45.3822519" lon="10.5512187"><ele>126.5</ele><time>2026-03-29T08:44:49.625Z</time></trkpt><trkpt lat="45.3821492" lon="10.5512619"><ele>126.0</ele><time>2026-03-29T08:44:50.63Z</time></trkpt><trkpt lat="45.3820462" lon="10.5513052"><ele>125.5</ele><time>2026-03-29T08:44:51.625Z</time></trkpt><trkpt lat="45.3819355" lon="10.5513526"><ele>125.0</ele><time>2026-03-29T08:44:52.624Z</time></trkpt><trkpt lat="45.3818164" lon="10.5514082"><ele>125.0</ele><time>2026-03-29T08:44:53.631Z</time></trkpt><trkpt lat="45.3816938" lon="10.5514737"><ele>125.0</ele><time>2026-03-29T08:44:54.629Z</time></trkpt><trkpt lat="45.3815737" lon="10.5515515"><ele>125.0</ele><time>2026-03-29T08:44:55.631Z</time></trkpt><trkpt lat="45.3814573" lon="10.5516208"><ele>125.0</ele><time>2026-03-29T08:44:56.627Z</time></trkpt><trkpt lat="45.3813492" lon="10.5516916"><ele>124.0</ele><time>2026-03-29T08:44:57.631Z</time></trkpt><trkpt lat="45.3812477" lon="10.5517637"><ele>123.0</ele><time>2026-03-29T08:44:58.628Z</time></trkpt><trkpt lat="45.381157" lon="10.5518434"><ele>122.0</ele><time>2026-03-29T08:44:59.62Z</time></trkpt><trkpt lat="45.3810588" lon="10.5519316"><ele>121.0</ele><time>2026-03-29T08:45:00.622Z</time></trkpt><trkpt lat="45.3809588" lon="10.552026"><ele>121.0</ele><time>2026-03-29T08:45:01.622Z</time></trkpt><trkpt lat="45.3808592" lon="10.5521164"><ele>121.0</ele><time>2026-03-29T08:45:02.615Z</time></trkpt><trkpt lat="45.3807535" lon="10.5521897"><ele>121.0</ele><time>2026-03-29T08:45:03.614Z</time></trkpt><trkpt lat="45.3806578" lon="10.5522598"><ele>121.0</ele><time>2026-03-29T08:45:04.611Z</time></trkpt><trkpt lat="45.3805732" lon="10.5523263"><ele>121.0</ele><time>2026-03-29T08:45:05.616Z</time></trkpt><trkpt lat="45.3804982" lon="10.5524095"><ele>121.00000000000001</ele><time>2026-03-29T08:45:06.607Z</time></trkpt><trkpt lat="45.3804317" lon="10.552502"><ele>121.0</ele><time>2026-03-29T08:45:07.6Z</time></trkpt><trkpt lat="45.3803831" lon="10.5525965"><ele>121.0</ele><time>2026-03-29T08:45:08.601Z</time></trkpt><trkpt lat="45.3803493" lon="10.5526757"><ele>121.0</ele><time>2026-03-29T08:45:09.603Z</time></trkpt><trkpt lat="45.3803261" lon="10.5527643"><ele>121.00000000000001</ele><time>2026-03-29T08:45:10.603Z</time></trkpt><trkpt lat="45.3803126" lon="10.5528596"><ele>121.0</ele><time>2026-03-29T08:45:11.611Z</time></trkpt><trkpt lat="45.3803311" lon="10.5530141"><ele>121.33333333333334</ele><time>2026-03-29T08:45:13.619Z</time></trkpt><trkpt lat="45.3803535" lon="10.5531838"><ele>121.66666666666667</ele><time>2026-03-29T08:45:15.608Z</time></trkpt><trkpt lat="45.3803643" lon="10.5532778"><ele>122.0</ele><time>2026-03-29T08:45:16.618Z</time></trkpt><trkpt lat="45.3803714" lon="10.5533675"><ele>122.33333333333334</ele><time>2026-03-29T08:45:17.606Z</time></trkpt><trkpt lat="45.3803994" lon="10.5534502"><ele>122.66666666666667</ele><time>2026-03-29T08:45:18.611Z</time></trkpt><trkpt lat="45.3804456" lon="10.5535232"><ele>123.0</ele><time>2026-03-29T08:45:19.612Z</time></trkpt><trkpt lat="45.3805058" lon="10.5536009"><ele>123.25</ele><time>2026-03-29T08:45:20.604Z</time></trkpt><trkpt lat="45.3806027" lon="10.5536978"><ele>123.5</ele><time>2026-03-29T08:45:21.618Z</time></trkpt><trkpt lat="45.3806868" lon="10.5538009"><ele>123.75</ele><time>2026-03-29T08:45:22.601Z</time></trkpt><trkpt lat="45.380766" lon="10.5539163"><ele>124.0</ele><time>2026-03-29T08:45:23.6Z</time></trkpt><trkpt lat="45.3808301" lon="10.5540434"><ele>124.0</ele><time>2026-03-29T08:45:24.606Z</time></trkpt><trkpt lat="45.3808615" lon="10.5541809"><ele>124.0</ele><time>2026-03-29T08:45:25.604Z</time></trkpt><trkpt lat="45.3808657" lon="10.5543152"><ele>124.0</ele><time>2026-03-29T08:45:26.595Z</time></trkpt><trkpt lat="45.3808615" lon="10.5544546"><ele>124.0</ele><time>2026-03-29T08:45:27.601Z</time></trkpt><trkpt lat="45.3808253" lon="10.5545871"><ele>124.0</ele><time>2026-03-29T08:45:28.606Z</time></trkpt><trkpt lat="45.3807454" lon="10.5547253"><ele>124.33333333333334</ele><time>2026-03-29T08:45:29.608Z</time></trkpt><trkpt lat="45.3806476" lon="10.5548785"><ele>124.66666666666666</ele><time>2026-03-29T08:45:30.613Z</time></trkpt><trkpt lat="45.3805443" lon="10.5550412"><ele>125.0</ele><time>2026-03-29T08:45:31.614Z</time></trkpt><trkpt lat="45.3804325" lon="10.5551943"><ele>125.0</ele><time>2026-03-29T08:45:32.613Z</time></trkpt><trkpt lat="45.3803392" lon="10.5553397"><ele>125.0</ele><time>2026-03-29T08:45:33.61Z</time></trkpt><trkpt lat="45.3802684" lon="10.5554784"><ele>125.0</ele><time>2026-03-29T08:45:34.61Z</time></trkpt><trkpt lat="45.3801992" lon="10.5555921"><ele>125.0</ele><time>2026-03-29T08:45:35.605Z</time></trkpt><trkpt lat="45.3801503" lon="10.5557022"><ele>125.6</ele><time>2026-03-29T08:45:36.614Z</time></trkpt><trkpt lat="45.380124" lon="10.5557871"><ele>126.2</ele><time>2026-03-29T08:45:37.613Z</time></trkpt><trkpt lat="45.3800798" lon="10.5558783"><ele>126.80000000000001</ele><time>2026-03-29T08:45:38.608Z</time></trkpt><trkpt lat="45.3800175" lon="10.5559695"><ele>127.4</ele><time>2026-03-29T08:45:39.61Z</time></trkpt><trkpt lat="45.3799469" lon="10.5560781"><ele>128.0</ele><time>2026-03-29T08:45:40.606Z</time></trkpt><trkpt lat="45.3798453" lon="10.5561919"><ele>128.0</ele><time>2026-03-29T08:45:41.622Z</time></trkpt><trkpt lat="45.3797363" lon="10.5563095"><ele>128.0</ele><time>2026-03-29T08:45:42.606Z</time></trkpt><trkpt lat="45.3796254" lon="10.5564105"><ele>128.0</ele><time>2026-03-29T08:45:43.61Z</time></trkpt><trkpt lat="45.3795026" lon="10.5565169"><ele>128.0</ele><time>2026-03-29T08:45:44.618Z</time></trkpt><trkpt lat="45.3793621" lon="10.5566539"><ele>128.0</ele><time>2026-03-29T08:45:45.612Z</time></trkpt><trkpt lat="45.3792536" lon="10.5567672"><ele>128.0</ele><time>2026-03-29T08:45:46.625Z</time></trkpt><trkpt lat="45.3791736" lon="10.5568866"><ele>128.0</ele><time>2026-03-29T08:45:47.618Z</time></trkpt><trkpt lat="45.379071" lon="10.5570244"><ele>128.0</ele><time>2026-03-29T08:45:48.617Z</time></trkpt><trkpt lat="45.3789881" lon="10.5572007"><ele>128.25</ele><time>2026-03-29T08:45:49.612Z</time></trkpt><trkpt lat="45.3789302" lon="10.5573894"><ele>128.5</ele><time>2026-03-29T08:45:50.615Z</time></trkpt><trkpt lat="45.378874" lon="10.5575433"><ele>128.75</ele><time>2026-03-29T08:45:51.619Z</time></trkpt><trkpt lat="45.3788196" lon="10.5576659"><ele>129.0</ele><time>2026-03-29T08:45:52.611Z</time></trkpt><trkpt lat="45.3787803" lon="10.5577899"><ele>129.4</ele><time>2026-03-29T08:45:53.626Z</time></trkpt><trkpt lat="45.3787245" lon="10.5578987"><ele>129.8</ele><time>2026-03-29T08:45:54.612Z</time></trkpt><trkpt lat="45.3786621" lon="10.558024"><ele>130.2</ele><time>2026-03-29T08:45:55.613Z</time></trkpt><trkpt lat="45.3786073" lon="10.5581403"><ele>130.6</ele><time>2026-03-29T08:45:56.609Z</time></trkpt><trkpt lat="45.3785635" lon="10.5582464"><ele>131.0</ele><time>2026-03-29T08:45:57.6Z</time></trkpt><trkpt lat="45.3785291" lon="10.5583296"><ele>131.0</ele><time>2026-03-29T08:45:58.607Z</time></trkpt><trkpt lat="45.3784955" lon="10.5584239"><ele>131.0</ele><time>2026-03-29T08:46:00.602Z</time></trkpt><trkpt lat="45.3785487" lon="10.5585292"><ele>131.0</ele><time>2026-03-29T08:46:06.615Z</time></trkpt><trkpt lat="45.3786889" lon="10.5586042"><ele>131.0</ele><time>2026-03-29T08:46:08.593Z</time></trkpt><trkpt lat="45.3788099" lon="10.5586849"><ele>131.0</ele><time>2026-03-29T08:46:09.595Z</time></trkpt><trkpt lat="45.3789473" lon="10.5587891"><ele>130.33333333333331</ele><time>2026-03-29T08:46:10.592Z</time></trkpt><trkpt lat="45.3790868" lon="10.5589105"><ele>129.66666666666666</ele><time>2026-03-29T08:46:11.602Z</time></trkpt><trkpt lat="45.3792181" lon="10.5590331"><ele>129.0</ele><time>2026-03-29T08:46:12.605Z</time></trkpt><trkpt lat="45.3793312" lon="10.559162"><ele>129.0</ele><time>2026-03-29T08:46:13.602Z</time></trkpt><trkpt lat="45.3794407" lon="10.5593095"><ele>129.0</ele><time>2026-03-29T08:46:14.618Z</time></trkpt><trkpt lat="45.3795225" lon="10.5594624"><ele>129.0</ele><time>2026-03-29T08:46:15.595Z</time></trkpt><trkpt lat="45.3796023" lon="10.5596437"><ele>129.0</ele><time>2026-03-29T08:46:16.605Z</time></trkpt><trkpt lat="45.3796733" lon="10.5598304"><ele>127.0</ele><time>2026-03-29T08:46:17.606Z</time></trkpt><trkpt lat="45.3797516" lon="10.5600258"><ele>125.0</ele><time>2026-03-29T08:46:18.607Z</time></trkpt><trkpt lat="45.3798337" lon="10.5601872"><ele>123.0</ele><time>2026-03-29T08:46:19.604Z</time></trkpt><trkpt lat="45.3798941" lon="10.5603241"><ele>121.0</ele><time>2026-03-29T08:46:20.605Z</time></trkpt><trkpt lat="45.3799727" lon="10.5604474"><ele>121.0</ele><time>2026-03-29T08:46:21.602Z</time></trkpt><trkpt lat="45.3800524" lon="10.5605631"><ele>121.0</ele><time>2026-03-29T08:46:22.6Z</time></trkpt><trkpt lat="45.380154" lon="10.5606603"><ele>121.0</ele><time>2026-03-29T08:46:23.6Z</time></trkpt><trkpt lat="45.3802906" lon="10.5606958"><ele>121.0</ele><time>2026-03-29T08:46:24.6Z</time></trkpt><trkpt lat="45.3804377" lon="10.5607535"><ele>120.0</ele><time>2026-03-29T08:46:25.613Z</time></trkpt><trkpt lat="45.3805904" lon="10.560804"><ele>119.0</ele><time>2026-03-29T08:46:26.62Z</time></trkpt><trkpt lat="45.3807612" lon="10.560868"><ele>118.0</ele><time>2026-03-29T08:46:27.619Z</time></trkpt><trkpt lat="45.380912" lon="10.560897"><ele>118.0</ele><time>2026-03-29T08:46:28.627Z</time></trkpt><trkpt lat="45.3810726" lon="10.5609247"><ele>118.0</ele><time>2026-03-29T08:46:29.616Z</time></trkpt><trkpt lat="45.3812237" lon="10.5609801"><ele>118.0</ele><time>2026-03-29T08:46:30.616Z</time></trkpt><trkpt lat="45.3813902" lon="10.5610621"><ele>117.0</ele><time>2026-03-29T08:46:31.615Z</time></trkpt><trkpt lat="45.381542" lon="10.5611107"><ele>116.0</ele><time>2026-03-29T08:46:32.608Z</time></trkpt><trkpt lat="45.3816842" lon="10.5611394"><ele>115.0</ele><time>2026-03-29T08:46:33.61Z</time></trkpt><trkpt lat="45.3818164" lon="10.5612132"><ele>114.0</ele><time>2026-03-29T08:46:34.616Z</time></trkpt><trkpt lat="45.3819505" lon="10.5612424"><ele>113.75</ele><time>2026-03-29T08:46:35.614Z</time></trkpt><trkpt lat="45.3820838" lon="10.5612675"><ele>113.5</ele><time>2026-03-29T08:46:36.603Z</time></trkpt><trkpt lat="45.3822205" lon="10.5612727"><ele>113.25</ele><time>2026-03-29T08:46:37.605Z</time></trkpt><trkpt lat="45.3823455" lon="10.5612304"><ele>113.0</ele><time>2026-03-29T08:46:38.617Z</time></trkpt><trkpt lat="45.3824679" lon="10.5611134"><ele>112.66666666666666</ele><time>2026-03-29T08:46:39.614Z</time></trkpt><trkpt lat="45.3825819" lon="10.5609724"><ele>112.33333333333334</ele><time>2026-03-29T08:46:40.624Z</time></trkpt><trkpt lat="45.3827037" lon="10.560831"><ele>112.0</ele><time>2026-03-29T08:46:41.622Z</time></trkpt><trkpt lat="45.3828161" lon="10.5606288"><ele>112.0</ele><time>2026-03-29T08:46:42.61Z</time></trkpt><trkpt lat="45.3829488" lon="10.5604949"><ele>112.0</ele><time>2026-03-29T08:46:43.618Z</time></trkpt><trkpt lat="45.3830539" lon="10.5603757"><ele>112.0</ele><time>2026-03-29T08:46:44.616Z</time></trkpt><trkpt lat="45.3831587" lon="10.5602965"><ele>112.0</ele><time>2026-03-29T08:46:45.61Z</time></trkpt><trkpt lat="45.3832847" lon="10.5602307"><ele>112.66666666666667</ele><time>2026-03-29T08:46:46.61Z</time></trkpt><trkpt lat="45.3834258" lon="10.5602221"><ele>113.33333333333334</ele><time>2026-03-29T08:46:47.619Z</time></trkpt><trkpt lat="45.3835816" lon="10.5602345"><ele>114.0</ele><time>2026-03-29T08:46:48.6Z</time></trkpt><trkpt lat="45.3837344" lon="10.56028"><ele>113.66666666666666</ele><time>2026-03-29T08:46:49.62Z</time></trkpt><trkpt lat="45.3838804" lon="10.5603637"><ele>113.33333333333333</ele><time>2026-03-29T08:46:50.613Z</time></trkpt><trkpt lat="45.3840363" lon="10.5604423"><ele>113.0</ele><time>2026-03-29T08:46:51.613Z</time></trkpt><trkpt lat="45.384192" lon="10.560494"><ele>111.33333333333333</ele><time>2026-03-29T08:46:52.626Z</time></trkpt><trkpt lat="45.3843616" lon="10.5605417"><ele>109.66666666666666</ele><time>2026-03-29T08:46:53.627Z</time></trkpt><trkpt lat="45.3845531" lon="10.5606052"><ele>108.0</ele><time>2026-03-29T08:46:54.621Z</time></trkpt><trkpt lat="45.3847487" lon="10.5606736"><ele>107.33333333333334</ele><time>2026-03-29T08:46:55.628Z</time></trkpt><trkpt lat="45.3849381" lon="10.5607287"><ele>106.66666666666667</ele><time>2026-03-29T08:46:56.621Z</time></trkpt><trkpt lat="45.3851216" lon="10.5607889"><ele>106.0</ele><time>2026-03-29T08:46:57.622Z</time></trkpt><trkpt lat="45.3852868" lon="10.560839"><ele>106.0</ele><time>2026-03-29T08:46:58.626Z</time></trkpt><trkpt lat="45.3854632" lon="10.5609008"><ele>106.0</ele><time>2026-03-29T08:46:59.623Z</time></trkpt><trkpt lat="45.3856384" lon="10.5609579"><ele>106.0</ele><time>2026-03-29T08:47:00.627Z</time></trkpt><trkpt lat="45.3858507" lon="10.5610262"><ele>106.0</ele><time>2026-03-29T08:47:01.63Z</time></trkpt><trkpt lat="45.3860352" lon="10.5610857"><ele>106.0</ele><time>2026-03-29T08:47:02.629Z</time></trkpt><trkpt lat="45.3862339" lon="10.561151"><ele>106.0</ele><time>2026-03-29T08:47:03.627Z</time></trkpt><trkpt lat="45.3864381" lon="10.5612169"><ele>106.0</ele><time>2026-03-29T08:47:04.618Z</time></trkpt><trkpt lat="45.3866282" lon="10.5612778"><ele>106.0</ele><time>2026-03-29T08:47:05.631Z</time></trkpt><trkpt lat="45.3868022" lon="10.5613448"><ele>106.0</ele><time>2026-03-29T08:47:06.617Z</time></trkpt><trkpt lat="45.3869875" lon="10.5614115"><ele>106.0</ele><time>2026-03-29T08:47:07.621Z</time></trkpt><trkpt lat="45.3871408" lon="10.5614507"><ele>106.0</ele><time>2026-03-29T08:47:08.645Z</time></trkpt><trkpt lat="45.3873057" lon="10.5614916"><ele>106.0</ele><time>2026-03-29T08:47:09.625Z</time></trkpt><trkpt lat="45.3874657" lon="10.5614934"><ele>107.0</ele><time>2026-03-29T08:47:11.702Z</time></trkpt><trkpt lat="45.3876074" lon="10.5614619"><ele>108.0</ele><time>2026-03-29T08:47:12.695Z</time></trkpt><trkpt lat="45.3877388" lon="10.5613951"><ele>109.0</ele><time>2026-03-29T08:47:13.684Z</time></trkpt><trkpt lat="45.3878857" lon="10.5612852"><ele>110.0</ele><time>2026-03-29T08:47:14.688Z</time></trkpt><trkpt lat="45.3880142" lon="10.5611654"><ele>112.25</ele><time>2026-03-29T08:47:15.69Z</time></trkpt><trkpt lat="45.3881213" lon="10.5609904"><ele>114.5</ele><time>2026-03-29T08:47:16.687Z</time></trkpt><trkpt lat="45.3882495" lon="10.5609097"><ele>116.75</ele><time>2026-03-29T08:47:17.701Z</time></trkpt><trkpt lat="45.3883518" lon="10.5607932"><ele>119.0</ele><time>2026-03-29T08:47:18.689Z</time></trkpt><trkpt lat="45.3884712" lon="10.560764"><ele>119.0</ele><time>2026-03-29T08:47:19.685Z</time></trkpt><trkpt lat="45.3885982" lon="10.560778"><ele>119.0</ele><time>2026-03-29T08:47:20.668Z</time></trkpt><trkpt lat="45.3887397" lon="10.5608293"><ele>119.0</ele><time>2026-03-29T08:47:21.663Z</time></trkpt><trkpt lat="45.3888957" lon="10.5609019"><ele>119.0</ele><time>2026-03-29T08:47:22.669Z</time></trkpt><trkpt lat="45.3890686" lon="10.5609797"><ele>120.33333333333333</ele><time>2026-03-29T08:47:23.671Z</time></trkpt><trkpt lat="45.3892551" lon="10.5610595"><ele>121.66666666666666</ele><time>2026-03-29T08:47:24.68Z</time></trkpt><trkpt lat="45.3894523" lon="10.5611468"><ele>123.0</ele><time>2026-03-29T08:47:25.681Z</time></trkpt><trkpt lat="45.3896418" lon="10.5612191"><ele>121.66666666666666</ele><time>2026-03-29T08:47:27.695Z</time></trkpt><trkpt lat="45.3898133" lon="10.5612909"><ele>120.33333333333333</ele><time>2026-03-29T08:47:28.705Z</time></trkpt><trkpt lat="45.3899683" lon="10.5613267"><ele>119.0</ele><time>2026-03-29T08:47:29.707Z</time></trkpt><trkpt lat="45.3901347" lon="10.5613686"><ele>119.0</ele><time>2026-03-29T08:47:30.715Z</time></trkpt><trkpt lat="45.390295" lon="10.5614094"><ele>119.0</ele><time>2026-03-29T08:47:31.717Z</time></trkpt><trkpt lat="45.3904471" lon="10.5614516"><ele>119.0</ele><time>2026-03-29T08:47:32.706Z</time></trkpt><trkpt lat="45.3905893" lon="10.5615004"><ele>118.25</ele><time>2026-03-29T08:47:33.71Z</time></trkpt><trkpt lat="45.3907267" lon="10.5614476"><ele>117.5</ele><time>2026-03-29T08:47:34.713Z</time></trkpt><trkpt lat="45.3908522" lon="10.5614674"><ele>116.75</ele><time>2026-03-29T08:47:35.706Z</time></trkpt><trkpt lat="45.3909722" lon="10.5615006"><ele>116.0</ele><time>2026-03-29T08:47:36.709Z</time></trkpt><trkpt lat="45.3910985" lon="10.5615125"><ele>115.99999999999999</ele><time>2026-03-29T08:47:37.704Z</time></trkpt><trkpt lat="45.3912052" lon="10.5615222"><ele>116.0</ele><time>2026-03-29T08:47:38.71Z</time></trkpt><trkpt lat="45.3912971" lon="10.5615261"><ele>116.0</ele><time>2026-03-29T08:47:39.705Z</time></trkpt><trkpt lat="45.3913892" lon="10.5615218"><ele>116.0</ele><time>2026-03-29T08:47:40.708Z</time></trkpt><trkpt lat="45.3914529" lon="10.5615194"><ele>115.99999999999999</ele><time>2026-03-29T08:47:41.697Z</time></trkpt><trkpt lat="45.3915302" lon="10.5615414"><ele>116.0</ele><time>2026-03-29T08:47:43.707Z</time></trkpt><trkpt lat="45.3915877" lon="10.5615793"><ele>116.0</ele><time>2026-03-29T08:47:44.622Z</time></trkpt><trkpt lat="45.3915463" lon="10.5617313"><ele>116.0</ele><time>2026-03-29T08:47:46.62Z</time></trkpt><trkpt lat="45.3914863" lon="10.5618529"><ele>116.0</ele><time>2026-03-29T08:47:47.625Z</time></trkpt><trkpt lat="45.3914125" lon="10.5620081"><ele>116.0</ele><time>2026-03-29T08:47:48.621Z</time></trkpt><trkpt lat="45.3913364" lon="10.5621633"><ele>116.0</ele><time>2026-03-29T08:47:49.617Z</time></trkpt><trkpt lat="45.3912567" lon="10.562342"><ele>116.0</ele><time>2026-03-29T08:47:50.616Z</time></trkpt><trkpt lat="45.391184" lon="10.5625141"><ele>116.0</ele><time>2026-03-29T08:47:51.615Z</time></trkpt><trkpt lat="45.3911283" lon="10.5626787"><ele>116.0</ele><time>2026-03-29T08:47:52.617Z</time></trkpt><trkpt lat="45.3910917" lon="10.5628505"><ele>116.25</ele><time>2026-03-29T08:47:53.614Z</time></trkpt><trkpt lat="45.3910764" lon="10.5630265"><ele>116.5</ele><time>2026-03-29T08:47:54.616Z</time></trkpt><trkpt lat="45.3910967" lon="10.5632105"><ele>116.75</ele><time>2026-03-29T08:47:55.618Z</time></trkpt><trkpt lat="45.3910996" lon="10.5634113"><ele>117.0</ele><time>2026-03-29T08:47:56.606Z</time></trkpt><trkpt lat="45.3910828" lon="10.5636241"><ele>116.33333333333334</ele><time>2026-03-29T08:47:57.616Z</time></trkpt><trkpt lat="45.3910632" lon="10.5638436"><ele>115.66666666666667</ele><time>2026-03-29T08:47:58.621Z</time></trkpt><trkpt lat="45.391029" lon="10.5640779"><ele>115.0</ele><time>2026-03-29T08:47:59.62Z</time></trkpt><trkpt lat="45.3909984" lon="10.5642812"><ele>115.0</ele><time>2026-03-29T08:48:00.62Z</time></trkpt><trkpt lat="45.3909628" lon="10.5644767"><ele>115.0</ele><time>2026-03-29T08:48:01.618Z</time></trkpt><trkpt lat="45.390936" lon="10.5646851"><ele>115.0</ele><time>2026-03-29T08:48:02.622Z</time></trkpt><trkpt lat="45.3909013" lon="10.5648445"><ele>115.0</ele><time>2026-03-29T08:48:03.615Z</time></trkpt><trkpt lat="45.390851" lon="10.5649965"><ele>115.66666666666667</ele><time>2026-03-29T08:48:04.621Z</time></trkpt><trkpt lat="45.3907648" lon="10.5651639"><ele>116.33333333333334</ele><time>2026-03-29T08:48:05.619Z</time></trkpt><trkpt lat="45.3906788" lon="10.5653462"><ele>117.0</ele><time>2026-03-29T08:48:06.613Z</time></trkpt><trkpt lat="45.3906063" lon="10.5655447"><ele>117.0</ele><time>2026-03-29T08:48:07.61Z</time></trkpt><trkpt lat="45.3905119" lon="10.5657315"><ele>117.0</ele><time>2026-03-29T08:48:08.617Z</time></trkpt><trkpt lat="45.3904197" lon="10.5659285"><ele>117.0</ele><time>2026-03-29T08:48:09.618Z</time></trkpt><trkpt lat="45.3903216" lon="10.5660758"><ele>116.0</ele><time>2026-03-29T08:48:10.615Z</time></trkpt><trkpt lat="45.3902315" lon="10.5662144"><ele>115.0</ele><time>2026-03-29T08:48:11.621Z</time></trkpt><trkpt lat="45.3901754" lon="10.5663412"><ele>114.0</ele><time>2026-03-29T08:48:12.621Z</time></trkpt><trkpt lat="45.3900885" lon="10.5664661"><ele>113.0</ele><time>2026-03-29T08:48:13.617Z</time></trkpt><trkpt lat="45.389955" lon="10.5665634"><ele>113.0</ele><time>2026-03-29T08:48:14.615Z</time></trkpt><trkpt lat="45.3898463" lon="10.5666447"><ele>113.0</ele><time>2026-03-29T08:48:15.613Z</time></trkpt><trkpt lat="45.3897248" lon="10.5667358"><ele>113.0</ele><time>2026-03-29T08:48:16.619Z</time></trkpt><trkpt lat="45.3895758" lon="10.5668044"><ele>113.0</ele><time>2026-03-29T08:48:17.618Z</time></trkpt><trkpt lat="45.3894437" lon="10.5668983"><ele>113.33333333333333</ele><time>2026-03-29T08:48:18.624Z</time></trkpt><trkpt lat="45.3892996" lon="10.5669864"><ele>113.66666666666666</ele><time>2026-03-29T08:48:19.621Z</time></trkpt><trkpt lat="45.3891326" lon="10.5670828"><ele>114.0</ele><time>2026-03-29T08:48:20.626Z</time></trkpt><trkpt lat="45.3890006" lon="10.5671951"><ele>114.0</ele><time>2026-03-29T08:48:21.62Z</time></trkpt><trkpt lat="45.3888966" lon="10.5673039"><ele>114.0</ele><time>2026-03-29T08:48:22.625Z</time></trkpt><trkpt lat="45.3887897" lon="10.5674422"><ele>114.0</ele><time>2026-03-29T08:48:23.611Z</time></trkpt><trkpt lat="45.38869" lon="10.5675836"><ele>114.0</ele><time>2026-03-29T08:48:24.615Z</time></trkpt><trkpt lat="45.388575" lon="10.5677082"><ele>114.0</ele><time>2026-03-29T08:48:25.622Z</time></trkpt><trkpt lat="45.3884573" lon="10.5678247"><ele>114.0</ele><time>2026-03-29T08:48:26.614Z</time></trkpt><trkpt lat="45.3883405" lon="10.5679618"><ele>114.0</ele><time>2026-03-29T08:48:27.616Z</time></trkpt><trkpt lat="45.388251" lon="10.5680716"><ele>114.0</ele><time>2026-03-29T08:48:28.623Z</time></trkpt><trkpt lat="45.3881514" lon="10.5681817"><ele>113.66666666666666</ele><time>2026-03-29T08:48:29.614Z</time></trkpt><trkpt lat="45.3880352" lon="10.5682887"><ele>113.33333333333333</ele><time>2026-03-29T08:48:30.617Z</time></trkpt><trkpt lat="45.3878924" lon="10.5683998"><ele>113.0</ele><time>2026-03-29T08:48:31.624Z</time></trkpt><trkpt lat="45.3877535" lon="10.5685184"><ele>113.0</ele><time>2026-03-29T08:48:32.624Z</time></trkpt><trkpt lat="45.3876051" lon="10.5686282"><ele>113.0</ele><time>2026-03-29T08:48:33.622Z</time></trkpt><trkpt lat="45.3874721" lon="10.5687452"><ele>113.0</ele><time>2026-03-29T08:48:34.617Z</time></trkpt><trkpt lat="45.3873417" lon="10.5688492"><ele>113.0</ele><time>2026-03-29T08:48:35.63Z</time></trkpt><trkpt lat="45.3872235" lon="10.5689433"><ele>113.0</ele><time>2026-03-29T08:48:36.618Z</time></trkpt><trkpt lat="45.3871342" lon="10.5690412"><ele>113.0</ele><time>2026-03-29T08:48:37.621Z</time></trkpt><trkpt lat="45.3870276" lon="10.5691155"><ele>113.0</ele><time>2026-03-29T08:48:38.621Z</time></trkpt><trkpt lat="45.3869173" lon="10.5692487"><ele>113.0</ele><time>2026-03-29T08:48:39.619Z</time></trkpt><trkpt lat="45.3868193" lon="10.5693983"><ele>113.0</ele><time>2026-03-29T08:48:40.617Z</time></trkpt><trkpt lat="45.3867246" lon="10.5695673"><ele>113.0</ele><time>2026-03-29T08:48:41.611Z</time></trkpt><trkpt lat="45.386638" lon="10.569719"><ele>113.0</ele><time>2026-03-29T08:48:42.616Z</time></trkpt><trkpt lat="45.3865627" lon="10.5698873"><ele>113.0</ele><time>2026-03-29T08:48:43.616Z</time></trkpt><trkpt lat="45.386493" lon="10.5700458"><ele>113.00000000000001</ele><time>2026-03-29T08:48:44.616Z</time></trkpt><trkpt lat="45.3864357" lon="10.5701601"><ele>113.00000000000001</ele><time>2026-03-29T08:48:45.622Z</time></trkpt><trkpt lat="45.3863809" lon="10.5702908"><ele>113.0</ele><time>2026-03-29T08:48:46.609Z</time></trkpt><trkpt lat="45.3863546" lon="10.5704167"><ele>113.0</ele><time>2026-03-29T08:48:47.615Z</time></trkpt><trkpt lat="45.386308" lon="10.5705899"><ele>112.2</ele><time>2026-03-29T08:48:48.612Z</time></trkpt><trkpt lat="45.3862857" lon="10.5707551"><ele>111.4</ele><time>2026-03-29T08:48:49.62Z</time></trkpt><trkpt lat="45.3862671" lon="10.5709152"><ele>110.60000000000001</ele><time>2026-03-29T08:48:50.616Z</time></trkpt><trkpt lat="45.3862307" lon="10.5710506"><ele>109.80000000000001</ele><time>2026-03-29T08:48:51.622Z</time></trkpt><trkpt lat="45.3862057" lon="10.5711856"><ele>109.0</ele><time>2026-03-29T08:48:52.62Z</time></trkpt><trkpt lat="45.3861843" lon="10.5713234"><ele>108.83333333333334</ele><time>2026-03-29T08:48:53.622Z</time></trkpt><trkpt lat="45.386162" lon="10.5714543"><ele>108.66666666666667</ele><time>2026-03-29T08:48:54.617Z</time></trkpt><trkpt lat="45.3861532" lon="10.571579"><ele>108.5</ele><time>2026-03-29T08:48:55.622Z</time></trkpt><trkpt lat="45.3861577" lon="10.5716987"><ele>108.33333333333334</ele><time>2026-03-29T08:48:56.607Z</time></trkpt><trkpt lat="45.3861906" lon="10.5718016"><ele>108.16666666666667</ele><time>2026-03-29T08:48:57.608Z</time></trkpt><trkpt lat="45.3862374" lon="10.5719028"><ele>108.0</ele><time>2026-03-29T08:48:58.608Z</time></trkpt><trkpt lat="45.3862834" lon="10.5719939"><ele>107.66666666666667</ele><time>2026-03-29T08:48:59.613Z</time></trkpt><trkpt lat="45.3863385" lon="10.5720662"><ele>107.33333333333334</ele><time>2026-03-29T08:49:00.612Z</time></trkpt><trkpt lat="45.3864015" lon="10.5721322"><ele>107.0</ele><time>2026-03-29T08:49:01.609Z</time></trkpt><trkpt lat="45.3864633" lon="10.5721741"><ele>106.66666666666667</ele><time>2026-03-29T08:49:02.622Z</time></trkpt><trkpt lat="45.386531" lon="10.5722086"><ele>106.33333333333334</ele><time>2026-03-29T08:49:03.609Z</time></trkpt><trkpt lat="45.3866252" lon="10.5722837"><ele>106.0</ele><time>2026-03-29T08:49:05.602Z</time></trkpt><trkpt lat="45.3866403" lon="10.5724243"><ele>106.00000000000001</ele><time>2026-03-29T08:49:07.598Z</time></trkpt><trkpt lat="45.3866166" lon="10.5725165"><ele>106.0</ele><time>2026-03-29T08:49:08.602Z</time></trkpt><trkpt lat="45.3865686" lon="10.5726013"><ele>106.0</ele><time>2026-03-29T08:49:09.603Z</time></trkpt><trkpt lat="45.3864949" lon="10.5726811"><ele>106.0</ele><time>2026-03-29T08:49:10.603Z</time></trkpt><trkpt lat="45.3864147" lon="10.5727574"><ele>106.00000000000001</ele><time>2026-03-29T08:49:11.619Z</time></trkpt><trkpt lat="45.3863756" lon="10.5728412"><ele>106.0</ele><time>2026-03-29T08:49:12.607Z</time></trkpt><trkpt lat="45.3863414" lon="10.5729522"><ele>106.0</ele><time>2026-03-29T08:49:13.599Z</time></trkpt><trkpt lat="45.3863317" lon="10.5730806"><ele>106.0</ele><time>2026-03-29T08:49:14.614Z</time></trkpt><trkpt lat="45.3863447" lon="10.5732122"><ele>106.0</ele><time>2026-03-29T08:49:15.606Z</time></trkpt><trkpt lat="45.3863669" lon="10.573371"><ele>106.0</ele><time>2026-03-29T08:49:16.608Z</time></trkpt><trkpt lat="45.3864063" lon="10.5735631"><ele>106.0</ele><time>2026-03-29T08:49:17.613Z</time></trkpt><trkpt lat="45.3864522" lon="10.5737652"><ele>105.0</ele><time>2026-03-29T08:49:18.61Z</time></trkpt><trkpt lat="45.3865105" lon="10.5739733"><ele>104.0</ele><time>2026-03-29T08:49:19.621Z</time></trkpt><trkpt lat="45.3865392" lon="10.574138"><ele>103.0</ele><time>2026-03-29T08:49:20.605Z</time></trkpt><trkpt lat="45.3865548" lon="10.5742972"><ele>102.0</ele><time>2026-03-29T08:49:21.614Z</time></trkpt><trkpt lat="45.3865727" lon="10.5744404"><ele>101.8</ele><time>2026-03-29T08:49:22.612Z</time></trkpt><trkpt lat="45.3865733" lon="10.5745589"><ele>101.6</ele><time>2026-03-29T08:49:23.623Z</time></trkpt><trkpt lat="45.3865409" lon="10.5746861"><ele>101.39999999999999</ele><time>2026-03-29T08:49:24.615Z</time></trkpt><trkpt lat="45.3864634" lon="10.5748272"><ele>101.19999999999999</ele><time>2026-03-29T08:49:25.612Z</time></trkpt><trkpt lat="45.3863917" lon="10.5749479"><ele>101.0</ele><time>2026-03-29T08:49:26.618Z</time></trkpt><trkpt lat="45.3863091" lon="10.5750653"><ele>102.0</ele><time>2026-03-29T08:49:27.614Z</time></trkpt><trkpt lat="45.3862179" lon="10.5751775"><ele>103.0</ele><time>2026-03-29T08:49:28.621Z</time></trkpt><trkpt lat="45.3861218" lon="10.5752849"><ele>104.0</ele><time>2026-03-29T08:49:29.612Z</time></trkpt><trkpt lat="45.3860226" lon="10.5754329"><ele>105.0</ele><time>2026-03-29T08:49:30.61Z</time></trkpt><trkpt lat="45.3859302" lon="10.5756009"><ele>105.0</ele><time>2026-03-29T08:49:31.619Z</time></trkpt><trkpt lat="45.3858416" lon="10.5757992"><ele>105.0</ele><time>2026-03-29T08:49:32.616Z</time></trkpt><trkpt lat="45.3857742" lon="10.5760262"><ele>105.0</ele><time>2026-03-29T08:49:33.619Z</time></trkpt><trkpt lat="45.3857174" lon="10.5762371"><ele>105.66666666666666</ele><time>2026-03-29T08:49:34.612Z</time></trkpt><trkpt lat="45.3856528" lon="10.5764462"><ele>106.33333333333333</ele><time>2026-03-29T08:49:35.613Z</time></trkpt><trkpt lat="45.3855957" lon="10.5766627"><ele>107.0</ele><time>2026-03-29T08:49:36.614Z</time></trkpt><trkpt lat="45.385549" lon="10.5768941"><ele>107.0</ele><time>2026-03-29T08:49:37.618Z</time></trkpt><trkpt lat="45.3855434" lon="10.5771113"><ele>107.0</ele><time>2026-03-29T08:49:38.613Z</time></trkpt><trkpt lat="45.3855273" lon="10.5773094"><ele>107.0</ele><time>2026-03-29T08:49:39.621Z</time></trkpt><trkpt lat="45.3855148" lon="10.5775233"><ele>107.0</ele><time>2026-03-29T08:49:40.62Z</time></trkpt><trkpt lat="45.385497" lon="10.5777164"><ele>106.8</ele><time>2026-03-29T08:49:41.622Z</time></trkpt><trkpt lat="45.3854917" lon="10.5778916"><ele>106.6</ele><time>2026-03-29T08:49:42.616Z</time></trkpt><trkpt lat="45.3854742" lon="10.5780656"><ele>106.39999999999999</ele><time>2026-03-29T08:49:43.625Z</time></trkpt><trkpt lat="45.3854626" lon="10.5782157"><ele>106.19999999999999</ele><time>2026-03-29T08:49:44.61Z</time></trkpt><trkpt lat="45.3854409" lon="10.5783263"><ele>106.0</ele><time>2026-03-29T08:49:45.612Z</time></trkpt><trkpt lat="45.3854294" lon="10.5784264"><ele>106.00000000000001</ele><time>2026-03-29T08:49:46.608Z</time></trkpt><trkpt lat="45.3854247" lon="10.5785175"><ele>106.0</ele><time>2026-03-29T08:49:47.613Z</time></trkpt><trkpt lat="45.3853991" lon="10.5786303"><ele>106.0</ele><time>2026-03-29T08:49:49.613Z</time></trkpt><trkpt lat="45.3853166" lon="10.5786714"><ele>106.0</ele><time>2026-03-29T08:49:51.635Z</time></trkpt><trkpt lat="45.3852519" lon="10.5786477"><ele>106.00000000000001</ele><time>2026-03-29T08:49:52.608Z</time></trkpt><trkpt lat="45.3851628" lon="10.5786022"><ele>106.0</ele><time>2026-03-29T08:49:53.612Z</time></trkpt><trkpt lat="45.3850294" lon="10.5785342"><ele>106.0</ele><time>2026-03-29T08:49:54.61Z</time></trkpt><trkpt lat="45.3848862" lon="10.5784699"><ele>106.0</ele><time>2026-03-29T08:49:55.619Z</time></trkpt><trkpt lat="45.384725" lon="10.5784044"><ele>106.0</ele><time>2026-03-29T08:49:56.617Z</time></trkpt><trkpt lat="45.3845663" lon="10.5783232"><ele>106.19999999999999</ele><time>2026-03-29T08:49:57.614Z</time></trkpt><trkpt lat="45.3844505" lon="10.578279"><ele>106.39999999999999</ele><time>2026-03-29T08:49:58.613Z</time></trkpt><trkpt lat="45.3843578" lon="10.5782279"><ele>106.6</ele><time>2026-03-29T08:49:59.612Z</time></trkpt><trkpt lat="45.3842606" lon="10.5782448"><ele>106.8</ele><time>2026-03-29T08:50:00.616Z</time></trkpt><trkpt lat="45.3841405" lon="10.5782513"><ele>107.0</ele><time>2026-03-29T08:50:01.606Z</time></trkpt><trkpt lat="45.3839878" lon="10.5782733"><ele>107.0</ele><time>2026-03-29T08:50:03.602Z</time></trkpt><trkpt lat="45.3838771" lon="10.5782575"><ele>106.99999999999999</ele><time>2026-03-29T08:50:04.601Z</time></trkpt><trkpt lat="45.3837808" lon="10.5782456"><ele>106.99999999999999</ele><time>2026-03-29T08:50:05.605Z</time></trkpt><trkpt lat="45.3836925" lon="10.5782419"><ele>107.0</ele><time>2026-03-29T08:50:06.601Z</time></trkpt><trkpt lat="45.3836188" lon="10.5782292"><ele>107.0</ele><time>2026-03-29T08:50:07.617Z</time></trkpt><trkpt lat="45.3835413" lon="10.5781422"><ele>107.5</ele><time>2026-03-29T08:50:08.612Z</time></trkpt><trkpt lat="45.3834603" lon="10.5780438"><ele>108.0</ele><time>2026-03-29T08:50:09.594Z</time></trkpt><trkpt lat="45.3833593" lon="10.5779275"><ele>108.5</ele><time>2026-03-29T08:50:10.604Z</time></trkpt><trkpt lat="45.3832468" lon="10.5778043"><ele>109.0</ele><time>2026-03-29T08:50:11.613Z</time></trkpt><trkpt lat="45.3831387" lon="10.5777054"><ele>109.0</ele><time>2026-03-29T08:50:12.617Z</time></trkpt><trkpt lat="45.3830488" lon="10.5776216"><ele>109.0</ele><time>2026-03-29T08:50:13.614Z</time></trkpt><trkpt lat="45.3829591" lon="10.5775498"><ele>109.0</ele><time>2026-03-29T08:50:14.624Z</time></trkpt><trkpt lat="45.3828464" lon="10.577507"><ele>109.0</ele><time>2026-03-29T08:50:15.617Z</time></trkpt><trkpt lat="45.3827207" lon="10.5774791"><ele>110.5</ele><time>2026-03-29T08:50:16.613Z</time></trkpt><trkpt lat="45.3825856" lon="10.5774679"><ele>112.0</ele><time>2026-03-29T08:50:17.61Z</time></trkpt><trkpt lat="45.3824439" lon="10.5774671"><ele>113.5</ele><time>2026-03-29T08:50:18.615Z</time></trkpt><trkpt lat="45.382316" lon="10.5774808"><ele>115.0</ele><time>2026-03-29T08:50:19.614Z</time></trkpt><trkpt lat="45.3822011" lon="10.5774856"><ele>115.0</ele><time>2026-03-29T08:50:20.618Z</time></trkpt><trkpt lat="45.3820782" lon="10.5775031"><ele>115.0</ele><time>2026-03-29T08:50:21.618Z</time></trkpt><trkpt lat="45.3819455" lon="10.5775281"><ele>115.0</ele><time>2026-03-29T08:50:22.618Z</time></trkpt><trkpt lat="45.3818151" lon="10.5775471"><ele>115.0</ele><time>2026-03-29T08:50:23.616Z</time></trkpt><trkpt lat="45.3816853" lon="10.5775469"><ele>115.0</ele><time>2026-03-29T08:50:24.611Z</time></trkpt><trkpt lat="45.3815353" lon="10.577543"><ele>115.0</ele><time>2026-03-29T08:50:25.614Z</time></trkpt><trkpt lat="45.3813996" lon="10.577549"><ele>115.0</ele><time>2026-03-29T08:50:26.611Z</time></trkpt><trkpt lat="45.3812674" lon="10.5775509"><ele>115.0</ele><time>2026-03-29T08:50:27.61Z</time></trkpt><trkpt lat="45.3811472" lon="10.5775547"><ele>113.0</ele><time>2026-03-29T08:50:28.609Z</time></trkpt><trkpt lat="45.3810213" lon="10.5775469"><ele>111.0</ele><time>2026-03-29T08:50:29.615Z</time></trkpt><trkpt lat="45.380897" lon="10.5775193"><ele>109.0</ele><time>2026-03-29T08:50:30.615Z</time></trkpt><trkpt lat="45.3807925" lon="10.5774681"><ele>107.0</ele><time>2026-03-29T08:50:31.612Z</time></trkpt><trkpt lat="45.3807119" lon="10.5774118"><ele>106.99999999999999</ele><time>2026-03-29T08:50:32.611Z</time></trkpt><trkpt lat="45.3806502" lon="10.577332"><ele>107.0</ele><time>2026-03-29T08:50:33.609Z</time></trkpt><trkpt lat="45.3806197" lon="10.5772366"><ele>107.0</ele><time>2026-03-29T08:50:34.609Z</time></trkpt><trkpt lat="45.3806202" lon="10.5771381"><ele>107.0</ele><time>2026-03-29T08:50:35.607Z</time></trkpt><trkpt lat="45.3806405" lon="10.5770146"><ele>106.99999999999999</ele><time>2026-03-29T08:50:36.609Z</time></trkpt><trkpt lat="45.3806523" lon="10.5768907"><ele>107.0</ele><time>2026-03-29T08:50:37.604Z</time></trkpt><trkpt lat="45.3806446" lon="10.576771"><ele>107.6</ele><time>2026-03-29T08:50:38.604Z</time></trkpt><trkpt lat="45.3806067" lon="10.5766789"><ele>108.19999999999999</ele><time>2026-03-29T08:50:39.614Z</time></trkpt><trkpt lat="45.3805288" lon="10.5765917"><ele>108.8</ele><time>2026-03-29T08:50:40.602Z</time></trkpt><trkpt lat="45.3804093" lon="10.5765218"><ele>109.4</ele><time>2026-03-29T08:50:41.606Z</time></trkpt><trkpt lat="45.3802745" lon="10.576482"><ele>110.0</ele><time>2026-03-29T08:50:42.604Z</time></trkpt><trkpt lat="45.3801482" lon="10.5764512"><ele>108.8</ele><time>2026-03-29T08:50:43.609Z</time></trkpt><trkpt lat="45.3800321" lon="10.5764474"><ele>107.6</ele><time>2026-03-29T08:50:44.61Z</time></trkpt><trkpt lat="45.3799219" lon="10.5764194"><ele>106.4</ele><time>2026-03-29T08:50:45.607Z</time></trkpt><trkpt lat="45.3798214" lon="10.5763722"><ele>105.2</ele><time>2026-03-29T08:50:46.619Z</time></trkpt><trkpt lat="45.3797245" lon="10.5763023"><ele>104.0</ele><time>2026-03-29T08:50:47.615Z</time></trkpt><trkpt lat="45.3796225" lon="10.5762507"><ele>104.0</ele><time>2026-03-29T08:50:48.612Z</time></trkpt><trkpt lat="45.379514" lon="10.5762497"><ele>104.0</ele><time>2026-03-29T08:50:49.606Z</time></trkpt><trkpt lat="45.379384" lon="10.5762738"><ele>104.0</ele><time>2026-03-29T08:50:50.606Z</time></trkpt><trkpt lat="45.3792422" lon="10.5763188"><ele>104.0</ele><time>2026-03-29T08:50:51.607Z</time></trkpt><trkpt lat="45.3790935" lon="10.5763548"><ele>103.99999999999999</ele><time>2026-03-29T08:50:52.611Z</time></trkpt><trkpt lat="45.3789922" lon="10.5763726"><ele>104.0</ele><time>2026-03-29T08:50:53.609Z</time></trkpt><trkpt lat="45.3789018" lon="10.5763549"><ele>104.0</ele><time>2026-03-29T08:50:54.609Z</time></trkpt><trkpt lat="45.3788417" lon="10.576303"><ele>104.0</ele><time>2026-03-29T08:50:55.611Z</time></trkpt><trkpt lat="45.3787809" lon="10.5762141"><ele>103.99999999999999</ele><time>2026-03-29T08:50:56.611Z</time></trkpt><trkpt lat="45.3787884" lon="10.5760927"><ele>104.0</ele><time>2026-03-29T08:50:57.608Z</time></trkpt><trkpt lat="45.3787817" lon="10.5759279"><ele>104.4</ele><time>2026-03-29T08:50:58.619Z</time></trkpt><trkpt lat="45.3787919" lon="10.575795"><ele>104.80000000000001</ele><time>2026-03-29T08:50:59.609Z</time></trkpt><trkpt lat="45.3787783" lon="10.5756814"><ele>105.19999999999999</ele><time>2026-03-29T08:51:00.609Z</time></trkpt><trkpt lat="45.3787581" lon="10.5755958"><ele>105.6</ele><time>2026-03-29T08:51:01.617Z</time></trkpt><trkpt lat="45.3786413" lon="10.5754945"><ele>106.0</ele><time>2026-03-29T08:51:03.606Z</time></trkpt><trkpt lat="45.3785518" lon="10.5754985"><ele>106.0</ele><time>2026-03-29T08:51:04.613Z</time></trkpt><trkpt lat="45.3784369" lon="10.575526"><ele>106.0</ele><time>2026-03-29T08:51:05.605Z</time></trkpt><trkpt lat="45.3782941" lon="10.5755683"><ele>106.0</ele><time>2026-03-29T08:51:06.609Z</time></trkpt><trkpt lat="45.3781262" lon="10.5755949"><ele>106.0</ele><time>2026-03-29T08:51:07.611Z</time></trkpt><trkpt lat="45.3779279" lon="10.5756243"><ele>105.66666666666667</ele><time>2026-03-29T08:51:08.614Z</time></trkpt><trkpt lat="45.3777467" lon="10.5756424"><ele>105.33333333333334</ele><time>2026-03-29T08:51:09.618Z</time></trkpt><trkpt lat="45.3775667" lon="10.5756358"><ele>105.0</ele><time>2026-03-29T08:51:10.617Z</time></trkpt><trkpt lat="45.3773849" lon="10.575657"><ele>105.0</ele><time>2026-03-29T08:51:11.622Z</time></trkpt><trkpt lat="45.3772329" lon="10.575679"><ele>105.0</ele><time>2026-03-29T08:51:12.643Z</time></trkpt><trkpt lat="45.377072" lon="10.5756942"><ele>105.0</ele><time>2026-03-29T08:51:14.696Z</time></trkpt><trkpt lat="45.3769176" lon="10.5756878"><ele>106.66666666666666</ele><time>2026-03-29T08:51:15.698Z</time></trkpt><trkpt lat="45.3767575" lon="10.5756547"><ele>108.33333333333333</ele><time>2026-03-29T08:51:16.686Z</time></trkpt><trkpt lat="45.3766152" lon="10.5755794"><ele>110.0</ele><time>2026-03-29T08:51:17.698Z</time></trkpt><trkpt lat="45.3764492" lon="10.5754894"><ele>110.33333333333333</ele><time>2026-03-29T08:51:18.69Z</time></trkpt><trkpt lat="45.3762699" lon="10.5753924"><ele>110.66666666666666</ele><time>2026-03-29T08:51:19.691Z</time></trkpt><trkpt lat="45.3760902" lon="10.5752952"><ele>111.0</ele><time>2026-03-29T08:51:20.702Z</time></trkpt><trkpt lat="45.3759265" lon="10.5752063"><ele>111.0</ele><time>2026-03-29T08:51:21.699Z</time></trkpt><trkpt lat="45.3757899" lon="10.575129"><ele>111.0</ele><time>2026-03-29T08:51:22.704Z</time></trkpt><trkpt lat="45.3756768" lon="10.5750637"><ele>111.0</ele><time>2026-03-29T08:51:23.704Z</time></trkpt><trkpt lat="45.3755974" lon="10.5750112"><ele>111.0</ele><time>2026-03-29T08:51:24.698Z</time></trkpt><trkpt lat="45.3755294" lon="10.5749585"><ele>111.0</ele><time>2026-03-29T08:51:25.706Z</time></trkpt><trkpt lat="45.3754694" lon="10.574915"><ele>111.19999999999999</ele><time>2026-03-29T08:51:26.699Z</time></trkpt><trkpt lat="45.3753738" lon="10.5748975"><ele>111.39999999999999</ele><time>2026-03-29T08:51:28.697Z</time></trkpt><trkpt lat="45.3752992" lon="10.574973"><ele>111.6</ele><time>2026-03-29T08:51:30.702Z</time></trkpt><trkpt lat="45.375291" lon="10.5750663"><ele>111.8</ele><time>2026-03-29T08:51:31.684Z</time></trkpt><trkpt lat="45.3752802" lon="10.5752071"><ele>112.0</ele><time>2026-03-29T08:51:32.681Z</time></trkpt><trkpt lat="45.3752093" lon="10.575653"><ele>112.0</ele><time>2026-03-29T08:51:34.6Z</time></trkpt><trkpt lat="45.3751985" lon="10.5758901"><ele>112.0</ele><time>2026-03-29T08:51:35.597Z</time></trkpt><trkpt lat="45.37519" lon="10.5761386"><ele>112.0</ele><time>2026-03-29T08:51:36.618Z</time></trkpt><trkpt lat="45.3751766" lon="10.5763849"><ele>111.33333333333334</ele><time>2026-03-29T08:51:37.62Z</time></trkpt><trkpt lat="45.3751667" lon="10.5766042"><ele>110.66666666666666</ele><time>2026-03-29T08:51:38.62Z</time></trkpt><trkpt lat="45.3751692" lon="10.5768184"><ele>110.0</ele><time>2026-03-29T08:51:39.623Z</time></trkpt><trkpt lat="45.3751329" lon="10.5770231"><ele>110.0</ele><time>2026-03-29T08:51:40.623Z</time></trkpt><trkpt lat="45.3751155" lon="10.5772419"><ele>110.0</ele><time>2026-03-29T08:51:41.627Z</time></trkpt><trkpt lat="45.3750775" lon="10.5774746"><ele>110.0</ele><time>2026-03-29T08:51:42.621Z</time></trkpt><trkpt lat="45.3750659" lon="10.5776878"><ele>109.5</ele><time>2026-03-29T08:51:43.617Z</time></trkpt><trkpt lat="45.3750537" lon="10.5778753"><ele>109.0</ele><time>2026-03-29T08:51:44.621Z</time></trkpt><trkpt lat="45.3750463" lon="10.5780754"><ele>108.5</ele><time>2026-03-29T08:51:45.623Z</time></trkpt><trkpt lat="45.3750258" lon="10.5782363"><ele>108.0</ele><time>2026-03-29T08:51:46.615Z</time></trkpt><trkpt lat="45.3750066" lon="10.5783822"><ele>108.0</ele><time>2026-03-29T08:51:47.624Z</time></trkpt><trkpt lat="45.3749803" lon="10.5785044"><ele>108.00000000000001</ele><time>2026-03-29T08:51:48.617Z</time></trkpt><trkpt lat="45.3749796" lon="10.5786144"><ele>108.00000000000001</ele><time>2026-03-29T08:51:49.607Z</time></trkpt><trkpt lat="45.3749243" lon="10.5787148"><ele>108.0</ele><time>2026-03-29T08:51:51.611Z</time></trkpt><trkpt lat="45.3748251" lon="10.5787929"><ele>108.0</ele><time>2026-03-29T08:51:53.625Z</time></trkpt><trkpt lat="45.3747334" lon="10.5787994"><ele>109.75</ele><time>2026-03-29T08:51:54.62Z</time></trkpt><trkpt lat="45.3746258" lon="10.5787958"><ele>111.5</ele><time>2026-03-29T08:51:55.625Z</time></trkpt><trkpt lat="45.3744963" lon="10.578786"><ele>113.25</ele><time>2026-03-29T08:51:56.616Z</time></trkpt><trkpt lat="45.3743494" lon="10.5787862"><ele>115.0</ele><time>2026-03-29T08:51:57.62Z</time></trkpt><trkpt lat="45.3741915" lon="10.5787987"><ele>115.0</ele><time>2026-03-29T08:51:58.616Z</time></trkpt><trkpt lat="45.3739953" lon="10.5788072"><ele>115.0</ele><time>2026-03-29T08:51:59.623Z</time></trkpt><trkpt lat="45.3738207" lon="10.5788135"><ele>115.0</ele><time>2026-03-29T08:52:00.618Z</time></trkpt><trkpt lat="45.3736716" lon="10.5788366"><ele>115.2</ele><time>2026-03-29T08:52:01.621Z</time></trkpt><trkpt lat="45.3735555" lon="10.5788618"><ele>115.4</ele><time>2026-03-29T08:52:02.617Z</time></trkpt><trkpt lat="45.3734445" lon="10.5788727"><ele>115.6</ele><time>2026-03-29T08:52:03.624Z</time></trkpt><trkpt lat="45.3733629" lon="10.5788773"><ele>115.8</ele><time>2026-03-29T08:52:04.612Z</time></trkpt><trkpt lat="45.3732342" lon="10.5788671"><ele>116.0</ele><time>2026-03-29T08:52:06.623Z</time></trkpt><trkpt lat="45.3731641" lon="10.5788802"><ele>115.99999999999999</ele><time>2026-03-29T08:52:07.622Z</time></trkpt><trkpt lat="45.3730791" lon="10.5788799"><ele>116.0</ele><time>2026-03-29T08:52:08.628Z</time></trkpt><trkpt lat="45.3730153" lon="10.5788809"><ele>116.0</ele><time>2026-03-29T08:52:09.62Z</time></trkpt><trkpt lat="45.3729429" lon="10.5788864"><ele>116.0</ele><time>2026-03-29T08:52:10.623Z</time></trkpt><trkpt lat="45.3728657" lon="10.5789071"><ele>115.99999999999999</ele><time>2026-03-29T08:52:11.625Z</time></trkpt><trkpt lat="45.3727734" lon="10.5789538"><ele>116.0</ele><time>2026-03-29T08:52:13.626Z</time></trkpt><trkpt lat="45.3727064" lon="10.5789897"><ele>115.66666666666666</ele><time>2026-03-29T08:52:15.629Z</time></trkpt><trkpt lat="45.3726514" lon="10.5791237"><ele>115.33333333333333</ele><time>2026-03-29T08:52:17.629Z</time></trkpt><trkpt lat="45.3726309" lon="10.5792239"><ele>115.0</ele><time>2026-03-29T08:52:18.617Z</time></trkpt><trkpt lat="45.372606" lon="10.57933"><ele>114.66666666666666</ele><time>2026-03-29T08:52:19.622Z</time></trkpt><trkpt lat="45.3725748" lon="10.5794542"><ele>114.33333333333333</ele><time>2026-03-29T08:52:20.622Z</time></trkpt><trkpt lat="45.3725494" lon="10.5795752"><ele>114.0</ele><time>2026-03-29T08:52:21.615Z</time></trkpt><trkpt lat="45.3725332" lon="10.5796904"><ele>113.83333333333333</ele><time>2026-03-29T08:52:22.622Z</time></trkpt><trkpt lat="45.3725244" lon="10.5797896"><ele>113.66666666666666</ele><time>2026-03-29T08:52:23.622Z</time></trkpt><trkpt lat="45.3725108" lon="10.5799293"><ele>113.5</ele><time>2026-03-29T08:52:25.62Z</time></trkpt><trkpt lat="45.3725798" lon="10.5800352"><ele>113.33333333333333</ele><time>2026-03-29T08:52:29.629Z</time></trkpt><trkpt lat="45.3726442" lon="10.5800811"><ele>113.16666666666666</ele><time>2026-03-29T08:52:30.613Z</time></trkpt><trkpt lat="45.3727278" lon="10.5801203"><ele>113.0</ele><time>2026-03-29T08:52:31.624Z</time></trkpt><trkpt lat="45.3728249" lon="10.5801606"><ele>113.0</ele><time>2026-03-29T08:52:32.613Z</time></trkpt><trkpt lat="45.3729492" lon="10.5802168"><ele>113.0</ele><time>2026-03-29T08:52:33.625Z</time></trkpt><trkpt lat="45.3730921" lon="10.5802913"><ele>113.0</ele><time>2026-03-29T08:52:34.617Z</time></trkpt><trkpt lat="45.3732515" lon="10.580395"><ele>112.66666666666666</ele><time>2026-03-29T08:52:35.622Z</time></trkpt><trkpt lat="45.3734176" lon="10.5805222"><ele>112.33333333333334</ele><time>2026-03-29T08:52:36.621Z</time></trkpt><trkpt lat="45.3735745" lon="10.5806496"><ele>112.0</ele><time>2026-03-29T08:52:37.622Z</time></trkpt><trkpt lat="45.3737184" lon="10.580796"><ele>111.66666666666667</ele><time>2026-03-29T08:52:38.627Z</time></trkpt><trkpt lat="45.3738737" lon="10.5809761"><ele>111.33333333333334</ele><time>2026-03-29T08:52:39.627Z</time></trkpt><trkpt lat="45.3740149" lon="10.5811583"><ele>111.0</ele><time>2026-03-29T08:52:40.63Z</time></trkpt><trkpt lat="45.3741675" lon="10.5813731"><ele>111.66666666666666</ele><time>2026-03-29T08:52:41.631Z</time></trkpt><trkpt lat="45.374307" lon="10.5815537"><ele>112.33333333333333</ele><time>2026-03-29T08:52:42.624Z</time></trkpt><trkpt lat="45.3744677" lon="10.5817438"><ele>113.0</ele><time>2026-03-29T08:52:43.639Z</time></trkpt><trkpt lat="45.3746393" lon="10.5819506"><ele>112.33333333333333</ele><time>2026-03-29T08:52:44.631Z</time></trkpt><trkpt lat="45.3748126" lon="10.5821605"><ele>111.66666666666666</ele><time>2026-03-29T08:52:45.626Z</time></trkpt><trkpt lat="45.3749721" lon="10.5823706"><ele>111.0</ele><time>2026-03-29T08:52:46.624Z</time></trkpt><trkpt lat="45.3751405" lon="10.5825942"><ele>111.0</ele><time>2026-03-29T08:52:47.628Z</time></trkpt><trkpt lat="45.3752975" lon="10.5828019"><ele>111.0</ele><time>2026-03-29T08:52:48.624Z</time></trkpt><trkpt lat="45.3754715" lon="10.5830056"><ele>111.0</ele><time>2026-03-29T08:52:49.624Z</time></trkpt><trkpt lat="45.3756375" lon="10.5831939"><ele>111.0</ele><time>2026-03-29T08:52:50.631Z</time></trkpt><trkpt lat="45.3758146" lon="10.583373"><ele>111.0</ele><time>2026-03-29T08:52:51.622Z</time></trkpt><trkpt lat="45.3760009" lon="10.5835745"><ele>111.0</ele><time>2026-03-29T08:52:52.632Z</time></trkpt><trkpt lat="45.3761638" lon="10.583757"><ele>111.0</ele><time>2026-03-29T08:52:53.634Z</time></trkpt><trkpt lat="45.3763346" lon="10.5839388"><ele>111.0</ele><time>2026-03-29T08:52:54.633Z</time></trkpt><trkpt lat="45.3765078" lon="10.5841365"><ele>111.0</ele><time>2026-03-29T08:52:55.626Z</time></trkpt><trkpt lat="45.3766831" lon="10.5843313"><ele>111.0</ele><time>2026-03-29T08:52:56.634Z</time></trkpt><trkpt lat="45.3768568" lon="10.5845434"><ele>111.33333333333334</ele><time>2026-03-29T08:52:57.632Z</time></trkpt><trkpt lat="45.3770304" lon="10.5847417"><ele>111.66666666666667</ele><time>2026-03-29T08:52:58.63Z</time></trkpt><trkpt lat="45.3771922" lon="10.5849524"><ele>112.0</ele><time>2026-03-29T08:52:59.635Z</time></trkpt><trkpt lat="45.3773279" lon="10.5851591"><ele>112.33333333333334</ele><time>2026-03-29T08:53:00.621Z</time></trkpt><trkpt lat="45.3774695" lon="10.5853981"><ele>112.66666666666666</ele><time>2026-03-29T08:53:01.632Z</time></trkpt><trkpt lat="45.3776014" lon="10.5856264"><ele>113.0</ele><time>2026-03-29T08:53:02.625Z</time></trkpt><trkpt lat="45.3777489" lon="10.5858637"><ele>113.0</ele><time>2026-03-29T08:53:03.622Z</time></trkpt><trkpt lat="45.377895" lon="10.5860984"><ele>113.0</ele><time>2026-03-29T08:53:04.625Z</time></trkpt><trkpt lat="45.3780351" lon="10.5863381"><ele>113.0</ele><time>2026-03-29T08:53:05.621Z</time></trkpt><trkpt lat="45.3781482" lon="10.5865553"><ele>115.0</ele><time>2026-03-29T08:53:06.63Z</time></trkpt><trkpt lat="45.3783086" lon="10.5868259"><ele>117.0</ele><time>2026-03-29T08:53:07.614Z</time></trkpt><trkpt lat="45.3784277" lon="10.5870939"><ele>118.0</ele><time>2026-03-29T08:53:08.625Z</time></trkpt><trkpt lat="45.3785174" lon="10.5873725"><ele>119.0</ele><time>2026-03-29T08:53:09.621Z</time></trkpt><trkpt lat="45.3786036" lon="10.5876476"><ele>120.0</ele><time>2026-03-29T08:53:10.62Z</time></trkpt><trkpt lat="45.3786716" lon="10.5878664"><ele>120.66666666666666</ele><time>2026-03-29T08:53:11.617Z</time></trkpt><trkpt lat="45.3787156" lon="10.588058"><ele>121.33333333333333</ele><time>2026-03-29T08:53:12.61Z</time></trkpt><trkpt lat="45.3787701" lon="10.5882754"><ele>122.0</ele><time>2026-03-29T08:53:13.616Z</time></trkpt><trkpt lat="45.3788091" lon="10.5885271"><ele>123.0</ele><time>2026-03-29T08:53:14.611Z</time></trkpt><trkpt lat="45.378825" lon="10.5887986"><ele>124.0</ele><time>2026-03-29T08:53:15.624Z</time></trkpt><trkpt lat="45.3788074" lon="10.5890706"><ele>125.0</ele><time>2026-03-29T08:53:16.616Z</time></trkpt><trkpt lat="45.3787675" lon="10.5893462"><ele>126.0</ele><time>2026-03-29T08:53:17.619Z</time></trkpt><trkpt lat="45.3787195" lon="10.5896107"><ele>127.0</ele><time>2026-03-29T08:53:18.619Z</time></trkpt><trkpt lat="45.3786808" lon="10.5898739"><ele>128.0</ele><time>2026-03-29T08:53:19.614Z</time></trkpt><trkpt lat="45.3786799" lon="10.5901477"><ele>129.0</ele><time>2026-03-29T08:53:20.613Z</time></trkpt><trkpt lat="45.3786724" lon="10.5904129"><ele>130.0</ele><time>2026-03-29T08:53:21.611Z</time></trkpt><trkpt lat="45.3786687" lon="10.5906521"><ele>131.0</ele><time>2026-03-29T08:53:22.624Z</time></trkpt><trkpt lat="45.3786888" lon="10.5908896"><ele>131.0</ele><time>2026-03-29T08:53:23.618Z</time></trkpt><trkpt lat="45.3787568" lon="10.5911299"><ele>131.0</ele><time>2026-03-29T08:53:24.617Z</time></trkpt><trkpt lat="45.3788396" lon="10.5913833"><ele>131.0</ele><time>2026-03-29T08:53:25.62Z</time></trkpt><trkpt lat="45.3789329" lon="10.5915997"><ele>132.66666666666666</ele><time>2026-03-29T08:53:26.616Z</time></trkpt><trkpt lat="45.3790397" lon="10.5918226"><ele>134.33333333333334</ele><time>2026-03-29T08:53:27.629Z</time></trkpt><trkpt lat="45.3791344" lon="10.5920444"><ele>136.0</ele><time>2026-03-29T08:53:28.62Z</time></trkpt><trkpt lat="45.3792293" lon="10.5922736"><ele>136.33333333333334</ele><time>2026-03-29T08:53:29.643Z</time></trkpt><trkpt lat="45.3793296" lon="10.5925546"><ele>136.66666666666666</ele><time>2026-03-29T08:53:30.628Z</time></trkpt><trkpt lat="45.3794298" lon="10.5928327"><ele>137.0</ele><time>2026-03-29T08:53:31.624Z</time></trkpt><trkpt lat="45.3795017" lon="10.5931025"><ele>137.33333333333331</ele><time>2026-03-29T08:53:32.623Z</time></trkpt><trkpt lat="45.3795445" lon="10.5933865"><ele>137.66666666666666</ele><time>2026-03-29T08:53:33.62Z</time></trkpt><trkpt lat="45.37956" lon="10.5936824"><ele>138.0</ele><time>2026-03-29T08:53:34.629Z</time></trkpt><trkpt lat="45.3795519" lon="10.5939931"><ele>138.0</ele><time>2026-03-29T08:53:35.623Z</time></trkpt><trkpt lat="45.3795437" lon="10.5942742"><ele>138.0</ele><time>2026-03-29T08:53:37.703Z</time></trkpt><trkpt lat="45.3795383" lon="10.5945537"><ele>138.0</ele><time>2026-03-29T08:53:38.702Z</time></trkpt><trkpt lat="45.3795405" lon="10.5948165"><ele>138.0</ele><time>2026-03-29T08:53:39.71Z</time></trkpt><trkpt lat="45.3795476" lon="10.5950705"><ele>138.0</ele><time>2026-03-29T08:53:40.7Z</time></trkpt><trkpt lat="45.3795352" lon="10.5953159"><ele>138.0</ele><time>2026-03-29T08:53:41.711Z</time></trkpt><trkpt lat="45.3795731" lon="10.5955791"><ele>138.66666666666666</ele><time>2026-03-29T08:53:42.699Z</time></trkpt><trkpt lat="45.3796365" lon="10.595847"><ele>139.33333333333331</ele><time>2026-03-29T08:53:43.683Z</time></trkpt><trkpt lat="45.3797039" lon="10.5961187"><ele>140.0</ele><time>2026-03-29T08:53:44.702Z</time></trkpt><trkpt lat="45.3797745" lon="10.5964146"><ele>138.66666666666666</ele><time>2026-03-29T08:53:45.694Z</time></trkpt><trkpt lat="45.3798458" lon="10.5967191"><ele>137.33333333333334</ele><time>2026-03-29T08:53:46.688Z</time></trkpt><trkpt lat="45.379913" lon="10.5970012"><ele>136.0</ele><time>2026-03-29T08:53:47.7Z</time></trkpt><trkpt lat="45.3799906" lon="10.59724"><ele>136.0</ele><time>2026-03-29T08:53:48.701Z</time></trkpt><trkpt lat="45.380062" lon="10.5974598"><ele>136.0</ele><time>2026-03-29T08:53:49.706Z</time></trkpt><trkpt lat="45.380127" lon="10.5976633"><ele>136.0</ele><time>2026-03-29T08:53:50.71Z</time></trkpt><trkpt lat="45.3801853" lon="10.5978477"><ele>136.25</ele><time>2026-03-29T08:53:51.704Z</time></trkpt><trkpt lat="45.3802325" lon="10.5980393"><ele>136.5</ele><time>2026-03-29T08:53:52.705Z</time></trkpt><trkpt lat="45.380275" lon="10.5982423"><ele>136.75</ele><time>2026-03-29T08:53:53.705Z</time></trkpt><trkpt lat="45.3803105" lon="10.5984568"><ele>137.0</ele><time>2026-03-29T08:53:54.712Z</time></trkpt><trkpt lat="45.3803331" lon="10.5986913"><ele>137.0</ele><time>2026-03-29T08:53:55.717Z</time></trkpt><trkpt lat="45.3803488" lon="10.5989157"><ele>137.0</ele><time>2026-03-29T08:53:56.694Z</time></trkpt><trkpt lat="45.380362" lon="10.5991329"><ele>137.0</ele><time>2026-03-29T08:53:57.71Z</time></trkpt><trkpt lat="45.3803727" lon="10.5993391"><ele>136.75</ele><time>2026-03-29T08:53:58.696Z</time></trkpt><trkpt lat="45.3803835" lon="10.5995287"><ele>136.5</ele><time>2026-03-29T08:53:59.7Z</time></trkpt><trkpt lat="45.3803957" lon="10.5997209"><ele>136.25</ele><time>2026-03-29T08:54:00.711Z</time></trkpt><trkpt lat="45.3804081" lon="10.5999084"><ele>136.0</ele><time>2026-03-29T08:54:01.712Z</time></trkpt><trkpt lat="45.3804204" lon="10.6000789"><ele>136.0</ele><time>2026-03-29T08:54:02.708Z</time></trkpt><trkpt lat="45.38043" lon="10.60022"><ele>136.0</ele><time>2026-03-29T08:54:03.718Z</time></trkpt><trkpt lat="45.3804324" lon="10.6003424"><ele>136.0</ele><time>2026-03-29T08:54:04.705Z</time></trkpt><trkpt lat="45.3804268" lon="10.6004391"><ele>136.0</ele><time>2026-03-29T08:54:05.706Z</time></trkpt><trkpt lat="45.3803953" lon="10.6005804"><ele>136.0</ele><time>2026-03-29T08:54:07.701Z</time></trkpt><trkpt lat="45.3803305" lon="10.6006462"><ele>136.0</ele><time>2026-03-29T08:54:09.714Z</time></trkpt><trkpt lat="45.3802067" lon="10.6006946"><ele>135.75</ele><time>2026-03-29T08:54:11.701Z</time></trkpt><trkpt lat="45.3800873" lon="10.6007112"><ele>135.5</ele><time>2026-03-29T08:54:12.692Z</time></trkpt><trkpt lat="45.3799502" lon="10.6007341"><ele>135.25</ele><time>2026-03-29T08:54:13.691Z</time></trkpt><trkpt lat="45.3797876" lon="10.6007658"><ele>135.0</ele><time>2026-03-29T08:54:14.696Z</time></trkpt><trkpt lat="45.3796099" lon="10.6007999"><ele>135.0</ele><time>2026-03-29T08:54:15.702Z</time></trkpt><trkpt lat="45.3794535" lon="10.6008265"><ele>135.0</ele><time>2026-03-29T08:54:16.702Z</time></trkpt><trkpt lat="45.3793013" lon="10.6008567"><ele>135.0</ele><time>2026-03-29T08:54:17.702Z</time></trkpt><trkpt lat="45.3791487" lon="10.6008794"><ele>135.0</ele><time>2026-03-29T08:54:18.705Z</time></trkpt><trkpt lat="45.3789902" lon="10.6008853"><ele>135.0</ele><time>2026-03-29T08:54:19.704Z</time></trkpt><trkpt lat="45.3788247" lon="10.6008753"><ele>135.0</ele><time>2026-03-29T08:54:20.68Z</time></trkpt><trkpt lat="45.3786657" lon="10.600848"><ele>133.33333333333334</ele><time>2026-03-29T08:54:21.683Z</time></trkpt><trkpt lat="45.3785094" lon="10.6008125"><ele>131.66666666666669</ele><time>2026-03-29T08:54:22.686Z</time></trkpt><trkpt lat="45.3783587" lon="10.6007786"><ele>130.0</ele><time>2026-03-29T08:54:23.687Z</time></trkpt><trkpt lat="45.378216" lon="10.6007508"><ele>130.0</ele><time>2026-03-29T08:54:24.702Z</time></trkpt><trkpt lat="45.3780796" lon="10.6007342"><ele>130.0</ele><time>2026-03-29T08:54:25.702Z</time></trkpt><trkpt lat="45.3779529" lon="10.6007379"><ele>130.0</ele><time>2026-03-29T08:54:26.692Z</time></trkpt><trkpt lat="45.3778286" lon="10.6007765"><ele>130.0</ele><time>2026-03-29T08:54:27.689Z</time></trkpt><trkpt lat="45.3777086" lon="10.600838"><ele>127.33333333333334</ele><time>2026-03-29T08:54:28.69Z</time></trkpt><trkpt lat="45.3775785" lon="10.6009422"><ele>124.66666666666666</ele><time>2026-03-29T08:54:29.697Z</time></trkpt><trkpt lat="45.3774285" lon="10.6010744"><ele>122.0</ele><time>2026-03-29T08:54:30.695Z</time></trkpt><trkpt lat="45.3772785" lon="10.6012066"><ele>121.0</ele><time>2026-03-29T08:54:31.718Z</time></trkpt><trkpt lat="45.3771337" lon="10.6013221"><ele>120.0</ele><time>2026-03-29T08:54:32.705Z</time></trkpt><trkpt lat="45.3769767" lon="10.6014116"><ele>119.0</ele><time>2026-03-29T08:54:33.699Z</time></trkpt><trkpt lat="45.3768185" lon="10.601478"><ele>119.0</ele><time>2026-03-29T08:54:34.687Z</time></trkpt><trkpt lat="45.3766502" lon="10.6015282"><ele>119.0</ele><time>2026-03-29T08:54:35.695Z</time></trkpt><trkpt lat="45.3764812" lon="10.6015724"><ele>119.0</ele><time>2026-03-29T08:54:36.7Z</time></trkpt><trkpt lat="45.3763261" lon="10.601615"><ele>119.25</ele><time>2026-03-29T08:54:37.686Z</time></trkpt><trkpt lat="45.3761856" lon="10.6016436"><ele>119.5</ele><time>2026-03-29T08:54:38.719Z</time></trkpt><trkpt lat="45.3760536" lon="10.6016519"><ele>119.75</ele><time>2026-03-29T08:54:39.708Z</time></trkpt><trkpt lat="45.3759075" lon="10.6016432"><ele>120.0</ele><time>2026-03-29T08:54:40.693Z</time></trkpt><trkpt lat="45.37575" lon="10.6016285"><ele>120.0</ele><time>2026-03-29T08:54:41.691Z</time></trkpt><trkpt lat="45.3755949" lon="10.6016072"><ele>120.0</ele><time>2026-03-29T08:54:42.687Z</time></trkpt><trkpt lat="45.375438" lon="10.6015643"><ele>120.0</ele><time>2026-03-29T08:54:43.687Z</time></trkpt><trkpt lat="45.3752886" lon="10.6014957"><ele>118.66666666666666</ele><time>2026-03-29T08:54:44.703Z</time></trkpt><trkpt lat="45.3751324" lon="10.6013961"><ele>117.33333333333333</ele><time>2026-03-29T08:54:45.708Z</time></trkpt><trkpt lat="45.3749763" lon="10.6012787"><ele>116.0</ele><time>2026-03-29T08:54:46.701Z</time></trkpt><trkpt lat="45.3748217" lon="10.6011606"><ele>114.33333333333333</ele><time>2026-03-29T08:54:47.711Z</time></trkpt><trkpt lat="45.3746757" lon="10.6010469"><ele>112.66666666666666</ele><time>2026-03-29T08:54:48.703Z</time></trkpt><trkpt lat="45.3745335" lon="10.6009355"><ele>111.0</ele><time>2026-03-29T08:54:49.702Z</time></trkpt><trkpt lat="45.3743897" lon="10.6008225"><ele>111.0</ele><time>2026-03-29T08:54:50.719Z</time></trkpt><trkpt lat="45.3742473" lon="10.6007058"><ele>111.0</ele><time>2026-03-29T08:54:51.719Z</time></trkpt><trkpt lat="45.3741039" lon="10.6005868"><ele>111.0</ele><time>2026-03-29T08:54:52.731Z</time></trkpt><trkpt lat="45.3739609" lon="10.600468"><ele>111.0</ele><time>2026-03-29T08:54:53.717Z</time></trkpt><trkpt lat="45.3738136" lon="10.6003413"><ele>111.0</ele><time>2026-03-29T08:54:54.723Z</time></trkpt><trkpt lat="45.3736713" lon="10.6002144"><ele>111.0</ele><time>2026-03-29T08:54:55.723Z</time></trkpt><trkpt lat="45.3735417" lon="10.600094"><ele>111.25</ele><time>2026-03-29T08:54:56.716Z</time></trkpt><trkpt lat="45.3734239" lon="10.5999878"><ele>111.5</ele><time>2026-03-29T08:54:57.719Z</time></trkpt><trkpt lat="45.3733128" lon="10.5998898"><ele>111.75</ele><time>2026-03-29T08:54:58.706Z</time></trkpt><trkpt lat="45.3732196" lon="10.5997921"><ele>112.0</ele><time>2026-03-29T08:54:59.701Z</time></trkpt><trkpt lat="45.3731427" lon="10.5996668"><ele>112.0</ele><time>2026-03-29T08:55:00.703Z</time></trkpt><trkpt lat="45.3730931" lon="10.5995231"><ele>112.0</ele><time>2026-03-29T08:55:01.688Z</time></trkpt><trkpt lat="45.3730478" lon="10.5993346"><ele>112.0</ele><time>2026-03-29T08:55:02.7Z</time></trkpt><trkpt lat="45.3730275" lon="10.5991405"><ele>112.0</ele><time>2026-03-29T08:55:03.685Z</time></trkpt><trkpt lat="45.3730064" lon="10.5989412"><ele>110.66666666666667</ele><time>2026-03-29T08:55:04.693Z</time></trkpt><trkpt lat="45.3729808" lon="10.5987285"><ele>109.33333333333334</ele><time>2026-03-29T08:55:05.7Z</time></trkpt><trkpt lat="45.3729451" lon="10.5984982"><ele>108.0</ele><time>2026-03-29T08:55:06.702Z</time></trkpt><trkpt lat="45.3728906" lon="10.5982619"><ele>108.0</ele><time>2026-03-29T08:55:07.705Z</time></trkpt><trkpt lat="45.3728259" lon="10.5980213"><ele>108.0</ele><time>2026-03-29T08:55:08.702Z</time></trkpt><trkpt lat="45.3727571" lon="10.5977977"><ele>108.0</ele><time>2026-03-29T08:55:09.719Z</time></trkpt><trkpt lat="45.3726981" lon="10.5975992"><ele>108.25</ele><time>2026-03-29T08:55:10.702Z</time></trkpt><trkpt lat="45.3726444" lon="10.5974236"><ele>108.5</ele><time>2026-03-29T08:55:11.704Z</time></trkpt><trkpt lat="45.3725707" lon="10.5972737"><ele>108.75</ele><time>2026-03-29T08:55:12.706Z</time></trkpt><trkpt lat="45.3724723" lon="10.5971482"><ele>109.0</ele><time>2026-03-29T08:55:13.694Z</time></trkpt><trkpt lat="45.372348" lon="10.5970501"><ele>108.66666666666667</ele><time>2026-03-29T08:55:14.697Z</time></trkpt><trkpt lat="45.3722059" lon="10.5969544"><ele>108.33333333333334</ele><time>2026-03-29T08:55:15.697Z</time></trkpt><trkpt lat="45.3720492" lon="10.5968547"><ele>108.0</ele><time>2026-03-29T08:55:16.698Z</time></trkpt><trkpt lat="45.3718825" lon="10.5967493"><ele>109.33333333333334</ele><time>2026-03-29T08:55:17.714Z</time></trkpt><trkpt lat="45.3717049" lon="10.5966417"><ele>110.66666666666667</ele><time>2026-03-29T08:55:18.712Z</time></trkpt><trkpt lat="45.371526" lon="10.5965375"><ele>112.0</ele><time>2026-03-29T08:55:19.724Z</time></trkpt><trkpt lat="45.3713442" lon="10.5964306"><ele>112.0</ele><time>2026-03-29T08:55:20.713Z</time></trkpt><trkpt lat="45.3711631" lon="10.5963268"><ele>112.0</ele><time>2026-03-29T08:55:21.713Z</time></trkpt><trkpt lat="45.3709812" lon="10.5962291"><ele>112.0</ele><time>2026-03-29T08:55:22.7Z</time></trkpt><trkpt lat="45.3708135" lon="10.5961524"><ele>112.5</ele><time>2026-03-29T08:55:23.71Z</time></trkpt><trkpt lat="45.3706572" lon="10.596091"><ele>113.0</ele><time>2026-03-29T08:55:24.708Z</time></trkpt><trkpt lat="45.3705116" lon="10.5960432"><ele>113.5</ele><time>2026-03-29T08:55:25.712Z</time></trkpt><trkpt lat="45.3703902" lon="10.5960179"><ele>114.0</ele><time>2026-03-29T08:55:26.712Z</time></trkpt><trkpt lat="45.3702909" lon="10.5960142"><ele>115.0</ele><time>2026-03-29T08:55:27.709Z</time></trkpt><trkpt lat="45.3702058" lon="10.596016"><ele>116.0</ele><time>2026-03-29T08:55:28.702Z</time></trkpt><trkpt lat="45.3701073" lon="10.595969"><ele>117.0</ele><time>2026-03-29T08:55:30.703Z</time></trkpt><trkpt lat="45.370078" lon="10.595849"><ele>118.0</ele><time>2026-03-29T08:55:32.701Z</time></trkpt><trkpt lat="45.3700867" lon="10.5957423"><ele>119.0</ele><time>2026-03-29T08:55:33.71Z</time></trkpt><trkpt lat="45.3701022" lon="10.5956206"><ele>120.0</ele><time>2026-03-29T08:55:34.691Z</time></trkpt><trkpt lat="45.3701186" lon="10.5954701"><ele>120.33333333333334</ele><time>2026-03-29T08:55:35.698Z</time></trkpt><trkpt lat="45.3701368" lon="10.5952579"><ele>120.66666666666667</ele><time>2026-03-29T08:55:36.688Z</time></trkpt><trkpt lat="45.3701434" lon="10.5950318"><ele>121.0</ele><time>2026-03-29T08:55:37.693Z</time></trkpt><trkpt lat="45.3701388" lon="10.594757"><ele>121.0</ele><time>2026-03-29T08:55:38.709Z</time></trkpt><trkpt lat="45.370127" lon="10.5945047"><ele>121.0</ele><time>2026-03-29T08:55:39.702Z</time></trkpt><trkpt lat="45.3701104" lon="10.5942665"><ele>121.0</ele><time>2026-03-29T08:55:40.714Z</time></trkpt><trkpt lat="45.3700929" lon="10.5940524"><ele>121.4</ele><time>2026-03-29T08:55:41.703Z</time></trkpt><trkpt lat="45.3700789" lon="10.5938678"><ele>121.8</ele><time>2026-03-29T08:55:42.695Z</time></trkpt><trkpt lat="45.3700676" lon="10.5936903"><ele>122.20000000000002</ele><time>2026-03-29T08:55:43.694Z</time></trkpt><trkpt lat="45.3700673" lon="10.5935492"><ele>122.60000000000001</ele><time>2026-03-29T08:55:44.7Z</time></trkpt><trkpt lat="45.3700774" lon="10.5934217"><ele>123.0</ele><time>2026-03-29T08:55:45.687Z</time></trkpt><trkpt lat="45.3700963" lon="10.5933286"><ele>123.2</ele><time>2026-03-29T08:55:46.672Z</time></trkpt><trkpt lat="45.3701294" lon="10.5932183"><ele>123.4</ele><time>2026-03-29T08:55:47.675Z</time></trkpt><trkpt lat="45.3701787" lon="10.5930702"><ele>123.60000000000001</ele><time>2026-03-29T08:55:48.679Z</time></trkpt><trkpt lat="45.3702359" lon="10.5929269"><ele>123.80000000000001</ele><time>2026-03-29T08:55:49.682Z</time></trkpt><trkpt lat="45.3702976" lon="10.5927756"><ele>124.0</ele><time>2026-03-29T08:55:50.704Z</time></trkpt><trkpt lat="45.3703708" lon="10.5926128"><ele>125.33333333333334</ele><time>2026-03-29T08:55:51.694Z</time></trkpt><trkpt lat="45.3704483" lon="10.5924309"><ele>126.66666666666666</ele><time>2026-03-29T08:55:52.708Z</time></trkpt><trkpt lat="45.3705343" lon="10.5922444"><ele>128.0</ele><time>2026-03-29T08:55:53.695Z</time></trkpt><trkpt lat="45.3706081" lon="10.5920509"><ele>123.33333333333333</ele><time>2026-03-29T08:55:54.701Z</time></trkpt><trkpt lat="45.3706762" lon="10.5918452"><ele>118.66666666666666</ele><time>2026-03-29T08:55:55.696Z</time></trkpt><trkpt lat="45.3707272" lon="10.5916499"><ele>114.0</ele><time>2026-03-29T08:55:56.695Z</time></trkpt><trkpt lat="45.3708313" lon="10.5912938"><ele>113.6</ele><time>2026-03-29T08:55:57.601Z</time></trkpt><trkpt lat="45.3708118" lon="10.5911289"><ele>113.2</ele><time>2026-03-29T08:55:58.594Z</time></trkpt><trkpt lat="45.3707828" lon="10.5909907"><ele>112.79999999999998</ele><time>2026-03-29T08:55:59.591Z</time></trkpt><trkpt lat="45.3707285" lon="10.5909052"><ele>112.39999999999999</ele><time>2026-03-29T08:56:00.595Z</time></trkpt><trkpt lat="45.3706877" lon="10.5908239"><ele>112.0</ele><time>2026-03-29T08:56:01.611Z</time></trkpt><trkpt lat="45.3706146" lon="10.5906765"><ele>112.0</ele><time>2026-03-29T08:56:03.607Z</time></trkpt><trkpt lat="45.3705747" lon="10.5905788"><ele>111.99999999999999</ele><time>2026-03-29T08:56:04.612Z</time></trkpt><trkpt lat="45.3705139" lon="10.5904608"><ele>111.99999999999999</ele><time>2026-03-29T08:56:05.607Z</time></trkpt><trkpt lat="45.3704364" lon="10.590346"><ele>112.0</ele><time>2026-03-29T08:56:06.606Z</time></trkpt><trkpt lat="45.3703652" lon="10.5902435"><ele>112.0</ele><time>2026-03-29T08:56:07.601Z</time></trkpt><trkpt lat="45.3703043" lon="10.5901581"><ele>114.19999999999999</ele><time>2026-03-29T08:56:08.609Z</time></trkpt><trkpt lat="45.370253" lon="10.5900438"><ele>116.39999999999999</ele><time>2026-03-29T08:56:09.607Z</time></trkpt><trkpt lat="45.3702068" lon="10.5899026"><ele>118.60000000000001</ele><time>2026-03-29T08:56:10.616Z</time></trkpt><trkpt lat="45.3701579" lon="10.5897695"><ele>120.80000000000001</ele><time>2026-03-29T08:56:11.61Z</time></trkpt><trkpt lat="45.3701254" lon="10.5896506"><ele>123.0</ele><time>2026-03-29T08:56:12.617Z</time></trkpt><trkpt lat="45.3700716" lon="10.5895738"><ele>123.25</ele><time>2026-03-29T08:56:13.619Z</time></trkpt><trkpt lat="45.3699948" lon="10.5895081"><ele>123.5</ele><time>2026-03-29T08:56:14.612Z</time></trkpt><trkpt lat="45.3698921" lon="10.5894367"><ele>123.75</ele><time>2026-03-29T08:56:15.612Z</time></trkpt><trkpt lat="45.3697739" lon="10.589368"><ele>124.0</ele><time>2026-03-29T08:56:16.603Z</time></trkpt><trkpt lat="45.3696446" lon="10.5892949"><ele>124.0</ele><time>2026-03-29T08:56:17.597Z</time></trkpt><trkpt lat="45.3695284" lon="10.5892284"><ele>124.0</ele><time>2026-03-29T08:56:18.583Z</time></trkpt><trkpt lat="45.3694311" lon="10.589176"><ele>124.0</ele><time>2026-03-29T08:56:19.591Z</time></trkpt><trkpt lat="45.3693588" lon="10.5891165"><ele>124.0</ele><time>2026-03-29T08:56:20.591Z</time></trkpt><trkpt lat="45.3692949" lon="10.589011"><ele>124.0</ele><time>2026-03-29T08:56:21.591Z</time></trkpt><trkpt lat="45.3692388" lon="10.5888934"><ele>124.0</ele><time>2026-03-29T08:56:22.6Z</time></trkpt><trkpt lat="45.3691813" lon="10.5887588"><ele>124.0</ele><time>2026-03-29T08:56:23.603Z</time></trkpt><trkpt lat="45.3691111" lon="10.5886093"><ele>124.0</ele><time>2026-03-29T08:56:24.606Z</time></trkpt><trkpt lat="45.3690474" lon="10.588457"><ele>124.0</ele><time>2026-03-29T08:56:25.611Z</time></trkpt><trkpt lat="45.3689972" lon="10.5883237"><ele>124.83333333333334</ele><time>2026-03-29T08:56:26.61Z</time></trkpt><trkpt lat="45.3689553" lon="10.5882232"><ele>125.66666666666667</ele><time>2026-03-29T08:56:27.61Z</time></trkpt><trkpt lat="45.3689049" lon="10.5881495"><ele>126.5</ele><time>2026-03-29T08:56:28.618Z</time></trkpt><trkpt lat="45.368839" lon="10.5880893"><ele>127.33333333333334</ele><time>2026-03-29T08:56:29.616Z</time></trkpt><trkpt lat="45.3687506" lon="10.5880431"><ele>128.16666666666666</ele><time>2026-03-29T08:56:30.626Z</time></trkpt><trkpt lat="45.3686582" lon="10.5879771"><ele>129.0</ele><time>2026-03-29T08:56:31.623Z</time></trkpt><trkpt lat="45.3685708" lon="10.5879003"><ele>128.0</ele><time>2026-03-29T08:56:32.623Z</time></trkpt><trkpt lat="45.3684974" lon="10.5878089"><ele>127.0</ele><time>2026-03-29T08:56:33.623Z</time></trkpt><trkpt lat="45.3684376" lon="10.5877028"><ele>126.0</ele><time>2026-03-29T08:56:34.617Z</time></trkpt><trkpt lat="45.3683804" lon="10.587588"><ele>125.0</ele><time>2026-03-29T08:56:35.625Z</time></trkpt><trkpt lat="45.3683219" lon="10.587476"><ele>124.0</ele><time>2026-03-29T08:56:36.618Z</time></trkpt><trkpt lat="45.3682748" lon="10.5873631"><ele>124.00000000000001</ele><time>2026-03-29T08:56:37.613Z</time></trkpt><trkpt lat="45.3682468" lon="10.587263"><ele>124.0</ele><time>2026-03-29T08:56:38.61Z</time></trkpt><trkpt lat="45.3682048" lon="10.587166"><ele>124.0</ele><time>2026-03-29T08:56:39.612Z</time></trkpt><trkpt lat="45.3681485" lon="10.5870672"><ele>124.0</ele><time>2026-03-29T08:56:40.607Z</time></trkpt><trkpt lat="45.368087" lon="10.5869729"><ele>124.00000000000001</ele><time>2026-03-29T08:56:41.61Z</time></trkpt><trkpt lat="45.3680194" lon="10.5868763"><ele>124.0</ele><time>2026-03-29T08:56:42.602Z</time></trkpt><trkpt lat="45.3679655" lon="10.5867579"><ele>123.25</ele><time>2026-03-29T08:56:43.604Z</time></trkpt><trkpt lat="45.367929" lon="10.5866282"><ele>122.5</ele><time>2026-03-29T08:56:44.607Z</time></trkpt><trkpt lat="45.3678715" lon="10.5864772"><ele>121.75</ele><time>2026-03-29T08:56:45.602Z</time></trkpt><trkpt lat="45.3677885" lon="10.5863153"><ele>121.0</ele><time>2026-03-29T08:56:46.61Z</time></trkpt><trkpt lat="45.3676956" lon="10.5861624"><ele>121.0</ele><time>2026-03-29T08:56:47.604Z</time></trkpt><trkpt lat="45.3676097" lon="10.5860157"><ele>121.0</ele><time>2026-03-29T08:56:48.605Z</time></trkpt><trkpt lat="45.3675336" lon="10.5858721"><ele>121.0</ele><time>2026-03-29T08:56:49.609Z</time></trkpt><trkpt lat="45.3674769" lon="10.5857443"><ele>121.0</ele><time>2026-03-29T08:56:50.614Z</time></trkpt><trkpt lat="45.3674179" lon="10.5856105"><ele>121.00000000000001</ele><time>2026-03-29T08:56:51.617Z</time></trkpt><trkpt lat="45.3673585" lon="10.5854761"><ele>121.0</ele><time>2026-03-29T08:56:52.618Z</time></trkpt><trkpt lat="45.3673103" lon="10.5853764"><ele>121.0</ele><time>2026-03-29T08:56:53.616Z</time></trkpt><trkpt lat="45.3672649" lon="10.5852987"><ele>121.0</ele><time>2026-03-29T08:56:54.609Z</time></trkpt><trkpt lat="45.367224" lon="10.5852168"><ele>121.00000000000001</ele><time>2026-03-29T08:56:55.62Z</time></trkpt><trkpt lat="45.3672086" lon="10.5851202"><ele>121.0</ele><time>2026-03-29T08:56:56.611Z</time></trkpt><trkpt lat="45.367215" lon="10.585014"><ele>121.19999999999999</ele><time>2026-03-29T08:56:57.608Z</time></trkpt><trkpt lat="45.3672458" lon="10.5848932"><ele>121.39999999999999</ele><time>2026-03-29T08:56:58.617Z</time></trkpt><trkpt lat="45.3673028" lon="10.5847761"><ele>121.6</ele><time>2026-03-29T08:56:59.61Z</time></trkpt><trkpt lat="45.3673748" lon="10.5846469"><ele>121.8</ele><time>2026-03-29T08:57:00.618Z</time></trkpt><trkpt lat="45.36746" lon="10.5844958"><ele>122.0</ele><time>2026-03-29T08:57:01.62Z</time></trkpt><trkpt lat="45.3675412" lon="10.5843351"><ele>123.25</ele><time>2026-03-29T08:57:02.607Z</time></trkpt><trkpt lat="45.3676211" lon="10.5841844"><ele>124.5</ele><time>2026-03-29T08:57:03.612Z</time></trkpt><trkpt lat="45.3676886" lon="10.5840352"><ele>125.75</ele><time>2026-03-29T08:57:04.615Z</time></trkpt><trkpt lat="45.3677599" lon="10.5838931"><ele>127.0</ele><time>2026-03-29T08:57:05.611Z</time></trkpt><trkpt lat="45.3678398" lon="10.5837452"><ele>127.75</ele><time>2026-03-29T08:57:06.614Z</time></trkpt><trkpt lat="45.3679" lon="10.5835942"><ele>128.5</ele><time>2026-03-29T08:57:07.61Z</time></trkpt><trkpt lat="45.3679236" lon="10.5834386"><ele>129.25</ele><time>2026-03-29T08:57:08.613Z</time></trkpt><trkpt lat="45.3679668" lon="10.5832887"><ele>130.0</ele><time>2026-03-29T08:57:09.612Z</time></trkpt><trkpt lat="45.3679971" lon="10.5831184"><ele>130.0</ele><time>2026-03-29T08:57:10.607Z</time></trkpt><trkpt lat="45.3680189" lon="10.5829329"><ele>130.0</ele><time>2026-03-29T08:57:11.61Z</time></trkpt><trkpt lat="45.3680435" lon="10.5827576"><ele>130.0</ele><time>2026-03-29T08:57:12.607Z</time></trkpt><trkpt lat="45.3680666" lon="10.5825829"><ele>130.0</ele><time>2026-03-29T08:57:13.61Z</time></trkpt><trkpt lat="45.3680954" lon="10.5824328"><ele>126.4</ele><time>2026-03-29T08:57:14.61Z</time></trkpt><trkpt lat="45.368131" lon="10.5822876"><ele>122.8</ele><time>2026-03-29T08:57:15.611Z</time></trkpt><trkpt lat="45.3681649" lon="10.5821445"><ele>119.19999999999999</ele><time>2026-03-29T08:57:16.617Z</time></trkpt><trkpt lat="45.3681995" lon="10.5820259"><ele>115.6</ele><time>2026-03-29T08:57:17.609Z</time></trkpt><trkpt lat="45.3682296" lon="10.581938"><ele>112.0</ele><time>2026-03-29T08:57:18.625Z</time></trkpt><trkpt lat="45.3683005" lon="10.5818527"><ele>112.0</ele><time>2026-03-29T08:57:20.612Z</time></trkpt><trkpt lat="45.3684551" lon="10.5818429"><ele>112.0</ele><time>2026-03-29T08:57:22.623Z</time></trkpt><trkpt lat="45.3685678" lon="10.5818393"><ele>112.0</ele><time>2026-03-29T08:57:23.619Z</time></trkpt><trkpt lat="45.3686688" lon="10.581807"><ele>112.0</ele><time>2026-03-29T08:57:24.612Z</time></trkpt><trkpt lat="45.3687857" lon="10.5817591"><ele>111.75</ele><time>2026-03-29T08:57:25.609Z</time></trkpt><trkpt lat="45.3689024" lon="10.5816841"><ele>111.5</ele><time>2026-03-29T08:57:26.621Z</time></trkpt><trkpt lat="45.3690223" lon="10.581614"><ele>111.25</ele><time>2026-03-29T08:57:27.625Z</time></trkpt><trkpt lat="45.3691363" lon="10.581558"><ele>111.0</ele><time>2026-03-29T08:57:28.619Z</time></trkpt><trkpt lat="45.3692329" lon="10.5815095"><ele>111.0</ele><time>2026-03-29T08:57:29.631Z</time></trkpt><trkpt lat="45.3693122" lon="10.5814588"><ele>111.0</ele><time>2026-03-29T08:57:30.621Z</time></trkpt><trkpt lat="45.3693749" lon="10.5814151"><ele>111.0</ele><time>2026-03-29T08:57:31.624Z</time></trkpt><trkpt lat="45.3694285" lon="10.5813162"><ele>111.0</ele><time>2026-03-29T08:57:33.615Z</time></trkpt><trkpt lat="45.3693873" lon="10.5812232"><ele>111.0</ele><time>2026-03-29T08:57:42.636Z</time></trkpt><trkpt lat="45.369262" lon="10.581207"><ele>111.0</ele><time>2026-03-29T08:57:44.639Z</time></trkpt><trkpt lat="45.3691589" lon="10.5812564"><ele>111.0</ele><time>2026-03-29T08:57:45.633Z</time></trkpt><trkpt lat="45.3690498" lon="10.5813149"><ele>111.0</ele><time>2026-03-29T08:57:46.633Z</time></trkpt><trkpt lat="45.3689317" lon="10.5813699"><ele>111.0</ele><time>2026-03-29T08:57:47.636Z</time></trkpt><trkpt lat="45.3688008" lon="10.5814024"><ele>111.0</ele><time>2026-03-29T08:57:48.631Z</time></trkpt><trkpt lat="45.3686705" lon="10.5814259"><ele>111.25</ele><time>2026-03-29T08:57:49.638Z</time></trkpt><trkpt lat="45.368544" lon="10.581459"><ele>111.5</ele><time>2026-03-29T08:57:50.638Z</time></trkpt><trkpt lat="45.3684123" lon="10.5814793"><ele>111.75</ele><time>2026-03-29T08:57:51.634Z</time></trkpt><trkpt lat="45.3682807" lon="10.581496"><ele>112.0</ele><time>2026-03-29T08:57:52.637Z</time></trkpt><trkpt lat="45.3681498" lon="10.5815251"><ele>116.0</ele><time>2026-03-29T08:57:53.631Z</time></trkpt><trkpt lat="45.3680027" lon="10.5815514"><ele>120.0</ele><time>2026-03-29T08:57:54.629Z</time></trkpt><trkpt lat="45.3678402" lon="10.5815684"><ele>124.0</ele><time>2026-03-29T08:57:55.634Z</time></trkpt><trkpt lat="45.3676677" lon="10.5815645"><ele>124.0</ele><time>2026-03-29T08:57:56.629Z</time></trkpt><trkpt lat="45.3674943" lon="10.5815843"><ele>124.0</ele><time>2026-03-29T08:57:57.627Z</time></trkpt><trkpt lat="45.3673003" lon="10.581605"><ele>124.0</ele><time>2026-03-29T08:57:58.633Z</time></trkpt><trkpt lat="45.3671236" lon="10.5816274"><ele>125.25</ele><time>2026-03-29T08:57:59.625Z</time></trkpt><trkpt lat="45.3669726" lon="10.5816349"><ele>126.5</ele><time>2026-03-29T08:58:00.628Z</time></trkpt><trkpt lat="45.3668256" lon="10.5816306"><ele>127.75</ele><time>2026-03-29T08:58:01.623Z</time></trkpt><trkpt lat="45.3666906" lon="10.5816352"><ele>129.0</ele><time>2026-03-29T08:58:02.625Z</time></trkpt><trkpt lat="45.3665548" lon="10.5816476"><ele>129.0</ele><time>2026-03-29T08:58:03.623Z</time></trkpt><trkpt lat="45.3664169" lon="10.5816512"><ele>129.0</ele><time>2026-03-29T08:58:04.627Z</time></trkpt><trkpt lat="45.3663079" lon="10.5816416"><ele>129.0</ele><time>2026-03-29T08:58:05.624Z</time></trkpt><trkpt lat="45.3662169" lon="10.5816402"><ele>129.0</ele><time>2026-03-29T08:58:06.63Z</time></trkpt><trkpt lat="45.3661177" lon="10.5816242"><ele>129.0</ele><time>2026-03-29T08:58:07.629Z</time></trkpt><trkpt lat="45.3660282" lon="10.5815882"><ele>129.6</ele><time>2026-03-29T08:58:08.626Z</time></trkpt><trkpt lat="45.3659386" lon="10.5815475"><ele>130.2</ele><time>2026-03-29T08:58:09.644Z</time></trkpt><trkpt lat="45.365849" lon="10.5815033"><ele>130.79999999999998</ele><time>2026-03-29T08:58:10.636Z</time></trkpt><trkpt lat="45.365755" lon="10.58148"><ele>131.4</ele><time>2026-03-29T08:58:11.631Z</time></trkpt><trkpt lat="45.365668" lon="10.5814649"><ele>132.0</ele><time>2026-03-29T08:58:12.627Z</time></trkpt><trkpt lat="45.3655694" lon="10.5814841"><ele>133.25</ele><time>2026-03-29T08:58:13.626Z</time></trkpt><trkpt lat="45.365461" lon="10.5815399"><ele>134.5</ele><time>2026-03-29T08:58:14.628Z</time></trkpt><trkpt lat="45.3653361" lon="10.5816187"><ele>135.75</ele><time>2026-03-29T08:58:15.633Z</time></trkpt><trkpt lat="45.3652078" lon="10.5816948"><ele>137.0</ele><time>2026-03-29T08:58:16.633Z</time></trkpt><trkpt lat="45.365071" lon="10.5817599"><ele>137.0</ele><time>2026-03-29T08:58:17.627Z</time></trkpt><trkpt lat="45.3649134" lon="10.5817789"><ele>137.0</ele><time>2026-03-29T08:58:18.618Z</time></trkpt><trkpt lat="45.3647617" lon="10.5817904"><ele>137.0</ele><time>2026-03-29T08:58:19.638Z</time></trkpt><trkpt lat="45.3645969" lon="10.581811"><ele>138.66666666666666</ele><time>2026-03-29T08:58:20.627Z</time></trkpt><trkpt lat="45.3644336" lon="10.5818248"><ele>140.33333333333334</ele><time>2026-03-29T08:58:21.626Z</time></trkpt><trkpt lat="45.364258" lon="10.5818245"><ele>142.0</ele><time>2026-03-29T08:58:22.636Z</time></trkpt><trkpt lat="45.3640986" lon="10.5818237"><ele>142.0</ele><time>2026-03-29T08:58:23.636Z</time></trkpt><trkpt lat="45.3639517" lon="10.5818243"><ele>142.0</ele><time>2026-03-29T08:58:24.635Z</time></trkpt><trkpt lat="45.3637896" lon="10.581797"><ele>142.0</ele><time>2026-03-29T08:58:25.629Z</time></trkpt><trkpt lat="45.3636247" lon="10.581756"><ele>142.66666666666669</ele><time>2026-03-29T08:58:26.629Z</time></trkpt><trkpt lat="45.3634569" lon="10.58171"><ele>143.33333333333334</ele><time>2026-03-29T08:58:27.629Z</time></trkpt><trkpt lat="45.3633012" lon="10.5816558"><ele>144.0</ele><time>2026-03-29T08:58:28.63Z</time></trkpt><trkpt lat="45.3631599" lon="10.5816041"><ele>144.66666666666666</ele><time>2026-03-29T08:58:29.639Z</time></trkpt><trkpt lat="45.3630261" lon="10.5815356"><ele>145.33333333333331</ele><time>2026-03-29T08:58:30.625Z</time></trkpt><trkpt lat="45.3628859" lon="10.5814692"><ele>146.0</ele><time>2026-03-29T08:58:31.639Z</time></trkpt><trkpt lat="45.3627265" lon="10.5814015"><ele>146.0</ele><time>2026-03-29T08:58:32.627Z</time></trkpt><trkpt lat="45.3625718" lon="10.5813151"><ele>146.0</ele><time>2026-03-29T08:58:33.626Z</time></trkpt><trkpt lat="45.3624299" lon="10.5812197"><ele>146.0</ele><time>2026-03-29T08:58:34.632Z</time></trkpt><trkpt lat="45.3622859" lon="10.5811212"><ele>148.0</ele><time>2026-03-29T08:58:35.631Z</time></trkpt><trkpt lat="45.3621583" lon="10.5809988"><ele>150.0</ele><time>2026-03-29T08:58:36.632Z</time></trkpt><trkpt lat="45.3620258" lon="10.5808908"><ele>152.0</ele><time>2026-03-29T08:58:37.63Z</time></trkpt><trkpt lat="45.3619103" lon="10.5807685"><ele>152.0</ele><time>2026-03-29T08:58:38.623Z</time></trkpt><trkpt lat="45.3617942" lon="10.5806594"><ele>152.0</ele><time>2026-03-29T08:58:39.625Z</time></trkpt><trkpt lat="45.3616978" lon="10.5805731"><ele>152.0</ele><time>2026-03-29T08:58:40.635Z</time></trkpt><trkpt lat="45.3616156" lon="10.580481"><ele>152.0</ele><time>2026-03-29T08:58:41.619Z</time></trkpt><trkpt lat="45.361551" lon="10.5804046"><ele>152.0</ele><time>2026-03-29T08:58:42.631Z</time></trkpt><trkpt lat="45.3614516" lon="10.5803201"><ele>152.0</ele><time>2026-03-29T08:58:44.618Z</time></trkpt><trkpt lat="45.3613718" lon="10.5802995"><ele>152.0</ele><time>2026-03-29T08:58:46.624Z</time></trkpt><trkpt lat="45.3613327" lon="10.5803993"><ele>152.0</ele><time>2026-03-29T08:58:49.626Z</time></trkpt><trkpt lat="45.3613976" lon="10.5805016"><ele>152.0</ele><time>2026-03-29T08:58:52.62Z</time></trkpt><trkpt lat="45.3614952" lon="10.5806366"><ele>152.0</ele><time>2026-03-29T08:58:54.618Z</time></trkpt><trkpt lat="45.3615586" lon="10.5807445"><ele>152.0</ele><time>2026-03-29T08:58:55.611Z</time></trkpt><trkpt lat="45.3616649" lon="10.5808666"><ele>152.0</ele><time>2026-03-29T08:58:56.619Z</time></trkpt><trkpt lat="45.3617927" lon="10.5809853"><ele>152.0</ele><time>2026-03-29T08:58:57.609Z</time></trkpt><trkpt lat="45.3619363" lon="10.5811005"><ele>153.0</ele><time>2026-03-29T08:58:58.614Z</time></trkpt><trkpt lat="45.3621009" lon="10.5812426"><ele>154.0</ele><time>2026-03-29T08:58:59.602Z</time></trkpt><trkpt lat="45.3621463" lon="10.581316"><ele>155.0</ele><time>2026-03-29T08:59:00.602Z</time></trkpt><trkpt lat="45.3622057" lon="10.5814142"><ele>156.0</ele><time>2026-03-29T08:59:01.593Z</time></trkpt><trkpt lat="45.3622741" lon="10.5815519"><ele>153.5</ele><time>2026-03-29T08:59:02.604Z</time></trkpt><trkpt lat="45.3622998" lon="10.5817256"><ele>151.0</ele><time>2026-03-29T08:59:03.606Z</time></trkpt><trkpt lat="45.3622851" lon="10.5819116"><ele>148.5</ele><time>2026-03-29T08:59:04.606Z</time></trkpt><trkpt lat="45.3622589" lon="10.5821039"><ele>146.0</ele><time>2026-03-29T08:59:05.607Z</time></trkpt><trkpt lat="45.3622428" lon="10.5823006"><ele>145.75</ele><time>2026-03-29T08:59:06.609Z</time></trkpt><trkpt lat="45.3622387" lon="10.5825054"><ele>145.5</ele><time>2026-03-29T08:59:07.608Z</time></trkpt><trkpt lat="45.3622421" lon="10.5826822"><ele>145.25</ele><time>2026-03-29T08:59:08.608Z</time></trkpt><trkpt lat="45.3622638" lon="10.5828561"><ele>145.0</ele><time>2026-03-29T08:59:09.608Z</time></trkpt><trkpt lat="45.3622796" lon="10.583034"><ele>146.25</ele><time>2026-03-29T08:59:10.609Z</time></trkpt><trkpt lat="45.3623138" lon="10.5832159"><ele>147.5</ele><time>2026-03-29T08:59:11.608Z</time></trkpt><trkpt lat="45.3623421" lon="10.5834019"><ele>148.75</ele><time>2026-03-29T08:59:12.611Z</time></trkpt><trkpt lat="45.3623628" lon="10.5835734"><ele>150.0</ele><time>2026-03-29T08:59:13.603Z</time></trkpt><trkpt lat="45.3624017" lon="10.5837289"><ele>150.6</ele><time>2026-03-29T08:59:14.62Z</time></trkpt><trkpt lat="45.3624182" lon="10.5838815"><ele>151.2</ele><time>2026-03-29T08:59:15.603Z</time></trkpt><trkpt lat="45.3624337" lon="10.5840248"><ele>151.8</ele><time>2026-03-29T08:59:16.604Z</time></trkpt><trkpt lat="45.3624429" lon="10.5841554"><ele>152.4</ele><time>2026-03-29T08:59:17.603Z</time></trkpt><trkpt lat="45.3624485" lon="10.5842709"><ele>153.0</ele><time>2026-03-29T08:59:18.612Z</time></trkpt><trkpt lat="45.3624467" lon="10.5843861"><ele>153.0</ele><time>2026-03-29T08:59:19.61Z</time></trkpt><trkpt lat="45.3624521" lon="10.5844955"><ele>153.0</ele><time>2026-03-29T08:59:20.604Z</time></trkpt><trkpt lat="45.3624775" lon="10.5846111"><ele>153.0</ele><time>2026-03-29T08:59:21.609Z</time></trkpt><trkpt lat="45.3625469" lon="10.5847113"><ele>153.0</ele><time>2026-03-29T08:59:22.621Z</time></trkpt><trkpt lat="45.3626056" lon="10.5848094"><ele>153.0</ele><time>2026-03-29T08:59:23.617Z</time></trkpt><trkpt lat="45.362663" lon="10.5849208"><ele>153.0</ele><time>2026-03-29T08:59:24.626Z</time></trkpt><trkpt lat="45.362681" lon="10.5850372"><ele>153.0</ele><time>2026-03-29T08:59:25.62Z</time></trkpt><trkpt lat="45.3626764" lon="10.5851653"><ele>153.0</ele><time>2026-03-29T08:59:26.622Z</time></trkpt><trkpt lat="45.3626413" lon="10.585307"><ele>153.0</ele><time>2026-03-29T08:59:27.613Z</time></trkpt><trkpt lat="45.362579" lon="10.5854382"><ele>153.0</ele><time>2026-03-29T08:59:28.617Z</time></trkpt><trkpt lat="45.3625123" lon="10.5855642"><ele>153.0</ele><time>2026-03-29T08:59:29.61Z</time></trkpt><trkpt lat="45.3624756" lon="10.5856886"><ele>153.0</ele><time>2026-03-29T08:59:30.609Z</time></trkpt><trkpt lat="45.3624889" lon="10.5858111"><ele>153.0</ele><time>2026-03-29T08:59:31.609Z</time></trkpt><trkpt lat="45.3625155" lon="10.5859212"><ele>153.0</ele><time>2026-03-29T08:59:32.614Z</time></trkpt><trkpt lat="45.3625635" lon="10.5860284"><ele>153.0</ele><time>2026-03-29T08:59:33.619Z</time></trkpt><trkpt lat="45.3625755" lon="10.5861458"><ele>153.0</ele><time>2026-03-29T08:59:34.621Z</time></trkpt><trkpt lat="45.362582" lon="10.5862831"><ele>153.0</ele><time>2026-03-29T08:59:35.616Z</time></trkpt><trkpt lat="45.3625848" lon="10.5864159"><ele>153.4</ele><time>2026-03-29T08:59:36.616Z</time></trkpt><trkpt lat="45.3625911" lon="10.5865368"><ele>153.8</ele><time>2026-03-29T08:59:37.618Z</time></trkpt><trkpt lat="45.3626005" lon="10.5866312"><ele>154.2</ele><time>2026-03-29T08:59:38.614Z</time></trkpt><trkpt lat="45.3626543" lon="10.5867385"><ele>154.6</ele><time>2026-03-29T08:59:40.612Z</time></trkpt><trkpt lat="45.3627346" lon="10.5867861"><ele>155.0</ele><time>2026-03-29T08:59:42.618Z</time></trkpt><trkpt lat="45.3628514" lon="10.5868171"><ele>155.0</ele><time>2026-03-29T08:59:44.608Z</time></trkpt><trkpt lat="45.3629201" lon="10.5868212"><ele>155.0</ele><time>2026-03-29T08:59:45.599Z</time></trkpt><trkpt lat="45.3630177" lon="10.586814"><ele>155.0</ele><time>2026-03-29T08:59:46.592Z</time></trkpt><trkpt lat="45.363125" lon="10.5867876"><ele>155.0</ele><time>2026-03-29T08:59:47.597Z</time></trkpt><trkpt lat="45.3632307" lon="10.5867848"><ele>155.0</ele><time>2026-03-29T08:59:48.594Z</time></trkpt><trkpt lat="45.3633178" lon="10.5867908"><ele>154.33333333333331</ele><time>2026-03-29T08:59:49.591Z</time></trkpt><trkpt lat="45.3633939" lon="10.5867929"><ele>153.66666666666666</ele><time>2026-03-29T08:59:50.588Z</time></trkpt><trkpt lat="45.3634573" lon="10.5867993"><ele>153.0</ele><time>2026-03-29T08:59:51.586Z</time></trkpt><trkpt lat="45.3635604" lon="10.5868855"><ele>152.33333333333334</ele><time>2026-03-29T08:59:53.602Z</time></trkpt><trkpt lat="45.3636076" lon="10.5869757"><ele>151.66666666666669</ele><time>2026-03-29T08:59:54.598Z</time></trkpt><trkpt lat="45.3636386" lon="10.587087"><ele>151.0</ele><time>2026-03-29T08:59:55.614Z</time></trkpt><trkpt lat="45.3636606" lon="10.5872021"><ele>151.0</ele><time>2026-03-29T08:59:56.601Z</time></trkpt><trkpt lat="45.3636607" lon="10.5873132"><ele>151.0</ele><time>2026-03-29T08:59:57.608Z</time></trkpt><trkpt lat="45.3636426" lon="10.587426"><ele>151.0</ele><time>2026-03-29T08:59:58.613Z</time></trkpt><trkpt lat="45.363627" lon="10.5875325"><ele>151.0</ele><time>2026-03-29T08:59:59.614Z</time></trkpt><trkpt lat="45.3636634" lon="10.587717"><ele>151.0</ele><time>2026-03-29T09:00:01.619Z</time></trkpt><trkpt lat="45.3637237" lon="10.587807"><ele>150.5</ele><time>2026-03-29T09:00:02.609Z</time></trkpt><trkpt lat="45.3638089" lon="10.5878874"><ele>150.0</ele><time>2026-03-29T09:00:03.604Z</time></trkpt><trkpt lat="45.3639045" lon="10.5879699"><ele>149.5</ele><time>2026-03-29T09:00:04.624Z</time></trkpt><trkpt lat="45.364025" lon="10.5880349"><ele>149.0</ele><time>2026-03-29T09:00:05.617Z</time></trkpt><trkpt lat="45.3641539" lon="10.588079"><ele>146.25</ele><time>2026-03-29T09:00:06.626Z</time></trkpt><trkpt lat="45.3642753" lon="10.5881225"><ele>143.5</ele><time>2026-03-29T09:00:07.615Z</time></trkpt><trkpt lat="45.3643889" lon="10.5881764"><ele>140.75</ele><time>2026-03-29T09:00:08.623Z</time></trkpt><trkpt lat="45.3645117" lon="10.5882304"><ele>138.0</ele><time>2026-03-29T09:00:09.626Z</time></trkpt><trkpt lat="45.3646356" lon="10.5882894"><ele>138.5</ele><time>2026-03-29T09:00:10.62Z</time></trkpt><trkpt lat="45.3647604" lon="10.5883549"><ele>139.0</ele><time>2026-03-29T09:00:11.629Z</time></trkpt><trkpt lat="45.3648748" lon="10.5884075"><ele>139.5</ele><time>2026-03-29T09:00:12.623Z</time></trkpt><trkpt lat="45.3649817" lon="10.5884417"><ele>140.0</ele><time>2026-03-29T09:00:13.62Z</time></trkpt><trkpt lat="45.3650977" lon="10.5884589"><ele>140.0</ele><time>2026-03-29T09:00:14.625Z</time></trkpt><trkpt lat="45.3652318" lon="10.5884558"><ele>140.0</ele><time>2026-03-29T09:00:15.617Z</time></trkpt><trkpt lat="45.3653697" lon="10.5884344"><ele>140.0</ele><time>2026-03-29T09:00:16.62Z</time></trkpt><trkpt lat="45.3654989" lon="10.5884014"><ele>140.0</ele><time>2026-03-29T09:00:17.625Z</time></trkpt><trkpt lat="45.3656143" lon="10.5883826"><ele>140.6</ele><time>2026-03-29T09:00:18.625Z</time></trkpt><trkpt lat="45.3657115" lon="10.5883715"><ele>141.2</ele><time>2026-03-29T09:00:19.618Z</time></trkpt><trkpt lat="45.3658116" lon="10.5883775"><ele>141.8</ele><time>2026-03-29T09:00:20.622Z</time></trkpt><trkpt lat="45.3658969" lon="10.5884118"><ele>142.4</ele><time>2026-03-29T09:00:21.622Z</time></trkpt><trkpt lat="45.3659747" lon="10.588462"><ele>143.0</ele><time>2026-03-29T09:00:22.628Z</time></trkpt><trkpt lat="45.3660881" lon="10.5885108"><ele>143.0</ele><time>2026-03-29T09:00:24.637Z</time></trkpt><trkpt lat="45.3661697" lon="10.5885611"><ele>143.0</ele><time>2026-03-29T09:00:26.628Z</time></trkpt><trkpt lat="45.3661722" lon="10.5886571"><ele>143.0</ele><time>2026-03-29T09:00:28.632Z</time></trkpt><trkpt lat="45.3661447" lon="10.5887466"><ele>143.0</ele><time>2026-03-29T09:00:29.62Z</time></trkpt><trkpt lat="45.3661005" lon="10.5888565"><ele>143.0</ele><time>2026-03-29T09:00:30.621Z</time></trkpt><trkpt lat="45.3660527" lon="10.5889794"><ele>143.0</ele><time>2026-03-29T09:00:31.629Z</time></trkpt><trkpt lat="45.3660113" lon="10.5891076"><ele>143.25</ele><time>2026-03-29T09:00:32.614Z</time></trkpt><trkpt lat="45.3659733" lon="10.5892602"><ele>143.5</ele><time>2026-03-29T09:00:33.614Z</time></trkpt><trkpt lat="45.3659418" lon="10.5894271"><ele>143.75</ele><time>2026-03-29T09:00:34.618Z</time></trkpt><trkpt lat="45.3659075" lon="10.5896085"><ele>144.0</ele><time>2026-03-29T09:00:35.617Z</time></trkpt><trkpt lat="45.3658669" lon="10.5898036"><ele>144.0</ele><time>2026-03-29T09:00:36.624Z</time></trkpt><trkpt lat="45.365828" lon="10.5899978"><ele>144.0</ele><time>2026-03-29T09:00:37.615Z</time></trkpt><trkpt lat="45.3658057" lon="10.590188"><ele>144.0</ele><time>2026-03-29T09:00:38.62Z</time></trkpt><trkpt lat="45.3657839" lon="10.5903778"><ele>144.0</ele><time>2026-03-29T09:00:39.633Z</time></trkpt><trkpt lat="45.3657639" lon="10.5905626"><ele>144.0</ele><time>2026-03-29T09:00:40.63Z</time></trkpt><trkpt lat="45.3657535" lon="10.5907461"><ele>144.0</ele><time>2026-03-29T09:00:41.631Z</time></trkpt><trkpt lat="45.3657241" lon="10.5909407"><ele>144.0</ele><time>2026-03-29T09:00:42.625Z</time></trkpt><trkpt lat="45.3656946" lon="10.591108"><ele>144.0</ele><time>2026-03-29T09:00:43.625Z</time></trkpt><trkpt lat="45.3656673" lon="10.5912638"><ele>144.0</ele><time>2026-03-29T09:00:44.628Z</time></trkpt><trkpt lat="45.3656507" lon="10.5914078"><ele>144.0</ele><time>2026-03-29T09:00:45.628Z</time></trkpt><trkpt lat="45.3656301" lon="10.5915428"><ele>144.0</ele><time>2026-03-29T09:00:46.62Z</time></trkpt><trkpt lat="45.365612" lon="10.5916558"><ele>144.0</ele><time>2026-03-29T09:00:47.626Z</time></trkpt><trkpt lat="45.3655903" lon="10.5917908"><ele>144.0</ele><time>2026-03-29T09:00:48.625Z</time></trkpt><trkpt lat="45.3655753" lon="10.5919542"><ele>144.0</ele><time>2026-03-29T09:00:49.627Z</time></trkpt><trkpt lat="45.3655574" lon="10.5921341"><ele>144.0</ele><time>2026-03-29T09:00:50.626Z</time></trkpt><trkpt lat="45.365556" lon="10.5923083"><ele>144.0</ele><time>2026-03-29T09:00:51.626Z</time></trkpt><trkpt lat="45.3655575" lon="10.592471"><ele>144.0</ele><time>2026-03-29T09:00:52.628Z</time></trkpt><trkpt lat="45.3655571" lon="10.5925973"><ele>144.0</ele><time>2026-03-29T09:00:53.627Z</time></trkpt><trkpt lat="45.3655549" lon="10.592707"><ele>144.0</ele><time>2026-03-29T09:00:54.622Z</time></trkpt><trkpt lat="45.3655504" lon="10.5928057"><ele>144.0</ele><time>2026-03-29T09:00:55.621Z</time></trkpt><trkpt lat="45.3655537" lon="10.5929345"><ele>144.0</ele><time>2026-03-29T09:00:57.631Z</time></trkpt><trkpt lat="45.3656253" lon="10.5929804"><ele>144.0</ele><time>2026-03-29T09:01:00.632Z</time></trkpt><trkpt lat="45.3656899" lon="10.5929471"><ele>144.0</ele><time>2026-03-29T09:01:02.617Z</time></trkpt><trkpt lat="45.365731" lon="10.5928192"><ele>144.0</ele><time>2026-03-29T09:01:04.629Z</time></trkpt><trkpt lat="45.3657441" lon="10.5927036"><ele>144.0</ele><time>2026-03-29T09:01:05.619Z</time></trkpt><trkpt lat="45.3657528" lon="10.5925669"><ele>144.0</ele><time>2026-03-29T09:01:06.608Z</time></trkpt><trkpt lat="45.3657618" lon="10.5923771"><ele>144.0</ele><time>2026-03-29T09:01:07.618Z</time></trkpt><trkpt lat="45.3657797" lon="10.5921658"><ele>144.0</ele><time>2026-03-29T09:01:08.624Z</time></trkpt><trkpt lat="45.3658086" lon="10.5919381"><ele>144.0</ele><time>2026-03-29T09:01:09.624Z</time></trkpt><trkpt lat="45.3658376" lon="10.5916626"><ele>144.0</ele><time>2026-03-29T09:01:10.628Z</time></trkpt><trkpt lat="45.3658646" lon="10.5914167"><ele>144.0</ele><time>2026-03-29T09:01:11.62Z</time></trkpt><trkpt lat="45.3658922" lon="10.5912501"><ele>144.0</ele><time>2026-03-29T09:01:12.621Z</time></trkpt><trkpt lat="45.3659239" lon="10.5910626"><ele>144.0</ele><time>2026-03-29T09:01:13.626Z</time></trkpt><trkpt lat="45.3659561" lon="10.5908791"><ele>144.0</ele><time>2026-03-29T09:01:14.622Z</time></trkpt><trkpt lat="45.3659863" lon="10.5907037"><ele>144.0</ele><time>2026-03-29T09:01:15.622Z</time></trkpt><trkpt lat="45.3660149" lon="10.5905685"><ele>144.0</ele><time>2026-03-29T09:01:16.625Z</time></trkpt><trkpt lat="45.3660351" lon="10.5904403"><ele>144.0</ele><time>2026-03-29T09:01:17.618Z</time></trkpt><trkpt lat="45.3661158" lon="10.5902842"><ele>144.0</ele><time>2026-03-29T09:01:19.62Z</time></trkpt><trkpt lat="45.3661656" lon="10.5902262"><ele>144.0</ele><time>2026-03-29T09:01:20.63Z</time></trkpt><trkpt lat="45.3662323" lon="10.5901055"><ele>144.0</ele><time>2026-03-29T09:01:22.621Z</time></trkpt><trkpt lat="45.3662541" lon="10.5900123"><ele>144.0</ele><time>2026-03-29T09:01:23.627Z</time></trkpt><trkpt lat="45.3662745" lon="10.5899225"><ele>144.0</ele><time>2026-03-29T09:01:24.628Z</time></trkpt><trkpt lat="45.3663728" lon="10.5898704"><ele>144.0</ele><time>2026-03-29T09:01:26.63Z</time></trkpt><trkpt lat="45.3664533" lon="10.5898984"><ele>144.0</ele><time>2026-03-29T09:01:27.609Z</time></trkpt><trkpt lat="45.3665482" lon="10.5899311"><ele>144.0</ele><time>2026-03-29T09:01:28.629Z</time></trkpt><trkpt lat="45.3666661" lon="10.5899551"><ele>144.75</ele><time>2026-03-29T09:01:29.621Z</time></trkpt><trkpt lat="45.3667874" lon="10.5899727"><ele>145.5</ele><time>2026-03-29T09:01:30.629Z</time></trkpt><trkpt lat="45.3669122" lon="10.5900168"><ele>146.25</ele><time>2026-03-29T09:01:31.615Z</time></trkpt><trkpt lat="45.3670342" lon="10.5900678"><ele>147.0</ele><time>2026-03-29T09:01:32.622Z</time></trkpt><trkpt lat="45.3671553" lon="10.5901173"><ele>147.4</ele><time>2026-03-29T09:01:33.624Z</time></trkpt><trkpt lat="45.367278" lon="10.590156"><ele>147.79999999999998</ele><time>2026-03-29T09:01:34.612Z</time></trkpt><trkpt lat="45.3673796" lon="10.5901759"><ele>148.2</ele><time>2026-03-29T09:01:35.622Z</time></trkpt><trkpt lat="45.3674661" lon="10.5901898"><ele>148.6</ele><time>2026-03-29T09:01:36.613Z</time></trkpt><trkpt lat="45.3675825" lon="10.5902173"><ele>149.0</ele><time>2026-03-29T09:01:38.614Z</time></trkpt><trkpt lat="45.3676433" lon="10.5902463"><ele>149.5</ele><time>2026-03-29T09:01:39.615Z</time></trkpt><trkpt lat="45.3677319" lon="10.5903822"><ele>150.0</ele><time>2026-03-29T09:01:41.622Z</time></trkpt><trkpt lat="45.3677748" lon="10.5904639"><ele>150.5</ele><time>2026-03-29T09:01:42.615Z</time></trkpt><trkpt lat="45.367824" lon="10.5905208"><ele>151.0</ele><time>2026-03-29T09:01:43.615Z</time></trkpt><trkpt lat="45.3678855" lon="10.5905498"><ele>151.5</ele><time>2026-03-29T09:01:44.619Z</time></trkpt><trkpt lat="45.3679596" lon="10.5905505"><ele>152.0</ele><time>2026-03-29T09:01:45.615Z</time></trkpt><trkpt lat="45.3680648" lon="10.5905107"><ele>150.79999999999998</ele><time>2026-03-29T09:01:46.62Z</time></trkpt><trkpt lat="45.368162" lon="10.5904752"><ele>149.6</ele><time>2026-03-29T09:01:47.622Z</time></trkpt><trkpt lat="45.3682565" lon="10.5904775"><ele>148.39999999999998</ele><time>2026-03-29T09:01:48.621Z</time></trkpt><trkpt lat="45.3683427" lon="10.5904922"><ele>147.2</ele><time>2026-03-29T09:01:49.612Z</time></trkpt><trkpt lat="45.368445" lon="10.5905262"><ele>146.0</ele><time>2026-03-29T09:01:51.618Z</time></trkpt><trkpt lat="45.3684675" lon="10.5906421"><ele>146.0</ele><time>2026-03-29T09:01:54.629Z</time></trkpt><trkpt lat="45.3684457" lon="10.5907323"><ele>146.0</ele><time>2026-03-29T09:01:55.634Z</time></trkpt><trkpt lat="45.3684104" lon="10.5908464"><ele>146.0</ele><time>2026-03-29T09:01:56.62Z</time></trkpt><trkpt lat="45.3683869" lon="10.5909529"><ele>146.0</ele><time>2026-03-29T09:01:57.629Z</time></trkpt><trkpt lat="45.3683684" lon="10.5910404"><ele>146.0</ele><time>2026-03-29T09:01:58.624Z</time></trkpt><trkpt lat="45.3683438" lon="10.591205"><ele>146.0</ele><time>2026-03-29T09:02:00.617Z</time></trkpt><trkpt lat="45.3683266" lon="10.5913306"><ele>146.25</ele><time>2026-03-29T09:02:01.62Z</time></trkpt><trkpt lat="45.3683021" lon="10.591503"><ele>146.5</ele><time>2026-03-29T09:02:02.62Z</time></trkpt><trkpt lat="45.3682703" lon="10.5916948"><ele>146.75</ele><time>2026-03-29T09:02:03.611Z</time></trkpt><trkpt lat="45.3682419" lon="10.5918929"><ele>147.0</ele><time>2026-03-29T09:02:04.626Z</time></trkpt><trkpt lat="45.3682214" lon="10.5920982"><ele>147.5</ele><time>2026-03-29T09:02:05.62Z</time></trkpt><trkpt lat="45.3681822" lon="10.5922979"><ele>148.0</ele><time>2026-03-29T09:02:06.616Z</time></trkpt><trkpt lat="45.3681461" lon="10.5924624"><ele>148.5</ele><time>2026-03-29T09:02:07.619Z</time></trkpt><trkpt lat="45.3681201" lon="10.5926203"><ele>149.0</ele><time>2026-03-29T09:02:08.616Z</time></trkpt><trkpt lat="45.3680944" lon="10.5927839"><ele>148.66666666666666</ele><time>2026-03-29T09:02:09.624Z</time></trkpt><trkpt lat="45.3680838" lon="10.5929121"><ele>148.33333333333331</ele><time>2026-03-29T09:02:10.609Z</time></trkpt><trkpt lat="45.3680661" lon="10.5930167"><ele>148.0</ele><time>2026-03-29T09:02:11.607Z</time></trkpt><trkpt lat="45.3680783" lon="10.5931546"><ele>147.66666666666666</ele><time>2026-03-29T09:02:13.604Z</time></trkpt><trkpt lat="45.3681549" lon="10.5932537"><ele>147.33333333333334</ele><time>2026-03-29T09:02:15.603Z</time></trkpt><trkpt lat="45.368218" lon="10.5932721"><ele>147.0</ele><time>2026-03-29T09:02:16.603Z</time></trkpt><trkpt lat="45.3682913" lon="10.593265"><ele>147.0</ele><time>2026-03-29T09:02:17.608Z</time></trkpt><trkpt lat="45.3683734" lon="10.5932476"><ele>147.0</ele><time>2026-03-29T09:02:18.604Z</time></trkpt><trkpt lat="45.3684484" lon="10.5932147"><ele>147.0</ele><time>2026-03-29T09:02:19.605Z</time></trkpt><trkpt lat="45.3685204" lon="10.5932153"><ele>147.0</ele><time>2026-03-29T09:02:20.595Z</time></trkpt><trkpt lat="45.3685902" lon="10.5932721"><ele>147.0</ele><time>2026-03-29T09:02:21.605Z</time></trkpt><trkpt lat="45.3686602" lon="10.5933836"><ele>147.0</ele><time>2026-03-29T09:02:22.599Z</time></trkpt><trkpt lat="45.3687176" lon="10.5935151"><ele>147.5</ele><time>2026-03-29T09:02:23.602Z</time></trkpt><trkpt lat="45.3687674" lon="10.5936819"><ele>148.0</ele><time>2026-03-29T09:02:24.602Z</time></trkpt><trkpt lat="45.3688314" lon="10.5938405"><ele>148.5</ele><time>2026-03-29T09:02:25.601Z</time></trkpt><trkpt lat="45.3688983" lon="10.5939862"><ele>149.0</ele><time>2026-03-29T09:02:26.596Z</time></trkpt><trkpt lat="45.3689496" lon="10.5941115"><ele>146.0</ele><time>2026-03-29T09:02:27.605Z</time></trkpt><trkpt lat="45.3689914" lon="10.5942374"><ele>143.0</ele><time>2026-03-29T09:02:28.613Z</time></trkpt><trkpt lat="45.3690102" lon="10.5943749"><ele>140.0</ele><time>2026-03-29T09:02:29.614Z</time></trkpt><trkpt lat="45.3690134" lon="10.5945251"><ele>137.0</ele><time>2026-03-29T09:02:30.609Z</time></trkpt><trkpt lat="45.3690031" lon="10.5946969"><ele>134.0</ele><time>2026-03-29T09:02:31.609Z</time></trkpt><trkpt lat="45.3689786" lon="10.5948815"><ele>133.5</ele><time>2026-03-29T09:02:32.619Z</time></trkpt><trkpt lat="45.3689475" lon="10.5950612"><ele>133.0</ele><time>2026-03-29T09:02:33.614Z</time></trkpt><trkpt lat="45.3689158" lon="10.5952301"><ele>132.5</ele><time>2026-03-29T09:02:34.626Z</time></trkpt><trkpt lat="45.368903" lon="10.5953895"><ele>132.0</ele><time>2026-03-29T09:02:35.61Z</time></trkpt><trkpt lat="45.368896" lon="10.5955414"><ele>132.0</ele><time>2026-03-29T09:02:36.613Z</time></trkpt><trkpt lat="45.3689121" lon="10.5956828"><ele>132.0</ele><time>2026-03-29T09:02:37.614Z</time></trkpt><trkpt lat="45.3689495" lon="10.5958084"><ele>132.0</ele><time>2026-03-29T09:02:38.605Z</time></trkpt><trkpt lat="45.369027" lon="10.5959172"><ele>132.0</ele><time>2026-03-29T09:02:39.626Z</time></trkpt><trkpt lat="45.3691047" lon="10.596037"><ele>132.0</ele><time>2026-03-29T09:02:40.621Z</time></trkpt><trkpt lat="45.3691666" lon="10.5961425"><ele>131.33333333333334</ele><time>2026-03-29T09:02:41.609Z</time></trkpt><trkpt lat="45.3692144" lon="10.5962338"><ele>130.66666666666666</ele><time>2026-03-29T09:02:42.614Z</time></trkpt><trkpt lat="45.3692758" lon="10.5963365"><ele>130.0</ele><time>2026-03-29T09:02:44.614Z</time></trkpt><trkpt lat="45.3692768" lon="10.5964305"><ele>129.33333333333331</ele><time>2026-03-29T09:02:46.617Z</time></trkpt><trkpt lat="45.3692028" lon="10.5965577"><ele>128.66666666666666</ele><time>2026-03-29T09:02:48.626Z</time></trkpt><trkpt lat="45.3691407" lon="10.5966148"><ele>128.0</ele><time>2026-03-29T09:02:49.618Z</time></trkpt><trkpt lat="45.3690631" lon="10.5966658"><ele>128.0</ele><time>2026-03-29T09:02:50.634Z</time></trkpt><trkpt lat="45.3689676" lon="10.5967094"><ele>128.0</ele><time>2026-03-29T09:02:51.617Z</time></trkpt><trkpt lat="45.368871" lon="10.5967972"><ele>128.0</ele><time>2026-03-29T09:02:52.624Z</time></trkpt><trkpt lat="45.3687798" lon="10.5969091"><ele>128.0</ele><time>2026-03-29T09:02:53.628Z</time></trkpt><trkpt lat="45.3687018" lon="10.5970091"><ele>128.0</ele><time>2026-03-29T09:02:54.624Z</time></trkpt><trkpt lat="45.3686101" lon="10.5970868"><ele>131.25</ele><time>2026-03-29T09:02:55.63Z</time></trkpt><trkpt lat="45.3685014" lon="10.5971186"><ele>134.5</ele><time>2026-03-29T09:02:56.615Z</time></trkpt><trkpt lat="45.3683951" lon="10.5971426"><ele>137.75</ele><time>2026-03-29T09:02:57.617Z</time></trkpt><trkpt lat="45.3682879" lon="10.5970868"><ele>141.0</ele><time>2026-03-29T09:02:58.622Z</time></trkpt><trkpt lat="45.3681781" lon="10.5969641"><ele>141.0</ele><time>2026-03-29T09:02:59.624Z</time></trkpt><trkpt lat="45.3680634" lon="10.596837"><ele>141.0</ele><time>2026-03-29T09:03:00.612Z</time></trkpt><trkpt lat="45.3679514" lon="10.5967042"><ele>141.0</ele><time>2026-03-29T09:03:01.626Z</time></trkpt><trkpt lat="45.3678417" lon="10.5965892"><ele>141.0</ele><time>2026-03-29T09:03:02.619Z</time></trkpt><trkpt lat="45.367724" lon="10.5965135"><ele>144.0</ele><time>2026-03-29T09:03:03.618Z</time></trkpt><trkpt lat="45.367613" lon="10.5964934"><ele>147.0</ele><time>2026-03-29T09:03:04.598Z</time></trkpt><trkpt lat="45.3674911" lon="10.5965286"><ele>150.0</ele><time>2026-03-29T09:03:05.6Z</time></trkpt><trkpt lat="45.3673783" lon="10.596556"><ele>153.0</ele><time>2026-03-29T09:03:06.598Z</time></trkpt><trkpt lat="45.3672407" lon="10.5966304"><ele>151.66666666666666</ele><time>2026-03-29T09:03:07.605Z</time></trkpt><trkpt lat="45.3670845" lon="10.5967499"><ele>150.33333333333331</ele><time>2026-03-29T09:03:08.603Z</time></trkpt><trkpt lat="45.3669525" lon="10.5968629"><ele>149.0</ele><time>2026-03-29T09:03:09.602Z</time></trkpt><trkpt lat="45.3668243" lon="10.5969714"><ele>149.33333333333331</ele><time>2026-03-29T09:03:10.608Z</time></trkpt><trkpt lat="45.3666905" lon="10.597138"><ele>149.66666666666666</ele><time>2026-03-29T09:03:11.61Z</time></trkpt><trkpt lat="45.366545" lon="10.5972567"><ele>150.0</ele><time>2026-03-29T09:03:12.61Z</time></trkpt><trkpt lat="45.3663956" lon="10.5973748"><ele>149.5</ele><time>2026-03-29T09:03:13.614Z</time></trkpt><trkpt lat="45.3662841" lon="10.5975069"><ele>149.0</ele><time>2026-03-29T09:03:14.622Z</time></trkpt><trkpt lat="45.3661727" lon="10.5976168"><ele>148.5</ele><time>2026-03-29T09:03:15.617Z</time></trkpt><trkpt lat="45.3660647" lon="10.597734"><ele>148.0</ele><time>2026-03-29T09:03:16.626Z</time></trkpt><trkpt lat="45.365929" lon="10.5978458"><ele>148.0</ele><time>2026-03-29T09:03:17.627Z</time></trkpt><trkpt lat="45.3657962" lon="10.5979462"><ele>148.0</ele><time>2026-03-29T09:03:18.617Z</time></trkpt><trkpt lat="45.3656611" lon="10.5979952"><ele>148.0</ele><time>2026-03-29T09:03:19.615Z</time></trkpt><trkpt lat="45.3655242" lon="10.5980297"><ele>148.0</ele><time>2026-03-29T09:03:20.613Z</time></trkpt><trkpt lat="45.3654067" lon="10.5980543"><ele>147.33333333333334</ele><time>2026-03-29T09:03:21.616Z</time></trkpt><trkpt lat="45.3653225" lon="10.5980722"><ele>146.66666666666669</ele><time>2026-03-29T09:03:22.616Z</time></trkpt><trkpt lat="45.3652237" lon="10.5980735"><ele>146.0</ele><time>2026-03-29T09:03:23.612Z</time></trkpt><trkpt lat="45.3651392" lon="10.5980603"><ele>145.33333333333334</ele><time>2026-03-29T09:03:24.612Z</time></trkpt><trkpt lat="45.3650523" lon="10.598035"><ele>144.66666666666666</ele><time>2026-03-29T09:03:25.612Z</time></trkpt><trkpt lat="45.3649676" lon="10.5980019"><ele>144.0</ele><time>2026-03-29T09:03:26.616Z</time></trkpt><trkpt lat="45.3648921" lon="10.5979288"><ele>144.0</ele><time>2026-03-29T09:03:27.618Z</time></trkpt><trkpt lat="45.3648187" lon="10.5978682"><ele>144.0</ele><time>2026-03-29T09:03:28.613Z</time></trkpt><trkpt lat="45.3647424" lon="10.5978336"><ele>144.0</ele><time>2026-03-29T09:03:29.609Z</time></trkpt><trkpt lat="45.3646663" lon="10.5978409"><ele>144.0</ele><time>2026-03-29T09:03:30.612Z</time></trkpt><trkpt lat="45.3646108" lon="10.5978926"><ele>144.0</ele><time>2026-03-29T09:03:31.611Z</time></trkpt><trkpt lat="45.3645774" lon="10.5980076"><ele>144.0</ele><time>2026-03-29T09:03:32.607Z</time></trkpt><trkpt lat="45.3645814" lon="10.5981689"><ele>143.5</ele><time>2026-03-29T09:03:33.61Z</time></trkpt><trkpt lat="45.3645914" lon="10.5983283"><ele>143.0</ele><time>2026-03-29T09:03:34.61Z</time></trkpt><trkpt lat="45.364586" lon="10.5984754"><ele>142.5</ele><time>2026-03-29T09:03:35.612Z</time></trkpt><trkpt lat="45.3645521" lon="10.5986381"><ele>142.0</ele><time>2026-03-29T09:03:36.613Z</time></trkpt><trkpt lat="45.3644806" lon="10.5988169"><ele>142.0</ele><time>2026-03-29T09:03:37.601Z</time></trkpt><trkpt lat="45.3643884" lon="10.5990126"><ele>142.0</ele><time>2026-03-29T09:03:38.601Z</time></trkpt><trkpt lat="45.3642964" lon="10.5992433"><ele>142.0</ele><time>2026-03-29T09:03:39.602Z</time></trkpt><trkpt lat="45.3641827" lon="10.5994786"><ele>143.66666666666669</ele><time>2026-03-29T09:03:40.599Z</time></trkpt><trkpt lat="45.3641068" lon="10.5996995"><ele>145.33333333333334</ele><time>2026-03-29T09:03:41.608Z</time></trkpt><trkpt lat="45.3640276" lon="10.5999293"><ele>147.0</ele><time>2026-03-29T09:03:42.613Z</time></trkpt><trkpt lat="45.3639196" lon="10.6001383"><ele>145.66666666666666</ele><time>2026-03-29T09:03:43.618Z</time></trkpt><trkpt lat="45.3638247" lon="10.6003961"><ele>144.33333333333331</ele><time>2026-03-29T09:03:44.619Z</time></trkpt><trkpt lat="45.3637343" lon="10.6006407"><ele>143.0</ele><time>2026-03-29T09:03:45.618Z</time></trkpt><trkpt lat="45.3636394" lon="10.6008651"><ele>143.0</ele><time>2026-03-29T09:03:46.633Z</time></trkpt><trkpt lat="45.3635427" lon="10.601099"><ele>143.0</ele><time>2026-03-29T09:03:47.622Z</time></trkpt><trkpt lat="45.3634483" lon="10.6013508"><ele>143.0</ele><time>2026-03-29T09:03:48.645Z</time></trkpt><trkpt lat="45.3633436" lon="10.6015958"><ele>144.33333333333331</ele><time>2026-03-29T09:03:50.714Z</time></trkpt><trkpt lat="45.363247" lon="10.601839"><ele>145.66666666666666</ele><time>2026-03-29T09:03:51.712Z</time></trkpt><trkpt lat="45.3631534" lon="10.6020849"><ele>147.0</ele><time>2026-03-29T09:03:52.71Z</time></trkpt><trkpt lat="45.3630634" lon="10.6023384"><ele>145.33333333333334</ele><time>2026-03-29T09:03:53.716Z</time></trkpt><trkpt lat="45.3629776" lon="10.6025828"><ele>143.66666666666669</ele><time>2026-03-29T09:03:54.715Z</time></trkpt><trkpt lat="45.3628959" lon="10.6028182"><ele>142.0</ele><time>2026-03-29T09:03:55.717Z</time></trkpt><trkpt lat="45.3628199" lon="10.6030387"><ele>142.0</ele><time>2026-03-29T09:03:56.711Z</time></trkpt><trkpt lat="45.3627496" lon="10.6032463"><ele>142.0</ele><time>2026-03-29T09:03:57.724Z</time></trkpt><trkpt lat="45.3626841" lon="10.6034344"><ele>142.0</ele><time>2026-03-29T09:03:58.717Z</time></trkpt><trkpt lat="45.362616" lon="10.6036116"><ele>143.2</ele><time>2026-03-29T09:03:59.717Z</time></trkpt><trkpt lat="45.3625479" lon="10.6037792"><ele>144.39999999999998</ele><time>2026-03-29T09:04:00.71Z</time></trkpt><trkpt lat="45.3625067" lon="10.6038878"><ele>145.60000000000002</ele><time>2026-03-29T09:04:01.716Z</time></trkpt><trkpt lat="45.3624481" lon="10.6040142"><ele>146.8</ele><time>2026-03-29T09:04:02.712Z</time></trkpt><trkpt lat="45.3623935" lon="10.6041271"><ele>148.0</ele><time>2026-03-29T09:04:03.707Z</time></trkpt><trkpt lat="45.3623451" lon="10.6042221"><ele>148.0</ele><time>2026-03-29T09:04:04.701Z</time></trkpt><trkpt lat="45.3623009" lon="10.6043083"><ele>148.0</ele><time>2026-03-29T09:04:05.709Z</time></trkpt><trkpt lat="45.3622128" lon="10.6043798"><ele>148.0</ele><time>2026-03-29T09:04:07.693Z</time></trkpt><trkpt lat="45.3620725" lon="10.6043649"><ele>148.0</ele><time>2026-03-29T09:04:09.7Z</time></trkpt><trkpt lat="45.3620006" lon="10.6043591"><ele>148.0</ele><time>2026-03-29T09:04:10.693Z</time></trkpt><trkpt lat="45.3619063" lon="10.6043523"><ele>145.66666666666669</ele><time>2026-03-29T09:04:11.713Z</time></trkpt><trkpt lat="45.3616654" lon="10.6043153"><ele>143.33333333333334</ele><time>2026-03-29T09:04:12.62Z</time></trkpt><trkpt lat="45.3615382" lon="10.6042559"><ele>141.0</ele><time>2026-03-29T09:04:13.617Z</time></trkpt><trkpt lat="45.3614094" lon="10.6041547"><ele>140.33333333333334</ele><time>2026-03-29T09:04:14.621Z</time></trkpt><trkpt lat="45.3612658" lon="10.6040298"><ele>139.66666666666669</ele><time>2026-03-29T09:04:15.617Z</time></trkpt><trkpt lat="45.361114" lon="10.6038905"><ele>139.0</ele><time>2026-03-29T09:04:16.631Z</time></trkpt><trkpt lat="45.3610127" lon="10.6037495"><ele>138.5</ele><time>2026-03-29T09:04:17.629Z</time></trkpt><trkpt lat="45.3609108" lon="10.6036044"><ele>138.0</ele><time>2026-03-29T09:04:18.622Z</time></trkpt><trkpt lat="45.3608122" lon="10.603451"><ele>137.5</ele><time>2026-03-29T09:04:19.628Z</time></trkpt><trkpt lat="45.3607028" lon="10.6032935"><ele>137.0</ele><time>2026-03-29T09:04:20.619Z</time></trkpt><trkpt lat="45.3606248" lon="10.6031263"><ele>137.0</ele><time>2026-03-29T09:04:21.624Z</time></trkpt><trkpt lat="45.3605544" lon="10.6029325"><ele>137.0</ele><time>2026-03-29T09:04:22.623Z</time></trkpt><trkpt lat="45.3604678" lon="10.6027569"><ele>137.0</ele><time>2026-03-29T09:04:23.616Z</time></trkpt><trkpt lat="45.3603748" lon="10.6025986"><ele>137.0</ele><time>2026-03-29T09:04:24.626Z</time></trkpt><trkpt lat="45.3603033" lon="10.6024418"><ele>137.0</ele><time>2026-03-29T09:04:25.61Z</time></trkpt><trkpt lat="45.3602622" lon="10.6022781"><ele>137.0</ele><time>2026-03-29T09:04:26.611Z</time></trkpt><trkpt lat="45.3601987" lon="10.6020775"><ele>137.0</ele><time>2026-03-29T09:04:27.62Z</time></trkpt><trkpt lat="45.3601579" lon="10.6018956"><ele>137.0</ele><time>2026-03-29T09:04:28.614Z</time></trkpt><trkpt lat="45.3601332" lon="10.6017524"><ele>137.0</ele><time>2026-03-29T09:04:29.61Z</time></trkpt><trkpt lat="45.3601215" lon="10.6016417"><ele>137.0</ele><time>2026-03-29T09:04:30.604Z</time></trkpt><trkpt lat="45.3600987" lon="10.6015511"><ele>137.0</ele><time>2026-03-29T09:04:31.603Z</time></trkpt><trkpt lat="45.3600477" lon="10.6014816"><ele>137.0</ele><time>2026-03-29T09:04:32.603Z</time></trkpt><trkpt lat="45.3600283" lon="10.6013853"><ele>137.0</ele><time>2026-03-29T09:04:33.608Z</time></trkpt><trkpt lat="45.3599751" lon="10.6011948"><ele>137.0</ele><time>2026-03-29T09:04:35.609Z</time></trkpt><trkpt lat="45.3599057" lon="10.6010884"><ele>137.0</ele><time>2026-03-29T09:04:36.61Z</time></trkpt><trkpt lat="45.359829" lon="10.6009777"><ele>137.0</ele><time>2026-03-29T09:04:37.608Z</time></trkpt><trkpt lat="45.3597373" lon="10.6008542"><ele>137.0</ele><time>2026-03-29T09:04:38.61Z</time></trkpt><trkpt lat="45.3596353" lon="10.6007095"><ele>137.0</ele><time>2026-03-29T09:04:39.606Z</time></trkpt><trkpt lat="45.3595384" lon="10.6005617"><ele>137.0</ele><time>2026-03-29T09:04:40.614Z</time></trkpt><trkpt lat="45.3594406" lon="10.6004086"><ele>137.0</ele><time>2026-03-29T09:04:41.609Z</time></trkpt><trkpt lat="45.3593489" lon="10.6002506"><ele>137.0</ele><time>2026-03-29T09:04:42.612Z</time></trkpt><trkpt lat="45.3592923" lon="10.6001174"><ele>137.0</ele><time>2026-03-29T09:04:43.606Z</time></trkpt><trkpt lat="45.3592189" lon="10.5999364"><ele>135.75</ele><time>2026-03-29T09:04:44.611Z</time></trkpt><trkpt lat="45.3591735" lon="10.5997728"><ele>134.5</ele><time>2026-03-29T09:04:45.609Z</time></trkpt><trkpt lat="45.3591338" lon="10.5996207"><ele>133.25</ele><time>2026-03-29T09:04:46.606Z</time></trkpt><trkpt lat="45.359091" lon="10.5994777"><ele>132.0</ele><time>2026-03-29T09:04:47.605Z</time></trkpt><trkpt lat="45.3590254" lon="10.599359"><ele>132.0</ele><time>2026-03-29T09:04:48.6Z</time></trkpt><trkpt lat="45.3589481" lon="10.5992686"><ele>132.0</ele><time>2026-03-29T09:04:49.605Z</time></trkpt><trkpt lat="45.3588454" lon="10.599177"><ele>132.0</ele><time>2026-03-29T09:04:50.609Z</time></trkpt><trkpt lat="45.3587231" lon="10.5990754"><ele>132.0</ele><time>2026-03-29T09:04:51.608Z</time></trkpt><trkpt lat="45.3586112" lon="10.5989818"><ele>132.25</ele><time>2026-03-29T09:04:52.61Z</time></trkpt><trkpt lat="45.3585122" lon="10.598895"><ele>132.5</ele><time>2026-03-29T09:04:53.611Z</time></trkpt><trkpt lat="45.358418" lon="10.5987859"><ele>132.75</ele><time>2026-03-29T09:04:54.61Z</time></trkpt><trkpt lat="45.358321" lon="10.5986678"><ele>133.0</ele><time>2026-03-29T09:04:55.62Z</time></trkpt><trkpt lat="45.358236" lon="10.5985439"><ele>133.16666666666669</ele><time>2026-03-29T09:04:56.613Z</time></trkpt><trkpt lat="45.3581619" lon="10.5984358"><ele>133.33333333333334</ele><time>2026-03-29T09:04:57.605Z</time></trkpt><trkpt lat="45.3581062" lon="10.5983404"><ele>133.5</ele><time>2026-03-29T09:04:58.608Z</time></trkpt><trkpt lat="45.3580519" lon="10.5982574"><ele>133.66666666666666</ele><time>2026-03-29T09:04:59.605Z</time></trkpt><trkpt lat="45.3580142" lon="10.5981809"><ele>133.83333333333331</ele><time>2026-03-29T09:05:00.606Z</time></trkpt><trkpt lat="45.3579739" lon="10.5980689"><ele>134.0</ele><time>2026-03-29T09:05:02.605Z</time></trkpt><trkpt lat="45.3579148" lon="10.5979993"><ele>133.2</ele><time>2026-03-29T09:05:07.619Z</time></trkpt><trkpt lat="45.3578502" lon="10.5979778"><ele>132.4</ele><time>2026-03-29T09:05:08.614Z</time></trkpt><trkpt lat="45.357768" lon="10.5979528"><ele>131.6</ele><time>2026-03-29T09:05:09.617Z</time></trkpt><trkpt lat="45.3576787" lon="10.5979301"><ele>130.8</ele><time>2026-03-29T09:05:10.608Z</time></trkpt><trkpt lat="45.3575618" lon="10.5978954"><ele>130.0</ele><time>2026-03-29T09:05:11.605Z</time></trkpt><trkpt lat="45.357441" lon="10.5978605"><ele>130.25</ele><time>2026-03-29T09:05:12.609Z</time></trkpt><trkpt lat="45.3573105" lon="10.5978314"><ele>130.5</ele><time>2026-03-29T09:05:13.61Z</time></trkpt><trkpt lat="45.3571718" lon="10.5977874"><ele>130.75</ele><time>2026-03-29T09:05:14.624Z</time></trkpt><trkpt lat="45.357028" lon="10.5977373"><ele>131.0</ele><time>2026-03-29T09:05:15.624Z</time></trkpt><trkpt lat="45.3568715" lon="10.5976848"><ele>131.0</ele><time>2026-03-29T09:05:16.625Z</time></trkpt><trkpt lat="45.3567482" lon="10.5976647"><ele>131.0</ele><time>2026-03-29T09:05:17.62Z</time></trkpt><trkpt lat="45.3566037" lon="10.5976535"><ele>131.0</ele><time>2026-03-29T09:05:18.618Z</time></trkpt><trkpt lat="45.356452" lon="10.5976719"><ele>131.0</ele><time>2026-03-29T09:05:19.61Z</time></trkpt><trkpt lat="45.3563063" lon="10.5977111"><ele>130.75</ele><time>2026-03-29T09:05:20.612Z</time></trkpt><trkpt lat="45.3561588" lon="10.5977504"><ele>130.5</ele><time>2026-03-29T09:05:21.604Z</time></trkpt><trkpt lat="45.3560156" lon="10.5977858"><ele>130.25</ele><time>2026-03-29T09:05:22.603Z</time></trkpt><trkpt lat="45.3558985" lon="10.5977923"><ele>130.0</ele><time>2026-03-29T09:05:23.609Z</time></trkpt><trkpt lat="45.3557708" lon="10.5978072"><ele>130.0</ele><time>2026-03-29T09:05:24.606Z</time></trkpt><trkpt lat="45.3556652" lon="10.5977577"><ele>130.0</ele><time>2026-03-29T09:05:25.612Z</time></trkpt><trkpt lat="45.3555313" lon="10.5976847"><ele>130.0</ele><time>2026-03-29T09:05:26.604Z</time></trkpt><trkpt lat="45.3554228" lon="10.5976194"><ele>130.0</ele><time>2026-03-29T09:05:27.6Z</time></trkpt><trkpt lat="45.3553198" lon="10.5975234"><ele>129.25</ele><time>2026-03-29T09:05:28.602Z</time></trkpt><trkpt lat="45.3552007" lon="10.5974581"><ele>128.5</ele><time>2026-03-29T09:05:29.601Z</time></trkpt><trkpt lat="45.3550509" lon="10.597406"><ele>127.75</ele><time>2026-03-29T09:05:30.614Z</time></trkpt><trkpt lat="45.3549241" lon="10.5973687"><ele>127.0</ele><time>2026-03-29T09:05:31.615Z</time></trkpt><trkpt lat="45.3547917" lon="10.5973591"><ele>128.25</ele><time>2026-03-29T09:05:32.61Z</time></trkpt><trkpt lat="45.3546634" lon="10.5973886"><ele>129.5</ele><time>2026-03-29T09:05:33.621Z</time></trkpt><trkpt lat="45.3545142" lon="10.5974303"><ele>130.75</ele><time>2026-03-29T09:05:34.608Z</time></trkpt><trkpt lat="45.3543624" lon="10.5974908"><ele>132.0</ele><time>2026-03-29T09:05:35.62Z</time></trkpt><trkpt lat="45.3542239" lon="10.5975433"><ele>132.0</ele><time>2026-03-29T09:05:36.605Z</time></trkpt><trkpt lat="45.3541088" lon="10.5975984"><ele>132.0</ele><time>2026-03-29T09:05:37.619Z</time></trkpt><trkpt lat="45.3539943" lon="10.597661"><ele>132.0</ele><time>2026-03-29T09:05:38.617Z</time></trkpt><trkpt lat="45.3538882" lon="10.597732"><ele>132.0</ele><time>2026-03-29T09:05:39.609Z</time></trkpt><trkpt lat="45.3538051" lon="10.5978104"><ele>133.79999999999998</ele><time>2026-03-29T09:05:40.611Z</time></trkpt><trkpt lat="45.3537511" lon="10.5978673"><ele>135.6</ele><time>2026-03-29T09:05:41.615Z</time></trkpt><trkpt lat="45.3536793" lon="10.5979542"><ele>137.39999999999998</ele><time>2026-03-29T09:05:42.614Z</time></trkpt><trkpt lat="45.3536303" lon="10.5980722"><ele>139.2</ele><time>2026-03-29T09:05:43.615Z</time></trkpt><trkpt lat="45.3535805" lon="10.5982034"><ele>141.0</ele><time>2026-03-29T09:05:44.612Z</time></trkpt><trkpt lat="45.3535388" lon="10.5983703"><ele>141.0</ele><time>2026-03-29T09:05:45.618Z</time></trkpt><trkpt lat="45.3534878" lon="10.5985389"><ele>141.0</ele><time>2026-03-29T09:05:46.619Z</time></trkpt><trkpt lat="45.353435" lon="10.5987129"><ele>141.0</ele><time>2026-03-29T09:05:47.621Z</time></trkpt><trkpt lat="45.3533819" lon="10.598902"><ele>141.0</ele><time>2026-03-29T09:05:48.615Z</time></trkpt><trkpt lat="45.3533139" lon="10.5990967"><ele>140.75</ele><time>2026-03-29T09:05:49.623Z</time></trkpt><trkpt lat="45.3532449" lon="10.5992851"><ele>140.5</ele><time>2026-03-29T09:05:50.612Z</time></trkpt><trkpt lat="45.3531711" lon="10.5994639"><ele>140.25</ele><time>2026-03-29T09:05:51.614Z</time></trkpt><trkpt lat="45.353103" lon="10.5996449"><ele>140.0</ele><time>2026-03-29T09:05:52.612Z</time></trkpt><trkpt lat="45.3530112" lon="10.5998142"><ele>142.25</ele><time>2026-03-29T09:05:53.614Z</time></trkpt><trkpt lat="45.3529433" lon="10.5999749"><ele>144.5</ele><time>2026-03-29T09:05:54.618Z</time></trkpt><trkpt lat="45.3528457" lon="10.6001049"><ele>146.75</ele><time>2026-03-29T09:05:55.61Z</time></trkpt><trkpt lat="45.3527884" lon="10.6002573"><ele>149.0</ele><time>2026-03-29T09:05:56.617Z</time></trkpt><trkpt lat="45.3527489" lon="10.6004249"><ele>149.0</ele><time>2026-03-29T09:05:57.604Z</time></trkpt><trkpt lat="45.3526732" lon="10.6005621"><ele>149.0</ele><time>2026-03-29T09:05:58.601Z</time></trkpt><trkpt lat="45.352604" lon="10.6007038"><ele>149.0</ele><time>2026-03-29T09:05:59.607Z</time></trkpt><trkpt lat="45.3525286" lon="10.6008235"><ele>149.0</ele><time>2026-03-29T09:06:00.603Z</time></trkpt><trkpt lat="45.3524498" lon="10.600913"><ele>149.0</ele><time>2026-03-29T09:06:01.609Z</time></trkpt><trkpt lat="45.3523684" lon="10.6009637"><ele>149.0</ele><time>2026-03-29T09:06:02.606Z</time></trkpt><trkpt lat="45.3523003" lon="10.6010091"><ele>149.0</ele><time>2026-03-29T09:06:03.61Z</time></trkpt><trkpt lat="45.3522353" lon="10.6010454"><ele>149.0</ele><time>2026-03-29T09:06:04.612Z</time></trkpt><trkpt lat="45.3521381" lon="10.6010891"><ele>149.0</ele><time>2026-03-29T09:06:06.637Z</time></trkpt><trkpt lat="45.3520733" lon="10.6011282"><ele>149.0</ele><time>2026-03-29T09:06:10.628Z</time></trkpt><trkpt lat="45.3520483" lon="10.6012529"><ele>149.16666666666666</ele><time>2026-03-29T09:06:17.622Z</time></trkpt><trkpt lat="45.3521026" lon="10.6014415"><ele>149.33333333333331</ele><time>2026-03-29T09:06:19.623Z</time></trkpt><trkpt lat="45.3521544" lon="10.6015451"><ele>149.5</ele><time>2026-03-29T09:06:20.617Z</time></trkpt><trkpt lat="45.3521833" lon="10.6016371"><ele>149.66666666666666</ele><time>2026-03-29T09:06:21.611Z</time></trkpt><trkpt lat="45.3522082" lon="10.6017296"><ele>149.83333333333334</ele><time>2026-03-29T09:06:22.617Z</time></trkpt><trkpt lat="45.3522176" lon="10.6018228"><ele>150.0</ele><time>2026-03-29T09:06:23.609Z</time></trkpt><trkpt lat="45.3522067" lon="10.6019205"><ele>149.2</ele><time>2026-03-29T09:06:24.613Z</time></trkpt><trkpt lat="45.3521716" lon="10.6020221"><ele>148.4</ele><time>2026-03-29T09:06:25.617Z</time></trkpt><trkpt lat="45.3521322" lon="10.602151"><ele>147.6</ele><time>2026-03-29T09:06:26.61Z</time></trkpt><trkpt lat="45.3520864" lon="10.6023029"><ele>146.8</ele><time>2026-03-29T09:06:27.609Z</time></trkpt><trkpt lat="45.3520489" lon="10.6024552"><ele>146.0</ele><time>2026-03-29T09:06:28.613Z</time></trkpt><trkpt lat="45.3520242" lon="10.6026141"><ele>146.0</ele><time>2026-03-29T09:06:29.614Z</time></trkpt><trkpt lat="45.3519873" lon="10.6027589"><ele>146.0</ele><time>2026-03-29T09:06:30.606Z</time></trkpt><trkpt lat="45.3519397" lon="10.6029041"><ele>146.0</ele><time>2026-03-29T09:06:31.61Z</time></trkpt><trkpt lat="45.3518889" lon="10.6030529"><ele>146.0</ele><time>2026-03-29T09:06:32.608Z</time></trkpt><trkpt lat="45.3518424" lon="10.6032096"><ele>146.0</ele><time>2026-03-29T09:06:33.615Z</time></trkpt><trkpt lat="45.3518152" lon="10.6033783"><ele>146.0</ele><time>2026-03-29T09:06:34.609Z</time></trkpt><trkpt lat="45.3517854" lon="10.6035561"><ele>146.0</ele><time>2026-03-29T09:06:35.614Z</time></trkpt><trkpt lat="45.3517656" lon="10.6037402"><ele>146.0</ele><time>2026-03-29T09:06:36.612Z</time></trkpt><trkpt lat="45.3517532" lon="10.6039183"><ele>146.0</ele><time>2026-03-29T09:06:37.619Z</time></trkpt><trkpt lat="45.3517459" lon="10.6040685"><ele>146.0</ele><time>2026-03-29T09:06:38.616Z</time></trkpt><trkpt lat="45.3517482" lon="10.6042008"><ele>146.0</ele><time>2026-03-29T09:06:39.616Z</time></trkpt><trkpt lat="45.3517634" lon="10.6043376"><ele>146.0</ele><time>2026-03-29T09:06:40.616Z</time></trkpt><trkpt lat="45.3517775" lon="10.6044732"><ele>146.0</ele><time>2026-03-29T09:06:41.619Z</time></trkpt><trkpt lat="45.3518022" lon="10.6045923"><ele>146.2</ele><time>2026-03-29T09:06:42.617Z</time></trkpt><trkpt lat="45.3518377" lon="10.6047149"><ele>146.39999999999998</ele><time>2026-03-29T09:06:43.605Z</time></trkpt><trkpt lat="45.3518859" lon="10.604823"><ele>146.6</ele><time>2026-03-29T09:06:44.605Z</time></trkpt><trkpt lat="45.3519469" lon="10.6049319"><ele>146.79999999999998</ele><time>2026-03-29T09:06:45.611Z</time></trkpt><trkpt lat="45.3520223" lon="10.605062"><ele>147.0</ele><time>2026-03-29T09:06:46.608Z</time></trkpt><trkpt lat="45.3521225" lon="10.6052213"><ele>142.66666666666666</ele><time>2026-03-29T09:06:47.616Z</time></trkpt><trkpt lat="45.3522397" lon="10.6053895"><ele>138.33333333333331</ele><time>2026-03-29T09:06:48.62Z</time></trkpt><trkpt lat="45.3523578" lon="10.6055827"><ele>134.0</ele><time>2026-03-29T09:06:49.63Z</time></trkpt><trkpt lat="45.3524702" lon="10.6057741"><ele>134.0</ele><time>2026-03-29T09:06:50.622Z</time></trkpt><trkpt lat="45.3525663" lon="10.605934"><ele>134.0</ele><time>2026-03-29T09:06:51.626Z</time></trkpt><trkpt lat="45.3526396" lon="10.6060857"><ele>134.0</ele><time>2026-03-29T09:06:52.634Z</time></trkpt><trkpt lat="45.3527092" lon="10.6062566"><ele>134.0</ele><time>2026-03-29T09:06:53.63Z</time></trkpt><trkpt lat="45.3527636" lon="10.6064362"><ele>134.25</ele><time>2026-03-29T09:06:54.623Z</time></trkpt><trkpt lat="45.3528281" lon="10.6066313"><ele>134.5</ele><time>2026-03-29T09:06:55.632Z</time></trkpt><trkpt lat="45.3528476" lon="10.6068074"><ele>134.75</ele><time>2026-03-29T09:06:56.634Z</time></trkpt><trkpt lat="45.3528789" lon="10.6069936"><ele>135.0</ele><time>2026-03-29T09:06:58.714Z</time></trkpt><trkpt lat="45.3529113" lon="10.607184"><ele>135.0</ele><time>2026-03-29T09:06:59.712Z</time></trkpt><trkpt lat="45.3529412" lon="10.6073743"><ele>135.0</ele><time>2026-03-29T09:07:00.712Z</time></trkpt><trkpt lat="45.3529668" lon="10.6075541"><ele>135.0</ele><time>2026-03-29T09:07:01.704Z</time></trkpt><trkpt lat="45.3529882" lon="10.6077324"><ele>135.0</ele><time>2026-03-29T09:07:02.711Z</time></trkpt><trkpt lat="45.3530029" lon="10.6079164"><ele>135.25</ele><time>2026-03-29T09:07:03.701Z</time></trkpt><trkpt lat="45.3530063" lon="10.6081054"><ele>135.5</ele><time>2026-03-29T09:07:04.701Z</time></trkpt><trkpt lat="45.3529953" lon="10.6083004"><ele>135.75</ele><time>2026-03-29T09:07:05.687Z</time></trkpt><trkpt lat="45.3529671" lon="10.6085095"><ele>136.0</ele><time>2026-03-29T09:07:06.696Z</time></trkpt><trkpt lat="45.3529279" lon="10.6087319"><ele>136.33333333333334</ele><time>2026-03-29T09:07:07.698Z</time></trkpt><trkpt lat="45.3528869" lon="10.6089586"><ele>136.66666666666666</ele><time>2026-03-29T09:07:08.694Z</time></trkpt><trkpt lat="45.3528366" lon="10.6091848"><ele>137.0</ele><time>2026-03-29T09:07:09.714Z</time></trkpt><trkpt lat="45.3528035" lon="10.6093852"><ele>137.5</ele><time>2026-03-29T09:07:10.709Z</time></trkpt><trkpt lat="45.3527729" lon="10.6095872"><ele>138.0</ele><time>2026-03-29T09:07:11.707Z</time></trkpt><trkpt lat="45.3527556" lon="10.609794"><ele>138.5</ele><time>2026-03-29T09:07:12.702Z</time></trkpt><trkpt lat="45.3527544" lon="10.610003"><ele>139.0</ele><time>2026-03-29T09:07:13.699Z</time></trkpt><trkpt lat="45.3527668" lon="10.6102153"><ele>140.0</ele><time>2026-03-29T09:07:14.69Z</time></trkpt><trkpt lat="45.3527966" lon="10.6104416"><ele>141.0</ele><time>2026-03-29T09:07:15.689Z</time></trkpt><trkpt lat="45.3528455" lon="10.6106752"><ele>142.0</ele><time>2026-03-29T09:07:16.682Z</time></trkpt><trkpt lat="45.3529077" lon="10.6108954"><ele>142.0</ele><time>2026-03-29T09:07:17.685Z</time></trkpt><trkpt lat="45.3529759" lon="10.6110864"><ele>142.0</ele><time>2026-03-29T09:07:18.705Z</time></trkpt><trkpt lat="45.3530424" lon="10.6112648"><ele>142.0</ele><time>2026-03-29T09:07:19.697Z</time></trkpt><trkpt lat="45.3530944" lon="10.6114514"><ele>142.0</ele><time>2026-03-29T09:07:20.708Z</time></trkpt><trkpt lat="45.3531293" lon="10.6116489"><ele>138.75</ele><time>2026-03-29T09:07:21.691Z</time></trkpt><trkpt lat="45.3531437" lon="10.6118525"><ele>135.5</ele><time>2026-03-29T09:07:22.696Z</time></trkpt><trkpt lat="45.3531504" lon="10.6120633"><ele>132.25</ele><time>2026-03-29T09:07:23.69Z</time></trkpt><trkpt lat="45.3531463" lon="10.6122864"><ele>129.0</ele><time>2026-03-29T09:07:24.693Z</time></trkpt><trkpt lat="45.3531446" lon="10.6125097"><ele>129.0</ele><time>2026-03-29T09:07:25.7Z</time></trkpt><trkpt lat="45.353154" lon="10.6127384"><ele>129.0</ele><time>2026-03-29T09:07:26.702Z</time></trkpt><trkpt lat="45.3531808" lon="10.6129667"><ele>129.0</ele><time>2026-03-29T09:07:27.687Z</time></trkpt><trkpt lat="45.3532229" lon="10.6131996"><ele>129.33333333333334</ele><time>2026-03-29T09:07:28.701Z</time></trkpt><trkpt lat="45.3532675" lon="10.613434"><ele>129.66666666666669</ele><time>2026-03-29T09:07:29.681Z</time></trkpt><trkpt lat="45.3533076" lon="10.6136746"><ele>130.0</ele><time>2026-03-29T09:07:30.688Z</time></trkpt><trkpt lat="45.3533333" lon="10.6139047"><ele>131.0</ele><time>2026-03-29T09:07:31.699Z</time></trkpt><trkpt lat="45.3533484" lon="10.6141313"><ele>132.0</ele><time>2026-03-29T09:07:32.696Z</time></trkpt><trkpt lat="45.3533451" lon="10.6143563"><ele>133.0</ele><time>2026-03-29T09:07:33.691Z</time></trkpt><trkpt lat="45.3533395" lon="10.6145898"><ele>133.0</ele><time>2026-03-29T09:07:34.69Z</time></trkpt><trkpt lat="45.3533335" lon="10.614832"><ele>133.0</ele><time>2026-03-29T09:07:35.686Z</time></trkpt><trkpt lat="45.3533174" lon="10.615079"><ele>133.0</ele><time>2026-03-29T09:07:36.692Z</time></trkpt><trkpt lat="45.3532906" lon="10.615332"><ele>132.66666666666669</ele><time>2026-03-29T09:07:37.701Z</time></trkpt><trkpt lat="45.3532539" lon="10.6155851"><ele>132.33333333333334</ele><time>2026-03-29T09:07:38.707Z</time></trkpt><trkpt lat="45.3532162" lon="10.6158147"><ele>132.0</ele><time>2026-03-29T09:07:39.709Z</time></trkpt><trkpt lat="45.3531745" lon="10.616047"><ele>132.0</ele><time>2026-03-29T09:07:40.705Z</time></trkpt><trkpt lat="45.35314" lon="10.6162854"><ele>132.0</ele><time>2026-03-29T09:07:41.716Z</time></trkpt><trkpt lat="45.3531207" lon="10.6165305"><ele>132.0</ele><time>2026-03-29T09:07:42.707Z</time></trkpt><trkpt lat="45.3531071" lon="10.6167802"><ele>132.33333333333334</ele><time>2026-03-29T09:07:43.709Z</time></trkpt><trkpt lat="45.3531022" lon="10.6170323"><ele>132.66666666666669</ele><time>2026-03-29T09:07:44.71Z</time></trkpt><trkpt lat="45.3531034" lon="10.6172888"><ele>133.0</ele><time>2026-03-29T09:07:45.713Z</time></trkpt><trkpt lat="45.353108" lon="10.6175462"><ele>133.0</ele><time>2026-03-29T09:07:46.711Z</time></trkpt><trkpt lat="45.3531106" lon="10.6178"><ele>133.0</ele><time>2026-03-29T09:07:47.711Z</time></trkpt><trkpt lat="45.3531122" lon="10.6180491"><ele>133.0</ele><time>2026-03-29T09:07:48.704Z</time></trkpt><trkpt lat="45.3531184" lon="10.6182939"><ele>133.33333333333334</ele><time>2026-03-29T09:07:49.705Z</time></trkpt><trkpt lat="45.3531327" lon="10.6185337"><ele>133.66666666666666</ele><time>2026-03-29T09:07:50.702Z</time></trkpt><trkpt lat="45.3531552" lon="10.6187702"><ele>134.0</ele><time>2026-03-29T09:07:51.696Z</time></trkpt><trkpt lat="45.3531824" lon="10.6189941"><ele>134.33333333333331</ele><time>2026-03-29T09:07:52.708Z</time></trkpt><trkpt lat="45.353214" lon="10.6192143"><ele>134.66666666666666</ele><time>2026-03-29T09:07:53.706Z</time></trkpt><trkpt lat="45.3532536" lon="10.6194308"><ele>135.0</ele><time>2026-03-29T09:07:54.702Z</time></trkpt><trkpt lat="45.3533011" lon="10.6196439"><ele>135.0</ele><time>2026-03-29T09:07:55.716Z</time></trkpt><trkpt lat="45.3533638" lon="10.6198576"><ele>135.0</ele><time>2026-03-29T09:07:56.711Z</time></trkpt><trkpt lat="45.3534403" lon="10.6200653"><ele>135.0</ele><time>2026-03-29T09:07:57.696Z</time></trkpt><trkpt lat="45.3535281" lon="10.6202646"><ele>135.0</ele><time>2026-03-29T09:07:58.696Z</time></trkpt><trkpt lat="45.3536331" lon="10.6204607"><ele>135.0</ele><time>2026-03-29T09:07:59.705Z</time></trkpt><trkpt lat="45.3537476" lon="10.6206492"><ele>135.0</ele><time>2026-03-29T09:08:00.704Z</time></trkpt><trkpt lat="45.3538692" lon="10.6208243"><ele>135.0</ele><time>2026-03-29T09:08:01.721Z</time></trkpt><trkpt lat="45.3540118" lon="10.6209871"><ele>135.0</ele><time>2026-03-29T09:08:02.705Z</time></trkpt><trkpt lat="45.3541625" lon="10.6211289"><ele>135.0</ele><time>2026-03-29T09:08:03.701Z</time></trkpt><trkpt lat="45.3543167" lon="10.6212616"><ele>137.33333333333334</ele><time>2026-03-29T09:08:04.698Z</time></trkpt><trkpt lat="45.3544726" lon="10.6213961"><ele>139.66666666666669</ele><time>2026-03-29T09:08:05.699Z</time></trkpt><trkpt lat="45.3546269" lon="10.6215288"><ele>142.0</ele><time>2026-03-29T09:08:06.698Z</time></trkpt><trkpt lat="45.354783" lon="10.6216637"><ele>142.0</ele><time>2026-03-29T09:08:07.704Z</time></trkpt><trkpt lat="45.3549363" lon="10.6217893"><ele>142.0</ele><time>2026-03-29T09:08:08.703Z</time></trkpt><trkpt lat="45.3550893" lon="10.6219137"><ele>142.0</ele><time>2026-03-29T09:08:09.703Z</time></trkpt><trkpt lat="45.3552364" lon="10.6220365"><ele>143.33333333333334</ele><time>2026-03-29T09:08:10.706Z</time></trkpt><trkpt lat="45.3553722" lon="10.6221619"><ele>144.66666666666666</ele><time>2026-03-29T09:08:11.701Z</time></trkpt><trkpt lat="45.3555013" lon="10.6222936"><ele>146.0</ele><time>2026-03-29T09:08:12.707Z</time></trkpt><trkpt lat="45.3556327" lon="10.6224319"><ele>146.0</ele><time>2026-03-29T09:08:13.708Z</time></trkpt><trkpt lat="45.3557706" lon="10.6225712"><ele>146.0</ele><time>2026-03-29T09:08:14.703Z</time></trkpt><trkpt lat="45.3559128" lon="10.6227038"><ele>146.0</ele><time>2026-03-29T09:08:15.71Z</time></trkpt><trkpt lat="45.3560581" lon="10.622831"><ele>149.0</ele><time>2026-03-29T09:08:16.7Z</time></trkpt><trkpt lat="45.3562033" lon="10.6229542"><ele>152.0</ele><time>2026-03-29T09:08:17.698Z</time></trkpt><trkpt lat="45.3563589" lon="10.6230746"><ele>155.0</ele><time>2026-03-29T09:08:18.698Z</time></trkpt><trkpt lat="45.3565197" lon="10.6231948"><ele>155.0</ele><time>2026-03-29T09:08:19.698Z</time></trkpt><trkpt lat="45.3566726" lon="10.6233017"><ele>155.0</ele><time>2026-03-29T09:08:20.713Z</time></trkpt><trkpt lat="45.3568121" lon="10.6234037"><ele>155.0</ele><time>2026-03-29T09:08:21.7Z</time></trkpt><trkpt lat="45.3569447" lon="10.6235145"><ele>155.0</ele><time>2026-03-29T09:08:22.706Z</time></trkpt><trkpt lat="45.3570619" lon="10.6236324"><ele>155.0</ele><time>2026-03-29T09:08:23.702Z</time></trkpt><trkpt lat="45.3571677" lon="10.6237696"><ele>155.0</ele><time>2026-03-29T09:08:24.693Z</time></trkpt><trkpt lat="45.3572593" lon="10.6239258"><ele>155.0</ele><time>2026-03-29T09:08:25.7Z</time></trkpt><trkpt lat="45.3573275" lon="10.6240967"><ele>156.25</ele><time>2026-03-29T09:08:26.698Z</time></trkpt><trkpt lat="45.3573721" lon="10.6242805"><ele>157.5</ele><time>2026-03-29T09:08:27.707Z</time></trkpt><trkpt lat="45.3573994" lon="10.6244715"><ele>158.75</ele><time>2026-03-29T09:08:28.719Z</time></trkpt><trkpt lat="45.3574124" lon="10.6246744"><ele>160.0</ele><time>2026-03-29T09:08:29.714Z</time></trkpt><trkpt lat="45.3574165" lon="10.6248672"><ele>160.33333333333334</ele><time>2026-03-29T09:08:30.701Z</time></trkpt><trkpt lat="45.3574063" lon="10.6250699"><ele>160.66666666666666</ele><time>2026-03-29T09:08:31.703Z</time></trkpt><trkpt lat="45.3573769" lon="10.6252899"><ele>161.0</ele><time>2026-03-29T09:08:32.701Z</time></trkpt><trkpt lat="45.3573374" lon="10.6255381"><ele>161.0</ele><time>2026-03-29T09:08:33.713Z</time></trkpt><trkpt lat="45.3572983" lon="10.6257904"><ele>161.0</ele><time>2026-03-29T09:08:34.712Z</time></trkpt><trkpt lat="45.357254" lon="10.626046"><ele>161.0</ele><time>2026-03-29T09:08:35.708Z</time></trkpt><trkpt lat="45.3572001" lon="10.6262775"><ele>161.0</ele><time>2026-03-29T09:08:36.71Z</time></trkpt><trkpt lat="45.3571405" lon="10.6264897"><ele>161.0</ele><time>2026-03-29T09:08:37.691Z</time></trkpt><trkpt lat="45.3570812" lon="10.6266749"><ele>161.0</ele><time>2026-03-29T09:08:38.696Z</time></trkpt><trkpt lat="45.357026" lon="10.6268448"><ele>161.0</ele><time>2026-03-29T09:08:39.689Z</time></trkpt><trkpt lat="45.3569722" lon="10.6269957"><ele>159.8</ele><time>2026-03-29T09:08:40.686Z</time></trkpt><trkpt lat="45.3569239" lon="10.627122"><ele>158.60000000000002</ele><time>2026-03-29T09:08:41.712Z</time></trkpt><trkpt lat="45.3568828" lon="10.6272147"><ele>157.4</ele><time>2026-03-29T09:08:42.693Z</time></trkpt><trkpt lat="45.3568609" lon="10.6273632"><ele>156.2</ele><time>2026-03-29T09:08:44.709Z</time></trkpt><trkpt lat="45.3568136" lon="10.6275869"><ele>155.0</ele><time>2026-03-29T09:08:46.603Z</time></trkpt><trkpt lat="45.3567773" lon="10.6277044"><ele>154.16666666666666</ele><time>2026-03-29T09:08:47.601Z</time></trkpt><trkpt lat="45.3567289" lon="10.6278466"><ele>153.33333333333331</ele><time>2026-03-29T09:08:48.602Z</time></trkpt><trkpt lat="45.3566891" lon="10.6279851"><ele>152.5</ele><time>2026-03-29T09:08:49.61Z</time></trkpt><trkpt lat="45.3566531" lon="10.6280875"><ele>151.66666666666666</ele><time>2026-03-29T09:08:50.616Z</time></trkpt><trkpt lat="45.3566285" lon="10.6281756"><ele>150.83333333333334</ele><time>2026-03-29T09:08:51.603Z</time></trkpt><trkpt lat="45.3566248" lon="10.6282956"><ele>150.0</ele><time>2026-03-29T09:08:53.634Z</time></trkpt><trkpt lat="45.3567155" lon="10.6283797"><ele>150.0</ele><time>2026-03-29T09:08:55.622Z</time></trkpt><trkpt lat="45.3567882" lon="10.6283921"><ele>150.0</ele><time>2026-03-29T09:08:56.621Z</time></trkpt><trkpt lat="45.3568661" lon="10.6283825"><ele>150.0</ele><time>2026-03-29T09:08:57.624Z</time></trkpt><trkpt lat="45.3569528" lon="10.6283489"><ele>150.0</ele><time>2026-03-29T09:08:58.611Z</time></trkpt><trkpt lat="45.3570633" lon="10.6283374"><ele>150.0</ele><time>2026-03-29T09:08:59.613Z</time></trkpt><trkpt lat="45.3571989" lon="10.6283328"><ele>150.5</ele><time>2026-03-29T09:09:00.616Z</time></trkpt><trkpt lat="45.3573329" lon="10.6283329"><ele>151.0</ele><time>2026-03-29T09:09:01.621Z</time></trkpt><trkpt lat="45.3574599" lon="10.6283338"><ele>151.5</ele><time>2026-03-29T09:09:02.617Z</time></trkpt><trkpt lat="45.3575663" lon="10.6283068"><ele>152.0</ele><time>2026-03-29T09:09:03.619Z</time></trkpt><trkpt lat="45.3576637" lon="10.6282446"><ele>152.0</ele><time>2026-03-29T09:09:04.621Z</time></trkpt><trkpt lat="45.3577563" lon="10.6281445"><ele>152.0</ele><time>2026-03-29T09:09:05.614Z</time></trkpt><trkpt lat="45.3578422" lon="10.6280387"><ele>152.0</ele><time>2026-03-29T09:09:06.621Z</time></trkpt><trkpt lat="45.357919" lon="10.6279247"><ele>152.0</ele><time>2026-03-29T09:09:07.619Z</time></trkpt><trkpt lat="45.3579802" lon="10.6278119"><ele>152.0</ele><time>2026-03-29T09:09:08.627Z</time></trkpt><trkpt lat="45.3580378" lon="10.6277106"><ele>152.0</ele><time>2026-03-29T09:09:09.617Z</time></trkpt><trkpt lat="45.3581001" lon="10.62763"><ele>152.0</ele><time>2026-03-29T09:09:10.609Z</time></trkpt><trkpt lat="45.3581812" lon="10.6275494"><ele>152.0</ele><time>2026-03-29T09:09:11.609Z</time></trkpt><trkpt lat="45.3582803" lon="10.6274915"><ele>152.0</ele><time>2026-03-29T09:09:12.609Z</time></trkpt><trkpt lat="45.3583727" lon="10.6274476"><ele>152.0</ele><time>2026-03-29T09:09:13.62Z</time></trkpt><trkpt lat="45.358462" lon="10.6274145"><ele>152.0</ele><time>2026-03-29T09:09:14.609Z</time></trkpt><trkpt lat="45.3585499" lon="10.6273626"><ele>152.0</ele><time>2026-03-29T09:09:15.612Z</time></trkpt><trkpt lat="45.3586299" lon="10.6272862"><ele>152.0</ele><time>2026-03-29T09:09:16.617Z</time></trkpt><trkpt lat="45.358698" lon="10.6271819"><ele>152.0</ele><time>2026-03-29T09:09:17.629Z</time></trkpt><trkpt lat="45.3587504" lon="10.627057"><ele>152.0</ele><time>2026-03-29T09:09:18.619Z</time></trkpt><trkpt lat="45.3587908" lon="10.626909"><ele>153.75</ele><time>2026-03-29T09:09:19.618Z</time></trkpt><trkpt lat="45.3588116" lon="10.6267401"><ele>155.5</ele><time>2026-03-29T09:09:20.614Z</time></trkpt><trkpt lat="45.3588252" lon="10.6265524"><ele>157.25</ele><time>2026-03-29T09:09:21.625Z</time></trkpt><trkpt lat="45.3588388" lon="10.6263656"><ele>159.0</ele><time>2026-03-29T09:09:22.621Z</time></trkpt><trkpt lat="45.3588618" lon="10.6262029"><ele>156.8</ele><time>2026-03-29T09:09:23.624Z</time></trkpt><trkpt lat="45.3588901" lon="10.6260548"><ele>154.60000000000002</ele><time>2026-03-29T09:09:24.615Z</time></trkpt><trkpt lat="45.3589349" lon="10.6259232"><ele>152.4</ele><time>2026-03-29T09:09:25.616Z</time></trkpt><trkpt lat="45.3589963" lon="10.6258082"><ele>150.20000000000002</ele><time>2026-03-29T09:09:26.612Z</time></trkpt><trkpt lat="45.3590619" lon="10.6257224"><ele>148.0</ele><time>2026-03-29T09:09:27.616Z</time></trkpt><trkpt lat="45.3591333" lon="10.6256663"><ele>148.0</ele><time>2026-03-29T09:09:28.611Z</time></trkpt><trkpt lat="45.3592005" lon="10.6256208"><ele>148.0</ele><time>2026-03-29T09:09:29.617Z</time></trkpt><trkpt lat="45.3592988" lon="10.6255586"><ele>148.0</ele><time>2026-03-29T09:09:31.626Z</time></trkpt><trkpt lat="45.359365" lon="10.625534"><ele>148.0</ele><time>2026-03-29T09:09:33.624Z</time></trkpt><trkpt lat="45.3594547" lon="10.6255043"><ele>148.0</ele><time>2026-03-29T09:09:37.617Z</time></trkpt><trkpt lat="45.3595747" lon="10.6254989"><ele>148.0</ele><time>2026-03-29T09:09:39.605Z</time></trkpt><trkpt lat="45.3596452" lon="10.6255222"><ele>148.0</ele><time>2026-03-29T09:09:40.616Z</time></trkpt><trkpt lat="45.3597401" lon="10.6256028"><ele>148.0</ele><time>2026-03-29T09:09:41.612Z</time></trkpt><trkpt lat="45.3598611" lon="10.6256847"><ele>148.0</ele><time>2026-03-29T09:09:42.614Z</time></trkpt><trkpt lat="45.3599849" lon="10.6257577"><ele>148.20000000000002</ele><time>2026-03-29T09:09:43.625Z</time></trkpt><trkpt lat="45.3601089" lon="10.6258207"><ele>148.4</ele><time>2026-03-29T09:09:44.615Z</time></trkpt><trkpt lat="45.3602069" lon="10.6258718"><ele>148.60000000000002</ele><time>2026-03-29T09:09:45.621Z</time></trkpt><trkpt lat="45.3602886" lon="10.6259135"><ele>148.8</ele><time>2026-03-29T09:09:46.619Z</time></trkpt><trkpt lat="45.3603688" lon="10.6259764"><ele>149.0</ele><time>2026-03-29T09:09:47.625Z</time></trkpt><trkpt lat="45.3604575" lon="10.6260703"><ele>150.0</ele><time>2026-03-29T09:09:48.625Z</time></trkpt><trkpt lat="45.3605426" lon="10.6261792"><ele>151.0</ele><time>2026-03-29T09:09:49.625Z</time></trkpt><trkpt lat="45.3606359" lon="10.6262894"><ele>152.0</ele><time>2026-03-29T09:09:50.628Z</time></trkpt><trkpt lat="45.360747" lon="10.6263949"><ele>153.0</ele><time>2026-03-29T09:09:51.624Z</time></trkpt><trkpt lat="45.3608487" lon="10.626487"><ele>153.0</ele><time>2026-03-29T09:09:52.647Z</time></trkpt><trkpt lat="45.360945" lon="10.6265824"><ele>153.0</ele><time>2026-03-29T09:09:53.623Z</time></trkpt><trkpt lat="45.3610344" lon="10.6266632"><ele>153.0</ele><time>2026-03-29T09:09:54.626Z</time></trkpt><trkpt lat="45.3611137" lon="10.6267498"><ele>153.0</ele><time>2026-03-29T09:09:55.633Z</time></trkpt><trkpt lat="45.3611867" lon="10.6268296"><ele>153.0</ele><time>2026-03-29T09:09:56.621Z</time></trkpt><trkpt lat="45.3612565" lon="10.6269082"><ele>153.0</ele><time>2026-03-29T09:09:57.631Z</time></trkpt><trkpt lat="45.3613433" lon="10.6269972"><ele>153.0</ele><time>2026-03-29T09:09:58.628Z</time></trkpt><trkpt lat="45.3614424" lon="10.6270828"><ele>153.0</ele><time>2026-03-29T09:09:59.623Z</time></trkpt><trkpt lat="45.3615547" lon="10.6271666"><ele>153.0</ele><time>2026-03-29T09:10:00.621Z</time></trkpt><trkpt lat="45.3616675" lon="10.6272438"><ele>153.0</ele><time>2026-03-29T09:10:01.627Z</time></trkpt><trkpt lat="45.3617713" lon="10.627317"><ele>153.0</ele><time>2026-03-29T09:10:02.613Z</time></trkpt><trkpt lat="45.3618653" lon="10.6273931"><ele>153.0</ele><time>2026-03-29T09:10:03.624Z</time></trkpt><trkpt lat="45.3619682" lon="10.6274619"><ele>153.0</ele><time>2026-03-29T09:10:04.61Z</time></trkpt><trkpt lat="45.3620696" lon="10.6275082"><ele>153.0</ele><time>2026-03-29T09:10:05.622Z</time></trkpt><trkpt lat="45.3621624" lon="10.6275393"><ele>153.0</ele><time>2026-03-29T09:10:06.618Z</time></trkpt><trkpt lat="45.3622494" lon="10.6275704"><ele>153.0</ele><time>2026-03-29T09:10:07.624Z</time></trkpt><trkpt lat="45.3623194" lon="10.6275893"><ele>153.0</ele><time>2026-03-29T09:10:08.63Z</time></trkpt><trkpt lat="45.3624373" lon="10.6276336"><ele>153.0</ele><time>2026-03-29T09:10:10.621Z</time></trkpt><trkpt lat="45.362553" lon="10.6276597"><ele>153.0</ele><time>2026-03-29T09:10:12.624Z</time></trkpt><trkpt lat="45.3626635" lon="10.627614"><ele>153.0</ele><time>2026-03-29T09:10:14.625Z</time></trkpt><trkpt lat="45.3627185" lon="10.6275299"><ele>153.0</ele><time>2026-03-29T09:10:15.617Z</time></trkpt><trkpt lat="45.3627822" lon="10.6274324"><ele>153.0</ele><time>2026-03-29T09:10:16.62Z</time></trkpt><trkpt lat="45.3628521" lon="10.6273316"><ele>153.0</ele><time>2026-03-29T09:10:17.611Z</time></trkpt><trkpt lat="45.3629234" lon="10.6272676"><ele>153.0</ele><time>2026-03-29T09:10:18.621Z</time></trkpt><trkpt lat="45.3629921" lon="10.6272259"><ele>153.0</ele><time>2026-03-29T09:10:19.624Z</time></trkpt><trkpt lat="45.363056" lon="10.6271972"><ele>152.83333333333334</ele><time>2026-03-29T09:10:20.611Z</time></trkpt><trkpt lat="45.363135" lon="10.6271742"><ele>152.66666666666666</ele><time>2026-03-29T09:10:22.611Z</time></trkpt><trkpt lat="45.3631668" lon="10.6270804"><ele>152.5</ele><time>2026-03-29T09:10:24.619Z</time></trkpt><trkpt lat="45.3631523" lon="10.6269029"><ele>152.33333333333331</ele><time>2026-03-29T09:10:26.609Z</time></trkpt><trkpt lat="45.3631263" lon="10.6268047"><ele>152.16666666666666</ele><time>2026-03-29T09:10:27.612Z</time></trkpt><trkpt lat="45.3631129" lon="10.6266925"><ele>152.0</ele><time>2026-03-29T09:10:28.608Z</time></trkpt><trkpt lat="45.3631007" lon="10.6265459"><ele>152.0</ele><time>2026-03-29T09:10:29.606Z</time></trkpt><trkpt lat="45.3630906" lon="10.6263964"><ele>152.0</ele><time>2026-03-29T09:10:30.605Z</time></trkpt><trkpt lat="45.3630783" lon="10.6262653"><ele>152.0</ele><time>2026-03-29T09:10:31.606Z</time></trkpt><trkpt lat="45.3630635" lon="10.6261642"><ele>152.0</ele><time>2026-03-29T09:10:32.609Z</time></trkpt><trkpt lat="45.363042" lon="10.6259878"><ele>152.0</ele><time>2026-03-29T09:10:34.614Z</time></trkpt><trkpt lat="45.3630479" lon="10.6258824"><ele>151.6</ele><time>2026-03-29T09:10:35.609Z</time></trkpt><trkpt lat="45.3630584" lon="10.6257615"><ele>151.2</ele><time>2026-03-29T09:10:36.607Z</time></trkpt><trkpt lat="45.3630854" lon="10.6256359"><ele>150.8</ele><time>2026-03-29T09:10:37.603Z</time></trkpt><trkpt lat="45.3631122" lon="10.6255143"><ele>150.4</ele><time>2026-03-29T09:10:38.607Z</time></trkpt><trkpt lat="45.3631584" lon="10.6253947"><ele>150.0</ele><time>2026-03-29T09:10:39.61Z</time></trkpt><trkpt lat="45.3632048" lon="10.625282"><ele>150.0</ele><time>2026-03-29T09:10:40.614Z</time></trkpt><trkpt lat="45.3632596" lon="10.6251761"><ele>150.0</ele><time>2026-03-29T09:10:41.617Z</time></trkpt><trkpt lat="45.3633112" lon="10.6250883"><ele>150.0</ele><time>2026-03-29T09:10:42.612Z</time></trkpt><trkpt lat="45.3633676" lon="10.625005"><ele>150.0</ele><time>2026-03-29T09:10:43.611Z</time></trkpt><trkpt lat="45.3634169" lon="10.6249054"><ele>150.0</ele><time>2026-03-29T09:10:44.609Z</time></trkpt><trkpt lat="45.363464" lon="10.6248054"><ele>150.0</ele><time>2026-03-29T09:10:45.616Z</time></trkpt><trkpt lat="45.3635046" lon="10.6246984"><ele>150.0</ele><time>2026-03-29T09:10:46.617Z</time></trkpt><trkpt lat="45.363546" lon="10.624596"><ele>150.0</ele><time>2026-03-29T09:10:47.616Z</time></trkpt><trkpt lat="45.3635857" lon="10.6245052"><ele>150.0</ele><time>2026-03-29T09:10:48.617Z</time></trkpt><trkpt lat="45.3636221" lon="10.6244209"><ele>150.0</ele><time>2026-03-29T09:10:49.618Z</time></trkpt><trkpt lat="45.3636798" lon="10.6242676"><ele>150.0</ele><time>2026-03-29T09:10:51.618Z</time></trkpt><trkpt lat="45.3637313" lon="10.6241593"><ele>150.0</ele><time>2026-03-29T09:10:52.618Z</time></trkpt><trkpt lat="45.3637881" lon="10.6240452"><ele>149.6</ele><time>2026-03-29T09:10:53.621Z</time></trkpt><trkpt lat="45.3638503" lon="10.623924"><ele>149.2</ele><time>2026-03-29T09:10:54.62Z</time></trkpt><trkpt lat="45.3639071" lon="10.6238069"><ele>148.8</ele><time>2026-03-29T09:10:55.616Z</time></trkpt><trkpt lat="45.3639621" lon="10.6237014"><ele>148.4</ele><time>2026-03-29T09:10:56.614Z</time></trkpt><trkpt lat="45.3640241" lon="10.6236137"><ele>148.0</ele><time>2026-03-29T09:10:57.611Z</time></trkpt><trkpt lat="45.3640889" lon="10.6235298"><ele>148.0</ele><time>2026-03-29T09:10:58.613Z</time></trkpt><trkpt lat="45.3641514" lon="10.6234461"><ele>148.0</ele><time>2026-03-29T09:10:59.616Z</time></trkpt><trkpt lat="45.36421" lon="10.6233618"><ele>148.0</ele><time>2026-03-29T09:11:00.619Z</time></trkpt><trkpt lat="45.3642551" lon="10.623292"><ele>148.0</ele><time>2026-03-29T09:11:01.613Z</time></trkpt><trkpt lat="45.3642993" lon="10.623186"><ele>148.0</ele><time>2026-03-29T09:11:03.616Z</time></trkpt><trkpt lat="45.3642708" lon="10.6230827"><ele>148.0</ele><time>2026-03-29T09:11:05.614Z</time></trkpt><trkpt lat="45.3642433" lon="10.6230017"><ele>148.0</ele><time>2026-03-29T09:11:06.615Z</time></trkpt><trkpt lat="45.364189" lon="10.6229001"><ele>148.0</ele><time>2026-03-29T09:11:08.614Z</time></trkpt><trkpt lat="45.3641346" lon="10.6227439"><ele>148.0</ele><time>2026-03-29T09:11:10.614Z</time></trkpt><trkpt lat="45.3640971" lon="10.6226491"><ele>148.0</ele><time>2026-03-29T09:11:11.616Z</time></trkpt><trkpt lat="45.3640648" lon="10.6225487"><ele>148.0</ele><time>2026-03-29T09:11:12.603Z</time></trkpt><trkpt lat="45.3640342" lon="10.6224488"><ele>148.0</ele><time>2026-03-29T09:11:13.606Z</time></trkpt><trkpt lat="45.3639898" lon="10.6223291"><ele>147.5</ele><time>2026-03-29T09:11:14.608Z</time></trkpt><trkpt lat="45.3639512" lon="10.6222261"><ele>147.0</ele><time>2026-03-29T09:11:15.606Z</time></trkpt><trkpt lat="45.3639246" lon="10.6221124"><ele>146.5</ele><time>2026-03-29T09:11:16.6Z</time></trkpt><trkpt lat="45.3639048" lon="10.6219764"><ele>146.0</ele><time>2026-03-29T09:11:17.618Z</time></trkpt><trkpt lat="45.3638987" lon="10.6218502"><ele>145.5</ele><time>2026-03-29T09:11:18.62Z</time></trkpt><trkpt lat="45.3639033" lon="10.6217242"><ele>145.0</ele><time>2026-03-29T09:11:19.62Z</time></trkpt><trkpt lat="45.3639243" lon="10.6215934"><ele>145.0</ele><time>2026-03-29T09:11:20.626Z</time></trkpt><trkpt lat="45.3639535" lon="10.6214528"><ele>145.0</ele><time>2026-03-29T09:11:21.627Z</time></trkpt><trkpt lat="45.3639773" lon="10.6213282"><ele>145.0</ele><time>2026-03-29T09:11:22.623Z</time></trkpt><trkpt lat="45.3639893" lon="10.6212248"><ele>145.0</ele><time>2026-03-29T09:11:23.621Z</time></trkpt><trkpt lat="45.3639876" lon="10.6211297"><ele>145.0</ele><time>2026-03-29T09:11:24.628Z</time></trkpt><trkpt lat="45.3639785" lon="10.6210143"><ele>145.0</ele><time>2026-03-29T09:11:25.63Z</time></trkpt><trkpt lat="45.3639616" lon="10.6208909"><ele>145.0</ele><time>2026-03-29T09:11:26.627Z</time></trkpt><trkpt lat="45.3639341" lon="10.6207624"><ele>145.0</ele><time>2026-03-29T09:11:27.63Z</time></trkpt><trkpt lat="45.3639165" lon="10.620652"><ele>145.0</ele><time>2026-03-29T09:11:28.63Z</time></trkpt><trkpt lat="45.3638667" lon="10.6204983"><ele>145.0</ele><time>2026-03-29T09:11:30.624Z</time></trkpt><trkpt lat="45.3638305" lon="10.6204237"><ele>145.0</ele><time>2026-03-29T09:11:31.624Z</time></trkpt><trkpt lat="45.3637773" lon="10.6203576"><ele>145.0</ele><time>2026-03-29T09:11:32.624Z</time></trkpt><trkpt lat="45.3637207" lon="10.6202783"><ele>146.4</ele><time>2026-03-29T09:11:33.615Z</time></trkpt><trkpt lat="45.3636804" lon="10.620168"><ele>147.8</ele><time>2026-03-29T09:11:34.609Z</time></trkpt><trkpt lat="45.3636534" lon="10.6200311"><ele>149.2</ele><time>2026-03-29T09:11:35.628Z</time></trkpt><trkpt lat="45.3636457" lon="10.6198668"><ele>150.6</ele><time>2026-03-29T09:11:36.613Z</time></trkpt><trkpt lat="45.3636427" lon="10.6196874"><ele>152.0</ele><time>2026-03-29T09:11:37.63Z</time></trkpt><trkpt lat="45.3636338" lon="10.619514"><ele>152.2</ele><time>2026-03-29T09:11:38.619Z</time></trkpt><trkpt lat="45.3636141" lon="10.6193785"><ele>152.39999999999998</ele><time>2026-03-29T09:11:39.611Z</time></trkpt><trkpt lat="45.3635972" lon="10.6192724"><ele>152.60000000000002</ele><time>2026-03-29T09:11:40.613Z</time></trkpt><trkpt lat="45.3636058" lon="10.6191114"><ele>152.8</ele><time>2026-03-29T09:11:42.622Z</time></trkpt><trkpt lat="45.3636452" lon="10.6189907"><ele>153.0</ele><time>2026-03-29T09:11:43.622Z</time></trkpt><trkpt lat="45.3637077" lon="10.6188395"><ele>153.0</ele><time>2026-03-29T09:11:44.621Z</time></trkpt><trkpt lat="45.3637762" lon="10.6186804"><ele>153.0</ele><time>2026-03-29T09:11:45.62Z</time></trkpt><trkpt lat="45.3638443" lon="10.6185007"><ele>153.0</ele><time>2026-03-29T09:11:46.627Z</time></trkpt><trkpt lat="45.3639219" lon="10.6183202"><ele>153.0</ele><time>2026-03-29T09:11:47.63Z</time></trkpt><trkpt lat="45.363989" lon="10.6181284"><ele>151.0</ele><time>2026-03-29T09:11:48.618Z</time></trkpt><trkpt lat="45.3640591" lon="10.6179184"><ele>149.0</ele><time>2026-03-29T09:11:49.625Z</time></trkpt><trkpt lat="45.3641261" lon="10.617728"><ele>147.0</ele><time>2026-03-29T09:11:50.619Z</time></trkpt><trkpt lat="45.3641888" lon="10.6175347"><ele>147.0</ele><time>2026-03-29T09:11:51.62Z</time></trkpt><trkpt lat="45.3642363" lon="10.6173833"><ele>147.0</ele><time>2026-03-29T09:11:52.626Z</time></trkpt><trkpt lat="45.3642782" lon="10.6172198"><ele>147.0</ele><time>2026-03-29T09:11:53.642Z</time></trkpt><trkpt lat="45.364337" lon="10.6170618"><ele>147.0</ele><time>2026-03-29T09:11:54.629Z</time></trkpt><trkpt lat="45.3643883" lon="10.6169314"><ele>146.66666666666666</ele><time>2026-03-29T09:11:55.637Z</time></trkpt><trkpt lat="45.3644172" lon="10.6168243"><ele>146.33333333333334</ele><time>2026-03-29T09:11:56.627Z</time></trkpt><trkpt lat="45.36445" lon="10.6167396"><ele>146.0</ele><time>2026-03-29T09:11:57.618Z</time></trkpt><trkpt lat="45.3645272" lon="10.6166213"><ele>145.66666666666669</ele><time>2026-03-29T09:11:59.622Z</time></trkpt><trkpt lat="45.3645912" lon="10.6166069"><ele>145.33333333333334</ele><time>2026-03-29T09:12:00.617Z</time></trkpt><trkpt lat="45.3646817" lon="10.6166311"><ele>145.0</ele><time>2026-03-29T09:12:01.622Z</time></trkpt><trkpt lat="45.3647675" lon="10.6166414"><ele>144.33333333333334</ele><time>2026-03-29T09:12:02.627Z</time></trkpt><trkpt lat="45.3648448" lon="10.6166467"><ele>143.66666666666669</ele><time>2026-03-29T09:12:03.622Z</time></trkpt><trkpt lat="45.3649292" lon="10.6166102"><ele>143.0</ele><time>2026-03-29T09:12:05.626Z</time></trkpt><trkpt lat="45.3649766" lon="10.6164853"><ele>142.33333333333334</ele><time>2026-03-29T09:12:08.628Z</time></trkpt><trkpt lat="45.3649698" lon="10.6163731"><ele>141.66666666666666</ele><time>2026-03-29T09:12:09.624Z</time></trkpt><trkpt lat="45.3649537" lon="10.6162524"><ele>141.0</ele><time>2026-03-29T09:12:10.621Z</time></trkpt><trkpt lat="45.3649337" lon="10.6161597"><ele>140.4</ele><time>2026-03-29T09:12:11.612Z</time></trkpt><trkpt lat="45.3649411" lon="10.6160163"><ele>139.8</ele><time>2026-03-29T09:12:13.626Z</time></trkpt><trkpt lat="45.3650218" lon="10.6158936"><ele>139.20000000000002</ele><time>2026-03-29T09:12:15.634Z</time></trkpt><trkpt lat="45.3650914" lon="10.6157826"><ele>138.6</ele><time>2026-03-29T09:12:17.639Z</time></trkpt><trkpt lat="45.3651016" lon="10.6156092"><ele>138.0</ele><time>2026-03-29T09:12:19.629Z</time></trkpt><trkpt lat="45.3650938" lon="10.6154878"><ele>138.25</ele><time>2026-03-29T09:12:20.63Z</time></trkpt><trkpt lat="45.3650645" lon="10.6153058"><ele>138.5</ele><time>2026-03-29T09:12:21.624Z</time></trkpt><trkpt lat="45.365042" lon="10.6151159"><ele>138.75</ele><time>2026-03-29T09:12:22.633Z</time></trkpt><trkpt lat="45.3650186" lon="10.6149522"><ele>139.0</ele><time>2026-03-29T09:12:23.634Z</time></trkpt><trkpt lat="45.3650199" lon="10.6148053"><ele>139.0</ele><time>2026-03-29T09:12:24.634Z</time></trkpt><trkpt lat="45.3650192" lon="10.6146657"><ele>139.0</ele><time>2026-03-29T09:12:25.629Z</time></trkpt><trkpt lat="45.3650198" lon="10.6145168"><ele>139.0</ele><time>2026-03-29T09:12:26.637Z</time></trkpt><trkpt lat="45.3650199" lon="10.614368"><ele>139.0</ele><time>2026-03-29T09:12:27.631Z</time></trkpt><trkpt lat="45.3650201" lon="10.6142156"><ele>139.0</ele><time>2026-03-29T09:12:28.637Z</time></trkpt><trkpt lat="45.365008" lon="10.6140856"><ele>138.83333333333334</ele><time>2026-03-29T09:12:29.623Z</time></trkpt><trkpt lat="45.3649929" lon="10.6139757"><ele>138.66666666666669</ele><time>2026-03-29T09:12:30.632Z</time></trkpt><trkpt lat="45.3649876" lon="10.6138754"><ele>138.5</ele><time>2026-03-29T09:12:31.635Z</time></trkpt><trkpt lat="45.3649888" lon="10.6137712"><ele>138.33333333333334</ele><time>2026-03-29T09:12:32.625Z</time></trkpt><trkpt lat="45.3650117" lon="10.613663"><ele>138.16666666666666</ele><time>2026-03-29T09:12:33.634Z</time></trkpt><trkpt lat="45.3650459" lon="10.6135335"><ele>138.0</ele><time>2026-03-29T09:12:34.636Z</time></trkpt><trkpt lat="45.3650724" lon="10.6133974"><ele>138.4</ele><time>2026-03-29T09:12:35.63Z</time></trkpt><trkpt lat="45.365081" lon="10.6132628"><ele>138.8</ele><time>2026-03-29T09:12:36.634Z</time></trkpt><trkpt lat="45.3650789" lon="10.6131353"><ele>139.2</ele><time>2026-03-29T09:12:37.632Z</time></trkpt><trkpt lat="45.3650502" lon="10.6129972"><ele>139.6</ele><time>2026-03-29T09:12:38.63Z</time></trkpt><trkpt lat="45.3650094" lon="10.6128566"><ele>140.0</ele><time>2026-03-29T09:12:39.636Z</time></trkpt><trkpt lat="45.3649621" lon="10.6127146"><ele>140.0</ele><time>2026-03-29T09:12:40.63Z</time></trkpt><trkpt lat="45.3649052" lon="10.6125611"><ele>140.0</ele><time>2026-03-29T09:12:41.635Z</time></trkpt><trkpt lat="45.3648288" lon="10.6124128"><ele>140.0</ele><time>2026-03-29T09:12:42.631Z</time></trkpt><trkpt lat="45.3647434" lon="10.6122689"><ele>140.0</ele><time>2026-03-29T09:12:43.632Z</time></trkpt><trkpt lat="45.3646741" lon="10.6121335"><ele>141.0</ele><time>2026-03-29T09:12:44.63Z</time></trkpt><trkpt lat="45.3646189" lon="10.6119827"><ele>142.0</ele><time>2026-03-29T09:12:45.622Z</time></trkpt><trkpt lat="45.364583" lon="10.6117983"><ele>143.0</ele><time>2026-03-29T09:12:46.619Z</time></trkpt><trkpt lat="45.3645559" lon="10.6115879"><ele>144.0</ele><time>2026-03-29T09:12:47.625Z</time></trkpt><trkpt lat="45.3645262" lon="10.6113515"><ele>142.8</ele><time>2026-03-29T09:12:48.621Z</time></trkpt><trkpt lat="45.3645044" lon="10.6111501"><ele>141.60000000000002</ele><time>2026-03-29T09:12:49.636Z</time></trkpt><trkpt lat="45.3644853" lon="10.610976"><ele>140.4</ele><time>2026-03-29T09:12:50.626Z</time></trkpt><trkpt lat="45.3644781" lon="10.61087"><ele>139.20000000000002</ele><time>2026-03-29T09:12:51.621Z</time></trkpt><trkpt lat="45.3644668" lon="10.6107618"><ele>138.0</ele><time>2026-03-29T09:12:52.622Z</time></trkpt><trkpt lat="45.3644806" lon="10.6106074"><ele>138.0</ele><time>2026-03-29T09:12:54.627Z</time></trkpt><trkpt lat="45.3645237" lon="10.6105065"><ele>138.0</ele><time>2026-03-29T09:12:57.631Z</time></trkpt><trkpt lat="45.3646417" lon="10.6105016"><ele>138.0</ele><time>2026-03-29T09:12:59.629Z</time></trkpt><trkpt lat="45.364746" lon="10.610551"><ele>138.0</ele><time>2026-03-29T09:13:00.62Z</time></trkpt><trkpt lat="45.364885" lon="10.6106081"><ele>137.0</ele><time>2026-03-29T09:13:01.624Z</time></trkpt><trkpt lat="45.3650393" lon="10.6106681"><ele>136.0</ele><time>2026-03-29T09:13:02.617Z</time></trkpt><trkpt lat="45.3652142" lon="10.6107094"><ele>135.0</ele><time>2026-03-29T09:13:03.62Z</time></trkpt><trkpt lat="45.3654201" lon="10.6107548"><ele>136.33333333333334</ele><time>2026-03-29T09:13:04.629Z</time></trkpt><trkpt lat="45.3656101" lon="10.6107933"><ele>137.66666666666669</ele><time>2026-03-29T09:13:05.627Z</time></trkpt><trkpt lat="45.365767" lon="10.6108248"><ele>139.0</ele><time>2026-03-29T09:13:06.638Z</time></trkpt><trkpt lat="45.3659296" lon="10.6108366"><ele>139.0</ele><time>2026-03-29T09:13:08.706Z</time></trkpt><trkpt lat="45.3661067" lon="10.6108451"><ele>139.0</ele><time>2026-03-29T09:13:09.704Z</time></trkpt><trkpt lat="45.3662719" lon="10.6108539"><ele>139.0</ele><time>2026-03-29T09:13:10.698Z</time></trkpt><trkpt lat="45.3664155" lon="10.6108627"><ele>139.2</ele><time>2026-03-29T09:13:11.696Z</time></trkpt><trkpt lat="45.3665289" lon="10.6108691"><ele>139.4</ele><time>2026-03-29T09:13:12.7Z</time></trkpt><trkpt lat="45.3666323" lon="10.6108748"><ele>139.6</ele><time>2026-03-29T09:13:13.7Z</time></trkpt><trkpt lat="45.3667111" lon="10.6108822"><ele>139.8</ele><time>2026-03-29T09:13:14.693Z</time></trkpt><trkpt lat="45.3667806" lon="10.6108764"><ele>140.0</ele><time>2026-03-29T09:13:15.694Z</time></trkpt><trkpt lat="45.3668605" lon="10.6107875"><ele>140.0</ele><time>2026-03-29T09:13:17.69Z</time></trkpt><trkpt lat="45.3668893" lon="10.6106994"><ele>140.0</ele><time>2026-03-29T09:13:18.694Z</time></trkpt><trkpt lat="45.3669268" lon="10.6105999"><ele>140.0</ele><time>2026-03-29T09:13:19.689Z</time></trkpt><trkpt lat="45.3669604" lon="10.6104411"><ele>140.0</ele><time>2026-03-29T09:13:20.692Z</time></trkpt><trkpt lat="45.3669968" lon="10.6102774"><ele>140.0</ele><time>2026-03-29T09:13:21.709Z</time></trkpt><trkpt lat="45.3670445" lon="10.6099855"><ele>139.66666666666666</ele><time>2026-03-29T09:13:22.714Z</time></trkpt><trkpt lat="45.3670911" lon="10.6097323"><ele>139.33333333333334</ele><time>2026-03-29T09:13:23.711Z</time></trkpt><trkpt lat="45.3671385" lon="10.6094986"><ele>139.0</ele><time>2026-03-29T09:13:24.712Z</time></trkpt><trkpt lat="45.3671768" lon="10.6092903"><ele>139.5</ele><time>2026-03-29T09:13:25.712Z</time></trkpt><trkpt lat="45.3672119" lon="10.609104"><ele>140.0</ele><time>2026-03-29T09:13:26.708Z</time></trkpt><trkpt lat="45.3672405" lon="10.6089471"><ele>140.5</ele><time>2026-03-29T09:13:27.717Z</time></trkpt><trkpt lat="45.3672648" lon="10.6088014"><ele>141.0</ele><time>2026-03-29T09:13:28.715Z</time></trkpt><trkpt lat="45.3672923" lon="10.6086426"><ele>141.2</ele><time>2026-03-29T09:13:29.707Z</time></trkpt><trkpt lat="45.3673158" lon="10.6085007"><ele>141.39999999999998</ele><time>2026-03-29T09:13:30.707Z</time></trkpt><trkpt lat="45.3673375" lon="10.6083618"><ele>141.6</ele><time>2026-03-29T09:13:31.706Z</time></trkpt><trkpt lat="45.3673561" lon="10.608244"><ele>141.79999999999998</ele><time>2026-03-29T09:13:32.711Z</time></trkpt><trkpt lat="45.3673838" lon="10.6081232"><ele>142.0</ele><time>2026-03-29T09:13:33.706Z</time></trkpt><trkpt lat="45.3674092" lon="10.6080088"><ele>142.0</ele><time>2026-03-29T09:13:34.717Z</time></trkpt><trkpt lat="45.367434" lon="10.6079062"><ele>142.0</ele><time>2026-03-29T09:13:35.709Z</time></trkpt><trkpt lat="45.3674581" lon="10.6078074"><ele>142.0</ele><time>2026-03-29T09:13:36.71Z</time></trkpt><trkpt lat="45.3674832" lon="10.6077118"><ele>142.0</ele><time>2026-03-29T09:13:37.706Z</time></trkpt><trkpt lat="45.3675079" lon="10.6076277"><ele>142.0</ele><time>2026-03-29T09:13:38.708Z</time></trkpt><trkpt lat="45.3675624" lon="10.6075148"><ele>142.0</ele><time>2026-03-29T09:13:40.696Z</time></trkpt><trkpt lat="45.3676674" lon="10.6074766"><ele>141.79999999999998</ele><time>2026-03-29T09:13:42.694Z</time></trkpt><trkpt lat="45.3677986" lon="10.6075171"><ele>141.6</ele><time>2026-03-29T09:13:44.685Z</time></trkpt><trkpt lat="45.3678664" lon="10.6075509"><ele>141.39999999999998</ele><time>2026-03-29T09:13:45.696Z</time></trkpt><trkpt lat="45.3679539" lon="10.6076029"><ele>141.2</ele><time>2026-03-29T09:13:46.688Z</time></trkpt><trkpt lat="45.3680352" lon="10.6076448"><ele>141.0</ele><time>2026-03-29T09:13:47.686Z</time></trkpt><trkpt lat="45.368108" lon="10.6076723"><ele>139.6</ele><time>2026-03-29T09:13:48.698Z</time></trkpt><trkpt lat="45.3681808" lon="10.6076778"><ele>138.2</ele><time>2026-03-29T09:13:49.7Z</time></trkpt><trkpt lat="45.3682564" lon="10.6076516"><ele>136.8</ele><time>2026-03-29T09:13:50.693Z</time></trkpt><trkpt lat="45.3683416" lon="10.607619"><ele>135.4</ele><time>2026-03-29T09:13:51.699Z</time></trkpt><trkpt lat="45.3684269" lon="10.6075422"><ele>134.0</ele><time>2026-03-29T09:13:52.684Z</time></trkpt><trkpt lat="45.3685146" lon="10.6074363"><ele>134.0</ele><time>2026-03-29T09:13:53.695Z</time></trkpt><trkpt lat="45.3685977" lon="10.6073164"><ele>134.0</ele><time>2026-03-29T09:13:54.702Z</time></trkpt><trkpt lat="45.3686642" lon="10.6071985"><ele>134.0</ele><time>2026-03-29T09:13:55.697Z</time></trkpt><trkpt lat="45.368721" lon="10.6070796"><ele>134.0</ele><time>2026-03-29T09:13:56.702Z</time></trkpt><trkpt lat="45.3687608" lon="10.6069898"><ele>134.0</ele><time>2026-03-29T09:13:57.697Z</time></trkpt><trkpt lat="45.3687982" lon="10.6069076"><ele>134.6</ele><time>2026-03-29T09:13:58.701Z</time></trkpt><trkpt lat="45.368855" lon="10.6068361"><ele>135.2</ele><time>2026-03-29T09:14:00.683Z</time></trkpt><trkpt lat="45.3689369" lon="10.6068273"><ele>135.79999999999998</ele><time>2026-03-29T09:14:02.689Z</time></trkpt><trkpt lat="45.3690355" lon="10.6068482"><ele>136.4</ele><time>2026-03-29T09:14:04.708Z</time></trkpt><trkpt lat="45.3691092" lon="10.6068944"><ele>137.0</ele><time>2026-03-29T09:14:05.704Z</time></trkpt><trkpt lat="45.3693363" lon="10.6070536"><ele>134.5</ele><time>2026-03-29T09:14:07.598Z</time></trkpt><trkpt lat="45.3694198" lon="10.6071352"><ele>132.0</ele><time>2026-03-29T09:14:08.596Z</time></trkpt><trkpt lat="45.3695058" lon="10.6071683"><ele>129.5</ele><time>2026-03-29T09:14:09.601Z</time></trkpt><trkpt lat="45.3695781" lon="10.6071918"><ele>127.0</ele><time>2026-03-29T09:14:10.618Z</time></trkpt><trkpt lat="45.3696408" lon="10.6072002"><ele>124.49999999999999</ele><time>2026-03-29T09:14:11.617Z</time></trkpt><trkpt lat="45.3697142" lon="10.607283"><ele>122.0</ele><time>2026-03-29T09:14:13.61Z</time></trkpt><trkpt lat="45.3697303" lon="10.6074724"><ele>120.75</ele><time>2026-03-29T09:14:15.623Z</time></trkpt><trkpt lat="45.3697233" lon="10.6076506"><ele>119.5</ele><time>2026-03-29T09:14:16.615Z</time></trkpt><trkpt lat="45.3697195" lon="10.6078232"><ele>118.25</ele><time>2026-03-29T09:14:17.62Z</time></trkpt><trkpt lat="45.3697361" lon="10.6079735"><ele>117.0</ele><time>2026-03-29T09:14:18.612Z</time></trkpt><trkpt lat="45.3697701" lon="10.6081225"><ele>117.0</ele><time>2026-03-29T09:14:19.613Z</time></trkpt><trkpt lat="45.3698123" lon="10.6082685"><ele>117.0</ele><time>2026-03-29T09:14:20.613Z</time></trkpt><trkpt lat="45.3698553" lon="10.6084141"><ele>117.0</ele><time>2026-03-29T09:14:21.614Z</time></trkpt><trkpt lat="45.3698919" lon="10.6085643"><ele>117.0</ele><time>2026-03-29T09:14:22.61Z</time></trkpt><trkpt lat="45.3699189" lon="10.6087336"><ele>118.75</ele><time>2026-03-29T09:14:23.606Z</time></trkpt><trkpt lat="45.3699305" lon="10.6089315"><ele>120.5</ele><time>2026-03-29T09:14:24.612Z</time></trkpt><trkpt lat="45.3699405" lon="10.6091284"><ele>122.25</ele><time>2026-03-29T09:14:25.608Z</time></trkpt><trkpt lat="45.3699563" lon="10.6093145"><ele>124.0</ele><time>2026-03-29T09:14:26.618Z</time></trkpt><trkpt lat="45.3699856" lon="10.6094991"><ele>124.75</ele><time>2026-03-29T09:14:27.607Z</time></trkpt><trkpt lat="45.370015" lon="10.6096731"><ele>125.5</ele><time>2026-03-29T09:14:28.607Z</time></trkpt><trkpt lat="45.3700536" lon="10.6098302"><ele>126.25</ele><time>2026-03-29T09:14:29.597Z</time></trkpt><trkpt lat="45.3701017" lon="10.6099666"><ele>127.0</ele><time>2026-03-29T09:14:30.613Z</time></trkpt><trkpt lat="45.3701397" lon="10.6101133"><ele>127.0</ele><time>2026-03-29T09:14:31.62Z</time></trkpt><trkpt lat="45.3701783" lon="10.6102766"><ele>127.0</ele><time>2026-03-29T09:14:32.619Z</time></trkpt><trkpt lat="45.370212" lon="10.6104372"><ele>127.0</ele><time>2026-03-29T09:14:33.622Z</time></trkpt><trkpt lat="45.370253" lon="10.6106008"><ele>127.0</ele><time>2026-03-29T09:14:34.619Z</time></trkpt><trkpt lat="45.3702986" lon="10.6107662"><ele>127.25</ele><time>2026-03-29T09:14:35.622Z</time></trkpt><trkpt lat="45.3703479" lon="10.6109216"><ele>127.5</ele><time>2026-03-29T09:14:36.622Z</time></trkpt><trkpt lat="45.3703914" lon="10.611081"><ele>127.75</ele><time>2026-03-29T09:14:37.621Z</time></trkpt><trkpt lat="45.3704371" lon="10.611241"><ele>128.0</ele><time>2026-03-29T09:14:38.618Z</time></trkpt><trkpt lat="45.3704826" lon="10.6114008"><ele>127.80000000000001</ele><time>2026-03-29T09:14:39.624Z</time></trkpt><trkpt lat="45.370516" lon="10.6115376"><ele>127.60000000000001</ele><time>2026-03-29T09:14:40.614Z</time></trkpt><trkpt lat="45.3705468" lon="10.6116615"><ele>127.39999999999999</ele><time>2026-03-29T09:14:41.615Z</time></trkpt><trkpt lat="45.3705768" lon="10.6117661"><ele>127.19999999999999</ele><time>2026-03-29T09:14:42.621Z</time></trkpt><trkpt lat="45.3705936" lon="10.6119103"><ele>127.0</ele><time>2026-03-29T09:14:44.619Z</time></trkpt><trkpt lat="45.3706009" lon="10.6121068"><ele>125.83333333333334</ele><time>2026-03-29T09:14:46.617Z</time></trkpt><trkpt lat="45.3706008" lon="10.6122348"><ele>124.66666666666667</ele><time>2026-03-29T09:14:47.617Z</time></trkpt><trkpt lat="45.3705866" lon="10.6123693"><ele>123.5</ele><time>2026-03-29T09:14:48.618Z</time></trkpt><trkpt lat="45.3705769" lon="10.6125062"><ele>122.33333333333334</ele><time>2026-03-29T09:14:49.621Z</time></trkpt><trkpt lat="45.370566" lon="10.6126298"><ele>121.16666666666667</ele><time>2026-03-29T09:14:50.61Z</time></trkpt><trkpt lat="45.3705621" lon="10.6127366"><ele>120.0</ele><time>2026-03-29T09:14:51.623Z</time></trkpt><trkpt lat="45.3705684" lon="10.6128313"><ele>119.16666666666667</ele><time>2026-03-29T09:14:52.625Z</time></trkpt><trkpt lat="45.3705916" lon="10.6129195"><ele>118.33333333333334</ele><time>2026-03-29T09:14:53.627Z</time></trkpt><trkpt lat="45.3706415" lon="10.6129984"><ele>117.5</ele><time>2026-03-29T09:14:54.619Z</time></trkpt><trkpt lat="45.3707088" lon="10.6130646"><ele>116.66666666666667</ele><time>2026-03-29T09:14:55.623Z</time></trkpt><trkpt lat="45.3707891" lon="10.6131398"><ele>115.83333333333334</ele><time>2026-03-29T09:14:56.619Z</time></trkpt><trkpt lat="45.370897" lon="10.6132255"><ele>115.0</ele><time>2026-03-29T09:14:57.614Z</time></trkpt><trkpt lat="45.3710341" lon="10.6133185"><ele>115.0</ele><time>2026-03-29T09:14:58.617Z</time></trkpt><trkpt lat="45.3711668" lon="10.6134073"><ele>115.0</ele><time>2026-03-29T09:14:59.617Z</time></trkpt><trkpt lat="45.3713217" lon="10.6134853"><ele>115.0</ele><time>2026-03-29T09:15:00.613Z</time></trkpt><trkpt lat="45.3714379" lon="10.6135876"><ele>115.0</ele><time>2026-03-29T09:15:01.616Z</time></trkpt><trkpt lat="45.3715568" lon="10.613702"><ele>114.75</ele><time>2026-03-29T09:15:02.612Z</time></trkpt><trkpt lat="45.3716808" lon="10.6138061"><ele>114.5</ele><time>2026-03-29T09:15:03.613Z</time></trkpt><trkpt lat="45.3718065" lon="10.6139197"><ele>114.25</ele><time>2026-03-29T09:15:04.612Z</time></trkpt><trkpt lat="45.3719247" lon="10.6140144"><ele>114.0</ele><time>2026-03-29T09:15:05.621Z</time></trkpt><trkpt lat="45.3720372" lon="10.6141099"><ele>114.0</ele><time>2026-03-29T09:15:06.615Z</time></trkpt><trkpt lat="45.3721633" lon="10.6142122"><ele>114.0</ele><time>2026-03-29T09:15:07.617Z</time></trkpt><trkpt lat="45.3722642" lon="10.6142765"><ele>114.0</ele><time>2026-03-29T09:15:08.618Z</time></trkpt><trkpt lat="45.3723836" lon="10.614341"><ele>114.0</ele><time>2026-03-29T09:15:09.61Z</time></trkpt><trkpt lat="45.3725228" lon="10.6143751"><ele>113.66666666666666</ele><time>2026-03-29T09:15:10.615Z</time></trkpt><trkpt lat="45.3726943" lon="10.6143753"><ele>113.33333333333333</ele><time>2026-03-29T09:15:11.616Z</time></trkpt><trkpt lat="45.3728669" lon="10.6143614"><ele>113.0</ele><time>2026-03-29T09:15:12.622Z</time></trkpt><trkpt lat="45.3730111" lon="10.6143528"><ele>113.0</ele><time>2026-03-29T09:15:13.618Z</time></trkpt><trkpt lat="45.3731465" lon="10.6143599"><ele>113.0</ele><time>2026-03-29T09:15:14.63Z</time></trkpt><trkpt lat="45.373301" lon="10.6143939"><ele>113.0</ele><time>2026-03-29T09:15:15.62Z</time></trkpt><trkpt lat="45.3734406" lon="10.6144281"><ele>113.0</ele><time>2026-03-29T09:15:16.61Z</time></trkpt><trkpt lat="45.3735684" lon="10.6144913"><ele>113.0</ele><time>2026-03-29T09:15:17.616Z</time></trkpt><trkpt lat="45.3737154" lon="10.6145697"><ele>113.0</ele><time>2026-03-29T09:15:18.613Z</time></trkpt><trkpt lat="45.3738533" lon="10.6146526"><ele>113.0</ele><time>2026-03-29T09:15:19.618Z</time></trkpt><trkpt lat="45.3739873" lon="10.6147581"><ele>113.33333333333333</ele><time>2026-03-29T09:15:20.611Z</time></trkpt><trkpt lat="45.3741319" lon="10.6148974"><ele>113.66666666666666</ele><time>2026-03-29T09:15:21.619Z</time></trkpt><trkpt lat="45.3742815" lon="10.6150257"><ele>114.0</ele><time>2026-03-29T09:15:22.617Z</time></trkpt><trkpt lat="45.3744427" lon="10.6151526"><ele>114.0</ele><time>2026-03-29T09:15:23.623Z</time></trkpt><trkpt lat="45.3746086" lon="10.615299"><ele>114.0</ele><time>2026-03-29T09:15:24.616Z</time></trkpt><trkpt lat="45.3747442" lon="10.6154127"><ele>114.0</ele><time>2026-03-29T09:15:25.628Z</time></trkpt><trkpt lat="45.3748727" lon="10.6155148"><ele>114.25</ele><time>2026-03-29T09:15:26.622Z</time></trkpt><trkpt lat="45.3749947" lon="10.6156199"><ele>114.5</ele><time>2026-03-29T09:15:27.616Z</time></trkpt><trkpt lat="45.3751129" lon="10.6157267"><ele>114.75</ele><time>2026-03-29T09:15:28.615Z</time></trkpt><trkpt lat="45.3752425" lon="10.6158355"><ele>115.0</ele><time>2026-03-29T09:15:29.622Z</time></trkpt><trkpt lat="45.3753629" lon="10.6159321"><ele>115.0</ele><time>2026-03-29T09:15:30.62Z</time></trkpt><trkpt lat="45.3754721" lon="10.6160151"><ele>115.0</ele><time>2026-03-29T09:15:31.615Z</time></trkpt><trkpt lat="45.3755772" lon="10.6161039"><ele>115.0</ele><time>2026-03-29T09:15:32.626Z</time></trkpt><trkpt lat="45.3756709" lon="10.6161879"><ele>115.0</ele><time>2026-03-29T09:15:33.617Z</time></trkpt><trkpt lat="45.3757499" lon="10.6162633"><ele>115.33333333333334</ele><time>2026-03-29T09:15:34.623Z</time></trkpt><trkpt lat="45.3758095" lon="10.6163204"><ele>115.66666666666667</ele><time>2026-03-29T09:15:35.615Z</time></trkpt><trkpt lat="45.3758865" lon="10.6164225"><ele>116.0</ele><time>2026-03-29T09:15:37.61Z</time></trkpt><trkpt lat="45.3759508" lon="10.6164764"><ele>116.33333333333334</ele><time>2026-03-29T09:15:39.62Z</time></trkpt><trkpt lat="45.3760176" lon="10.6164609"><ele>116.66666666666667</ele><time>2026-03-29T09:15:40.611Z</time></trkpt><trkpt lat="45.3761055" lon="10.6164269"><ele>117.0</ele><time>2026-03-29T09:15:41.617Z</time></trkpt><trkpt lat="45.3762123" lon="10.6163734"><ele>117.0</ele><time>2026-03-29T09:15:42.608Z</time></trkpt><trkpt lat="45.3763195" lon="10.6163212"><ele>116.99999999999999</ele><time>2026-03-29T09:15:43.615Z</time></trkpt><trkpt lat="45.3764162" lon="10.6162715"><ele>116.99999999999999</ele><time>2026-03-29T09:15:44.616Z</time></trkpt><trkpt lat="45.3765052" lon="10.6162361"><ele>117.0</ele><time>2026-03-29T09:15:45.613Z</time></trkpt><trkpt lat="45.3765767" lon="10.616205"><ele>117.0</ele><time>2026-03-29T09:15:46.611Z</time></trkpt><trkpt lat="45.3766779" lon="10.6161733"><ele>117.39999999999999</ele><time>2026-03-29T09:15:48.617Z</time></trkpt><trkpt lat="45.376745" lon="10.6161543"><ele>117.79999999999998</ele><time>2026-03-29T09:15:49.616Z</time></trkpt><trkpt lat="45.3768309" lon="10.6161552"><ele>118.2</ele><time>2026-03-29T09:15:50.605Z</time></trkpt><trkpt lat="45.3769487" lon="10.6161759"><ele>118.6</ele><time>2026-03-29T09:15:51.607Z</time></trkpt><trkpt lat="45.3770812" lon="10.6162114"><ele>119.0</ele><time>2026-03-29T09:15:52.611Z</time></trkpt><trkpt lat="45.3772332" lon="10.6162657"><ele>119.0</ele><time>2026-03-29T09:15:53.607Z</time></trkpt><trkpt lat="45.3773912" lon="10.6163211"><ele>119.0</ele><time>2026-03-29T09:15:54.599Z</time></trkpt><trkpt lat="45.3775173" lon="10.6163725"><ele>119.0</ele><time>2026-03-29T09:15:55.596Z</time></trkpt><trkpt lat="45.3776315" lon="10.6164441"><ele>119.0</ele><time>2026-03-29T09:15:56.593Z</time></trkpt><trkpt lat="45.3777529" lon="10.6164949"><ele>119.0</ele><time>2026-03-29T09:15:57.593Z</time></trkpt><trkpt lat="45.3778813" lon="10.6165223"><ele>119.0</ele><time>2026-03-29T09:15:58.612Z</time></trkpt><trkpt lat="45.3779829" lon="10.6165558"><ele>119.0</ele><time>2026-03-29T09:15:59.6Z</time></trkpt><trkpt lat="45.3780699" lon="10.61654"><ele>119.0</ele><time>2026-03-29T09:16:00.605Z</time></trkpt><trkpt lat="45.378175" lon="10.6164672"><ele>119.0</ele><time>2026-03-29T09:16:01.603Z</time></trkpt><trkpt lat="45.378273" lon="10.616376"><ele>118.25</ele><time>2026-03-29T09:16:02.601Z</time></trkpt><trkpt lat="45.3783744" lon="10.6162539"><ele>117.5</ele><time>2026-03-29T09:16:03.611Z</time></trkpt><trkpt lat="45.3784649" lon="10.6160702"><ele>116.75</ele><time>2026-03-29T09:16:04.602Z</time></trkpt><trkpt lat="45.3785489" lon="10.6158896"><ele>116.0</ele><time>2026-03-29T09:16:05.609Z</time></trkpt><trkpt lat="45.378611" lon="10.6157196"><ele>115.19999999999999</ele><time>2026-03-29T09:16:06.603Z</time></trkpt><trkpt lat="45.3786798" lon="10.615613"><ele>114.39999999999999</ele><time>2026-03-29T09:16:07.605Z</time></trkpt><trkpt lat="45.3787521" lon="10.6155009"><ele>113.6</ele><time>2026-03-29T09:16:08.61Z</time></trkpt><trkpt lat="45.3788346" lon="10.6154345"><ele>112.8</ele><time>2026-03-29T09:16:09.61Z</time></trkpt><trkpt lat="45.3789079" lon="10.615435"><ele>112.0</ele><time>2026-03-29T09:16:10.615Z</time></trkpt><trkpt lat="45.3790056" lon="10.6154446"><ele>111.8</ele><time>2026-03-29T09:16:11.62Z</time></trkpt><trkpt lat="45.3790985" lon="10.6154837"><ele>111.6</ele><time>2026-03-29T09:16:12.611Z</time></trkpt><trkpt lat="45.3791887" lon="10.6155646"><ele>111.39999999999999</ele><time>2026-03-29T09:16:13.628Z</time></trkpt><trkpt lat="45.379264" lon="10.6156643"><ele>111.19999999999999</ele><time>2026-03-29T09:16:14.615Z</time></trkpt><trkpt lat="45.3793327" lon="10.615746"><ele>111.0</ele><time>2026-03-29T09:16:15.618Z</time></trkpt><trkpt lat="45.3794162" lon="10.6158258"><ele>111.0</ele><time>2026-03-29T09:16:16.614Z</time></trkpt><trkpt lat="45.3795" lon="10.615876"><ele>111.0</ele><time>2026-03-29T09:16:17.609Z</time></trkpt><trkpt lat="45.3795843" lon="10.6158989"><ele>111.0</ele><time>2026-03-29T09:16:18.611Z</time></trkpt><trkpt lat="45.3796651" lon="10.6158876"><ele>111.0</ele><time>2026-03-29T09:16:19.621Z</time></trkpt><trkpt lat="45.3797546" lon="10.6158114"><ele>111.0</ele><time>2026-03-29T09:16:20.615Z</time></trkpt><trkpt lat="45.3798415" lon="10.6156883"><ele>109.8</ele><time>2026-03-29T09:16:21.618Z</time></trkpt><trkpt lat="45.3799324" lon="10.6155783"><ele>108.6</ele><time>2026-03-29T09:16:22.623Z</time></trkpt><trkpt lat="45.3800197" lon="10.6155033"><ele>107.4</ele><time>2026-03-29T09:16:23.616Z</time></trkpt><trkpt lat="45.3801046" lon="10.6154529"><ele>106.2</ele><time>2026-03-29T09:16:24.622Z</time></trkpt><trkpt lat="45.3801982" lon="10.6154466"><ele>105.0</ele><time>2026-03-29T09:16:25.623Z</time></trkpt><trkpt lat="45.3803019" lon="10.6154973"><ele>105.0</ele><time>2026-03-29T09:16:26.624Z</time></trkpt><trkpt lat="45.3804198" lon="10.6155622"><ele>105.0</ele><time>2026-03-29T09:16:27.617Z</time></trkpt><trkpt lat="45.3805502" lon="10.6156097"><ele>105.0</ele><time>2026-03-29T09:16:28.621Z</time></trkpt><trkpt lat="45.3806847" lon="10.6156316"><ele>105.0</ele><time>2026-03-29T09:16:29.627Z</time></trkpt><trkpt lat="45.3808119" lon="10.615617"><ele>105.33333333333334</ele><time>2026-03-29T09:16:30.624Z</time></trkpt><trkpt lat="45.3809604" lon="10.6155472"><ele>105.66666666666667</ele><time>2026-03-29T09:16:31.623Z</time></trkpt><trkpt lat="45.3811117" lon="10.6154331"><ele>106.0</ele><time>2026-03-29T09:16:32.628Z</time></trkpt><trkpt lat="45.3812563" lon="10.6152974"><ele>105.25</ele><time>2026-03-29T09:16:33.631Z</time></trkpt><trkpt lat="45.3813799" lon="10.6151794"><ele>104.5</ele><time>2026-03-29T09:16:35.694Z</time></trkpt><trkpt lat="45.3814846" lon="10.6150669"><ele>103.75</ele><time>2026-03-29T09:16:36.699Z</time></trkpt><trkpt lat="45.3815765" lon="10.6149481"><ele>103.0</ele><time>2026-03-29T09:16:37.677Z</time></trkpt><trkpt lat="45.3816493" lon="10.6148381"><ele>103.00000000000001</ele><time>2026-03-29T09:16:38.681Z</time></trkpt><trkpt lat="45.3817063" lon="10.6147551"><ele>103.0</ele><time>2026-03-29T09:16:39.691Z</time></trkpt><trkpt lat="45.3817634" lon="10.6147062"><ele>103.0</ele><time>2026-03-29T09:16:40.685Z</time></trkpt><trkpt lat="45.38183" lon="10.6146843"><ele>103.0</ele><time>2026-03-29T09:16:41.714Z</time></trkpt><trkpt lat="45.3819026" lon="10.6146921"><ele>103.00000000000001</ele><time>2026-03-29T09:16:43.685Z</time></trkpt><trkpt lat="45.3819609" lon="10.6148278"><ele>103.0</ele><time>2026-03-29T09:16:45.687Z</time></trkpt><trkpt lat="45.381969" lon="10.6149494"><ele>103.0</ele><time>2026-03-29T09:16:46.698Z</time></trkpt><trkpt lat="45.3819668" lon="10.6151009"><ele>103.0</ele><time>2026-03-29T09:16:47.709Z</time></trkpt><trkpt lat="45.3819616" lon="10.6152771"><ele>103.0</ele><time>2026-03-29T09:16:48.703Z</time></trkpt><trkpt lat="45.381955" lon="10.6154744"><ele>103.0</ele><time>2026-03-29T09:16:49.717Z</time></trkpt><trkpt lat="45.3819492" lon="10.61567"><ele>103.0</ele><time>2026-03-29T09:16:50.702Z</time></trkpt><trkpt lat="45.381943" lon="10.615881"><ele>103.0</ele><time>2026-03-29T09:16:51.707Z</time></trkpt><trkpt lat="45.3819394" lon="10.6161014"><ele>103.0</ele><time>2026-03-29T09:16:52.707Z</time></trkpt><trkpt lat="45.3819333" lon="10.6163276"><ele>103.0</ele><time>2026-03-29T09:16:53.709Z</time></trkpt><trkpt lat="45.3819298" lon="10.6165403"><ele>103.0</ele><time>2026-03-29T09:16:54.709Z</time></trkpt><trkpt lat="45.3819265" lon="10.6167538"><ele>103.0</ele><time>2026-03-29T09:16:55.709Z</time></trkpt><trkpt lat="45.3819227" lon="10.6169571"><ele>103.0</ele><time>2026-03-29T09:16:56.711Z</time></trkpt><trkpt lat="45.3819184" lon="10.6171462"><ele>102.25</ele><time>2026-03-29T09:16:57.713Z</time></trkpt><trkpt lat="45.3819163" lon="10.6173212"><ele>101.5</ele><time>2026-03-29T09:16:58.718Z</time></trkpt><trkpt lat="45.3819165" lon="10.6174946"><ele>100.75</ele><time>2026-03-29T09:16:59.712Z</time></trkpt><trkpt lat="45.3819168" lon="10.6176514"><ele>100.0</ele><time>2026-03-29T09:17:00.725Z</time></trkpt><trkpt lat="45.3819156" lon="10.6177997"><ele>100.5</ele><time>2026-03-29T09:17:01.704Z</time></trkpt><trkpt lat="45.3819321" lon="10.6179495"><ele>101.0</ele><time>2026-03-29T09:17:02.706Z</time></trkpt><trkpt lat="45.3819566" lon="10.6181105"><ele>101.5</ele><time>2026-03-29T09:17:03.695Z</time></trkpt><trkpt lat="45.3819767" lon="10.6182797"><ele>102.0</ele><time>2026-03-29T09:17:04.694Z</time></trkpt><trkpt lat="45.3819832" lon="10.6184437"><ele>102.0</ele><time>2026-03-29T09:17:05.688Z</time></trkpt><trkpt lat="45.3819977" lon="10.6186215"><ele>102.0</ele><time>2026-03-29T09:17:06.692Z</time></trkpt><trkpt lat="45.3820818" lon="10.6189738"><ele>102.0</ele><time>2026-03-29T09:17:07.621Z</time></trkpt><trkpt lat="45.3821162" lon="10.6191395"><ele>102.39999999999999</ele><time>2026-03-29T09:17:08.615Z</time></trkpt><trkpt lat="45.382146" lon="10.6192858"><ele>102.8</ele><time>2026-03-29T09:17:09.616Z</time></trkpt><trkpt lat="45.3821577" lon="10.6194133"><ele>103.2</ele><time>2026-03-29T09:17:10.612Z</time></trkpt><trkpt lat="45.3821394" lon="10.6195429"><ele>103.6</ele><time>2026-03-29T09:17:11.618Z</time></trkpt><trkpt lat="45.3821123" lon="10.6196642"><ele>104.0</ele><time>2026-03-29T09:17:12.621Z</time></trkpt><trkpt lat="45.3820767" lon="10.61978"><ele>103.99999999999999</ele><time>2026-03-29T09:17:13.617Z</time></trkpt><trkpt lat="45.3820445" lon="10.6198763"><ele>104.0</ele><time>2026-03-29T09:17:14.62Z</time></trkpt><trkpt lat="45.3820185" lon="10.6199823"><ele>104.0</ele><time>2026-03-29T09:17:15.624Z</time></trkpt><trkpt lat="45.3819851" lon="10.6200981"><ele>104.0</ele><time>2026-03-29T09:17:16.62Z</time></trkpt><trkpt lat="45.3819358" lon="10.6202131"><ele>103.99999999999999</ele><time>2026-03-29T09:17:17.626Z</time></trkpt><trkpt lat="45.381889" lon="10.6203332"><ele>104.0</ele><time>2026-03-29T09:17:18.621Z</time></trkpt><trkpt lat="45.3818464" lon="10.6204384"><ele>103.49999999999999</ele><time>2026-03-29T09:17:19.627Z</time></trkpt><trkpt lat="45.3818151" lon="10.6205284"><ele>103.0</ele><time>2026-03-29T09:17:20.621Z</time></trkpt><trkpt lat="45.3817876" lon="10.6206235"><ele>102.5</ele><time>2026-03-29T09:17:21.621Z</time></trkpt><trkpt lat="45.3817747" lon="10.6207299"><ele>102.0</ele><time>2026-03-29T09:17:22.614Z</time></trkpt><trkpt lat="45.3817704" lon="10.620855"><ele>101.49999999999999</ele><time>2026-03-29T09:17:23.62Z</time></trkpt><trkpt lat="45.3817683" lon="10.6210067"><ele>101.0</ele><time>2026-03-29T09:17:24.622Z</time></trkpt><trkpt lat="45.3817651" lon="10.621167"><ele>100.75</ele><time>2026-03-29T09:17:25.628Z</time></trkpt><trkpt lat="45.3817574" lon="10.6213472"><ele>100.5</ele><time>2026-03-29T09:17:26.619Z</time></trkpt><trkpt lat="45.3817584" lon="10.6215504"><ele>100.25</ele><time>2026-03-29T09:17:27.632Z</time></trkpt><trkpt lat="45.3817557" lon="10.6217447"><ele>100.0</ele><time>2026-03-29T09:17:28.624Z</time></trkpt><trkpt lat="45.3817552" lon="10.6219293"><ele>100.0</ele><time>2026-03-29T09:17:29.614Z</time></trkpt><trkpt lat="45.3817505" lon="10.6221152"><ele>100.0</ele><time>2026-03-29T09:17:30.62Z</time></trkpt><trkpt lat="45.3817407" lon="10.6222906"><ele>100.0</ele><time>2026-03-29T09:17:31.616Z</time></trkpt><trkpt lat="45.3817337" lon="10.6224768"><ele>100.0</ele><time>2026-03-29T09:17:32.624Z</time></trkpt><trkpt lat="45.3817237" lon="10.6226463"><ele>100.0</ele><time>2026-03-29T09:17:33.618Z</time></trkpt><trkpt lat="45.3817116" lon="10.6228262"><ele>100.0</ele><time>2026-03-29T09:17:34.617Z</time></trkpt><trkpt lat="45.3816948" lon="10.6229963"><ele>100.0</ele><time>2026-03-29T09:17:35.62Z</time></trkpt><trkpt lat="45.3816738" lon="10.6231528"><ele>100.0</ele><time>2026-03-29T09:17:36.626Z</time></trkpt><trkpt lat="45.3816717" lon="10.623305"><ele>100.0</ele><time>2026-03-29T09:17:37.623Z</time></trkpt><trkpt lat="45.3816795" lon="10.6234509"><ele>100.0</ele><time>2026-03-29T09:17:38.617Z</time></trkpt><trkpt lat="45.3816935" lon="10.6236236"><ele>100.0</ele><time>2026-03-29T09:17:39.616Z</time></trkpt><trkpt lat="45.3816943" lon="10.6238174"><ele>100.0</ele><time>2026-03-29T09:17:40.619Z</time></trkpt><trkpt lat="45.3816807" lon="10.6240354"><ele>100.25</ele><time>2026-03-29T09:17:41.622Z</time></trkpt><trkpt lat="45.3816563" lon="10.624253"><ele>100.5</ele><time>2026-03-29T09:17:42.624Z</time></trkpt><trkpt lat="45.3816465" lon="10.6244534"><ele>100.75</ele><time>2026-03-29T09:17:43.629Z</time></trkpt><trkpt lat="45.3816315" lon="10.6246556"><ele>101.0</ele><time>2026-03-29T09:17:44.627Z</time></trkpt><trkpt lat="45.3816279" lon="10.6248581"><ele>100.75</ele><time>2026-03-29T09:17:45.641Z</time></trkpt><trkpt lat="45.3816228" lon="10.6250444"><ele>100.5</ele><time>2026-03-29T09:17:46.62Z</time></trkpt><trkpt lat="45.3815979" lon="10.6252275"><ele>100.25</ele><time>2026-03-29T09:17:47.623Z</time></trkpt><trkpt lat="45.3815957" lon="10.6253962"><ele>100.0</ele><time>2026-03-29T09:17:48.623Z</time></trkpt><trkpt lat="45.381575" lon="10.6255511"><ele>100.0</ele><time>2026-03-29T09:17:49.628Z</time></trkpt><trkpt lat="45.3815468" lon="10.6256877"><ele>100.0</ele><time>2026-03-29T09:17:50.625Z</time></trkpt><trkpt lat="45.3815562" lon="10.6258354"><ele>100.0</ele><time>2026-03-29T09:17:51.632Z</time></trkpt><trkpt lat="45.3815368" lon="10.6259523"><ele>100.0</ele><time>2026-03-29T09:17:52.623Z</time></trkpt><trkpt lat="45.3815219" lon="10.6260667"><ele>100.0</ele><time>2026-03-29T09:17:53.626Z</time></trkpt><trkpt lat="45.3815024" lon="10.6261897"><ele>100.2</ele><time>2026-03-29T09:17:54.626Z</time></trkpt><trkpt lat="45.381478" lon="10.6263304"><ele>100.4</ele><time>2026-03-29T09:17:55.633Z</time></trkpt><trkpt lat="45.3814501" lon="10.6264703"><ele>100.6</ele><time>2026-03-29T09:17:56.624Z</time></trkpt><trkpt lat="45.3814218" lon="10.6266257"><ele>100.8</ele><time>2026-03-29T09:17:57.634Z</time></trkpt><trkpt lat="45.381398" lon="10.626785"><ele>101.0</ele><time>2026-03-29T09:17:58.629Z</time></trkpt><trkpt lat="45.3813606" lon="10.6269538"><ele>102.19999999999999</ele><time>2026-03-29T09:17:59.629Z</time></trkpt><trkpt lat="45.381337" lon="10.6271201"><ele>103.39999999999999</ele><time>2026-03-29T09:18:00.621Z</time></trkpt><trkpt lat="45.3813188" lon="10.6272732"><ele>104.6</ele><time>2026-03-29T09:18:01.623Z</time></trkpt><trkpt lat="45.3812917" lon="10.6274042"><ele>105.8</ele><time>2026-03-29T09:18:02.629Z</time></trkpt><trkpt lat="45.3812711" lon="10.6275304"><ele>107.0</ele><time>2026-03-29T09:18:03.622Z</time></trkpt><trkpt lat="45.3812602" lon="10.6276395"><ele>106.99999999999999</ele><time>2026-03-29T09:18:04.629Z</time></trkpt><trkpt lat="45.381245" lon="10.6277279"><ele>107.0</ele><time>2026-03-29T09:18:05.621Z</time></trkpt><trkpt lat="45.3811923" lon="10.6278657"><ele>107.0</ele><time>2026-03-29T09:18:07.625Z</time></trkpt><trkpt lat="45.3811339" lon="10.6279204"><ele>107.0</ele><time>2026-03-29T09:18:08.618Z</time></trkpt><trkpt lat="45.381059" lon="10.6279439"><ele>106.99999999999999</ele><time>2026-03-29T09:18:09.621Z</time></trkpt><trkpt lat="45.3809516" lon="10.6279731"><ele>107.0</ele><time>2026-03-29T09:18:10.615Z</time></trkpt><trkpt lat="45.3808273" lon="10.628014"><ele>107.25</ele><time>2026-03-29T09:18:11.622Z</time></trkpt><trkpt lat="45.3806985" lon="10.6280628"><ele>107.5</ele><time>2026-03-29T09:18:12.614Z</time></trkpt><trkpt lat="45.3805644" lon="10.628112"><ele>107.75</ele><time>2026-03-29T09:18:13.611Z</time></trkpt><trkpt lat="45.3804528" lon="10.6281612"><ele>108.0</ele><time>2026-03-29T09:18:14.606Z</time></trkpt><trkpt lat="45.3803537" lon="10.6282299"><ele>108.0</ele><time>2026-03-29T09:18:15.611Z</time></trkpt><trkpt lat="45.3802779" lon="10.6282945"><ele>108.0</ele><time>2026-03-29T09:18:16.608Z</time></trkpt><trkpt lat="45.3802117" lon="10.6283595"><ele>108.0</ele><time>2026-03-29T09:18:17.607Z</time></trkpt><trkpt lat="45.3801545" lon="10.628445"><ele>108.0</ele><time>2026-03-29T09:18:18.615Z</time></trkpt><trkpt lat="45.3800936" lon="10.6285174"><ele>108.0</ele><time>2026-03-29T09:18:19.61Z</time></trkpt><trkpt lat="45.3800422" lon="10.6285809"><ele>108.0</ele><time>2026-03-29T09:18:20.617Z</time></trkpt><trkpt lat="45.3799776" lon="10.6286026"><ele>106.2</ele><time>2026-03-29T09:18:22.62Z</time></trkpt><trkpt lat="45.3799987" lon="10.6286874"><ele>104.4</ele><time>2026-03-29T09:18:25.631Z</time></trkpt><trkpt lat="45.3801119" lon="10.6287656"><ele>102.60000000000001</ele><time>2026-03-29T09:18:27.605Z</time></trkpt><trkpt lat="45.3802019" lon="10.6288083"><ele>100.80000000000001</ele><time>2026-03-29T09:18:28.612Z</time></trkpt><trkpt lat="45.3803051" lon="10.6288697"><ele>99.0</ele><time>2026-03-29T09:18:29.613Z</time></trkpt><trkpt lat="45.3804225" lon="10.628955"><ele>98.75</ele><time>2026-03-29T09:18:30.615Z</time></trkpt><trkpt lat="45.3805459" lon="10.6290475"><ele>98.5</ele><time>2026-03-29T09:18:31.622Z</time></trkpt><trkpt lat="45.3806688" lon="10.6291358"><ele>98.25</ele><time>2026-03-29T09:18:32.618Z</time></trkpt><trkpt lat="45.3807845" lon="10.629225"><ele>98.0</ele><time>2026-03-29T09:18:33.626Z</time></trkpt><trkpt lat="45.3808954" lon="10.6293254"><ele>98.0</ele><time>2026-03-29T09:18:34.619Z</time></trkpt><trkpt lat="45.3810089" lon="10.6294311"><ele>98.0</ele><time>2026-03-29T09:18:35.622Z</time></trkpt><trkpt lat="45.3811137" lon="10.6295349"><ele>98.0</ele><time>2026-03-29T09:18:36.618Z</time></trkpt><trkpt lat="45.3812258" lon="10.6296363"><ele>98.0</ele><time>2026-03-29T09:18:37.622Z</time></trkpt><trkpt lat="45.3813308" lon="10.6297304"><ele>98.75</ele><time>2026-03-29T09:18:38.616Z</time></trkpt><trkpt lat="45.3814381" lon="10.6298246"><ele>99.5</ele><time>2026-03-29T09:18:39.62Z</time></trkpt><trkpt lat="45.3815398" lon="10.6299153"><ele>100.25</ele><time>2026-03-29T09:18:40.623Z</time></trkpt><trkpt lat="45.3816371" lon="10.6300035"><ele>101.0</ele><time>2026-03-29T09:18:41.63Z</time></trkpt><trkpt lat="45.3817348" lon="10.6301024"><ele>101.0</ele><time>2026-03-29T09:18:42.616Z</time></trkpt><trkpt lat="45.3818305" lon="10.6301949"><ele>101.0</ele><time>2026-03-29T09:18:43.622Z</time></trkpt><trkpt lat="45.3819234" lon="10.6302736"><ele>101.0</ele><time>2026-03-29T09:18:44.618Z</time></trkpt><trkpt lat="45.3820276" lon="10.6303575"><ele>101.0</ele><time>2026-03-29T09:18:45.624Z</time></trkpt><trkpt lat="45.3821242" lon="10.6304525"><ele>102.0</ele><time>2026-03-29T09:18:46.619Z</time></trkpt><trkpt lat="45.3822154" lon="10.6305396"><ele>103.0</ele><time>2026-03-29T09:18:47.62Z</time></trkpt><trkpt lat="45.3823075" lon="10.630611"><ele>104.0</ele><time>2026-03-29T09:18:48.613Z</time></trkpt><trkpt lat="45.382381" lon="10.6306706"><ele>105.0</ele><time>2026-03-29T09:18:49.625Z</time></trkpt><trkpt lat="45.3824398" lon="10.6307237"><ele>106.0</ele><time>2026-03-29T09:18:50.617Z</time></trkpt><trkpt lat="45.3825251" lon="10.6308509"><ele>106.0</ele><time>2026-03-29T09:18:52.618Z</time></trkpt><trkpt lat="45.3825605" lon="10.6309269"><ele>106.0</ele><time>2026-03-29T09:18:53.617Z</time></trkpt><trkpt lat="45.3825808" lon="10.6310954"><ele>106.0</ele><time>2026-03-29T09:18:55.616Z</time></trkpt><trkpt lat="45.3825327" lon="10.6312707"><ele>106.0</ele><time>2026-03-29T09:18:57.616Z</time></trkpt><trkpt lat="45.3824756" lon="10.6313974"><ele>106.0</ele><time>2026-03-29T09:18:58.618Z</time></trkpt><trkpt lat="45.3824053" lon="10.6315478"><ele>105.5</ele><time>2026-03-29T09:18:59.62Z</time></trkpt><trkpt lat="45.3823292" lon="10.6317022"><ele>105.0</ele><time>2026-03-29T09:19:00.623Z</time></trkpt><trkpt lat="45.3822586" lon="10.6318732"><ele>104.5</ele><time>2026-03-29T09:19:01.622Z</time></trkpt><trkpt lat="45.38219" lon="10.6320469"><ele>104.0</ele><time>2026-03-29T09:19:02.629Z</time></trkpt><trkpt lat="45.3821341" lon="10.6322113"><ele>102.75</ele><time>2026-03-29T09:19:03.62Z</time></trkpt><trkpt lat="45.3820759" lon="10.6323725"><ele>101.5</ele><time>2026-03-29T09:19:04.618Z</time></trkpt><trkpt lat="45.3820251" lon="10.6325363"><ele>100.25</ele><time>2026-03-29T09:19:05.615Z</time></trkpt><trkpt lat="45.3819675" lon="10.6326905"><ele>99.0</ele><time>2026-03-29T09:19:06.618Z</time></trkpt><trkpt lat="45.3819192" lon="10.6328428"><ele>99.0</ele><time>2026-03-29T09:19:07.623Z</time></trkpt><trkpt lat="45.3818698" lon="10.6330047"><ele>99.0</ele><time>2026-03-29T09:19:08.617Z</time></trkpt><trkpt lat="45.3818084" lon="10.6331622"><ele>99.0</ele><time>2026-03-29T09:19:09.626Z</time></trkpt><trkpt lat="45.381752" lon="10.6333266"><ele>99.0</ele><time>2026-03-29T09:19:10.624Z</time></trkpt><trkpt lat="45.3816945" lon="10.6334714"><ele>99.0</ele><time>2026-03-29T09:19:11.625Z</time></trkpt><trkpt lat="45.3816367" lon="10.6336243"><ele>99.0</ele><time>2026-03-29T09:19:12.62Z</time></trkpt><trkpt lat="45.3815861" lon="10.6337834"><ele>99.0</ele><time>2026-03-29T09:19:13.627Z</time></trkpt><trkpt lat="45.3815426" lon="10.6339345"><ele>99.0</ele><time>2026-03-29T09:19:14.619Z</time></trkpt><trkpt lat="45.3814875" lon="10.6340845"><ele>99.25</ele><time>2026-03-29T09:19:15.625Z</time></trkpt><trkpt lat="45.3814257" lon="10.634234"><ele>99.5</ele><time>2026-03-29T09:19:16.619Z</time></trkpt><trkpt lat="45.3813582" lon="10.6343763"><ele>99.75</ele><time>2026-03-29T09:19:17.625Z</time></trkpt><trkpt lat="45.3812886" lon="10.6345108"><ele>100.0</ele><time>2026-03-29T09:19:18.619Z</time></trkpt><trkpt lat="45.3812209" lon="10.6346295"><ele>100.0</ele><time>2026-03-29T09:19:19.618Z</time></trkpt><trkpt lat="45.3811523" lon="10.6347434"><ele>100.0</ele><time>2026-03-29T09:19:20.614Z</time></trkpt><trkpt lat="45.3810848" lon="10.6348459"><ele>100.0</ele><time>2026-03-29T09:19:21.613Z</time></trkpt><trkpt lat="45.3810204" lon="10.6349323"><ele>100.0</ele><time>2026-03-29T09:19:22.608Z</time></trkpt><trkpt lat="45.3809555" lon="10.6350201"><ele>100.0</ele><time>2026-03-29T09:19:23.607Z</time></trkpt><trkpt lat="45.3808902" lon="10.6351177"><ele>100.0</ele><time>2026-03-29T09:19:24.606Z</time></trkpt><trkpt lat="45.3808211" lon="10.6352169"><ele>100.0</ele><time>2026-03-29T09:19:25.621Z</time></trkpt><trkpt lat="45.3807402" lon="10.6353357"><ele>100.0</ele><time>2026-03-29T09:19:26.611Z</time></trkpt><trkpt lat="45.3806721" lon="10.6354751"><ele>100.0</ele><time>2026-03-29T09:19:27.613Z</time></trkpt><trkpt lat="45.3806071" lon="10.6356284"><ele>100.75</ele><time>2026-03-29T09:19:28.615Z</time></trkpt><trkpt lat="45.3805501" lon="10.6357829"><ele>101.5</ele><time>2026-03-29T09:19:29.613Z</time></trkpt><trkpt lat="45.3804922" lon="10.6359384"><ele>102.25</ele><time>2026-03-29T09:19:30.618Z</time></trkpt><trkpt lat="45.3804585" lon="10.6360893"><ele>103.0</ele><time>2026-03-29T09:19:31.613Z</time></trkpt><trkpt lat="45.3804336" lon="10.6362263"><ele>103.0</ele><time>2026-03-29T09:19:32.615Z</time></trkpt><trkpt lat="45.3804236" lon="10.6363631"><ele>103.0</ele><time>2026-03-29T09:19:33.615Z</time></trkpt><trkpt lat="45.3804136" lon="10.636498"><ele>103.0</ele><time>2026-03-29T09:19:34.612Z</time></trkpt><trkpt lat="45.380444" lon="10.6366507"><ele>103.0</ele><time>2026-03-29T09:19:35.606Z</time></trkpt><trkpt lat="45.3804887" lon="10.636805"><ele>103.0</ele><time>2026-03-29T09:19:36.61Z</time></trkpt><trkpt lat="45.3805333" lon="10.6369588"><ele>103.0</ele><time>2026-03-29T09:19:37.613Z</time></trkpt><trkpt lat="45.3805893" lon="10.6371079"><ele>103.0</ele><time>2026-03-29T09:19:38.613Z</time></trkpt><trkpt lat="45.3806354" lon="10.6372437"><ele>103.0</ele><time>2026-03-29T09:19:39.612Z</time></trkpt><trkpt lat="45.3806594" lon="10.637342"><ele>103.0</ele><time>2026-03-29T09:19:40.608Z</time></trkpt><trkpt lat="45.3806985" lon="10.6374864"><ele>103.0</ele><time>2026-03-29T09:19:42.601Z</time></trkpt><trkpt lat="45.380699" lon="10.6375769"><ele>103.0</ele><time>2026-03-29T09:19:52.614Z</time></trkpt><trkpt lat="45.380756" lon="10.6376534"><ele>103.0</ele><time>2026-03-29T09:19:55.626Z</time></trkpt><trkpt lat="45.3808147" lon="10.6376901"><ele>103.0</ele><time>2026-03-29T09:19:56.605Z</time></trkpt><trkpt lat="45.380916" lon="10.6377437"><ele>103.0</ele><time>2026-03-29T09:19:57.607Z</time></trkpt><trkpt lat="45.381013" lon="10.6378079"><ele>103.0</ele><time>2026-03-29T09:19:58.606Z</time></trkpt><trkpt lat="45.3811171" lon="10.6379137"><ele>103.25</ele><time>2026-03-29T09:19:59.611Z</time></trkpt><trkpt lat="45.3812224" lon="10.6380462"><ele>103.5</ele><time>2026-03-29T09:20:00.607Z</time></trkpt><trkpt lat="45.3813266" lon="10.6381838"><ele>103.75</ele><time>2026-03-29T09:20:01.623Z</time></trkpt><trkpt lat="45.3814255" lon="10.6383156"><ele>104.0</ele><time>2026-03-29T09:20:02.603Z</time></trkpt><trkpt lat="45.3815248" lon="10.6384302"><ele>104.0</ele><time>2026-03-29T09:20:03.616Z</time></trkpt><trkpt lat="45.3816116" lon="10.6385426"><ele>104.0</ele><time>2026-03-29T09:20:04.611Z</time></trkpt><trkpt lat="45.3816976" lon="10.6386644"><ele>104.0</ele><time>2026-03-29T09:20:05.619Z</time></trkpt><trkpt lat="45.3817901" lon="10.6387989"><ele>104.0</ele><time>2026-03-29T09:20:06.614Z</time></trkpt><trkpt lat="45.3818702" lon="10.638935"><ele>103.5</ele><time>2026-03-29T09:20:07.617Z</time></trkpt><trkpt lat="45.381944" lon="10.6390827"><ele>103.0</ele><time>2026-03-29T09:20:08.621Z</time></trkpt><trkpt lat="45.3820169" lon="10.6392143"><ele>102.5</ele><time>2026-03-29T09:20:09.625Z</time></trkpt><trkpt lat="45.3820922" lon="10.6393425"><ele>102.0</ele><time>2026-03-29T09:20:10.621Z</time></trkpt><trkpt lat="45.3821741" lon="10.6394863"><ele>102.75</ele><time>2026-03-29T09:20:11.63Z</time></trkpt><trkpt lat="45.3822549" lon="10.6396186"><ele>103.5</ele><time>2026-03-29T09:20:12.62Z</time></trkpt><trkpt lat="45.3823504" lon="10.6397473"><ele>104.25</ele><time>2026-03-29T09:20:13.619Z</time></trkpt><trkpt lat="45.382455" lon="10.6398812"><ele>105.0</ele><time>2026-03-29T09:20:14.626Z</time></trkpt><trkpt lat="45.38256" lon="10.6399989"><ele>105.0</ele><time>2026-03-29T09:20:15.619Z</time></trkpt><trkpt lat="45.3826619" lon="10.6401088"><ele>105.0</ele><time>2026-03-29T09:20:16.62Z</time></trkpt><trkpt lat="45.3827792" lon="10.6402024"><ele>105.0</ele><time>2026-03-29T09:20:17.62Z</time></trkpt><trkpt lat="45.3828996" lon="10.6402841"><ele>105.0</ele><time>2026-03-29T09:20:18.622Z</time></trkpt><trkpt lat="45.3830147" lon="10.6403678"><ele>105.5</ele><time>2026-03-29T09:20:19.623Z</time></trkpt><trkpt lat="45.3831337" lon="10.6404554"><ele>106.0</ele><time>2026-03-29T09:20:20.616Z</time></trkpt><trkpt lat="45.3832545" lon="10.6405608"><ele>106.5</ele><time>2026-03-29T09:20:21.615Z</time></trkpt><trkpt lat="45.3833768" lon="10.640648"><ele>107.0</ele><time>2026-03-29T09:20:22.615Z</time></trkpt><trkpt lat="45.3835144" lon="10.6407397"><ele>107.0</ele><time>2026-03-29T09:20:23.615Z</time></trkpt><trkpt lat="45.3836374" lon="10.6408192"><ele>107.0</ele><time>2026-03-29T09:20:24.619Z</time></trkpt><trkpt lat="45.3837485" lon="10.6408715"><ele>107.0</ele><time>2026-03-29T09:20:25.621Z</time></trkpt><trkpt lat="45.3838444" lon="10.6409355"><ele>107.0</ele><time>2026-03-29T09:20:26.619Z</time></trkpt><trkpt lat="45.3839471" lon="10.6410061"><ele>106.5</ele><time>2026-03-29T09:20:27.619Z</time></trkpt><trkpt lat="45.3840621" lon="10.6410815"><ele>106.0</ele><time>2026-03-29T09:20:28.607Z</time></trkpt><trkpt lat="45.38419" lon="10.6411464"><ele>105.5</ele><time>2026-03-29T09:20:29.619Z</time></trkpt><trkpt lat="45.3843219" lon="10.6412105"><ele>105.0</ele><time>2026-03-29T09:20:30.614Z</time></trkpt><trkpt lat="45.3844564" lon="10.6412735"><ele>105.0</ele><time>2026-03-29T09:20:31.616Z</time></trkpt><trkpt lat="45.384579" lon="10.6413452"><ele>105.0</ele><time>2026-03-29T09:20:32.623Z</time></trkpt><trkpt lat="45.3846971" lon="10.6414112"><ele>105.0</ele><time>2026-03-29T09:20:33.616Z</time></trkpt><trkpt lat="45.3848177" lon="10.6414755"><ele>105.0</ele><time>2026-03-29T09:20:34.63Z</time></trkpt><trkpt lat="45.3849369" lon="10.641548"><ele>105.75</ele><time>2026-03-29T09:20:35.624Z</time></trkpt><trkpt lat="45.3850602" lon="10.6416126"><ele>106.5</ele><time>2026-03-29T09:20:36.63Z</time></trkpt><trkpt lat="45.3851866" lon="10.6416845"><ele>107.25</ele><time>2026-03-29T09:20:37.615Z</time></trkpt><trkpt lat="45.3853168" lon="10.6417456"><ele>108.0</ele><time>2026-03-29T09:20:38.623Z</time></trkpt><trkpt lat="45.3854543" lon="10.6418186"><ele>107.75</ele><time>2026-03-29T09:20:39.625Z</time></trkpt><trkpt lat="45.3855807" lon="10.6418925"><ele>107.5</ele><time>2026-03-29T09:20:40.624Z</time></trkpt><trkpt lat="45.3857213" lon="10.6419801"><ele>107.25</ele><time>2026-03-29T09:20:41.628Z</time></trkpt><trkpt lat="45.3858615" lon="10.6420475"><ele>107.0</ele><time>2026-03-29T09:20:42.624Z</time></trkpt><trkpt lat="45.3859949" lon="10.6421139"><ele>106.75</ele><time>2026-03-29T09:20:43.62Z</time></trkpt><trkpt lat="45.3861496" lon="10.6422051"><ele>106.5</ele><time>2026-03-29T09:20:44.628Z</time></trkpt><trkpt lat="45.386266" lon="10.6422787"><ele>106.25</ele><time>2026-03-29T09:20:45.616Z</time></trkpt><trkpt lat="45.3863958" lon="10.6423439"><ele>106.0</ele><time>2026-03-29T09:20:46.624Z</time></trkpt><trkpt lat="45.3865391" lon="10.6424195"><ele>106.0</ele><time>2026-03-29T09:20:47.621Z</time></trkpt><trkpt lat="45.3866702" lon="10.6424792"><ele>106.0</ele><time>2026-03-29T09:20:48.629Z</time></trkpt><trkpt lat="45.3868081" lon="10.6425504"><ele>106.0</ele><time>2026-03-29T09:20:49.624Z</time></trkpt><trkpt lat="45.3869416" lon="10.6426252"><ele>106.0</ele><time>2026-03-29T09:20:50.62Z</time></trkpt><trkpt lat="45.3870463" lon="10.6426855"><ele>106.0</ele><time>2026-03-29T09:20:51.614Z</time></trkpt><trkpt lat="45.3871657" lon="10.6427527"><ele>106.0</ele><time>2026-03-29T09:20:52.616Z</time></trkpt><trkpt lat="45.3872973" lon="10.6428024"><ele>106.0</ele><time>2026-03-29T09:20:53.619Z</time></trkpt><trkpt lat="45.3874337" lon="10.6428655"><ele>106.0</ele><time>2026-03-29T09:20:54.616Z</time></trkpt><trkpt lat="45.3875776" lon="10.6429498"><ele>106.0</ele><time>2026-03-29T09:20:55.62Z</time></trkpt><trkpt lat="45.3877394" lon="10.6430172"><ele>106.0</ele><time>2026-03-29T09:20:56.613Z</time></trkpt><trkpt lat="45.3878871" lon="10.643098"><ele>106.0</ele><time>2026-03-29T09:20:57.623Z</time></trkpt><trkpt lat="45.38805" lon="10.6431737"><ele>106.0</ele><time>2026-03-29T09:20:58.62Z</time></trkpt><trkpt lat="45.3881663" lon="10.6432216"><ele>106.0</ele><time>2026-03-29T09:20:59.619Z</time></trkpt><trkpt lat="45.3882901" lon="10.643285"><ele>106.0</ele><time>2026-03-29T09:21:00.622Z</time></trkpt><trkpt lat="45.388422" lon="10.6433368"><ele>106.0</ele><time>2026-03-29T09:21:01.622Z</time></trkpt><trkpt lat="45.3885465" lon="10.6434083"><ele>106.0</ele><time>2026-03-29T09:21:02.62Z</time></trkpt><trkpt lat="45.3886813" lon="10.6434762"><ele>106.0</ele><time>2026-03-29T09:21:03.615Z</time></trkpt><trkpt lat="45.3887948" lon="10.6435297"><ele>106.0</ele><time>2026-03-29T09:21:04.609Z</time></trkpt><trkpt lat="45.3889376" lon="10.6435834"><ele>106.0</ele><time>2026-03-29T09:21:05.615Z</time></trkpt><trkpt lat="45.3890915" lon="10.6436451"><ele>105.5</ele><time>2026-03-29T09:21:06.613Z</time></trkpt><trkpt lat="45.3892183" lon="10.643683"><ele>105.0</ele><time>2026-03-29T09:21:07.619Z</time></trkpt><trkpt lat="45.3893621" lon="10.6437342"><ele>104.5</ele><time>2026-03-29T09:21:08.607Z</time></trkpt><trkpt lat="45.3894931" lon="10.6437895"><ele>104.0</ele><time>2026-03-29T09:21:09.61Z</time></trkpt><trkpt lat="45.389631" lon="10.6438373"><ele>104.0</ele><time>2026-03-29T09:21:10.608Z</time></trkpt><trkpt lat="45.3897339" lon="10.6438515"><ele>104.0</ele><time>2026-03-29T09:21:11.617Z</time></trkpt><trkpt lat="45.389851" lon="10.6438918"><ele>104.0</ele><time>2026-03-29T09:21:12.623Z</time></trkpt><trkpt lat="45.389955" lon="10.6439439"><ele>104.0</ele><time>2026-03-29T09:21:13.624Z</time></trkpt><trkpt lat="45.3900577" lon="10.6439628"><ele>104.0</ele><time>2026-03-29T09:21:14.621Z</time></trkpt><trkpt lat="45.3901642" lon="10.6439485"><ele>104.0</ele><time>2026-03-29T09:21:15.611Z</time></trkpt><trkpt lat="45.3902691" lon="10.6438954"><ele>104.0</ele><time>2026-03-29T09:21:16.61Z</time></trkpt><trkpt lat="45.3903618" lon="10.6437945"><ele>104.0</ele><time>2026-03-29T09:21:17.62Z</time></trkpt><trkpt lat="45.3904397" lon="10.6436518"><ele>104.0</ele><time>2026-03-29T09:21:18.611Z</time></trkpt><trkpt lat="45.3904985" lon="10.6434847"><ele>107.0</ele><time>2026-03-29T09:21:19.625Z</time></trkpt><trkpt lat="45.3905508" lon="10.6433155"><ele>110.0</ele><time>2026-03-29T09:21:20.613Z</time></trkpt><trkpt lat="45.3906073" lon="10.6431531"><ele>113.0</ele><time>2026-03-29T09:21:21.632Z</time></trkpt><trkpt lat="45.3906605" lon="10.643022"><ele>116.0</ele><time>2026-03-29T09:21:22.613Z</time></trkpt><trkpt lat="45.3907084" lon="10.6428836"><ele>116.0</ele><time>2026-03-29T09:21:23.614Z</time></trkpt><trkpt lat="45.3907598" lon="10.6427403"><ele>116.0</ele><time>2026-03-29T09:21:24.608Z</time></trkpt><trkpt lat="45.3908104" lon="10.6426"><ele>116.0</ele><time>2026-03-29T09:21:25.613Z</time></trkpt><trkpt lat="45.3908635" lon="10.6424737"><ele>116.0</ele><time>2026-03-29T09:21:26.609Z</time></trkpt><trkpt lat="45.3909282" lon="10.6423666"><ele>116.0</ele><time>2026-03-29T09:21:27.604Z</time></trkpt><trkpt lat="45.3910149" lon="10.6422709"><ele>116.0</ele><time>2026-03-29T09:21:28.621Z</time></trkpt><trkpt lat="45.3911222" lon="10.6421975"><ele>116.0</ele><time>2026-03-29T09:21:29.603Z</time></trkpt><trkpt lat="45.391264" lon="10.6421726"><ele>116.0</ele><time>2026-03-29T09:21:30.615Z</time></trkpt><trkpt lat="45.3914069" lon="10.6421739"><ele>116.0</ele><time>2026-03-29T09:21:31.622Z</time></trkpt><trkpt lat="45.3915411" lon="10.6421902"><ele>115.75</ele><time>2026-03-29T09:21:32.629Z</time></trkpt><trkpt lat="45.3916752" lon="10.6422123"><ele>115.5</ele><time>2026-03-29T09:21:33.626Z</time></trkpt><trkpt lat="45.3917636" lon="10.6421883"><ele>115.25</ele><time>2026-03-29T09:21:34.631Z</time></trkpt><trkpt lat="45.3918915" lon="10.6420914"><ele>115.0</ele><time>2026-03-29T09:21:35.615Z</time></trkpt><trkpt lat="45.3920177" lon="10.6420007"><ele>113.0</ele><time>2026-03-29T09:21:36.61Z</time></trkpt><trkpt lat="45.3921452" lon="10.6419044"><ele>111.0</ele><time>2026-03-29T09:21:37.617Z</time></trkpt><trkpt lat="45.3922739" lon="10.6418152"><ele>109.0</ele><time>2026-03-29T09:21:38.62Z</time></trkpt><trkpt lat="45.3923978" lon="10.6417514"><ele>107.0</ele><time>2026-03-29T09:21:39.624Z</time></trkpt><trkpt lat="45.3925194" lon="10.6416795"><ele>106.5</ele><time>2026-03-29T09:21:40.623Z</time></trkpt><trkpt lat="45.3926388" lon="10.6416018"><ele>106.0</ele><time>2026-03-29T09:21:41.622Z</time></trkpt><trkpt lat="45.3927664" lon="10.6415269"><ele>105.5</ele><time>2026-03-29T09:21:42.625Z</time></trkpt><trkpt lat="45.3928799" lon="10.6414735"><ele>105.0</ele><time>2026-03-29T09:21:43.628Z</time></trkpt><trkpt lat="45.3929893" lon="10.6414473"><ele>104.5</ele><time>2026-03-29T09:21:44.617Z</time></trkpt><trkpt lat="45.3931054" lon="10.6414624"><ele>104.0</ele><time>2026-03-29T09:21:45.624Z</time></trkpt><trkpt lat="45.3932255" lon="10.6415043"><ele>103.5</ele><time>2026-03-29T09:21:46.627Z</time></trkpt><trkpt lat="45.3933603" lon="10.6415739"><ele>103.0</ele><time>2026-03-29T09:21:47.624Z</time></trkpt><trkpt lat="45.3935087" lon="10.6416602"><ele>103.0</ele><time>2026-03-29T09:21:48.629Z</time></trkpt><trkpt lat="45.3936644" lon="10.6417602"><ele>103.0</ele><time>2026-03-29T09:21:49.631Z</time></trkpt><trkpt lat="45.393782" lon="10.6418653"><ele>103.0</ele><time>2026-03-29T09:21:50.626Z</time></trkpt><trkpt lat="45.3939185" lon="10.6419333"><ele>104.25</ele><time>2026-03-29T09:21:51.612Z</time></trkpt><trkpt lat="45.3940435" lon="10.6419962"><ele>105.5</ele><time>2026-03-29T09:21:52.626Z</time></trkpt><trkpt lat="45.3941825" lon="10.6420579"><ele>106.75</ele><time>2026-03-29T09:21:53.617Z</time></trkpt><trkpt lat="45.3942953" lon="10.6421363"><ele>108.0</ele><time>2026-03-29T09:21:54.625Z</time></trkpt><trkpt lat="45.3944379" lon="10.6421918"><ele>108.0</ele><time>2026-03-29T09:21:55.627Z</time></trkpt><trkpt lat="45.394569" lon="10.6422626"><ele>108.0</ele><time>2026-03-29T09:21:56.617Z</time></trkpt><trkpt lat="45.3947207" lon="10.6423641"><ele>108.0</ele><time>2026-03-29T09:21:57.617Z</time></trkpt><trkpt lat="45.3948555" lon="10.6424513"><ele>105.25</ele><time>2026-03-29T09:21:58.62Z</time></trkpt><trkpt lat="45.3950056" lon="10.6425425"><ele>102.5</ele><time>2026-03-29T09:21:59.608Z</time></trkpt><trkpt lat="45.3951439" lon="10.6425893"><ele>99.75</ele><time>2026-03-29T09:22:00.623Z</time></trkpt><trkpt lat="45.3952694" lon="10.642636"><ele>97.0</ele><time>2026-03-29T09:22:01.621Z</time></trkpt><trkpt lat="45.3954097" lon="10.6426933"><ele>97.66666666666667</ele><time>2026-03-29T09:22:02.618Z</time></trkpt><trkpt lat="45.3955485" lon="10.642769"><ele>98.33333333333334</ele><time>2026-03-29T09:22:03.615Z</time></trkpt><trkpt lat="45.3957026" lon="10.6428186"><ele>99.0</ele><time>2026-03-29T09:22:04.616Z</time></trkpt><trkpt lat="45.3958381" lon="10.6428863"><ele>99.0</ele><time>2026-03-29T09:22:05.62Z</time></trkpt><trkpt lat="45.3959555" lon="10.6429446"><ele>99.0</ele><time>2026-03-29T09:22:06.618Z</time></trkpt><trkpt lat="45.3960998" lon="10.6430092"><ele>99.0</ele><time>2026-03-29T09:22:07.622Z</time></trkpt><trkpt lat="45.3962175" lon="10.64309"><ele>99.0</ele><time>2026-03-29T09:22:08.625Z</time></trkpt><trkpt lat="45.3963497" lon="10.6431597"><ele>97.5</ele><time>2026-03-29T09:22:09.636Z</time></trkpt><trkpt lat="45.3965051" lon="10.6432134"><ele>96.0</ele><time>2026-03-29T09:22:10.638Z</time></trkpt><trkpt lat="45.3966464" lon="10.6432821"><ele>94.5</ele><time>2026-03-29T09:22:11.63Z</time></trkpt><trkpt lat="45.3967608" lon="10.6433364"><ele>93.0</ele><time>2026-03-29T09:22:12.639Z</time></trkpt><trkpt lat="45.3968851" lon="10.6434125"><ele>93.0</ele><time>2026-03-29T09:22:13.635Z</time></trkpt><trkpt lat="45.3970226" lon="10.6434809"><ele>93.0</ele><time>2026-03-29T09:22:14.631Z</time></trkpt><trkpt lat="45.3971347" lon="10.6435492"><ele>93.0</ele><time>2026-03-29T09:22:15.632Z</time></trkpt><trkpt lat="45.3972494" lon="10.6435842"><ele>93.0</ele><time>2026-03-29T09:22:16.629Z</time></trkpt><trkpt lat="45.3973694" lon="10.6436083"><ele>92.5</ele><time>2026-03-29T09:22:17.626Z</time></trkpt><trkpt lat="45.3974959" lon="10.6436136"><ele>92.0</ele><time>2026-03-29T09:22:18.622Z</time></trkpt><trkpt lat="45.3976062" lon="10.6435889"><ele>91.5</ele><time>2026-03-29T09:22:19.621Z</time></trkpt><trkpt lat="45.3977216" lon="10.6435352"><ele>91.0</ele><time>2026-03-29T09:22:20.613Z</time></trkpt><trkpt lat="45.3978274" lon="10.643435"><ele>91.0</ele><time>2026-03-29T09:22:21.62Z</time></trkpt><trkpt lat="45.3979276" lon="10.6432762"><ele>91.0</ele><time>2026-03-29T09:22:22.615Z</time></trkpt><trkpt lat="45.39804" lon="10.6431308"><ele>91.0</ele><time>2026-03-29T09:22:23.626Z</time></trkpt><trkpt lat="45.3981252" lon="10.6429375"><ele>90.25</ele><time>2026-03-29T09:22:24.634Z</time></trkpt><trkpt lat="45.3982003" lon="10.6427761"><ele>89.5</ele><time>2026-03-29T09:22:25.642Z</time></trkpt><trkpt lat="45.3982937" lon="10.6426374"><ele>88.75</ele><time>2026-03-29T09:22:26.634Z</time></trkpt><trkpt lat="45.3983757" lon="10.6424798"><ele>88.0</ele><time>2026-03-29T09:22:27.632Z</time></trkpt><trkpt lat="45.3984488" lon="10.6423559"><ele>88.0</ele><time>2026-03-29T09:22:28.639Z</time></trkpt><trkpt lat="45.3985303" lon="10.6422204"><ele>88.0</ele><time>2026-03-29T09:22:29.634Z</time></trkpt><trkpt lat="45.3985964" lon="10.6420825"><ele>88.0</ele><time>2026-03-29T09:22:30.632Z</time></trkpt><trkpt lat="45.3986547" lon="10.6419291"><ele>88.0</ele><time>2026-03-29T09:22:31.623Z</time></trkpt><trkpt lat="45.3987016" lon="10.6417578"><ele>88.25</ele><time>2026-03-29T09:22:32.63Z</time></trkpt><trkpt lat="45.398733" lon="10.6415741"><ele>88.5</ele><time>2026-03-29T09:22:33.631Z</time></trkpt><trkpt lat="45.3987501" lon="10.6413784"><ele>88.75</ele><time>2026-03-29T09:22:34.629Z</time></trkpt><trkpt lat="45.3987641" lon="10.6411871"><ele>89.0</ele><time>2026-03-29T09:22:35.625Z</time></trkpt><trkpt lat="45.3987731" lon="10.6410038"><ele>89.5</ele><time>2026-03-29T09:22:36.626Z</time></trkpt><trkpt lat="45.3987684" lon="10.6408183"><ele>90.0</ele><time>2026-03-29T09:22:37.623Z</time></trkpt><trkpt lat="45.398751" lon="10.6406217"><ele>90.5</ele><time>2026-03-29T09:22:38.623Z</time></trkpt><trkpt lat="45.3987267" lon="10.6404221"><ele>91.0</ele><time>2026-03-29T09:22:39.629Z</time></trkpt><trkpt lat="45.3987064" lon="10.6402371"><ele>91.25</ele><time>2026-03-29T09:22:40.626Z</time></trkpt><trkpt lat="45.3986853" lon="10.6400741"><ele>91.5</ele><time>2026-03-29T09:22:41.637Z</time></trkpt><trkpt lat="45.3986791" lon="10.6399329"><ele>91.75</ele><time>2026-03-29T09:22:42.627Z</time></trkpt><trkpt lat="45.3986806" lon="10.6397548"><ele>92.0</ele><time>2026-03-29T09:22:43.633Z</time></trkpt><trkpt lat="45.3986711" lon="10.6395788"><ele>92.0</ele><time>2026-03-29T09:22:44.629Z</time></trkpt><trkpt lat="45.3986701" lon="10.6393877"><ele>92.0</ele><time>2026-03-29T09:22:45.63Z</time></trkpt><trkpt lat="45.3986699" lon="10.6391841"><ele>92.0</ele><time>2026-03-29T09:22:46.626Z</time></trkpt><trkpt lat="45.3986692" lon="10.6389811"><ele>92.0</ele><time>2026-03-29T09:22:47.63Z</time></trkpt><trkpt lat="45.3986731" lon="10.6388085"><ele>92.0</ele><time>2026-03-29T09:22:48.632Z</time></trkpt><trkpt lat="45.3986762" lon="10.638643"><ele>92.0</ele><time>2026-03-29T09:22:49.631Z</time></trkpt><trkpt lat="45.3986656" lon="10.6384677"><ele>92.0</ele><time>2026-03-29T09:22:50.631Z</time></trkpt><trkpt lat="45.3986709" lon="10.6383038"><ele>92.0</ele><time>2026-03-29T09:22:51.633Z</time></trkpt><trkpt lat="45.3986693" lon="10.6381244"><ele>91.75</ele><time>2026-03-29T09:22:52.625Z</time></trkpt><trkpt lat="45.3986624" lon="10.6379363"><ele>91.5</ele><time>2026-03-29T09:22:53.64Z</time></trkpt><trkpt lat="45.3986606" lon="10.6377198"><ele>91.25</ele><time>2026-03-29T09:22:54.625Z</time></trkpt><trkpt lat="45.3986556" lon="10.6375189"><ele>91.0</ele><time>2026-03-29T09:22:55.631Z</time></trkpt><trkpt lat="45.3986404" lon="10.6373144"><ele>91.0</ele><time>2026-03-29T09:22:56.624Z</time></trkpt><trkpt lat="45.39864" lon="10.6371108"><ele>91.0</ele><time>2026-03-29T09:22:57.632Z</time></trkpt><trkpt lat="45.3986464" lon="10.6369113"><ele>91.0</ele><time>2026-03-29T09:22:58.631Z</time></trkpt><trkpt lat="45.3986883" lon="10.6367399"><ele>91.0</ele><time>2026-03-29T09:22:59.627Z</time></trkpt><trkpt lat="45.3987153" lon="10.6365493"><ele>91.0</ele><time>2026-03-29T09:23:00.631Z</time></trkpt><trkpt lat="45.3987757" lon="10.6363845"><ele>91.0</ele><time>2026-03-29T09:23:01.632Z</time></trkpt><trkpt lat="45.3988299" lon="10.6362195"><ele>91.0</ele><time>2026-03-29T09:23:02.628Z</time></trkpt><trkpt lat="45.3988955" lon="10.6360497"><ele>91.0</ele><time>2026-03-29T09:23:03.628Z</time></trkpt><trkpt lat="45.3989572" lon="10.6358655"><ele>91.0</ele><time>2026-03-29T09:23:04.634Z</time></trkpt><trkpt lat="45.3990264" lon="10.6357025"><ele>91.0</ele><time>2026-03-29T09:23:06.705Z</time></trkpt><trkpt lat="45.3990984" lon="10.6355431"><ele>91.0</ele><time>2026-03-29T09:23:07.706Z</time></trkpt><trkpt lat="45.3991693" lon="10.6353957"><ele>91.0</ele><time>2026-03-29T09:23:08.709Z</time></trkpt><trkpt lat="45.3992356" lon="10.6352632"><ele>91.33333333333333</ele><time>2026-03-29T09:23:09.713Z</time></trkpt><trkpt lat="45.3992969" lon="10.6351438"><ele>91.66666666666666</ele><time>2026-03-29T09:23:10.712Z</time></trkpt><trkpt lat="45.3993495" lon="10.635036"><ele>92.0</ele><time>2026-03-29T09:23:11.705Z</time></trkpt><trkpt lat="45.3993992" lon="10.634941"><ele>92.33333333333333</ele><time>2026-03-29T09:23:12.707Z</time></trkpt><trkpt lat="45.3994564" lon="10.6348576"><ele>92.66666666666667</ele><time>2026-03-29T09:23:13.701Z</time></trkpt><trkpt lat="45.3995253" lon="10.6347982"><ele>93.0</ele><time>2026-03-29T09:23:14.69Z</time></trkpt><trkpt lat="45.3996044" lon="10.6347578"><ele>92.4</ele><time>2026-03-29T09:23:15.68Z</time></trkpt><trkpt lat="45.3996852" lon="10.6347448"><ele>91.80000000000001</ele><time>2026-03-29T09:23:16.688Z</time></trkpt><trkpt lat="45.3998035" lon="10.6347083"><ele>91.2</ele><time>2026-03-29T09:23:17.693Z</time></trkpt><trkpt lat="45.3998897" lon="10.6347504"><ele>90.6</ele><time>2026-03-29T09:23:18.709Z</time></trkpt><trkpt lat="45.39999" lon="10.6348217"><ele>90.0</ele><time>2026-03-29T09:23:19.713Z</time></trkpt><trkpt lat="45.4001061" lon="10.6349163"><ele>90.0</ele><time>2026-03-29T09:23:20.694Z</time></trkpt><trkpt lat="45.4002501" lon="10.6350393"><ele>90.0</ele><time>2026-03-29T09:23:21.708Z</time></trkpt><trkpt lat="45.4003872" lon="10.6351639"><ele>90.0</ele><time>2026-03-29T09:23:22.7Z</time></trkpt><trkpt lat="45.4005302" lon="10.6352919"><ele>89.33333333333333</ele><time>2026-03-29T09:23:23.704Z</time></trkpt><trkpt lat="45.4006731" lon="10.635424"><ele>88.66666666666666</ele><time>2026-03-29T09:23:24.717Z</time></trkpt><trkpt lat="45.4008183" lon="10.6355526"><ele>88.0</ele><time>2026-03-29T09:23:25.722Z</time></trkpt><trkpt lat="45.4009666" lon="10.6356785"><ele>88.0</ele><time>2026-03-29T09:23:26.72Z</time></trkpt><trkpt lat="45.4011127" lon="10.6358071"><ele>88.0</ele><time>2026-03-29T09:23:27.73Z</time></trkpt><trkpt lat="45.4012583" lon="10.6359402"><ele>88.0</ele><time>2026-03-29T09:23:28.726Z</time></trkpt><trkpt lat="45.4014067" lon="10.6360756"><ele>87.66666666666666</ele><time>2026-03-29T09:23:29.722Z</time></trkpt><trkpt lat="45.4015563" lon="10.636207"><ele>87.33333333333333</ele><time>2026-03-29T09:23:30.722Z</time></trkpt><trkpt lat="45.4017071" lon="10.6363333"><ele>87.0</ele><time>2026-03-29T09:23:31.721Z</time></trkpt><trkpt lat="45.4018595" lon="10.6364618"><ele>87.0</ele><time>2026-03-29T09:23:32.725Z</time></trkpt><trkpt lat="45.4020062" lon="10.6365914"><ele>87.0</ele><time>2026-03-29T09:23:33.716Z</time></trkpt><trkpt lat="45.4021503" lon="10.6367208"><ele>87.0</ele><time>2026-03-29T09:23:34.718Z</time></trkpt><trkpt lat="45.4022945" lon="10.63685"><ele>86.66666666666667</ele><time>2026-03-29T09:23:35.72Z</time></trkpt><trkpt lat="45.4024453" lon="10.6369776"><ele>86.33333333333334</ele><time>2026-03-29T09:23:36.717Z</time></trkpt><trkpt lat="45.4025932" lon="10.6370993"><ele>86.0</ele><time>2026-03-29T09:23:37.731Z</time></trkpt><trkpt lat="45.4027394" lon="10.6372213"><ele>86.0</ele><time>2026-03-29T09:23:38.72Z</time></trkpt><trkpt lat="45.4028868" lon="10.6373455"><ele>86.0</ele><time>2026-03-29T09:23:39.718Z</time></trkpt><trkpt lat="45.4030312" lon="10.6374695"><ele>86.0</ele><time>2026-03-29T09:23:40.714Z</time></trkpt><trkpt lat="45.4031776" lon="10.6375937"><ele>87.0</ele><time>2026-03-29T09:23:41.717Z</time></trkpt><trkpt lat="45.4033276" lon="10.6377189"><ele>88.0</ele><time>2026-03-29T09:23:42.717Z</time></trkpt><trkpt lat="45.4034736" lon="10.6378449"><ele>89.0</ele><time>2026-03-29T09:23:43.716Z</time></trkpt><trkpt lat="45.403621" lon="10.6379723"><ele>89.0</ele><time>2026-03-29T09:23:44.718Z</time></trkpt><trkpt lat="45.4037678" lon="10.6381017"><ele>89.0</ele><time>2026-03-29T09:23:45.717Z</time></trkpt><trkpt lat="45.4039116" lon="10.6382307"><ele>89.0</ele><time>2026-03-29T09:23:46.718Z</time></trkpt><trkpt lat="45.4040552" lon="10.6383594"><ele>89.33333333333334</ele><time>2026-03-29T09:23:47.716Z</time></trkpt><trkpt lat="45.4041904" lon="10.6384763"><ele>89.66666666666667</ele><time>2026-03-29T09:23:48.72Z</time></trkpt><trkpt lat="45.4043157" lon="10.6385898"><ele>90.0</ele><time>2026-03-29T09:23:49.722Z</time></trkpt><trkpt lat="45.4044421" lon="10.6387039"><ele>90.66666666666667</ele><time>2026-03-29T09:23:50.72Z</time></trkpt><trkpt lat="45.4045733" lon="10.6388232"><ele>91.33333333333334</ele><time>2026-03-29T09:23:51.732Z</time></trkpt><trkpt lat="45.4047139" lon="10.6389492"><ele>92.0</ele><time>2026-03-29T09:23:52.724Z</time></trkpt><trkpt lat="45.4048556" lon="10.6390668"><ele>92.0</ele><time>2026-03-29T09:23:53.726Z</time></trkpt><trkpt lat="45.4049879" lon="10.6391783"><ele>92.0</ele><time>2026-03-29T09:23:54.717Z</time></trkpt><trkpt lat="45.4051156" lon="10.639283"><ele>92.0</ele><time>2026-03-29T09:23:55.718Z</time></trkpt><trkpt lat="45.4052314" lon="10.6393714"><ele>92.0</ele><time>2026-03-29T09:23:56.724Z</time></trkpt><trkpt lat="45.4053306" lon="10.6394399"><ele>91.33333333333334</ele><time>2026-03-29T09:23:57.723Z</time></trkpt><trkpt lat="45.4054222" lon="10.6394984"><ele>90.66666666666667</ele><time>2026-03-29T09:23:58.724Z</time></trkpt><trkpt lat="45.4054974" lon="10.6395502"><ele>90.0</ele><time>2026-03-29T09:23:59.719Z</time></trkpt><trkpt lat="45.4055659" lon="10.6396005"><ele>89.33333333333333</ele><time>2026-03-29T09:24:00.728Z</time></trkpt><trkpt lat="45.4055947" lon="10.6396966"><ele>88.66666666666666</ele><time>2026-03-29T09:24:02.723Z</time></trkpt><trkpt lat="45.4055655" lon="10.6398015"><ele>88.0</ele><time>2026-03-29T09:24:04.689Z</time></trkpt><trkpt lat="45.4055126" lon="10.6399307"><ele>88.0</ele><time>2026-03-29T09:24:06.691Z</time></trkpt><trkpt lat="45.405506" lon="10.6400534"><ele>88.0</ele><time>2026-03-29T09:24:08.704Z</time></trkpt><trkpt lat="45.4055223" lon="10.6402249"><ele>88.0</ele><time>2026-03-29T09:24:10.691Z</time></trkpt><trkpt lat="45.4055619" lon="10.6403107"><ele>88.0</ele><time>2026-03-29T09:24:11.703Z</time></trkpt><trkpt lat="45.4056428" lon="10.6403916"><ele>88.0</ele><time>2026-03-29T09:24:12.703Z</time></trkpt><trkpt lat="45.4057562" lon="10.6404667"><ele>87.25</ele><time>2026-03-29T09:24:13.701Z</time></trkpt><trkpt lat="45.4058675" lon="10.6405261"><ele>86.5</ele><time>2026-03-29T09:24:14.719Z</time></trkpt><trkpt lat="45.4059924" lon="10.6405922"><ele>85.75</ele><time>2026-03-29T09:24:15.708Z</time></trkpt><trkpt lat="45.4061268" lon="10.640672"><ele>85.0</ele><time>2026-03-29T09:24:16.729Z</time></trkpt><trkpt lat="45.4062485" lon="10.6407527"><ele>85.4</ele><time>2026-03-29T09:24:17.7Z</time></trkpt><trkpt lat="45.4063627" lon="10.6408297"><ele>85.8</ele><time>2026-03-29T09:24:18.7Z</time></trkpt><trkpt lat="45.406465" lon="10.640889"><ele>86.19999999999999</ele><time>2026-03-29T09:24:19.7Z</time></trkpt><trkpt lat="45.4065569" lon="10.6409191"><ele>86.6</ele><time>2026-03-29T09:24:20.701Z</time></trkpt><trkpt lat="45.4066634" lon="10.6409437"><ele>87.0</ele><time>2026-03-29T09:24:21.722Z</time></trkpt><trkpt lat="45.4067836" lon="10.6409716"><ele>87.0</ele><time>2026-03-29T09:24:22.712Z</time></trkpt><trkpt lat="45.4068916" lon="10.6409967"><ele>87.0</ele><time>2026-03-29T09:24:23.72Z</time></trkpt><trkpt lat="45.406996" lon="10.6410096"><ele>87.0</ele><time>2026-03-29T09:24:24.718Z</time></trkpt><trkpt lat="45.4071079" lon="10.6410098"><ele>87.0</ele><time>2026-03-29T09:24:25.722Z</time></trkpt><trkpt lat="45.4074654" lon="10.640954"><ele>87.19999999999999</ele><time>2026-03-29T09:24:27.626Z</time></trkpt><trkpt lat="45.4075796" lon="10.6409704"><ele>87.4</ele><time>2026-03-29T09:24:28.618Z</time></trkpt><trkpt lat="45.4076999" lon="10.6410031"><ele>87.6</ele><time>2026-03-29T09:24:29.619Z</time></trkpt><trkpt lat="45.407795" lon="10.6410205"><ele>87.80000000000001</ele><time>2026-03-29T09:24:30.638Z</time></trkpt><trkpt lat="45.4079023" lon="10.6410398"><ele>88.0</ele><time>2026-03-29T09:24:31.627Z</time></trkpt><trkpt lat="45.4079895" lon="10.6410608"><ele>88.4</ele><time>2026-03-29T09:24:32.638Z</time></trkpt><trkpt lat="45.4080669" lon="10.6411133"><ele>88.80000000000001</ele><time>2026-03-29T09:24:33.615Z</time></trkpt><trkpt lat="45.4081442" lon="10.6411896"><ele>89.2</ele><time>2026-03-29T09:24:34.614Z</time></trkpt><trkpt lat="45.408217" lon="10.6412952"><ele>89.6</ele><time>2026-03-29T09:24:35.614Z</time></trkpt><trkpt lat="45.4082958" lon="10.6414146"><ele>90.0</ele><time>2026-03-29T09:24:36.607Z</time></trkpt><trkpt lat="45.4083608" lon="10.6415242"><ele>89.0</ele><time>2026-03-29T09:24:37.616Z</time></trkpt><trkpt lat="45.4084164" lon="10.6416312"><ele>88.0</ele><time>2026-03-29T09:24:38.618Z</time></trkpt><trkpt lat="45.4084722" lon="10.6417539"><ele>87.0</ele><time>2026-03-29T09:24:39.617Z</time></trkpt><trkpt lat="45.40851" lon="10.6419014"><ele>86.0</ele><time>2026-03-29T09:24:40.613Z</time></trkpt><trkpt lat="45.4085421" lon="10.642088"><ele>85.0</ele><time>2026-03-29T09:24:41.626Z</time></trkpt><trkpt lat="45.4085507" lon="10.6423035"><ele>85.0</ele><time>2026-03-29T09:24:42.618Z</time></trkpt><trkpt lat="45.4085584" lon="10.6425267"><ele>85.0</ele><time>2026-03-29T09:24:43.633Z</time></trkpt><trkpt lat="45.4085598" lon="10.6427419"><ele>85.0</ele><time>2026-03-29T09:24:44.634Z</time></trkpt><trkpt lat="45.4085741" lon="10.64292"><ele>85.0</ele><time>2026-03-29T09:24:45.629Z</time></trkpt><trkpt lat="45.4085854" lon="10.6430721"><ele>85.5</ele><time>2026-03-29T09:24:46.632Z</time></trkpt><trkpt lat="45.4086292" lon="10.643248"><ele>86.0</ele><time>2026-03-29T09:24:47.631Z</time></trkpt><trkpt lat="45.4086484" lon="10.6434301"><ele>86.5</ele><time>2026-03-29T09:24:48.632Z</time></trkpt><trkpt lat="45.4086779" lon="10.6436298"><ele>87.0</ele><time>2026-03-29T09:24:49.635Z</time></trkpt><trkpt lat="45.4087229" lon="10.6438123"><ele>87.0</ele><time>2026-03-29T09:24:50.628Z</time></trkpt><trkpt lat="45.4087675" lon="10.6439696"><ele>87.0</ele><time>2026-03-29T09:24:51.639Z</time></trkpt><trkpt lat="45.4088094" lon="10.6441412"><ele>87.0</ele><time>2026-03-29T09:24:52.637Z</time></trkpt><trkpt lat="45.4088552" lon="10.6443158"><ele>87.0</ele><time>2026-03-29T09:24:53.633Z</time></trkpt><trkpt lat="45.4088946" lon="10.6444829"><ele>87.0</ele><time>2026-03-29T09:24:54.632Z</time></trkpt><trkpt lat="45.4089346" lon="10.6446297"><ele>87.0</ele><time>2026-03-29T09:24:55.629Z</time></trkpt><trkpt lat="45.4089668" lon="10.6447575"><ele>87.0</ele><time>2026-03-29T09:24:56.633Z</time></trkpt><trkpt lat="45.4090032" lon="10.6448726"><ele>87.0</ele><time>2026-03-29T09:24:57.621Z</time></trkpt><trkpt lat="45.4090452" lon="10.6449753"><ele>87.0</ele><time>2026-03-29T09:24:58.637Z</time></trkpt><trkpt lat="45.4091002" lon="10.6450778"><ele>87.0</ele><time>2026-03-29T09:24:59.633Z</time></trkpt><trkpt lat="45.4091817" lon="10.6451844"><ele>87.0</ele><time>2026-03-29T09:25:00.629Z</time></trkpt><trkpt lat="45.4092765" lon="10.6452941"><ele>87.0</ele><time>2026-03-29T09:25:01.635Z</time></trkpt><trkpt lat="45.4093823" lon="10.6454039"><ele>87.0</ele><time>2026-03-29T09:25:02.629Z</time></trkpt><trkpt lat="45.4094834" lon="10.6455187"><ele>87.0</ele><time>2026-03-29T09:25:03.626Z</time></trkpt><trkpt lat="45.4095615" lon="10.645617"><ele>87.0</ele><time>2026-03-29T09:25:04.624Z</time></trkpt><trkpt lat="45.4096548" lon="10.6457012"><ele>87.0</ele><time>2026-03-29T09:25:05.634Z</time></trkpt><trkpt lat="45.4097452" lon="10.6457862"><ele>87.0</ele><time>2026-03-29T09:25:06.636Z</time></trkpt><trkpt lat="45.4098349" lon="10.6458606"><ele>87.0</ele><time>2026-03-29T09:25:07.626Z</time></trkpt><trkpt lat="45.4099079" lon="10.6459344"><ele>87.25</ele><time>2026-03-29T09:25:08.629Z</time></trkpt><trkpt lat="45.4099793" lon="10.6460397"><ele>87.5</ele><time>2026-03-29T09:25:09.628Z</time></trkpt><trkpt lat="45.4100445" lon="10.6461604"><ele>87.75</ele><time>2026-03-29T09:25:10.629Z</time></trkpt><trkpt lat="45.4101105" lon="10.6463174"><ele>88.0</ele><time>2026-03-29T09:25:11.629Z</time></trkpt><trkpt lat="45.410186" lon="10.6464781"><ele>88.25</ele><time>2026-03-29T09:25:12.626Z</time></trkpt><trkpt lat="45.4102833" lon="10.6466285"><ele>88.5</ele><time>2026-03-29T09:25:13.625Z</time></trkpt><trkpt lat="45.4103784" lon="10.64677"><ele>88.75</ele><time>2026-03-29T09:25:14.628Z</time></trkpt><trkpt lat="45.4104749" lon="10.6469066"><ele>89.0</ele><time>2026-03-29T09:25:15.632Z</time></trkpt><trkpt lat="45.4105658" lon="10.6470319"><ele>88.25</ele><time>2026-03-29T09:25:16.634Z</time></trkpt><trkpt lat="45.4106652" lon="10.6471416"><ele>87.5</ele><time>2026-03-29T09:25:17.636Z</time></trkpt><trkpt lat="45.4107511" lon="10.6472496"><ele>86.75</ele><time>2026-03-29T09:25:18.622Z</time></trkpt><trkpt lat="45.4108208" lon="10.6473791"><ele>86.0</ele><time>2026-03-29T09:25:19.638Z</time></trkpt><trkpt lat="45.4108442" lon="10.6475496"><ele>86.0</ele><time>2026-03-29T09:25:20.628Z</time></trkpt><trkpt lat="45.4108741" lon="10.6477313"><ele>86.0</ele><time>2026-03-29T09:25:21.633Z</time></trkpt><trkpt lat="45.4109062" lon="10.6479008"><ele>86.0</ele><time>2026-03-29T09:25:22.632Z</time></trkpt><trkpt lat="45.4109319" lon="10.6480546"><ele>86.0</ele><time>2026-03-29T09:25:23.632Z</time></trkpt><trkpt lat="45.4109493" lon="10.6481738"><ele>86.5</ele><time>2026-03-29T09:25:24.633Z</time></trkpt><trkpt lat="45.4109889" lon="10.648311"><ele>87.0</ele><time>2026-03-29T09:25:26.618Z</time></trkpt><trkpt lat="45.4111178" lon="10.6483077"><ele>87.5</ele><time>2026-03-29T09:25:28.63Z</time></trkpt><trkpt lat="45.4112319" lon="10.6482531"><ele>88.0</ele><time>2026-03-29T09:25:29.62Z</time></trkpt><trkpt lat="45.4113674" lon="10.6482146"><ele>89.0</ele><time>2026-03-29T09:25:30.633Z</time></trkpt><trkpt lat="45.411495" lon="10.648181"><ele>90.0</ele><time>2026-03-29T09:25:31.632Z</time></trkpt><trkpt lat="45.4116188" lon="10.6481559"><ele>91.0</ele><time>2026-03-29T09:25:32.621Z</time></trkpt><trkpt lat="45.4117199" lon="10.6481323"><ele>92.0</ele><time>2026-03-29T09:25:33.622Z</time></trkpt><trkpt lat="45.4118" lon="10.6481166"><ele>93.0</ele><time>2026-03-29T09:25:34.617Z</time></trkpt><trkpt lat="45.4118849" lon="10.6481033"><ele>93.0</ele><time>2026-03-29T09:25:36.618Z</time></trkpt><trkpt lat="45.4119664" lon="10.6480005"><ele>93.0</ele><time>2026-03-29T09:25:39.622Z</time></trkpt><trkpt lat="45.4119759" lon="10.6479002"><ele>93.0</ele><time>2026-03-29T09:25:40.604Z</time></trkpt><trkpt lat="45.4119718" lon="10.6477605"><ele>93.0</ele><time>2026-03-29T09:25:41.62Z</time></trkpt><trkpt lat="45.4119613" lon="10.647578"><ele>93.0</ele><time>2026-03-29T09:25:42.604Z</time></trkpt><trkpt lat="45.4119509" lon="10.6473574"><ele>93.0</ele><time>2026-03-29T09:25:43.613Z</time></trkpt><trkpt lat="45.411936" lon="10.647102"><ele>93.0</ele><time>2026-03-29T09:25:44.607Z</time></trkpt><trkpt lat="45.4119063" lon="10.6468077"><ele>93.0</ele><time>2026-03-29T09:25:45.619Z</time></trkpt><trkpt lat="45.4118693" lon="10.6465441"><ele>93.0</ele><time>2026-03-29T09:25:46.614Z</time></trkpt><trkpt lat="45.4118444" lon="10.6462686"><ele>93.0</ele><time>2026-03-29T09:25:47.615Z</time></trkpt><trkpt lat="45.4118038" lon="10.6459821"><ele>93.0</ele><time>2026-03-29T09:25:48.607Z</time></trkpt><trkpt lat="45.4117363" lon="10.6456894"><ele>94.0</ele><time>2026-03-29T09:25:49.612Z</time></trkpt><trkpt lat="45.4116785" lon="10.64542"><ele>95.0</ele><time>2026-03-29T09:25:50.61Z</time></trkpt><trkpt lat="45.4116309" lon="10.6451568"><ele>96.0</ele><time>2026-03-29T09:25:51.61Z</time></trkpt><trkpt lat="45.411584" lon="10.6449153"><ele>96.33333333333334</ele><time>2026-03-29T09:25:52.624Z</time></trkpt><trkpt lat="45.4115445" lon="10.6446897"><ele>96.66666666666667</ele><time>2026-03-29T09:25:53.625Z</time></trkpt><trkpt lat="45.4114858" lon="10.6444701"><ele>97.0</ele><time>2026-03-29T09:25:54.625Z</time></trkpt><trkpt lat="45.4114412" lon="10.6442293"><ele>96.66666666666667</ele><time>2026-03-29T09:25:55.624Z</time></trkpt><trkpt lat="45.4113966" lon="10.6440058"><ele>96.33333333333334</ele><time>2026-03-29T09:25:56.636Z</time></trkpt><trkpt lat="45.4113526" lon="10.6437652"><ele>96.0</ele><time>2026-03-29T09:25:57.624Z</time></trkpt><trkpt lat="45.4112985" lon="10.6435136"><ele>96.0</ele><time>2026-03-29T09:25:58.625Z</time></trkpt><trkpt lat="45.4112376" lon="10.6432772"><ele>96.0</ele><time>2026-03-29T09:25:59.621Z</time></trkpt><trkpt lat="45.4111787" lon="10.6430451"><ele>96.0</ele><time>2026-03-29T09:26:00.628Z</time></trkpt><trkpt lat="45.4111323" lon="10.642813"><ele>95.66666666666667</ele><time>2026-03-29T09:26:01.619Z</time></trkpt><trkpt lat="45.4110601" lon="10.6425785"><ele>95.33333333333334</ele><time>2026-03-29T09:26:02.614Z</time></trkpt><trkpt lat="45.4110037" lon="10.6423283"><ele>95.0</ele><time>2026-03-29T09:26:03.618Z</time></trkpt><trkpt lat="45.4109554" lon="10.6421016"><ele>96.2</ele><time>2026-03-29T09:26:04.611Z</time></trkpt><trkpt lat="45.4109282" lon="10.6419196"><ele>97.4</ele><time>2026-03-29T09:26:05.62Z</time></trkpt><trkpt lat="45.4108908" lon="10.6417768"><ele>98.6</ele><time>2026-03-29T09:26:06.605Z</time></trkpt><trkpt lat="45.4108733" lon="10.6416557"><ele>99.8</ele><time>2026-03-29T09:26:07.61Z</time></trkpt><trkpt lat="45.4108518" lon="10.6415531"><ele>101.0</ele><time>2026-03-29T09:26:08.605Z</time></trkpt><trkpt lat="45.4108462" lon="10.6414177"><ele>101.0</ele><time>2026-03-29T09:26:09.609Z</time></trkpt><trkpt lat="45.41085" lon="10.6413116"><ele>101.0</ele><time>2026-03-29T09:26:10.61Z</time></trkpt><trkpt lat="45.410872" lon="10.6412234"><ele>101.0</ele><time>2026-03-29T09:26:11.607Z</time></trkpt><trkpt lat="45.4109061" lon="10.6411344"><ele>101.0</ele><time>2026-03-29T09:26:12.617Z</time></trkpt><trkpt lat="45.410945" lon="10.6410325"><ele>101.0</ele><time>2026-03-29T09:26:13.622Z</time></trkpt><trkpt lat="45.4109639" lon="10.6409271"><ele>101.0</ele><time>2026-03-29T09:26:14.614Z</time></trkpt><trkpt lat="45.4109472" lon="10.6408344"><ele>101.0</ele><time>2026-03-29T09:26:15.625Z</time></trkpt><trkpt lat="45.4108924" lon="10.6407642"><ele>101.19999999999999</ele><time>2026-03-29T09:26:16.612Z</time></trkpt><trkpt lat="45.4108071" lon="10.6407136"><ele>101.39999999999999</ele><time>2026-03-29T09:26:17.618Z</time></trkpt><trkpt lat="45.4107141" lon="10.6406692"><ele>101.6</ele><time>2026-03-29T09:26:18.612Z</time></trkpt><trkpt lat="45.4106245" lon="10.6405949"><ele>101.8</ele><time>2026-03-29T09:26:19.612Z</time></trkpt><trkpt lat="45.4105387" lon="10.6404853"><ele>102.0</ele><time>2026-03-29T09:26:20.623Z</time></trkpt><trkpt lat="45.4104719" lon="10.6403262"><ele>101.66666666666666</ele><time>2026-03-29T09:26:21.608Z</time></trkpt><trkpt lat="45.4104102" lon="10.6401579"><ele>101.33333333333333</ele><time>2026-03-29T09:26:22.622Z</time></trkpt><trkpt lat="45.4103762" lon="10.6399344"><ele>101.0</ele><time>2026-03-29T09:26:23.609Z</time></trkpt><trkpt lat="45.4103469" lon="10.6396821"><ele>102.33333333333333</ele><time>2026-03-29T09:26:24.606Z</time></trkpt><trkpt lat="45.4103134" lon="10.6393986"><ele>103.66666666666666</ele><time>2026-03-29T09:26:25.617Z</time></trkpt><trkpt lat="45.4102726" lon="10.6391507"><ele>105.0</ele><time>2026-03-29T09:26:26.617Z</time></trkpt><trkpt lat="45.4101935" lon="10.6389026"><ele>105.0</ele><time>2026-03-29T09:26:27.619Z</time></trkpt><trkpt lat="45.4101147" lon="10.63864"><ele>105.0</ele><time>2026-03-29T09:26:28.614Z</time></trkpt><trkpt lat="45.4100301" lon="10.6384554"><ele>105.0</ele><time>2026-03-29T09:26:29.612Z</time></trkpt><trkpt lat="45.4099473" lon="10.6382591"><ele>104.33333333333334</ele><time>2026-03-29T09:26:30.608Z</time></trkpt><trkpt lat="45.4098829" lon="10.638056"><ele>103.66666666666667</ele><time>2026-03-29T09:26:31.61Z</time></trkpt><trkpt lat="45.4097954" lon="10.6378478"><ele>103.0</ele><time>2026-03-29T09:26:32.612Z</time></trkpt><trkpt lat="45.4097336" lon="10.6376555"><ele>103.0</ele><time>2026-03-29T09:26:33.61Z</time></trkpt><trkpt lat="45.409678" lon="10.6374808"><ele>103.0</ele><time>2026-03-29T09:26:34.614Z</time></trkpt><trkpt lat="45.4095952" lon="10.6373082"><ele>103.0</ele><time>2026-03-29T09:26:35.619Z</time></trkpt><trkpt lat="45.4095077" lon="10.6371137"><ele>103.0</ele><time>2026-03-29T09:26:36.615Z</time></trkpt><trkpt lat="45.4094205" lon="10.6369255"><ele>104.25</ele><time>2026-03-29T09:26:37.616Z</time></trkpt><trkpt lat="45.4093551" lon="10.6367417"><ele>105.5</ele><time>2026-03-29T09:26:38.618Z</time></trkpt><trkpt lat="45.4092834" lon="10.6365881"><ele>106.75</ele><time>2026-03-29T09:26:39.626Z</time></trkpt><trkpt lat="45.4092082" lon="10.6364474"><ele>108.0</ele><time>2026-03-29T09:26:40.627Z</time></trkpt><trkpt lat="45.4091204" lon="10.6362843"><ele>107.75</ele><time>2026-03-29T09:26:41.626Z</time></trkpt><trkpt lat="45.4090236" lon="10.6361161"><ele>107.5</ele><time>2026-03-29T09:26:42.62Z</time></trkpt><trkpt lat="45.4089331" lon="10.6359562"><ele>107.25</ele><time>2026-03-29T09:26:43.626Z</time></trkpt><trkpt lat="45.4088446" lon="10.6357856"><ele>107.0</ele><time>2026-03-29T09:26:44.627Z</time></trkpt><trkpt lat="45.4087352" lon="10.6356106"><ele>107.0</ele><time>2026-03-29T09:26:45.618Z</time></trkpt><trkpt lat="45.40864" lon="10.6354583"><ele>107.0</ele><time>2026-03-29T09:26:46.612Z</time></trkpt><trkpt lat="45.4085286" lon="10.6353085"><ele>107.0</ele><time>2026-03-29T09:26:47.616Z</time></trkpt><trkpt lat="45.4084077" lon="10.6351723"><ele>108.0</ele><time>2026-03-29T09:26:48.611Z</time></trkpt><trkpt lat="45.4082884" lon="10.6350226"><ele>109.0</ele><time>2026-03-29T09:26:49.615Z</time></trkpt><trkpt lat="45.4081631" lon="10.6348888"><ele>110.0</ele><time>2026-03-29T09:26:50.613Z</time></trkpt><trkpt lat="45.4080448" lon="10.634772"><ele>109.99999999999999</ele><time>2026-03-29T09:26:51.612Z</time></trkpt><trkpt lat="45.4079438" lon="10.6346852"><ele>110.0</ele><time>2026-03-29T09:26:52.614Z</time></trkpt><trkpt lat="45.4078883" lon="10.6346038"><ele>110.0</ele><time>2026-03-29T09:26:53.626Z</time></trkpt><trkpt lat="45.4078066" lon="10.6345291"><ele>110.0</ele><time>2026-03-29T09:26:54.621Z</time></trkpt><trkpt lat="45.4077494" lon="10.6344551"><ele>109.99999999999999</ele><time>2026-03-29T09:26:55.614Z</time></trkpt><trkpt lat="45.4076992" lon="10.6343857"><ele>110.0</ele><time>2026-03-29T09:26:56.609Z</time></trkpt><trkpt lat="45.4076576" lon="10.6342637"><ele>110.0</ele><time>2026-03-29T09:26:58.613Z</time></trkpt><trkpt lat="45.4077297" lon="10.634139"><ele>110.0</ele><time>2026-03-29T09:27:00.613Z</time></trkpt><trkpt lat="45.4077936" lon="10.634065"><ele>110.0</ele><time>2026-03-29T09:27:01.611Z</time></trkpt><trkpt lat="45.4078768" lon="10.6339954"><ele>110.0</ele><time>2026-03-29T09:27:02.611Z</time></trkpt><trkpt lat="45.4079908" lon="10.633946"><ele>110.0</ele><time>2026-03-29T09:27:03.615Z</time></trkpt><trkpt lat="45.4081118" lon="10.6338976"><ele>110.25</ele><time>2026-03-29T09:27:04.64Z</time></trkpt><trkpt lat="45.4082289" lon="10.6338527"><ele>110.5</ele><time>2026-03-29T09:27:05.632Z</time></trkpt><trkpt lat="45.4083411" lon="10.633808"><ele>110.75</ele><time>2026-03-29T09:27:06.628Z</time></trkpt><trkpt lat="45.40845" lon="10.6337387"><ele>111.0</ele><time>2026-03-29T09:27:07.628Z</time></trkpt><trkpt lat="45.4085658" lon="10.633671"><ele>111.5</ele><time>2026-03-29T09:27:08.628Z</time></trkpt><trkpt lat="45.4086894" lon="10.6335894"><ele>112.0</ele><time>2026-03-29T09:27:09.616Z</time></trkpt><trkpt lat="45.4088168" lon="10.633481"><ele>112.5</ele><time>2026-03-29T09:27:10.616Z</time></trkpt><trkpt lat="45.4089234" lon="10.633377"><ele>113.0</ele><time>2026-03-29T09:27:11.616Z</time></trkpt><trkpt lat="45.4090101" lon="10.6332758"><ele>113.25</ele><time>2026-03-29T09:27:12.612Z</time></trkpt><trkpt lat="45.4091127" lon="10.6331778"><ele>113.5</ele><time>2026-03-29T09:27:13.628Z</time></trkpt><trkpt lat="45.4092167" lon="10.6330672"><ele>113.75</ele><time>2026-03-29T09:27:14.624Z</time></trkpt><trkpt lat="45.4093201" lon="10.6329828"><ele>114.0</ele><time>2026-03-29T09:27:15.632Z</time></trkpt><trkpt lat="45.4094328" lon="10.632904"><ele>113.25</ele><time>2026-03-29T09:27:16.623Z</time></trkpt><trkpt lat="45.4095288" lon="10.6328055"><ele>112.5</ele><time>2026-03-29T09:27:17.625Z</time></trkpt><trkpt lat="45.4096244" lon="10.6327079"><ele>111.75</ele><time>2026-03-29T09:27:18.627Z</time></trkpt><trkpt lat="45.4097193" lon="10.632607"><ele>111.0</ele><time>2026-03-29T09:27:19.629Z</time></trkpt><trkpt lat="45.4098165" lon="10.6324816"><ele>111.0</ele><time>2026-03-29T09:27:20.627Z</time></trkpt><trkpt lat="45.409908" lon="10.6323551"><ele>111.0</ele><time>2026-03-29T09:27:21.624Z</time></trkpt><trkpt lat="45.4100015" lon="10.6322294"><ele>111.0</ele><time>2026-03-29T09:27:22.628Z</time></trkpt><trkpt lat="45.4101108" lon="10.6321018"><ele>111.0</ele><time>2026-03-29T09:27:23.621Z</time></trkpt><trkpt lat="45.4102321" lon="10.6320052"><ele>109.5</ele><time>2026-03-29T09:27:24.616Z</time></trkpt><trkpt lat="45.4103611" lon="10.6319494"><ele>108.0</ele><time>2026-03-29T09:27:25.615Z</time></trkpt><trkpt lat="45.410471" lon="10.6318865"><ele>106.5</ele><time>2026-03-29T09:27:26.62Z</time></trkpt><trkpt lat="45.4105758" lon="10.6318033"><ele>105.0</ele><time>2026-03-29T09:27:27.618Z</time></trkpt><trkpt lat="45.4106876" lon="10.6317578"><ele>105.0</ele><time>2026-03-29T09:27:28.611Z</time></trkpt><trkpt lat="45.4107811" lon="10.6317218"><ele>105.0</ele><time>2026-03-29T09:27:29.623Z</time></trkpt><trkpt lat="45.4108704" lon="10.6317018"><ele>105.0</ele><time>2026-03-29T09:27:30.622Z</time></trkpt><trkpt lat="45.4109421" lon="10.6317052"><ele>105.0</ele><time>2026-03-29T09:27:31.631Z</time></trkpt><trkpt lat="45.4110031" lon="10.6317275"><ele>105.0</ele><time>2026-03-29T09:27:32.628Z</time></trkpt><trkpt lat="45.4110637" lon="10.6317812"><ele>105.0</ele><time>2026-03-29T09:27:33.622Z</time></trkpt><trkpt lat="45.4111186" lon="10.6318452"><ele>105.0</ele><time>2026-03-29T09:27:34.622Z</time></trkpt><trkpt lat="45.4111747" lon="10.631892"><ele>105.0</ele><time>2026-03-29T09:27:35.616Z</time></trkpt><trkpt lat="45.4112506" lon="10.631893"><ele>105.0</ele><time>2026-03-29T09:27:36.616Z</time></trkpt><trkpt lat="45.4113696" lon="10.6317918"><ele>105.0</ele><time>2026-03-29T09:27:38.62Z</time></trkpt><trkpt lat="45.4114108" lon="10.6317004"><ele>105.0</ele><time>2026-03-29T09:27:39.615Z</time></trkpt><trkpt lat="45.4114326" lon="10.6315737"><ele>105.0</ele><time>2026-03-29T09:27:40.623Z</time></trkpt><trkpt lat="45.4114343" lon="10.6314189"><ele>104.66666666666666</ele><time>2026-03-29T09:27:41.618Z</time></trkpt><trkpt lat="45.4114124" lon="10.6311927"><ele>104.33333333333333</ele><time>2026-03-29T09:27:42.622Z</time></trkpt><trkpt lat="45.4113851" lon="10.6309389"><ele>104.0</ele><time>2026-03-29T09:27:43.619Z</time></trkpt><trkpt lat="45.4113449" lon="10.6306132"><ele>102.33333333333333</ele><time>2026-03-29T09:27:44.622Z</time></trkpt><trkpt lat="45.4113338" lon="10.6303329"><ele>100.66666666666666</ele><time>2026-03-29T09:27:45.626Z</time></trkpt><trkpt lat="45.4113205" lon="10.6301092"><ele>99.0</ele><time>2026-03-29T09:27:46.625Z</time></trkpt><trkpt lat="45.4113379" lon="10.629864"><ele>99.0</ele><time>2026-03-29T09:27:47.636Z</time></trkpt><trkpt lat="45.4113435" lon="10.629609"><ele>99.0</ele><time>2026-03-29T09:27:48.631Z</time></trkpt><trkpt lat="45.4113574" lon="10.6293561"><ele>99.0</ele><time>2026-03-29T09:27:49.634Z</time></trkpt><trkpt lat="45.4113544" lon="10.6290925"><ele>99.0</ele><time>2026-03-29T09:27:50.628Z</time></trkpt><trkpt lat="45.4113603" lon="10.6288254"><ele>99.0</ele><time>2026-03-29T09:27:51.641Z</time></trkpt><trkpt lat="45.4113765" lon="10.6285854"><ele>99.0</ele><time>2026-03-29T09:27:52.634Z</time></trkpt><trkpt lat="45.4113803" lon="10.6283287"><ele>99.33333333333334</ele><time>2026-03-29T09:27:53.633Z</time></trkpt><trkpt lat="45.4113874" lon="10.6280725"><ele>99.66666666666667</ele><time>2026-03-29T09:27:54.635Z</time></trkpt><trkpt lat="45.4113704" lon="10.6278147"><ele>100.0</ele><time>2026-03-29T09:27:55.635Z</time></trkpt><trkpt lat="45.411337" lon="10.6275736"><ele>100.33333333333334</ele><time>2026-03-29T09:27:56.634Z</time></trkpt><trkpt lat="45.4112873" lon="10.627347"><ele>100.66666666666666</ele><time>2026-03-29T09:27:57.629Z</time></trkpt><trkpt lat="45.4112207" lon="10.6271291"><ele>101.0</ele><time>2026-03-29T09:27:58.642Z</time></trkpt><trkpt lat="45.41114" lon="10.6268922"><ele>101.33333333333333</ele><time>2026-03-29T09:27:59.625Z</time></trkpt><trkpt lat="45.4110494" lon="10.626646"><ele>101.66666666666666</ele><time>2026-03-29T09:28:00.623Z</time></trkpt><trkpt lat="45.410946" lon="10.6264523"><ele>102.0</ele><time>2026-03-29T09:28:01.633Z</time></trkpt><trkpt lat="45.4108559" lon="10.6262918"><ele>103.5</ele><time>2026-03-29T09:28:02.617Z</time></trkpt><trkpt lat="45.4107661" lon="10.6261364"><ele>105.0</ele><time>2026-03-29T09:28:03.619Z</time></trkpt><trkpt lat="45.4106834" lon="10.6260044"><ele>106.5</ele><time>2026-03-29T09:28:04.622Z</time></trkpt><trkpt lat="45.4105948" lon="10.625867"><ele>108.0</ele><time>2026-03-29T09:28:05.621Z</time></trkpt><trkpt lat="45.4105336" lon="10.625736"><ele>106.16666666666667</ele><time>2026-03-29T09:28:06.619Z</time></trkpt><trkpt lat="45.4104796" lon="10.6256434"><ele>104.33333333333334</ele><time>2026-03-29T09:28:07.618Z</time></trkpt><trkpt lat="45.4104423" lon="10.6255647"><ele>102.5</ele><time>2026-03-29T09:28:08.611Z</time></trkpt><trkpt lat="45.4103672" lon="10.6255021"><ele>100.66666666666667</ele><time>2026-03-29T09:28:10.619Z</time></trkpt><trkpt lat="45.4102988" lon="10.6255137"><ele>98.83333333333334</ele><time>2026-03-29T09:28:12.628Z</time></trkpt><trkpt lat="45.4102264" lon="10.6255803"><ele>97.0</ele><time>2026-03-29T09:28:27.621Z</time></trkpt><trkpt lat="45.4101705" lon="10.6256473"><ele>97.0</ele><time>2026-03-29T09:28:28.624Z</time></trkpt><trkpt lat="45.4100865" lon="10.6257476"><ele>97.0</ele><time>2026-03-29T09:28:29.618Z</time></trkpt><trkpt lat="45.4099742" lon="10.6258902"><ele>97.0</ele><time>2026-03-29T09:28:30.621Z</time></trkpt><trkpt lat="45.4098531" lon="10.6260211"><ele>97.0</ele><time>2026-03-29T09:28:31.641Z</time></trkpt><trkpt lat="45.4097329" lon="10.6261419"><ele>96.6</ele><time>2026-03-29T09:28:32.624Z</time></trkpt><trkpt lat="45.4096188" lon="10.6262418"><ele>96.19999999999999</ele><time>2026-03-29T09:28:33.617Z</time></trkpt><trkpt lat="45.4095295" lon="10.626318"><ele>95.8</ele><time>2026-03-29T09:28:34.625Z</time></trkpt><trkpt lat="45.4094487" lon="10.6263833"><ele>95.4</ele><time>2026-03-29T09:28:35.628Z</time></trkpt><trkpt lat="45.4093789" lon="10.6264482"><ele>95.0</ele><time>2026-03-29T09:28:36.629Z</time></trkpt><trkpt lat="45.4093136" lon="10.6265178"><ele>95.0</ele><time>2026-03-29T09:28:37.63Z</time></trkpt><trkpt lat="45.4092414" lon="10.6265789"><ele>95.0</ele><time>2026-03-29T09:28:38.629Z</time></trkpt><trkpt lat="45.4091696" lon="10.6266213"><ele>95.0</ele><time>2026-03-29T09:28:39.627Z</time></trkpt><trkpt lat="45.409102" lon="10.6266527"><ele>95.0</ele><time>2026-03-29T09:28:40.628Z</time></trkpt><trkpt lat="45.4090361" lon="10.6266692"><ele>95.0</ele><time>2026-03-29T09:28:41.632Z</time></trkpt><trkpt lat="45.4089731" lon="10.6266619"><ele>95.0</ele><time>2026-03-29T09:28:42.625Z</time></trkpt><trkpt lat="45.4088848" lon="10.6266424"><ele>95.16666666666667</ele><time>2026-03-29T09:28:44.624Z</time></trkpt><trkpt lat="45.4088081" lon="10.6266981"><ele>95.33333333333334</ele><time>2026-03-29T09:28:47.632Z</time></trkpt><trkpt lat="45.4087336" lon="10.6267646"><ele>95.5</ele><time>2026-03-29T09:29:58.634Z</time></trkpt><trkpt lat="45.4086548" lon="10.6268252"><ele>95.66666666666667</ele><time>2026-03-29T09:30:00.638Z</time></trkpt><trkpt lat="45.4085987" lon="10.6269046"><ele>95.83333333333333</ele><time>2026-03-29T09:30:02.64Z</time></trkpt><trkpt lat="45.4085815" lon="10.6270097"><ele>96.0</ele><time>2026-03-29T09:31:08.633Z</time></trkpt><trkpt lat="45.4084519" lon="10.627092"><ele>97.0</ele><time>2026-03-29T09:31:11.632Z</time></trkpt><trkpt lat="45.4083347" lon="10.6271541"><ele>98.0</ele><time>2026-03-29T09:31:12.62Z</time></trkpt><trkpt lat="45.4081834" lon="10.6272285"><ele>99.0</ele><time>2026-03-29T09:31:13.617Z</time></trkpt><trkpt lat="45.4080457" lon="10.6272814"><ele>100.0</ele><time>2026-03-29T09:31:14.617Z</time></trkpt><trkpt lat="45.4079189" lon="10.6273356"><ele>100.2</ele><time>2026-03-29T09:31:15.608Z</time></trkpt><trkpt lat="45.4078079" lon="10.6273954"><ele>100.4</ele><time>2026-03-29T09:31:16.622Z</time></trkpt><trkpt lat="45.4077135" lon="10.6274518"><ele>100.6</ele><time>2026-03-29T09:31:17.624Z</time></trkpt><trkpt lat="45.407633" lon="10.6275015"><ele>100.8</ele><time>2026-03-29T09:31:18.63Z</time></trkpt><trkpt lat="45.4075588" lon="10.6275517"><ele>101.0</ele><time>2026-03-29T09:31:19.629Z</time></trkpt><trkpt lat="45.407474" lon="10.627588"><ele>101.0</ele><time>2026-03-29T09:31:20.629Z</time></trkpt><trkpt lat="45.4073775" lon="10.6276273"><ele>101.0</ele><time>2026-03-29T09:31:21.641Z</time></trkpt><trkpt lat="45.407282" lon="10.6276831"><ele>101.0</ele><time>2026-03-29T09:31:22.64Z</time></trkpt><trkpt lat="45.4071767" lon="10.6277245"><ele>101.0</ele><time>2026-03-29T09:31:23.634Z</time></trkpt><trkpt lat="45.4070662" lon="10.6277407"><ele>101.0</ele><time>2026-03-29T09:31:24.638Z</time></trkpt><trkpt lat="45.4069479" lon="10.627724"><ele>100.75</ele><time>2026-03-29T09:31:25.623Z</time></trkpt><trkpt lat="45.4068136" lon="10.627684"><ele>100.5</ele><time>2026-03-29T09:31:26.634Z</time></trkpt><trkpt lat="45.4066711" lon="10.6276378"><ele>100.25</ele><time>2026-03-29T09:31:27.631Z</time></trkpt><trkpt lat="45.4065199" lon="10.6276129"><ele>100.0</ele><time>2026-03-29T09:31:28.628Z</time></trkpt><trkpt lat="45.4063685" lon="10.6275819"><ele>100.33333333333334</ele><time>2026-03-29T09:31:29.635Z</time></trkpt><trkpt lat="45.4062066" lon="10.6275318"><ele>100.66666666666666</ele><time>2026-03-29T09:31:30.629Z</time></trkpt><trkpt lat="45.4060462" lon="10.6274822"><ele>101.0</ele><time>2026-03-29T09:31:31.643Z</time></trkpt><trkpt lat="45.4058677" lon="10.6274221"><ele>101.0</ele><time>2026-03-29T09:31:32.63Z</time></trkpt><trkpt lat="45.4057169" lon="10.6273846"><ele>101.0</ele><time>2026-03-29T09:31:33.633Z</time></trkpt><trkpt lat="45.4055641" lon="10.6273412"><ele>101.0</ele><time>2026-03-29T09:31:34.636Z</time></trkpt><trkpt lat="45.4054171" lon="10.6272753"><ele>103.0</ele><time>2026-03-29T09:31:35.634Z</time></trkpt><trkpt lat="45.4052645" lon="10.6272107"><ele>105.0</ele><time>2026-03-29T09:31:36.63Z</time></trkpt><trkpt lat="45.4051189" lon="10.627119"><ele>107.0</ele><time>2026-03-29T09:31:37.629Z</time></trkpt><trkpt lat="45.4049655" lon="10.6270315"><ele>107.0</ele><time>2026-03-29T09:31:38.63Z</time></trkpt><trkpt lat="45.4048004" lon="10.6269832"><ele>107.0</ele><time>2026-03-29T09:31:39.631Z</time></trkpt><trkpt lat="45.4046337" lon="10.6269496"><ele>107.0</ele><time>2026-03-29T09:31:40.627Z</time></trkpt><trkpt lat="45.4044867" lon="10.6269128"><ele>111.0</ele><time>2026-03-29T09:31:41.641Z</time></trkpt><trkpt lat="45.4043572" lon="10.6268706"><ele>115.0</ele><time>2026-03-29T09:31:42.625Z</time></trkpt><trkpt lat="45.4042275" lon="10.6268488"><ele>119.0</ele><time>2026-03-29T09:31:43.621Z</time></trkpt><trkpt lat="45.4041132" lon="10.6268508"><ele>123.0</ele><time>2026-03-29T09:31:44.622Z</time></trkpt><trkpt lat="45.4039874" lon="10.6268695"><ele>123.0</ele><time>2026-03-29T09:31:45.626Z</time></trkpt><trkpt lat="45.4038716" lon="10.6268739"><ele>123.0</ele><time>2026-03-29T09:31:46.628Z</time></trkpt><trkpt lat="45.4037945" lon="10.6268906"><ele>123.0</ele><time>2026-03-29T09:31:47.625Z</time></trkpt><trkpt lat="45.4037123" lon="10.6268912"><ele>123.0</ele><time>2026-03-29T09:31:48.631Z</time></trkpt><trkpt lat="45.4036371" lon="10.6268795"><ele>123.0</ele><time>2026-03-29T09:31:49.627Z</time></trkpt><trkpt lat="45.4035696" lon="10.6268694"><ele>123.0</ele><time>2026-03-29T09:31:50.627Z</time></trkpt><trkpt lat="45.4034788" lon="10.6268276"><ele>123.2</ele><time>2026-03-29T09:31:52.63Z</time></trkpt><trkpt lat="45.4034119" lon="10.626763"><ele>123.4</ele><time>2026-03-29T09:31:55.631Z</time></trkpt><trkpt lat="45.4034015" lon="10.6266177"><ele>123.60000000000001</ele><time>2026-03-29T09:31:57.629Z</time></trkpt><trkpt lat="45.4034569" lon="10.6264733"><ele>123.80000000000001</ele><time>2026-03-29T09:31:59.615Z</time></trkpt><trkpt lat="45.4034925" lon="10.6263859"><ele>124.0</ele><time>2026-03-29T09:32:00.613Z</time></trkpt><trkpt lat="45.4035196" lon="10.6262641"><ele>124.00000000000001</ele><time>2026-03-29T09:32:01.62Z</time></trkpt><trkpt lat="45.4035402" lon="10.6261597"><ele>124.0</ele><time>2026-03-29T09:32:02.605Z</time></trkpt><trkpt lat="45.4035416" lon="10.6260563"><ele>124.0</ele><time>2026-03-29T09:32:03.616Z</time></trkpt><trkpt lat="45.4035206" lon="10.6258638"><ele>124.0</ele><time>2026-03-29T09:32:05.613Z</time></trkpt><trkpt lat="45.4034987" lon="10.6257519"><ele>124.00000000000001</ele><time>2026-03-29T09:32:06.613Z</time></trkpt><trkpt lat="45.4034903" lon="10.6256411"><ele>124.0</ele><time>2026-03-29T09:32:07.603Z</time></trkpt><trkpt lat="45.4034836" lon="10.6255376"><ele>124.00000000000001</ele><time>2026-03-29T09:32:08.6Z</time></trkpt><trkpt lat="45.4035033" lon="10.6254406"><ele>124.0</ele><time>2026-03-29T09:32:09.61Z</time></trkpt><trkpt lat="45.4035383" lon="10.6253627"><ele>124.0</ele><time>2026-03-29T09:32:10.605Z</time></trkpt><trkpt lat="45.4035691" lon="10.6252837"><ele>124.0</ele><time>2026-03-29T09:32:11.609Z</time></trkpt><trkpt lat="45.4036124" lon="10.6252032"><ele>124.00000000000001</ele><time>2026-03-29T09:32:12.608Z</time></trkpt><trkpt lat="45.403676" lon="10.6251285"><ele>124.0</ele><time>2026-03-29T09:32:13.604Z</time></trkpt><trkpt lat="45.4037653" lon="10.6250537"><ele>122.6</ele><time>2026-03-29T09:32:14.607Z</time></trkpt><trkpt lat="45.4038447" lon="10.6249675"><ele>121.2</ele><time>2026-03-29T09:32:15.605Z</time></trkpt><trkpt lat="45.4039155" lon="10.6248758"><ele>119.79999999999998</ele><time>2026-03-29T09:32:16.607Z</time></trkpt><trkpt lat="45.4039746" lon="10.6247997"><ele>118.39999999999999</ele><time>2026-03-29T09:32:17.602Z</time></trkpt><trkpt lat="45.4040255" lon="10.6247249"><ele>117.0</ele><time>2026-03-29T09:32:18.599Z</time></trkpt><trkpt lat="45.4040501" lon="10.6245541"><ele>114.5</ele><time>2026-03-29T09:32:20.613Z</time></trkpt><trkpt lat="45.4040117" lon="10.6244262"><ele>112.0</ele><time>2026-03-29T09:32:21.625Z</time></trkpt><trkpt lat="45.4039395" lon="10.6242707"><ele>109.5</ele><time>2026-03-29T09:32:22.618Z</time></trkpt><trkpt lat="45.4038639" lon="10.6241114"><ele>107.0</ele><time>2026-03-29T09:32:23.633Z</time></trkpt><trkpt lat="45.4034213" lon="10.62331"><ele>92.0</ele><time>2026-03-29T09:32:30.639Z</time></trkpt><trkpt lat="45.4040183" lon="10.6203816"><ele>91.0</ele><time>2026-03-29T09:32:46.649Z</time></trkpt><trkpt lat="45.4066936" lon="10.6193795"><ele>90.0</ele><time>2026-03-29T09:33:11.621Z</time></trkpt><trkpt lat="45.4054254" lon="10.6170398"><ele>100.0</ele><time>2026-03-29T09:33:31.634Z</time></trkpt><trkpt lat="45.4055166" lon="10.6140043"><ele>99.0</ele><time>2026-03-29T09:33:49.632Z</time></trkpt><trkpt lat="45.4047595" lon="10.6102935"><ele>97.0</ele><time>2026-03-29T09:34:15.626Z</time></trkpt><trkpt lat="45.4050934" lon="10.6064159"><ele>93.0</ele><time>2026-03-29T09:34:46.642Z</time></trkpt><trkpt lat="45.4039955" lon="10.6039772"><ele>104.0</ele><time>2026-03-29T09:35:17.641Z</time></trkpt><trkpt lat="45.4028636" lon="10.6028001"><ele>99.0</ele><time>2026-03-29T09:35:46.626Z</time></trkpt><trkpt lat="45.4030024" lon="10.5997972"><ele>96.0</ele><time>2026-03-29T09:37:49.622Z</time></trkpt><trkpt lat="45.4033485" lon="10.5969216"><ele>109.0</ele><time>2026-03-29T09:38:19.607Z</time></trkpt><trkpt lat="45.4019466" lon="10.5967644"><ele>117.0</ele><time>2026-03-29T09:38:33.611Z</time></trkpt><trkpt lat="45.4000748" lon="10.5954334"><ele>114.0</ele><time>2026-03-29T09:39:35.613Z</time></trkpt><trkpt lat="45.3993744" lon="10.5916712"><ele>106.0</ele><time>2026-03-29T09:39:54.621Z</time></trkpt><trkpt lat="45.3984996" lon="10.5869405"><ele>98.0</ele><time>2026-03-29T09:40:14.626Z</time></trkpt><trkpt lat="45.4016334" lon="10.5848129"><ele>95.0</ele><time>2026-03-29T09:40:58.624Z</time></trkpt><trkpt lat="45.403103" lon="10.5827099"><ele>97.0</ele><time>2026-03-29T09:41:21.623Z</time></trkpt><trkpt lat="45.4044319" lon="10.5793044"><ele>98.0</ele><time>2026-03-29T09:41:40.622Z</time></trkpt><trkpt lat="45.4038294" lon="10.5755663"><ele>96.0</ele><time>2026-03-29T09:42:13.619Z</time></trkpt><trkpt lat="45.4014903" lon="10.5735091"><ele>100.0</ele><time>2026-03-29T09:42:43.63Z</time></trkpt><trkpt lat="45.4028878" lon="10.5700358"><ele>95.0</ele><time>2026-03-29T09:43:13.628Z</time></trkpt><trkpt lat="45.4049874" lon="10.5673052"><ele>98.0</ele><time>2026-03-29T09:43:32.629Z</time></trkpt><trkpt lat="45.407345" lon="10.5636557"><ele>96.0</ele><time>2026-03-29T09:44:04.614Z</time></trkpt><trkpt lat="45.4099187" lon="10.5624096"><ele>97.0</ele><time>2026-03-29T09:44:23.626Z</time></trkpt><trkpt lat="45.4125218" lon="10.5637311"><ele>105.0</ele><time>2026-03-29T09:44:43.618Z</time></trkpt><trkpt lat="45.4152461" lon="10.5639507"><ele>108.0</ele><time>2026-03-29T09:45:08.592Z</time></trkpt><trkpt lat="45.4178136" lon="10.5625343"><ele>115.0</ele><time>2026-03-29T09:46:16.617Z</time></trkpt><trkpt lat="45.4199054" lon="10.5600824"><ele>114.0</ele><time>2026-03-29T09:46:34.621Z</time></trkpt><trkpt lat="45.4217522" lon="10.5572346"><ele>103.0</ele><time>2026-03-29T09:46:58.613Z</time></trkpt><trkpt lat="45.420891" lon="10.5535219"><ele>98.0</ele><time>2026-03-29T09:47:32.609Z</time></trkpt><trkpt lat="45.4194704" lon="10.5514702"><ele>108.0</ele><time>2026-03-29T09:48:04.619Z</time></trkpt><trkpt lat="45.4175724" lon="10.5484297"><ele>110.0</ele><time>2026-03-29T09:48:37.595Z</time></trkpt><trkpt lat="45.4159009" lon="10.5454126"><ele>109.0</ele><time>2026-03-29T09:48:54.605Z</time></trkpt><trkpt lat="45.4181413" lon="10.5415722"><ele>121.0</ele><time>2026-03-29T09:49:33.615Z</time></trkpt><trkpt lat="45.4205045" lon="10.5395186"><ele>124.0</ele><time>2026-03-29T09:49:52.61Z</time></trkpt><trkpt lat="45.4225017" lon="10.5384506"><ele>120.0</ele><time>2026-03-29T09:50:11.617Z</time></trkpt><trkpt lat="45.4252979" lon="10.5386269"><ele>107.0</ele><time>2026-03-29T09:50:35.615Z</time></trkpt><trkpt lat="45.427937" lon="10.5395639"><ele>106.0</ele><time>2026-03-29T09:51:03.618Z</time></trkpt><trkpt lat="45.4296412" lon="10.5425386"><ele>106.0</ele><time>2026-03-29T09:51:21.627Z</time></trkpt><trkpt lat="45.4311955" lon="10.545775"><ele>109.0</ele><time>2026-03-29T09:51:44.622Z</time></trkpt><trkpt lat="45.4323818" lon="10.5481627"><ele>111.0</ele><time>2026-03-29T09:52:17.621Z</time></trkpt><trkpt lat="45.4344347" lon="10.5485388"><ele>107.0</ele><time>2026-03-29T09:52:49.629Z</time></trkpt><trkpt lat="45.4362541" lon="10.54556"><ele>106.0</ele><time>2026-03-29T09:53:13.724Z</time></trkpt><trkpt lat="45.4384827" lon="10.5416907"><ele>108.0</ele><time>2026-03-29T09:53:31.631Z</time></trkpt><trkpt lat="45.4407649" lon="10.5366714"><ele>110.0</ele><time>2026-03-29T09:53:55.638Z</time></trkpt><trkpt lat="45.4389204" lon="10.5325758"><ele>125.0</ele><time>2026-03-29T09:54:40.627Z</time></trkpt><trkpt lat="45.4368169" lon="10.5287943"><ele>139.0</ele><time>2026-03-29T09:55:28.619Z</time></trkpt><trkpt lat="45.4371525" lon="10.5248283"><ele>120.0</ele><time>2026-03-29T09:55:51.617Z</time></trkpt><trkpt lat="45.4372922" lon="10.5208932"><ele>132.0</ele><time>2026-03-29T09:56:08.622Z</time></trkpt><trkpt lat="45.4407083" lon="10.5202128"><ele>132.0</ele><time>2026-03-29T09:56:51.608Z</time></trkpt><trkpt lat="45.4434966" lon="10.5203081"><ele>133.0</ele><time>2026-03-29T09:57:14.615Z</time></trkpt><trkpt lat="45.445549" lon="10.5196491"><ele>134.0</ele><time>2026-03-29T09:58:06.63Z</time></trkpt><trkpt lat="45.4475754" lon="10.5203527"><ele>133.0</ele><time>2026-03-29T09:58:22.632Z</time></trkpt><trkpt lat="45.4484654" lon="10.5177676"><ele>135.0</ele><time>2026-03-29T09:58:46.626Z</time></trkpt><trkpt lat="45.4497132" lon="10.5153667"><ele>145.0</ele><time>2026-03-29T09:59:10.629Z</time></trkpt><trkpt lat="45.4502375" lon="10.5115869"><ele>157.0</ele><time>2026-03-29T09:59:35.619Z</time></trkpt><trkpt lat="45.450812" lon="10.5098401"><ele>179.0</ele><time>2026-03-29T10:00:01.605Z</time></trkpt><trkpt lat="45.4518757" lon="10.5052626"><ele>180.0</ele><time>2026-03-29T10:00:26.605Z</time></trkpt><trkpt lat="45.4529608" lon="10.5017181"><ele>181.0</ele><time>2026-03-29T10:00:45.625Z</time></trkpt><trkpt lat="45.4550487" lon="10.4978108"><ele>174.0</ele><time>2026-03-29T10:01:07.598Z</time></trkpt><trkpt lat="45.4556525" lon="10.493898"><ele>161.0</ele><time>2026-03-29T10:01:24.602Z</time></trkpt><trkpt lat="45.4568625" lon="10.4903796"><ele>163.0</ele><time>2026-03-29T10:02:39.606Z</time></trkpt><trkpt lat="45.4587153" lon="10.4890321"><ele>161.0</ele><time>2026-03-29T10:03:31.608Z</time></trkpt><trkpt lat="45.4605574" lon="10.4902264"><ele>169.0</ele><time>2026-03-29T10:03:51.62Z</time></trkpt><trkpt lat="45.4626015" lon="10.4901701"><ele>165.0</ele><time>2026-03-29T10:04:28.602Z</time></trkpt><trkpt lat="45.4652541" lon="10.4888181"><ele>165.0</ele><time>2026-03-29T10:04:47.614Z</time></trkpt><trkpt lat="45.4685621" lon="10.4897906"><ele>152.0</ele><time>2026-03-29T10:05:06.619Z</time></trkpt><trkpt lat="45.4718305" lon="10.4912766"><ele>163.0</ele><time>2026-03-29T10:05:26.623Z</time></trkpt><trkpt lat="45.4751793" lon="10.4904382"><ele>167.0</ele><time>2026-03-29T10:06:06.607Z</time></trkpt><trkpt lat="45.4770991" lon="10.491634"><ele>179.0</ele><time>2026-03-29T10:06:24.617Z</time></trkpt><trkpt lat="45.4798768" lon="10.4916354"><ele>203.0</ele><time>2026-03-29T10:07:03.614Z</time></trkpt><trkpt lat="45.4793594" lon="10.4877627"><ele>214.0</ele><time>2026-03-29T10:08:10.589Z</time></trkpt><trkpt lat="45.4800951" lon="10.4850773"><ele>228.0</ele><time>2026-03-29T10:08:35.596Z</time></trkpt><trkpt lat="45.4796079" lon="10.4822523"><ele>216.0</ele><time>2026-03-29T10:08:59.599Z</time></trkpt><trkpt lat="45.478969" lon="10.4805499"><ele>209.0</ele><time>2026-03-29T10:09:19.592Z</time></trkpt><trkpt lat="45.4771214" lon="10.4793371"><ele>198.0</ele><time>2026-03-29T10:11:37.624Z</time></trkpt><trkpt lat="45.4751728" lon="10.4781725"><ele>185.0</ele><time>2026-03-29T10:12:12.605Z</time></trkpt><trkpt lat="45.474533" lon="10.4743809"><ele>166.0</ele><time>2026-03-29T10:12:32.615Z</time></trkpt><trkpt lat="45.475109" lon="10.4694015"><ele>157.0</ele><time>2026-03-29T10:13:01.625Z</time></trkpt><trkpt lat="45.4753566" lon="10.4645687"><ele>155.0</ele><time>2026-03-29T10:13:18.616Z</time></trkpt><trkpt lat="45.4765992" lon="10.4598779"><ele>154.0</ele><time>2026-03-29T10:13:42.61Z</time></trkpt><trkpt lat="45.4774038" lon="10.4561968"><ele>151.0</ele><time>2026-03-29T10:14:02.609Z</time></trkpt><trkpt lat="45.478998" lon="10.4541865"><ele>152.0</ele><time>2026-03-29T10:14:18.71Z</time></trkpt><trkpt lat="45.4824973" lon="10.4536484"><ele>157.0</ele><time>2026-03-29T10:14:45.629Z</time></trkpt><trkpt lat="45.4845575" lon="10.4562529"><ele>162.0</ele><time>2026-03-29T10:15:16.624Z</time></trkpt><trkpt lat="45.4838719" lon="10.4600217"><ele>165.0</ele><time>2026-03-29T10:15:43.613Z</time></trkpt><trkpt lat="45.4846703" lon="10.4637208"><ele>169.0</ele><time>2026-03-29T10:16:09.616Z</time></trkpt><trkpt lat="45.4849438" lon="10.4667731"><ele>175.0</ele><time>2026-03-29T10:16:23.621Z</time></trkpt><trkpt lat="45.4852823" lon="10.4707116"><ele>176.0</ele><time>2026-03-29T10:16:44.622Z</time></trkpt><trkpt lat="45.488022" lon="10.47032"><ele>170.0</ele><time>2026-03-29T10:18:11.617Z</time></trkpt><trkpt lat="45.48793" lon="10.4673856"><ele>165.0</ele><time>2026-03-29T10:18:28.719Z</time></trkpt><trkpt lat="45.4877208" lon="10.4624135"><ele>159.0</ele><time>2026-03-29T10:18:47.72Z</time></trkpt><trkpt lat="45.4878042" lon="10.4575868"><ele>158.0</ele><time>2026-03-29T10:19:06.701Z</time></trkpt><trkpt lat="45.488085" lon="10.4527689"><ele>155.0</ele><time>2026-03-29T10:19:23.724Z</time></trkpt><trkpt lat="45.4882808" lon="10.447828"><ele>158.0</ele><time>2026-03-29T10:19:46.705Z</time></trkpt><trkpt lat="45.4916155" lon="10.4465841"><ele>163.0</ele><time>2026-03-29T10:20:23.635Z</time></trkpt><trkpt lat="45.4948788" lon="10.4479623"><ele>162.0</ele><time>2026-03-29T10:20:44.635Z</time></trkpt><trkpt lat="45.4969213" lon="10.4453902"><ele>167.0</ele><time>2026-03-29T10:21:20.626Z</time></trkpt><trkpt lat="45.4990434" lon="10.4428916"><ele>164.0</ele><time>2026-03-29T10:21:41.615Z</time></trkpt><trkpt lat="45.5014471" lon="10.441066"><ele>167.0</ele><time>2026-03-29T10:22:16.625Z</time></trkpt><trkpt lat="45.5025956" lon="10.4435515"><ele>169.0</ele><time>2026-03-29T10:22:59.64Z</time></trkpt><trkpt lat="45.5013572" lon="10.4469773"><ele>171.0</ele><time>2026-03-29T10:23:20.623Z</time></trkpt><trkpt lat="45.5008382" lon="10.4497679"><ele>170.0</ele><time>2026-03-29T10:23:42.621Z</time></trkpt><trkpt lat="45.5029471" lon="10.4498956"><ele>174.0</ele><time>2026-03-29T10:24:03.627Z</time></trkpt><trkpt lat="45.505527" lon="10.4486376"><ele>174.0</ele><time>2026-03-29T10:24:22.626Z</time></trkpt><trkpt lat="45.50738" lon="10.4472351"><ele>176.0</ele><time>2026-03-29T10:24:46.631Z</time></trkpt><trkpt lat="45.5098372" lon="10.4439067"><ele>178.0</ele><time>2026-03-29T10:25:06.624Z</time></trkpt><trkpt lat="45.5128388" lon="10.4414915"><ele>181.0</ele><time>2026-03-29T10:25:44.633Z</time></trkpt><trkpt lat="45.5145535" lon="10.4372375"><ele>181.0</ele><time>2026-03-29T10:26:05.637Z</time></trkpt><trkpt lat="45.5145601" lon="10.4340976"><ele>184.0</ele><time>2026-03-29T10:26:22.64Z</time></trkpt><trkpt lat="45.5146658" lon="10.4291388"><ele>180.0</ele><time>2026-03-29T10:26:42.722Z</time></trkpt><trkpt lat="45.5150897" lon="10.4241669"><ele>183.0</ele><time>2026-03-29T10:27:02.724Z</time></trkpt><trkpt lat="45.5153232" lon="10.420163"><ele>175.0</ele><time>2026-03-29T10:27:22.62Z</time></trkpt><trkpt lat="45.5136762" lon="10.4158558"><ele>193.0</ele><time>2026-03-29T10:27:46.62Z</time></trkpt><trkpt lat="45.5163121" lon="10.4149229"><ele>193.0</ele><time>2026-03-29T10:28:31.619Z</time></trkpt></trkseg></trk></gpx>